<?xml version="1.0" encoding="UTF-8" standalone="no" ?>
<gpx xmlns="http://www.topografix.com/GPX/1/1" xmlns:xsi="http://www.w3.org/2001/XMLSchema-instance" xsi:schemaLocation="http://www.topografix.com/GPX/1/1 http://www.topografix.com/GPX/1/1/gpx.xsd" version="1.1" creator="VisuGPX - https://www.visugpx.com">
  <metadata>
    <name>Amiens la Hotoie, ile d'Aragone</name>
    <desc><![CDATA[nouvelle échelle à poissons ]]></desc>
  </metadata>
  <trk>
    <name><![CDATA[Amiens la Hotoie, ile d'Aragone_1]]></name>
    <trkseg>
      <trkpt lat="49.89897" lon="2.28279">
        <ele>23.3</ele>
        <time>2023-01-20T12:59:47Z</time>
      </trkpt>
      <trkpt lat="49.89905" lon="2.28268">
        <ele>23.2</ele>
        <time>2023-01-20T12:59:48Z</time>
      </trkpt>
      <trkpt lat="49.89908" lon="2.28263">
        <ele>23.2</ele>
        <time>2023-01-20T12:59:49Z</time>
      </trkpt>
      <trkpt lat="49.89911" lon="2.28259">
        <ele>23.2</ele>
        <time>2023-01-20T12:59:50Z</time>
      </trkpt>
      <trkpt lat="49.89911" lon="2.28259">
        <ele>23.2</ele>
        <time>2023-01-20T12:59:51Z</time>
      </trkpt>
      <trkpt lat="49.89911" lon="2.28265">
        <ele>23.2</ele>
        <time>2023-01-20T12:59:52Z</time>
      </trkpt>
      <trkpt lat="49.89911" lon="2.28275">
        <ele>23.2</ele>
        <time>2023-01-20T12:59:53Z</time>
      </trkpt>
      <trkpt lat="49.89911" lon="2.2828">
        <ele>23.2</ele>
        <time>2023-01-20T12:59:54Z</time>
      </trkpt>
      <trkpt lat="49.89912" lon="2.28284">
        <ele>23.1</ele>
        <time>2023-01-20T12:59:55Z</time>
      </trkpt>
      <trkpt lat="49.89912" lon="2.28283">
        <ele>23.1</ele>
        <time>2023-01-20T12:59:56Z</time>
      </trkpt>
      <trkpt lat="49.89912" lon="2.28283">
        <ele>23.1</ele>
        <time>2023-01-20T12:59:58Z</time>
      </trkpt>
      <trkpt lat="49.89914" lon="2.28284">
        <ele>23.1</ele>
        <time>2023-01-20T12:59:59Z</time>
      </trkpt>
      <trkpt lat="49.89914" lon="2.28285">
        <ele>23.1</ele>
        <time>2023-01-20T13:00:01Z</time>
      </trkpt>
      <trkpt lat="49.89915" lon="2.28286">
        <ele>23.1</ele>
        <time>2023-01-20T13:00:02Z</time>
      </trkpt>
      <trkpt lat="49.89916" lon="2.28288">
        <ele>23.1</ele>
        <time>2023-01-20T13:00:03Z</time>
      </trkpt>
      <trkpt lat="49.89916" lon="2.2829">
        <ele>23.1</ele>
        <time>2023-01-20T13:00:04Z</time>
      </trkpt>
      <trkpt lat="49.89917" lon="2.28291">
        <ele>23.1</ele>
        <time>2023-01-20T13:00:05Z</time>
      </trkpt>
      <trkpt lat="49.89917" lon="2.28292">
        <ele>23.1</ele>
        <time>2023-01-20T13:00:06Z</time>
      </trkpt>
      <trkpt lat="49.89918" lon="2.28294">
        <ele>23.1</ele>
        <time>2023-01-20T13:00:08Z</time>
      </trkpt>
      <trkpt lat="49.89918" lon="2.28295">
        <ele>23.1</ele>
        <time>2023-01-20T13:00:09Z</time>
      </trkpt>
      <trkpt lat="49.89919" lon="2.28296">
        <ele>23.1</ele>
        <time>2023-01-20T13:00:10Z</time>
      </trkpt>
      <trkpt lat="49.89919" lon="2.28298">
        <ele>23</ele>
        <time>2023-01-20T13:00:11Z</time>
      </trkpt>
      <trkpt lat="49.8992" lon="2.28299">
        <ele>23</ele>
        <time>2023-01-20T13:00:12Z</time>
      </trkpt>
      <trkpt lat="49.89921" lon="2.28301">
        <ele>23</ele>
        <time>2023-01-20T13:00:13Z</time>
      </trkpt>
      <trkpt lat="49.89921" lon="2.28302">
        <ele>23</ele>
        <time>2023-01-20T13:00:14Z</time>
      </trkpt>
      <trkpt lat="49.89922" lon="2.28303">
        <ele>23</ele>
        <time>2023-01-20T13:00:15Z</time>
      </trkpt>
      <trkpt lat="49.89922" lon="2.28304">
        <ele>23</ele>
        <time>2023-01-20T13:00:16Z</time>
      </trkpt>
      <trkpt lat="49.89922" lon="2.28305">
        <ele>23</ele>
        <time>2023-01-20T13:00:17Z</time>
      </trkpt>
      <trkpt lat="49.89923" lon="2.28306">
        <ele>23</ele>
        <time>2023-01-20T13:00:18Z</time>
      </trkpt>
      <trkpt lat="49.89924" lon="2.28307">
        <ele>23</ele>
        <time>2023-01-20T13:00:20Z</time>
      </trkpt>
      <trkpt lat="49.89925" lon="2.28308">
        <ele>23</ele>
        <time>2023-01-20T13:00:21Z</time>
      </trkpt>
      <trkpt lat="49.89925" lon="2.28308">
        <ele>23</ele>
        <time>2023-01-20T13:00:22Z</time>
      </trkpt>
      <trkpt lat="49.89926" lon="2.2831">
        <ele>23</ele>
        <time>2023-01-20T13:00:23Z</time>
      </trkpt>
      <trkpt lat="49.89927" lon="2.28311">
        <ele>23</ele>
        <time>2023-01-20T13:00:24Z</time>
      </trkpt>
      <trkpt lat="49.89928" lon="2.28312">
        <ele>22.9</ele>
        <time>2023-01-20T13:00:25Z</time>
      </trkpt>
      <trkpt lat="49.89929" lon="2.28314">
        <ele>22.9</ele>
        <time>2023-01-20T13:00:26Z</time>
      </trkpt>
      <trkpt lat="49.8993" lon="2.28316">
        <ele>22.9</ele>
        <time>2023-01-20T13:00:28Z</time>
      </trkpt>
      <trkpt lat="49.89931" lon="2.28318">
        <ele>22.9</ele>
        <time>2023-01-20T13:00:29Z</time>
      </trkpt>
      <trkpt lat="49.89932" lon="2.28321">
        <ele>22.9</ele>
        <time>2023-01-20T13:00:30Z</time>
      </trkpt>
      <trkpt lat="49.89932" lon="2.28323">
        <ele>22.9</ele>
        <time>2023-01-20T13:00:31Z</time>
      </trkpt>
      <trkpt lat="49.89932" lon="2.28324">
        <ele>22.9</ele>
        <time>2023-01-20T13:00:32Z</time>
      </trkpt>
      <trkpt lat="49.89933" lon="2.28327">
        <ele>22.9</ele>
        <time>2023-01-20T13:00:33Z</time>
      </trkpt>
      <trkpt lat="49.89933" lon="2.28328">
        <ele>22.9</ele>
        <time>2023-01-20T13:00:34Z</time>
      </trkpt>
      <trkpt lat="49.89934" lon="2.28329">
        <ele>22.9</ele>
        <time>2023-01-20T13:00:36Z</time>
      </trkpt>
      <trkpt lat="49.89934" lon="2.2833">
        <ele>22.9</ele>
        <time>2023-01-20T13:00:37Z</time>
      </trkpt>
      <trkpt lat="49.89935" lon="2.28331">
        <ele>22.9</ele>
        <time>2023-01-20T13:00:38Z</time>
      </trkpt>
      <trkpt lat="49.89936" lon="2.28332">
        <ele>22.9</ele>
        <time>2023-01-20T13:00:39Z</time>
      </trkpt>
      <trkpt lat="49.89936" lon="2.28333">
        <ele>22.9</ele>
        <time>2023-01-20T13:00:40Z</time>
      </trkpt>
      <trkpt lat="49.89938" lon="2.28332">
        <ele>22.9</ele>
        <time>2023-01-20T13:00:41Z</time>
      </trkpt>
      <trkpt lat="49.8994" lon="2.28332">
        <ele>22.9</ele>
        <time>2023-01-20T13:00:42Z</time>
      </trkpt>
      <trkpt lat="49.89941" lon="2.28332">
        <ele>22.9</ele>
        <time>2023-01-20T13:00:43Z</time>
      </trkpt>
      <trkpt lat="49.89943" lon="2.28332">
        <ele>22.9</ele>
        <time>2023-01-20T13:00:45Z</time>
      </trkpt>
      <trkpt lat="49.89944" lon="2.28332">
        <ele>22.9</ele>
        <time>2023-01-20T13:00:46Z</time>
      </trkpt>
      <trkpt lat="49.89944" lon="2.28332">
        <ele>22.9</ele>
        <time>2023-01-20T13:00:47Z</time>
      </trkpt>
      <trkpt lat="49.89945" lon="2.28332">
        <ele>22.9</ele>
        <time>2023-01-20T13:00:48Z</time>
      </trkpt>
      <trkpt lat="49.89947" lon="2.28332">
        <ele>22.9</ele>
        <time>2023-01-20T13:00:49Z</time>
      </trkpt>
      <trkpt lat="49.89948" lon="2.28333">
        <ele>22.9</ele>
        <time>2023-01-20T13:00:50Z</time>
      </trkpt>
      <trkpt lat="49.8995" lon="2.28334">
        <ele>22.9</ele>
        <time>2023-01-20T13:00:51Z</time>
      </trkpt>
      <trkpt lat="49.89951" lon="2.28334">
        <ele>22.9</ele>
        <time>2023-01-20T13:00:52Z</time>
      </trkpt>
      <trkpt lat="49.89952" lon="2.28334">
        <ele>22.9</ele>
        <time>2023-01-20T13:00:54Z</time>
      </trkpt>
      <trkpt lat="49.89954" lon="2.28334">
        <ele>22.8</ele>
        <time>2023-01-20T13:00:55Z</time>
      </trkpt>
      <trkpt lat="49.89954" lon="2.28333">
        <ele>22.8</ele>
        <time>2023-01-20T13:00:56Z</time>
      </trkpt>
      <trkpt lat="49.89955" lon="2.28333">
        <ele>22.8</ele>
        <time>2023-01-20T13:00:57Z</time>
      </trkpt>
      <trkpt lat="49.89956" lon="2.28333">
        <ele>22.8</ele>
        <time>2023-01-20T13:00:58Z</time>
      </trkpt>
      <trkpt lat="49.89957" lon="2.28333">
        <ele>22.8</ele>
        <time>2023-01-20T13:00:59Z</time>
      </trkpt>
      <trkpt lat="49.89958" lon="2.28334">
        <ele>22.8</ele>
        <time>2023-01-20T13:01:00Z</time>
      </trkpt>
      <trkpt lat="49.8996" lon="2.28334">
        <ele>22.8</ele>
        <time>2023-01-20T13:01:01Z</time>
      </trkpt>
      <trkpt lat="49.89961" lon="2.28334">
        <ele>22.8</ele>
        <time>2023-01-20T13:01:03Z</time>
      </trkpt>
      <trkpt lat="49.89962" lon="2.28334">
        <ele>22.8</ele>
        <time>2023-01-20T13:01:04Z</time>
      </trkpt>
      <trkpt lat="49.89964" lon="2.28334">
        <ele>22.8</ele>
        <time>2023-01-20T13:01:05Z</time>
      </trkpt>
      <trkpt lat="49.89964" lon="2.28334">
        <ele>22.8</ele>
        <time>2023-01-20T13:01:06Z</time>
      </trkpt>
      <trkpt lat="49.89964" lon="2.28333">
        <ele>22.8</ele>
        <time>2023-01-20T13:01:07Z</time>
      </trkpt>
      <trkpt lat="49.89965" lon="2.28332">
        <ele>22.8</ele>
        <time>2023-01-20T13:01:08Z</time>
      </trkpt>
      <trkpt lat="49.89967" lon="2.28331">
        <ele>22.8</ele>
        <time>2023-01-20T13:01:09Z</time>
      </trkpt>
      <trkpt lat="49.89967" lon="2.28332">
        <ele>22.8</ele>
        <time>2023-01-20T13:01:10Z</time>
      </trkpt>
      <trkpt lat="49.89968" lon="2.28332">
        <ele>22.8</ele>
        <time>2023-01-20T13:01:12Z</time>
      </trkpt>
      <trkpt lat="49.89969" lon="2.28333">
        <ele>22.8</ele>
        <time>2023-01-20T13:01:13Z</time>
      </trkpt>
      <trkpt lat="49.89969" lon="2.28333">
        <ele>22.8</ele>
        <time>2023-01-20T13:01:14Z</time>
      </trkpt>
      <trkpt lat="49.8997" lon="2.28334">
        <ele>22.8</ele>
        <time>2023-01-20T13:01:15Z</time>
      </trkpt>
      <trkpt lat="49.89971" lon="2.28334">
        <ele>22.8</ele>
        <time>2023-01-20T13:01:16Z</time>
      </trkpt>
      <trkpt lat="49.89971" lon="2.28334">
        <ele>22.8</ele>
        <time>2023-01-20T13:01:18Z</time>
      </trkpt>
      <trkpt lat="49.89971" lon="2.28335">
        <ele>22.8</ele>
        <time>2023-01-20T13:01:19Z</time>
      </trkpt>
      <trkpt lat="49.89971" lon="2.28334">
        <ele>22.8</ele>
        <time>2023-01-20T13:01:20Z</time>
      </trkpt>
      <trkpt lat="49.89971" lon="2.28333">
        <ele>22.8</ele>
        <time>2023-01-20T13:01:21Z</time>
      </trkpt>
      <trkpt lat="49.89971" lon="2.28332">
        <ele>22.8</ele>
        <time>2023-01-20T13:01:22Z</time>
      </trkpt>
      <trkpt lat="49.89971" lon="2.28331">
        <ele>22.8</ele>
        <time>2023-01-20T13:01:24Z</time>
      </trkpt>
      <trkpt lat="49.8997" lon="2.2833">
        <ele>22.8</ele>
        <time>2023-01-20T13:01:25Z</time>
      </trkpt>
      <trkpt lat="49.8997" lon="2.2833">
        <ele>22.8</ele>
        <time>2023-01-20T13:01:26Z</time>
      </trkpt>
      <trkpt lat="49.8997" lon="2.2833">
        <ele>22.8</ele>
        <time>2023-01-20T13:01:28Z</time>
      </trkpt>
      <trkpt lat="49.8997" lon="2.2833">
        <ele>22.8</ele>
        <time>2023-01-20T13:01:29Z</time>
      </trkpt>
      <trkpt lat="49.8997" lon="2.28331">
        <ele>22.8</ele>
        <time>2023-01-20T13:01:31Z</time>
      </trkpt>
      <trkpt lat="49.8997" lon="2.2833">
        <ele>22.8</ele>
        <time>2023-01-20T13:01:32Z</time>
      </trkpt>
      <trkpt lat="49.8997" lon="2.28331">
        <ele>22.8</ele>
        <time>2023-01-20T13:01:34Z</time>
      </trkpt>
      <trkpt lat="49.8997" lon="2.2833">
        <ele>22.8</ele>
        <time>2023-01-20T13:01:35Z</time>
      </trkpt>
      <trkpt lat="49.8997" lon="2.2833">
        <ele>22.8</ele>
        <time>2023-01-20T13:01:36Z</time>
      </trkpt>
      <trkpt lat="49.8997" lon="2.2833">
        <ele>22.8</ele>
        <time>2023-01-20T13:01:38Z</time>
      </trkpt>
      <trkpt lat="49.8997" lon="2.2833">
        <ele>22.8</ele>
        <time>2023-01-20T13:01:39Z</time>
      </trkpt>
      <trkpt lat="49.89969" lon="2.28331">
        <ele>22.8</ele>
        <time>2023-01-20T13:01:41Z</time>
      </trkpt>
      <trkpt lat="49.89969" lon="2.28331">
        <ele>22.8</ele>
        <time>2023-01-20T13:01:42Z</time>
      </trkpt>
      <trkpt lat="49.89969" lon="2.28331">
        <ele>22.8</ele>
        <time>2023-01-20T13:01:43Z</time>
      </trkpt>
      <trkpt lat="49.89969" lon="2.28331">
        <ele>22.8</ele>
        <time>2023-01-20T13:01:44Z</time>
      </trkpt>
      <trkpt lat="49.89969" lon="2.28331">
        <ele>22.8</ele>
        <time>2023-01-20T13:01:45Z</time>
      </trkpt>
      <trkpt lat="49.89969" lon="2.28331">
        <ele>22.8</ele>
        <time>2023-01-20T13:01:46Z</time>
      </trkpt>
      <trkpt lat="49.89969" lon="2.28331">
        <ele>22.8</ele>
        <time>2023-01-20T13:01:47Z</time>
      </trkpt>
      <trkpt lat="49.89969" lon="2.28331">
        <ele>22.8</ele>
        <time>2023-01-20T13:01:48Z</time>
      </trkpt>
      <trkpt lat="49.89969" lon="2.28331">
        <ele>22.8</ele>
        <time>2023-01-20T13:01:49Z</time>
      </trkpt>
      <trkpt lat="49.89969" lon="2.28331">
        <ele>22.8</ele>
        <time>2023-01-20T13:01:50Z</time>
      </trkpt>
      <trkpt lat="49.89969" lon="2.28331">
        <ele>22.8</ele>
        <time>2023-01-20T13:01:51Z</time>
      </trkpt>
      <trkpt lat="49.89969" lon="2.28331">
        <ele>22.8</ele>
        <time>2023-01-20T13:01:52Z</time>
      </trkpt>
      <trkpt lat="49.89969" lon="2.28331">
        <ele>22.8</ele>
        <time>2023-01-20T13:01:53Z</time>
      </trkpt>
      <trkpt lat="49.89971" lon="2.2833">
        <ele>22.8</ele>
        <time>2023-01-20T13:01:54Z</time>
      </trkpt>
      <trkpt lat="49.89974" lon="2.28331">
        <ele>22.7</ele>
        <time>2023-01-20T13:01:55Z</time>
      </trkpt>
      <trkpt lat="49.89975" lon="2.28331">
        <ele>22.7</ele>
        <time>2023-01-20T13:01:56Z</time>
      </trkpt>
      <trkpt lat="49.89976" lon="2.28331">
        <ele>22.7</ele>
        <time>2023-01-20T13:01:58Z</time>
      </trkpt>
      <trkpt lat="49.89977" lon="2.28331">
        <ele>22.7</ele>
        <time>2023-01-20T13:01:59Z</time>
      </trkpt>
      <trkpt lat="49.89982" lon="2.28333">
        <ele>22.7</ele>
        <time>2023-01-20T13:02:00Z</time>
      </trkpt>
      <trkpt lat="49.89981" lon="2.28334">
        <ele>22.7</ele>
        <time>2023-01-20T13:02:01Z</time>
      </trkpt>
      <trkpt lat="49.89982" lon="2.28336">
        <ele>22.7</ele>
        <time>2023-01-20T13:02:02Z</time>
      </trkpt>
      <trkpt lat="49.89983" lon="2.28337">
        <ele>22.7</ele>
        <time>2023-01-20T13:02:03Z</time>
      </trkpt>
      <trkpt lat="49.89984" lon="2.28338">
        <ele>22.7</ele>
        <time>2023-01-20T13:02:04Z</time>
      </trkpt>
      <trkpt lat="49.89985" lon="2.28338">
        <ele>22.7</ele>
        <time>2023-01-20T13:02:05Z</time>
      </trkpt>
      <trkpt lat="49.89986" lon="2.28339">
        <ele>22.7</ele>
        <time>2023-01-20T13:02:07Z</time>
      </trkpt>
      <trkpt lat="49.89987" lon="2.2834">
        <ele>22.7</ele>
        <time>2023-01-20T13:02:08Z</time>
      </trkpt>
      <trkpt lat="49.89988" lon="2.28341">
        <ele>22.7</ele>
        <time>2023-01-20T13:02:09Z</time>
      </trkpt>
      <trkpt lat="49.89989" lon="2.28342">
        <ele>22.7</ele>
        <time>2023-01-20T13:02:10Z</time>
      </trkpt>
      <trkpt lat="49.8999" lon="2.28342">
        <ele>22.7</ele>
        <time>2023-01-20T13:02:11Z</time>
      </trkpt>
      <trkpt lat="49.8999" lon="2.28343">
        <ele>22.7</ele>
        <time>2023-01-20T13:02:12Z</time>
      </trkpt>
      <trkpt lat="49.89991" lon="2.28344">
        <ele>22.7</ele>
        <time>2023-01-20T13:02:13Z</time>
      </trkpt>
      <trkpt lat="49.89992" lon="2.28345">
        <ele>22.7</ele>
        <time>2023-01-20T13:02:15Z</time>
      </trkpt>
      <trkpt lat="49.89994" lon="2.28346">
        <ele>22.7</ele>
        <time>2023-01-20T13:02:16Z</time>
      </trkpt>
      <trkpt lat="49.89995" lon="2.28347">
        <ele>22.7</ele>
        <time>2023-01-20T13:02:17Z</time>
      </trkpt>
      <trkpt lat="49.89996" lon="2.28348">
        <ele>22.7</ele>
        <time>2023-01-20T13:02:18Z</time>
      </trkpt>
      <trkpt lat="49.89998" lon="2.28349">
        <ele>22.7</ele>
        <time>2023-01-20T13:02:19Z</time>
      </trkpt>
      <trkpt lat="49.9" lon="2.28352">
        <ele>22.7</ele>
        <time>2023-01-20T13:02:20Z</time>
      </trkpt>
      <trkpt lat="49.90001" lon="2.28353">
        <ele>22.7</ele>
        <time>2023-01-20T13:02:21Z</time>
      </trkpt>
      <trkpt lat="49.90002" lon="2.28354">
        <ele>22.6</ele>
        <time>2023-01-20T13:02:22Z</time>
      </trkpt>
      <trkpt lat="49.90003" lon="2.28355">
        <ele>22.6</ele>
        <time>2023-01-20T13:02:23Z</time>
      </trkpt>
      <trkpt lat="49.90006" lon="2.28357">
        <ele>22.6</ele>
        <time>2023-01-20T13:02:25Z</time>
      </trkpt>
      <trkpt lat="49.90007" lon="2.28358">
        <ele>22.6</ele>
        <time>2023-01-20T13:02:26Z</time>
      </trkpt>
      <trkpt lat="49.90008" lon="2.28359">
        <ele>22.6</ele>
        <time>2023-01-20T13:02:27Z</time>
      </trkpt>
      <trkpt lat="49.9001" lon="2.28359">
        <ele>22.6</ele>
        <time>2023-01-20T13:02:28Z</time>
      </trkpt>
      <trkpt lat="49.90011" lon="2.2836">
        <ele>22.6</ele>
        <time>2023-01-20T13:02:29Z</time>
      </trkpt>
      <trkpt lat="49.90013" lon="2.2836">
        <ele>22.6</ele>
        <time>2023-01-20T13:02:30Z</time>
      </trkpt>
      <trkpt lat="49.90014" lon="2.28361">
        <ele>22.7</ele>
        <time>2023-01-20T13:02:31Z</time>
      </trkpt>
      <trkpt lat="49.90016" lon="2.28361">
        <ele>22.7</ele>
        <time>2023-01-20T13:02:32Z</time>
      </trkpt>
      <trkpt lat="49.90017" lon="2.28361">
        <ele>22.7</ele>
        <time>2023-01-20T13:02:33Z</time>
      </trkpt>
      <trkpt lat="49.90019" lon="2.28362">
        <ele>22.7</ele>
        <time>2023-01-20T13:02:34Z</time>
      </trkpt>
      <trkpt lat="49.9002" lon="2.28362">
        <ele>22.7</ele>
        <time>2023-01-20T13:02:35Z</time>
      </trkpt>
      <trkpt lat="49.90022" lon="2.28362">
        <ele>22.7</ele>
        <time>2023-01-20T13:02:37Z</time>
      </trkpt>
      <trkpt lat="49.90023" lon="2.28363">
        <ele>22.7</ele>
        <time>2023-01-20T13:02:38Z</time>
      </trkpt>
      <trkpt lat="49.90025" lon="2.28363">
        <ele>22.7</ele>
        <time>2023-01-20T13:02:39Z</time>
      </trkpt>
      <trkpt lat="49.90027" lon="2.28363">
        <ele>22.7</ele>
        <time>2023-01-20T13:02:40Z</time>
      </trkpt>
      <trkpt lat="49.90028" lon="2.28363">
        <ele>22.7</ele>
        <time>2023-01-20T13:02:41Z</time>
      </trkpt>
      <trkpt lat="49.90029" lon="2.28363">
        <ele>22.7</ele>
        <time>2023-01-20T13:02:42Z</time>
      </trkpt>
      <trkpt lat="49.90031" lon="2.28364">
        <ele>22.7</ele>
        <time>2023-01-20T13:02:44Z</time>
      </trkpt>
      <trkpt lat="49.90032" lon="2.28364">
        <ele>22.7</ele>
        <time>2023-01-20T13:02:45Z</time>
      </trkpt>
      <trkpt lat="49.90032" lon="2.28364">
        <ele>22.7</ele>
        <time>2023-01-20T13:02:46Z</time>
      </trkpt>
      <trkpt lat="49.90035" lon="2.28365">
        <ele>22.7</ele>
        <time>2023-01-20T13:02:47Z</time>
      </trkpt>
      <trkpt lat="49.90036" lon="2.28365">
        <ele>22.7</ele>
        <time>2023-01-20T13:02:48Z</time>
      </trkpt>
      <trkpt lat="49.90037" lon="2.28365">
        <ele>22.7</ele>
        <time>2023-01-20T13:02:49Z</time>
      </trkpt>
      <trkpt lat="49.90038" lon="2.28366">
        <ele>22.7</ele>
        <time>2023-01-20T13:02:50Z</time>
      </trkpt>
      <trkpt lat="49.90039" lon="2.28366">
        <ele>22.7</ele>
        <time>2023-01-20T13:02:52Z</time>
      </trkpt>
      <trkpt lat="49.90039" lon="2.28366">
        <ele>22.7</ele>
        <time>2023-01-20T13:02:53Z</time>
      </trkpt>
      <trkpt lat="49.9004" lon="2.28366">
        <ele>22.7</ele>
        <time>2023-01-20T13:02:54Z</time>
      </trkpt>
      <trkpt lat="49.90041" lon="2.28367">
        <ele>22.7</ele>
        <time>2023-01-20T13:02:55Z</time>
      </trkpt>
      <trkpt lat="49.90043" lon="2.28367">
        <ele>22.7</ele>
        <time>2023-01-20T13:02:56Z</time>
      </trkpt>
      <trkpt lat="49.90045" lon="2.28369">
        <ele>22.7</ele>
        <time>2023-01-20T13:02:57Z</time>
      </trkpt>
      <trkpt lat="49.90046" lon="2.28369">
        <ele>22.7</ele>
        <time>2023-01-20T13:02:58Z</time>
      </trkpt>
      <trkpt lat="49.90048" lon="2.28369">
        <ele>22.7</ele>
        <time>2023-01-20T13:02:59Z</time>
      </trkpt>
      <trkpt lat="49.90048" lon="2.28369">
        <ele>22.7</ele>
        <time>2023-01-20T13:03:00Z</time>
      </trkpt>
      <trkpt lat="49.90049" lon="2.28369">
        <ele>22.7</ele>
        <time>2023-01-20T13:03:02Z</time>
      </trkpt>
      <trkpt lat="49.9005" lon="2.28369">
        <ele>22.7</ele>
        <time>2023-01-20T13:03:03Z</time>
      </trkpt>
      <trkpt lat="49.90052" lon="2.2837">
        <ele>22.7</ele>
        <time>2023-01-20T13:03:04Z</time>
      </trkpt>
      <trkpt lat="49.90053" lon="2.2837">
        <ele>22.7</ele>
        <time>2023-01-20T13:03:05Z</time>
      </trkpt>
      <trkpt lat="49.90054" lon="2.28371">
        <ele>22.7</ele>
        <time>2023-01-20T13:03:06Z</time>
      </trkpt>
      <trkpt lat="49.90056" lon="2.28372">
        <ele>22.7</ele>
        <time>2023-01-20T13:03:07Z</time>
      </trkpt>
      <trkpt lat="49.90058" lon="2.28373">
        <ele>22.7</ele>
        <time>2023-01-20T13:03:09Z</time>
      </trkpt>
      <trkpt lat="49.90059" lon="2.28374">
        <ele>22.7</ele>
        <time>2023-01-20T13:03:10Z</time>
      </trkpt>
      <trkpt lat="49.90061" lon="2.28374">
        <ele>22.7</ele>
        <time>2023-01-20T13:03:11Z</time>
      </trkpt>
      <trkpt lat="49.90062" lon="2.28374">
        <ele>22.7</ele>
        <time>2023-01-20T13:03:12Z</time>
      </trkpt>
      <trkpt lat="49.90064" lon="2.28374">
        <ele>22.7</ele>
        <time>2023-01-20T13:03:13Z</time>
      </trkpt>
      <trkpt lat="49.90064" lon="2.28374">
        <ele>22.7</ele>
        <time>2023-01-20T13:03:15Z</time>
      </trkpt>
      <trkpt lat="49.90066" lon="2.28374">
        <ele>22.7</ele>
        <time>2023-01-20T13:03:16Z</time>
      </trkpt>
      <trkpt lat="49.90067" lon="2.28374">
        <ele>22.7</ele>
        <time>2023-01-20T13:03:17Z</time>
      </trkpt>
      <trkpt lat="49.90068" lon="2.28374">
        <ele>22.7</ele>
        <time>2023-01-20T13:03:18Z</time>
      </trkpt>
      <trkpt lat="49.9007" lon="2.28375">
        <ele>22.8</ele>
        <time>2023-01-20T13:03:19Z</time>
      </trkpt>
      <trkpt lat="49.9007" lon="2.28376">
        <ele>22.8</ele>
        <time>2023-01-20T13:03:20Z</time>
      </trkpt>
      <trkpt lat="49.90072" lon="2.28376">
        <ele>22.8</ele>
        <time>2023-01-20T13:03:21Z</time>
      </trkpt>
      <trkpt lat="49.90074" lon="2.28377">
        <ele>22.8</ele>
        <time>2023-01-20T13:03:22Z</time>
      </trkpt>
      <trkpt lat="49.90077" lon="2.28377">
        <ele>22.7</ele>
        <time>2023-01-20T13:03:24Z</time>
      </trkpt>
      <trkpt lat="49.90078" lon="2.28378">
        <ele>22.7</ele>
        <time>2023-01-20T13:03:25Z</time>
      </trkpt>
      <trkpt lat="49.90079" lon="2.28378">
        <ele>22.7</ele>
        <time>2023-01-20T13:03:26Z</time>
      </trkpt>
      <trkpt lat="49.9008" lon="2.28378">
        <ele>22.7</ele>
        <time>2023-01-20T13:03:27Z</time>
      </trkpt>
      <trkpt lat="49.90082" lon="2.28378">
        <ele>22.7</ele>
        <time>2023-01-20T13:03:28Z</time>
      </trkpt>
      <trkpt lat="49.90083" lon="2.28378">
        <ele>22.7</ele>
        <time>2023-01-20T13:03:29Z</time>
      </trkpt>
      <trkpt lat="49.90084" lon="2.28378">
        <ele>22.7</ele>
        <time>2023-01-20T13:03:30Z</time>
      </trkpt>
      <trkpt lat="49.90085" lon="2.28379">
        <ele>22.7</ele>
        <time>2023-01-20T13:03:31Z</time>
      </trkpt>
      <trkpt lat="49.90087" lon="2.28379">
        <ele>22.7</ele>
        <time>2023-01-20T13:03:32Z</time>
      </trkpt>
      <trkpt lat="49.90089" lon="2.2838">
        <ele>22.7</ele>
        <time>2023-01-20T13:03:34Z</time>
      </trkpt>
      <trkpt lat="49.90089" lon="2.2838">
        <ele>22.7</ele>
        <time>2023-01-20T13:03:35Z</time>
      </trkpt>
      <trkpt lat="49.9009" lon="2.2838">
        <ele>22.7</ele>
        <time>2023-01-20T13:03:36Z</time>
      </trkpt>
      <trkpt lat="49.90091" lon="2.28381">
        <ele>22.7</ele>
        <time>2023-01-20T13:03:37Z</time>
      </trkpt>
      <trkpt lat="49.90092" lon="2.28381">
        <ele>22.7</ele>
        <time>2023-01-20T13:03:38Z</time>
      </trkpt>
      <trkpt lat="49.90095" lon="2.28383">
        <ele>22.7</ele>
        <time>2023-01-20T13:03:39Z</time>
      </trkpt>
      <trkpt lat="49.90096" lon="2.28383">
        <ele>22.7</ele>
        <time>2023-01-20T13:03:41Z</time>
      </trkpt>
      <trkpt lat="49.90097" lon="2.28384">
        <ele>22.7</ele>
        <time>2023-01-20T13:03:42Z</time>
      </trkpt>
      <trkpt lat="49.90098" lon="2.28384">
        <ele>22.7</ele>
        <time>2023-01-20T13:03:43Z</time>
      </trkpt>
      <trkpt lat="49.901" lon="2.28384">
        <ele>22.6</ele>
        <time>2023-01-20T13:03:44Z</time>
      </trkpt>
      <trkpt lat="49.90101" lon="2.28385">
        <ele>22.6</ele>
        <time>2023-01-20T13:03:45Z</time>
      </trkpt>
      <trkpt lat="49.90103" lon="2.28386">
        <ele>22.6</ele>
        <time>2023-01-20T13:03:46Z</time>
      </trkpt>
      <trkpt lat="49.90104" lon="2.28386">
        <ele>22.6</ele>
        <time>2023-01-20T13:03:47Z</time>
      </trkpt>
      <trkpt lat="49.90106" lon="2.28387">
        <ele>22.6</ele>
        <time>2023-01-20T13:03:48Z</time>
      </trkpt>
      <trkpt lat="49.90109" lon="2.28388">
        <ele>22.6</ele>
        <time>2023-01-20T13:03:50Z</time>
      </trkpt>
      <trkpt lat="49.9011" lon="2.28388">
        <ele>22.6</ele>
        <time>2023-01-20T13:03:51Z</time>
      </trkpt>
      <trkpt lat="49.90111" lon="2.28389">
        <ele>22.6</ele>
        <time>2023-01-20T13:03:52Z</time>
      </trkpt>
      <trkpt lat="49.90113" lon="2.28389">
        <ele>22.5</ele>
        <time>2023-01-20T13:03:53Z</time>
      </trkpt>
      <trkpt lat="49.90115" lon="2.28389">
        <ele>22.5</ele>
        <time>2023-01-20T13:03:54Z</time>
      </trkpt>
      <trkpt lat="49.90116" lon="2.28389">
        <ele>22.5</ele>
        <time>2023-01-20T13:03:55Z</time>
      </trkpt>
      <trkpt lat="49.90119" lon="2.2839">
        <ele>22.5</ele>
        <time>2023-01-20T13:03:56Z</time>
      </trkpt>
      <trkpt lat="49.9012" lon="2.2839">
        <ele>22.5</ele>
        <time>2023-01-20T13:03:58Z</time>
      </trkpt>
      <trkpt lat="49.90121" lon="2.2839">
        <ele>22.5</ele>
        <time>2023-01-20T13:03:59Z</time>
      </trkpt>
      <trkpt lat="49.90122" lon="2.28391">
        <ele>22.5</ele>
        <time>2023-01-20T13:04:00Z</time>
      </trkpt>
      <trkpt lat="49.90123" lon="2.28391">
        <ele>22.5</ele>
        <time>2023-01-20T13:04:01Z</time>
      </trkpt>
      <trkpt lat="49.90125" lon="2.28392">
        <ele>22.5</ele>
        <time>2023-01-20T13:04:02Z</time>
      </trkpt>
      <trkpt lat="49.90126" lon="2.28392">
        <ele>22.5</ele>
        <time>2023-01-20T13:04:03Z</time>
      </trkpt>
      <trkpt lat="49.90128" lon="2.2839">
        <ele>22.4</ele>
        <time>2023-01-20T13:04:05Z</time>
      </trkpt>
      <trkpt lat="49.90129" lon="2.28391">
        <ele>22.4</ele>
        <time>2023-01-20T13:04:06Z</time>
      </trkpt>
      <trkpt lat="49.9013" lon="2.28392">
        <ele>22.4</ele>
        <time>2023-01-20T13:04:07Z</time>
      </trkpt>
      <trkpt lat="49.90131" lon="2.28393">
        <ele>22.4</ele>
        <time>2023-01-20T13:04:08Z</time>
      </trkpt>
      <trkpt lat="49.90132" lon="2.28394">
        <ele>22.4</ele>
        <time>2023-01-20T13:04:09Z</time>
      </trkpt>
      <trkpt lat="49.90133" lon="2.28394">
        <ele>22.4</ele>
        <time>2023-01-20T13:04:10Z</time>
      </trkpt>
      <trkpt lat="49.90134" lon="2.28394">
        <ele>22.4</ele>
        <time>2023-01-20T13:04:11Z</time>
      </trkpt>
      <trkpt lat="49.90135" lon="2.28395">
        <ele>22.4</ele>
        <time>2023-01-20T13:04:12Z</time>
      </trkpt>
      <trkpt lat="49.90137" lon="2.28395">
        <ele>22.4</ele>
        <time>2023-01-20T13:04:13Z</time>
      </trkpt>
      <trkpt lat="49.90138" lon="2.28396">
        <ele>22.4</ele>
        <time>2023-01-20T13:04:15Z</time>
      </trkpt>
      <trkpt lat="49.90137" lon="2.28397">
        <ele>22.4</ele>
        <time>2023-01-20T13:04:16Z</time>
      </trkpt>
      <trkpt lat="49.90138" lon="2.28398">
        <ele>22.4</ele>
        <time>2023-01-20T13:04:17Z</time>
      </trkpt>
      <trkpt lat="49.90138" lon="2.28399">
        <ele>22.4</ele>
        <time>2023-01-20T13:04:18Z</time>
      </trkpt>
      <trkpt lat="49.90139" lon="2.284">
        <ele>22.4</ele>
        <time>2023-01-20T13:04:19Z</time>
      </trkpt>
      <trkpt lat="49.90141" lon="2.28401">
        <ele>22.4</ele>
        <time>2023-01-20T13:04:20Z</time>
      </trkpt>
      <trkpt lat="49.90142" lon="2.28401">
        <ele>22.4</ele>
        <time>2023-01-20T13:04:22Z</time>
      </trkpt>
      <trkpt lat="49.90143" lon="2.28401">
        <ele>22.4</ele>
        <time>2023-01-20T13:04:23Z</time>
      </trkpt>
      <trkpt lat="49.90144" lon="2.28401">
        <ele>22.4</ele>
        <time>2023-01-20T13:04:24Z</time>
      </trkpt>
      <trkpt lat="49.90144" lon="2.28401">
        <ele>22.4</ele>
        <time>2023-01-20T13:04:25Z</time>
      </trkpt>
      <trkpt lat="49.90146" lon="2.28402">
        <ele>22.4</ele>
        <time>2023-01-20T13:04:26Z</time>
      </trkpt>
      <trkpt lat="49.90147" lon="2.28402">
        <ele>22.4</ele>
        <time>2023-01-20T13:04:27Z</time>
      </trkpt>
      <trkpt lat="49.90148" lon="2.28402">
        <ele>22.4</ele>
        <time>2023-01-20T13:04:28Z</time>
      </trkpt>
      <trkpt lat="49.9015" lon="2.28402">
        <ele>22.4</ele>
        <time>2023-01-20T13:04:30Z</time>
      </trkpt>
      <trkpt lat="49.90151" lon="2.28402">
        <ele>22.4</ele>
        <time>2023-01-20T13:04:31Z</time>
      </trkpt>
      <trkpt lat="49.90152" lon="2.28401">
        <ele>22.4</ele>
        <time>2023-01-20T13:04:32Z</time>
      </trkpt>
      <trkpt lat="49.90153" lon="2.28399">
        <ele>22.4</ele>
        <time>2023-01-20T13:04:33Z</time>
      </trkpt>
      <trkpt lat="49.90154" lon="2.28397">
        <ele>22.4</ele>
        <time>2023-01-20T13:04:34Z</time>
      </trkpt>
      <trkpt lat="49.90155" lon="2.28396">
        <ele>22.4</ele>
        <time>2023-01-20T13:04:36Z</time>
      </trkpt>
      <trkpt lat="49.90155" lon="2.28394">
        <ele>22.4</ele>
        <time>2023-01-20T13:04:37Z</time>
      </trkpt>
      <trkpt lat="49.90156" lon="2.28393">
        <ele>22.4</ele>
        <time>2023-01-20T13:04:38Z</time>
      </trkpt>
      <trkpt lat="49.90156" lon="2.2839">
        <ele>22.4</ele>
        <time>2023-01-20T13:04:39Z</time>
      </trkpt>
      <trkpt lat="49.90156" lon="2.28389">
        <ele>22.4</ele>
        <time>2023-01-20T13:04:41Z</time>
      </trkpt>
      <trkpt lat="49.90156" lon="2.28387">
        <ele>22.4</ele>
        <time>2023-01-20T13:04:42Z</time>
      </trkpt>
      <trkpt lat="49.90157" lon="2.28387">
        <ele>22.4</ele>
        <time>2023-01-20T13:04:43Z</time>
      </trkpt>
      <trkpt lat="49.90157" lon="2.28385">
        <ele>22.4</ele>
        <time>2023-01-20T13:04:44Z</time>
      </trkpt>
      <trkpt lat="49.90157" lon="2.28384">
        <ele>22.4</ele>
        <time>2023-01-20T13:04:45Z</time>
      </trkpt>
      <trkpt lat="49.90158" lon="2.28383">
        <ele>22.4</ele>
        <time>2023-01-20T13:04:47Z</time>
      </trkpt>
      <trkpt lat="49.90158" lon="2.28382">
        <ele>22.4</ele>
        <time>2023-01-20T13:04:48Z</time>
      </trkpt>
      <trkpt lat="49.90158" lon="2.28381">
        <ele>22.4</ele>
        <time>2023-01-20T13:04:49Z</time>
      </trkpt>
      <trkpt lat="49.90159" lon="2.2838">
        <ele>22.4</ele>
        <time>2023-01-20T13:04:50Z</time>
      </trkpt>
      <trkpt lat="49.90159" lon="2.28379">
        <ele>22.4</ele>
        <time>2023-01-20T13:04:52Z</time>
      </trkpt>
      <trkpt lat="49.90159" lon="2.28378">
        <ele>22.4</ele>
        <time>2023-01-20T13:04:53Z</time>
      </trkpt>
      <trkpt lat="49.90159" lon="2.28378">
        <ele>22.4</ele>
        <time>2023-01-20T13:04:54Z</time>
      </trkpt>
      <trkpt lat="49.90158" lon="2.28378">
        <ele>22.4</ele>
        <time>2023-01-20T13:04:56Z</time>
      </trkpt>
      <trkpt lat="49.90158" lon="2.28378">
        <ele>22.4</ele>
        <time>2023-01-20T13:04:57Z</time>
      </trkpt>
      <trkpt lat="49.90158" lon="2.28378">
        <ele>22.4</ele>
        <time>2023-01-20T13:04:59Z</time>
      </trkpt>
      <trkpt lat="49.90157" lon="2.28379">
        <ele>22.4</ele>
        <time>2023-01-20T13:05:00Z</time>
      </trkpt>
      <trkpt lat="49.90157" lon="2.28378">
        <ele>22.4</ele>
        <time>2023-01-20T13:05:01Z</time>
      </trkpt>
      <trkpt lat="49.90157" lon="2.28378">
        <ele>22.4</ele>
        <time>2023-01-20T13:05:03Z</time>
      </trkpt>
      <trkpt lat="49.90157" lon="2.28378">
        <ele>22.4</ele>
        <time>2023-01-20T13:05:04Z</time>
      </trkpt>
      <trkpt lat="49.90157" lon="2.28378">
        <ele>22.4</ele>
        <time>2023-01-20T13:05:06Z</time>
      </trkpt>
      <trkpt lat="49.90157" lon="2.28378">
        <ele>22.4</ele>
        <time>2023-01-20T13:05:07Z</time>
      </trkpt>
      <trkpt lat="49.90157" lon="2.28378">
        <ele>22.4</ele>
        <time>2023-01-20T13:05:09Z</time>
      </trkpt>
      <trkpt lat="49.90157" lon="2.2838">
        <ele>22.4</ele>
        <time>2023-01-20T13:05:10Z</time>
      </trkpt>
      <trkpt lat="49.90157" lon="2.2838">
        <ele>22.4</ele>
        <time>2023-01-20T13:05:11Z</time>
      </trkpt>
      <trkpt lat="49.90158" lon="2.2838">
        <ele>22.4</ele>
        <time>2023-01-20T13:05:12Z</time>
      </trkpt>
      <trkpt lat="49.90158" lon="2.2838">
        <ele>22.4</ele>
        <time>2023-01-20T13:05:13Z</time>
      </trkpt>
      <trkpt lat="49.90158" lon="2.2838">
        <ele>22.4</ele>
        <time>2023-01-20T13:05:14Z</time>
      </trkpt>
      <trkpt lat="49.90158" lon="2.2838">
        <ele>22.4</ele>
        <time>2023-01-20T13:05:15Z</time>
      </trkpt>
      <trkpt lat="49.90158" lon="2.2838">
        <ele>22.4</ele>
        <time>2023-01-20T13:05:16Z</time>
      </trkpt>
      <trkpt lat="49.90158" lon="2.2838">
        <ele>22.4</ele>
        <time>2023-01-20T13:05:17Z</time>
      </trkpt>
      <trkpt lat="49.90158" lon="2.2838">
        <ele>22.4</ele>
        <time>2023-01-20T13:05:18Z</time>
      </trkpt>
      <trkpt lat="49.90158" lon="2.2838">
        <ele>22.4</ele>
        <time>2023-01-20T13:05:19Z</time>
      </trkpt>
      <trkpt lat="49.90158" lon="2.2838">
        <ele>22.4</ele>
        <time>2023-01-20T13:05:20Z</time>
      </trkpt>
      <trkpt lat="49.90158" lon="2.2838">
        <ele>22.4</ele>
        <time>2023-01-20T13:05:21Z</time>
      </trkpt>
      <trkpt lat="49.90158" lon="2.2838">
        <ele>22.4</ele>
        <time>2023-01-20T13:05:22Z</time>
      </trkpt>
      <trkpt lat="49.90158" lon="2.2838">
        <ele>22.4</ele>
        <time>2023-01-20T13:05:23Z</time>
      </trkpt>
      <trkpt lat="49.90158" lon="2.2838">
        <ele>22.4</ele>
        <time>2023-01-20T13:05:24Z</time>
      </trkpt>
      <trkpt lat="49.90158" lon="2.2838">
        <ele>22.4</ele>
        <time>2023-01-20T13:05:25Z</time>
      </trkpt>
      <trkpt lat="49.90158" lon="2.2838">
        <ele>22.4</ele>
        <time>2023-01-20T13:05:26Z</time>
      </trkpt>
      <trkpt lat="49.90158" lon="2.2838">
        <ele>22.4</ele>
        <time>2023-01-20T13:05:27Z</time>
      </trkpt>
      <trkpt lat="49.90158" lon="2.2838">
        <ele>22.4</ele>
        <time>2023-01-20T13:05:28Z</time>
      </trkpt>
      <trkpt lat="49.90158" lon="2.2838">
        <ele>22.4</ele>
        <time>2023-01-20T13:05:29Z</time>
      </trkpt>
      <trkpt lat="49.90158" lon="2.2838">
        <ele>22.4</ele>
        <time>2023-01-20T13:05:30Z</time>
      </trkpt>
      <trkpt lat="49.90158" lon="2.2838">
        <ele>22.4</ele>
        <time>2023-01-20T13:05:31Z</time>
      </trkpt>
      <trkpt lat="49.90158" lon="2.2838">
        <ele>22.4</ele>
        <time>2023-01-20T13:05:32Z</time>
      </trkpt>
      <trkpt lat="49.90158" lon="2.2838">
        <ele>22.4</ele>
        <time>2023-01-20T13:05:33Z</time>
      </trkpt>
      <trkpt lat="49.90158" lon="2.2838">
        <ele>22.4</ele>
        <time>2023-01-20T13:05:34Z</time>
      </trkpt>
      <trkpt lat="49.90158" lon="2.2838">
        <ele>22.4</ele>
        <time>2023-01-20T13:05:35Z</time>
      </trkpt>
      <trkpt lat="49.90158" lon="2.2838">
        <ele>22.4</ele>
        <time>2023-01-20T13:05:36Z</time>
      </trkpt>
      <trkpt lat="49.90158" lon="2.2838">
        <ele>22.4</ele>
        <time>2023-01-20T13:05:37Z</time>
      </trkpt>
      <trkpt lat="49.90157" lon="2.28383">
        <ele>22.4</ele>
        <time>2023-01-20T13:05:38Z</time>
      </trkpt>
      <trkpt lat="49.90157" lon="2.28385">
        <ele>22.4</ele>
        <time>2023-01-20T13:05:39Z</time>
      </trkpt>
      <trkpt lat="49.90157" lon="2.28385">
        <ele>22.4</ele>
        <time>2023-01-20T13:05:40Z</time>
      </trkpt>
      <trkpt lat="49.90158" lon="2.28385">
        <ele>22.4</ele>
        <time>2023-01-20T13:05:41Z</time>
      </trkpt>
      <trkpt lat="49.90159" lon="2.28384">
        <ele>22.4</ele>
        <time>2023-01-20T13:05:42Z</time>
      </trkpt>
      <trkpt lat="49.9016" lon="2.28385">
        <ele>22.4</ele>
        <time>2023-01-20T13:05:43Z</time>
      </trkpt>
      <trkpt lat="49.90161" lon="2.28385">
        <ele>22.4</ele>
        <time>2023-01-20T13:05:44Z</time>
      </trkpt>
      <trkpt lat="49.90162" lon="2.28385">
        <ele>22.3</ele>
        <time>2023-01-20T13:05:45Z</time>
      </trkpt>
      <trkpt lat="49.90163" lon="2.28386">
        <ele>22.3</ele>
        <time>2023-01-20T13:05:46Z</time>
      </trkpt>
      <trkpt lat="49.90166" lon="2.28387">
        <ele>22.3</ele>
        <time>2023-01-20T13:05:48Z</time>
      </trkpt>
      <trkpt lat="49.90166" lon="2.28388">
        <ele>22.3</ele>
        <time>2023-01-20T13:05:49Z</time>
      </trkpt>
      <trkpt lat="49.9017" lon="2.28389">
        <ele>22.3</ele>
        <time>2023-01-20T13:05:50Z</time>
      </trkpt>
      <trkpt lat="49.9017" lon="2.2839">
        <ele>22.3</ele>
        <time>2023-01-20T13:05:51Z</time>
      </trkpt>
      <trkpt lat="49.90173" lon="2.28393">
        <ele>22.3</ele>
        <time>2023-01-20T13:05:52Z</time>
      </trkpt>
      <trkpt lat="49.90173" lon="2.28394">
        <ele>22.3</ele>
        <time>2023-01-20T13:05:53Z</time>
      </trkpt>
      <trkpt lat="49.90175" lon="2.28395">
        <ele>22.3</ele>
        <time>2023-01-20T13:05:54Z</time>
      </trkpt>
      <trkpt lat="49.90176" lon="2.28396">
        <ele>22.3</ele>
        <time>2023-01-20T13:05:55Z</time>
      </trkpt>
      <trkpt lat="49.90177" lon="2.28397">
        <ele>22.3</ele>
        <time>2023-01-20T13:05:56Z</time>
      </trkpt>
      <trkpt lat="49.90178" lon="2.28398">
        <ele>22.3</ele>
        <time>2023-01-20T13:05:57Z</time>
      </trkpt>
      <trkpt lat="49.90179" lon="2.28399">
        <ele>22.3</ele>
        <time>2023-01-20T13:05:59Z</time>
      </trkpt>
      <trkpt lat="49.90181" lon="2.28401">
        <ele>22.3</ele>
        <time>2023-01-20T13:06:00Z</time>
      </trkpt>
      <trkpt lat="49.90182" lon="2.28403">
        <ele>22.3</ele>
        <time>2023-01-20T13:06:01Z</time>
      </trkpt>
      <trkpt lat="49.90183" lon="2.28404">
        <ele>22.3</ele>
        <time>2023-01-20T13:06:02Z</time>
      </trkpt>
      <trkpt lat="49.90184" lon="2.28405">
        <ele>22.3</ele>
        <time>2023-01-20T13:06:03Z</time>
      </trkpt>
      <trkpt lat="49.90185" lon="2.28406">
        <ele>22.4</ele>
        <time>2023-01-20T13:06:04Z</time>
      </trkpt>
      <trkpt lat="49.90187" lon="2.28407">
        <ele>22.4</ele>
        <time>2023-01-20T13:06:05Z</time>
      </trkpt>
      <trkpt lat="49.90188" lon="2.28407">
        <ele>22.4</ele>
        <time>2023-01-20T13:06:06Z</time>
      </trkpt>
      <trkpt lat="49.9019" lon="2.28407">
        <ele>22.4</ele>
        <time>2023-01-20T13:06:08Z</time>
      </trkpt>
      <trkpt lat="49.90191" lon="2.28407">
        <ele>22.4</ele>
        <time>2023-01-20T13:06:09Z</time>
      </trkpt>
      <trkpt lat="49.90192" lon="2.28407">
        <ele>22.4</ele>
        <time>2023-01-20T13:06:10Z</time>
      </trkpt>
      <trkpt lat="49.90194" lon="2.28407">
        <ele>22.4</ele>
        <time>2023-01-20T13:06:11Z</time>
      </trkpt>
      <trkpt lat="49.90195" lon="2.28408">
        <ele>22.4</ele>
        <time>2023-01-20T13:06:12Z</time>
      </trkpt>
      <trkpt lat="49.90196" lon="2.28408">
        <ele>22.4</ele>
        <time>2023-01-20T13:06:13Z</time>
      </trkpt>
      <trkpt lat="49.90197" lon="2.28408">
        <ele>22.4</ele>
        <time>2023-01-20T13:06:14Z</time>
      </trkpt>
      <trkpt lat="49.90198" lon="2.28408">
        <ele>22.4</ele>
        <time>2023-01-20T13:06:16Z</time>
      </trkpt>
      <trkpt lat="49.90199" lon="2.28408">
        <ele>22.4</ele>
        <time>2023-01-20T13:06:17Z</time>
      </trkpt>
      <trkpt lat="49.902" lon="2.28408">
        <ele>22.4</ele>
        <time>2023-01-20T13:06:18Z</time>
      </trkpt>
      <trkpt lat="49.90201" lon="2.28408">
        <ele>22.4</ele>
        <time>2023-01-20T13:06:19Z</time>
      </trkpt>
      <trkpt lat="49.90202" lon="2.28409">
        <ele>22.4</ele>
        <time>2023-01-20T13:06:20Z</time>
      </trkpt>
      <trkpt lat="49.90203" lon="2.28409">
        <ele>22.4</ele>
        <time>2023-01-20T13:06:21Z</time>
      </trkpt>
      <trkpt lat="49.90204" lon="2.2841">
        <ele>22.4</ele>
        <time>2023-01-20T13:06:22Z</time>
      </trkpt>
      <trkpt lat="49.90205" lon="2.28411">
        <ele>22.4</ele>
        <time>2023-01-20T13:06:23Z</time>
      </trkpt>
      <trkpt lat="49.90207" lon="2.28412">
        <ele>22.4</ele>
        <time>2023-01-20T13:06:24Z</time>
      </trkpt>
      <trkpt lat="49.90207" lon="2.28412">
        <ele>22.4</ele>
        <time>2023-01-20T13:06:26Z</time>
      </trkpt>
      <trkpt lat="49.90208" lon="2.28413">
        <ele>22.4</ele>
        <time>2023-01-20T13:06:27Z</time>
      </trkpt>
      <trkpt lat="49.9021" lon="2.28415">
        <ele>22.4</ele>
        <time>2023-01-20T13:06:28Z</time>
      </trkpt>
      <trkpt lat="49.90211" lon="2.28417">
        <ele>22.4</ele>
        <time>2023-01-20T13:06:29Z</time>
      </trkpt>
      <trkpt lat="49.90211" lon="2.28418">
        <ele>22.4</ele>
        <time>2023-01-20T13:06:30Z</time>
      </trkpt>
      <trkpt lat="49.90212" lon="2.28419">
        <ele>22.4</ele>
        <time>2023-01-20T13:06:31Z</time>
      </trkpt>
      <trkpt lat="49.90213" lon="2.28421">
        <ele>22.5</ele>
        <time>2023-01-20T13:06:32Z</time>
      </trkpt>
      <trkpt lat="49.90213" lon="2.28422">
        <ele>22.5</ele>
        <time>2023-01-20T13:06:33Z</time>
      </trkpt>
      <trkpt lat="49.90214" lon="2.28424">
        <ele>22.5</ele>
        <time>2023-01-20T13:06:34Z</time>
      </trkpt>
      <trkpt lat="49.90215" lon="2.28426">
        <ele>22.5</ele>
        <time>2023-01-20T13:06:35Z</time>
      </trkpt>
      <trkpt lat="49.90216" lon="2.28426">
        <ele>22.5</ele>
        <time>2023-01-20T13:06:36Z</time>
      </trkpt>
      <trkpt lat="49.90217" lon="2.28427">
        <ele>22.5</ele>
        <time>2023-01-20T13:06:38Z</time>
      </trkpt>
      <trkpt lat="49.90219" lon="2.28428">
        <ele>22.5</ele>
        <time>2023-01-20T13:06:39Z</time>
      </trkpt>
      <trkpt lat="49.90221" lon="2.28429">
        <ele>22.5</ele>
        <time>2023-01-20T13:06:40Z</time>
      </trkpt>
      <trkpt lat="49.90221" lon="2.2843">
        <ele>22.5</ele>
        <time>2023-01-20T13:06:41Z</time>
      </trkpt>
      <trkpt lat="49.90223" lon="2.28431">
        <ele>22.5</ele>
        <time>2023-01-20T13:06:42Z</time>
      </trkpt>
      <trkpt lat="49.90224" lon="2.28432">
        <ele>22.5</ele>
        <time>2023-01-20T13:06:43Z</time>
      </trkpt>
      <trkpt lat="49.90226" lon="2.28434">
        <ele>22.5</ele>
        <time>2023-01-20T13:06:44Z</time>
      </trkpt>
      <trkpt lat="49.90227" lon="2.28435">
        <ele>22.6</ele>
        <time>2023-01-20T13:06:45Z</time>
      </trkpt>
      <trkpt lat="49.90229" lon="2.28436">
        <ele>22.6</ele>
        <time>2023-01-20T13:06:47Z</time>
      </trkpt>
      <trkpt lat="49.9023" lon="2.28437">
        <ele>22.6</ele>
        <time>2023-01-20T13:06:48Z</time>
      </trkpt>
      <trkpt lat="49.90232" lon="2.2844">
        <ele>22.6</ele>
        <time>2023-01-20T13:06:49Z</time>
      </trkpt>
      <trkpt lat="49.90234" lon="2.28441">
        <ele>22.6</ele>
        <time>2023-01-20T13:06:50Z</time>
      </trkpt>
      <trkpt lat="49.90234" lon="2.28441">
        <ele>22.6</ele>
        <time>2023-01-20T13:06:51Z</time>
      </trkpt>
      <trkpt lat="49.90235" lon="2.28443">
        <ele>22.6</ele>
        <time>2023-01-20T13:06:52Z</time>
      </trkpt>
      <trkpt lat="49.90236" lon="2.28444">
        <ele>22.6</ele>
        <time>2023-01-20T13:06:53Z</time>
      </trkpt>
      <trkpt lat="49.90237" lon="2.28446">
        <ele>22.6</ele>
        <time>2023-01-20T13:06:54Z</time>
      </trkpt>
      <trkpt lat="49.90238" lon="2.28452">
        <ele>22.6</ele>
        <time>2023-01-20T13:06:56Z</time>
      </trkpt>
      <trkpt lat="49.9024" lon="2.28454">
        <ele>22.7</ele>
        <time>2023-01-20T13:06:57Z</time>
      </trkpt>
      <trkpt lat="49.9024" lon="2.28456">
        <ele>22.7</ele>
        <time>2023-01-20T13:06:58Z</time>
      </trkpt>
      <trkpt lat="49.90241" lon="2.28457">
        <ele>22.7</ele>
        <time>2023-01-20T13:06:59Z</time>
      </trkpt>
      <trkpt lat="49.90242" lon="2.28459">
        <ele>22.7</ele>
        <time>2023-01-20T13:07:00Z</time>
      </trkpt>
      <trkpt lat="49.90243" lon="2.28461">
        <ele>22.7</ele>
        <time>2023-01-20T13:07:01Z</time>
      </trkpt>
      <trkpt lat="49.90244" lon="2.28463">
        <ele>22.7</ele>
        <time>2023-01-20T13:07:03Z</time>
      </trkpt>
      <trkpt lat="49.90245" lon="2.28465">
        <ele>22.7</ele>
        <time>2023-01-20T13:07:04Z</time>
      </trkpt>
      <trkpt lat="49.90246" lon="2.28468">
        <ele>22.7</ele>
        <time>2023-01-20T13:07:05Z</time>
      </trkpt>
      <trkpt lat="49.90245" lon="2.28468">
        <ele>22.7</ele>
        <time>2023-01-20T13:07:06Z</time>
      </trkpt>
      <trkpt lat="49.90246" lon="2.2847">
        <ele>22.7</ele>
        <time>2023-01-20T13:07:07Z</time>
      </trkpt>
      <trkpt lat="49.90247" lon="2.28472">
        <ele>22.7</ele>
        <time>2023-01-20T13:07:08Z</time>
      </trkpt>
      <trkpt lat="49.90248" lon="2.28474">
        <ele>22.7</ele>
        <time>2023-01-20T13:07:10Z</time>
      </trkpt>
      <trkpt lat="49.90248" lon="2.28477">
        <ele>22.8</ele>
        <time>2023-01-20T13:07:11Z</time>
      </trkpt>
      <trkpt lat="49.90249" lon="2.28479">
        <ele>22.8</ele>
        <time>2023-01-20T13:07:12Z</time>
      </trkpt>
      <trkpt lat="49.90249" lon="2.2848">
        <ele>22.8</ele>
        <time>2023-01-20T13:07:13Z</time>
      </trkpt>
      <trkpt lat="49.9025" lon="2.28483">
        <ele>22.8</ele>
        <time>2023-01-20T13:07:14Z</time>
      </trkpt>
      <trkpt lat="49.90251" lon="2.28485">
        <ele>22.8</ele>
        <time>2023-01-20T13:07:15Z</time>
      </trkpt>
      <trkpt lat="49.90252" lon="2.28486">
        <ele>22.8</ele>
        <time>2023-01-20T13:07:17Z</time>
      </trkpt>
      <trkpt lat="49.90252" lon="2.28488">
        <ele>22.8</ele>
        <time>2023-01-20T13:07:18Z</time>
      </trkpt>
      <trkpt lat="49.90254" lon="2.28491">
        <ele>22.9</ele>
        <time>2023-01-20T13:07:19Z</time>
      </trkpt>
      <trkpt lat="49.90255" lon="2.28493">
        <ele>22.9</ele>
        <time>2023-01-20T13:07:20Z</time>
      </trkpt>
      <trkpt lat="49.90255" lon="2.28494">
        <ele>22.9</ele>
        <time>2023-01-20T13:07:21Z</time>
      </trkpt>
      <trkpt lat="49.90256" lon="2.28495">
        <ele>22.9</ele>
        <time>2023-01-20T13:07:22Z</time>
      </trkpt>
      <trkpt lat="49.90257" lon="2.28497">
        <ele>22.9</ele>
        <time>2023-01-20T13:07:23Z</time>
      </trkpt>
      <trkpt lat="49.90258" lon="2.28498">
        <ele>22.9</ele>
        <time>2023-01-20T13:07:24Z</time>
      </trkpt>
      <trkpt lat="49.90258" lon="2.28499">
        <ele>22.9</ele>
        <time>2023-01-20T13:07:26Z</time>
      </trkpt>
      <trkpt lat="49.90259" lon="2.285">
        <ele>22.9</ele>
        <time>2023-01-20T13:07:27Z</time>
      </trkpt>
      <trkpt lat="49.90261" lon="2.28502">
        <ele>22.9</ele>
        <time>2023-01-20T13:07:28Z</time>
      </trkpt>
      <trkpt lat="49.90261" lon="2.28503">
        <ele>22.9</ele>
        <time>2023-01-20T13:07:29Z</time>
      </trkpt>
      <trkpt lat="49.90262" lon="2.28504">
        <ele>23</ele>
        <time>2023-01-20T13:07:30Z</time>
      </trkpt>
      <trkpt lat="49.90263" lon="2.28507">
        <ele>23</ele>
        <time>2023-01-20T13:07:31Z</time>
      </trkpt>
      <trkpt lat="49.90264" lon="2.28508">
        <ele>23</ele>
        <time>2023-01-20T13:07:32Z</time>
      </trkpt>
      <trkpt lat="49.90264" lon="2.28509">
        <ele>23</ele>
        <time>2023-01-20T13:07:33Z</time>
      </trkpt>
      <trkpt lat="49.90265" lon="2.28511">
        <ele>23</ele>
        <time>2023-01-20T13:07:35Z</time>
      </trkpt>
      <trkpt lat="49.90267" lon="2.2851">
        <ele>23</ele>
        <time>2023-01-20T13:07:36Z</time>
      </trkpt>
      <trkpt lat="49.90267" lon="2.28511">
        <ele>23</ele>
        <time>2023-01-20T13:07:37Z</time>
      </trkpt>
      <trkpt lat="49.90268" lon="2.28512">
        <ele>23</ele>
        <time>2023-01-20T13:07:38Z</time>
      </trkpt>
      <trkpt lat="49.90269" lon="2.28514">
        <ele>23</ele>
        <time>2023-01-20T13:07:39Z</time>
      </trkpt>
      <trkpt lat="49.90271" lon="2.28514">
        <ele>23</ele>
        <time>2023-01-20T13:07:40Z</time>
      </trkpt>
      <trkpt lat="49.90271" lon="2.28514">
        <ele>23</ele>
        <time>2023-01-20T13:07:41Z</time>
      </trkpt>
      <trkpt lat="49.90273" lon="2.28516">
        <ele>23.1</ele>
        <time>2023-01-20T13:07:43Z</time>
      </trkpt>
      <trkpt lat="49.90274" lon="2.28517">
        <ele>23.1</ele>
        <time>2023-01-20T13:07:44Z</time>
      </trkpt>
      <trkpt lat="49.90275" lon="2.28519">
        <ele>23.1</ele>
        <time>2023-01-20T13:07:45Z</time>
      </trkpt>
      <trkpt lat="49.90276" lon="2.28521">
        <ele>23.1</ele>
        <time>2023-01-20T13:07:46Z</time>
      </trkpt>
      <trkpt lat="49.90277" lon="2.28523">
        <ele>23.1</ele>
        <time>2023-01-20T13:07:47Z</time>
      </trkpt>
      <trkpt lat="49.90279" lon="2.28525">
        <ele>23.1</ele>
        <time>2023-01-20T13:07:49Z</time>
      </trkpt>
      <trkpt lat="49.9028" lon="2.28526">
        <ele>23.1</ele>
        <time>2023-01-20T13:07:50Z</time>
      </trkpt>
      <trkpt lat="49.90281" lon="2.28528">
        <ele>23.1</ele>
        <time>2023-01-20T13:07:51Z</time>
      </trkpt>
      <trkpt lat="49.90281" lon="2.28528">
        <ele>23.1</ele>
        <time>2023-01-20T13:07:52Z</time>
      </trkpt>
      <trkpt lat="49.90282" lon="2.28529">
        <ele>23.1</ele>
        <time>2023-01-20T13:07:53Z</time>
      </trkpt>
      <trkpt lat="49.90283" lon="2.28531">
        <ele>23.1</ele>
        <time>2023-01-20T13:07:54Z</time>
      </trkpt>
      <trkpt lat="49.90284" lon="2.28533">
        <ele>23.2</ele>
        <time>2023-01-20T13:07:55Z</time>
      </trkpt>
      <trkpt lat="49.90285" lon="2.28534">
        <ele>23.2</ele>
        <time>2023-01-20T13:07:56Z</time>
      </trkpt>
      <trkpt lat="49.90285" lon="2.28536">
        <ele>23.2</ele>
        <time>2023-01-20T13:07:57Z</time>
      </trkpt>
      <trkpt lat="49.90287" lon="2.28538">
        <ele>23.2</ele>
        <time>2023-01-20T13:07:59Z</time>
      </trkpt>
      <trkpt lat="49.90287" lon="2.28539">
        <ele>23.2</ele>
        <time>2023-01-20T13:08:00Z</time>
      </trkpt>
      <trkpt lat="49.90288" lon="2.28542">
        <ele>23.2</ele>
        <time>2023-01-20T13:08:01Z</time>
      </trkpt>
      <trkpt lat="49.90289" lon="2.28543">
        <ele>23.2</ele>
        <time>2023-01-20T13:08:02Z</time>
      </trkpt>
      <trkpt lat="49.9029" lon="2.28544">
        <ele>23.2</ele>
        <time>2023-01-20T13:08:03Z</time>
      </trkpt>
      <trkpt lat="49.90291" lon="2.28546">
        <ele>23.2</ele>
        <time>2023-01-20T13:08:04Z</time>
      </trkpt>
      <trkpt lat="49.90292" lon="2.28547">
        <ele>23.2</ele>
        <time>2023-01-20T13:08:05Z</time>
      </trkpt>
      <trkpt lat="49.90293" lon="2.2855">
        <ele>23.2</ele>
        <time>2023-01-20T13:08:06Z</time>
      </trkpt>
      <trkpt lat="49.90294" lon="2.28551">
        <ele>23.2</ele>
        <time>2023-01-20T13:08:08Z</time>
      </trkpt>
      <trkpt lat="49.90294" lon="2.28553">
        <ele>23.2</ele>
        <time>2023-01-20T13:08:09Z</time>
      </trkpt>
      <trkpt lat="49.90295" lon="2.28554">
        <ele>23.2</ele>
        <time>2023-01-20T13:08:10Z</time>
      </trkpt>
      <trkpt lat="49.90297" lon="2.28557">
        <ele>23.3</ele>
        <time>2023-01-20T13:08:11Z</time>
      </trkpt>
      <trkpt lat="49.90297" lon="2.28557">
        <ele>23.3</ele>
        <time>2023-01-20T13:08:12Z</time>
      </trkpt>
      <trkpt lat="49.90298" lon="2.28558">
        <ele>23.3</ele>
        <time>2023-01-20T13:08:13Z</time>
      </trkpt>
      <trkpt lat="49.90298" lon="2.2856">
        <ele>23.3</ele>
        <time>2023-01-20T13:08:14Z</time>
      </trkpt>
      <trkpt lat="49.90299" lon="2.28562">
        <ele>23.3</ele>
        <time>2023-01-20T13:08:16Z</time>
      </trkpt>
      <trkpt lat="49.903" lon="2.28563">
        <ele>23.3</ele>
        <time>2023-01-20T13:08:17Z</time>
      </trkpt>
      <trkpt lat="49.903" lon="2.28564">
        <ele>23.3</ele>
        <time>2023-01-20T13:08:18Z</time>
      </trkpt>
      <trkpt lat="49.90301" lon="2.28565">
        <ele>23.3</ele>
        <time>2023-01-20T13:08:19Z</time>
      </trkpt>
      <trkpt lat="49.90301" lon="2.28566">
        <ele>23.3</ele>
        <time>2023-01-20T13:08:20Z</time>
      </trkpt>
      <trkpt lat="49.90302" lon="2.28569">
        <ele>23.3</ele>
        <time>2023-01-20T13:08:21Z</time>
      </trkpt>
      <trkpt lat="49.90302" lon="2.2857">
        <ele>23.3</ele>
        <time>2023-01-20T13:08:22Z</time>
      </trkpt>
      <trkpt lat="49.90303" lon="2.28571">
        <ele>23.3</ele>
        <time>2023-01-20T13:08:23Z</time>
      </trkpt>
      <trkpt lat="49.90303" lon="2.28572">
        <ele>23.3</ele>
        <time>2023-01-20T13:08:25Z</time>
      </trkpt>
      <trkpt lat="49.90304" lon="2.28573">
        <ele>23.3</ele>
        <time>2023-01-20T13:08:26Z</time>
      </trkpt>
      <trkpt lat="49.90305" lon="2.28574">
        <ele>23.3</ele>
        <time>2023-01-20T13:08:27Z</time>
      </trkpt>
      <trkpt lat="49.90305" lon="2.28575">
        <ele>23.4</ele>
        <time>2023-01-20T13:08:28Z</time>
      </trkpt>
      <trkpt lat="49.90306" lon="2.28576">
        <ele>23.4</ele>
        <time>2023-01-20T13:08:29Z</time>
      </trkpt>
      <trkpt lat="49.90306" lon="2.28577">
        <ele>23.4</ele>
        <time>2023-01-20T13:08:30Z</time>
      </trkpt>
      <trkpt lat="49.90307" lon="2.28578">
        <ele>23.4</ele>
        <time>2023-01-20T13:08:31Z</time>
      </trkpt>
      <trkpt lat="49.90307" lon="2.28579">
        <ele>23.4</ele>
        <time>2023-01-20T13:08:32Z</time>
      </trkpt>
      <trkpt lat="49.90307" lon="2.2858">
        <ele>23.4</ele>
        <time>2023-01-20T13:08:33Z</time>
      </trkpt>
      <trkpt lat="49.90307" lon="2.28582">
        <ele>23.4</ele>
        <time>2023-01-20T13:08:34Z</time>
      </trkpt>
      <trkpt lat="49.90308" lon="2.28583">
        <ele>23.4</ele>
        <time>2023-01-20T13:08:35Z</time>
      </trkpt>
      <trkpt lat="49.90308" lon="2.28584">
        <ele>23.4</ele>
        <time>2023-01-20T13:08:37Z</time>
      </trkpt>
      <trkpt lat="49.90309" lon="2.28586">
        <ele>23.4</ele>
        <time>2023-01-20T13:08:38Z</time>
      </trkpt>
      <trkpt lat="49.9031" lon="2.28587">
        <ele>23.4</ele>
        <time>2023-01-20T13:08:39Z</time>
      </trkpt>
      <trkpt lat="49.90311" lon="2.2859">
        <ele>23.5</ele>
        <time>2023-01-20T13:08:40Z</time>
      </trkpt>
      <trkpt lat="49.90311" lon="2.28591">
        <ele>23.5</ele>
        <time>2023-01-20T13:08:41Z</time>
      </trkpt>
      <trkpt lat="49.90312" lon="2.28592">
        <ele>23.5</ele>
        <time>2023-01-20T13:08:42Z</time>
      </trkpt>
      <trkpt lat="49.90313" lon="2.28595">
        <ele>23.5</ele>
        <time>2023-01-20T13:08:43Z</time>
      </trkpt>
      <trkpt lat="49.90313" lon="2.28596">
        <ele>23.5</ele>
        <time>2023-01-20T13:08:44Z</time>
      </trkpt>
      <trkpt lat="49.90314" lon="2.28597">
        <ele>23.5</ele>
        <time>2023-01-20T13:08:45Z</time>
      </trkpt>
      <trkpt lat="49.90315" lon="2.286">
        <ele>23.5</ele>
        <time>2023-01-20T13:08:47Z</time>
      </trkpt>
      <trkpt lat="49.90316" lon="2.28601">
        <ele>23.6</ele>
        <time>2023-01-20T13:08:48Z</time>
      </trkpt>
      <trkpt lat="49.90317" lon="2.28605">
        <ele>23.6</ele>
        <time>2023-01-20T13:08:49Z</time>
      </trkpt>
      <trkpt lat="49.90318" lon="2.28606">
        <ele>23.6</ele>
        <time>2023-01-20T13:08:50Z</time>
      </trkpt>
      <trkpt lat="49.90318" lon="2.28608">
        <ele>23.6</ele>
        <time>2023-01-20T13:08:51Z</time>
      </trkpt>
      <trkpt lat="49.90319" lon="2.28609">
        <ele>23.6</ele>
        <time>2023-01-20T13:08:52Z</time>
      </trkpt>
      <trkpt lat="49.90319" lon="2.2861">
        <ele>23.6</ele>
        <time>2023-01-20T13:08:53Z</time>
      </trkpt>
      <trkpt lat="49.9032" lon="2.28612">
        <ele>23.7</ele>
        <time>2023-01-20T13:08:54Z</time>
      </trkpt>
      <trkpt lat="49.90321" lon="2.28614">
        <ele>23.7</ele>
        <time>2023-01-20T13:08:55Z</time>
      </trkpt>
      <trkpt lat="49.90322" lon="2.28616">
        <ele>23.7</ele>
        <time>2023-01-20T13:08:56Z</time>
      </trkpt>
      <trkpt lat="49.90323" lon="2.28619">
        <ele>23.7</ele>
        <time>2023-01-20T13:08:57Z</time>
      </trkpt>
      <trkpt lat="49.90324" lon="2.2862">
        <ele>23.7</ele>
        <time>2023-01-20T13:08:58Z</time>
      </trkpt>
      <trkpt lat="49.90324" lon="2.28621">
        <ele>23.8</ele>
        <time>2023-01-20T13:08:59Z</time>
      </trkpt>
      <trkpt lat="49.90327" lon="2.28625">
        <ele>23.8</ele>
        <time>2023-01-20T13:09:01Z</time>
      </trkpt>
      <trkpt lat="49.90327" lon="2.28626">
        <ele>23.8</ele>
        <time>2023-01-20T13:09:02Z</time>
      </trkpt>
      <trkpt lat="49.90328" lon="2.28627">
        <ele>23.8</ele>
        <time>2023-01-20T13:09:03Z</time>
      </trkpt>
      <trkpt lat="49.90328" lon="2.28628">
        <ele>23.8</ele>
        <time>2023-01-20T13:09:04Z</time>
      </trkpt>
      <trkpt lat="49.90328" lon="2.28629">
        <ele>23.8</ele>
        <time>2023-01-20T13:09:05Z</time>
      </trkpt>
      <trkpt lat="49.90329" lon="2.28631">
        <ele>23.9</ele>
        <time>2023-01-20T13:09:07Z</time>
      </trkpt>
      <trkpt lat="49.9033" lon="2.28633">
        <ele>23.9</ele>
        <time>2023-01-20T13:09:08Z</time>
      </trkpt>
      <trkpt lat="49.90332" lon="2.28636">
        <ele>23.6</ele>
        <time>2023-01-20T13:09:09Z</time>
      </trkpt>
      <trkpt lat="49.90333" lon="2.28637">
        <ele>23.5</ele>
        <time>2023-01-20T13:09:10Z</time>
      </trkpt>
      <trkpt lat="49.90334" lon="2.28638">
        <ele>23.5</ele>
        <time>2023-01-20T13:09:11Z</time>
      </trkpt>
      <trkpt lat="49.90334" lon="2.28639">
        <ele>23.4</ele>
        <time>2023-01-20T13:09:12Z</time>
      </trkpt>
      <trkpt lat="49.90335" lon="2.2864">
        <ele>23.4</ele>
        <time>2023-01-20T13:09:13Z</time>
      </trkpt>
      <trkpt lat="49.90337" lon="2.28641">
        <ele>23.3</ele>
        <time>2023-01-20T13:09:14Z</time>
      </trkpt>
      <trkpt lat="49.90338" lon="2.28642">
        <ele>23.3</ele>
        <time>2023-01-20T13:09:15Z</time>
      </trkpt>
      <trkpt lat="49.90339" lon="2.28642">
        <ele>23.2</ele>
        <time>2023-01-20T13:09:17Z</time>
      </trkpt>
      <trkpt lat="49.9034" lon="2.28643">
        <ele>23.2</ele>
        <time>2023-01-20T13:09:18Z</time>
      </trkpt>
      <trkpt lat="49.90342" lon="2.28642">
        <ele>23.1</ele>
        <time>2023-01-20T13:09:19Z</time>
      </trkpt>
      <trkpt lat="49.90343" lon="2.28642">
        <ele>23.1</ele>
        <time>2023-01-20T13:09:20Z</time>
      </trkpt>
      <trkpt lat="49.90344" lon="2.28641">
        <ele>23</ele>
        <time>2023-01-20T13:09:21Z</time>
      </trkpt>
      <trkpt lat="49.90345" lon="2.28641">
        <ele>23</ele>
        <time>2023-01-20T13:09:23Z</time>
      </trkpt>
      <trkpt lat="49.90346" lon="2.2864">
        <ele>23</ele>
        <time>2023-01-20T13:09:24Z</time>
      </trkpt>
      <trkpt lat="49.90347" lon="2.28639">
        <ele>22.9</ele>
        <time>2023-01-20T13:09:25Z</time>
      </trkpt>
      <trkpt lat="49.90349" lon="2.28636">
        <ele>22.8</ele>
        <time>2023-01-20T13:09:26Z</time>
      </trkpt>
      <trkpt lat="49.90349" lon="2.28636">
        <ele>22.8</ele>
        <time>2023-01-20T13:09:27Z</time>
      </trkpt>
      <trkpt lat="49.9035" lon="2.28635">
        <ele>22.8</ele>
        <time>2023-01-20T13:09:28Z</time>
      </trkpt>
      <trkpt lat="49.90351" lon="2.28633">
        <ele>22.7</ele>
        <time>2023-01-20T13:09:29Z</time>
      </trkpt>
      <trkpt lat="49.90352" lon="2.28632">
        <ele>22.7</ele>
        <time>2023-01-20T13:09:30Z</time>
      </trkpt>
      <trkpt lat="49.90356" lon="2.28634">
        <ele>22.6</ele>
        <time>2023-01-20T13:09:32Z</time>
      </trkpt>
      <trkpt lat="49.90357" lon="2.28632">
        <ele>22.5</ele>
        <time>2023-01-20T13:09:33Z</time>
      </trkpt>
      <trkpt lat="49.90358" lon="2.28631">
        <ele>22.5</ele>
        <time>2023-01-20T13:09:34Z</time>
      </trkpt>
      <trkpt lat="49.90359" lon="2.2863">
        <ele>22.4</ele>
        <time>2023-01-20T13:09:35Z</time>
      </trkpt>
      <trkpt lat="49.90363" lon="2.2863">
        <ele>22.3</ele>
        <time>2023-01-20T13:09:36Z</time>
      </trkpt>
      <trkpt lat="49.90363" lon="2.28631">
        <ele>22.3</ele>
        <time>2023-01-20T13:09:37Z</time>
      </trkpt>
      <trkpt lat="49.90364" lon="2.2863">
        <ele>22.3</ele>
        <time>2023-01-20T13:09:38Z</time>
      </trkpt>
      <trkpt lat="49.90366" lon="2.28628">
        <ele>22.2</ele>
        <time>2023-01-20T13:09:39Z</time>
      </trkpt>
      <trkpt lat="49.90367" lon="2.28627">
        <ele>22.2</ele>
        <time>2023-01-20T13:09:40Z</time>
      </trkpt>
      <trkpt lat="49.90371" lon="2.28633">
        <ele>22.1</ele>
        <time>2023-01-20T13:09:42Z</time>
      </trkpt>
      <trkpt lat="49.90372" lon="2.2863">
        <ele>22</ele>
        <time>2023-01-20T13:09:43Z</time>
      </trkpt>
      <trkpt lat="49.90373" lon="2.28629">
        <ele>22</ele>
        <time>2023-01-20T13:09:44Z</time>
      </trkpt>
      <trkpt lat="49.90373" lon="2.28628">
        <ele>21.9</ele>
        <time>2023-01-20T13:09:45Z</time>
      </trkpt>
      <trkpt lat="49.90373" lon="2.28619">
        <ele>21.8</ele>
        <time>2023-01-20T13:09:46Z</time>
      </trkpt>
      <trkpt lat="49.90372" lon="2.28614">
        <ele>21.7</ele>
        <time>2023-01-20T13:09:47Z</time>
      </trkpt>
      <trkpt lat="49.90372" lon="2.28613">
        <ele>21.7</ele>
        <time>2023-01-20T13:09:48Z</time>
      </trkpt>
      <trkpt lat="49.90371" lon="2.28609">
        <ele>21.6</ele>
        <time>2023-01-20T13:09:49Z</time>
      </trkpt>
      <trkpt lat="49.90371" lon="2.28607">
        <ele>21.6</ele>
        <time>2023-01-20T13:09:51Z</time>
      </trkpt>
      <trkpt lat="49.90373" lon="2.28606">
        <ele>21.6</ele>
        <time>2023-01-20T13:09:52Z</time>
      </trkpt>
      <trkpt lat="49.90374" lon="2.28605">
        <ele>21.5</ele>
        <time>2023-01-20T13:09:53Z</time>
      </trkpt>
      <trkpt lat="49.90375" lon="2.28604">
        <ele>21.5</ele>
        <time>2023-01-20T13:09:54Z</time>
      </trkpt>
      <trkpt lat="49.90376" lon="2.28603">
        <ele>21.5</ele>
        <time>2023-01-20T13:09:55Z</time>
      </trkpt>
      <trkpt lat="49.90378" lon="2.28601">
        <ele>21.5</ele>
        <time>2023-01-20T13:09:56Z</time>
      </trkpt>
      <trkpt lat="49.90378" lon="2.286">
        <ele>21.4</ele>
        <time>2023-01-20T13:09:57Z</time>
      </trkpt>
      <trkpt lat="49.90379" lon="2.28599">
        <ele>21.4</ele>
        <time>2023-01-20T13:09:58Z</time>
      </trkpt>
      <trkpt lat="49.9038" lon="2.28597">
        <ele>21.4</ele>
        <time>2023-01-20T13:09:59Z</time>
      </trkpt>
      <trkpt lat="49.90382" lon="2.28596">
        <ele>21.4</ele>
        <time>2023-01-20T13:10:01Z</time>
      </trkpt>
      <trkpt lat="49.90383" lon="2.28595">
        <ele>21.3</ele>
        <time>2023-01-20T13:10:02Z</time>
      </trkpt>
      <trkpt lat="49.90384" lon="2.28594">
        <ele>21.3</ele>
        <time>2023-01-20T13:10:03Z</time>
      </trkpt>
      <trkpt lat="49.90385" lon="2.28593">
        <ele>21.3</ele>
        <time>2023-01-20T13:10:04Z</time>
      </trkpt>
      <trkpt lat="49.90387" lon="2.28592">
        <ele>21.3</ele>
        <time>2023-01-20T13:10:05Z</time>
      </trkpt>
      <trkpt lat="49.90388" lon="2.28591">
        <ele>21.2</ele>
        <time>2023-01-20T13:10:06Z</time>
      </trkpt>
      <trkpt lat="49.9039" lon="2.28591">
        <ele>21.2</ele>
        <time>2023-01-20T13:10:08Z</time>
      </trkpt>
      <trkpt lat="49.90391" lon="2.28591">
        <ele>21.2</ele>
        <time>2023-01-20T13:10:09Z</time>
      </trkpt>
      <trkpt lat="49.90393" lon="2.2859">
        <ele>21.2</ele>
        <time>2023-01-20T13:10:10Z</time>
      </trkpt>
      <trkpt lat="49.90397" lon="2.28591">
        <ele>21.1</ele>
        <time>2023-01-20T13:10:11Z</time>
      </trkpt>
      <trkpt lat="49.90398" lon="2.28592">
        <ele>21.1</ele>
        <time>2023-01-20T13:10:12Z</time>
      </trkpt>
      <trkpt lat="49.904" lon="2.28591">
        <ele>21</ele>
        <time>2023-01-20T13:10:13Z</time>
      </trkpt>
      <trkpt lat="49.90401" lon="2.2859">
        <ele>21</ele>
        <time>2023-01-20T13:10:15Z</time>
      </trkpt>
      <trkpt lat="49.90402" lon="2.2859">
        <ele>21</ele>
        <time>2023-01-20T13:10:16Z</time>
      </trkpt>
      <trkpt lat="49.90403" lon="2.28589">
        <ele>21</ele>
        <time>2023-01-20T13:10:17Z</time>
      </trkpt>
      <trkpt lat="49.90405" lon="2.28587">
        <ele>21</ele>
        <time>2023-01-20T13:10:18Z</time>
      </trkpt>
      <trkpt lat="49.90406" lon="2.28585">
        <ele>21</ele>
        <time>2023-01-20T13:10:19Z</time>
      </trkpt>
      <trkpt lat="49.90407" lon="2.28584">
        <ele>20.9</ele>
        <time>2023-01-20T13:10:20Z</time>
      </trkpt>
      <trkpt lat="49.90407" lon="2.28582">
        <ele>20.9</ele>
        <time>2023-01-20T13:10:21Z</time>
      </trkpt>
      <trkpt lat="49.90409" lon="2.28579">
        <ele>20.9</ele>
        <time>2023-01-20T13:10:23Z</time>
      </trkpt>
      <trkpt lat="49.90409" lon="2.28578">
        <ele>20.9</ele>
        <time>2023-01-20T13:10:24Z</time>
      </trkpt>
      <trkpt lat="49.90409" lon="2.28577">
        <ele>20.9</ele>
        <time>2023-01-20T13:10:25Z</time>
      </trkpt>
      <trkpt lat="49.9041" lon="2.28576">
        <ele>20.9</ele>
        <time>2023-01-20T13:10:26Z</time>
      </trkpt>
      <trkpt lat="49.90411" lon="2.28574">
        <ele>20.9</ele>
        <time>2023-01-20T13:10:27Z</time>
      </trkpt>
      <trkpt lat="49.90412" lon="2.28572">
        <ele>20.8</ele>
        <time>2023-01-20T13:10:28Z</time>
      </trkpt>
      <trkpt lat="49.90413" lon="2.28571">
        <ele>20.8</ele>
        <time>2023-01-20T13:10:29Z</time>
      </trkpt>
      <trkpt lat="49.90413" lon="2.2857">
        <ele>20.8</ele>
        <time>2023-01-20T13:10:30Z</time>
      </trkpt>
      <trkpt lat="49.90415" lon="2.28567">
        <ele>20.8</ele>
        <time>2023-01-20T13:10:31Z</time>
      </trkpt>
      <trkpt lat="49.90416" lon="2.28565">
        <ele>20.8</ele>
        <time>2023-01-20T13:10:32Z</time>
      </trkpt>
      <trkpt lat="49.90416" lon="2.28564">
        <ele>20.8</ele>
        <time>2023-01-20T13:10:33Z</time>
      </trkpt>
      <trkpt lat="49.90417" lon="2.28562">
        <ele>20.8</ele>
        <time>2023-01-20T13:10:35Z</time>
      </trkpt>
      <trkpt lat="49.90418" lon="2.28561">
        <ele>20.8</ele>
        <time>2023-01-20T13:10:36Z</time>
      </trkpt>
      <trkpt lat="49.90418" lon="2.2856">
        <ele>20.8</ele>
        <time>2023-01-20T13:10:37Z</time>
      </trkpt>
      <trkpt lat="49.9042" lon="2.28559">
        <ele>20.8</ele>
        <time>2023-01-20T13:10:38Z</time>
      </trkpt>
      <trkpt lat="49.90421" lon="2.28558">
        <ele>20.7</ele>
        <time>2023-01-20T13:10:39Z</time>
      </trkpt>
      <trkpt lat="49.90423" lon="2.28555">
        <ele>20.7</ele>
        <time>2023-01-20T13:10:40Z</time>
      </trkpt>
      <trkpt lat="49.90424" lon="2.28554">
        <ele>20.7</ele>
        <time>2023-01-20T13:10:41Z</time>
      </trkpt>
      <trkpt lat="49.90425" lon="2.28553">
        <ele>20.7</ele>
        <time>2023-01-20T13:10:42Z</time>
      </trkpt>
      <trkpt lat="49.90425" lon="2.28553">
        <ele>20.7</ele>
        <time>2023-01-20T13:10:43Z</time>
      </trkpt>
      <trkpt lat="49.90426" lon="2.28552">
        <ele>20.7</ele>
        <time>2023-01-20T13:10:44Z</time>
      </trkpt>
      <trkpt lat="49.90426" lon="2.28551">
        <ele>20.7</ele>
        <time>2023-01-20T13:10:46Z</time>
      </trkpt>
      <trkpt lat="49.90427" lon="2.28549">
        <ele>20.7</ele>
        <time>2023-01-20T13:10:47Z</time>
      </trkpt>
      <trkpt lat="49.90429" lon="2.28545">
        <ele>20.7</ele>
        <time>2023-01-20T13:10:48Z</time>
      </trkpt>
      <trkpt lat="49.90429" lon="2.28545">
        <ele>20.7</ele>
        <time>2023-01-20T13:10:49Z</time>
      </trkpt>
      <trkpt lat="49.9043" lon="2.28544">
        <ele>20.7</ele>
        <time>2023-01-20T13:10:50Z</time>
      </trkpt>
      <trkpt lat="49.90431" lon="2.28543">
        <ele>20.7</ele>
        <time>2023-01-20T13:10:51Z</time>
      </trkpt>
      <trkpt lat="49.90432" lon="2.28541">
        <ele>20.7</ele>
        <time>2023-01-20T13:10:52Z</time>
      </trkpt>
      <trkpt lat="49.90434" lon="2.2854">
        <ele>20.7</ele>
        <time>2023-01-20T13:10:54Z</time>
      </trkpt>
      <trkpt lat="49.90435" lon="2.28539">
        <ele>20.7</ele>
        <time>2023-01-20T13:10:55Z</time>
      </trkpt>
      <trkpt lat="49.90435" lon="2.28538">
        <ele>20.6</ele>
        <time>2023-01-20T13:10:56Z</time>
      </trkpt>
      <trkpt lat="49.90436" lon="2.28536">
        <ele>20.6</ele>
        <time>2023-01-20T13:10:57Z</time>
      </trkpt>
      <trkpt lat="49.90442" lon="2.28538">
        <ele>20.6</ele>
        <time>2023-01-20T13:10:59Z</time>
      </trkpt>
      <trkpt lat="49.90442" lon="2.28535">
        <ele>20.6</ele>
        <time>2023-01-20T13:11:00Z</time>
      </trkpt>
      <trkpt lat="49.90443" lon="2.28533">
        <ele>20.6</ele>
        <time>2023-01-20T13:11:01Z</time>
      </trkpt>
      <trkpt lat="49.90443" lon="2.28532">
        <ele>20.6</ele>
        <time>2023-01-20T13:11:02Z</time>
      </trkpt>
      <trkpt lat="49.90449" lon="2.28534">
        <ele>20.5</ele>
        <time>2023-01-20T13:11:03Z</time>
      </trkpt>
      <trkpt lat="49.90449" lon="2.28535">
        <ele>20.5</ele>
        <time>2023-01-20T13:11:04Z</time>
      </trkpt>
      <trkpt lat="49.90449" lon="2.28533">
        <ele>20.5</ele>
        <time>2023-01-20T13:11:05Z</time>
      </trkpt>
      <trkpt lat="49.90449" lon="2.28531">
        <ele>20.5</ele>
        <time>2023-01-20T13:11:06Z</time>
      </trkpt>
      <trkpt lat="49.90449" lon="2.28529">
        <ele>20.5</ele>
        <time>2023-01-20T13:11:07Z</time>
      </trkpt>
      <trkpt lat="49.90451" lon="2.28529">
        <ele>20.5</ele>
        <time>2023-01-20T13:11:09Z</time>
      </trkpt>
      <trkpt lat="49.90452" lon="2.28528">
        <ele>20.5</ele>
        <time>2023-01-20T13:11:10Z</time>
      </trkpt>
      <trkpt lat="49.90453" lon="2.28527">
        <ele>20.5</ele>
        <time>2023-01-20T13:11:11Z</time>
      </trkpt>
      <trkpt lat="49.90453" lon="2.28526">
        <ele>20.5</ele>
        <time>2023-01-20T13:11:12Z</time>
      </trkpt>
      <trkpt lat="49.90453" lon="2.28524">
        <ele>20.5</ele>
        <time>2023-01-20T13:11:13Z</time>
      </trkpt>
      <trkpt lat="49.90453" lon="2.28521">
        <ele>20.5</ele>
        <time>2023-01-20T13:11:14Z</time>
      </trkpt>
      <trkpt lat="49.90453" lon="2.28519">
        <ele>20.5</ele>
        <time>2023-01-20T13:11:15Z</time>
      </trkpt>
      <trkpt lat="49.90454" lon="2.28515">
        <ele>20.5</ele>
        <time>2023-01-20T13:11:16Z</time>
      </trkpt>
      <trkpt lat="49.90455" lon="2.28514">
        <ele>20.4</ele>
        <time>2023-01-20T13:11:17Z</time>
      </trkpt>
      <trkpt lat="49.90456" lon="2.28513">
        <ele>20.4</ele>
        <time>2023-01-20T13:11:18Z</time>
      </trkpt>
      <trkpt lat="49.90456" lon="2.28512">
        <ele>20.4</ele>
        <time>2023-01-20T13:11:20Z</time>
      </trkpt>
      <trkpt lat="49.90458" lon="2.2851">
        <ele>20.4</ele>
        <time>2023-01-20T13:11:21Z</time>
      </trkpt>
      <trkpt lat="49.90459" lon="2.28509">
        <ele>20.4</ele>
        <time>2023-01-20T13:11:22Z</time>
      </trkpt>
      <trkpt lat="49.9046" lon="2.28507">
        <ele>20.4</ele>
        <time>2023-01-20T13:11:23Z</time>
      </trkpt>
      <trkpt lat="49.90462" lon="2.28504">
        <ele>20.4</ele>
        <time>2023-01-20T13:11:24Z</time>
      </trkpt>
      <trkpt lat="49.90462" lon="2.28503">
        <ele>20.4</ele>
        <time>2023-01-20T13:11:26Z</time>
      </trkpt>
      <trkpt lat="49.90463" lon="2.28503">
        <ele>20.4</ele>
        <time>2023-01-20T13:11:27Z</time>
      </trkpt>
      <trkpt lat="49.90465" lon="2.28499">
        <ele>20.4</ele>
        <time>2023-01-20T13:11:28Z</time>
      </trkpt>
      <trkpt lat="49.90465" lon="2.28497">
        <ele>20.4</ele>
        <time>2023-01-20T13:11:29Z</time>
      </trkpt>
      <trkpt lat="49.90466" lon="2.28496">
        <ele>20.4</ele>
        <time>2023-01-20T13:11:30Z</time>
      </trkpt>
      <trkpt lat="49.90466" lon="2.28495">
        <ele>20.4</ele>
        <time>2023-01-20T13:11:31Z</time>
      </trkpt>
      <trkpt lat="49.90467" lon="2.28494">
        <ele>20.4</ele>
        <time>2023-01-20T13:11:32Z</time>
      </trkpt>
      <trkpt lat="49.90469" lon="2.28493">
        <ele>20.4</ele>
        <time>2023-01-20T13:11:33Z</time>
      </trkpt>
      <trkpt lat="49.9047" lon="2.28491">
        <ele>20.4</ele>
        <time>2023-01-20T13:11:35Z</time>
      </trkpt>
      <trkpt lat="49.90472" lon="2.28489">
        <ele>20.4</ele>
        <time>2023-01-20T13:11:36Z</time>
      </trkpt>
      <trkpt lat="49.90474" lon="2.28489">
        <ele>20.4</ele>
        <time>2023-01-20T13:11:37Z</time>
      </trkpt>
      <trkpt lat="49.90475" lon="2.28488">
        <ele>20.4</ele>
        <time>2023-01-20T13:11:38Z</time>
      </trkpt>
      <trkpt lat="49.90476" lon="2.28489">
        <ele>20.4</ele>
        <time>2023-01-20T13:11:39Z</time>
      </trkpt>
      <trkpt lat="49.90478" lon="2.28488">
        <ele>20.4</ele>
        <time>2023-01-20T13:11:40Z</time>
      </trkpt>
      <trkpt lat="49.90479" lon="2.28486">
        <ele>20.4</ele>
        <time>2023-01-20T13:11:41Z</time>
      </trkpt>
      <trkpt lat="49.9048" lon="2.28485">
        <ele>20.4</ele>
        <time>2023-01-20T13:11:42Z</time>
      </trkpt>
      <trkpt lat="49.9048" lon="2.2848">
        <ele>20.4</ele>
        <time>2023-01-20T13:11:43Z</time>
      </trkpt>
      <trkpt lat="49.9048" lon="2.28478">
        <ele>20.4</ele>
        <time>2023-01-20T13:11:45Z</time>
      </trkpt>
      <trkpt lat="49.9048" lon="2.28476">
        <ele>20.4</ele>
        <time>2023-01-20T13:11:46Z</time>
      </trkpt>
      <trkpt lat="49.9048" lon="2.28475">
        <ele>20.4</ele>
        <time>2023-01-20T13:11:47Z</time>
      </trkpt>
      <trkpt lat="49.9048" lon="2.28473">
        <ele>20.3</ele>
        <time>2023-01-20T13:11:48Z</time>
      </trkpt>
      <trkpt lat="49.90481" lon="2.28471">
        <ele>20.3</ele>
        <time>2023-01-20T13:11:49Z</time>
      </trkpt>
      <trkpt lat="49.90482" lon="2.2847">
        <ele>20.3</ele>
        <time>2023-01-20T13:11:50Z</time>
      </trkpt>
      <trkpt lat="49.90483" lon="2.28469">
        <ele>20.3</ele>
        <time>2023-01-20T13:11:52Z</time>
      </trkpt>
      <trkpt lat="49.90484" lon="2.28468">
        <ele>20.3</ele>
        <time>2023-01-20T13:11:53Z</time>
      </trkpt>
      <trkpt lat="49.90485" lon="2.28467">
        <ele>20.3</ele>
        <time>2023-01-20T13:11:54Z</time>
      </trkpt>
      <trkpt lat="49.90487" lon="2.28465">
        <ele>20.3</ele>
        <time>2023-01-20T13:11:55Z</time>
      </trkpt>
      <trkpt lat="49.90488" lon="2.28464">
        <ele>20.3</ele>
        <time>2023-01-20T13:11:56Z</time>
      </trkpt>
      <trkpt lat="49.90491" lon="2.28462">
        <ele>20.3</ele>
        <time>2023-01-20T13:11:58Z</time>
      </trkpt>
      <trkpt lat="49.90492" lon="2.28461">
        <ele>20.3</ele>
        <time>2023-01-20T13:11:59Z</time>
      </trkpt>
      <trkpt lat="49.90494" lon="2.28461">
        <ele>20.3</ele>
        <time>2023-01-20T13:12:00Z</time>
      </trkpt>
      <trkpt lat="49.90495" lon="2.2846">
        <ele>20.3</ele>
        <time>2023-01-20T13:12:01Z</time>
      </trkpt>
      <trkpt lat="49.90498" lon="2.28458">
        <ele>20.3</ele>
        <time>2023-01-20T13:12:03Z</time>
      </trkpt>
      <trkpt lat="49.90499" lon="2.28458">
        <ele>20.3</ele>
        <time>2023-01-20T13:12:04Z</time>
      </trkpt>
      <trkpt lat="49.90501" lon="2.28458">
        <ele>20.3</ele>
        <time>2023-01-20T13:12:05Z</time>
      </trkpt>
      <trkpt lat="49.90502" lon="2.28458">
        <ele>20.3</ele>
        <time>2023-01-20T13:12:06Z</time>
      </trkpt>
      <trkpt lat="49.90506" lon="2.28457">
        <ele>20.3</ele>
        <time>2023-01-20T13:12:07Z</time>
      </trkpt>
      <trkpt lat="49.90508" lon="2.28457">
        <ele>20.3</ele>
        <time>2023-01-20T13:12:08Z</time>
      </trkpt>
      <trkpt lat="49.9051" lon="2.28458">
        <ele>20.3</ele>
        <time>2023-01-20T13:12:09Z</time>
      </trkpt>
      <trkpt lat="49.90512" lon="2.28458">
        <ele>20.3</ele>
        <time>2023-01-20T13:12:11Z</time>
      </trkpt>
      <trkpt lat="49.90513" lon="2.28457">
        <ele>20.3</ele>
        <time>2023-01-20T13:12:12Z</time>
      </trkpt>
      <trkpt lat="49.90516" lon="2.28456">
        <ele>20.3</ele>
        <time>2023-01-20T13:12:13Z</time>
      </trkpt>
      <trkpt lat="49.90517" lon="2.28456">
        <ele>20.3</ele>
        <time>2023-01-20T13:12:14Z</time>
      </trkpt>
      <trkpt lat="49.90519" lon="2.28455">
        <ele>20.3</ele>
        <time>2023-01-20T13:12:15Z</time>
      </trkpt>
      <trkpt lat="49.90519" lon="2.28454">
        <ele>20.3</ele>
        <time>2023-01-20T13:12:16Z</time>
      </trkpt>
      <trkpt lat="49.9052" lon="2.28452">
        <ele>20.3</ele>
        <time>2023-01-20T13:12:17Z</time>
      </trkpt>
      <trkpt lat="49.90522" lon="2.2845">
        <ele>20.3</ele>
        <time>2023-01-20T13:12:18Z</time>
      </trkpt>
      <trkpt lat="49.90523" lon="2.2845">
        <ele>20.2</ele>
        <time>2023-01-20T13:12:19Z</time>
      </trkpt>
      <trkpt lat="49.90524" lon="2.28447">
        <ele>20.2</ele>
        <time>2023-01-20T13:12:20Z</time>
      </trkpt>
      <trkpt lat="49.90524" lon="2.28445">
        <ele>20.2</ele>
        <time>2023-01-20T13:12:21Z</time>
      </trkpt>
      <trkpt lat="49.90524" lon="2.28443">
        <ele>20.2</ele>
        <time>2023-01-20T13:12:22Z</time>
      </trkpt>
      <trkpt lat="49.90523" lon="2.28441">
        <ele>20.2</ele>
        <time>2023-01-20T13:12:24Z</time>
      </trkpt>
      <trkpt lat="49.90524" lon="2.28441">
        <ele>20.2</ele>
        <time>2023-01-20T13:12:25Z</time>
      </trkpt>
      <trkpt lat="49.90525" lon="2.28439">
        <ele>20.2</ele>
        <time>2023-01-20T13:12:26Z</time>
      </trkpt>
      <trkpt lat="49.90525" lon="2.28437">
        <ele>20.2</ele>
        <time>2023-01-20T13:12:27Z</time>
      </trkpt>
      <trkpt lat="49.90525" lon="2.28434">
        <ele>20.2</ele>
        <time>2023-01-20T13:12:28Z</time>
      </trkpt>
      <trkpt lat="49.90527" lon="2.28435">
        <ele>20.2</ele>
        <time>2023-01-20T13:12:30Z</time>
      </trkpt>
      <trkpt lat="49.90528" lon="2.28433">
        <ele>20.2</ele>
        <time>2023-01-20T13:12:31Z</time>
      </trkpt>
      <trkpt lat="49.90528" lon="2.28431">
        <ele>20.2</ele>
        <time>2023-01-20T13:12:32Z</time>
      </trkpt>
      <trkpt lat="49.90529" lon="2.28429">
        <ele>20.2</ele>
        <time>2023-01-20T13:12:33Z</time>
      </trkpt>
      <trkpt lat="49.90531" lon="2.28432">
        <ele>20.2</ele>
        <time>2023-01-20T13:12:34Z</time>
      </trkpt>
      <trkpt lat="49.90532" lon="2.28429">
        <ele>20.2</ele>
        <time>2023-01-20T13:12:35Z</time>
      </trkpt>
      <trkpt lat="49.90531" lon="2.28426">
        <ele>20.2</ele>
        <time>2023-01-20T13:12:36Z</time>
      </trkpt>
      <trkpt lat="49.9053" lon="2.28423">
        <ele>20.2</ele>
        <time>2023-01-20T13:12:38Z</time>
      </trkpt>
      <trkpt lat="49.9053" lon="2.2842">
        <ele>20.2</ele>
        <time>2023-01-20T13:12:39Z</time>
      </trkpt>
      <trkpt lat="49.90532" lon="2.28421">
        <ele>20.2</ele>
        <time>2023-01-20T13:12:40Z</time>
      </trkpt>
      <trkpt lat="49.90532" lon="2.2842">
        <ele>20.2</ele>
        <time>2023-01-20T13:12:41Z</time>
      </trkpt>
      <trkpt lat="49.90532" lon="2.28417">
        <ele>20.2</ele>
        <time>2023-01-20T13:12:42Z</time>
      </trkpt>
      <trkpt lat="49.90525" lon="2.28404">
        <ele>20.2</ele>
        <time>2023-01-20T13:12:43Z</time>
      </trkpt>
      <trkpt lat="49.90526" lon="2.28403">
        <ele>20.2</ele>
        <time>2023-01-20T13:12:44Z</time>
      </trkpt>
      <trkpt lat="49.90526" lon="2.28401">
        <ele>20.2</ele>
        <time>2023-01-20T13:12:45Z</time>
      </trkpt>
      <trkpt lat="49.90527" lon="2.28398">
        <ele>20.2</ele>
        <time>2023-01-20T13:12:47Z</time>
      </trkpt>
      <trkpt lat="49.9053" lon="2.28397">
        <ele>20.2</ele>
        <time>2023-01-20T13:12:48Z</time>
      </trkpt>
      <trkpt lat="49.90532" lon="2.28398">
        <ele>20.2</ele>
        <time>2023-01-20T13:12:50Z</time>
      </trkpt>
      <trkpt lat="49.90533" lon="2.28397">
        <ele>20.2</ele>
        <time>2023-01-20T13:12:51Z</time>
      </trkpt>
      <trkpt lat="49.90536" lon="2.28396">
        <ele>20.2</ele>
        <time>2023-01-20T13:12:52Z</time>
      </trkpt>
      <trkpt lat="49.90538" lon="2.28396">
        <ele>20.2</ele>
        <time>2023-01-20T13:12:53Z</time>
      </trkpt>
      <trkpt lat="49.9054" lon="2.28397">
        <ele>20.2</ele>
        <time>2023-01-20T13:12:54Z</time>
      </trkpt>
      <trkpt lat="49.90541" lon="2.28394">
        <ele>20.2</ele>
        <time>2023-01-20T13:12:55Z</time>
      </trkpt>
      <trkpt lat="49.90542" lon="2.28392">
        <ele>20.2</ele>
        <time>2023-01-20T13:12:57Z</time>
      </trkpt>
      <trkpt lat="49.90543" lon="2.2839">
        <ele>20.2</ele>
        <time>2023-01-20T13:12:58Z</time>
      </trkpt>
      <trkpt lat="49.90544" lon="2.28388">
        <ele>20.2</ele>
        <time>2023-01-20T13:12:59Z</time>
      </trkpt>
      <trkpt lat="49.90545" lon="2.28386">
        <ele>20.2</ele>
        <time>2023-01-20T13:13:00Z</time>
      </trkpt>
      <trkpt lat="49.90545" lon="2.28384">
        <ele>20.2</ele>
        <time>2023-01-20T13:13:01Z</time>
      </trkpt>
      <trkpt lat="49.90546" lon="2.28383">
        <ele>20.2</ele>
        <time>2023-01-20T13:13:02Z</time>
      </trkpt>
      <trkpt lat="49.90548" lon="2.28379">
        <ele>20.2</ele>
        <time>2023-01-20T13:13:03Z</time>
      </trkpt>
      <trkpt lat="49.90548" lon="2.28378">
        <ele>20.2</ele>
        <time>2023-01-20T13:13:04Z</time>
      </trkpt>
      <trkpt lat="49.90548" lon="2.28377">
        <ele>20.2</ele>
        <time>2023-01-20T13:13:05Z</time>
      </trkpt>
      <trkpt lat="49.90549" lon="2.28375">
        <ele>20.2</ele>
        <time>2023-01-20T13:13:06Z</time>
      </trkpt>
      <trkpt lat="49.90551" lon="2.28372">
        <ele>20.2</ele>
        <time>2023-01-20T13:13:08Z</time>
      </trkpt>
      <trkpt lat="49.90553" lon="2.28371">
        <ele>20.2</ele>
        <time>2023-01-20T13:13:09Z</time>
      </trkpt>
      <trkpt lat="49.90554" lon="2.28369">
        <ele>20.1</ele>
        <time>2023-01-20T13:13:10Z</time>
      </trkpt>
      <trkpt lat="49.90554" lon="2.28368">
        <ele>20.1</ele>
        <time>2023-01-20T13:13:11Z</time>
      </trkpt>
      <trkpt lat="49.90554" lon="2.28366">
        <ele>20.1</ele>
        <time>2023-01-20T13:13:12Z</time>
      </trkpt>
      <trkpt lat="49.90554" lon="2.28365">
        <ele>20.1</ele>
        <time>2023-01-20T13:13:13Z</time>
      </trkpt>
      <trkpt lat="49.90551" lon="2.28361">
        <ele>20.1</ele>
        <time>2023-01-20T13:13:14Z</time>
      </trkpt>
      <trkpt lat="49.9055" lon="2.28359">
        <ele>20.1</ele>
        <time>2023-01-20T13:13:15Z</time>
      </trkpt>
      <trkpt lat="49.9055" lon="2.28358">
        <ele>20.1</ele>
        <time>2023-01-20T13:13:16Z</time>
      </trkpt>
      <trkpt lat="49.9055" lon="2.28356">
        <ele>20.1</ele>
        <time>2023-01-20T13:13:17Z</time>
      </trkpt>
      <trkpt lat="49.90549" lon="2.28352">
        <ele>20.1</ele>
        <time>2023-01-20T13:13:19Z</time>
      </trkpt>
      <trkpt lat="49.9055" lon="2.28352">
        <ele>20.1</ele>
        <time>2023-01-20T13:13:20Z</time>
      </trkpt>
      <trkpt lat="49.9055" lon="2.28349">
        <ele>20.1</ele>
        <time>2023-01-20T13:13:21Z</time>
      </trkpt>
      <trkpt lat="49.90551" lon="2.28347">
        <ele>20.1</ele>
        <time>2023-01-20T13:13:22Z</time>
      </trkpt>
      <trkpt lat="49.90553" lon="2.28342">
        <ele>20.1</ele>
        <time>2023-01-20T13:13:24Z</time>
      </trkpt>
      <trkpt lat="49.90553" lon="2.28341">
        <ele>20.1</ele>
        <time>2023-01-20T13:13:25Z</time>
      </trkpt>
      <trkpt lat="49.90554" lon="2.2834">
        <ele>20.1</ele>
        <time>2023-01-20T13:13:26Z</time>
      </trkpt>
      <trkpt lat="49.90554" lon="2.28339">
        <ele>20.1</ele>
        <time>2023-01-20T13:13:27Z</time>
      </trkpt>
      <trkpt lat="49.90555" lon="2.28338">
        <ele>20.1</ele>
        <time>2023-01-20T13:13:28Z</time>
      </trkpt>
      <trkpt lat="49.90556" lon="2.28335">
        <ele>20</ele>
        <time>2023-01-20T13:13:29Z</time>
      </trkpt>
      <trkpt lat="49.90557" lon="2.28333">
        <ele>20</ele>
        <time>2023-01-20T13:13:31Z</time>
      </trkpt>
      <trkpt lat="49.90557" lon="2.28331">
        <ele>20</ele>
        <time>2023-01-20T13:13:32Z</time>
      </trkpt>
      <trkpt lat="49.90559" lon="2.2833">
        <ele>20</ele>
        <time>2023-01-20T13:13:33Z</time>
      </trkpt>
      <trkpt lat="49.9056" lon="2.28326">
        <ele>20</ele>
        <time>2023-01-20T13:13:34Z</time>
      </trkpt>
      <trkpt lat="49.90561" lon="2.28325">
        <ele>20</ele>
        <time>2023-01-20T13:13:36Z</time>
      </trkpt>
      <trkpt lat="49.90561" lon="2.28323">
        <ele>20</ele>
        <time>2023-01-20T13:13:37Z</time>
      </trkpt>
      <trkpt lat="49.90562" lon="2.28322">
        <ele>20</ele>
        <time>2023-01-20T13:13:38Z</time>
      </trkpt>
      <trkpt lat="49.90562" lon="2.28321">
        <ele>20</ele>
        <time>2023-01-20T13:13:39Z</time>
      </trkpt>
      <trkpt lat="49.90562" lon="2.28319">
        <ele>20</ele>
        <time>2023-01-20T13:13:40Z</time>
      </trkpt>
      <trkpt lat="49.90563" lon="2.28318">
        <ele>20</ele>
        <time>2023-01-20T13:13:41Z</time>
      </trkpt>
      <trkpt lat="49.90564" lon="2.28315">
        <ele>20</ele>
        <time>2023-01-20T13:13:43Z</time>
      </trkpt>
      <trkpt lat="49.90565" lon="2.28312">
        <ele>20</ele>
        <time>2023-01-20T13:13:44Z</time>
      </trkpt>
      <trkpt lat="49.90564" lon="2.28312">
        <ele>20</ele>
        <time>2023-01-20T13:13:45Z</time>
      </trkpt>
      <trkpt lat="49.90564" lon="2.2831">
        <ele>20</ele>
        <time>2023-01-20T13:13:46Z</time>
      </trkpt>
      <trkpt lat="49.90565" lon="2.28306">
        <ele>20</ele>
        <time>2023-01-20T13:13:48Z</time>
      </trkpt>
      <trkpt lat="49.90565" lon="2.28304">
        <ele>20</ele>
        <time>2023-01-20T13:13:49Z</time>
      </trkpt>
      <trkpt lat="49.90565" lon="2.28303">
        <ele>20</ele>
        <time>2023-01-20T13:13:50Z</time>
      </trkpt>
      <trkpt lat="49.90566" lon="2.28302">
        <ele>20</ele>
        <time>2023-01-20T13:13:51Z</time>
      </trkpt>
      <trkpt lat="49.90567" lon="2.28301">
        <ele>20</ele>
        <time>2023-01-20T13:13:52Z</time>
      </trkpt>
      <trkpt lat="49.90567" lon="2.28299">
        <ele>20</ele>
        <time>2023-01-20T13:13:53Z</time>
      </trkpt>
      <trkpt lat="49.90569" lon="2.28296">
        <ele>20</ele>
        <time>2023-01-20T13:13:55Z</time>
      </trkpt>
      <trkpt lat="49.9057" lon="2.28295">
        <ele>20</ele>
        <time>2023-01-20T13:13:56Z</time>
      </trkpt>
      <trkpt lat="49.90572" lon="2.28294">
        <ele>20</ele>
        <time>2023-01-20T13:13:57Z</time>
      </trkpt>
      <trkpt lat="49.90573" lon="2.28294">
        <ele>20</ele>
        <time>2023-01-20T13:13:58Z</time>
      </trkpt>
      <trkpt lat="49.90575" lon="2.28294">
        <ele>20</ele>
        <time>2023-01-20T13:13:59Z</time>
      </trkpt>
      <trkpt lat="49.90576" lon="2.28294">
        <ele>20</ele>
        <time>2023-01-20T13:14:00Z</time>
      </trkpt>
      <trkpt lat="49.90577" lon="2.28293">
        <ele>20</ele>
        <time>2023-01-20T13:14:01Z</time>
      </trkpt>
      <trkpt lat="49.90578" lon="2.28292">
        <ele>20</ele>
        <time>2023-01-20T13:14:03Z</time>
      </trkpt>
      <trkpt lat="49.90581" lon="2.28289">
        <ele>20</ele>
        <time>2023-01-20T13:14:04Z</time>
      </trkpt>
      <trkpt lat="49.90581" lon="2.28287">
        <ele>20</ele>
        <time>2023-01-20T13:14:05Z</time>
      </trkpt>
      <trkpt lat="49.90582" lon="2.28286">
        <ele>20</ele>
        <time>2023-01-20T13:14:06Z</time>
      </trkpt>
      <trkpt lat="49.90582" lon="2.28284">
        <ele>20</ele>
        <time>2023-01-20T13:14:07Z</time>
      </trkpt>
      <trkpt lat="49.90583" lon="2.28283">
        <ele>20</ele>
        <time>2023-01-20T13:14:08Z</time>
      </trkpt>
      <trkpt lat="49.90585" lon="2.28281">
        <ele>20</ele>
        <time>2023-01-20T13:14:10Z</time>
      </trkpt>
      <trkpt lat="49.90586" lon="2.2828">
        <ele>20</ele>
        <time>2023-01-20T13:14:11Z</time>
      </trkpt>
      <trkpt lat="49.90586" lon="2.28279">
        <ele>20</ele>
        <time>2023-01-20T13:14:12Z</time>
      </trkpt>
      <trkpt lat="49.90587" lon="2.28276">
        <ele>20</ele>
        <time>2023-01-20T13:14:13Z</time>
      </trkpt>
      <trkpt lat="49.90589" lon="2.28275">
        <ele>20</ele>
        <time>2023-01-20T13:14:15Z</time>
      </trkpt>
      <trkpt lat="49.90589" lon="2.28274">
        <ele>20</ele>
        <time>2023-01-20T13:14:16Z</time>
      </trkpt>
      <trkpt lat="49.90592" lon="2.28272">
        <ele>20</ele>
        <time>2023-01-20T13:14:17Z</time>
      </trkpt>
      <trkpt lat="49.90594" lon="2.28272">
        <ele>20</ele>
        <time>2023-01-20T13:14:18Z</time>
      </trkpt>
      <trkpt lat="49.90596" lon="2.28271">
        <ele>20</ele>
        <time>2023-01-20T13:14:19Z</time>
      </trkpt>
      <trkpt lat="49.90597" lon="2.28272">
        <ele>20</ele>
        <time>2023-01-20T13:14:20Z</time>
      </trkpt>
      <trkpt lat="49.90598" lon="2.28271">
        <ele>20</ele>
        <time>2023-01-20T13:14:21Z</time>
      </trkpt>
      <trkpt lat="49.90599" lon="2.2827">
        <ele>20</ele>
        <time>2023-01-20T13:14:22Z</time>
      </trkpt>
      <trkpt lat="49.90599" lon="2.28269">
        <ele>20</ele>
        <time>2023-01-20T13:14:23Z</time>
      </trkpt>
      <trkpt lat="49.90602" lon="2.2827">
        <ele>20</ele>
        <time>2023-01-20T13:14:24Z</time>
      </trkpt>
      <trkpt lat="49.90602" lon="2.28269">
        <ele>19.9</ele>
        <time>2023-01-20T13:14:26Z</time>
      </trkpt>
      <trkpt lat="49.90602" lon="2.28268">
        <ele>19.9</ele>
        <time>2023-01-20T13:14:27Z</time>
      </trkpt>
      <trkpt lat="49.90603" lon="2.28266">
        <ele>19.9</ele>
        <time>2023-01-20T13:14:28Z</time>
      </trkpt>
      <trkpt lat="49.90604" lon="2.28263">
        <ele>19.9</ele>
        <time>2023-01-20T13:14:29Z</time>
      </trkpt>
      <trkpt lat="49.90606" lon="2.28263">
        <ele>19.9</ele>
        <time>2023-01-20T13:14:30Z</time>
      </trkpt>
      <trkpt lat="49.90607" lon="2.28262">
        <ele>19.9</ele>
        <time>2023-01-20T13:14:31Z</time>
      </trkpt>
      <trkpt lat="49.90608" lon="2.28261">
        <ele>19.9</ele>
        <time>2023-01-20T13:14:33Z</time>
      </trkpt>
      <trkpt lat="49.90613" lon="2.28262">
        <ele>19.9</ele>
        <time>2023-01-20T13:14:34Z</time>
      </trkpt>
      <trkpt lat="49.90613" lon="2.28262">
        <ele>19.9</ele>
        <time>2023-01-20T13:14:35Z</time>
      </trkpt>
      <trkpt lat="49.90614" lon="2.2826">
        <ele>19.9</ele>
        <time>2023-01-20T13:14:37Z</time>
      </trkpt>
      <trkpt lat="49.90615" lon="2.28258">
        <ele>19.9</ele>
        <time>2023-01-20T13:14:38Z</time>
      </trkpt>
      <trkpt lat="49.90617" lon="2.28255">
        <ele>19.9</ele>
        <time>2023-01-20T13:14:39Z</time>
      </trkpt>
      <trkpt lat="49.90617" lon="2.28255">
        <ele>19.9</ele>
        <time>2023-01-20T13:14:40Z</time>
      </trkpt>
      <trkpt lat="49.90618" lon="2.28253">
        <ele>19.9</ele>
        <time>2023-01-20T13:14:41Z</time>
      </trkpt>
      <trkpt lat="49.90618" lon="2.28251">
        <ele>19.9</ele>
        <time>2023-01-20T13:14:42Z</time>
      </trkpt>
      <trkpt lat="49.90621" lon="2.2825">
        <ele>19.9</ele>
        <time>2023-01-20T13:14:44Z</time>
      </trkpt>
      <trkpt lat="49.90622" lon="2.28252">
        <ele>19.9</ele>
        <time>2023-01-20T13:14:45Z</time>
      </trkpt>
      <trkpt lat="49.90623" lon="2.28251">
        <ele>19.9</ele>
        <time>2023-01-20T13:14:46Z</time>
      </trkpt>
      <trkpt lat="49.90624" lon="2.2825">
        <ele>19.9</ele>
        <time>2023-01-20T13:14:47Z</time>
      </trkpt>
      <trkpt lat="49.90625" lon="2.28249">
        <ele>19.9</ele>
        <time>2023-01-20T13:14:48Z</time>
      </trkpt>
      <trkpt lat="49.90628" lon="2.28251">
        <ele>19.9</ele>
        <time>2023-01-20T13:14:49Z</time>
      </trkpt>
      <trkpt lat="49.90629" lon="2.28251">
        <ele>19.9</ele>
        <time>2023-01-20T13:14:50Z</time>
      </trkpt>
      <trkpt lat="49.9063" lon="2.28251">
        <ele>19.9</ele>
        <time>2023-01-20T13:14:51Z</time>
      </trkpt>
      <trkpt lat="49.90631" lon="2.28249">
        <ele>19.9</ele>
        <time>2023-01-20T13:14:52Z</time>
      </trkpt>
      <trkpt lat="49.90634" lon="2.28249">
        <ele>19.9</ele>
        <time>2023-01-20T13:14:54Z</time>
      </trkpt>
      <trkpt lat="49.90635" lon="2.28249">
        <ele>19.9</ele>
        <time>2023-01-20T13:14:56Z</time>
      </trkpt>
      <trkpt lat="49.90636" lon="2.28248">
        <ele>19.9</ele>
        <time>2023-01-20T13:14:57Z</time>
      </trkpt>
      <trkpt lat="49.90636" lon="2.28247">
        <ele>19.9</ele>
        <time>2023-01-20T13:14:58Z</time>
      </trkpt>
      <trkpt lat="49.90638" lon="2.28244">
        <ele>19.9</ele>
        <time>2023-01-20T13:14:59Z</time>
      </trkpt>
      <trkpt lat="49.90639" lon="2.28243">
        <ele>19.9</ele>
        <time>2023-01-20T13:15:01Z</time>
      </trkpt>
      <trkpt lat="49.9064" lon="2.28242">
        <ele>19.9</ele>
        <time>2023-01-20T13:15:02Z</time>
      </trkpt>
      <trkpt lat="49.90641" lon="2.28241">
        <ele>19.9</ele>
        <time>2023-01-20T13:15:03Z</time>
      </trkpt>
      <trkpt lat="49.90641" lon="2.2824">
        <ele>19.9</ele>
        <time>2023-01-20T13:15:04Z</time>
      </trkpt>
      <trkpt lat="49.90641" lon="2.28235">
        <ele>19.9</ele>
        <time>2023-01-20T13:15:05Z</time>
      </trkpt>
      <trkpt lat="49.90642" lon="2.28234">
        <ele>19.9</ele>
        <time>2023-01-20T13:15:06Z</time>
      </trkpt>
      <trkpt lat="49.90642" lon="2.28233">
        <ele>19.9</ele>
        <time>2023-01-20T13:15:07Z</time>
      </trkpt>
      <trkpt lat="49.90643" lon="2.28231">
        <ele>19.9</ele>
        <time>2023-01-20T13:15:08Z</time>
      </trkpt>
      <trkpt lat="49.9064" lon="2.28223">
        <ele>19.9</ele>
        <time>2023-01-20T13:15:09Z</time>
      </trkpt>
      <trkpt lat="49.9064" lon="2.28221">
        <ele>19.9</ele>
        <time>2023-01-20T13:15:10Z</time>
      </trkpt>
      <trkpt lat="49.90641" lon="2.2822">
        <ele>19.9</ele>
        <time>2023-01-20T13:15:11Z</time>
      </trkpt>
      <trkpt lat="49.90642" lon="2.28218">
        <ele>19.9</ele>
        <time>2023-01-20T13:15:13Z</time>
      </trkpt>
      <trkpt lat="49.90643" lon="2.28217">
        <ele>19.9</ele>
        <time>2023-01-20T13:15:14Z</time>
      </trkpt>
      <trkpt lat="49.90644" lon="2.28216">
        <ele>19.9</ele>
        <time>2023-01-20T13:15:15Z</time>
      </trkpt>
      <trkpt lat="49.90645" lon="2.28215">
        <ele>19.9</ele>
        <time>2023-01-20T13:15:16Z</time>
      </trkpt>
      <trkpt lat="49.90646" lon="2.28214">
        <ele>19.9</ele>
        <time>2023-01-20T13:15:17Z</time>
      </trkpt>
      <trkpt lat="49.90646" lon="2.28212">
        <ele>19.9</ele>
        <time>2023-01-20T13:15:18Z</time>
      </trkpt>
      <trkpt lat="49.90648" lon="2.28211">
        <ele>19.9</ele>
        <time>2023-01-20T13:15:19Z</time>
      </trkpt>
      <trkpt lat="49.90649" lon="2.28212">
        <ele>19.9</ele>
        <time>2023-01-20T13:15:20Z</time>
      </trkpt>
      <trkpt lat="49.9065" lon="2.2821">
        <ele>19.9</ele>
        <time>2023-01-20T13:15:21Z</time>
      </trkpt>
      <trkpt lat="49.9065" lon="2.28207">
        <ele>19.9</ele>
        <time>2023-01-20T13:15:23Z</time>
      </trkpt>
      <trkpt lat="49.90649" lon="2.28206">
        <ele>19.9</ele>
        <time>2023-01-20T13:15:24Z</time>
      </trkpt>
      <trkpt lat="49.90649" lon="2.28204">
        <ele>19.9</ele>
        <time>2023-01-20T13:15:25Z</time>
      </trkpt>
      <trkpt lat="49.90649" lon="2.28203">
        <ele>19.9</ele>
        <time>2023-01-20T13:15:26Z</time>
      </trkpt>
      <trkpt lat="49.90649" lon="2.28202">
        <ele>19.9</ele>
        <time>2023-01-20T13:15:27Z</time>
      </trkpt>
      <trkpt lat="49.9065" lon="2.282">
        <ele>19.9</ele>
        <time>2023-01-20T13:15:28Z</time>
      </trkpt>
      <trkpt lat="49.90651" lon="2.28198">
        <ele>19.9</ele>
        <time>2023-01-20T13:15:29Z</time>
      </trkpt>
      <trkpt lat="49.90651" lon="2.28197">
        <ele>19.9</ele>
        <time>2023-01-20T13:15:31Z</time>
      </trkpt>
      <trkpt lat="49.90651" lon="2.28195">
        <ele>19.9</ele>
        <time>2023-01-20T13:15:32Z</time>
      </trkpt>
      <trkpt lat="49.90652" lon="2.28194">
        <ele>19.9</ele>
        <time>2023-01-20T13:15:33Z</time>
      </trkpt>
      <trkpt lat="49.90653" lon="2.28192">
        <ele>19.9</ele>
        <time>2023-01-20T13:15:34Z</time>
      </trkpt>
      <trkpt lat="49.90654" lon="2.28191">
        <ele>20</ele>
        <time>2023-01-20T13:15:35Z</time>
      </trkpt>
      <trkpt lat="49.90654" lon="2.28189">
        <ele>20</ele>
        <time>2023-01-20T13:15:36Z</time>
      </trkpt>
      <trkpt lat="49.90655" lon="2.28188">
        <ele>20</ele>
        <time>2023-01-20T13:15:37Z</time>
      </trkpt>
      <trkpt lat="49.90657" lon="2.28187">
        <ele>20</ele>
        <time>2023-01-20T13:15:39Z</time>
      </trkpt>
      <trkpt lat="49.90658" lon="2.28185">
        <ele>20</ele>
        <time>2023-01-20T13:15:40Z</time>
      </trkpt>
      <trkpt lat="49.90659" lon="2.28184">
        <ele>20</ele>
        <time>2023-01-20T13:15:41Z</time>
      </trkpt>
      <trkpt lat="49.9066" lon="2.28183">
        <ele>20</ele>
        <time>2023-01-20T13:15:42Z</time>
      </trkpt>
      <trkpt lat="49.90661" lon="2.28182">
        <ele>20</ele>
        <time>2023-01-20T13:15:43Z</time>
      </trkpt>
      <trkpt lat="49.90664" lon="2.28178">
        <ele>20.1</ele>
        <time>2023-01-20T13:15:44Z</time>
      </trkpt>
      <trkpt lat="49.90665" lon="2.28178">
        <ele>20.1</ele>
        <time>2023-01-20T13:15:46Z</time>
      </trkpt>
      <trkpt lat="49.90666" lon="2.28177">
        <ele>20.1</ele>
        <time>2023-01-20T13:15:47Z</time>
      </trkpt>
      <trkpt lat="49.90667" lon="2.28176">
        <ele>20.1</ele>
        <time>2023-01-20T13:15:48Z</time>
      </trkpt>
      <trkpt lat="49.90667" lon="2.28175">
        <ele>20.1</ele>
        <time>2023-01-20T13:15:49Z</time>
      </trkpt>
      <trkpt lat="49.90669" lon="2.28174">
        <ele>20.1</ele>
        <time>2023-01-20T13:15:50Z</time>
      </trkpt>
      <trkpt lat="49.9067" lon="2.28173">
        <ele>20.2</ele>
        <time>2023-01-20T13:15:51Z</time>
      </trkpt>
      <trkpt lat="49.90671" lon="2.28172">
        <ele>20.2</ele>
        <time>2023-01-20T13:15:52Z</time>
      </trkpt>
      <trkpt lat="49.90672" lon="2.28172">
        <ele>20.2</ele>
        <time>2023-01-20T13:15:53Z</time>
      </trkpt>
      <trkpt lat="49.90674" lon="2.28171">
        <ele>20.2</ele>
        <time>2023-01-20T13:15:55Z</time>
      </trkpt>
      <trkpt lat="49.90674" lon="2.28171">
        <ele>20.2</ele>
        <time>2023-01-20T13:15:56Z</time>
      </trkpt>
      <trkpt lat="49.90676" lon="2.2817">
        <ele>20.2</ele>
        <time>2023-01-20T13:15:57Z</time>
      </trkpt>
      <trkpt lat="49.90677" lon="2.28169">
        <ele>20.2</ele>
        <time>2023-01-20T13:15:58Z</time>
      </trkpt>
      <trkpt lat="49.90678" lon="2.28168">
        <ele>20.3</ele>
        <time>2023-01-20T13:15:59Z</time>
      </trkpt>
      <trkpt lat="49.90679" lon="2.28167">
        <ele>20.3</ele>
        <time>2023-01-20T13:16:00Z</time>
      </trkpt>
      <trkpt lat="49.9068" lon="2.28167">
        <ele>20.3</ele>
        <time>2023-01-20T13:16:01Z</time>
      </trkpt>
      <trkpt lat="49.90681" lon="2.28166">
        <ele>20.3</ele>
        <time>2023-01-20T13:16:02Z</time>
      </trkpt>
      <trkpt lat="49.90682" lon="2.28165">
        <ele>20.3</ele>
        <time>2023-01-20T13:16:04Z</time>
      </trkpt>
      <trkpt lat="49.90684" lon="2.28164">
        <ele>20.3</ele>
        <time>2023-01-20T13:16:05Z</time>
      </trkpt>
      <trkpt lat="49.90684" lon="2.28164">
        <ele>20.3</ele>
        <time>2023-01-20T13:16:06Z</time>
      </trkpt>
      <trkpt lat="49.90685" lon="2.28163">
        <ele>20.3</ele>
        <time>2023-01-20T13:16:07Z</time>
      </trkpt>
      <trkpt lat="49.90687" lon="2.28163">
        <ele>20.4</ele>
        <time>2023-01-20T13:16:08Z</time>
      </trkpt>
      <trkpt lat="49.90688" lon="2.28163">
        <ele>20.4</ele>
        <time>2023-01-20T13:16:09Z</time>
      </trkpt>
      <trkpt lat="49.9069" lon="2.28162">
        <ele>20.4</ele>
        <time>2023-01-20T13:16:10Z</time>
      </trkpt>
      <trkpt lat="49.90691" lon="2.28162">
        <ele>20.4</ele>
        <time>2023-01-20T13:16:12Z</time>
      </trkpt>
      <trkpt lat="49.90693" lon="2.28161">
        <ele>20.4</ele>
        <time>2023-01-20T13:16:13Z</time>
      </trkpt>
      <trkpt lat="49.90694" lon="2.28161">
        <ele>20.4</ele>
        <time>2023-01-20T13:16:14Z</time>
      </trkpt>
      <trkpt lat="49.90694" lon="2.28163">
        <ele>20.4</ele>
        <time>2023-01-20T13:16:15Z</time>
      </trkpt>
      <trkpt lat="49.90695" lon="2.28162">
        <ele>20.4</ele>
        <time>2023-01-20T13:16:16Z</time>
      </trkpt>
      <trkpt lat="49.90696" lon="2.28162">
        <ele>20.4</ele>
        <time>2023-01-20T13:16:17Z</time>
      </trkpt>
      <trkpt lat="49.90698" lon="2.28162">
        <ele>20.4</ele>
        <time>2023-01-20T13:16:18Z</time>
      </trkpt>
      <trkpt lat="49.90699" lon="2.28162">
        <ele>20.4</ele>
        <time>2023-01-20T13:16:19Z</time>
      </trkpt>
      <trkpt lat="49.90701" lon="2.28162">
        <ele>20.4</ele>
        <time>2023-01-20T13:16:20Z</time>
      </trkpt>
      <trkpt lat="49.90702" lon="2.28162">
        <ele>20.4</ele>
        <time>2023-01-20T13:16:22Z</time>
      </trkpt>
      <trkpt lat="49.90703" lon="2.28162">
        <ele>20.4</ele>
        <time>2023-01-20T13:16:23Z</time>
      </trkpt>
      <trkpt lat="49.90705" lon="2.28162">
        <ele>20.4</ele>
        <time>2023-01-20T13:16:24Z</time>
      </trkpt>
      <trkpt lat="49.90707" lon="2.28162">
        <ele>20.4</ele>
        <time>2023-01-20T13:16:25Z</time>
      </trkpt>
      <trkpt lat="49.90708" lon="2.28162">
        <ele>20.4</ele>
        <time>2023-01-20T13:16:26Z</time>
      </trkpt>
      <trkpt lat="49.90708" lon="2.28162">
        <ele>20.4</ele>
        <time>2023-01-20T13:16:27Z</time>
      </trkpt>
      <trkpt lat="49.90709" lon="2.28162">
        <ele>20.4</ele>
        <time>2023-01-20T13:16:28Z</time>
      </trkpt>
      <trkpt lat="49.90711" lon="2.28162">
        <ele>20.4</ele>
        <time>2023-01-20T13:16:29Z</time>
      </trkpt>
      <trkpt lat="49.90713" lon="2.28161">
        <ele>20.4</ele>
        <time>2023-01-20T13:16:31Z</time>
      </trkpt>
      <trkpt lat="49.90715" lon="2.2816">
        <ele>20.4</ele>
        <time>2023-01-20T13:16:32Z</time>
      </trkpt>
      <trkpt lat="49.90716" lon="2.2816">
        <ele>20.4</ele>
        <time>2023-01-20T13:16:33Z</time>
      </trkpt>
      <trkpt lat="49.90717" lon="2.28159">
        <ele>20.4</ele>
        <time>2023-01-20T13:16:34Z</time>
      </trkpt>
      <trkpt lat="49.90718" lon="2.28159">
        <ele>20.4</ele>
        <time>2023-01-20T13:16:35Z</time>
      </trkpt>
      <trkpt lat="49.90719" lon="2.28159">
        <ele>20.4</ele>
        <time>2023-01-20T13:16:36Z</time>
      </trkpt>
      <trkpt lat="49.9072" lon="2.28159">
        <ele>20.4</ele>
        <time>2023-01-20T13:16:38Z</time>
      </trkpt>
      <trkpt lat="49.90722" lon="2.28158">
        <ele>20.4</ele>
        <time>2023-01-20T13:16:39Z</time>
      </trkpt>
      <trkpt lat="49.90723" lon="2.28158">
        <ele>20.4</ele>
        <time>2023-01-20T13:16:40Z</time>
      </trkpt>
      <trkpt lat="49.90724" lon="2.28158">
        <ele>20.4</ele>
        <time>2023-01-20T13:16:41Z</time>
      </trkpt>
      <trkpt lat="49.90726" lon="2.28158">
        <ele>20.4</ele>
        <time>2023-01-20T13:16:42Z</time>
      </trkpt>
      <trkpt lat="49.90727" lon="2.28158">
        <ele>20.4</ele>
        <time>2023-01-20T13:16:43Z</time>
      </trkpt>
      <trkpt lat="49.90729" lon="2.28157">
        <ele>20.4</ele>
        <time>2023-01-20T13:16:44Z</time>
      </trkpt>
      <trkpt lat="49.90731" lon="2.28157">
        <ele>20.4</ele>
        <time>2023-01-20T13:16:46Z</time>
      </trkpt>
      <trkpt lat="49.90731" lon="2.28157">
        <ele>20.3</ele>
        <time>2023-01-20T13:16:47Z</time>
      </trkpt>
      <trkpt lat="49.90733" lon="2.28156">
        <ele>20.3</ele>
        <time>2023-01-20T13:16:48Z</time>
      </trkpt>
      <trkpt lat="49.90734" lon="2.28156">
        <ele>20.3</ele>
        <time>2023-01-20T13:16:49Z</time>
      </trkpt>
      <trkpt lat="49.90736" lon="2.28156">
        <ele>20.3</ele>
        <time>2023-01-20T13:16:50Z</time>
      </trkpt>
      <trkpt lat="49.90737" lon="2.28156">
        <ele>20.3</ele>
        <time>2023-01-20T13:16:51Z</time>
      </trkpt>
      <trkpt lat="49.90739" lon="2.28156">
        <ele>20.3</ele>
        <time>2023-01-20T13:16:52Z</time>
      </trkpt>
      <trkpt lat="49.9074" lon="2.28156">
        <ele>20.3</ele>
        <time>2023-01-20T13:16:54Z</time>
      </trkpt>
      <trkpt lat="49.90742" lon="2.28156">
        <ele>20.3</ele>
        <time>2023-01-20T13:16:55Z</time>
      </trkpt>
      <trkpt lat="49.90742" lon="2.28156">
        <ele>20.3</ele>
        <time>2023-01-20T13:16:56Z</time>
      </trkpt>
      <trkpt lat="49.90743" lon="2.28156">
        <ele>20.3</ele>
        <time>2023-01-20T13:16:57Z</time>
      </trkpt>
      <trkpt lat="49.90744" lon="2.28155">
        <ele>20.3</ele>
        <time>2023-01-20T13:16:58Z</time>
      </trkpt>
      <trkpt lat="49.90745" lon="2.28155">
        <ele>20.3</ele>
        <time>2023-01-20T13:16:59Z</time>
      </trkpt>
      <trkpt lat="49.90747" lon="2.28154">
        <ele>20.3</ele>
        <time>2023-01-20T13:17:00Z</time>
      </trkpt>
      <trkpt lat="49.90747" lon="2.28153">
        <ele>20.3</ele>
        <time>2023-01-20T13:17:01Z</time>
      </trkpt>
      <trkpt lat="49.90749" lon="2.28151">
        <ele>20.3</ele>
        <time>2023-01-20T13:17:02Z</time>
      </trkpt>
      <trkpt lat="49.9075" lon="2.28149">
        <ele>20.3</ele>
        <time>2023-01-20T13:17:04Z</time>
      </trkpt>
      <trkpt lat="49.90751" lon="2.28148">
        <ele>20.3</ele>
        <time>2023-01-20T13:17:05Z</time>
      </trkpt>
      <trkpt lat="49.90752" lon="2.28147">
        <ele>20.3</ele>
        <time>2023-01-20T13:17:06Z</time>
      </trkpt>
      <trkpt lat="49.90752" lon="2.28147">
        <ele>20.3</ele>
        <time>2023-01-20T13:17:07Z</time>
      </trkpt>
      <trkpt lat="49.90753" lon="2.28146">
        <ele>20.3</ele>
        <time>2023-01-20T13:17:08Z</time>
      </trkpt>
      <trkpt lat="49.90754" lon="2.28145">
        <ele>20.3</ele>
        <time>2023-01-20T13:17:09Z</time>
      </trkpt>
      <trkpt lat="49.90754" lon="2.28145">
        <ele>20.3</ele>
        <time>2023-01-20T13:17:10Z</time>
      </trkpt>
      <trkpt lat="49.90755" lon="2.28143">
        <ele>20.3</ele>
        <time>2023-01-20T13:17:11Z</time>
      </trkpt>
      <trkpt lat="49.90756" lon="2.28142">
        <ele>20.3</ele>
        <time>2023-01-20T13:17:12Z</time>
      </trkpt>
      <trkpt lat="49.90757" lon="2.2814">
        <ele>20.3</ele>
        <time>2023-01-20T13:17:13Z</time>
      </trkpt>
      <trkpt lat="49.90758" lon="2.28139">
        <ele>20.3</ele>
        <time>2023-01-20T13:17:14Z</time>
      </trkpt>
      <trkpt lat="49.90759" lon="2.28137">
        <ele>20.3</ele>
        <time>2023-01-20T13:17:16Z</time>
      </trkpt>
      <trkpt lat="49.9076" lon="2.28136">
        <ele>20.3</ele>
        <time>2023-01-20T13:17:17Z</time>
      </trkpt>
      <trkpt lat="49.9076" lon="2.28134">
        <ele>20.3</ele>
        <time>2023-01-20T13:17:18Z</time>
      </trkpt>
      <trkpt lat="49.90761" lon="2.28132">
        <ele>20.3</ele>
        <time>2023-01-20T13:17:19Z</time>
      </trkpt>
      <trkpt lat="49.90762" lon="2.2813">
        <ele>20.3</ele>
        <time>2023-01-20T13:17:20Z</time>
      </trkpt>
      <trkpt lat="49.90763" lon="2.2813">
        <ele>20.3</ele>
        <time>2023-01-20T13:17:21Z</time>
      </trkpt>
      <trkpt lat="49.90764" lon="2.28128">
        <ele>20.3</ele>
        <time>2023-01-20T13:17:22Z</time>
      </trkpt>
      <trkpt lat="49.90764" lon="2.28125">
        <ele>20.3</ele>
        <time>2023-01-20T13:17:24Z</time>
      </trkpt>
      <trkpt lat="49.90764" lon="2.28123">
        <ele>20.3</ele>
        <time>2023-01-20T13:17:25Z</time>
      </trkpt>
      <trkpt lat="49.90765" lon="2.2812">
        <ele>20.3</ele>
        <time>2023-01-20T13:17:26Z</time>
      </trkpt>
      <trkpt lat="49.90765" lon="2.28117">
        <ele>20.3</ele>
        <time>2023-01-20T13:17:27Z</time>
      </trkpt>
      <trkpt lat="49.90766" lon="2.28116">
        <ele>20.3</ele>
        <time>2023-01-20T13:17:28Z</time>
      </trkpt>
      <trkpt lat="49.90766" lon="2.28114">
        <ele>20.3</ele>
        <time>2023-01-20T13:17:29Z</time>
      </trkpt>
      <trkpt lat="49.90767" lon="2.2811">
        <ele>20.3</ele>
        <time>2023-01-20T13:17:30Z</time>
      </trkpt>
      <trkpt lat="49.90767" lon="2.28109">
        <ele>20.3</ele>
        <time>2023-01-20T13:17:32Z</time>
      </trkpt>
      <trkpt lat="49.90767" lon="2.28107">
        <ele>20.3</ele>
        <time>2023-01-20T13:17:33Z</time>
      </trkpt>
      <trkpt lat="49.90768" lon="2.28106">
        <ele>20.3</ele>
        <time>2023-01-20T13:17:34Z</time>
      </trkpt>
      <trkpt lat="49.90768" lon="2.28104">
        <ele>20.3</ele>
        <time>2023-01-20T13:17:35Z</time>
      </trkpt>
      <trkpt lat="49.90768" lon="2.281">
        <ele>20.3</ele>
        <time>2023-01-20T13:17:36Z</time>
      </trkpt>
      <trkpt lat="49.90768" lon="2.28099">
        <ele>20.3</ele>
        <time>2023-01-20T13:17:37Z</time>
      </trkpt>
      <trkpt lat="49.90769" lon="2.28097">
        <ele>20.3</ele>
        <time>2023-01-20T13:17:38Z</time>
      </trkpt>
      <trkpt lat="49.90769" lon="2.28095">
        <ele>20.3</ele>
        <time>2023-01-20T13:17:39Z</time>
      </trkpt>
      <trkpt lat="49.90769" lon="2.28093">
        <ele>20.3</ele>
        <time>2023-01-20T13:17:41Z</time>
      </trkpt>
      <trkpt lat="49.9077" lon="2.28092">
        <ele>20.3</ele>
        <time>2023-01-20T13:17:42Z</time>
      </trkpt>
      <trkpt lat="49.9077" lon="2.2809">
        <ele>20.3</ele>
        <time>2023-01-20T13:17:43Z</time>
      </trkpt>
      <trkpt lat="49.9077" lon="2.28088">
        <ele>20.3</ele>
        <time>2023-01-20T13:17:44Z</time>
      </trkpt>
      <trkpt lat="49.90769" lon="2.28085">
        <ele>20.3</ele>
        <time>2023-01-20T13:17:45Z</time>
      </trkpt>
      <trkpt lat="49.9077" lon="2.28085">
        <ele>20.3</ele>
        <time>2023-01-20T13:17:46Z</time>
      </trkpt>
      <trkpt lat="49.9077" lon="2.28084">
        <ele>20.3</ele>
        <time>2023-01-20T13:17:47Z</time>
      </trkpt>
      <trkpt lat="49.9077" lon="2.28082">
        <ele>20.3</ele>
        <time>2023-01-20T13:17:49Z</time>
      </trkpt>
      <trkpt lat="49.90771" lon="2.2808">
        <ele>20.3</ele>
        <time>2023-01-20T13:17:50Z</time>
      </trkpt>
      <trkpt lat="49.90771" lon="2.28079">
        <ele>20.3</ele>
        <time>2023-01-20T13:17:51Z</time>
      </trkpt>
      <trkpt lat="49.90771" lon="2.28077">
        <ele>20.3</ele>
        <time>2023-01-20T13:17:53Z</time>
      </trkpt>
      <trkpt lat="49.90771" lon="2.28076">
        <ele>20.3</ele>
        <time>2023-01-20T13:17:54Z</time>
      </trkpt>
      <trkpt lat="49.90771" lon="2.28075">
        <ele>20.3</ele>
        <time>2023-01-20T13:17:55Z</time>
      </trkpt>
      <trkpt lat="49.90771" lon="2.28073">
        <ele>20.3</ele>
        <time>2023-01-20T13:17:57Z</time>
      </trkpt>
      <trkpt lat="49.90772" lon="2.28072">
        <ele>20.3</ele>
        <time>2023-01-20T13:17:58Z</time>
      </trkpt>
      <trkpt lat="49.90771" lon="2.28071">
        <ele>20.3</ele>
        <time>2023-01-20T13:18:00Z</time>
      </trkpt>
      <trkpt lat="49.90771" lon="2.28072">
        <ele>20.3</ele>
        <time>2023-01-20T13:18:01Z</time>
      </trkpt>
      <trkpt lat="49.90771" lon="2.28072">
        <ele>20.3</ele>
        <time>2023-01-20T13:18:03Z</time>
      </trkpt>
      <trkpt lat="49.90771" lon="2.28072">
        <ele>20.3</ele>
        <time>2023-01-20T13:18:04Z</time>
      </trkpt>
      <trkpt lat="49.90771" lon="2.28072">
        <ele>20.3</ele>
        <time>2023-01-20T13:18:05Z</time>
      </trkpt>
      <trkpt lat="49.90771" lon="2.28072">
        <ele>20.3</ele>
        <time>2023-01-20T13:18:07Z</time>
      </trkpt>
      <trkpt lat="49.90771" lon="2.28072">
        <ele>20.3</ele>
        <time>2023-01-20T13:18:08Z</time>
      </trkpt>
      <trkpt lat="49.90771" lon="2.28072">
        <ele>20.3</ele>
        <time>2023-01-20T13:18:10Z</time>
      </trkpt>
      <trkpt lat="49.90771" lon="2.28072">
        <ele>20.3</ele>
        <time>2023-01-20T13:18:11Z</time>
      </trkpt>
      <trkpt lat="49.90771" lon="2.28072">
        <ele>20.3</ele>
        <time>2023-01-20T13:18:13Z</time>
      </trkpt>
      <trkpt lat="49.90771" lon="2.28073">
        <ele>20.3</ele>
        <time>2023-01-20T13:18:14Z</time>
      </trkpt>
      <trkpt lat="49.90771" lon="2.28073">
        <ele>20.3</ele>
        <time>2023-01-20T13:18:15Z</time>
      </trkpt>
      <trkpt lat="49.90771" lon="2.28073">
        <ele>20.3</ele>
        <time>2023-01-20T13:18:16Z</time>
      </trkpt>
      <trkpt lat="49.90771" lon="2.28073">
        <ele>20.3</ele>
        <time>2023-01-20T13:18:17Z</time>
      </trkpt>
      <trkpt lat="49.90771" lon="2.28073">
        <ele>20.3</ele>
        <time>2023-01-20T13:18:18Z</time>
      </trkpt>
      <trkpt lat="49.90771" lon="2.28073">
        <ele>20.3</ele>
        <time>2023-01-20T13:18:19Z</time>
      </trkpt>
      <trkpt lat="49.90771" lon="2.28073">
        <ele>20.3</ele>
        <time>2023-01-20T13:18:20Z</time>
      </trkpt>
      <trkpt lat="49.90771" lon="2.28073">
        <ele>20.3</ele>
        <time>2023-01-20T13:18:21Z</time>
      </trkpt>
      <trkpt lat="49.9077" lon="2.28073">
        <ele>20.3</ele>
        <time>2023-01-20T13:18:22Z</time>
      </trkpt>
      <trkpt lat="49.90772" lon="2.28071">
        <ele>20.3</ele>
        <time>2023-01-20T13:18:23Z</time>
      </trkpt>
      <trkpt lat="49.90772" lon="2.28071">
        <ele>20.3</ele>
        <time>2023-01-20T13:18:25Z</time>
      </trkpt>
      <trkpt lat="49.90773" lon="2.28073">
        <ele>20.3</ele>
        <time>2023-01-20T13:18:26Z</time>
      </trkpt>
      <trkpt lat="49.90774" lon="2.28075">
        <ele>20.3</ele>
        <time>2023-01-20T13:18:28Z</time>
      </trkpt>
      <trkpt lat="49.90774" lon="2.28076">
        <ele>20.3</ele>
        <time>2023-01-20T13:18:29Z</time>
      </trkpt>
      <trkpt lat="49.90775" lon="2.28077">
        <ele>20.3</ele>
        <time>2023-01-20T13:18:30Z</time>
      </trkpt>
      <trkpt lat="49.90776" lon="2.28077">
        <ele>20.3</ele>
        <time>2023-01-20T13:18:32Z</time>
      </trkpt>
      <trkpt lat="49.90776" lon="2.28078">
        <ele>20.3</ele>
        <time>2023-01-20T13:18:33Z</time>
      </trkpt>
      <trkpt lat="49.90777" lon="2.28078">
        <ele>20.3</ele>
        <time>2023-01-20T13:18:34Z</time>
      </trkpt>
      <trkpt lat="49.90778" lon="2.28079">
        <ele>20.3</ele>
        <time>2023-01-20T13:18:36Z</time>
      </trkpt>
      <trkpt lat="49.90779" lon="2.2808">
        <ele>20.3</ele>
        <time>2023-01-20T13:18:37Z</time>
      </trkpt>
      <trkpt lat="49.90779" lon="2.2808">
        <ele>20.3</ele>
        <time>2023-01-20T13:18:38Z</time>
      </trkpt>
      <trkpt lat="49.9078" lon="2.28081">
        <ele>20.3</ele>
        <time>2023-01-20T13:18:39Z</time>
      </trkpt>
      <trkpt lat="49.90782" lon="2.28083">
        <ele>20.3</ele>
        <time>2023-01-20T13:18:40Z</time>
      </trkpt>
      <trkpt lat="49.90783" lon="2.28083">
        <ele>20.3</ele>
        <time>2023-01-20T13:18:42Z</time>
      </trkpt>
      <trkpt lat="49.90784" lon="2.28084">
        <ele>20.3</ele>
        <time>2023-01-20T13:18:43Z</time>
      </trkpt>
      <trkpt lat="49.90785" lon="2.28084">
        <ele>20.3</ele>
        <time>2023-01-20T13:18:44Z</time>
      </trkpt>
      <trkpt lat="49.90786" lon="2.28086">
        <ele>20.3</ele>
        <time>2023-01-20T13:18:45Z</time>
      </trkpt>
      <trkpt lat="49.90787" lon="2.28087">
        <ele>20.3</ele>
        <time>2023-01-20T13:18:46Z</time>
      </trkpt>
      <trkpt lat="49.90788" lon="2.28088">
        <ele>20.3</ele>
        <time>2023-01-20T13:18:47Z</time>
      </trkpt>
      <trkpt lat="49.90789" lon="2.28089">
        <ele>20.3</ele>
        <time>2023-01-20T13:18:49Z</time>
      </trkpt>
      <trkpt lat="49.9079" lon="2.28091">
        <ele>20.3</ele>
        <time>2023-01-20T13:18:50Z</time>
      </trkpt>
      <trkpt lat="49.90791" lon="2.28092">
        <ele>20.3</ele>
        <time>2023-01-20T13:18:51Z</time>
      </trkpt>
      <trkpt lat="49.90792" lon="2.28092">
        <ele>20.3</ele>
        <time>2023-01-20T13:18:52Z</time>
      </trkpt>
      <trkpt lat="49.90793" lon="2.28093">
        <ele>20.3</ele>
        <time>2023-01-20T13:18:53Z</time>
      </trkpt>
      <trkpt lat="49.90795" lon="2.28095">
        <ele>20.3</ele>
        <time>2023-01-20T13:18:55Z</time>
      </trkpt>
      <trkpt lat="49.90797" lon="2.28095">
        <ele>20.3</ele>
        <time>2023-01-20T13:18:56Z</time>
      </trkpt>
      <trkpt lat="49.90797" lon="2.28097">
        <ele>20.3</ele>
        <time>2023-01-20T13:18:57Z</time>
      </trkpt>
      <trkpt lat="49.90798" lon="2.28099">
        <ele>20.3</ele>
        <time>2023-01-20T13:18:58Z</time>
      </trkpt>
      <trkpt lat="49.90798" lon="2.281">
        <ele>20.3</ele>
        <time>2023-01-20T13:18:59Z</time>
      </trkpt>
      <trkpt lat="49.90799" lon="2.28101">
        <ele>20.3</ele>
        <time>2023-01-20T13:19:00Z</time>
      </trkpt>
      <trkpt lat="49.908" lon="2.28101">
        <ele>20.3</ele>
        <time>2023-01-20T13:19:02Z</time>
      </trkpt>
      <trkpt lat="49.90801" lon="2.28102">
        <ele>20.3</ele>
        <time>2023-01-20T13:19:03Z</time>
      </trkpt>
      <trkpt lat="49.90802" lon="2.28103">
        <ele>20.3</ele>
        <time>2023-01-20T13:19:04Z</time>
      </trkpt>
      <trkpt lat="49.90803" lon="2.28105">
        <ele>20.3</ele>
        <time>2023-01-20T13:19:05Z</time>
      </trkpt>
      <trkpt lat="49.90804" lon="2.28106">
        <ele>20.3</ele>
        <time>2023-01-20T13:19:06Z</time>
      </trkpt>
      <trkpt lat="49.90805" lon="2.28107">
        <ele>20.3</ele>
        <time>2023-01-20T13:19:07Z</time>
      </trkpt>
      <trkpt lat="49.90805" lon="2.28108">
        <ele>20.3</ele>
        <time>2023-01-20T13:19:08Z</time>
      </trkpt>
      <trkpt lat="49.90806" lon="2.2811">
        <ele>20.3</ele>
        <time>2023-01-20T13:19:09Z</time>
      </trkpt>
      <trkpt lat="49.90808" lon="2.28112">
        <ele>20.3</ele>
        <time>2023-01-20T13:19:10Z</time>
      </trkpt>
      <trkpt lat="49.90809" lon="2.28113">
        <ele>20.3</ele>
        <time>2023-01-20T13:19:11Z</time>
      </trkpt>
      <trkpt lat="49.90809" lon="2.28115">
        <ele>20.3</ele>
        <time>2023-01-20T13:19:13Z</time>
      </trkpt>
      <trkpt lat="49.9081" lon="2.28116">
        <ele>20.3</ele>
        <time>2023-01-20T13:19:14Z</time>
      </trkpt>
      <trkpt lat="49.90811" lon="2.28117">
        <ele>20.3</ele>
        <time>2023-01-20T13:19:15Z</time>
      </trkpt>
      <trkpt lat="49.90812" lon="2.28118">
        <ele>20.3</ele>
        <time>2023-01-20T13:19:16Z</time>
      </trkpt>
      <trkpt lat="49.90812" lon="2.2812">
        <ele>20.3</ele>
        <time>2023-01-20T13:19:17Z</time>
      </trkpt>
      <trkpt lat="49.90813" lon="2.28121">
        <ele>20.3</ele>
        <time>2023-01-20T13:19:18Z</time>
      </trkpt>
      <trkpt lat="49.90814" lon="2.28123">
        <ele>20.3</ele>
        <time>2023-01-20T13:19:20Z</time>
      </trkpt>
      <trkpt lat="49.90815" lon="2.28126">
        <ele>20.3</ele>
        <time>2023-01-20T13:19:21Z</time>
      </trkpt>
      <trkpt lat="49.90816" lon="2.28126">
        <ele>20.4</ele>
        <time>2023-01-20T13:19:22Z</time>
      </trkpt>
      <trkpt lat="49.90816" lon="2.28127">
        <ele>20.4</ele>
        <time>2023-01-20T13:19:23Z</time>
      </trkpt>
      <trkpt lat="49.90817" lon="2.28129">
        <ele>20.4</ele>
        <time>2023-01-20T13:19:24Z</time>
      </trkpt>
      <trkpt lat="49.90818" lon="2.2813">
        <ele>20.4</ele>
        <time>2023-01-20T13:19:25Z</time>
      </trkpt>
      <trkpt lat="49.9082" lon="2.28131">
        <ele>20.4</ele>
        <time>2023-01-20T13:19:26Z</time>
      </trkpt>
      <trkpt lat="49.90821" lon="2.28131">
        <ele>20.4</ele>
        <time>2023-01-20T13:19:27Z</time>
      </trkpt>
      <trkpt lat="49.90822" lon="2.28131">
        <ele>20.4</ele>
        <time>2023-01-20T13:19:29Z</time>
      </trkpt>
      <trkpt lat="49.90823" lon="2.28131">
        <ele>20.4</ele>
        <time>2023-01-20T13:19:30Z</time>
      </trkpt>
      <trkpt lat="49.90825" lon="2.28131">
        <ele>20.4</ele>
        <time>2023-01-20T13:19:31Z</time>
      </trkpt>
      <trkpt lat="49.90826" lon="2.28131">
        <ele>20.4</ele>
        <time>2023-01-20T13:19:32Z</time>
      </trkpt>
      <trkpt lat="49.90827" lon="2.28131">
        <ele>20.4</ele>
        <time>2023-01-20T13:19:34Z</time>
      </trkpt>
      <trkpt lat="49.90828" lon="2.2813">
        <ele>20.4</ele>
        <time>2023-01-20T13:19:35Z</time>
      </trkpt>
      <trkpt lat="49.9083" lon="2.28129">
        <ele>20.4</ele>
        <time>2023-01-20T13:19:37Z</time>
      </trkpt>
      <trkpt lat="49.9083" lon="2.28127">
        <ele>20.4</ele>
        <time>2023-01-20T13:19:38Z</time>
      </trkpt>
      <trkpt lat="49.90831" lon="2.28126">
        <ele>20.4</ele>
        <time>2023-01-20T13:19:40Z</time>
      </trkpt>
      <trkpt lat="49.9083" lon="2.28125">
        <ele>20.4</ele>
        <time>2023-01-20T13:19:41Z</time>
      </trkpt>
      <trkpt lat="49.9083" lon="2.28125">
        <ele>20.4</ele>
        <time>2023-01-20T13:19:42Z</time>
      </trkpt>
      <trkpt lat="49.90829" lon="2.28125">
        <ele>20.4</ele>
        <time>2023-01-20T13:19:43Z</time>
      </trkpt>
      <trkpt lat="49.90829" lon="2.28125">
        <ele>20.4</ele>
        <time>2023-01-20T13:19:44Z</time>
      </trkpt>
      <trkpt lat="49.90829" lon="2.28126">
        <ele>20.4</ele>
        <time>2023-01-20T13:19:46Z</time>
      </trkpt>
      <trkpt lat="49.90828" lon="2.28126">
        <ele>20.4</ele>
        <time>2023-01-20T13:19:47Z</time>
      </trkpt>
      <trkpt lat="49.90828" lon="2.28125">
        <ele>20.4</ele>
        <time>2023-01-20T13:19:49Z</time>
      </trkpt>
      <trkpt lat="49.90828" lon="2.28125">
        <ele>20.4</ele>
        <time>2023-01-20T13:19:50Z</time>
      </trkpt>
      <trkpt lat="49.90828" lon="2.28125">
        <ele>20.4</ele>
        <time>2023-01-20T13:19:51Z</time>
      </trkpt>
      <trkpt lat="49.90828" lon="2.28125">
        <ele>20.4</ele>
        <time>2023-01-20T13:19:53Z</time>
      </trkpt>
      <trkpt lat="49.90828" lon="2.28125">
        <ele>20.4</ele>
        <time>2023-01-20T13:19:54Z</time>
      </trkpt>
      <trkpt lat="49.90828" lon="2.28125">
        <ele>20.4</ele>
        <time>2023-01-20T13:19:55Z</time>
      </trkpt>
      <trkpt lat="49.90828" lon="2.28124">
        <ele>20.4</ele>
        <time>2023-01-20T13:19:57Z</time>
      </trkpt>
      <trkpt lat="49.90828" lon="2.28125">
        <ele>20.4</ele>
        <time>2023-01-20T13:19:58Z</time>
      </trkpt>
      <trkpt lat="49.90828" lon="2.28125">
        <ele>20.4</ele>
        <time>2023-01-20T13:19:59Z</time>
      </trkpt>
      <trkpt lat="49.90828" lon="2.28125">
        <ele>20.4</ele>
        <time>2023-01-20T13:20:00Z</time>
      </trkpt>
      <trkpt lat="49.90828" lon="2.28126">
        <ele>20.4</ele>
        <time>2023-01-20T13:20:01Z</time>
      </trkpt>
      <trkpt lat="49.90828" lon="2.28126">
        <ele>20.4</ele>
        <time>2023-01-20T13:20:02Z</time>
      </trkpt>
      <trkpt lat="49.90828" lon="2.28126">
        <ele>20.4</ele>
        <time>2023-01-20T13:20:03Z</time>
      </trkpt>
      <trkpt lat="49.90828" lon="2.28126">
        <ele>20.4</ele>
        <time>2023-01-20T13:20:04Z</time>
      </trkpt>
      <trkpt lat="49.90828" lon="2.28126">
        <ele>20.4</ele>
        <time>2023-01-20T13:20:05Z</time>
      </trkpt>
      <trkpt lat="49.90828" lon="2.28126">
        <ele>20.4</ele>
        <time>2023-01-20T13:20:06Z</time>
      </trkpt>
      <trkpt lat="49.90828" lon="2.28126">
        <ele>20.4</ele>
        <time>2023-01-20T13:20:07Z</time>
      </trkpt>
      <trkpt lat="49.90828" lon="2.28126">
        <ele>20.4</ele>
        <time>2023-01-20T13:20:08Z</time>
      </trkpt>
      <trkpt lat="49.90828" lon="2.28126">
        <ele>20.4</ele>
        <time>2023-01-20T13:20:09Z</time>
      </trkpt>
      <trkpt lat="49.90828" lon="2.28126">
        <ele>20.4</ele>
        <time>2023-01-20T13:20:10Z</time>
      </trkpt>
      <trkpt lat="49.90828" lon="2.28126">
        <ele>20.4</ele>
        <time>2023-01-20T13:20:11Z</time>
      </trkpt>
      <trkpt lat="49.90828" lon="2.28126">
        <ele>20.4</ele>
        <time>2023-01-20T13:20:12Z</time>
      </trkpt>
      <trkpt lat="49.90828" lon="2.28126">
        <ele>20.4</ele>
        <time>2023-01-20T13:20:13Z</time>
      </trkpt>
      <trkpt lat="49.90827" lon="2.28127">
        <ele>20.4</ele>
        <time>2023-01-20T13:20:14Z</time>
      </trkpt>
      <trkpt lat="49.90826" lon="2.28129">
        <ele>20.4</ele>
        <time>2023-01-20T13:20:15Z</time>
      </trkpt>
      <trkpt lat="49.90817" lon="2.28163">
        <ele>20.4</ele>
        <time>2023-01-20T13:20:16Z</time>
      </trkpt>
      <trkpt lat="49.90825" lon="2.28132">
        <ele>20.4</ele>
        <time>2023-01-20T13:20:18Z</time>
      </trkpt>
      <trkpt lat="49.90825" lon="2.28132">
        <ele>20.4</ele>
        <time>2023-01-20T13:20:19Z</time>
      </trkpt>
      <trkpt lat="49.90824" lon="2.28131">
        <ele>20.4</ele>
        <time>2023-01-20T13:20:21Z</time>
      </trkpt>
      <trkpt lat="49.90825" lon="2.28131">
        <ele>20.4</ele>
        <time>2023-01-20T13:20:22Z</time>
      </trkpt>
      <trkpt lat="49.90825" lon="2.28131">
        <ele>20.4</ele>
        <time>2023-01-20T13:20:24Z</time>
      </trkpt>
      <trkpt lat="49.90825" lon="2.28131">
        <ele>20.4</ele>
        <time>2023-01-20T13:20:25Z</time>
      </trkpt>
      <trkpt lat="49.90824" lon="2.28131">
        <ele>20.4</ele>
        <time>2023-01-20T13:20:26Z</time>
      </trkpt>
      <trkpt lat="49.90824" lon="2.28132">
        <ele>20.4</ele>
        <time>2023-01-20T13:20:28Z</time>
      </trkpt>
      <trkpt lat="49.90824" lon="2.28132">
        <ele>20.4</ele>
        <time>2023-01-20T13:20:29Z</time>
      </trkpt>
      <trkpt lat="49.90824" lon="2.28132">
        <ele>20.4</ele>
        <time>2023-01-20T13:20:31Z</time>
      </trkpt>
      <trkpt lat="49.90824" lon="2.28132">
        <ele>20.4</ele>
        <time>2023-01-20T13:20:32Z</time>
      </trkpt>
      <trkpt lat="49.90824" lon="2.28132">
        <ele>20.4</ele>
        <time>2023-01-20T13:20:34Z</time>
      </trkpt>
      <trkpt lat="49.90824" lon="2.28132">
        <ele>20.4</ele>
        <time>2023-01-20T13:20:35Z</time>
      </trkpt>
      <trkpt lat="49.90824" lon="2.28132">
        <ele>20.4</ele>
        <time>2023-01-20T13:20:36Z</time>
      </trkpt>
      <trkpt lat="49.90824" lon="2.28132">
        <ele>20.4</ele>
        <time>2023-01-20T13:20:37Z</time>
      </trkpt>
      <trkpt lat="49.90825" lon="2.28132">
        <ele>20.4</ele>
        <time>2023-01-20T13:20:39Z</time>
      </trkpt>
      <trkpt lat="49.90825" lon="2.28131">
        <ele>20.4</ele>
        <time>2023-01-20T13:20:40Z</time>
      </trkpt>
      <trkpt lat="49.90826" lon="2.2813">
        <ele>20.4</ele>
        <time>2023-01-20T13:20:41Z</time>
      </trkpt>
      <trkpt lat="49.90825" lon="2.2813">
        <ele>20.4</ele>
        <time>2023-01-20T13:20:43Z</time>
      </trkpt>
      <trkpt lat="49.90826" lon="2.28129">
        <ele>20.4</ele>
        <time>2023-01-20T13:20:44Z</time>
      </trkpt>
      <trkpt lat="49.90826" lon="2.28129">
        <ele>20.4</ele>
        <time>2023-01-20T13:20:45Z</time>
      </trkpt>
      <trkpt lat="49.90826" lon="2.28128">
        <ele>20.4</ele>
        <time>2023-01-20T13:20:46Z</time>
      </trkpt>
      <trkpt lat="49.90825" lon="2.28133">
        <ele>20.4</ele>
        <time>2023-01-20T13:20:47Z</time>
      </trkpt>
      <trkpt lat="49.90825" lon="2.28133">
        <ele>20.4</ele>
        <time>2023-01-20T13:20:48Z</time>
      </trkpt>
      <trkpt lat="49.90825" lon="2.28132">
        <ele>20.4</ele>
        <time>2023-01-20T13:20:50Z</time>
      </trkpt>
      <trkpt lat="49.90826" lon="2.28131">
        <ele>20.4</ele>
        <time>2023-01-20T13:20:51Z</time>
      </trkpt>
      <trkpt lat="49.90827" lon="2.28129">
        <ele>20.4</ele>
        <time>2023-01-20T13:20:52Z</time>
      </trkpt>
      <trkpt lat="49.90827" lon="2.28129">
        <ele>20.4</ele>
        <time>2023-01-20T13:20:53Z</time>
      </trkpt>
      <trkpt lat="49.90827" lon="2.28129">
        <ele>20.4</ele>
        <time>2023-01-20T13:20:54Z</time>
      </trkpt>
      <trkpt lat="49.90827" lon="2.28128">
        <ele>20.4</ele>
        <time>2023-01-20T13:20:56Z</time>
      </trkpt>
      <trkpt lat="49.90827" lon="2.2813">
        <ele>20.4</ele>
        <time>2023-01-20T13:20:57Z</time>
      </trkpt>
      <trkpt lat="49.90827" lon="2.28129">
        <ele>20.4</ele>
        <time>2023-01-20T13:20:58Z</time>
      </trkpt>
      <trkpt lat="49.90828" lon="2.2813">
        <ele>20.4</ele>
        <time>2023-01-20T13:20:59Z</time>
      </trkpt>
      <trkpt lat="49.90829" lon="2.28131">
        <ele>20.4</ele>
        <time>2023-01-20T13:21:01Z</time>
      </trkpt>
      <trkpt lat="49.90831" lon="2.28132">
        <ele>20.4</ele>
        <time>2023-01-20T13:21:02Z</time>
      </trkpt>
      <trkpt lat="49.90832" lon="2.28132">
        <ele>20.4</ele>
        <time>2023-01-20T13:21:03Z</time>
      </trkpt>
      <trkpt lat="49.90832" lon="2.28132">
        <ele>20.4</ele>
        <time>2023-01-20T13:21:04Z</time>
      </trkpt>
      <trkpt lat="49.90832" lon="2.28133">
        <ele>20.4</ele>
        <time>2023-01-20T13:21:05Z</time>
      </trkpt>
      <trkpt lat="49.9083" lon="2.28133">
        <ele>20.4</ele>
        <time>2023-01-20T13:21:07Z</time>
      </trkpt>
      <trkpt lat="49.9083" lon="2.28133">
        <ele>20.4</ele>
        <time>2023-01-20T13:21:08Z</time>
      </trkpt>
      <trkpt lat="49.90829" lon="2.28133">
        <ele>20.4</ele>
        <time>2023-01-20T13:21:09Z</time>
      </trkpt>
      <trkpt lat="49.90828" lon="2.28134">
        <ele>20.4</ele>
        <time>2023-01-20T13:21:10Z</time>
      </trkpt>
      <trkpt lat="49.90827" lon="2.28134">
        <ele>20.4</ele>
        <time>2023-01-20T13:21:11Z</time>
      </trkpt>
      <trkpt lat="49.90826" lon="2.28134">
        <ele>20.4</ele>
        <time>2023-01-20T13:21:13Z</time>
      </trkpt>
      <trkpt lat="49.90825" lon="2.28134">
        <ele>20.4</ele>
        <time>2023-01-20T13:21:14Z</time>
      </trkpt>
      <trkpt lat="49.90824" lon="2.28135">
        <ele>20.4</ele>
        <time>2023-01-20T13:21:15Z</time>
      </trkpt>
      <trkpt lat="49.90823" lon="2.28134">
        <ele>20.4</ele>
        <time>2023-01-20T13:21:16Z</time>
      </trkpt>
      <trkpt lat="49.90822" lon="2.28133">
        <ele>20.4</ele>
        <time>2023-01-20T13:21:18Z</time>
      </trkpt>
      <trkpt lat="49.90822" lon="2.28133">
        <ele>20.4</ele>
        <time>2023-01-20T13:21:19Z</time>
      </trkpt>
      <trkpt lat="49.90822" lon="2.28133">
        <ele>20.4</ele>
        <time>2023-01-20T13:21:20Z</time>
      </trkpt>
      <trkpt lat="49.90824" lon="2.28129">
        <ele>20.4</ele>
        <time>2023-01-20T13:21:21Z</time>
      </trkpt>
      <trkpt lat="49.90824" lon="2.28129">
        <ele>20.4</ele>
        <time>2023-01-20T13:21:23Z</time>
      </trkpt>
      <trkpt lat="49.90824" lon="2.28128">
        <ele>20.4</ele>
        <time>2023-01-20T13:21:24Z</time>
      </trkpt>
      <trkpt lat="49.90825" lon="2.28127">
        <ele>20.4</ele>
        <time>2023-01-20T13:21:25Z</time>
      </trkpt>
      <trkpt lat="49.90826" lon="2.28127">
        <ele>20.4</ele>
        <time>2023-01-20T13:21:26Z</time>
      </trkpt>
      <trkpt lat="49.90826" lon="2.28127">
        <ele>20.4</ele>
        <time>2023-01-20T13:21:28Z</time>
      </trkpt>
      <trkpt lat="49.90828" lon="2.28129">
        <ele>20.4</ele>
        <time>2023-01-20T13:21:30Z</time>
      </trkpt>
      <trkpt lat="49.90828" lon="2.2813">
        <ele>20.4</ele>
        <time>2023-01-20T13:21:31Z</time>
      </trkpt>
      <trkpt lat="49.90828" lon="2.28131">
        <ele>20.4</ele>
        <time>2023-01-20T13:21:32Z</time>
      </trkpt>
      <trkpt lat="49.90828" lon="2.28133">
        <ele>20.4</ele>
        <time>2023-01-20T13:21:34Z</time>
      </trkpt>
      <trkpt lat="49.90828" lon="2.28133">
        <ele>20.4</ele>
        <time>2023-01-20T13:21:35Z</time>
      </trkpt>
      <trkpt lat="49.90828" lon="2.28132">
        <ele>20.4</ele>
        <time>2023-01-20T13:21:36Z</time>
      </trkpt>
      <trkpt lat="49.90828" lon="2.28132">
        <ele>20.4</ele>
        <time>2023-01-20T13:21:37Z</time>
      </trkpt>
      <trkpt lat="49.90828" lon="2.28132">
        <ele>20.4</ele>
        <time>2023-01-20T13:21:39Z</time>
      </trkpt>
      <trkpt lat="49.90828" lon="2.28132">
        <ele>20.4</ele>
        <time>2023-01-20T13:21:40Z</time>
      </trkpt>
      <trkpt lat="49.90828" lon="2.28133">
        <ele>20.4</ele>
        <time>2023-01-20T13:21:41Z</time>
      </trkpt>
      <trkpt lat="49.90828" lon="2.28133">
        <ele>20.4</ele>
        <time>2023-01-20T13:21:42Z</time>
      </trkpt>
      <trkpt lat="49.90829" lon="2.28134">
        <ele>20.4</ele>
        <time>2023-01-20T13:21:44Z</time>
      </trkpt>
      <trkpt lat="49.90829" lon="2.28135">
        <ele>20.4</ele>
        <time>2023-01-20T13:21:45Z</time>
      </trkpt>
      <trkpt lat="49.90829" lon="2.28135">
        <ele>20.4</ele>
        <time>2023-01-20T13:21:47Z</time>
      </trkpt>
      <trkpt lat="49.9083" lon="2.28135">
        <ele>20.4</ele>
        <time>2023-01-20T13:21:48Z</time>
      </trkpt>
      <trkpt lat="49.9083" lon="2.28135">
        <ele>20.4</ele>
        <time>2023-01-20T13:21:49Z</time>
      </trkpt>
      <trkpt lat="49.90831" lon="2.28135">
        <ele>20.4</ele>
        <time>2023-01-20T13:21:50Z</time>
      </trkpt>
      <trkpt lat="49.90831" lon="2.28135">
        <ele>20.4</ele>
        <time>2023-01-20T13:21:51Z</time>
      </trkpt>
      <trkpt lat="49.90832" lon="2.28135">
        <ele>20.4</ele>
        <time>2023-01-20T13:21:53Z</time>
      </trkpt>
      <trkpt lat="49.90832" lon="2.28135">
        <ele>20.4</ele>
        <time>2023-01-20T13:21:54Z</time>
      </trkpt>
      <trkpt lat="49.90833" lon="2.28135">
        <ele>20.4</ele>
        <time>2023-01-20T13:21:55Z</time>
      </trkpt>
      <trkpt lat="49.90834" lon="2.28135">
        <ele>20.4</ele>
        <time>2023-01-20T13:21:56Z</time>
      </trkpt>
      <trkpt lat="49.90835" lon="2.28136">
        <ele>20.4</ele>
        <time>2023-01-20T13:21:57Z</time>
      </trkpt>
      <trkpt lat="49.90836" lon="2.28138">
        <ele>20.4</ele>
        <time>2023-01-20T13:21:58Z</time>
      </trkpt>
      <trkpt lat="49.90837" lon="2.28138">
        <ele>20.4</ele>
        <time>2023-01-20T13:21:59Z</time>
      </trkpt>
      <trkpt lat="49.90838" lon="2.28138">
        <ele>20.4</ele>
        <time>2023-01-20T13:22:00Z</time>
      </trkpt>
      <trkpt lat="49.90839" lon="2.28137">
        <ele>20.4</ele>
        <time>2023-01-20T13:22:02Z</time>
      </trkpt>
      <trkpt lat="49.9084" lon="2.28136">
        <ele>20.4</ele>
        <time>2023-01-20T13:22:03Z</time>
      </trkpt>
      <trkpt lat="49.90841" lon="2.28136">
        <ele>20.4</ele>
        <time>2023-01-20T13:22:04Z</time>
      </trkpt>
      <trkpt lat="49.90842" lon="2.28136">
        <ele>20.4</ele>
        <time>2023-01-20T13:22:05Z</time>
      </trkpt>
      <trkpt lat="49.90843" lon="2.28136">
        <ele>20.5</ele>
        <time>2023-01-20T13:22:06Z</time>
      </trkpt>
      <trkpt lat="49.90844" lon="2.28136">
        <ele>20.5</ele>
        <time>2023-01-20T13:22:08Z</time>
      </trkpt>
      <trkpt lat="49.90844" lon="2.28135">
        <ele>20.5</ele>
        <time>2023-01-20T13:22:09Z</time>
      </trkpt>
      <trkpt lat="49.90845" lon="2.28135">
        <ele>20.5</ele>
        <time>2023-01-20T13:22:10Z</time>
      </trkpt>
      <trkpt lat="49.90847" lon="2.28134">
        <ele>20.5</ele>
        <time>2023-01-20T13:22:12Z</time>
      </trkpt>
      <trkpt lat="49.90847" lon="2.28134">
        <ele>20.5</ele>
        <time>2023-01-20T13:22:13Z</time>
      </trkpt>
      <trkpt lat="49.90847" lon="2.28133">
        <ele>20.5</ele>
        <time>2023-01-20T13:22:14Z</time>
      </trkpt>
      <trkpt lat="49.90848" lon="2.28133">
        <ele>20.5</ele>
        <time>2023-01-20T13:22:15Z</time>
      </trkpt>
      <trkpt lat="49.90849" lon="2.28132">
        <ele>20.5</ele>
        <time>2023-01-20T13:22:17Z</time>
      </trkpt>
      <trkpt lat="49.90848" lon="2.28132">
        <ele>20.5</ele>
        <time>2023-01-20T13:22:18Z</time>
      </trkpt>
      <trkpt lat="49.90848" lon="2.28132">
        <ele>20.5</ele>
        <time>2023-01-20T13:22:20Z</time>
      </trkpt>
      <trkpt lat="49.90847" lon="2.28132">
        <ele>20.5</ele>
        <time>2023-01-20T13:22:21Z</time>
      </trkpt>
      <trkpt lat="49.90847" lon="2.28132">
        <ele>20.5</ele>
        <time>2023-01-20T13:22:22Z</time>
      </trkpt>
      <trkpt lat="49.90848" lon="2.28132">
        <ele>20.5</ele>
        <time>2023-01-20T13:22:24Z</time>
      </trkpt>
      <trkpt lat="49.90848" lon="2.28132">
        <ele>20.5</ele>
        <time>2023-01-20T13:22:25Z</time>
      </trkpt>
      <trkpt lat="49.90849" lon="2.28132">
        <ele>20.5</ele>
        <time>2023-01-20T13:22:26Z</time>
      </trkpt>
      <trkpt lat="49.9085" lon="2.28132">
        <ele>20.5</ele>
        <time>2023-01-20T13:22:27Z</time>
      </trkpt>
      <trkpt lat="49.90851" lon="2.28132">
        <ele>20.5</ele>
        <time>2023-01-20T13:22:28Z</time>
      </trkpt>
      <trkpt lat="49.90853" lon="2.28132">
        <ele>20.5</ele>
        <time>2023-01-20T13:22:30Z</time>
      </trkpt>
      <trkpt lat="49.90854" lon="2.28132">
        <ele>20.5</ele>
        <time>2023-01-20T13:22:31Z</time>
      </trkpt>
      <trkpt lat="49.90855" lon="2.28131">
        <ele>20.5</ele>
        <time>2023-01-20T13:22:33Z</time>
      </trkpt>
      <trkpt lat="49.90857" lon="2.28131">
        <ele>20.5</ele>
        <time>2023-01-20T13:22:34Z</time>
      </trkpt>
      <trkpt lat="49.90858" lon="2.2813">
        <ele>20.5</ele>
        <time>2023-01-20T13:22:35Z</time>
      </trkpt>
      <trkpt lat="49.90859" lon="2.28129">
        <ele>20.5</ele>
        <time>2023-01-20T13:22:36Z</time>
      </trkpt>
      <trkpt lat="49.9086" lon="2.28128">
        <ele>20.6</ele>
        <time>2023-01-20T13:22:38Z</time>
      </trkpt>
      <trkpt lat="49.9086" lon="2.28127">
        <ele>20.6</ele>
        <time>2023-01-20T13:22:39Z</time>
      </trkpt>
      <trkpt lat="49.90861" lon="2.28126">
        <ele>20.6</ele>
        <time>2023-01-20T13:22:40Z</time>
      </trkpt>
      <trkpt lat="49.90861" lon="2.28126">
        <ele>20.6</ele>
        <time>2023-01-20T13:22:41Z</time>
      </trkpt>
      <trkpt lat="49.90862" lon="2.28125">
        <ele>20.6</ele>
        <time>2023-01-20T13:22:42Z</time>
      </trkpt>
      <trkpt lat="49.90863" lon="2.28124">
        <ele>20.6</ele>
        <time>2023-01-20T13:22:43Z</time>
      </trkpt>
      <trkpt lat="49.90864" lon="2.28123">
        <ele>20.6</ele>
        <time>2023-01-20T13:22:44Z</time>
      </trkpt>
      <trkpt lat="49.90865" lon="2.28122">
        <ele>20.6</ele>
        <time>2023-01-20T13:22:46Z</time>
      </trkpt>
      <trkpt lat="49.90865" lon="2.28121">
        <ele>20.6</ele>
        <time>2023-01-20T13:22:47Z</time>
      </trkpt>
      <trkpt lat="49.90866" lon="2.28119">
        <ele>20.6</ele>
        <time>2023-01-20T13:22:49Z</time>
      </trkpt>
      <trkpt lat="49.90866" lon="2.28117">
        <ele>20.6</ele>
        <time>2023-01-20T13:22:50Z</time>
      </trkpt>
      <trkpt lat="49.90866" lon="2.28117">
        <ele>20.6</ele>
        <time>2023-01-20T13:22:51Z</time>
      </trkpt>
      <trkpt lat="49.90867" lon="2.28115">
        <ele>20.6</ele>
        <time>2023-01-20T13:22:52Z</time>
      </trkpt>
      <trkpt lat="49.90868" lon="2.28114">
        <ele>20.6</ele>
        <time>2023-01-20T13:22:54Z</time>
      </trkpt>
      <trkpt lat="49.90868" lon="2.28113">
        <ele>20.6</ele>
        <time>2023-01-20T13:22:55Z</time>
      </trkpt>
      <trkpt lat="49.90869" lon="2.28113">
        <ele>20.6</ele>
        <time>2023-01-20T13:22:56Z</time>
      </trkpt>
      <trkpt lat="49.90869" lon="2.28112">
        <ele>20.6</ele>
        <time>2023-01-20T13:22:58Z</time>
      </trkpt>
      <trkpt lat="49.9087" lon="2.28112">
        <ele>20.6</ele>
        <time>2023-01-20T13:22:59Z</time>
      </trkpt>
      <trkpt lat="49.9087" lon="2.28112">
        <ele>20.6</ele>
        <time>2023-01-20T13:23:00Z</time>
      </trkpt>
      <trkpt lat="49.9087" lon="2.28112">
        <ele>20.6</ele>
        <time>2023-01-20T13:23:01Z</time>
      </trkpt>
      <trkpt lat="49.90871" lon="2.28111">
        <ele>20.7</ele>
        <time>2023-01-20T13:23:02Z</time>
      </trkpt>
      <trkpt lat="49.90872" lon="2.2811">
        <ele>20.7</ele>
        <time>2023-01-20T13:23:03Z</time>
      </trkpt>
      <trkpt lat="49.90873" lon="2.2811">
        <ele>20.7</ele>
        <time>2023-01-20T13:23:05Z</time>
      </trkpt>
      <trkpt lat="49.90874" lon="2.2811">
        <ele>20.7</ele>
        <time>2023-01-20T13:23:06Z</time>
      </trkpt>
      <trkpt lat="49.90875" lon="2.2811">
        <ele>20.7</ele>
        <time>2023-01-20T13:23:07Z</time>
      </trkpt>
      <trkpt lat="49.90876" lon="2.28109">
        <ele>20.7</ele>
        <time>2023-01-20T13:23:08Z</time>
      </trkpt>
      <trkpt lat="49.90878" lon="2.28109">
        <ele>20.7</ele>
        <time>2023-01-20T13:23:09Z</time>
      </trkpt>
      <trkpt lat="49.90879" lon="2.28108">
        <ele>20.7</ele>
        <time>2023-01-20T13:23:11Z</time>
      </trkpt>
      <trkpt lat="49.90879" lon="2.28108">
        <ele>20.7</ele>
        <time>2023-01-20T13:23:12Z</time>
      </trkpt>
      <trkpt lat="49.9088" lon="2.28109">
        <ele>20.7</ele>
        <time>2023-01-20T13:23:13Z</time>
      </trkpt>
      <trkpt lat="49.90881" lon="2.28109">
        <ele>20.7</ele>
        <time>2023-01-20T13:23:14Z</time>
      </trkpt>
      <trkpt lat="49.90882" lon="2.28109">
        <ele>20.7</ele>
        <time>2023-01-20T13:23:15Z</time>
      </trkpt>
      <trkpt lat="49.90884" lon="2.28109">
        <ele>20.7</ele>
        <time>2023-01-20T13:23:16Z</time>
      </trkpt>
      <trkpt lat="49.90885" lon="2.28109">
        <ele>20.8</ele>
        <time>2023-01-20T13:23:18Z</time>
      </trkpt>
      <trkpt lat="49.90886" lon="2.28109">
        <ele>20.8</ele>
        <time>2023-01-20T13:23:19Z</time>
      </trkpt>
      <trkpt lat="49.90888" lon="2.2811">
        <ele>20.9</ele>
        <time>2023-01-20T13:23:20Z</time>
      </trkpt>
      <trkpt lat="49.90889" lon="2.28111">
        <ele>20.9</ele>
        <time>2023-01-20T13:23:21Z</time>
      </trkpt>
      <trkpt lat="49.9089" lon="2.28111">
        <ele>21</ele>
        <time>2023-01-20T13:23:22Z</time>
      </trkpt>
      <trkpt lat="49.9089" lon="2.28111">
        <ele>21</ele>
        <time>2023-01-20T13:23:23Z</time>
      </trkpt>
      <trkpt lat="49.90891" lon="2.28111">
        <ele>21</ele>
        <time>2023-01-20T13:23:24Z</time>
      </trkpt>
      <trkpt lat="49.90892" lon="2.28111">
        <ele>21</ele>
        <time>2023-01-20T13:23:26Z</time>
      </trkpt>
      <trkpt lat="49.90892" lon="2.28111">
        <ele>21</ele>
        <time>2023-01-20T13:23:27Z</time>
      </trkpt>
      <trkpt lat="49.90894" lon="2.28109">
        <ele>21.1</ele>
        <time>2023-01-20T13:23:28Z</time>
      </trkpt>
      <trkpt lat="49.90895" lon="2.28109">
        <ele>21.2</ele>
        <time>2023-01-20T13:23:29Z</time>
      </trkpt>
      <trkpt lat="49.90896" lon="2.28108">
        <ele>21.2</ele>
        <time>2023-01-20T13:23:30Z</time>
      </trkpt>
      <trkpt lat="49.90896" lon="2.28107">
        <ele>21.2</ele>
        <time>2023-01-20T13:23:31Z</time>
      </trkpt>
      <trkpt lat="49.90897" lon="2.28107">
        <ele>21.3</ele>
        <time>2023-01-20T13:23:33Z</time>
      </trkpt>
      <trkpt lat="49.90898" lon="2.28106">
        <ele>21.3</ele>
        <time>2023-01-20T13:23:34Z</time>
      </trkpt>
      <trkpt lat="49.909" lon="2.28103">
        <ele>21.5</ele>
        <time>2023-01-20T13:23:35Z</time>
      </trkpt>
      <trkpt lat="49.909" lon="2.28102">
        <ele>21.5</ele>
        <time>2023-01-20T13:23:36Z</time>
      </trkpt>
      <trkpt lat="49.90901" lon="2.28101">
        <ele>21.6</ele>
        <time>2023-01-20T13:23:37Z</time>
      </trkpt>
      <trkpt lat="49.90901" lon="2.281">
        <ele>21.6</ele>
        <time>2023-01-20T13:23:38Z</time>
      </trkpt>
      <trkpt lat="49.90902" lon="2.28099">
        <ele>21.7</ele>
        <time>2023-01-20T13:23:39Z</time>
      </trkpt>
      <trkpt lat="49.90902" lon="2.28098">
        <ele>21.7</ele>
        <time>2023-01-20T13:23:41Z</time>
      </trkpt>
      <trkpt lat="49.90903" lon="2.28097">
        <ele>21.8</ele>
        <time>2023-01-20T13:23:42Z</time>
      </trkpt>
      <trkpt lat="49.90903" lon="2.28096">
        <ele>21.8</ele>
        <time>2023-01-20T13:23:43Z</time>
      </trkpt>
      <trkpt lat="49.90903" lon="2.28095">
        <ele>21.9</ele>
        <time>2023-01-20T13:23:44Z</time>
      </trkpt>
      <trkpt lat="49.90904" lon="2.28093">
        <ele>21.9</ele>
        <time>2023-01-20T13:23:46Z</time>
      </trkpt>
      <trkpt lat="49.90905" lon="2.28091">
        <ele>22</ele>
        <time>2023-01-20T13:23:47Z</time>
      </trkpt>
      <trkpt lat="49.90906" lon="2.28088">
        <ele>22.2</ele>
        <time>2023-01-20T13:23:48Z</time>
      </trkpt>
      <trkpt lat="49.90907" lon="2.28086">
        <ele>22.2</ele>
        <time>2023-01-20T13:23:49Z</time>
      </trkpt>
      <trkpt lat="49.90908" lon="2.28085">
        <ele>22.3</ele>
        <time>2023-01-20T13:23:51Z</time>
      </trkpt>
      <trkpt lat="49.90909" lon="2.28083">
        <ele>22.4</ele>
        <time>2023-01-20T13:23:52Z</time>
      </trkpt>
      <trkpt lat="49.9091" lon="2.28082">
        <ele>22.5</ele>
        <time>2023-01-20T13:23:53Z</time>
      </trkpt>
      <trkpt lat="49.90912" lon="2.28081">
        <ele>22.7</ele>
        <time>2023-01-20T13:23:54Z</time>
      </trkpt>
      <trkpt lat="49.90913" lon="2.28081">
        <ele>22.7</ele>
        <time>2023-01-20T13:23:55Z</time>
      </trkpt>
      <trkpt lat="49.90914" lon="2.28081">
        <ele>22.8</ele>
        <time>2023-01-20T13:23:56Z</time>
      </trkpt>
      <trkpt lat="49.90916" lon="2.28082">
        <ele>23</ele>
        <time>2023-01-20T13:23:57Z</time>
      </trkpt>
      <trkpt lat="49.90917" lon="2.28082">
        <ele>23</ele>
        <time>2023-01-20T13:23:59Z</time>
      </trkpt>
      <trkpt lat="49.90918" lon="2.28083">
        <ele>23</ele>
        <time>2023-01-20T13:24:00Z</time>
      </trkpt>
      <trkpt lat="49.90919" lon="2.28083">
        <ele>23</ele>
        <time>2023-01-20T13:24:01Z</time>
      </trkpt>
      <trkpt lat="49.9092" lon="2.28084">
        <ele>23</ele>
        <time>2023-01-20T13:24:02Z</time>
      </trkpt>
      <trkpt lat="49.9092" lon="2.28084">
        <ele>23</ele>
        <time>2023-01-20T13:24:03Z</time>
      </trkpt>
      <trkpt lat="49.90921" lon="2.28086">
        <ele>23</ele>
        <time>2023-01-20T13:24:04Z</time>
      </trkpt>
      <trkpt lat="49.90923" lon="2.28087">
        <ele>23</ele>
        <time>2023-01-20T13:24:05Z</time>
      </trkpt>
      <trkpt lat="49.90924" lon="2.2809">
        <ele>23</ele>
        <time>2023-01-20T13:24:06Z</time>
      </trkpt>
      <trkpt lat="49.90926" lon="2.28092">
        <ele>23</ele>
        <time>2023-01-20T13:24:08Z</time>
      </trkpt>
      <trkpt lat="49.90927" lon="2.28094">
        <ele>23.1</ele>
        <time>2023-01-20T13:24:09Z</time>
      </trkpt>
      <trkpt lat="49.90928" lon="2.28096">
        <ele>23.1</ele>
        <time>2023-01-20T13:24:10Z</time>
      </trkpt>
      <trkpt lat="49.9093" lon="2.281">
        <ele>23.1</ele>
        <time>2023-01-20T13:24:11Z</time>
      </trkpt>
      <trkpt lat="49.90931" lon="2.28101">
        <ele>23.1</ele>
        <time>2023-01-20T13:24:12Z</time>
      </trkpt>
      <trkpt lat="49.90932" lon="2.28103">
        <ele>23</ele>
        <time>2023-01-20T13:24:13Z</time>
      </trkpt>
      <trkpt lat="49.90933" lon="2.28104">
        <ele>23</ele>
        <time>2023-01-20T13:24:15Z</time>
      </trkpt>
      <trkpt lat="49.90934" lon="2.28106">
        <ele>23</ele>
        <time>2023-01-20T13:24:16Z</time>
      </trkpt>
      <trkpt lat="49.90936" lon="2.28108">
        <ele>23</ele>
        <time>2023-01-20T13:24:17Z</time>
      </trkpt>
      <trkpt lat="49.90937" lon="2.28111">
        <ele>23</ele>
        <time>2023-01-20T13:24:18Z</time>
      </trkpt>
      <trkpt lat="49.90938" lon="2.28112">
        <ele>22.9</ele>
        <time>2023-01-20T13:24:19Z</time>
      </trkpt>
      <trkpt lat="49.90939" lon="2.28113">
        <ele>22.9</ele>
        <time>2023-01-20T13:24:20Z</time>
      </trkpt>
      <trkpt lat="49.9094" lon="2.28115">
        <ele>22.9</ele>
        <time>2023-01-20T13:24:21Z</time>
      </trkpt>
      <trkpt lat="49.90942" lon="2.28115">
        <ele>22.9</ele>
        <time>2023-01-20T13:24:22Z</time>
      </trkpt>
      <trkpt lat="49.90944" lon="2.28115">
        <ele>22.8</ele>
        <time>2023-01-20T13:24:23Z</time>
      </trkpt>
      <trkpt lat="49.90944" lon="2.28115">
        <ele>22.8</ele>
        <time>2023-01-20T13:24:25Z</time>
      </trkpt>
      <trkpt lat="49.90945" lon="2.28115">
        <ele>22.8</ele>
        <time>2023-01-20T13:24:26Z</time>
      </trkpt>
      <trkpt lat="49.90947" lon="2.28114">
        <ele>22.8</ele>
        <time>2023-01-20T13:24:27Z</time>
      </trkpt>
      <trkpt lat="49.90947" lon="2.28113">
        <ele>22.7</ele>
        <time>2023-01-20T13:24:28Z</time>
      </trkpt>
      <trkpt lat="49.90948" lon="2.28112">
        <ele>22.6</ele>
        <time>2023-01-20T13:24:29Z</time>
      </trkpt>
      <trkpt lat="49.90949" lon="2.28111">
        <ele>22.6</ele>
        <time>2023-01-20T13:24:30Z</time>
      </trkpt>
      <trkpt lat="49.9095" lon="2.28108">
        <ele>22.5</ele>
        <time>2023-01-20T13:24:31Z</time>
      </trkpt>
      <trkpt lat="49.90951" lon="2.28107">
        <ele>22.5</ele>
        <time>2023-01-20T13:24:32Z</time>
      </trkpt>
      <trkpt lat="49.90952" lon="2.28106">
        <ele>22.5</ele>
        <time>2023-01-20T13:24:33Z</time>
      </trkpt>
      <trkpt lat="49.90952" lon="2.28104">
        <ele>22.4</ele>
        <time>2023-01-20T13:24:35Z</time>
      </trkpt>
      <trkpt lat="49.90953" lon="2.28102">
        <ele>22.4</ele>
        <time>2023-01-20T13:24:36Z</time>
      </trkpt>
      <trkpt lat="49.90954" lon="2.28099">
        <ele>22.3</ele>
        <time>2023-01-20T13:24:37Z</time>
      </trkpt>
      <trkpt lat="49.90955" lon="2.28096">
        <ele>22.2</ele>
        <time>2023-01-20T13:24:38Z</time>
      </trkpt>
      <trkpt lat="49.90955" lon="2.28095">
        <ele>22.1</ele>
        <time>2023-01-20T13:24:39Z</time>
      </trkpt>
      <trkpt lat="49.90955" lon="2.28094">
        <ele>22.1</ele>
        <time>2023-01-20T13:24:40Z</time>
      </trkpt>
      <trkpt lat="49.90957" lon="2.28091">
        <ele>22</ele>
        <time>2023-01-20T13:24:41Z</time>
      </trkpt>
      <trkpt lat="49.90957" lon="2.2809">
        <ele>21.9</ele>
        <time>2023-01-20T13:24:42Z</time>
      </trkpt>
      <trkpt lat="49.90958" lon="2.28087">
        <ele>21.8</ele>
        <time>2023-01-20T13:24:43Z</time>
      </trkpt>
      <trkpt lat="49.90959" lon="2.28086">
        <ele>21.8</ele>
        <time>2023-01-20T13:24:45Z</time>
      </trkpt>
      <trkpt lat="49.9096" lon="2.28085">
        <ele>21.8</ele>
        <time>2023-01-20T13:24:46Z</time>
      </trkpt>
      <trkpt lat="49.90961" lon="2.28082">
        <ele>21.7</ele>
        <time>2023-01-20T13:24:47Z</time>
      </trkpt>
      <trkpt lat="49.90961" lon="2.28081">
        <ele>21.6</ele>
        <time>2023-01-20T13:24:48Z</time>
      </trkpt>
      <trkpt lat="49.90962" lon="2.28079">
        <ele>21.6</ele>
        <time>2023-01-20T13:24:49Z</time>
      </trkpt>
      <trkpt lat="49.90963" lon="2.28078">
        <ele>21.5</ele>
        <time>2023-01-20T13:24:50Z</time>
      </trkpt>
      <trkpt lat="49.90965" lon="2.28075">
        <ele>21.4</ele>
        <time>2023-01-20T13:24:51Z</time>
      </trkpt>
      <trkpt lat="49.90966" lon="2.28073">
        <ele>21.3</ele>
        <time>2023-01-20T13:24:52Z</time>
      </trkpt>
      <trkpt lat="49.90967" lon="2.28071">
        <ele>21.3</ele>
        <time>2023-01-20T13:24:53Z</time>
      </trkpt>
      <trkpt lat="49.90967" lon="2.2807">
        <ele>21.2</ele>
        <time>2023-01-20T13:24:54Z</time>
      </trkpt>
      <trkpt lat="49.90969" lon="2.28066">
        <ele>21.2</ele>
        <time>2023-01-20T13:24:56Z</time>
      </trkpt>
      <trkpt lat="49.90969" lon="2.28065">
        <ele>21.1</ele>
        <time>2023-01-20T13:24:57Z</time>
      </trkpt>
      <trkpt lat="49.90971" lon="2.28063">
        <ele>21.1</ele>
        <time>2023-01-20T13:24:58Z</time>
      </trkpt>
      <trkpt lat="49.90971" lon="2.28062">
        <ele>21</ele>
        <time>2023-01-20T13:24:59Z</time>
      </trkpt>
      <trkpt lat="49.90972" lon="2.28061">
        <ele>21</ele>
        <time>2023-01-20T13:25:00Z</time>
      </trkpt>
      <trkpt lat="49.90973" lon="2.28058">
        <ele>21</ele>
        <time>2023-01-20T13:25:02Z</time>
      </trkpt>
      <trkpt lat="49.90974" lon="2.28057">
        <ele>20.9</ele>
        <time>2023-01-20T13:25:03Z</time>
      </trkpt>
      <trkpt lat="49.90976" lon="2.28054">
        <ele>20.9</ele>
        <time>2023-01-20T13:25:04Z</time>
      </trkpt>
      <trkpt lat="49.90976" lon="2.28053">
        <ele>20.9</ele>
        <time>2023-01-20T13:25:05Z</time>
      </trkpt>
      <trkpt lat="49.90977" lon="2.28052">
        <ele>20.8</ele>
        <time>2023-01-20T13:25:06Z</time>
      </trkpt>
      <trkpt lat="49.90978" lon="2.2805">
        <ele>20.8</ele>
        <time>2023-01-20T13:25:07Z</time>
      </trkpt>
      <trkpt lat="49.90978" lon="2.28049">
        <ele>20.8</ele>
        <time>2023-01-20T13:25:08Z</time>
      </trkpt>
      <trkpt lat="49.90979" lon="2.28047">
        <ele>20.8</ele>
        <time>2023-01-20T13:25:09Z</time>
      </trkpt>
      <trkpt lat="49.9098" lon="2.28046">
        <ele>20.8</ele>
        <time>2023-01-20T13:25:10Z</time>
      </trkpt>
      <trkpt lat="49.90981" lon="2.28043">
        <ele>20.7</ele>
        <time>2023-01-20T13:25:12Z</time>
      </trkpt>
      <trkpt lat="49.90983" lon="2.28041">
        <ele>20.7</ele>
        <time>2023-01-20T13:25:13Z</time>
      </trkpt>
      <trkpt lat="49.90983" lon="2.2804">
        <ele>20.7</ele>
        <time>2023-01-20T13:25:14Z</time>
      </trkpt>
      <trkpt lat="49.90984" lon="2.28039">
        <ele>20.7</ele>
        <time>2023-01-20T13:25:15Z</time>
      </trkpt>
      <trkpt lat="49.90986" lon="2.28038">
        <ele>20.7</ele>
        <time>2023-01-20T13:25:17Z</time>
      </trkpt>
      <trkpt lat="49.90987" lon="2.28037">
        <ele>20.6</ele>
        <time>2023-01-20T13:25:18Z</time>
      </trkpt>
      <trkpt lat="49.90989" lon="2.28036">
        <ele>20.6</ele>
        <time>2023-01-20T13:25:19Z</time>
      </trkpt>
      <trkpt lat="49.90989" lon="2.28035">
        <ele>20.6</ele>
        <time>2023-01-20T13:25:20Z</time>
      </trkpt>
      <trkpt lat="49.9099" lon="2.28034">
        <ele>20.6</ele>
        <time>2023-01-20T13:25:21Z</time>
      </trkpt>
      <trkpt lat="49.90992" lon="2.28032">
        <ele>20.6</ele>
        <time>2023-01-20T13:25:22Z</time>
      </trkpt>
      <trkpt lat="49.90992" lon="2.28031">
        <ele>20.6</ele>
        <time>2023-01-20T13:25:23Z</time>
      </trkpt>
      <trkpt lat="49.90993" lon="2.28031">
        <ele>20.6</ele>
        <time>2023-01-20T13:25:24Z</time>
      </trkpt>
      <trkpt lat="49.90995" lon="2.28029">
        <ele>20.6</ele>
        <time>2023-01-20T13:25:26Z</time>
      </trkpt>
      <trkpt lat="49.90995" lon="2.28028">
        <ele>20.6</ele>
        <time>2023-01-20T13:25:27Z</time>
      </trkpt>
      <trkpt lat="49.90996" lon="2.28027">
        <ele>20.6</ele>
        <time>2023-01-20T13:25:28Z</time>
      </trkpt>
      <trkpt lat="49.90998" lon="2.28025">
        <ele>20.6</ele>
        <time>2023-01-20T13:25:29Z</time>
      </trkpt>
      <trkpt lat="49.90998" lon="2.28024">
        <ele>20.6</ele>
        <time>2023-01-20T13:25:30Z</time>
      </trkpt>
      <trkpt lat="49.90999" lon="2.28024">
        <ele>20.6</ele>
        <time>2023-01-20T13:25:31Z</time>
      </trkpt>
      <trkpt lat="49.91" lon="2.28022">
        <ele>20.6</ele>
        <time>2023-01-20T13:25:32Z</time>
      </trkpt>
      <trkpt lat="49.91001" lon="2.28021">
        <ele>20.5</ele>
        <time>2023-01-20T13:25:33Z</time>
      </trkpt>
      <trkpt lat="49.91003" lon="2.28019">
        <ele>20.5</ele>
        <time>2023-01-20T13:25:34Z</time>
      </trkpt>
      <trkpt lat="49.91004" lon="2.28018">
        <ele>20.5</ele>
        <time>2023-01-20T13:25:35Z</time>
      </trkpt>
      <trkpt lat="49.91004" lon="2.28017">
        <ele>20.5</ele>
        <time>2023-01-20T13:25:36Z</time>
      </trkpt>
      <trkpt lat="49.91006" lon="2.28015">
        <ele>20.5</ele>
        <time>2023-01-20T13:25:38Z</time>
      </trkpt>
      <trkpt lat="49.91007" lon="2.28015">
        <ele>20.5</ele>
        <time>2023-01-20T13:25:39Z</time>
      </trkpt>
      <trkpt lat="49.91007" lon="2.28014">
        <ele>20.5</ele>
        <time>2023-01-20T13:25:40Z</time>
      </trkpt>
      <trkpt lat="49.91009" lon="2.28013">
        <ele>20.5</ele>
        <time>2023-01-20T13:25:41Z</time>
      </trkpt>
      <trkpt lat="49.9101" lon="2.28012">
        <ele>20.5</ele>
        <time>2023-01-20T13:25:42Z</time>
      </trkpt>
      <trkpt lat="49.91011" lon="2.2801">
        <ele>20.5</ele>
        <time>2023-01-20T13:25:44Z</time>
      </trkpt>
      <trkpt lat="49.91012" lon="2.28009">
        <ele>20.5</ele>
        <time>2023-01-20T13:25:45Z</time>
      </trkpt>
      <trkpt lat="49.91013" lon="2.28009">
        <ele>20.5</ele>
        <time>2023-01-20T13:25:46Z</time>
      </trkpt>
      <trkpt lat="49.91014" lon="2.28007">
        <ele>20.5</ele>
        <time>2023-01-20T13:25:47Z</time>
      </trkpt>
      <trkpt lat="49.91015" lon="2.28006">
        <ele>20.5</ele>
        <time>2023-01-20T13:25:48Z</time>
      </trkpt>
      <trkpt lat="49.91016" lon="2.28004">
        <ele>20.5</ele>
        <time>2023-01-20T13:25:49Z</time>
      </trkpt>
      <trkpt lat="49.91017" lon="2.28003">
        <ele>20.5</ele>
        <time>2023-01-20T13:25:50Z</time>
      </trkpt>
      <trkpt lat="49.91018" lon="2.28002">
        <ele>20.5</ele>
        <time>2023-01-20T13:25:51Z</time>
      </trkpt>
      <trkpt lat="49.9102" lon="2.28">
        <ele>20.5</ele>
        <time>2023-01-20T13:25:52Z</time>
      </trkpt>
      <trkpt lat="49.9102" lon="2.27999">
        <ele>20.5</ele>
        <time>2023-01-20T13:25:54Z</time>
      </trkpt>
      <trkpt lat="49.91021" lon="2.27998">
        <ele>20.5</ele>
        <time>2023-01-20T13:25:55Z</time>
      </trkpt>
      <trkpt lat="49.91022" lon="2.27997">
        <ele>20.5</ele>
        <time>2023-01-20T13:25:56Z</time>
      </trkpt>
      <trkpt lat="49.91023" lon="2.27995">
        <ele>20.5</ele>
        <time>2023-01-20T13:25:57Z</time>
      </trkpt>
      <trkpt lat="49.91024" lon="2.27995">
        <ele>20.5</ele>
        <time>2023-01-20T13:25:58Z</time>
      </trkpt>
      <trkpt lat="49.91025" lon="2.27993">
        <ele>20.5</ele>
        <time>2023-01-20T13:25:59Z</time>
      </trkpt>
      <trkpt lat="49.91026" lon="2.27992">
        <ele>20.5</ele>
        <time>2023-01-20T13:26:00Z</time>
      </trkpt>
      <trkpt lat="49.91028" lon="2.2799">
        <ele>20.5</ele>
        <time>2023-01-20T13:26:01Z</time>
      </trkpt>
      <trkpt lat="49.91028" lon="2.27989">
        <ele>20.5</ele>
        <time>2023-01-20T13:26:02Z</time>
      </trkpt>
      <trkpt lat="49.91029" lon="2.27988">
        <ele>20.5</ele>
        <time>2023-01-20T13:26:04Z</time>
      </trkpt>
      <trkpt lat="49.9103" lon="2.27987">
        <ele>20.5</ele>
        <time>2023-01-20T13:26:05Z</time>
      </trkpt>
      <trkpt lat="49.91031" lon="2.27985">
        <ele>20.5</ele>
        <time>2023-01-20T13:26:06Z</time>
      </trkpt>
      <trkpt lat="49.91032" lon="2.27984">
        <ele>20.5</ele>
        <time>2023-01-20T13:26:07Z</time>
      </trkpt>
      <trkpt lat="49.91032" lon="2.27984">
        <ele>20.5</ele>
        <time>2023-01-20T13:26:08Z</time>
      </trkpt>
      <trkpt lat="49.91033" lon="2.27982">
        <ele>20.5</ele>
        <time>2023-01-20T13:26:09Z</time>
      </trkpt>
      <trkpt lat="49.91034" lon="2.27981">
        <ele>20.5</ele>
        <time>2023-01-20T13:26:10Z</time>
      </trkpt>
      <trkpt lat="49.91035" lon="2.2798">
        <ele>20.5</ele>
        <time>2023-01-20T13:26:11Z</time>
      </trkpt>
      <trkpt lat="49.91036" lon="2.27978">
        <ele>20.4</ele>
        <time>2023-01-20T13:26:12Z</time>
      </trkpt>
      <trkpt lat="49.91038" lon="2.27976">
        <ele>20.4</ele>
        <time>2023-01-20T13:26:13Z</time>
      </trkpt>
      <trkpt lat="49.91039" lon="2.27975">
        <ele>20.4</ele>
        <time>2023-01-20T13:26:15Z</time>
      </trkpt>
      <trkpt lat="49.91039" lon="2.27974">
        <ele>20.4</ele>
        <time>2023-01-20T13:26:16Z</time>
      </trkpt>
      <trkpt lat="49.91041" lon="2.27973">
        <ele>20.4</ele>
        <time>2023-01-20T13:26:17Z</time>
      </trkpt>
      <trkpt lat="49.91042" lon="2.27972">
        <ele>20.4</ele>
        <time>2023-01-20T13:26:18Z</time>
      </trkpt>
      <trkpt lat="49.91044" lon="2.27971">
        <ele>20.4</ele>
        <time>2023-01-20T13:26:19Z</time>
      </trkpt>
      <trkpt lat="49.91044" lon="2.2797">
        <ele>20.4</ele>
        <time>2023-01-20T13:26:20Z</time>
      </trkpt>
      <trkpt lat="49.91045" lon="2.27969">
        <ele>20.4</ele>
        <time>2023-01-20T13:26:21Z</time>
      </trkpt>
      <trkpt lat="49.91047" lon="2.27967">
        <ele>20.4</ele>
        <time>2023-01-20T13:26:23Z</time>
      </trkpt>
      <trkpt lat="49.91047" lon="2.27966">
        <ele>20.4</ele>
        <time>2023-01-20T13:26:24Z</time>
      </trkpt>
      <trkpt lat="49.91047" lon="2.27965">
        <ele>20.4</ele>
        <time>2023-01-20T13:26:25Z</time>
      </trkpt>
      <trkpt lat="49.91048" lon="2.27963">
        <ele>20.4</ele>
        <time>2023-01-20T13:26:26Z</time>
      </trkpt>
      <trkpt lat="49.91049" lon="2.27961">
        <ele>20.4</ele>
        <time>2023-01-20T13:26:27Z</time>
      </trkpt>
      <trkpt lat="49.9105" lon="2.2796">
        <ele>20.4</ele>
        <time>2023-01-20T13:26:28Z</time>
      </trkpt>
      <trkpt lat="49.91051" lon="2.27959">
        <ele>20.4</ele>
        <time>2023-01-20T13:26:29Z</time>
      </trkpt>
      <trkpt lat="49.91051" lon="2.27958">
        <ele>20.4</ele>
        <time>2023-01-20T13:26:30Z</time>
      </trkpt>
      <trkpt lat="49.91052" lon="2.27957">
        <ele>20.4</ele>
        <time>2023-01-20T13:26:32Z</time>
      </trkpt>
      <trkpt lat="49.91053" lon="2.27956">
        <ele>20.3</ele>
        <time>2023-01-20T13:26:33Z</time>
      </trkpt>
      <trkpt lat="49.91054" lon="2.27955">
        <ele>20.3</ele>
        <time>2023-01-20T13:26:34Z</time>
      </trkpt>
      <trkpt lat="49.91056" lon="2.27953">
        <ele>20.3</ele>
        <time>2023-01-20T13:26:35Z</time>
      </trkpt>
      <trkpt lat="49.91056" lon="2.27952">
        <ele>20.3</ele>
        <time>2023-01-20T13:26:36Z</time>
      </trkpt>
      <trkpt lat="49.91057" lon="2.27951">
        <ele>20.3</ele>
        <time>2023-01-20T13:26:37Z</time>
      </trkpt>
      <trkpt lat="49.91058" lon="2.2795">
        <ele>20.3</ele>
        <time>2023-01-20T13:26:38Z</time>
      </trkpt>
      <trkpt lat="49.91058" lon="2.27948">
        <ele>20.3</ele>
        <time>2023-01-20T13:26:39Z</time>
      </trkpt>
      <trkpt lat="49.91059" lon="2.27947">
        <ele>20.3</ele>
        <time>2023-01-20T13:26:41Z</time>
      </trkpt>
      <trkpt lat="49.9106" lon="2.27946">
        <ele>20.3</ele>
        <time>2023-01-20T13:26:42Z</time>
      </trkpt>
      <trkpt lat="49.91061" lon="2.27944">
        <ele>20.3</ele>
        <time>2023-01-20T13:26:43Z</time>
      </trkpt>
      <trkpt lat="49.91062" lon="2.27943">
        <ele>20.3</ele>
        <time>2023-01-20T13:26:44Z</time>
      </trkpt>
      <trkpt lat="49.91064" lon="2.27941">
        <ele>20.3</ele>
        <time>2023-01-20T13:26:45Z</time>
      </trkpt>
      <trkpt lat="49.91064" lon="2.2794">
        <ele>20.3</ele>
        <time>2023-01-20T13:26:46Z</time>
      </trkpt>
      <trkpt lat="49.91065" lon="2.27938">
        <ele>20.3</ele>
        <time>2023-01-20T13:26:47Z</time>
      </trkpt>
      <trkpt lat="49.91065" lon="2.27937">
        <ele>20.3</ele>
        <time>2023-01-20T13:26:48Z</time>
      </trkpt>
      <trkpt lat="49.91066" lon="2.27936">
        <ele>20.3</ele>
        <time>2023-01-20T13:26:50Z</time>
      </trkpt>
      <trkpt lat="49.91067" lon="2.27935">
        <ele>20.3</ele>
        <time>2023-01-20T13:26:51Z</time>
      </trkpt>
      <trkpt lat="49.91068" lon="2.27933">
        <ele>20.3</ele>
        <time>2023-01-20T13:26:52Z</time>
      </trkpt>
      <trkpt lat="49.91069" lon="2.27931">
        <ele>20.3</ele>
        <time>2023-01-20T13:26:53Z</time>
      </trkpt>
      <trkpt lat="49.9107" lon="2.2793">
        <ele>20.3</ele>
        <time>2023-01-20T13:26:54Z</time>
      </trkpt>
      <trkpt lat="49.9107" lon="2.27929">
        <ele>20.3</ele>
        <time>2023-01-20T13:26:55Z</time>
      </trkpt>
      <trkpt lat="49.91071" lon="2.27928">
        <ele>20.3</ele>
        <time>2023-01-20T13:26:56Z</time>
      </trkpt>
      <trkpt lat="49.91073" lon="2.27926">
        <ele>20.3</ele>
        <time>2023-01-20T13:26:57Z</time>
      </trkpt>
      <trkpt lat="49.91073" lon="2.27925">
        <ele>20.3</ele>
        <time>2023-01-20T13:26:58Z</time>
      </trkpt>
      <trkpt lat="49.91075" lon="2.27923">
        <ele>20.3</ele>
        <time>2023-01-20T13:27:00Z</time>
      </trkpt>
      <trkpt lat="49.91075" lon="2.27922">
        <ele>20.3</ele>
        <time>2023-01-20T13:27:01Z</time>
      </trkpt>
      <trkpt lat="49.91076" lon="2.27921">
        <ele>20.3</ele>
        <time>2023-01-20T13:27:02Z</time>
      </trkpt>
      <trkpt lat="49.91077" lon="2.2792">
        <ele>20.3</ele>
        <time>2023-01-20T13:27:03Z</time>
      </trkpt>
      <trkpt lat="49.91078" lon="2.27919">
        <ele>20.3</ele>
        <time>2023-01-20T13:27:04Z</time>
      </trkpt>
      <trkpt lat="49.91079" lon="2.27918">
        <ele>20.3</ele>
        <time>2023-01-20T13:27:05Z</time>
      </trkpt>
      <trkpt lat="49.91082" lon="2.27915">
        <ele>20.3</ele>
        <time>2023-01-20T13:27:07Z</time>
      </trkpt>
      <trkpt lat="49.91082" lon="2.27915">
        <ele>20.3</ele>
        <time>2023-01-20T13:27:09Z</time>
      </trkpt>
      <trkpt lat="49.91083" lon="2.27913">
        <ele>20.3</ele>
        <time>2023-01-20T13:27:10Z</time>
      </trkpt>
      <trkpt lat="49.91084" lon="2.27912">
        <ele>20.3</ele>
        <time>2023-01-20T13:27:11Z</time>
      </trkpt>
      <trkpt lat="49.91085" lon="2.27911">
        <ele>20.3</ele>
        <time>2023-01-20T13:27:12Z</time>
      </trkpt>
      <trkpt lat="49.91086" lon="2.2791">
        <ele>20.3</ele>
        <time>2023-01-20T13:27:13Z</time>
      </trkpt>
      <trkpt lat="49.91087" lon="2.27909">
        <ele>20.3</ele>
        <time>2023-01-20T13:27:14Z</time>
      </trkpt>
      <trkpt lat="49.91088" lon="2.27907">
        <ele>20.3</ele>
        <time>2023-01-20T13:27:15Z</time>
      </trkpt>
      <trkpt lat="49.91089" lon="2.27906">
        <ele>20.3</ele>
        <time>2023-01-20T13:27:17Z</time>
      </trkpt>
      <trkpt lat="49.9109" lon="2.27905">
        <ele>20.3</ele>
        <time>2023-01-20T13:27:18Z</time>
      </trkpt>
      <trkpt lat="49.9109" lon="2.27904">
        <ele>20.3</ele>
        <time>2023-01-20T13:27:19Z</time>
      </trkpt>
      <trkpt lat="49.91091" lon="2.27903">
        <ele>20.3</ele>
        <time>2023-01-20T13:27:20Z</time>
      </trkpt>
      <trkpt lat="49.91093" lon="2.27902">
        <ele>20.3</ele>
        <time>2023-01-20T13:27:22Z</time>
      </trkpt>
      <trkpt lat="49.91094" lon="2.27899">
        <ele>20.3</ele>
        <time>2023-01-20T13:27:23Z</time>
      </trkpt>
      <trkpt lat="49.91095" lon="2.27899">
        <ele>20.3</ele>
        <time>2023-01-20T13:27:24Z</time>
      </trkpt>
      <trkpt lat="49.91096" lon="2.27898">
        <ele>20.3</ele>
        <time>2023-01-20T13:27:25Z</time>
      </trkpt>
      <trkpt lat="49.91097" lon="2.27897">
        <ele>20.3</ele>
        <time>2023-01-20T13:27:26Z</time>
      </trkpt>
      <trkpt lat="49.91098" lon="2.27894">
        <ele>20.3</ele>
        <time>2023-01-20T13:27:27Z</time>
      </trkpt>
      <trkpt lat="49.91098" lon="2.27893">
        <ele>20.3</ele>
        <time>2023-01-20T13:27:28Z</time>
      </trkpt>
      <trkpt lat="49.91099" lon="2.27892">
        <ele>20.3</ele>
        <time>2023-01-20T13:27:30Z</time>
      </trkpt>
      <trkpt lat="49.911" lon="2.27891">
        <ele>20.3</ele>
        <time>2023-01-20T13:27:31Z</time>
      </trkpt>
      <trkpt lat="49.911" lon="2.2789">
        <ele>20.3</ele>
        <time>2023-01-20T13:27:32Z</time>
      </trkpt>
      <trkpt lat="49.91101" lon="2.27889">
        <ele>20.3</ele>
        <time>2023-01-20T13:27:33Z</time>
      </trkpt>
      <trkpt lat="49.91102" lon="2.27888">
        <ele>20.3</ele>
        <time>2023-01-20T13:27:34Z</time>
      </trkpt>
      <trkpt lat="49.91102" lon="2.27887">
        <ele>20.3</ele>
        <time>2023-01-20T13:27:35Z</time>
      </trkpt>
      <trkpt lat="49.91103" lon="2.27886">
        <ele>20.3</ele>
        <time>2023-01-20T13:27:36Z</time>
      </trkpt>
      <trkpt lat="49.91104" lon="2.27884">
        <ele>20.3</ele>
        <time>2023-01-20T13:27:37Z</time>
      </trkpt>
      <trkpt lat="49.91105" lon="2.27883">
        <ele>20.3</ele>
        <time>2023-01-20T13:27:38Z</time>
      </trkpt>
      <trkpt lat="49.91106" lon="2.27882">
        <ele>20.3</ele>
        <time>2023-01-20T13:27:40Z</time>
      </trkpt>
      <trkpt lat="49.91107" lon="2.27881">
        <ele>20.3</ele>
        <time>2023-01-20T13:27:41Z</time>
      </trkpt>
      <trkpt lat="49.91108" lon="2.27879">
        <ele>20.3</ele>
        <time>2023-01-20T13:27:42Z</time>
      </trkpt>
      <trkpt lat="49.91109" lon="2.27878">
        <ele>20.3</ele>
        <time>2023-01-20T13:27:43Z</time>
      </trkpt>
      <trkpt lat="49.9111" lon="2.27877">
        <ele>20.3</ele>
        <time>2023-01-20T13:27:44Z</time>
      </trkpt>
      <trkpt lat="49.9111" lon="2.27876">
        <ele>20.3</ele>
        <time>2023-01-20T13:27:45Z</time>
      </trkpt>
      <trkpt lat="49.91111" lon="2.27874">
        <ele>20.3</ele>
        <time>2023-01-20T13:27:46Z</time>
      </trkpt>
      <trkpt lat="49.91113" lon="2.27872">
        <ele>20.3</ele>
        <time>2023-01-20T13:27:47Z</time>
      </trkpt>
      <trkpt lat="49.91113" lon="2.27871">
        <ele>20.3</ele>
        <time>2023-01-20T13:27:48Z</time>
      </trkpt>
      <trkpt lat="49.91115" lon="2.27869">
        <ele>20.3</ele>
        <time>2023-01-20T13:27:50Z</time>
      </trkpt>
      <trkpt lat="49.91115" lon="2.27868">
        <ele>20.3</ele>
        <time>2023-01-20T13:27:51Z</time>
      </trkpt>
      <trkpt lat="49.91116" lon="2.27867">
        <ele>20.3</ele>
        <time>2023-01-20T13:27:52Z</time>
      </trkpt>
      <trkpt lat="49.91117" lon="2.27866">
        <ele>20.3</ele>
        <time>2023-01-20T13:27:53Z</time>
      </trkpt>
      <trkpt lat="49.91118" lon="2.27865">
        <ele>20.3</ele>
        <time>2023-01-20T13:27:54Z</time>
      </trkpt>
      <trkpt lat="49.91119" lon="2.27864">
        <ele>20.3</ele>
        <time>2023-01-20T13:27:55Z</time>
      </trkpt>
      <trkpt lat="49.9112" lon="2.27863">
        <ele>20.3</ele>
        <time>2023-01-20T13:27:56Z</time>
      </trkpt>
      <trkpt lat="49.91121" lon="2.27861">
        <ele>20.3</ele>
        <time>2023-01-20T13:27:57Z</time>
      </trkpt>
      <trkpt lat="49.91122" lon="2.27859">
        <ele>20.3</ele>
        <time>2023-01-20T13:27:58Z</time>
      </trkpt>
      <trkpt lat="49.91123" lon="2.27858">
        <ele>20.3</ele>
        <time>2023-01-20T13:28:00Z</time>
      </trkpt>
      <trkpt lat="49.91124" lon="2.27857">
        <ele>20.3</ele>
        <time>2023-01-20T13:28:01Z</time>
      </trkpt>
      <trkpt lat="49.91125" lon="2.27856">
        <ele>20.3</ele>
        <time>2023-01-20T13:28:02Z</time>
      </trkpt>
      <trkpt lat="49.91126" lon="2.27854">
        <ele>20.3</ele>
        <time>2023-01-20T13:28:03Z</time>
      </trkpt>
      <trkpt lat="49.91128" lon="2.27852">
        <ele>20.3</ele>
        <time>2023-01-20T13:28:04Z</time>
      </trkpt>
      <trkpt lat="49.91128" lon="2.27851">
        <ele>20.3</ele>
        <time>2023-01-20T13:28:05Z</time>
      </trkpt>
      <trkpt lat="49.91129" lon="2.27851">
        <ele>20.3</ele>
        <time>2023-01-20T13:28:06Z</time>
      </trkpt>
      <trkpt lat="49.9113" lon="2.27849">
        <ele>20.3</ele>
        <time>2023-01-20T13:28:07Z</time>
      </trkpt>
      <trkpt lat="49.91131" lon="2.27848">
        <ele>20.3</ele>
        <time>2023-01-20T13:28:08Z</time>
      </trkpt>
      <trkpt lat="49.91132" lon="2.27847">
        <ele>20.3</ele>
        <time>2023-01-20T13:28:10Z</time>
      </trkpt>
      <trkpt lat="49.91133" lon="2.27845">
        <ele>20.3</ele>
        <time>2023-01-20T13:28:11Z</time>
      </trkpt>
      <trkpt lat="49.91134" lon="2.27844">
        <ele>20.3</ele>
        <time>2023-01-20T13:28:12Z</time>
      </trkpt>
      <trkpt lat="49.91135" lon="2.27843">
        <ele>20.3</ele>
        <time>2023-01-20T13:28:13Z</time>
      </trkpt>
      <trkpt lat="49.91135" lon="2.27841">
        <ele>20.3</ele>
        <time>2023-01-20T13:28:14Z</time>
      </trkpt>
      <trkpt lat="49.91136" lon="2.2784">
        <ele>20.3</ele>
        <time>2023-01-20T13:28:15Z</time>
      </trkpt>
      <trkpt lat="49.91138" lon="2.27838">
        <ele>20.3</ele>
        <time>2023-01-20T13:28:16Z</time>
      </trkpt>
      <trkpt lat="49.91138" lon="2.27837">
        <ele>20.3</ele>
        <time>2023-01-20T13:28:17Z</time>
      </trkpt>
      <trkpt lat="49.91139" lon="2.27836">
        <ele>20.3</ele>
        <time>2023-01-20T13:28:18Z</time>
      </trkpt>
      <trkpt lat="49.9114" lon="2.27835">
        <ele>20.3</ele>
        <time>2023-01-20T13:28:20Z</time>
      </trkpt>
      <trkpt lat="49.9114" lon="2.27834">
        <ele>20.3</ele>
        <time>2023-01-20T13:28:21Z</time>
      </trkpt>
      <trkpt lat="49.91141" lon="2.27832">
        <ele>20.3</ele>
        <time>2023-01-20T13:28:22Z</time>
      </trkpt>
      <trkpt lat="49.91142" lon="2.2783">
        <ele>20.3</ele>
        <time>2023-01-20T13:28:23Z</time>
      </trkpt>
      <trkpt lat="49.91143" lon="2.27829">
        <ele>20.3</ele>
        <time>2023-01-20T13:28:24Z</time>
      </trkpt>
      <trkpt lat="49.91144" lon="2.27828">
        <ele>20.3</ele>
        <time>2023-01-20T13:28:25Z</time>
      </trkpt>
      <trkpt lat="49.91145" lon="2.27826">
        <ele>20.3</ele>
        <time>2023-01-20T13:28:26Z</time>
      </trkpt>
      <trkpt lat="49.91145" lon="2.27825">
        <ele>20.3</ele>
        <time>2023-01-20T13:28:27Z</time>
      </trkpt>
      <trkpt lat="49.91146" lon="2.27824">
        <ele>20.3</ele>
        <time>2023-01-20T13:28:28Z</time>
      </trkpt>
      <trkpt lat="49.91146" lon="2.27823">
        <ele>20.3</ele>
        <time>2023-01-20T13:28:29Z</time>
      </trkpt>
      <trkpt lat="49.91147" lon="2.27821">
        <ele>20.3</ele>
        <time>2023-01-20T13:28:31Z</time>
      </trkpt>
      <trkpt lat="49.91148" lon="2.2782">
        <ele>20.3</ele>
        <time>2023-01-20T13:28:32Z</time>
      </trkpt>
      <trkpt lat="49.91149" lon="2.27818">
        <ele>20.3</ele>
        <time>2023-01-20T13:28:33Z</time>
      </trkpt>
      <trkpt lat="49.91149" lon="2.27817">
        <ele>20.3</ele>
        <time>2023-01-20T13:28:34Z</time>
      </trkpt>
      <trkpt lat="49.9115" lon="2.27816">
        <ele>20.3</ele>
        <time>2023-01-20T13:28:35Z</time>
      </trkpt>
      <trkpt lat="49.91151" lon="2.27813">
        <ele>20.3</ele>
        <time>2023-01-20T13:28:36Z</time>
      </trkpt>
      <trkpt lat="49.91151" lon="2.27812">
        <ele>20.3</ele>
        <time>2023-01-20T13:28:37Z</time>
      </trkpt>
      <trkpt lat="49.91152" lon="2.27811">
        <ele>20.3</ele>
        <time>2023-01-20T13:28:38Z</time>
      </trkpt>
      <trkpt lat="49.91152" lon="2.2781">
        <ele>20.3</ele>
        <time>2023-01-20T13:28:39Z</time>
      </trkpt>
      <trkpt lat="49.91153" lon="2.27809">
        <ele>20.3</ele>
        <time>2023-01-20T13:28:41Z</time>
      </trkpt>
      <trkpt lat="49.91154" lon="2.27807">
        <ele>20.3</ele>
        <time>2023-01-20T13:28:42Z</time>
      </trkpt>
      <trkpt lat="49.91156" lon="2.27805">
        <ele>20.3</ele>
        <time>2023-01-20T13:28:43Z</time>
      </trkpt>
      <trkpt lat="49.91156" lon="2.27805">
        <ele>20.3</ele>
        <time>2023-01-20T13:28:44Z</time>
      </trkpt>
      <trkpt lat="49.91157" lon="2.27804">
        <ele>20.3</ele>
        <time>2023-01-20T13:28:45Z</time>
      </trkpt>
      <trkpt lat="49.91158" lon="2.27803">
        <ele>20.3</ele>
        <time>2023-01-20T13:28:46Z</time>
      </trkpt>
      <trkpt lat="49.91159" lon="2.27802">
        <ele>20.3</ele>
        <time>2023-01-20T13:28:47Z</time>
      </trkpt>
      <trkpt lat="49.91162" lon="2.27799">
        <ele>20.3</ele>
        <time>2023-01-20T13:28:48Z</time>
      </trkpt>
      <trkpt lat="49.91162" lon="2.27799">
        <ele>20.3</ele>
        <time>2023-01-20T13:28:50Z</time>
      </trkpt>
      <trkpt lat="49.91163" lon="2.27798">
        <ele>20.3</ele>
        <time>2023-01-20T13:28:51Z</time>
      </trkpt>
      <trkpt lat="49.91164" lon="2.27797">
        <ele>20.3</ele>
        <time>2023-01-20T13:28:52Z</time>
      </trkpt>
      <trkpt lat="49.91165" lon="2.27796">
        <ele>20.3</ele>
        <time>2023-01-20T13:28:53Z</time>
      </trkpt>
      <trkpt lat="49.91166" lon="2.27796">
        <ele>20.3</ele>
        <time>2023-01-20T13:28:54Z</time>
      </trkpt>
      <trkpt lat="49.91167" lon="2.27795">
        <ele>20.3</ele>
        <time>2023-01-20T13:28:55Z</time>
      </trkpt>
      <trkpt lat="49.91168" lon="2.27794">
        <ele>20.3</ele>
        <time>2023-01-20T13:28:56Z</time>
      </trkpt>
      <trkpt lat="49.91169" lon="2.27793">
        <ele>20.3</ele>
        <time>2023-01-20T13:28:57Z</time>
      </trkpt>
      <trkpt lat="49.91171" lon="2.27792">
        <ele>20.3</ele>
        <time>2023-01-20T13:28:58Z</time>
      </trkpt>
      <trkpt lat="49.91171" lon="2.2779">
        <ele>20.3</ele>
        <time>2023-01-20T13:29:00Z</time>
      </trkpt>
      <trkpt lat="49.91172" lon="2.27789">
        <ele>20.3</ele>
        <time>2023-01-20T13:29:01Z</time>
      </trkpt>
      <trkpt lat="49.91173" lon="2.27788">
        <ele>20.3</ele>
        <time>2023-01-20T13:29:02Z</time>
      </trkpt>
      <trkpt lat="49.91174" lon="2.27787">
        <ele>20.3</ele>
        <time>2023-01-20T13:29:03Z</time>
      </trkpt>
      <trkpt lat="49.91175" lon="2.27785">
        <ele>20.3</ele>
        <time>2023-01-20T13:29:04Z</time>
      </trkpt>
      <trkpt lat="49.91177" lon="2.27783">
        <ele>20.3</ele>
        <time>2023-01-20T13:29:05Z</time>
      </trkpt>
      <trkpt lat="49.91177" lon="2.27782">
        <ele>20.3</ele>
        <time>2023-01-20T13:29:06Z</time>
      </trkpt>
      <trkpt lat="49.91178" lon="2.27781">
        <ele>20.3</ele>
        <time>2023-01-20T13:29:07Z</time>
      </trkpt>
      <trkpt lat="49.9118" lon="2.27778">
        <ele>20.3</ele>
        <time>2023-01-20T13:29:08Z</time>
      </trkpt>
      <trkpt lat="49.9118" lon="2.27778">
        <ele>20.3</ele>
        <time>2023-01-20T13:29:10Z</time>
      </trkpt>
      <trkpt lat="49.91181" lon="2.27777">
        <ele>20.3</ele>
        <time>2023-01-20T13:29:11Z</time>
      </trkpt>
      <trkpt lat="49.91182" lon="2.27775">
        <ele>20.3</ele>
        <time>2023-01-20T13:29:12Z</time>
      </trkpt>
      <trkpt lat="49.91184" lon="2.27773">
        <ele>20.3</ele>
        <time>2023-01-20T13:29:13Z</time>
      </trkpt>
      <trkpt lat="49.91184" lon="2.27772">
        <ele>20.3</ele>
        <time>2023-01-20T13:29:14Z</time>
      </trkpt>
      <trkpt lat="49.91185" lon="2.27771">
        <ele>20.3</ele>
        <time>2023-01-20T13:29:15Z</time>
      </trkpt>
      <trkpt lat="49.91186" lon="2.27769">
        <ele>20.3</ele>
        <time>2023-01-20T13:29:16Z</time>
      </trkpt>
      <trkpt lat="49.91187" lon="2.27768">
        <ele>20.3</ele>
        <time>2023-01-20T13:29:18Z</time>
      </trkpt>
      <trkpt lat="49.91188" lon="2.27766">
        <ele>20.3</ele>
        <time>2023-01-20T13:29:19Z</time>
      </trkpt>
      <trkpt lat="49.91189" lon="2.27765">
        <ele>20.3</ele>
        <time>2023-01-20T13:29:20Z</time>
      </trkpt>
      <trkpt lat="49.9119" lon="2.27763">
        <ele>20.3</ele>
        <time>2023-01-20T13:29:21Z</time>
      </trkpt>
      <trkpt lat="49.91191" lon="2.27762">
        <ele>20.3</ele>
        <time>2023-01-20T13:29:23Z</time>
      </trkpt>
      <trkpt lat="49.91193" lon="2.2776">
        <ele>20.3</ele>
        <time>2023-01-20T13:29:24Z</time>
      </trkpt>
      <trkpt lat="49.91193" lon="2.27759">
        <ele>20.3</ele>
        <time>2023-01-20T13:29:25Z</time>
      </trkpt>
      <trkpt lat="49.91195" lon="2.27757">
        <ele>20.3</ele>
        <time>2023-01-20T13:29:26Z</time>
      </trkpt>
      <trkpt lat="49.91196" lon="2.27757">
        <ele>20.3</ele>
        <time>2023-01-20T13:29:27Z</time>
      </trkpt>
      <trkpt lat="49.91196" lon="2.27756">
        <ele>20.3</ele>
        <time>2023-01-20T13:29:28Z</time>
      </trkpt>
      <trkpt lat="49.91198" lon="2.27753">
        <ele>20.3</ele>
        <time>2023-01-20T13:29:29Z</time>
      </trkpt>
      <trkpt lat="49.91199" lon="2.27752">
        <ele>20.3</ele>
        <time>2023-01-20T13:29:31Z</time>
      </trkpt>
      <trkpt lat="49.912" lon="2.27751">
        <ele>20.3</ele>
        <time>2023-01-20T13:29:32Z</time>
      </trkpt>
      <trkpt lat="49.91201" lon="2.2775">
        <ele>20.3</ele>
        <time>2023-01-20T13:29:33Z</time>
      </trkpt>
      <trkpt lat="49.91202" lon="2.27749">
        <ele>20.3</ele>
        <time>2023-01-20T13:29:34Z</time>
      </trkpt>
      <trkpt lat="49.91203" lon="2.27748">
        <ele>20.3</ele>
        <time>2023-01-20T13:29:35Z</time>
      </trkpt>
      <trkpt lat="49.91204" lon="2.27747">
        <ele>20.3</ele>
        <time>2023-01-20T13:29:36Z</time>
      </trkpt>
      <trkpt lat="49.91205" lon="2.27746">
        <ele>20.3</ele>
        <time>2023-01-20T13:29:37Z</time>
      </trkpt>
      <trkpt lat="49.91206" lon="2.27744">
        <ele>20.3</ele>
        <time>2023-01-20T13:29:38Z</time>
      </trkpt>
      <trkpt lat="49.91206" lon="2.27744">
        <ele>20.3</ele>
        <time>2023-01-20T13:29:39Z</time>
      </trkpt>
      <trkpt lat="49.91207" lon="2.27742">
        <ele>20.3</ele>
        <time>2023-01-20T13:29:41Z</time>
      </trkpt>
      <trkpt lat="49.91208" lon="2.27741">
        <ele>20.3</ele>
        <time>2023-01-20T13:29:42Z</time>
      </trkpt>
      <trkpt lat="49.91209" lon="2.27739">
        <ele>20.3</ele>
        <time>2023-01-20T13:29:43Z</time>
      </trkpt>
      <trkpt lat="49.91211" lon="2.27737">
        <ele>20.3</ele>
        <time>2023-01-20T13:29:44Z</time>
      </trkpt>
      <trkpt lat="49.91211" lon="2.27736">
        <ele>20.3</ele>
        <time>2023-01-20T13:29:45Z</time>
      </trkpt>
      <trkpt lat="49.91213" lon="2.27734">
        <ele>20.3</ele>
        <time>2023-01-20T13:29:46Z</time>
      </trkpt>
      <trkpt lat="49.91214" lon="2.27733">
        <ele>20.3</ele>
        <time>2023-01-20T13:29:47Z</time>
      </trkpt>
      <trkpt lat="49.91214" lon="2.27731">
        <ele>20.3</ele>
        <time>2023-01-20T13:29:48Z</time>
      </trkpt>
      <trkpt lat="49.91215" lon="2.2773">
        <ele>20.3</ele>
        <time>2023-01-20T13:29:49Z</time>
      </trkpt>
      <trkpt lat="49.91216" lon="2.27729">
        <ele>20.3</ele>
        <time>2023-01-20T13:29:50Z</time>
      </trkpt>
      <trkpt lat="49.91217" lon="2.27728">
        <ele>20.3</ele>
        <time>2023-01-20T13:29:52Z</time>
      </trkpt>
      <trkpt lat="49.91218" lon="2.27727">
        <ele>20.3</ele>
        <time>2023-01-20T13:29:53Z</time>
      </trkpt>
      <trkpt lat="49.91219" lon="2.27725">
        <ele>20.3</ele>
        <time>2023-01-20T13:29:54Z</time>
      </trkpt>
      <trkpt lat="49.91221" lon="2.27723">
        <ele>20.3</ele>
        <time>2023-01-20T13:29:55Z</time>
      </trkpt>
      <trkpt lat="49.91222" lon="2.27722">
        <ele>20.3</ele>
        <time>2023-01-20T13:29:56Z</time>
      </trkpt>
      <trkpt lat="49.91222" lon="2.27721">
        <ele>20.3</ele>
        <time>2023-01-20T13:29:57Z</time>
      </trkpt>
      <trkpt lat="49.91224" lon="2.27719">
        <ele>20.3</ele>
        <time>2023-01-20T13:29:59Z</time>
      </trkpt>
      <trkpt lat="49.91225" lon="2.27718">
        <ele>20.4</ele>
        <time>2023-01-20T13:30:00Z</time>
      </trkpt>
      <trkpt lat="49.91226" lon="2.27717">
        <ele>20.4</ele>
        <time>2023-01-20T13:30:01Z</time>
      </trkpt>
      <trkpt lat="49.91227" lon="2.27715">
        <ele>20.4</ele>
        <time>2023-01-20T13:30:02Z</time>
      </trkpt>
      <trkpt lat="49.91228" lon="2.27714">
        <ele>20.4</ele>
        <time>2023-01-20T13:30:03Z</time>
      </trkpt>
      <trkpt lat="49.91229" lon="2.27712">
        <ele>20.4</ele>
        <time>2023-01-20T13:30:04Z</time>
      </trkpt>
      <trkpt lat="49.9123" lon="2.27711">
        <ele>20.4</ele>
        <time>2023-01-20T13:30:06Z</time>
      </trkpt>
      <trkpt lat="49.91231" lon="2.2771">
        <ele>20.4</ele>
        <time>2023-01-20T13:30:07Z</time>
      </trkpt>
      <trkpt lat="49.91232" lon="2.27709">
        <ele>20.4</ele>
        <time>2023-01-20T13:30:08Z</time>
      </trkpt>
      <trkpt lat="49.91233" lon="2.27708">
        <ele>20.4</ele>
        <time>2023-01-20T13:30:09Z</time>
      </trkpt>
      <trkpt lat="49.91233" lon="2.27707">
        <ele>20.4</ele>
        <time>2023-01-20T13:30:10Z</time>
      </trkpt>
      <trkpt lat="49.91234" lon="2.27706">
        <ele>20.4</ele>
        <time>2023-01-20T13:30:11Z</time>
      </trkpt>
      <trkpt lat="49.91235" lon="2.27705">
        <ele>20.4</ele>
        <time>2023-01-20T13:30:12Z</time>
      </trkpt>
      <trkpt lat="49.91237" lon="2.27702">
        <ele>20.4</ele>
        <time>2023-01-20T13:30:14Z</time>
      </trkpt>
      <trkpt lat="49.91238" lon="2.27701">
        <ele>20.4</ele>
        <time>2023-01-20T13:30:15Z</time>
      </trkpt>
      <trkpt lat="49.91239" lon="2.27699">
        <ele>20.4</ele>
        <time>2023-01-20T13:30:17Z</time>
      </trkpt>
      <trkpt lat="49.9124" lon="2.27698">
        <ele>20.4</ele>
        <time>2023-01-20T13:30:18Z</time>
      </trkpt>
      <trkpt lat="49.9124" lon="2.27697">
        <ele>20.4</ele>
        <time>2023-01-20T13:30:19Z</time>
      </trkpt>
      <trkpt lat="49.91241" lon="2.27697">
        <ele>20.4</ele>
        <time>2023-01-20T13:30:20Z</time>
      </trkpt>
      <trkpt lat="49.91242" lon="2.27695">
        <ele>20.4</ele>
        <time>2023-01-20T13:30:21Z</time>
      </trkpt>
      <trkpt lat="49.91242" lon="2.27694">
        <ele>20.4</ele>
        <time>2023-01-20T13:30:22Z</time>
      </trkpt>
      <trkpt lat="49.91244" lon="2.27692">
        <ele>20.4</ele>
        <time>2023-01-20T13:30:23Z</time>
      </trkpt>
      <trkpt lat="49.91244" lon="2.27691">
        <ele>20.4</ele>
        <time>2023-01-20T13:30:24Z</time>
      </trkpt>
      <trkpt lat="49.91245" lon="2.2769">
        <ele>20.4</ele>
        <time>2023-01-20T13:30:25Z</time>
      </trkpt>
      <trkpt lat="49.91245" lon="2.27688">
        <ele>20.4</ele>
        <time>2023-01-20T13:30:26Z</time>
      </trkpt>
      <trkpt lat="49.91246" lon="2.27687">
        <ele>20.4</ele>
        <time>2023-01-20T13:30:27Z</time>
      </trkpt>
      <trkpt lat="49.91247" lon="2.27685">
        <ele>20.4</ele>
        <time>2023-01-20T13:30:29Z</time>
      </trkpt>
      <trkpt lat="49.91247" lon="2.27684">
        <ele>20.4</ele>
        <time>2023-01-20T13:30:30Z</time>
      </trkpt>
      <trkpt lat="49.91248" lon="2.27682">
        <ele>20.4</ele>
        <time>2023-01-20T13:30:31Z</time>
      </trkpt>
      <trkpt lat="49.91249" lon="2.27681">
        <ele>20.4</ele>
        <time>2023-01-20T13:30:32Z</time>
      </trkpt>
      <trkpt lat="49.9125" lon="2.27679">
        <ele>20.4</ele>
        <time>2023-01-20T13:30:33Z</time>
      </trkpt>
      <trkpt lat="49.91251" lon="2.27677">
        <ele>20.4</ele>
        <time>2023-01-20T13:30:34Z</time>
      </trkpt>
      <trkpt lat="49.91252" lon="2.27675">
        <ele>20.4</ele>
        <time>2023-01-20T13:30:36Z</time>
      </trkpt>
      <trkpt lat="49.91253" lon="2.27674">
        <ele>20.4</ele>
        <time>2023-01-20T13:30:37Z</time>
      </trkpt>
      <trkpt lat="49.91254" lon="2.27673">
        <ele>20.4</ele>
        <time>2023-01-20T13:30:38Z</time>
      </trkpt>
      <trkpt lat="49.91255" lon="2.2767">
        <ele>20.4</ele>
        <time>2023-01-20T13:30:39Z</time>
      </trkpt>
      <trkpt lat="49.91255" lon="2.27669">
        <ele>20.4</ele>
        <time>2023-01-20T13:30:40Z</time>
      </trkpt>
      <trkpt lat="49.91257" lon="2.27666">
        <ele>20.5</ele>
        <time>2023-01-20T13:30:42Z</time>
      </trkpt>
      <trkpt lat="49.91257" lon="2.27664">
        <ele>20.5</ele>
        <time>2023-01-20T13:30:43Z</time>
      </trkpt>
      <trkpt lat="49.91258" lon="2.27663">
        <ele>20.5</ele>
        <time>2023-01-20T13:30:44Z</time>
      </trkpt>
      <trkpt lat="49.91259" lon="2.27662">
        <ele>20.5</ele>
        <time>2023-01-20T13:30:45Z</time>
      </trkpt>
      <trkpt lat="49.9126" lon="2.27661">
        <ele>20.5</ele>
        <time>2023-01-20T13:30:46Z</time>
      </trkpt>
      <trkpt lat="49.91261" lon="2.2766">
        <ele>20.5</ele>
        <time>2023-01-20T13:30:47Z</time>
      </trkpt>
      <trkpt lat="49.91262" lon="2.27659">
        <ele>20.5</ele>
        <time>2023-01-20T13:30:48Z</time>
      </trkpt>
      <trkpt lat="49.91263" lon="2.27657">
        <ele>20.5</ele>
        <time>2023-01-20T13:30:49Z</time>
      </trkpt>
      <trkpt lat="49.91265" lon="2.27655">
        <ele>20.5</ele>
        <time>2023-01-20T13:30:50Z</time>
      </trkpt>
      <trkpt lat="49.91265" lon="2.27654">
        <ele>20.5</ele>
        <time>2023-01-20T13:30:51Z</time>
      </trkpt>
      <trkpt lat="49.91266" lon="2.27654">
        <ele>20.5</ele>
        <time>2023-01-20T13:30:52Z</time>
      </trkpt>
      <trkpt lat="49.91268" lon="2.27652">
        <ele>20.5</ele>
        <time>2023-01-20T13:30:54Z</time>
      </trkpt>
      <trkpt lat="49.91268" lon="2.27651">
        <ele>20.5</ele>
        <time>2023-01-20T13:30:55Z</time>
      </trkpt>
      <trkpt lat="49.91269" lon="2.2765">
        <ele>20.5</ele>
        <time>2023-01-20T13:30:56Z</time>
      </trkpt>
      <trkpt lat="49.91271" lon="2.27649">
        <ele>20.5</ele>
        <time>2023-01-20T13:30:57Z</time>
      </trkpt>
      <trkpt lat="49.91272" lon="2.27648">
        <ele>20.5</ele>
        <time>2023-01-20T13:30:59Z</time>
      </trkpt>
      <trkpt lat="49.91274" lon="2.27646">
        <ele>20.5</ele>
        <time>2023-01-20T13:31:00Z</time>
      </trkpt>
      <trkpt lat="49.91275" lon="2.27645">
        <ele>20.5</ele>
        <time>2023-01-20T13:31:01Z</time>
      </trkpt>
      <trkpt lat="49.91277" lon="2.27644">
        <ele>20.5</ele>
        <time>2023-01-20T13:31:02Z</time>
      </trkpt>
      <trkpt lat="49.91278" lon="2.27643">
        <ele>20.5</ele>
        <time>2023-01-20T13:31:03Z</time>
      </trkpt>
      <trkpt lat="49.91279" lon="2.27642">
        <ele>20.5</ele>
        <time>2023-01-20T13:31:04Z</time>
      </trkpt>
      <trkpt lat="49.9128" lon="2.27641">
        <ele>20.5</ele>
        <time>2023-01-20T13:31:05Z</time>
      </trkpt>
      <trkpt lat="49.91281" lon="2.2764">
        <ele>20.5</ele>
        <time>2023-01-20T13:31:06Z</time>
      </trkpt>
      <trkpt lat="49.91282" lon="2.27638">
        <ele>20.5</ele>
        <time>2023-01-20T13:31:07Z</time>
      </trkpt>
      <trkpt lat="49.91284" lon="2.27635">
        <ele>20.5</ele>
        <time>2023-01-20T13:31:08Z</time>
      </trkpt>
      <trkpt lat="49.91285" lon="2.27634">
        <ele>20.5</ele>
        <time>2023-01-20T13:31:10Z</time>
      </trkpt>
      <trkpt lat="49.91285" lon="2.27633">
        <ele>20.5</ele>
        <time>2023-01-20T13:31:11Z</time>
      </trkpt>
      <trkpt lat="49.91286" lon="2.27631">
        <ele>20.5</ele>
        <time>2023-01-20T13:31:12Z</time>
      </trkpt>
      <trkpt lat="49.91287" lon="2.2763">
        <ele>20.5</ele>
        <time>2023-01-20T13:31:13Z</time>
      </trkpt>
      <trkpt lat="49.91288" lon="2.27628">
        <ele>20.5</ele>
        <time>2023-01-20T13:31:14Z</time>
      </trkpt>
      <trkpt lat="49.91289" lon="2.27627">
        <ele>20.5</ele>
        <time>2023-01-20T13:31:15Z</time>
      </trkpt>
      <trkpt lat="49.91291" lon="2.27625">
        <ele>20.5</ele>
        <time>2023-01-20T13:31:17Z</time>
      </trkpt>
      <trkpt lat="49.91291" lon="2.27624">
        <ele>20.5</ele>
        <time>2023-01-20T13:31:18Z</time>
      </trkpt>
      <trkpt lat="49.91292" lon="2.27624">
        <ele>20.5</ele>
        <time>2023-01-20T13:31:19Z</time>
      </trkpt>
      <trkpt lat="49.91294" lon="2.27621">
        <ele>20.5</ele>
        <time>2023-01-20T13:31:20Z</time>
      </trkpt>
      <trkpt lat="49.91294" lon="2.2762">
        <ele>20.5</ele>
        <time>2023-01-20T13:31:22Z</time>
      </trkpt>
      <trkpt lat="49.91295" lon="2.27619">
        <ele>20.5</ele>
        <time>2023-01-20T13:31:23Z</time>
      </trkpt>
      <trkpt lat="49.91295" lon="2.27618">
        <ele>20.5</ele>
        <time>2023-01-20T13:31:24Z</time>
      </trkpt>
      <trkpt lat="49.91296" lon="2.27615">
        <ele>20.5</ele>
        <time>2023-01-20T13:31:25Z</time>
      </trkpt>
      <trkpt lat="49.91297" lon="2.27614">
        <ele>20.5</ele>
        <time>2023-01-20T13:31:26Z</time>
      </trkpt>
      <trkpt lat="49.91298" lon="2.27612">
        <ele>20.5</ele>
        <time>2023-01-20T13:31:27Z</time>
      </trkpt>
      <trkpt lat="49.91298" lon="2.27611">
        <ele>20.5</ele>
        <time>2023-01-20T13:31:28Z</time>
      </trkpt>
      <trkpt lat="49.913" lon="2.27608">
        <ele>20.5</ele>
        <time>2023-01-20T13:31:29Z</time>
      </trkpt>
      <trkpt lat="49.913" lon="2.27607">
        <ele>20.5</ele>
        <time>2023-01-20T13:31:30Z</time>
      </trkpt>
      <trkpt lat="49.91301" lon="2.27606">
        <ele>20.5</ele>
        <time>2023-01-20T13:31:31Z</time>
      </trkpt>
      <trkpt lat="49.91302" lon="2.27604">
        <ele>20.5</ele>
        <time>2023-01-20T13:31:33Z</time>
      </trkpt>
      <trkpt lat="49.91302" lon="2.27603">
        <ele>20.5</ele>
        <time>2023-01-20T13:31:34Z</time>
      </trkpt>
      <trkpt lat="49.91303" lon="2.27602">
        <ele>20.5</ele>
        <time>2023-01-20T13:31:35Z</time>
      </trkpt>
      <trkpt lat="49.91303" lon="2.276">
        <ele>20.5</ele>
        <time>2023-01-20T13:31:36Z</time>
      </trkpt>
      <trkpt lat="49.91304" lon="2.27599">
        <ele>20.5</ele>
        <time>2023-01-20T13:31:37Z</time>
      </trkpt>
      <trkpt lat="49.91304" lon="2.27598">
        <ele>20.5</ele>
        <time>2023-01-20T13:31:38Z</time>
      </trkpt>
      <trkpt lat="49.91305" lon="2.27595">
        <ele>20.5</ele>
        <time>2023-01-20T13:31:40Z</time>
      </trkpt>
      <trkpt lat="49.91305" lon="2.27594">
        <ele>20.5</ele>
        <time>2023-01-20T13:31:41Z</time>
      </trkpt>
      <trkpt lat="49.91306" lon="2.27593">
        <ele>20.5</ele>
        <time>2023-01-20T13:31:42Z</time>
      </trkpt>
      <trkpt lat="49.91306" lon="2.27591">
        <ele>20.5</ele>
        <time>2023-01-20T13:31:43Z</time>
      </trkpt>
      <trkpt lat="49.91307" lon="2.27589">
        <ele>20.5</ele>
        <time>2023-01-20T13:31:44Z</time>
      </trkpt>
      <trkpt lat="49.91307" lon="2.27588">
        <ele>20.5</ele>
        <time>2023-01-20T13:31:45Z</time>
      </trkpt>
      <trkpt lat="49.91308" lon="2.27586">
        <ele>20.5</ele>
        <time>2023-01-20T13:31:46Z</time>
      </trkpt>
      <trkpt lat="49.91309" lon="2.27585">
        <ele>20.5</ele>
        <time>2023-01-20T13:31:47Z</time>
      </trkpt>
      <trkpt lat="49.9131" lon="2.27585">
        <ele>20.5</ele>
        <time>2023-01-20T13:31:49Z</time>
      </trkpt>
      <trkpt lat="49.91311" lon="2.27583">
        <ele>20.5</ele>
        <time>2023-01-20T13:31:50Z</time>
      </trkpt>
      <trkpt lat="49.91311" lon="2.27582">
        <ele>20.5</ele>
        <time>2023-01-20T13:31:51Z</time>
      </trkpt>
      <trkpt lat="49.91312" lon="2.27581">
        <ele>20.5</ele>
        <time>2023-01-20T13:31:52Z</time>
      </trkpt>
      <trkpt lat="49.91313" lon="2.27578">
        <ele>20.5</ele>
        <time>2023-01-20T13:31:53Z</time>
      </trkpt>
      <trkpt lat="49.91314" lon="2.27576">
        <ele>20.5</ele>
        <time>2023-01-20T13:31:55Z</time>
      </trkpt>
      <trkpt lat="49.91314" lon="2.27575">
        <ele>20.5</ele>
        <time>2023-01-20T13:31:56Z</time>
      </trkpt>
      <trkpt lat="49.91316" lon="2.27572">
        <ele>20.5</ele>
        <time>2023-01-20T13:31:57Z</time>
      </trkpt>
      <trkpt lat="49.91316" lon="2.27571">
        <ele>20.5</ele>
        <time>2023-01-20T13:31:58Z</time>
      </trkpt>
      <trkpt lat="49.91317" lon="2.2757">
        <ele>20.5</ele>
        <time>2023-01-20T13:31:59Z</time>
      </trkpt>
      <trkpt lat="49.91317" lon="2.27569">
        <ele>20.5</ele>
        <time>2023-01-20T13:32:00Z</time>
      </trkpt>
      <trkpt lat="49.91318" lon="2.27568">
        <ele>20.5</ele>
        <time>2023-01-20T13:32:01Z</time>
      </trkpt>
      <trkpt lat="49.91318" lon="2.27566">
        <ele>20.5</ele>
        <time>2023-01-20T13:32:02Z</time>
      </trkpt>
      <trkpt lat="49.91319" lon="2.27565">
        <ele>20.5</ele>
        <time>2023-01-20T13:32:03Z</time>
      </trkpt>
      <trkpt lat="49.9132" lon="2.27562">
        <ele>20.5</ele>
        <time>2023-01-20T13:32:04Z</time>
      </trkpt>
      <trkpt lat="49.9132" lon="2.27561">
        <ele>20.5</ele>
        <time>2023-01-20T13:32:06Z</time>
      </trkpt>
      <trkpt lat="49.91321" lon="2.2756">
        <ele>20.5</ele>
        <time>2023-01-20T13:32:07Z</time>
      </trkpt>
      <trkpt lat="49.91321" lon="2.27559">
        <ele>20.5</ele>
        <time>2023-01-20T13:32:08Z</time>
      </trkpt>
      <trkpt lat="49.91322" lon="2.27557">
        <ele>20.5</ele>
        <time>2023-01-20T13:32:09Z</time>
      </trkpt>
      <trkpt lat="49.91323" lon="2.27554">
        <ele>20.5</ele>
        <time>2023-01-20T13:32:10Z</time>
      </trkpt>
      <trkpt lat="49.91323" lon="2.27553">
        <ele>20.5</ele>
        <time>2023-01-20T13:32:11Z</time>
      </trkpt>
      <trkpt lat="49.91323" lon="2.27552">
        <ele>20.5</ele>
        <time>2023-01-20T13:32:12Z</time>
      </trkpt>
      <trkpt lat="49.91324" lon="2.27551">
        <ele>20.5</ele>
        <time>2023-01-20T13:32:13Z</time>
      </trkpt>
      <trkpt lat="49.91325" lon="2.27549">
        <ele>20.5</ele>
        <time>2023-01-20T13:32:14Z</time>
      </trkpt>
      <trkpt lat="49.91325" lon="2.27548">
        <ele>20.5</ele>
        <time>2023-01-20T13:32:16Z</time>
      </trkpt>
      <trkpt lat="49.91326" lon="2.27547">
        <ele>20.5</ele>
        <time>2023-01-20T13:32:17Z</time>
      </trkpt>
      <trkpt lat="49.91327" lon="2.27545">
        <ele>20.5</ele>
        <time>2023-01-20T13:32:18Z</time>
      </trkpt>
      <trkpt lat="49.91327" lon="2.27542">
        <ele>20.5</ele>
        <time>2023-01-20T13:32:19Z</time>
      </trkpt>
      <trkpt lat="49.91328" lon="2.27541">
        <ele>20.5</ele>
        <time>2023-01-20T13:32:20Z</time>
      </trkpt>
      <trkpt lat="49.91328" lon="2.2754">
        <ele>20.5</ele>
        <time>2023-01-20T13:32:21Z</time>
      </trkpt>
      <trkpt lat="49.91329" lon="2.27537">
        <ele>20.5</ele>
        <time>2023-01-20T13:32:22Z</time>
      </trkpt>
      <trkpt lat="49.91329" lon="2.27535">
        <ele>20.5</ele>
        <time>2023-01-20T13:32:23Z</time>
      </trkpt>
      <trkpt lat="49.91329" lon="2.27534">
        <ele>20.5</ele>
        <time>2023-01-20T13:32:24Z</time>
      </trkpt>
      <trkpt lat="49.9133" lon="2.27533">
        <ele>20.5</ele>
        <time>2023-01-20T13:32:26Z</time>
      </trkpt>
      <trkpt lat="49.9133" lon="2.27532">
        <ele>20.5</ele>
        <time>2023-01-20T13:32:27Z</time>
      </trkpt>
      <trkpt lat="49.91331" lon="2.2753">
        <ele>20.5</ele>
        <time>2023-01-20T13:32:28Z</time>
      </trkpt>
      <trkpt lat="49.91331" lon="2.27529">
        <ele>20.5</ele>
        <time>2023-01-20T13:32:29Z</time>
      </trkpt>
      <trkpt lat="49.91332" lon="2.27527">
        <ele>20.5</ele>
        <time>2023-01-20T13:32:30Z</time>
      </trkpt>
      <trkpt lat="49.91332" lon="2.27526">
        <ele>20.5</ele>
        <time>2023-01-20T13:32:31Z</time>
      </trkpt>
      <trkpt lat="49.91333" lon="2.27522">
        <ele>20.5</ele>
        <time>2023-01-20T13:32:32Z</time>
      </trkpt>
      <trkpt lat="49.91334" lon="2.27521">
        <ele>20.5</ele>
        <time>2023-01-20T13:32:33Z</time>
      </trkpt>
      <trkpt lat="49.91334" lon="2.27519">
        <ele>20.5</ele>
        <time>2023-01-20T13:32:34Z</time>
      </trkpt>
      <trkpt lat="49.91335" lon="2.27518">
        <ele>20.5</ele>
        <time>2023-01-20T13:32:35Z</time>
      </trkpt>
      <trkpt lat="49.91335" lon="2.27517">
        <ele>20.5</ele>
        <time>2023-01-20T13:32:37Z</time>
      </trkpt>
      <trkpt lat="49.91336" lon="2.27515">
        <ele>20.5</ele>
        <time>2023-01-20T13:32:38Z</time>
      </trkpt>
      <trkpt lat="49.91336" lon="2.27513">
        <ele>20.5</ele>
        <time>2023-01-20T13:32:39Z</time>
      </trkpt>
      <trkpt lat="49.91337" lon="2.27511">
        <ele>20.5</ele>
        <time>2023-01-20T13:32:40Z</time>
      </trkpt>
      <trkpt lat="49.91337" lon="2.2751">
        <ele>20.5</ele>
        <time>2023-01-20T13:32:41Z</time>
      </trkpt>
      <trkpt lat="49.91338" lon="2.27509">
        <ele>20.5</ele>
        <time>2023-01-20T13:32:42Z</time>
      </trkpt>
      <trkpt lat="49.91339" lon="2.27507">
        <ele>20.5</ele>
        <time>2023-01-20T13:32:43Z</time>
      </trkpt>
      <trkpt lat="49.9134" lon="2.27504">
        <ele>20.5</ele>
        <time>2023-01-20T13:32:44Z</time>
      </trkpt>
      <trkpt lat="49.9134" lon="2.27503">
        <ele>20.5</ele>
        <time>2023-01-20T13:32:45Z</time>
      </trkpt>
      <trkpt lat="49.91341" lon="2.27502">
        <ele>20.5</ele>
        <time>2023-01-20T13:32:47Z</time>
      </trkpt>
      <trkpt lat="49.91341" lon="2.275">
        <ele>20.6</ele>
        <time>2023-01-20T13:32:48Z</time>
      </trkpt>
      <trkpt lat="49.91341" lon="2.27499">
        <ele>20.6</ele>
        <time>2023-01-20T13:32:49Z</time>
      </trkpt>
      <trkpt lat="49.91342" lon="2.27495">
        <ele>20.6</ele>
        <time>2023-01-20T13:32:50Z</time>
      </trkpt>
      <trkpt lat="49.91343" lon="2.27494">
        <ele>20.6</ele>
        <time>2023-01-20T13:32:51Z</time>
      </trkpt>
      <trkpt lat="49.91343" lon="2.27494">
        <ele>20.6</ele>
        <time>2023-01-20T13:32:52Z</time>
      </trkpt>
      <trkpt lat="49.91344" lon="2.27491">
        <ele>20.6</ele>
        <time>2023-01-20T13:32:53Z</time>
      </trkpt>
      <trkpt lat="49.91344" lon="2.27489">
        <ele>20.6</ele>
        <time>2023-01-20T13:32:54Z</time>
      </trkpt>
      <trkpt lat="49.91345" lon="2.27488">
        <ele>20.6</ele>
        <time>2023-01-20T13:32:55Z</time>
      </trkpt>
      <trkpt lat="49.91345" lon="2.27486">
        <ele>20.6</ele>
        <time>2023-01-20T13:32:56Z</time>
      </trkpt>
      <trkpt lat="49.91346" lon="2.27485">
        <ele>20.6</ele>
        <time>2023-01-20T13:32:58Z</time>
      </trkpt>
      <trkpt lat="49.91346" lon="2.27483">
        <ele>20.6</ele>
        <time>2023-01-20T13:32:59Z</time>
      </trkpt>
      <trkpt lat="49.91347" lon="2.2748">
        <ele>20.6</ele>
        <time>2023-01-20T13:33:00Z</time>
      </trkpt>
      <trkpt lat="49.91348" lon="2.27479">
        <ele>20.6</ele>
        <time>2023-01-20T13:33:01Z</time>
      </trkpt>
      <trkpt lat="49.91348" lon="2.27478">
        <ele>20.6</ele>
        <time>2023-01-20T13:33:02Z</time>
      </trkpt>
      <trkpt lat="49.91349" lon="2.27476">
        <ele>20.6</ele>
        <time>2023-01-20T13:33:03Z</time>
      </trkpt>
      <trkpt lat="49.9135" lon="2.27475">
        <ele>20.6</ele>
        <time>2023-01-20T13:33:04Z</time>
      </trkpt>
      <trkpt lat="49.91351" lon="2.27472">
        <ele>20.6</ele>
        <time>2023-01-20T13:33:05Z</time>
      </trkpt>
      <trkpt lat="49.91351" lon="2.27471">
        <ele>20.6</ele>
        <time>2023-01-20T13:33:06Z</time>
      </trkpt>
      <trkpt lat="49.91353" lon="2.27469">
        <ele>20.6</ele>
        <time>2023-01-20T13:33:07Z</time>
      </trkpt>
      <trkpt lat="49.91354" lon="2.27467">
        <ele>20.6</ele>
        <time>2023-01-20T13:33:09Z</time>
      </trkpt>
      <trkpt lat="49.91354" lon="2.27466">
        <ele>20.6</ele>
        <time>2023-01-20T13:33:10Z</time>
      </trkpt>
      <trkpt lat="49.91355" lon="2.27465">
        <ele>20.6</ele>
        <time>2023-01-20T13:33:11Z</time>
      </trkpt>
      <trkpt lat="49.91356" lon="2.27464">
        <ele>20.6</ele>
        <time>2023-01-20T13:33:12Z</time>
      </trkpt>
      <trkpt lat="49.91357" lon="2.27462">
        <ele>20.6</ele>
        <time>2023-01-20T13:33:13Z</time>
      </trkpt>
      <trkpt lat="49.91357" lon="2.27461">
        <ele>20.6</ele>
        <time>2023-01-20T13:33:14Z</time>
      </trkpt>
      <trkpt lat="49.91358" lon="2.27458">
        <ele>20.6</ele>
        <time>2023-01-20T13:33:15Z</time>
      </trkpt>
      <trkpt lat="49.91358" lon="2.27457">
        <ele>20.6</ele>
        <time>2023-01-20T13:33:16Z</time>
      </trkpt>
      <trkpt lat="49.91359" lon="2.27455">
        <ele>20.6</ele>
        <time>2023-01-20T13:33:17Z</time>
      </trkpt>
      <trkpt lat="49.91359" lon="2.27453">
        <ele>20.6</ele>
        <time>2023-01-20T13:33:19Z</time>
      </trkpt>
      <trkpt lat="49.9136" lon="2.2745">
        <ele>20.6</ele>
        <time>2023-01-20T13:33:20Z</time>
      </trkpt>
      <trkpt lat="49.9136" lon="2.27449">
        <ele>20.6</ele>
        <time>2023-01-20T13:33:21Z</time>
      </trkpt>
      <trkpt lat="49.91361" lon="2.27447">
        <ele>20.6</ele>
        <time>2023-01-20T13:33:22Z</time>
      </trkpt>
      <trkpt lat="49.91361" lon="2.27445">
        <ele>20.6</ele>
        <time>2023-01-20T13:33:23Z</time>
      </trkpt>
      <trkpt lat="49.91362" lon="2.27444">
        <ele>20.6</ele>
        <time>2023-01-20T13:33:24Z</time>
      </trkpt>
      <trkpt lat="49.91363" lon="2.27441">
        <ele>20.6</ele>
        <time>2023-01-20T13:33:26Z</time>
      </trkpt>
      <trkpt lat="49.91363" lon="2.2744">
        <ele>20.6</ele>
        <time>2023-01-20T13:33:27Z</time>
      </trkpt>
      <trkpt lat="49.91364" lon="2.27436">
        <ele>20.6</ele>
        <time>2023-01-20T13:33:28Z</time>
      </trkpt>
      <trkpt lat="49.91364" lon="2.27435">
        <ele>20.6</ele>
        <time>2023-01-20T13:33:29Z</time>
      </trkpt>
      <trkpt lat="49.91364" lon="2.27433">
        <ele>20.6</ele>
        <time>2023-01-20T13:33:30Z</time>
      </trkpt>
      <trkpt lat="49.91365" lon="2.2743">
        <ele>20.6</ele>
        <time>2023-01-20T13:33:31Z</time>
      </trkpt>
      <trkpt lat="49.91366" lon="2.27429">
        <ele>20.6</ele>
        <time>2023-01-20T13:33:32Z</time>
      </trkpt>
      <trkpt lat="49.91366" lon="2.27428">
        <ele>20.6</ele>
        <time>2023-01-20T13:33:33Z</time>
      </trkpt>
      <trkpt lat="49.91367" lon="2.27424">
        <ele>20.6</ele>
        <time>2023-01-20T13:33:35Z</time>
      </trkpt>
      <trkpt lat="49.91367" lon="2.27424">
        <ele>20.6</ele>
        <time>2023-01-20T13:33:36Z</time>
      </trkpt>
      <trkpt lat="49.91368" lon="2.27423">
        <ele>20.6</ele>
        <time>2023-01-20T13:33:37Z</time>
      </trkpt>
      <trkpt lat="49.91368" lon="2.2742">
        <ele>20.6</ele>
        <time>2023-01-20T13:33:38Z</time>
      </trkpt>
      <trkpt lat="49.91369" lon="2.27418">
        <ele>20.6</ele>
        <time>2023-01-20T13:33:39Z</time>
      </trkpt>
      <trkpt lat="49.91369" lon="2.27417">
        <ele>20.6</ele>
        <time>2023-01-20T13:33:40Z</time>
      </trkpt>
      <trkpt lat="49.9137" lon="2.27415">
        <ele>20.5</ele>
        <time>2023-01-20T13:33:41Z</time>
      </trkpt>
      <trkpt lat="49.9137" lon="2.27414">
        <ele>20.5</ele>
        <time>2023-01-20T13:33:42Z</time>
      </trkpt>
      <trkpt lat="49.91371" lon="2.27412">
        <ele>20.5</ele>
        <time>2023-01-20T13:33:44Z</time>
      </trkpt>
      <trkpt lat="49.91371" lon="2.27409">
        <ele>20.5</ele>
        <time>2023-01-20T13:33:45Z</time>
      </trkpt>
      <trkpt lat="49.91372" lon="2.27408">
        <ele>20.5</ele>
        <time>2023-01-20T13:33:46Z</time>
      </trkpt>
      <trkpt lat="49.91372" lon="2.27406">
        <ele>20.5</ele>
        <time>2023-01-20T13:33:47Z</time>
      </trkpt>
      <trkpt lat="49.91373" lon="2.27405">
        <ele>20.5</ele>
        <time>2023-01-20T13:33:48Z</time>
      </trkpt>
      <trkpt lat="49.91374" lon="2.27403">
        <ele>20.5</ele>
        <time>2023-01-20T13:33:49Z</time>
      </trkpt>
      <trkpt lat="49.91374" lon="2.27401">
        <ele>20.5</ele>
        <time>2023-01-20T13:33:50Z</time>
      </trkpt>
      <trkpt lat="49.91375" lon="2.274">
        <ele>20.5</ele>
        <time>2023-01-20T13:33:51Z</time>
      </trkpt>
      <trkpt lat="49.91375" lon="2.27398">
        <ele>20.5</ele>
        <time>2023-01-20T13:33:52Z</time>
      </trkpt>
      <trkpt lat="49.91376" lon="2.27397">
        <ele>20.5</ele>
        <time>2023-01-20T13:33:54Z</time>
      </trkpt>
      <trkpt lat="49.91376" lon="2.27395">
        <ele>20.5</ele>
        <time>2023-01-20T13:33:55Z</time>
      </trkpt>
      <trkpt lat="49.91376" lon="2.27394">
        <ele>20.5</ele>
        <time>2023-01-20T13:33:56Z</time>
      </trkpt>
      <trkpt lat="49.91377" lon="2.27392">
        <ele>20.5</ele>
        <time>2023-01-20T13:33:57Z</time>
      </trkpt>
      <trkpt lat="49.91377" lon="2.2739">
        <ele>20.5</ele>
        <time>2023-01-20T13:33:58Z</time>
      </trkpt>
      <trkpt lat="49.91377" lon="2.27388">
        <ele>20.5</ele>
        <time>2023-01-20T13:33:59Z</time>
      </trkpt>
      <trkpt lat="49.91378" lon="2.27385">
        <ele>20.5</ele>
        <time>2023-01-20T13:34:00Z</time>
      </trkpt>
      <trkpt lat="49.91378" lon="2.27384">
        <ele>20.5</ele>
        <time>2023-01-20T13:34:01Z</time>
      </trkpt>
      <trkpt lat="49.91379" lon="2.27383">
        <ele>20.5</ele>
        <time>2023-01-20T13:34:02Z</time>
      </trkpt>
      <trkpt lat="49.91379" lon="2.27382">
        <ele>20.5</ele>
        <time>2023-01-20T13:34:04Z</time>
      </trkpt>
      <trkpt lat="49.9138" lon="2.27379">
        <ele>20.5</ele>
        <time>2023-01-20T13:34:05Z</time>
      </trkpt>
      <trkpt lat="49.9138" lon="2.27377">
        <ele>20.5</ele>
        <time>2023-01-20T13:34:06Z</time>
      </trkpt>
      <trkpt lat="49.9138" lon="2.27376">
        <ele>20.5</ele>
        <time>2023-01-20T13:34:07Z</time>
      </trkpt>
      <trkpt lat="49.91381" lon="2.27374">
        <ele>20.5</ele>
        <time>2023-01-20T13:34:08Z</time>
      </trkpt>
      <trkpt lat="49.91381" lon="2.27372">
        <ele>20.5</ele>
        <time>2023-01-20T13:34:09Z</time>
      </trkpt>
      <trkpt lat="49.91382" lon="2.27369">
        <ele>20.5</ele>
        <time>2023-01-20T13:34:10Z</time>
      </trkpt>
      <trkpt lat="49.91382" lon="2.27367">
        <ele>20.5</ele>
        <time>2023-01-20T13:34:11Z</time>
      </trkpt>
      <trkpt lat="49.91383" lon="2.27366">
        <ele>20.5</ele>
        <time>2023-01-20T13:34:12Z</time>
      </trkpt>
      <trkpt lat="49.91383" lon="2.27364">
        <ele>20.5</ele>
        <time>2023-01-20T13:34:14Z</time>
      </trkpt>
      <trkpt lat="49.91384" lon="2.27362">
        <ele>20.5</ele>
        <time>2023-01-20T13:34:15Z</time>
      </trkpt>
      <trkpt lat="49.91385" lon="2.27359">
        <ele>20.5</ele>
        <time>2023-01-20T13:34:16Z</time>
      </trkpt>
      <trkpt lat="49.91385" lon="2.27356">
        <ele>20.5</ele>
        <time>2023-01-20T13:34:17Z</time>
      </trkpt>
      <trkpt lat="49.91386" lon="2.27355">
        <ele>20.5</ele>
        <time>2023-01-20T13:34:18Z</time>
      </trkpt>
      <trkpt lat="49.91386" lon="2.27354">
        <ele>20.5</ele>
        <time>2023-01-20T13:34:19Z</time>
      </trkpt>
      <trkpt lat="49.91387" lon="2.27351">
        <ele>20.5</ele>
        <time>2023-01-20T13:34:20Z</time>
      </trkpt>
      <trkpt lat="49.91387" lon="2.2735">
        <ele>20.5</ele>
        <time>2023-01-20T13:34:21Z</time>
      </trkpt>
      <trkpt lat="49.91388" lon="2.27347">
        <ele>20.5</ele>
        <time>2023-01-20T13:34:22Z</time>
      </trkpt>
      <trkpt lat="49.91388" lon="2.27346">
        <ele>20.5</ele>
        <time>2023-01-20T13:34:23Z</time>
      </trkpt>
      <trkpt lat="49.91388" lon="2.27344">
        <ele>20.5</ele>
        <time>2023-01-20T13:34:25Z</time>
      </trkpt>
      <trkpt lat="49.91389" lon="2.27343">
        <ele>20.5</ele>
        <time>2023-01-20T13:34:26Z</time>
      </trkpt>
      <trkpt lat="49.91389" lon="2.27341">
        <ele>20.5</ele>
        <time>2023-01-20T13:34:27Z</time>
      </trkpt>
      <trkpt lat="49.91389" lon="2.2734">
        <ele>20.5</ele>
        <time>2023-01-20T13:34:28Z</time>
      </trkpt>
      <trkpt lat="49.9139" lon="2.27338">
        <ele>20.5</ele>
        <time>2023-01-20T13:34:29Z</time>
      </trkpt>
      <trkpt lat="49.91391" lon="2.27336">
        <ele>20.5</ele>
        <time>2023-01-20T13:34:30Z</time>
      </trkpt>
      <trkpt lat="49.91391" lon="2.27334">
        <ele>20.5</ele>
        <time>2023-01-20T13:34:31Z</time>
      </trkpt>
      <trkpt lat="49.91392" lon="2.27333">
        <ele>20.5</ele>
        <time>2023-01-20T13:34:32Z</time>
      </trkpt>
      <trkpt lat="49.91393" lon="2.27331">
        <ele>20.5</ele>
        <time>2023-01-20T13:34:34Z</time>
      </trkpt>
      <trkpt lat="49.91393" lon="2.2733">
        <ele>20.5</ele>
        <time>2023-01-20T13:34:35Z</time>
      </trkpt>
      <trkpt lat="49.91394" lon="2.27327">
        <ele>20.5</ele>
        <time>2023-01-20T13:34:36Z</time>
      </trkpt>
      <trkpt lat="49.91394" lon="2.27325">
        <ele>20.5</ele>
        <time>2023-01-20T13:34:37Z</time>
      </trkpt>
      <trkpt lat="49.91395" lon="2.27322">
        <ele>20.5</ele>
        <time>2023-01-20T13:34:38Z</time>
      </trkpt>
      <trkpt lat="49.91395" lon="2.27321">
        <ele>20.5</ele>
        <time>2023-01-20T13:34:39Z</time>
      </trkpt>
      <trkpt lat="49.91395" lon="2.2732">
        <ele>20.5</ele>
        <time>2023-01-20T13:34:40Z</time>
      </trkpt>
      <trkpt lat="49.91396" lon="2.27318">
        <ele>20.5</ele>
        <time>2023-01-20T13:34:41Z</time>
      </trkpt>
      <trkpt lat="49.91396" lon="2.27316">
        <ele>20.5</ele>
        <time>2023-01-20T13:34:42Z</time>
      </trkpt>
      <trkpt lat="49.91396" lon="2.27314">
        <ele>20.5</ele>
        <time>2023-01-20T13:34:43Z</time>
      </trkpt>
      <trkpt lat="49.91397" lon="2.27313">
        <ele>20.5</ele>
        <time>2023-01-20T13:34:45Z</time>
      </trkpt>
      <trkpt lat="49.91397" lon="2.2731">
        <ele>20.5</ele>
        <time>2023-01-20T13:34:46Z</time>
      </trkpt>
      <trkpt lat="49.91398" lon="2.27307">
        <ele>20.5</ele>
        <time>2023-01-20T13:34:47Z</time>
      </trkpt>
      <trkpt lat="49.91398" lon="2.27306">
        <ele>20.5</ele>
        <time>2023-01-20T13:34:48Z</time>
      </trkpt>
      <trkpt lat="49.91399" lon="2.27305">
        <ele>20.5</ele>
        <time>2023-01-20T13:34:49Z</time>
      </trkpt>
      <trkpt lat="49.914" lon="2.27302">
        <ele>20.5</ele>
        <time>2023-01-20T13:34:51Z</time>
      </trkpt>
      <trkpt lat="49.914" lon="2.27301">
        <ele>20.5</ele>
        <time>2023-01-20T13:34:52Z</time>
      </trkpt>
      <trkpt lat="49.91401" lon="2.27298">
        <ele>20.5</ele>
        <time>2023-01-20T13:34:53Z</time>
      </trkpt>
      <trkpt lat="49.91402" lon="2.27297">
        <ele>20.5</ele>
        <time>2023-01-20T13:34:54Z</time>
      </trkpt>
      <trkpt lat="49.91402" lon="2.27295">
        <ele>20.5</ele>
        <time>2023-01-20T13:34:55Z</time>
      </trkpt>
      <trkpt lat="49.91403" lon="2.27295">
        <ele>20.5</ele>
        <time>2023-01-20T13:34:56Z</time>
      </trkpt>
      <trkpt lat="49.91403" lon="2.27293">
        <ele>20.5</ele>
        <time>2023-01-20T13:34:57Z</time>
      </trkpt>
      <trkpt lat="49.91404" lon="2.27292">
        <ele>20.5</ele>
        <time>2023-01-20T13:34:58Z</time>
      </trkpt>
      <trkpt lat="49.91404" lon="2.2729">
        <ele>20.5</ele>
        <time>2023-01-20T13:34:59Z</time>
      </trkpt>
      <trkpt lat="49.91405" lon="2.27288">
        <ele>20.5</ele>
        <time>2023-01-20T13:35:00Z</time>
      </trkpt>
      <trkpt lat="49.91406" lon="2.27287">
        <ele>20.5</ele>
        <time>2023-01-20T13:35:02Z</time>
      </trkpt>
      <trkpt lat="49.91407" lon="2.27286">
        <ele>20.5</ele>
        <time>2023-01-20T13:35:03Z</time>
      </trkpt>
      <trkpt lat="49.91407" lon="2.27285">
        <ele>20.5</ele>
        <time>2023-01-20T13:35:04Z</time>
      </trkpt>
      <trkpt lat="49.91408" lon="2.27283">
        <ele>20.5</ele>
        <time>2023-01-20T13:35:05Z</time>
      </trkpt>
      <trkpt lat="49.91409" lon="2.27281">
        <ele>20.5</ele>
        <time>2023-01-20T13:35:06Z</time>
      </trkpt>
      <trkpt lat="49.91409" lon="2.2728">
        <ele>20.5</ele>
        <time>2023-01-20T13:35:07Z</time>
      </trkpt>
      <trkpt lat="49.9141" lon="2.27277">
        <ele>20.5</ele>
        <time>2023-01-20T13:35:08Z</time>
      </trkpt>
      <trkpt lat="49.91411" lon="2.27276">
        <ele>20.5</ele>
        <time>2023-01-20T13:35:09Z</time>
      </trkpt>
      <trkpt lat="49.91412" lon="2.27275">
        <ele>20.5</ele>
        <time>2023-01-20T13:35:10Z</time>
      </trkpt>
      <trkpt lat="49.91412" lon="2.27274">
        <ele>20.5</ele>
        <time>2023-01-20T13:35:11Z</time>
      </trkpt>
      <trkpt lat="49.91413" lon="2.27273">
        <ele>20.5</ele>
        <time>2023-01-20T13:35:13Z</time>
      </trkpt>
      <trkpt lat="49.91414" lon="2.27271">
        <ele>20.5</ele>
        <time>2023-01-20T13:35:14Z</time>
      </trkpt>
      <trkpt lat="49.91414" lon="2.27269">
        <ele>20.5</ele>
        <time>2023-01-20T13:35:15Z</time>
      </trkpt>
      <trkpt lat="49.91415" lon="2.27267">
        <ele>20.5</ele>
        <time>2023-01-20T13:35:16Z</time>
      </trkpt>
      <trkpt lat="49.91415" lon="2.27266">
        <ele>20.5</ele>
        <time>2023-01-20T13:35:17Z</time>
      </trkpt>
      <trkpt lat="49.91415" lon="2.27264">
        <ele>20.5</ele>
        <time>2023-01-20T13:35:18Z</time>
      </trkpt>
      <trkpt lat="49.91416" lon="2.27262">
        <ele>20.5</ele>
        <time>2023-01-20T13:35:19Z</time>
      </trkpt>
      <trkpt lat="49.91416" lon="2.27259">
        <ele>20.5</ele>
        <time>2023-01-20T13:35:20Z</time>
      </trkpt>
      <trkpt lat="49.91417" lon="2.27258">
        <ele>20.5</ele>
        <time>2023-01-20T13:35:21Z</time>
      </trkpt>
      <trkpt lat="49.91417" lon="2.27256">
        <ele>20.5</ele>
        <time>2023-01-20T13:35:22Z</time>
      </trkpt>
      <trkpt lat="49.91417" lon="2.27254">
        <ele>20.5</ele>
        <time>2023-01-20T13:35:23Z</time>
      </trkpt>
      <trkpt lat="49.91418" lon="2.27252">
        <ele>20.5</ele>
        <time>2023-01-20T13:35:25Z</time>
      </trkpt>
      <trkpt lat="49.91418" lon="2.27249">
        <ele>20.5</ele>
        <time>2023-01-20T13:35:26Z</time>
      </trkpt>
      <trkpt lat="49.91419" lon="2.27247">
        <ele>20.5</ele>
        <time>2023-01-20T13:35:27Z</time>
      </trkpt>
      <trkpt lat="49.9142" lon="2.27244">
        <ele>20.4</ele>
        <time>2023-01-20T13:35:28Z</time>
      </trkpt>
      <trkpt lat="49.9142" lon="2.27243">
        <ele>20.4</ele>
        <time>2023-01-20T13:35:29Z</time>
      </trkpt>
      <trkpt lat="49.9142" lon="2.27242">
        <ele>20.4</ele>
        <time>2023-01-20T13:35:30Z</time>
      </trkpt>
      <trkpt lat="49.91421" lon="2.27239">
        <ele>20.4</ele>
        <time>2023-01-20T13:35:31Z</time>
      </trkpt>
      <trkpt lat="49.91421" lon="2.27237">
        <ele>20.4</ele>
        <time>2023-01-20T13:35:32Z</time>
      </trkpt>
      <trkpt lat="49.91422" lon="2.27236">
        <ele>20.4</ele>
        <time>2023-01-20T13:35:33Z</time>
      </trkpt>
      <trkpt lat="49.91422" lon="2.27235">
        <ele>20.4</ele>
        <time>2023-01-20T13:35:34Z</time>
      </trkpt>
      <trkpt lat="49.91423" lon="2.27232">
        <ele>20.4</ele>
        <time>2023-01-20T13:35:36Z</time>
      </trkpt>
      <trkpt lat="49.91423" lon="2.2723">
        <ele>20.4</ele>
        <time>2023-01-20T13:35:37Z</time>
      </trkpt>
      <trkpt lat="49.91424" lon="2.27229">
        <ele>20.4</ele>
        <time>2023-01-20T13:35:38Z</time>
      </trkpt>
      <trkpt lat="49.91424" lon="2.27226">
        <ele>20.4</ele>
        <time>2023-01-20T13:35:39Z</time>
      </trkpt>
      <trkpt lat="49.91424" lon="2.27225">
        <ele>20.4</ele>
        <time>2023-01-20T13:35:40Z</time>
      </trkpt>
      <trkpt lat="49.91425" lon="2.27222">
        <ele>20.4</ele>
        <time>2023-01-20T13:35:41Z</time>
      </trkpt>
      <trkpt lat="49.91425" lon="2.2722">
        <ele>20.4</ele>
        <time>2023-01-20T13:35:43Z</time>
      </trkpt>
      <trkpt lat="49.91426" lon="2.27219">
        <ele>20.4</ele>
        <time>2023-01-20T13:35:44Z</time>
      </trkpt>
      <trkpt lat="49.91426" lon="2.27217">
        <ele>20.4</ele>
        <time>2023-01-20T13:35:45Z</time>
      </trkpt>
      <trkpt lat="49.91426" lon="2.27215">
        <ele>20.4</ele>
        <time>2023-01-20T13:35:46Z</time>
      </trkpt>
      <trkpt lat="49.91427" lon="2.27214">
        <ele>20.4</ele>
        <time>2023-01-20T13:35:47Z</time>
      </trkpt>
      <trkpt lat="49.91427" lon="2.27212">
        <ele>20.4</ele>
        <time>2023-01-20T13:35:48Z</time>
      </trkpt>
      <trkpt lat="49.91427" lon="2.27211">
        <ele>20.3</ele>
        <time>2023-01-20T13:35:49Z</time>
      </trkpt>
      <trkpt lat="49.91428" lon="2.2721">
        <ele>20.3</ele>
        <time>2023-01-20T13:35:50Z</time>
      </trkpt>
      <trkpt lat="49.91428" lon="2.27207">
        <ele>20.3</ele>
        <time>2023-01-20T13:35:51Z</time>
      </trkpt>
      <trkpt lat="49.91429" lon="2.27206">
        <ele>20.3</ele>
        <time>2023-01-20T13:35:52Z</time>
      </trkpt>
      <trkpt lat="49.91429" lon="2.27204">
        <ele>20.3</ele>
        <time>2023-01-20T13:35:54Z</time>
      </trkpt>
      <trkpt lat="49.9143" lon="2.27203">
        <ele>20.3</ele>
        <time>2023-01-20T13:35:55Z</time>
      </trkpt>
      <trkpt lat="49.9143" lon="2.272">
        <ele>20.3</ele>
        <time>2023-01-20T13:35:56Z</time>
      </trkpt>
      <trkpt lat="49.91431" lon="2.27199">
        <ele>20.3</ele>
        <time>2023-01-20T13:35:57Z</time>
      </trkpt>
      <trkpt lat="49.91432" lon="2.27196">
        <ele>20.3</ele>
        <time>2023-01-20T13:35:58Z</time>
      </trkpt>
      <trkpt lat="49.91433" lon="2.27195">
        <ele>20.3</ele>
        <time>2023-01-20T13:35:59Z</time>
      </trkpt>
      <trkpt lat="49.91433" lon="2.27194">
        <ele>20.3</ele>
        <time>2023-01-20T13:36:00Z</time>
      </trkpt>
      <trkpt lat="49.91434" lon="2.27192">
        <ele>20.3</ele>
        <time>2023-01-20T13:36:01Z</time>
      </trkpt>
      <trkpt lat="49.91434" lon="2.2719">
        <ele>20.3</ele>
        <time>2023-01-20T13:36:02Z</time>
      </trkpt>
      <trkpt lat="49.91435" lon="2.27188">
        <ele>20.3</ele>
        <time>2023-01-20T13:36:03Z</time>
      </trkpt>
      <trkpt lat="49.91436" lon="2.27186">
        <ele>20.3</ele>
        <time>2023-01-20T13:36:04Z</time>
      </trkpt>
      <trkpt lat="49.91436" lon="2.27185">
        <ele>20.3</ele>
        <time>2023-01-20T13:36:05Z</time>
      </trkpt>
      <trkpt lat="49.91437" lon="2.27184">
        <ele>20.3</ele>
        <time>2023-01-20T13:36:07Z</time>
      </trkpt>
      <trkpt lat="49.91437" lon="2.27183">
        <ele>20.3</ele>
        <time>2023-01-20T13:36:08Z</time>
      </trkpt>
      <trkpt lat="49.91438" lon="2.27181">
        <ele>20.3</ele>
        <time>2023-01-20T13:36:09Z</time>
      </trkpt>
      <trkpt lat="49.91439" lon="2.27178">
        <ele>20.3</ele>
        <time>2023-01-20T13:36:10Z</time>
      </trkpt>
      <trkpt lat="49.9144" lon="2.27177">
        <ele>20.3</ele>
        <time>2023-01-20T13:36:11Z</time>
      </trkpt>
      <trkpt lat="49.9144" lon="2.27176">
        <ele>20.3</ele>
        <time>2023-01-20T13:36:12Z</time>
      </trkpt>
      <trkpt lat="49.91441" lon="2.27175">
        <ele>20.3</ele>
        <time>2023-01-20T13:36:13Z</time>
      </trkpt>
      <trkpt lat="49.91441" lon="2.27173">
        <ele>20.3</ele>
        <time>2023-01-20T13:36:14Z</time>
      </trkpt>
      <trkpt lat="49.91442" lon="2.27171">
        <ele>20.3</ele>
        <time>2023-01-20T13:36:15Z</time>
      </trkpt>
      <trkpt lat="49.91442" lon="2.27169">
        <ele>20.3</ele>
        <time>2023-01-20T13:36:17Z</time>
      </trkpt>
      <trkpt lat="49.91443" lon="2.27167">
        <ele>20.3</ele>
        <time>2023-01-20T13:36:18Z</time>
      </trkpt>
      <trkpt lat="49.91443" lon="2.27164">
        <ele>20.3</ele>
        <time>2023-01-20T13:36:19Z</time>
      </trkpt>
      <trkpt lat="49.91444" lon="2.27163">
        <ele>20.3</ele>
        <time>2023-01-20T13:36:20Z</time>
      </trkpt>
      <trkpt lat="49.91444" lon="2.27161">
        <ele>20.3</ele>
        <time>2023-01-20T13:36:21Z</time>
      </trkpt>
      <trkpt lat="49.91444" lon="2.2716">
        <ele>20.3</ele>
        <time>2023-01-20T13:36:22Z</time>
      </trkpt>
      <trkpt lat="49.91445" lon="2.27158">
        <ele>20.3</ele>
        <time>2023-01-20T13:36:23Z</time>
      </trkpt>
      <trkpt lat="49.91445" lon="2.27155">
        <ele>20.3</ele>
        <time>2023-01-20T13:36:25Z</time>
      </trkpt>
      <trkpt lat="49.91446" lon="2.27153">
        <ele>20.3</ele>
        <time>2023-01-20T13:36:26Z</time>
      </trkpt>
      <trkpt lat="49.91446" lon="2.27152">
        <ele>20.3</ele>
        <time>2023-01-20T13:36:27Z</time>
      </trkpt>
      <trkpt lat="49.91447" lon="2.27151">
        <ele>20.3</ele>
        <time>2023-01-20T13:36:28Z</time>
      </trkpt>
      <trkpt lat="49.91448" lon="2.27148">
        <ele>20.3</ele>
        <time>2023-01-20T13:36:29Z</time>
      </trkpt>
      <trkpt lat="49.91448" lon="2.27147">
        <ele>20.3</ele>
        <time>2023-01-20T13:36:30Z</time>
      </trkpt>
      <trkpt lat="49.91448" lon="2.27145">
        <ele>20.3</ele>
        <time>2023-01-20T13:36:31Z</time>
      </trkpt>
      <trkpt lat="49.91449" lon="2.27143">
        <ele>20.3</ele>
        <time>2023-01-20T13:36:33Z</time>
      </trkpt>
      <trkpt lat="49.91449" lon="2.27141">
        <ele>20.3</ele>
        <time>2023-01-20T13:36:34Z</time>
      </trkpt>
      <trkpt lat="49.9145" lon="2.27139">
        <ele>20.3</ele>
        <time>2023-01-20T13:36:35Z</time>
      </trkpt>
      <trkpt lat="49.9145" lon="2.27136">
        <ele>20.3</ele>
        <time>2023-01-20T13:36:36Z</time>
      </trkpt>
      <trkpt lat="49.91451" lon="2.27135">
        <ele>20.3</ele>
        <time>2023-01-20T13:36:37Z</time>
      </trkpt>
      <trkpt lat="49.91451" lon="2.27133">
        <ele>20.3</ele>
        <time>2023-01-20T13:36:38Z</time>
      </trkpt>
      <trkpt lat="49.91451" lon="2.27131">
        <ele>20.3</ele>
        <time>2023-01-20T13:36:39Z</time>
      </trkpt>
      <trkpt lat="49.91452" lon="2.27129">
        <ele>20.3</ele>
        <time>2023-01-20T13:36:40Z</time>
      </trkpt>
      <trkpt lat="49.91452" lon="2.27127">
        <ele>20.3</ele>
        <time>2023-01-20T13:36:41Z</time>
      </trkpt>
      <trkpt lat="49.91452" lon="2.27125">
        <ele>20.3</ele>
        <time>2023-01-20T13:36:43Z</time>
      </trkpt>
      <trkpt lat="49.91453" lon="2.27122">
        <ele>20.3</ele>
        <time>2023-01-20T13:36:44Z</time>
      </trkpt>
      <trkpt lat="49.91453" lon="2.27121">
        <ele>20.3</ele>
        <time>2023-01-20T13:36:45Z</time>
      </trkpt>
      <trkpt lat="49.91454" lon="2.27119">
        <ele>20.3</ele>
        <time>2023-01-20T13:36:46Z</time>
      </trkpt>
      <trkpt lat="49.91454" lon="2.27118">
        <ele>20.3</ele>
        <time>2023-01-20T13:36:47Z</time>
      </trkpt>
      <trkpt lat="49.91454" lon="2.27116">
        <ele>20.3</ele>
        <time>2023-01-20T13:36:49Z</time>
      </trkpt>
      <trkpt lat="49.91455" lon="2.27114">
        <ele>20.3</ele>
        <time>2023-01-20T13:36:50Z</time>
      </trkpt>
      <trkpt lat="49.91455" lon="2.27113">
        <ele>20.3</ele>
        <time>2023-01-20T13:36:51Z</time>
      </trkpt>
      <trkpt lat="49.91456" lon="2.2711">
        <ele>20.3</ele>
        <time>2023-01-20T13:36:52Z</time>
      </trkpt>
      <trkpt lat="49.91456" lon="2.27108">
        <ele>20.3</ele>
        <time>2023-01-20T13:36:53Z</time>
      </trkpt>
      <trkpt lat="49.91456" lon="2.27106">
        <ele>20.2</ele>
        <time>2023-01-20T13:36:54Z</time>
      </trkpt>
      <trkpt lat="49.91457" lon="2.27104">
        <ele>20.2</ele>
        <time>2023-01-20T13:36:56Z</time>
      </trkpt>
      <trkpt lat="49.91457" lon="2.27101">
        <ele>20.2</ele>
        <time>2023-01-20T13:36:57Z</time>
      </trkpt>
      <trkpt lat="49.91458" lon="2.27099">
        <ele>20.2</ele>
        <time>2023-01-20T13:36:58Z</time>
      </trkpt>
      <trkpt lat="49.91458" lon="2.27097">
        <ele>20.2</ele>
        <time>2023-01-20T13:36:59Z</time>
      </trkpt>
      <trkpt lat="49.91459" lon="2.27095">
        <ele>20.2</ele>
        <time>2023-01-20T13:37:00Z</time>
      </trkpt>
      <trkpt lat="49.91459" lon="2.27092">
        <ele>20.2</ele>
        <time>2023-01-20T13:37:01Z</time>
      </trkpt>
      <trkpt lat="49.9146" lon="2.2709">
        <ele>20.2</ele>
        <time>2023-01-20T13:37:03Z</time>
      </trkpt>
      <trkpt lat="49.91461" lon="2.27088">
        <ele>20.2</ele>
        <time>2023-01-20T13:37:04Z</time>
      </trkpt>
      <trkpt lat="49.91461" lon="2.27086">
        <ele>20.2</ele>
        <time>2023-01-20T13:37:05Z</time>
      </trkpt>
      <trkpt lat="49.91462" lon="2.27083">
        <ele>20.2</ele>
        <time>2023-01-20T13:37:06Z</time>
      </trkpt>
      <trkpt lat="49.91462" lon="2.27082">
        <ele>20.2</ele>
        <time>2023-01-20T13:37:07Z</time>
      </trkpt>
      <trkpt lat="49.91463" lon="2.2708">
        <ele>20.2</ele>
        <time>2023-01-20T13:37:08Z</time>
      </trkpt>
      <trkpt lat="49.91463" lon="2.27078">
        <ele>20.2</ele>
        <time>2023-01-20T13:37:09Z</time>
      </trkpt>
      <trkpt lat="49.91464" lon="2.27076">
        <ele>20.2</ele>
        <time>2023-01-20T13:37:11Z</time>
      </trkpt>
      <trkpt lat="49.91464" lon="2.27073">
        <ele>20.2</ele>
        <time>2023-01-20T13:37:12Z</time>
      </trkpt>
      <trkpt lat="49.91465" lon="2.27072">
        <ele>20.2</ele>
        <time>2023-01-20T13:37:13Z</time>
      </trkpt>
      <trkpt lat="49.91466" lon="2.27068">
        <ele>20.2</ele>
        <time>2023-01-20T13:37:14Z</time>
      </trkpt>
      <trkpt lat="49.91467" lon="2.27066">
        <ele>20.2</ele>
        <time>2023-01-20T13:37:17Z</time>
      </trkpt>
      <trkpt lat="49.91467" lon="2.27064">
        <ele>20.2</ele>
        <time>2023-01-20T13:37:18Z</time>
      </trkpt>
      <trkpt lat="49.91468" lon="2.27062">
        <ele>20.2</ele>
        <time>2023-01-20T13:37:19Z</time>
      </trkpt>
      <trkpt lat="49.91468" lon="2.27061">
        <ele>20.2</ele>
        <time>2023-01-20T13:37:20Z</time>
      </trkpt>
      <trkpt lat="49.91469" lon="2.27058">
        <ele>20.2</ele>
        <time>2023-01-20T13:37:21Z</time>
      </trkpt>
      <trkpt lat="49.9147" lon="2.27055">
        <ele>20.2</ele>
        <time>2023-01-20T13:37:22Z</time>
      </trkpt>
      <trkpt lat="49.9147" lon="2.27054">
        <ele>20.2</ele>
        <time>2023-01-20T13:37:23Z</time>
      </trkpt>
      <trkpt lat="49.9147" lon="2.27053">
        <ele>20.2</ele>
        <time>2023-01-20T13:37:24Z</time>
      </trkpt>
      <trkpt lat="49.91471" lon="2.27051">
        <ele>20.2</ele>
        <time>2023-01-20T13:37:25Z</time>
      </trkpt>
      <trkpt lat="49.91472" lon="2.27049">
        <ele>20.2</ele>
        <time>2023-01-20T13:37:26Z</time>
      </trkpt>
      <trkpt lat="49.91473" lon="2.27046">
        <ele>20.2</ele>
        <time>2023-01-20T13:37:27Z</time>
      </trkpt>
      <trkpt lat="49.91474" lon="2.27045">
        <ele>20.2</ele>
        <time>2023-01-20T13:37:29Z</time>
      </trkpt>
      <trkpt lat="49.91475" lon="2.27044">
        <ele>20.2</ele>
        <time>2023-01-20T13:37:30Z</time>
      </trkpt>
      <trkpt lat="49.91476" lon="2.27041">
        <ele>20.2</ele>
        <time>2023-01-20T13:37:31Z</time>
      </trkpt>
      <trkpt lat="49.91477" lon="2.27039">
        <ele>20.2</ele>
        <time>2023-01-20T13:37:32Z</time>
      </trkpt>
      <trkpt lat="49.91477" lon="2.27038">
        <ele>20.2</ele>
        <time>2023-01-20T13:37:33Z</time>
      </trkpt>
      <trkpt lat="49.91478" lon="2.27037">
        <ele>20.2</ele>
        <time>2023-01-20T13:37:34Z</time>
      </trkpt>
      <trkpt lat="49.91478" lon="2.27035">
        <ele>20.2</ele>
        <time>2023-01-20T13:37:35Z</time>
      </trkpt>
      <trkpt lat="49.91479" lon="2.27032">
        <ele>20.2</ele>
        <time>2023-01-20T13:37:36Z</time>
      </trkpt>
      <trkpt lat="49.9148" lon="2.2703">
        <ele>20.2</ele>
        <time>2023-01-20T13:37:38Z</time>
      </trkpt>
      <trkpt lat="49.9148" lon="2.27028">
        <ele>20.2</ele>
        <time>2023-01-20T13:37:39Z</time>
      </trkpt>
      <trkpt lat="49.91481" lon="2.27027">
        <ele>20.2</ele>
        <time>2023-01-20T13:37:40Z</time>
      </trkpt>
      <trkpt lat="49.91481" lon="2.27025">
        <ele>20.2</ele>
        <time>2023-01-20T13:37:41Z</time>
      </trkpt>
      <trkpt lat="49.91482" lon="2.27023">
        <ele>20.2</ele>
        <time>2023-01-20T13:37:42Z</time>
      </trkpt>
      <trkpt lat="49.91483" lon="2.27021">
        <ele>20.2</ele>
        <time>2023-01-20T13:37:43Z</time>
      </trkpt>
      <trkpt lat="49.91484" lon="2.27019">
        <ele>20.2</ele>
        <time>2023-01-20T13:37:44Z</time>
      </trkpt>
      <trkpt lat="49.91485" lon="2.27017">
        <ele>20.2</ele>
        <time>2023-01-20T13:37:45Z</time>
      </trkpt>
      <trkpt lat="49.91485" lon="2.27016">
        <ele>20.2</ele>
        <time>2023-01-20T13:37:46Z</time>
      </trkpt>
      <trkpt lat="49.91486" lon="2.27015">
        <ele>20.2</ele>
        <time>2023-01-20T13:37:47Z</time>
      </trkpt>
      <trkpt lat="49.91486" lon="2.27014">
        <ele>20.2</ele>
        <time>2023-01-20T13:37:49Z</time>
      </trkpt>
      <trkpt lat="49.91487" lon="2.27012">
        <ele>20.3</ele>
        <time>2023-01-20T13:37:50Z</time>
      </trkpt>
      <trkpt lat="49.91488" lon="2.2701">
        <ele>20.3</ele>
        <time>2023-01-20T13:37:51Z</time>
      </trkpt>
      <trkpt lat="49.91489" lon="2.27008">
        <ele>20.3</ele>
        <time>2023-01-20T13:37:52Z</time>
      </trkpt>
      <trkpt lat="49.91489" lon="2.27006">
        <ele>20.3</ele>
        <time>2023-01-20T13:37:53Z</time>
      </trkpt>
      <trkpt lat="49.9149" lon="2.27003">
        <ele>20.3</ele>
        <time>2023-01-20T13:37:55Z</time>
      </trkpt>
      <trkpt lat="49.91491" lon="2.27001">
        <ele>20.3</ele>
        <time>2023-01-20T13:37:56Z</time>
      </trkpt>
      <trkpt lat="49.91492" lon="2.26999">
        <ele>20.3</ele>
        <time>2023-01-20T13:37:57Z</time>
      </trkpt>
      <trkpt lat="49.91493" lon="2.26996">
        <ele>20.2</ele>
        <time>2023-01-20T13:37:58Z</time>
      </trkpt>
      <trkpt lat="49.91493" lon="2.26995">
        <ele>20.2</ele>
        <time>2023-01-20T13:37:59Z</time>
      </trkpt>
      <trkpt lat="49.91493" lon="2.26994">
        <ele>20.2</ele>
        <time>2023-01-20T13:38:00Z</time>
      </trkpt>
      <trkpt lat="49.91494" lon="2.26991">
        <ele>20.2</ele>
        <time>2023-01-20T13:38:02Z</time>
      </trkpt>
      <trkpt lat="49.91495" lon="2.2699">
        <ele>20.2</ele>
        <time>2023-01-20T13:38:03Z</time>
      </trkpt>
      <trkpt lat="49.91496" lon="2.26987">
        <ele>20.2</ele>
        <time>2023-01-20T13:38:04Z</time>
      </trkpt>
      <trkpt lat="49.91496" lon="2.26986">
        <ele>20.2</ele>
        <time>2023-01-20T13:38:05Z</time>
      </trkpt>
      <trkpt lat="49.91497" lon="2.26985">
        <ele>20.2</ele>
        <time>2023-01-20T13:38:06Z</time>
      </trkpt>
      <trkpt lat="49.91498" lon="2.26982">
        <ele>20.2</ele>
        <time>2023-01-20T13:38:07Z</time>
      </trkpt>
      <trkpt lat="49.91499" lon="2.26981">
        <ele>20.2</ele>
        <time>2023-01-20T13:38:08Z</time>
      </trkpt>
      <trkpt lat="49.91499" lon="2.26981">
        <ele>20.2</ele>
        <time>2023-01-20T13:38:09Z</time>
      </trkpt>
      <trkpt lat="49.915" lon="2.26979">
        <ele>20.2</ele>
        <time>2023-01-20T13:38:10Z</time>
      </trkpt>
      <trkpt lat="49.91501" lon="2.26977">
        <ele>20.2</ele>
        <time>2023-01-20T13:38:11Z</time>
      </trkpt>
      <trkpt lat="49.91501" lon="2.26976">
        <ele>20.2</ele>
        <time>2023-01-20T13:38:12Z</time>
      </trkpt>
      <trkpt lat="49.91501" lon="2.26975">
        <ele>20.2</ele>
        <time>2023-01-20T13:38:13Z</time>
      </trkpt>
      <trkpt lat="49.91502" lon="2.26973">
        <ele>20.2</ele>
        <time>2023-01-20T13:38:15Z</time>
      </trkpt>
      <trkpt lat="49.91502" lon="2.26972">
        <ele>20.2</ele>
        <time>2023-01-20T13:38:16Z</time>
      </trkpt>
      <trkpt lat="49.91503" lon="2.2697">
        <ele>20.2</ele>
        <time>2023-01-20T13:38:17Z</time>
      </trkpt>
      <trkpt lat="49.91503" lon="2.26968">
        <ele>20.2</ele>
        <time>2023-01-20T13:38:18Z</time>
      </trkpt>
      <trkpt lat="49.91503" lon="2.26967">
        <ele>20.2</ele>
        <time>2023-01-20T13:38:19Z</time>
      </trkpt>
      <trkpt lat="49.91504" lon="2.26964">
        <ele>20.2</ele>
        <time>2023-01-20T13:38:21Z</time>
      </trkpt>
      <trkpt lat="49.91504" lon="2.26962">
        <ele>20.2</ele>
        <time>2023-01-20T13:38:22Z</time>
      </trkpt>
      <trkpt lat="49.91504" lon="2.26961">
        <ele>20.2</ele>
        <time>2023-01-20T13:38:23Z</time>
      </trkpt>
      <trkpt lat="49.91505" lon="2.26959">
        <ele>20.2</ele>
        <time>2023-01-20T13:38:24Z</time>
      </trkpt>
      <trkpt lat="49.91505" lon="2.26958">
        <ele>20.2</ele>
        <time>2023-01-20T13:38:25Z</time>
      </trkpt>
      <trkpt lat="49.91506" lon="2.26955">
        <ele>20.2</ele>
        <time>2023-01-20T13:38:26Z</time>
      </trkpt>
      <trkpt lat="49.91506" lon="2.26954">
        <ele>20.2</ele>
        <time>2023-01-20T13:38:28Z</time>
      </trkpt>
      <trkpt lat="49.91506" lon="2.26952">
        <ele>20.2</ele>
        <time>2023-01-20T13:38:29Z</time>
      </trkpt>
      <trkpt lat="49.91507" lon="2.26951">
        <ele>20.2</ele>
        <time>2023-01-20T13:38:30Z</time>
      </trkpt>
      <trkpt lat="49.91507" lon="2.26949">
        <ele>20.2</ele>
        <time>2023-01-20T13:38:31Z</time>
      </trkpt>
      <trkpt lat="49.91507" lon="2.26947">
        <ele>20.2</ele>
        <time>2023-01-20T13:38:32Z</time>
      </trkpt>
      <trkpt lat="49.91507" lon="2.26946">
        <ele>20.2</ele>
        <time>2023-01-20T13:38:33Z</time>
      </trkpt>
      <trkpt lat="49.91508" lon="2.26942">
        <ele>20.2</ele>
        <time>2023-01-20T13:38:35Z</time>
      </trkpt>
      <trkpt lat="49.91508" lon="2.2694">
        <ele>20.2</ele>
        <time>2023-01-20T13:38:36Z</time>
      </trkpt>
      <trkpt lat="49.91509" lon="2.26939">
        <ele>20.2</ele>
        <time>2023-01-20T13:38:37Z</time>
      </trkpt>
      <trkpt lat="49.91509" lon="2.26937">
        <ele>20.2</ele>
        <time>2023-01-20T13:38:39Z</time>
      </trkpt>
      <trkpt lat="49.9151" lon="2.26935">
        <ele>20.2</ele>
        <time>2023-01-20T13:38:40Z</time>
      </trkpt>
      <trkpt lat="49.9151" lon="2.26934">
        <ele>20.2</ele>
        <time>2023-01-20T13:38:41Z</time>
      </trkpt>
      <trkpt lat="49.91512" lon="2.26931">
        <ele>20.2</ele>
        <time>2023-01-20T13:38:42Z</time>
      </trkpt>
      <trkpt lat="49.91512" lon="2.26929">
        <ele>20.2</ele>
        <time>2023-01-20T13:38:44Z</time>
      </trkpt>
      <trkpt lat="49.91513" lon="2.26927">
        <ele>20.2</ele>
        <time>2023-01-20T13:38:45Z</time>
      </trkpt>
      <trkpt lat="49.91514" lon="2.26925">
        <ele>20.2</ele>
        <time>2023-01-20T13:38:46Z</time>
      </trkpt>
      <trkpt lat="49.91515" lon="2.26922">
        <ele>20.2</ele>
        <time>2023-01-20T13:38:47Z</time>
      </trkpt>
      <trkpt lat="49.91515" lon="2.26921">
        <ele>20.2</ele>
        <time>2023-01-20T13:38:48Z</time>
      </trkpt>
      <trkpt lat="49.91515" lon="2.26919">
        <ele>20.2</ele>
        <time>2023-01-20T13:38:49Z</time>
      </trkpt>
      <trkpt lat="49.91516" lon="2.26918">
        <ele>20.2</ele>
        <time>2023-01-20T13:38:50Z</time>
      </trkpt>
      <trkpt lat="49.91516" lon="2.26916">
        <ele>20.2</ele>
        <time>2023-01-20T13:38:51Z</time>
      </trkpt>
      <trkpt lat="49.91517" lon="2.26913">
        <ele>20.2</ele>
        <time>2023-01-20T13:38:52Z</time>
      </trkpt>
      <trkpt lat="49.91517" lon="2.26911">
        <ele>20.2</ele>
        <time>2023-01-20T13:38:53Z</time>
      </trkpt>
      <trkpt lat="49.91518" lon="2.26909">
        <ele>20.2</ele>
        <time>2023-01-20T13:38:54Z</time>
      </trkpt>
      <trkpt lat="49.91518" lon="2.26907">
        <ele>20.2</ele>
        <time>2023-01-20T13:38:56Z</time>
      </trkpt>
      <trkpt lat="49.91518" lon="2.26906">
        <ele>20.2</ele>
        <time>2023-01-20T13:38:57Z</time>
      </trkpt>
      <trkpt lat="49.91519" lon="2.26903">
        <ele>20.2</ele>
        <time>2023-01-20T13:38:58Z</time>
      </trkpt>
      <trkpt lat="49.9152" lon="2.26901">
        <ele>20.2</ele>
        <time>2023-01-20T13:38:59Z</time>
      </trkpt>
      <trkpt lat="49.9152" lon="2.26899">
        <ele>20.2</ele>
        <time>2023-01-20T13:39:00Z</time>
      </trkpt>
      <trkpt lat="49.91521" lon="2.26897">
        <ele>20.2</ele>
        <time>2023-01-20T13:39:01Z</time>
      </trkpt>
      <trkpt lat="49.91522" lon="2.26895">
        <ele>20.2</ele>
        <time>2023-01-20T13:39:02Z</time>
      </trkpt>
      <trkpt lat="49.91523" lon="2.26892">
        <ele>20.2</ele>
        <time>2023-01-20T13:39:04Z</time>
      </trkpt>
      <trkpt lat="49.91523" lon="2.26891">
        <ele>20.2</ele>
        <time>2023-01-20T13:39:05Z</time>
      </trkpt>
      <trkpt lat="49.91524" lon="2.2689">
        <ele>20.2</ele>
        <time>2023-01-20T13:39:06Z</time>
      </trkpt>
      <trkpt lat="49.91524" lon="2.26887">
        <ele>20.2</ele>
        <time>2023-01-20T13:39:07Z</time>
      </trkpt>
      <trkpt lat="49.91525" lon="2.26886">
        <ele>20.2</ele>
        <time>2023-01-20T13:39:08Z</time>
      </trkpt>
      <trkpt lat="49.91525" lon="2.26884">
        <ele>20.2</ele>
        <time>2023-01-20T13:39:09Z</time>
      </trkpt>
      <trkpt lat="49.91525" lon="2.26882">
        <ele>20.2</ele>
        <time>2023-01-20T13:39:10Z</time>
      </trkpt>
      <trkpt lat="49.91526" lon="2.2688">
        <ele>20.2</ele>
        <time>2023-01-20T13:39:11Z</time>
      </trkpt>
      <trkpt lat="49.91526" lon="2.26878">
        <ele>20.2</ele>
        <time>2023-01-20T13:39:12Z</time>
      </trkpt>
      <trkpt lat="49.91526" lon="2.26877">
        <ele>20.2</ele>
        <time>2023-01-20T13:39:13Z</time>
      </trkpt>
      <trkpt lat="49.91526" lon="2.26875">
        <ele>20.2</ele>
        <time>2023-01-20T13:39:14Z</time>
      </trkpt>
      <trkpt lat="49.91526" lon="2.26874">
        <ele>20.2</ele>
        <time>2023-01-20T13:39:16Z</time>
      </trkpt>
      <trkpt lat="49.91527" lon="2.26871">
        <ele>20.2</ele>
        <time>2023-01-20T13:39:17Z</time>
      </trkpt>
      <trkpt lat="49.91528" lon="2.26868">
        <ele>20.2</ele>
        <time>2023-01-20T13:39:18Z</time>
      </trkpt>
      <trkpt lat="49.91528" lon="2.26867">
        <ele>20.2</ele>
        <time>2023-01-20T13:39:19Z</time>
      </trkpt>
      <trkpt lat="49.91528" lon="2.26866">
        <ele>20.2</ele>
        <time>2023-01-20T13:39:21Z</time>
      </trkpt>
      <trkpt lat="49.91529" lon="2.26864">
        <ele>20.2</ele>
        <time>2023-01-20T13:39:22Z</time>
      </trkpt>
      <trkpt lat="49.91529" lon="2.26863">
        <ele>20.2</ele>
        <time>2023-01-20T13:39:23Z</time>
      </trkpt>
      <trkpt lat="49.9153" lon="2.26861">
        <ele>20.2</ele>
        <time>2023-01-20T13:39:24Z</time>
      </trkpt>
      <trkpt lat="49.91531" lon="2.26858">
        <ele>20.2</ele>
        <time>2023-01-20T13:39:25Z</time>
      </trkpt>
      <trkpt lat="49.91531" lon="2.26857">
        <ele>20.2</ele>
        <time>2023-01-20T13:39:26Z</time>
      </trkpt>
      <trkpt lat="49.91532" lon="2.26856">
        <ele>20.2</ele>
        <time>2023-01-20T13:39:27Z</time>
      </trkpt>
      <trkpt lat="49.91532" lon="2.26853">
        <ele>20.2</ele>
        <time>2023-01-20T13:39:29Z</time>
      </trkpt>
      <trkpt lat="49.91533" lon="2.26852">
        <ele>20.2</ele>
        <time>2023-01-20T13:39:30Z</time>
      </trkpt>
      <trkpt lat="49.91533" lon="2.2685">
        <ele>20.2</ele>
        <time>2023-01-20T13:39:31Z</time>
      </trkpt>
      <trkpt lat="49.91534" lon="2.26847">
        <ele>20.2</ele>
        <time>2023-01-20T13:39:32Z</time>
      </trkpt>
      <trkpt lat="49.91534" lon="2.26846">
        <ele>20.2</ele>
        <time>2023-01-20T13:39:33Z</time>
      </trkpt>
      <trkpt lat="49.91534" lon="2.26845">
        <ele>20.2</ele>
        <time>2023-01-20T13:39:34Z</time>
      </trkpt>
      <trkpt lat="49.91535" lon="2.26843">
        <ele>20.2</ele>
        <time>2023-01-20T13:39:35Z</time>
      </trkpt>
      <trkpt lat="49.91535" lon="2.26841">
        <ele>20.2</ele>
        <time>2023-01-20T13:39:36Z</time>
      </trkpt>
      <trkpt lat="49.91536" lon="2.26839">
        <ele>20.2</ele>
        <time>2023-01-20T13:39:37Z</time>
      </trkpt>
      <trkpt lat="49.91536" lon="2.26838">
        <ele>20.2</ele>
        <time>2023-01-20T13:39:38Z</time>
      </trkpt>
      <trkpt lat="49.91537" lon="2.26836">
        <ele>20.2</ele>
        <time>2023-01-20T13:39:40Z</time>
      </trkpt>
      <trkpt lat="49.91538" lon="2.26833">
        <ele>20.2</ele>
        <time>2023-01-20T13:39:41Z</time>
      </trkpt>
      <trkpt lat="49.91538" lon="2.26832">
        <ele>20.2</ele>
        <time>2023-01-20T13:39:42Z</time>
      </trkpt>
      <trkpt lat="49.91538" lon="2.2683">
        <ele>20.2</ele>
        <time>2023-01-20T13:39:43Z</time>
      </trkpt>
      <trkpt lat="49.91539" lon="2.26828">
        <ele>20.2</ele>
        <time>2023-01-20T13:39:44Z</time>
      </trkpt>
      <trkpt lat="49.91539" lon="2.26826">
        <ele>20.2</ele>
        <time>2023-01-20T13:39:46Z</time>
      </trkpt>
      <trkpt lat="49.9154" lon="2.26825">
        <ele>20.2</ele>
        <time>2023-01-20T13:39:47Z</time>
      </trkpt>
      <trkpt lat="49.91541" lon="2.26821">
        <ele>20.2</ele>
        <time>2023-01-20T13:39:48Z</time>
      </trkpt>
      <trkpt lat="49.91541" lon="2.2682">
        <ele>20.2</ele>
        <time>2023-01-20T13:39:49Z</time>
      </trkpt>
      <trkpt lat="49.91541" lon="2.26819">
        <ele>20.2</ele>
        <time>2023-01-20T13:39:50Z</time>
      </trkpt>
      <trkpt lat="49.91542" lon="2.26818">
        <ele>20.2</ele>
        <time>2023-01-20T13:39:51Z</time>
      </trkpt>
      <trkpt lat="49.91543" lon="2.26816">
        <ele>20.2</ele>
        <time>2023-01-20T13:39:52Z</time>
      </trkpt>
      <trkpt lat="49.91543" lon="2.26815">
        <ele>20.2</ele>
        <time>2023-01-20T13:39:53Z</time>
      </trkpt>
      <trkpt lat="49.91544" lon="2.26813">
        <ele>20.2</ele>
        <time>2023-01-20T13:39:54Z</time>
      </trkpt>
      <trkpt lat="49.91544" lon="2.26811">
        <ele>20.2</ele>
        <time>2023-01-20T13:39:55Z</time>
      </trkpt>
      <trkpt lat="49.91544" lon="2.2681">
        <ele>20.2</ele>
        <time>2023-01-20T13:39:56Z</time>
      </trkpt>
      <trkpt lat="49.91545" lon="2.26808">
        <ele>20.2</ele>
        <time>2023-01-20T13:39:57Z</time>
      </trkpt>
      <trkpt lat="49.91545" lon="2.26806">
        <ele>20.2</ele>
        <time>2023-01-20T13:39:59Z</time>
      </trkpt>
      <trkpt lat="49.91545" lon="2.26805">
        <ele>20.2</ele>
        <time>2023-01-20T13:40:00Z</time>
      </trkpt>
      <trkpt lat="49.91545" lon="2.26803">
        <ele>20.2</ele>
        <time>2023-01-20T13:40:01Z</time>
      </trkpt>
      <trkpt lat="49.91545" lon="2.26801">
        <ele>20.2</ele>
        <time>2023-01-20T13:40:02Z</time>
      </trkpt>
      <trkpt lat="49.91546" lon="2.26797">
        <ele>20.2</ele>
        <time>2023-01-20T13:40:03Z</time>
      </trkpt>
      <trkpt lat="49.91546" lon="2.26796">
        <ele>20.2</ele>
        <time>2023-01-20T13:40:04Z</time>
      </trkpt>
      <trkpt lat="49.91546" lon="2.26795">
        <ele>20.2</ele>
        <time>2023-01-20T13:40:05Z</time>
      </trkpt>
      <trkpt lat="49.91546" lon="2.26793">
        <ele>20.2</ele>
        <time>2023-01-20T13:40:06Z</time>
      </trkpt>
      <trkpt lat="49.91546" lon="2.2679">
        <ele>20.2</ele>
        <time>2023-01-20T13:40:07Z</time>
      </trkpt>
      <trkpt lat="49.91546" lon="2.26788">
        <ele>20.2</ele>
        <time>2023-01-20T13:40:09Z</time>
      </trkpt>
      <trkpt lat="49.91547" lon="2.26786">
        <ele>20.2</ele>
        <time>2023-01-20T13:40:10Z</time>
      </trkpt>
      <trkpt lat="49.91547" lon="2.26784">
        <ele>20.2</ele>
        <time>2023-01-20T13:40:11Z</time>
      </trkpt>
      <trkpt lat="49.91547" lon="2.26781">
        <ele>20.2</ele>
        <time>2023-01-20T13:40:12Z</time>
      </trkpt>
      <trkpt lat="49.91548" lon="2.26778">
        <ele>20.2</ele>
        <time>2023-01-20T13:40:13Z</time>
      </trkpt>
      <trkpt lat="49.91548" lon="2.26777">
        <ele>20.2</ele>
        <time>2023-01-20T13:40:14Z</time>
      </trkpt>
      <trkpt lat="49.91548" lon="2.26775">
        <ele>20.2</ele>
        <time>2023-01-20T13:40:15Z</time>
      </trkpt>
      <trkpt lat="49.91548" lon="2.26773">
        <ele>20.2</ele>
        <time>2023-01-20T13:40:16Z</time>
      </trkpt>
      <trkpt lat="49.91549" lon="2.26769">
        <ele>20.2</ele>
        <time>2023-01-20T13:40:17Z</time>
      </trkpt>
      <trkpt lat="49.9155" lon="2.26768">
        <ele>20.2</ele>
        <time>2023-01-20T13:40:18Z</time>
      </trkpt>
      <trkpt lat="49.91551" lon="2.26766">
        <ele>20.2</ele>
        <time>2023-01-20T13:40:19Z</time>
      </trkpt>
      <trkpt lat="49.91551" lon="2.26764">
        <ele>20.2</ele>
        <time>2023-01-20T13:40:20Z</time>
      </trkpt>
      <trkpt lat="49.91552" lon="2.26763">
        <ele>20.2</ele>
        <time>2023-01-20T13:40:21Z</time>
      </trkpt>
      <trkpt lat="49.91553" lon="2.26761">
        <ele>20.2</ele>
        <time>2023-01-20T13:40:22Z</time>
      </trkpt>
      <trkpt lat="49.91553" lon="2.26759">
        <ele>20.2</ele>
        <time>2023-01-20T13:40:24Z</time>
      </trkpt>
      <trkpt lat="49.91554" lon="2.26758">
        <ele>20.2</ele>
        <time>2023-01-20T13:40:25Z</time>
      </trkpt>
      <trkpt lat="49.91555" lon="2.26756">
        <ele>20.2</ele>
        <time>2023-01-20T13:40:26Z</time>
      </trkpt>
      <trkpt lat="49.91556" lon="2.26754">
        <ele>20.2</ele>
        <time>2023-01-20T13:40:27Z</time>
      </trkpt>
      <trkpt lat="49.91557" lon="2.26752">
        <ele>20.2</ele>
        <time>2023-01-20T13:40:28Z</time>
      </trkpt>
      <trkpt lat="49.91558" lon="2.26749">
        <ele>20.2</ele>
        <time>2023-01-20T13:40:29Z</time>
      </trkpt>
      <trkpt lat="49.91559" lon="2.26748">
        <ele>20.2</ele>
        <time>2023-01-20T13:40:30Z</time>
      </trkpt>
      <trkpt lat="49.9156" lon="2.26747">
        <ele>20.2</ele>
        <time>2023-01-20T13:40:31Z</time>
      </trkpt>
      <trkpt lat="49.91562" lon="2.26743">
        <ele>20.2</ele>
        <time>2023-01-20T13:40:33Z</time>
      </trkpt>
      <trkpt lat="49.91562" lon="2.26743">
        <ele>20.2</ele>
        <time>2023-01-20T13:40:34Z</time>
      </trkpt>
      <trkpt lat="49.91563" lon="2.26741">
        <ele>20.2</ele>
        <time>2023-01-20T13:40:36Z</time>
      </trkpt>
      <trkpt lat="49.91564" lon="2.26739">
        <ele>20.2</ele>
        <time>2023-01-20T13:40:37Z</time>
      </trkpt>
      <trkpt lat="49.91565" lon="2.26736">
        <ele>20.2</ele>
        <time>2023-01-20T13:40:38Z</time>
      </trkpt>
      <trkpt lat="49.91566" lon="2.26735">
        <ele>20.2</ele>
        <time>2023-01-20T13:40:39Z</time>
      </trkpt>
      <trkpt lat="49.91566" lon="2.26733">
        <ele>20.2</ele>
        <time>2023-01-20T13:40:40Z</time>
      </trkpt>
      <trkpt lat="49.91567" lon="2.26731">
        <ele>20.2</ele>
        <time>2023-01-20T13:40:41Z</time>
      </trkpt>
      <trkpt lat="49.91568" lon="2.26729">
        <ele>20.2</ele>
        <time>2023-01-20T13:40:42Z</time>
      </trkpt>
      <trkpt lat="49.91569" lon="2.26726">
        <ele>20.2</ele>
        <time>2023-01-20T13:40:43Z</time>
      </trkpt>
      <trkpt lat="49.9157" lon="2.26725">
        <ele>20.2</ele>
        <time>2023-01-20T13:40:44Z</time>
      </trkpt>
      <trkpt lat="49.91571" lon="2.26723">
        <ele>20.2</ele>
        <time>2023-01-20T13:40:45Z</time>
      </trkpt>
      <trkpt lat="49.91571" lon="2.26721">
        <ele>20.2</ele>
        <time>2023-01-20T13:40:47Z</time>
      </trkpt>
      <trkpt lat="49.91572" lon="2.26718">
        <ele>20.2</ele>
        <time>2023-01-20T13:40:48Z</time>
      </trkpt>
      <trkpt lat="49.91572" lon="2.26717">
        <ele>20.2</ele>
        <time>2023-01-20T13:40:49Z</time>
      </trkpt>
      <trkpt lat="49.91572" lon="2.26715">
        <ele>20.2</ele>
        <time>2023-01-20T13:40:50Z</time>
      </trkpt>
      <trkpt lat="49.91573" lon="2.26713">
        <ele>20.2</ele>
        <time>2023-01-20T13:40:51Z</time>
      </trkpt>
      <trkpt lat="49.91573" lon="2.2671">
        <ele>20.2</ele>
        <time>2023-01-20T13:40:52Z</time>
      </trkpt>
      <trkpt lat="49.91574" lon="2.26707">
        <ele>20.2</ele>
        <time>2023-01-20T13:40:54Z</time>
      </trkpt>
      <trkpt lat="49.91574" lon="2.26706">
        <ele>20.2</ele>
        <time>2023-01-20T13:40:55Z</time>
      </trkpt>
      <trkpt lat="49.91575" lon="2.26705">
        <ele>20.2</ele>
        <time>2023-01-20T13:40:56Z</time>
      </trkpt>
      <trkpt lat="49.91575" lon="2.26703">
        <ele>20.2</ele>
        <time>2023-01-20T13:40:57Z</time>
      </trkpt>
      <trkpt lat="49.91576" lon="2.26701">
        <ele>20.2</ele>
        <time>2023-01-20T13:40:58Z</time>
      </trkpt>
      <trkpt lat="49.91577" lon="2.26699">
        <ele>20.2</ele>
        <time>2023-01-20T13:40:59Z</time>
      </trkpt>
      <trkpt lat="49.91577" lon="2.26698">
        <ele>20.2</ele>
        <time>2023-01-20T13:41:01Z</time>
      </trkpt>
      <trkpt lat="49.91578" lon="2.26696">
        <ele>20.2</ele>
        <time>2023-01-20T13:41:02Z</time>
      </trkpt>
      <trkpt lat="49.91579" lon="2.26693">
        <ele>20.2</ele>
        <time>2023-01-20T13:41:03Z</time>
      </trkpt>
      <trkpt lat="49.91579" lon="2.26692">
        <ele>20.2</ele>
        <time>2023-01-20T13:41:04Z</time>
      </trkpt>
      <trkpt lat="49.9158" lon="2.2669">
        <ele>20.2</ele>
        <time>2023-01-20T13:41:05Z</time>
      </trkpt>
      <trkpt lat="49.91581" lon="2.26688">
        <ele>20.2</ele>
        <time>2023-01-20T13:41:06Z</time>
      </trkpt>
      <trkpt lat="49.91582" lon="2.26684">
        <ele>20.2</ele>
        <time>2023-01-20T13:41:07Z</time>
      </trkpt>
      <trkpt lat="49.91583" lon="2.26682">
        <ele>20.2</ele>
        <time>2023-01-20T13:41:09Z</time>
      </trkpt>
      <trkpt lat="49.91583" lon="2.26681">
        <ele>20.2</ele>
        <time>2023-01-20T13:41:10Z</time>
      </trkpt>
      <trkpt lat="49.91583" lon="2.2668">
        <ele>20.2</ele>
        <time>2023-01-20T13:41:11Z</time>
      </trkpt>
      <trkpt lat="49.91584" lon="2.26678">
        <ele>20.2</ele>
        <time>2023-01-20T13:41:12Z</time>
      </trkpt>
      <trkpt lat="49.91585" lon="2.26676">
        <ele>20.2</ele>
        <time>2023-01-20T13:41:13Z</time>
      </trkpt>
      <trkpt lat="49.91585" lon="2.26674">
        <ele>20.2</ele>
        <time>2023-01-20T13:41:14Z</time>
      </trkpt>
      <trkpt lat="49.91585" lon="2.26671">
        <ele>20.2</ele>
        <time>2023-01-20T13:41:15Z</time>
      </trkpt>
      <trkpt lat="49.91586" lon="2.26669">
        <ele>20.3</ele>
        <time>2023-01-20T13:41:17Z</time>
      </trkpt>
      <trkpt lat="49.91586" lon="2.26668">
        <ele>20.3</ele>
        <time>2023-01-20T13:41:18Z</time>
      </trkpt>
      <trkpt lat="49.91586" lon="2.26667">
        <ele>20.3</ele>
        <time>2023-01-20T13:41:19Z</time>
      </trkpt>
      <trkpt lat="49.91586" lon="2.26665">
        <ele>20.3</ele>
        <time>2023-01-20T13:41:20Z</time>
      </trkpt>
      <trkpt lat="49.91587" lon="2.26663">
        <ele>20.3</ele>
        <time>2023-01-20T13:41:21Z</time>
      </trkpt>
      <trkpt lat="49.91588" lon="2.26659">
        <ele>20.3</ele>
        <time>2023-01-20T13:41:22Z</time>
      </trkpt>
      <trkpt lat="49.91588" lon="2.26658">
        <ele>20.3</ele>
        <time>2023-01-20T13:41:23Z</time>
      </trkpt>
      <trkpt lat="49.91589" lon="2.26655">
        <ele>20.3</ele>
        <time>2023-01-20T13:41:25Z</time>
      </trkpt>
      <trkpt lat="49.91589" lon="2.26654">
        <ele>20.3</ele>
        <time>2023-01-20T13:41:26Z</time>
      </trkpt>
      <trkpt lat="49.9159" lon="2.26653">
        <ele>20.3</ele>
        <time>2023-01-20T13:41:27Z</time>
      </trkpt>
      <trkpt lat="49.91591" lon="2.26651">
        <ele>20.3</ele>
        <time>2023-01-20T13:41:28Z</time>
      </trkpt>
      <trkpt lat="49.91592" lon="2.26649">
        <ele>20.3</ele>
        <time>2023-01-20T13:41:29Z</time>
      </trkpt>
      <trkpt lat="49.91592" lon="2.26648">
        <ele>20.3</ele>
        <time>2023-01-20T13:41:30Z</time>
      </trkpt>
      <trkpt lat="49.91593" lon="2.26646">
        <ele>20.3</ele>
        <time>2023-01-20T13:41:31Z</time>
      </trkpt>
      <trkpt lat="49.91594" lon="2.26645">
        <ele>20.3</ele>
        <time>2023-01-20T13:41:32Z</time>
      </trkpt>
      <trkpt lat="49.91595" lon="2.26644">
        <ele>20.3</ele>
        <time>2023-01-20T13:41:33Z</time>
      </trkpt>
      <trkpt lat="49.91595" lon="2.26642">
        <ele>20.3</ele>
        <time>2023-01-20T13:41:34Z</time>
      </trkpt>
      <trkpt lat="49.91596" lon="2.2664">
        <ele>20.3</ele>
        <time>2023-01-20T13:41:36Z</time>
      </trkpt>
      <trkpt lat="49.91597" lon="2.26639">
        <ele>20.3</ele>
        <time>2023-01-20T13:41:37Z</time>
      </trkpt>
      <trkpt lat="49.91598" lon="2.26636">
        <ele>20.3</ele>
        <time>2023-01-20T13:41:38Z</time>
      </trkpt>
      <trkpt lat="49.91599" lon="2.26635">
        <ele>20.3</ele>
        <time>2023-01-20T13:41:39Z</time>
      </trkpt>
      <trkpt lat="49.916" lon="2.26632">
        <ele>20.3</ele>
        <time>2023-01-20T13:41:40Z</time>
      </trkpt>
      <trkpt lat="49.916" lon="2.26631">
        <ele>20.3</ele>
        <time>2023-01-20T13:41:41Z</time>
      </trkpt>
      <trkpt lat="49.916" lon="2.2663">
        <ele>20.3</ele>
        <time>2023-01-20T13:41:42Z</time>
      </trkpt>
      <trkpt lat="49.91601" lon="2.26628">
        <ele>20.3</ele>
        <time>2023-01-20T13:41:43Z</time>
      </trkpt>
      <trkpt lat="49.91602" lon="2.26626">
        <ele>20.3</ele>
        <time>2023-01-20T13:41:44Z</time>
      </trkpt>
      <trkpt lat="49.91603" lon="2.26623">
        <ele>20.2</ele>
        <time>2023-01-20T13:41:45Z</time>
      </trkpt>
      <trkpt lat="49.91603" lon="2.26621">
        <ele>20.2</ele>
        <time>2023-01-20T13:41:47Z</time>
      </trkpt>
      <trkpt lat="49.91604" lon="2.2662">
        <ele>20.2</ele>
        <time>2023-01-20T13:41:48Z</time>
      </trkpt>
      <trkpt lat="49.91604" lon="2.26619">
        <ele>20.2</ele>
        <time>2023-01-20T13:41:49Z</time>
      </trkpt>
      <trkpt lat="49.91605" lon="2.26617">
        <ele>20.2</ele>
        <time>2023-01-20T13:41:50Z</time>
      </trkpt>
      <trkpt lat="49.91605" lon="2.26616">
        <ele>20.2</ele>
        <time>2023-01-20T13:41:51Z</time>
      </trkpt>
      <trkpt lat="49.91606" lon="2.26614">
        <ele>20.2</ele>
        <time>2023-01-20T13:41:52Z</time>
      </trkpt>
      <trkpt lat="49.91607" lon="2.26612">
        <ele>20.2</ele>
        <time>2023-01-20T13:41:53Z</time>
      </trkpt>
      <trkpt lat="49.91607" lon="2.26611">
        <ele>20.2</ele>
        <time>2023-01-20T13:41:54Z</time>
      </trkpt>
      <trkpt lat="49.91607" lon="2.2661">
        <ele>20.2</ele>
        <time>2023-01-20T13:41:55Z</time>
      </trkpt>
      <trkpt lat="49.91608" lon="2.26608">
        <ele>20.2</ele>
        <time>2023-01-20T13:41:56Z</time>
      </trkpt>
      <trkpt lat="49.91608" lon="2.26606">
        <ele>20.2</ele>
        <time>2023-01-20T13:41:58Z</time>
      </trkpt>
      <trkpt lat="49.91608" lon="2.26604">
        <ele>20.2</ele>
        <time>2023-01-20T13:41:59Z</time>
      </trkpt>
      <trkpt lat="49.91609" lon="2.26602">
        <ele>20.2</ele>
        <time>2023-01-20T13:42:00Z</time>
      </trkpt>
      <trkpt lat="49.91609" lon="2.26601">
        <ele>20.2</ele>
        <time>2023-01-20T13:42:01Z</time>
      </trkpt>
      <trkpt lat="49.91609" lon="2.266">
        <ele>20.2</ele>
        <time>2023-01-20T13:42:02Z</time>
      </trkpt>
      <trkpt lat="49.91609" lon="2.26598">
        <ele>20.2</ele>
        <time>2023-01-20T13:42:03Z</time>
      </trkpt>
      <trkpt lat="49.91609" lon="2.26597">
        <ele>20.2</ele>
        <time>2023-01-20T13:42:04Z</time>
      </trkpt>
      <trkpt lat="49.91609" lon="2.26595">
        <ele>20.2</ele>
        <time>2023-01-20T13:42:05Z</time>
      </trkpt>
      <trkpt lat="49.91609" lon="2.26593">
        <ele>20.2</ele>
        <time>2023-01-20T13:42:06Z</time>
      </trkpt>
      <trkpt lat="49.91609" lon="2.26592">
        <ele>20.2</ele>
        <time>2023-01-20T13:42:08Z</time>
      </trkpt>
      <trkpt lat="49.91609" lon="2.26589">
        <ele>20.2</ele>
        <time>2023-01-20T13:42:09Z</time>
      </trkpt>
      <trkpt lat="49.91609" lon="2.26588">
        <ele>20.2</ele>
        <time>2023-01-20T13:42:10Z</time>
      </trkpt>
      <trkpt lat="49.91609" lon="2.26586">
        <ele>20.2</ele>
        <time>2023-01-20T13:42:11Z</time>
      </trkpt>
      <trkpt lat="49.91608" lon="2.26585">
        <ele>20.2</ele>
        <time>2023-01-20T13:42:12Z</time>
      </trkpt>
      <trkpt lat="49.91608" lon="2.26583">
        <ele>20.2</ele>
        <time>2023-01-20T13:42:14Z</time>
      </trkpt>
      <trkpt lat="49.91608" lon="2.26581">
        <ele>20.2</ele>
        <time>2023-01-20T13:42:15Z</time>
      </trkpt>
      <trkpt lat="49.91608" lon="2.2658">
        <ele>20.2</ele>
        <time>2023-01-20T13:42:16Z</time>
      </trkpt>
      <trkpt lat="49.91608" lon="2.26578">
        <ele>20.2</ele>
        <time>2023-01-20T13:42:17Z</time>
      </trkpt>
      <trkpt lat="49.91609" lon="2.26576">
        <ele>20.2</ele>
        <time>2023-01-20T13:42:18Z</time>
      </trkpt>
      <trkpt lat="49.91609" lon="2.26575">
        <ele>20.2</ele>
        <time>2023-01-20T13:42:19Z</time>
      </trkpt>
      <trkpt lat="49.91609" lon="2.26573">
        <ele>20.2</ele>
        <time>2023-01-20T13:42:20Z</time>
      </trkpt>
      <trkpt lat="49.9161" lon="2.26571">
        <ele>20.2</ele>
        <time>2023-01-20T13:42:21Z</time>
      </trkpt>
      <trkpt lat="49.9161" lon="2.26569">
        <ele>20.2</ele>
        <time>2023-01-20T13:42:23Z</time>
      </trkpt>
      <trkpt lat="49.91611" lon="2.26567">
        <ele>20.2</ele>
        <time>2023-01-20T13:42:24Z</time>
      </trkpt>
      <trkpt lat="49.91612" lon="2.26566">
        <ele>20.2</ele>
        <time>2023-01-20T13:42:25Z</time>
      </trkpt>
      <trkpt lat="49.91612" lon="2.26566">
        <ele>20.2</ele>
        <time>2023-01-20T13:42:26Z</time>
      </trkpt>
      <trkpt lat="49.91613" lon="2.26566">
        <ele>20.2</ele>
        <time>2023-01-20T13:42:27Z</time>
      </trkpt>
      <trkpt lat="49.91614" lon="2.26565">
        <ele>20.2</ele>
        <time>2023-01-20T13:42:28Z</time>
      </trkpt>
      <trkpt lat="49.91615" lon="2.26564">
        <ele>20.2</ele>
        <time>2023-01-20T13:42:29Z</time>
      </trkpt>
      <trkpt lat="49.91616" lon="2.26563">
        <ele>20.2</ele>
        <time>2023-01-20T13:42:31Z</time>
      </trkpt>
      <trkpt lat="49.91616" lon="2.26563">
        <ele>20.2</ele>
        <time>2023-01-20T13:42:32Z</time>
      </trkpt>
      <trkpt lat="49.91618" lon="2.26561">
        <ele>20.2</ele>
        <time>2023-01-20T13:42:33Z</time>
      </trkpt>
      <trkpt lat="49.91618" lon="2.26561">
        <ele>20.2</ele>
        <time>2023-01-20T13:42:34Z</time>
      </trkpt>
      <trkpt lat="49.91619" lon="2.2656">
        <ele>20.2</ele>
        <time>2023-01-20T13:42:35Z</time>
      </trkpt>
      <trkpt lat="49.91621" lon="2.26557">
        <ele>20.2</ele>
        <time>2023-01-20T13:42:36Z</time>
      </trkpt>
      <trkpt lat="49.91621" lon="2.26556">
        <ele>20.2</ele>
        <time>2023-01-20T13:42:38Z</time>
      </trkpt>
      <trkpt lat="49.91622" lon="2.26555">
        <ele>20.2</ele>
        <time>2023-01-20T13:42:39Z</time>
      </trkpt>
      <trkpt lat="49.91622" lon="2.26552">
        <ele>20.2</ele>
        <time>2023-01-20T13:42:40Z</time>
      </trkpt>
      <trkpt lat="49.91623" lon="2.26551">
        <ele>20.2</ele>
        <time>2023-01-20T13:42:41Z</time>
      </trkpt>
      <trkpt lat="49.91623" lon="2.26549">
        <ele>20.2</ele>
        <time>2023-01-20T13:42:42Z</time>
      </trkpt>
      <trkpt lat="49.91624" lon="2.26546">
        <ele>20.2</ele>
        <time>2023-01-20T13:42:43Z</time>
      </trkpt>
      <trkpt lat="49.91624" lon="2.26545">
        <ele>20.2</ele>
        <time>2023-01-20T13:42:44Z</time>
      </trkpt>
      <trkpt lat="49.91625" lon="2.26542">
        <ele>20.2</ele>
        <time>2023-01-20T13:42:45Z</time>
      </trkpt>
      <trkpt lat="49.91625" lon="2.26541">
        <ele>20.2</ele>
        <time>2023-01-20T13:42:47Z</time>
      </trkpt>
      <trkpt lat="49.91626" lon="2.26539">
        <ele>20.2</ele>
        <time>2023-01-20T13:42:48Z</time>
      </trkpt>
      <trkpt lat="49.91627" lon="2.26537">
        <ele>20.2</ele>
        <time>2023-01-20T13:42:49Z</time>
      </trkpt>
      <trkpt lat="49.91627" lon="2.26535">
        <ele>20.2</ele>
        <time>2023-01-20T13:42:50Z</time>
      </trkpt>
      <trkpt lat="49.91628" lon="2.26533">
        <ele>20.2</ele>
        <time>2023-01-20T13:42:51Z</time>
      </trkpt>
      <trkpt lat="49.91629" lon="2.26531">
        <ele>20.2</ele>
        <time>2023-01-20T13:42:52Z</time>
      </trkpt>
      <trkpt lat="49.9163" lon="2.26528">
        <ele>20.2</ele>
        <time>2023-01-20T13:42:53Z</time>
      </trkpt>
      <trkpt lat="49.9163" lon="2.26526">
        <ele>20.2</ele>
        <time>2023-01-20T13:42:54Z</time>
      </trkpt>
      <trkpt lat="49.9163" lon="2.26523">
        <ele>20.3</ele>
        <time>2023-01-20T13:42:56Z</time>
      </trkpt>
      <trkpt lat="49.91631" lon="2.26522">
        <ele>20.3</ele>
        <time>2023-01-20T13:42:57Z</time>
      </trkpt>
      <trkpt lat="49.91631" lon="2.2652">
        <ele>20.3</ele>
        <time>2023-01-20T13:42:58Z</time>
      </trkpt>
      <trkpt lat="49.91632" lon="2.26516">
        <ele>20.3</ele>
        <time>2023-01-20T13:42:59Z</time>
      </trkpt>
      <trkpt lat="49.91632" lon="2.26514">
        <ele>20.3</ele>
        <time>2023-01-20T13:43:01Z</time>
      </trkpt>
      <trkpt lat="49.91632" lon="2.26512">
        <ele>20.3</ele>
        <time>2023-01-20T13:43:02Z</time>
      </trkpt>
      <trkpt lat="49.91633" lon="2.2651">
        <ele>20.3</ele>
        <time>2023-01-20T13:43:03Z</time>
      </trkpt>
      <trkpt lat="49.91633" lon="2.26508">
        <ele>20.3</ele>
        <time>2023-01-20T13:43:04Z</time>
      </trkpt>
      <trkpt lat="49.91633" lon="2.26507">
        <ele>20.3</ele>
        <time>2023-01-20T13:43:05Z</time>
      </trkpt>
      <trkpt lat="49.91634" lon="2.26505">
        <ele>20.3</ele>
        <time>2023-01-20T13:43:06Z</time>
      </trkpt>
      <trkpt lat="49.91634" lon="2.26503">
        <ele>20.3</ele>
        <time>2023-01-20T13:43:07Z</time>
      </trkpt>
      <trkpt lat="49.91635" lon="2.265">
        <ele>20.3</ele>
        <time>2023-01-20T13:43:08Z</time>
      </trkpt>
      <trkpt lat="49.91635" lon="2.26499">
        <ele>20.3</ele>
        <time>2023-01-20T13:43:09Z</time>
      </trkpt>
      <trkpt lat="49.91636" lon="2.26498">
        <ele>20.3</ele>
        <time>2023-01-20T13:43:11Z</time>
      </trkpt>
      <trkpt lat="49.91636" lon="2.26496">
        <ele>20.3</ele>
        <time>2023-01-20T13:43:12Z</time>
      </trkpt>
      <trkpt lat="49.91636" lon="2.26494">
        <ele>20.3</ele>
        <time>2023-01-20T13:43:13Z</time>
      </trkpt>
      <trkpt lat="49.91637" lon="2.26491">
        <ele>20.3</ele>
        <time>2023-01-20T13:43:14Z</time>
      </trkpt>
      <trkpt lat="49.91637" lon="2.2649">
        <ele>20.3</ele>
        <time>2023-01-20T13:43:16Z</time>
      </trkpt>
      <trkpt lat="49.91637" lon="2.26489">
        <ele>20.3</ele>
        <time>2023-01-20T13:43:17Z</time>
      </trkpt>
      <trkpt lat="49.91638" lon="2.26487">
        <ele>20.3</ele>
        <time>2023-01-20T13:43:18Z</time>
      </trkpt>
      <trkpt lat="49.91639" lon="2.26485">
        <ele>20.3</ele>
        <time>2023-01-20T13:43:19Z</time>
      </trkpt>
      <trkpt lat="49.91639" lon="2.26482">
        <ele>20.4</ele>
        <time>2023-01-20T13:43:20Z</time>
      </trkpt>
      <trkpt lat="49.9164" lon="2.26481">
        <ele>20.4</ele>
        <time>2023-01-20T13:43:21Z</time>
      </trkpt>
      <trkpt lat="49.9164" lon="2.26479">
        <ele>20.4</ele>
        <time>2023-01-20T13:43:22Z</time>
      </trkpt>
      <trkpt lat="49.91641" lon="2.26477">
        <ele>20.4</ele>
        <time>2023-01-20T13:43:23Z</time>
      </trkpt>
      <trkpt lat="49.91641" lon="2.26475">
        <ele>20.4</ele>
        <time>2023-01-20T13:43:24Z</time>
      </trkpt>
      <trkpt lat="49.91642" lon="2.26474">
        <ele>20.4</ele>
        <time>2023-01-20T13:43:25Z</time>
      </trkpt>
      <trkpt lat="49.91642" lon="2.26472">
        <ele>20.4</ele>
        <time>2023-01-20T13:43:27Z</time>
      </trkpt>
      <trkpt lat="49.91643" lon="2.2647">
        <ele>20.4</ele>
        <time>2023-01-20T13:43:28Z</time>
      </trkpt>
      <trkpt lat="49.91644" lon="2.26467">
        <ele>20.4</ele>
        <time>2023-01-20T13:43:29Z</time>
      </trkpt>
      <trkpt lat="49.91644" lon="2.26466">
        <ele>20.4</ele>
        <time>2023-01-20T13:43:30Z</time>
      </trkpt>
      <trkpt lat="49.91644" lon="2.26465">
        <ele>20.4</ele>
        <time>2023-01-20T13:43:31Z</time>
      </trkpt>
      <trkpt lat="49.91645" lon="2.26463">
        <ele>20.3</ele>
        <time>2023-01-20T13:43:32Z</time>
      </trkpt>
      <trkpt lat="49.91645" lon="2.2646">
        <ele>20.3</ele>
        <time>2023-01-20T13:43:33Z</time>
      </trkpt>
      <trkpt lat="49.91646" lon="2.26458">
        <ele>20.3</ele>
        <time>2023-01-20T13:43:34Z</time>
      </trkpt>
      <trkpt lat="49.91646" lon="2.26457">
        <ele>20.3</ele>
        <time>2023-01-20T13:43:35Z</time>
      </trkpt>
      <trkpt lat="49.91647" lon="2.26455">
        <ele>20.3</ele>
        <time>2023-01-20T13:43:37Z</time>
      </trkpt>
      <trkpt lat="49.91647" lon="2.26453">
        <ele>20.3</ele>
        <time>2023-01-20T13:43:38Z</time>
      </trkpt>
      <trkpt lat="49.91648" lon="2.2645">
        <ele>20.3</ele>
        <time>2023-01-20T13:43:39Z</time>
      </trkpt>
      <trkpt lat="49.91649" lon="2.26447">
        <ele>20.3</ele>
        <time>2023-01-20T13:43:40Z</time>
      </trkpt>
      <trkpt lat="49.91649" lon="2.26445">
        <ele>20.3</ele>
        <time>2023-01-20T13:43:41Z</time>
      </trkpt>
      <trkpt lat="49.9165" lon="2.26444">
        <ele>20.3</ele>
        <time>2023-01-20T13:43:42Z</time>
      </trkpt>
      <trkpt lat="49.9165" lon="2.2644">
        <ele>20.3</ele>
        <time>2023-01-20T13:43:43Z</time>
      </trkpt>
      <trkpt lat="49.91651" lon="2.26439">
        <ele>20.3</ele>
        <time>2023-01-20T13:43:44Z</time>
      </trkpt>
      <trkpt lat="49.91651" lon="2.26437">
        <ele>20.3</ele>
        <time>2023-01-20T13:43:46Z</time>
      </trkpt>
      <trkpt lat="49.91652" lon="2.26436">
        <ele>20.3</ele>
        <time>2023-01-20T13:43:47Z</time>
      </trkpt>
      <trkpt lat="49.91652" lon="2.26434">
        <ele>20.3</ele>
        <time>2023-01-20T13:43:48Z</time>
      </trkpt>
      <trkpt lat="49.91652" lon="2.26433">
        <ele>20.3</ele>
        <time>2023-01-20T13:43:49Z</time>
      </trkpt>
      <trkpt lat="49.91653" lon="2.26432">
        <ele>20.3</ele>
        <time>2023-01-20T13:43:50Z</time>
      </trkpt>
      <trkpt lat="49.91653" lon="2.2643">
        <ele>20.3</ele>
        <time>2023-01-20T13:43:51Z</time>
      </trkpt>
      <trkpt lat="49.91654" lon="2.26428">
        <ele>20.3</ele>
        <time>2023-01-20T13:43:52Z</time>
      </trkpt>
      <trkpt lat="49.91654" lon="2.26427">
        <ele>20.3</ele>
        <time>2023-01-20T13:43:53Z</time>
      </trkpt>
      <trkpt lat="49.91655" lon="2.26424">
        <ele>20.3</ele>
        <time>2023-01-20T13:43:54Z</time>
      </trkpt>
      <trkpt lat="49.91655" lon="2.26423">
        <ele>20.3</ele>
        <time>2023-01-20T13:43:55Z</time>
      </trkpt>
      <trkpt lat="49.91656" lon="2.26422">
        <ele>20.3</ele>
        <time>2023-01-20T13:43:57Z</time>
      </trkpt>
      <trkpt lat="49.91656" lon="2.2642">
        <ele>20.3</ele>
        <time>2023-01-20T13:43:58Z</time>
      </trkpt>
      <trkpt lat="49.91657" lon="2.26417">
        <ele>20.3</ele>
        <time>2023-01-20T13:43:59Z</time>
      </trkpt>
      <trkpt lat="49.91657" lon="2.26415">
        <ele>20.3</ele>
        <time>2023-01-20T13:44:00Z</time>
      </trkpt>
      <trkpt lat="49.91657" lon="2.26414">
        <ele>20.3</ele>
        <time>2023-01-20T13:44:01Z</time>
      </trkpt>
      <trkpt lat="49.91658" lon="2.26412">
        <ele>20.3</ele>
        <time>2023-01-20T13:44:02Z</time>
      </trkpt>
      <trkpt lat="49.91658" lon="2.2641">
        <ele>20.3</ele>
        <time>2023-01-20T13:44:03Z</time>
      </trkpt>
      <trkpt lat="49.91658" lon="2.26407">
        <ele>20.3</ele>
        <time>2023-01-20T13:44:04Z</time>
      </trkpt>
      <trkpt lat="49.91658" lon="2.26407">
        <ele>20.3</ele>
        <time>2023-01-20T13:44:05Z</time>
      </trkpt>
      <trkpt lat="49.91658" lon="2.26405">
        <ele>20.3</ele>
        <time>2023-01-20T13:44:07Z</time>
      </trkpt>
      <trkpt lat="49.91658" lon="2.26404">
        <ele>20.3</ele>
        <time>2023-01-20T13:44:08Z</time>
      </trkpt>
      <trkpt lat="49.91659" lon="2.26401">
        <ele>20.3</ele>
        <time>2023-01-20T13:44:09Z</time>
      </trkpt>
      <trkpt lat="49.91659" lon="2.264">
        <ele>20.3</ele>
        <time>2023-01-20T13:44:10Z</time>
      </trkpt>
      <trkpt lat="49.91659" lon="2.26398">
        <ele>20.3</ele>
        <time>2023-01-20T13:44:11Z</time>
      </trkpt>
      <trkpt lat="49.9166" lon="2.26396">
        <ele>20.3</ele>
        <time>2023-01-20T13:44:12Z</time>
      </trkpt>
      <trkpt lat="49.9166" lon="2.26394">
        <ele>20.3</ele>
        <time>2023-01-20T13:44:13Z</time>
      </trkpt>
      <trkpt lat="49.91661" lon="2.26392">
        <ele>20.3</ele>
        <time>2023-01-20T13:44:14Z</time>
      </trkpt>
      <trkpt lat="49.91662" lon="2.2639">
        <ele>20.3</ele>
        <time>2023-01-20T13:44:15Z</time>
      </trkpt>
      <trkpt lat="49.91662" lon="2.26389">
        <ele>20.3</ele>
        <time>2023-01-20T13:44:16Z</time>
      </trkpt>
      <trkpt lat="49.91663" lon="2.26387">
        <ele>20.3</ele>
        <time>2023-01-20T13:44:18Z</time>
      </trkpt>
      <trkpt lat="49.91663" lon="2.26384">
        <ele>20.3</ele>
        <time>2023-01-20T13:44:19Z</time>
      </trkpt>
      <trkpt lat="49.91664" lon="2.26383">
        <ele>20.3</ele>
        <time>2023-01-20T13:44:20Z</time>
      </trkpt>
      <trkpt lat="49.91664" lon="2.26381">
        <ele>20.3</ele>
        <time>2023-01-20T13:44:21Z</time>
      </trkpt>
      <trkpt lat="49.91665" lon="2.2638">
        <ele>20.3</ele>
        <time>2023-01-20T13:44:22Z</time>
      </trkpt>
      <trkpt lat="49.91666" lon="2.26378">
        <ele>20.2</ele>
        <time>2023-01-20T13:44:24Z</time>
      </trkpt>
      <trkpt lat="49.91667" lon="2.26375">
        <ele>20.2</ele>
        <time>2023-01-20T13:44:25Z</time>
      </trkpt>
      <trkpt lat="49.91668" lon="2.26373">
        <ele>20.2</ele>
        <time>2023-01-20T13:44:26Z</time>
      </trkpt>
      <trkpt lat="49.91668" lon="2.26372">
        <ele>20.2</ele>
        <time>2023-01-20T13:44:27Z</time>
      </trkpt>
      <trkpt lat="49.91669" lon="2.2637">
        <ele>20.2</ele>
        <time>2023-01-20T13:44:28Z</time>
      </trkpt>
      <trkpt lat="49.9167" lon="2.26368">
        <ele>20.2</ele>
        <time>2023-01-20T13:44:29Z</time>
      </trkpt>
      <trkpt lat="49.91671" lon="2.26366">
        <ele>20.2</ele>
        <time>2023-01-20T13:44:30Z</time>
      </trkpt>
      <trkpt lat="49.91671" lon="2.26364">
        <ele>20.2</ele>
        <time>2023-01-20T13:44:31Z</time>
      </trkpt>
      <trkpt lat="49.91672" lon="2.26362">
        <ele>20.2</ele>
        <time>2023-01-20T13:44:32Z</time>
      </trkpt>
      <trkpt lat="49.91672" lon="2.26361">
        <ele>20.2</ele>
        <time>2023-01-20T13:44:34Z</time>
      </trkpt>
      <trkpt lat="49.91673" lon="2.26358">
        <ele>20.2</ele>
        <time>2023-01-20T13:44:35Z</time>
      </trkpt>
      <trkpt lat="49.91673" lon="2.26356">
        <ele>20.2</ele>
        <time>2023-01-20T13:44:36Z</time>
      </trkpt>
      <trkpt lat="49.91674" lon="2.26353">
        <ele>20.2</ele>
        <time>2023-01-20T13:44:37Z</time>
      </trkpt>
      <trkpt lat="49.91675" lon="2.26352">
        <ele>20.2</ele>
        <time>2023-01-20T13:44:38Z</time>
      </trkpt>
      <trkpt lat="49.91676" lon="2.2635">
        <ele>20.2</ele>
        <time>2023-01-20T13:44:39Z</time>
      </trkpt>
      <trkpt lat="49.91676" lon="2.26349">
        <ele>20.2</ele>
        <time>2023-01-20T13:44:40Z</time>
      </trkpt>
      <trkpt lat="49.91677" lon="2.26348">
        <ele>20.2</ele>
        <time>2023-01-20T13:44:41Z</time>
      </trkpt>
      <trkpt lat="49.91678" lon="2.26346">
        <ele>20.2</ele>
        <time>2023-01-20T13:44:42Z</time>
      </trkpt>
      <trkpt lat="49.91679" lon="2.26346">
        <ele>20.2</ele>
        <time>2023-01-20T13:44:44Z</time>
      </trkpt>
      <trkpt lat="49.91681" lon="2.26345">
        <ele>20.2</ele>
        <time>2023-01-20T13:44:45Z</time>
      </trkpt>
      <trkpt lat="49.91682" lon="2.26345">
        <ele>20.2</ele>
        <time>2023-01-20T13:44:46Z</time>
      </trkpt>
      <trkpt lat="49.91683" lon="2.26343">
        <ele>20.2</ele>
        <time>2023-01-20T13:44:47Z</time>
      </trkpt>
      <trkpt lat="49.91684" lon="2.26343">
        <ele>20.2</ele>
        <time>2023-01-20T13:44:48Z</time>
      </trkpt>
      <trkpt lat="49.91685" lon="2.26342">
        <ele>20.2</ele>
        <time>2023-01-20T13:44:49Z</time>
      </trkpt>
      <trkpt lat="49.91686" lon="2.26341">
        <ele>20.2</ele>
        <time>2023-01-20T13:44:50Z</time>
      </trkpt>
      <trkpt lat="49.91686" lon="2.2634">
        <ele>20.2</ele>
        <time>2023-01-20T13:44:51Z</time>
      </trkpt>
      <trkpt lat="49.91688" lon="2.26337">
        <ele>20.2</ele>
        <time>2023-01-20T13:44:52Z</time>
      </trkpt>
      <trkpt lat="49.91688" lon="2.26336">
        <ele>20.2</ele>
        <time>2023-01-20T13:44:53Z</time>
      </trkpt>
      <trkpt lat="49.91689" lon="2.26335">
        <ele>20.2</ele>
        <time>2023-01-20T13:44:54Z</time>
      </trkpt>
      <trkpt lat="49.9169" lon="2.26333">
        <ele>20.2</ele>
        <time>2023-01-20T13:44:56Z</time>
      </trkpt>
      <trkpt lat="49.91691" lon="2.26332">
        <ele>20.2</ele>
        <time>2023-01-20T13:44:57Z</time>
      </trkpt>
      <trkpt lat="49.91691" lon="2.26331">
        <ele>20.2</ele>
        <time>2023-01-20T13:44:58Z</time>
      </trkpt>
      <trkpt lat="49.91692" lon="2.26329">
        <ele>20.2</ele>
        <time>2023-01-20T13:44:59Z</time>
      </trkpt>
      <trkpt lat="49.91692" lon="2.26328">
        <ele>20.2</ele>
        <time>2023-01-20T13:45:00Z</time>
      </trkpt>
      <trkpt lat="49.91693" lon="2.26327">
        <ele>20.2</ele>
        <time>2023-01-20T13:45:01Z</time>
      </trkpt>
      <trkpt lat="49.91694" lon="2.26325">
        <ele>20.2</ele>
        <time>2023-01-20T13:45:02Z</time>
      </trkpt>
      <trkpt lat="49.91694" lon="2.26323">
        <ele>20.2</ele>
        <time>2023-01-20T13:45:03Z</time>
      </trkpt>
      <trkpt lat="49.91695" lon="2.26321">
        <ele>20.2</ele>
        <time>2023-01-20T13:45:05Z</time>
      </trkpt>
      <trkpt lat="49.91696" lon="2.2632">
        <ele>20.2</ele>
        <time>2023-01-20T13:45:06Z</time>
      </trkpt>
      <trkpt lat="49.91696" lon="2.26319">
        <ele>20.2</ele>
        <time>2023-01-20T13:45:07Z</time>
      </trkpt>
      <trkpt lat="49.91697" lon="2.26317">
        <ele>20.2</ele>
        <time>2023-01-20T13:45:08Z</time>
      </trkpt>
      <trkpt lat="49.91698" lon="2.26314">
        <ele>20.2</ele>
        <time>2023-01-20T13:45:09Z</time>
      </trkpt>
      <trkpt lat="49.91699" lon="2.26313">
        <ele>20.2</ele>
        <time>2023-01-20T13:45:10Z</time>
      </trkpt>
      <trkpt lat="49.91699" lon="2.26312">
        <ele>20.2</ele>
        <time>2023-01-20T13:45:11Z</time>
      </trkpt>
      <trkpt lat="49.917" lon="2.26309">
        <ele>20.2</ele>
        <time>2023-01-20T13:45:12Z</time>
      </trkpt>
      <trkpt lat="49.91701" lon="2.26308">
        <ele>20.2</ele>
        <time>2023-01-20T13:45:14Z</time>
      </trkpt>
      <trkpt lat="49.91701" lon="2.26306">
        <ele>20.2</ele>
        <time>2023-01-20T13:45:15Z</time>
      </trkpt>
      <trkpt lat="49.91702" lon="2.26303">
        <ele>20.2</ele>
        <time>2023-01-20T13:45:16Z</time>
      </trkpt>
      <trkpt lat="49.91703" lon="2.26302">
        <ele>20.2</ele>
        <time>2023-01-20T13:45:18Z</time>
      </trkpt>
      <trkpt lat="49.91703" lon="2.26301">
        <ele>20.2</ele>
        <time>2023-01-20T13:45:19Z</time>
      </trkpt>
      <trkpt lat="49.91704" lon="2.26298">
        <ele>20.2</ele>
        <time>2023-01-20T13:45:20Z</time>
      </trkpt>
      <trkpt lat="49.91705" lon="2.26297">
        <ele>20.2</ele>
        <time>2023-01-20T13:45:21Z</time>
      </trkpt>
      <trkpt lat="49.91705" lon="2.26294">
        <ele>20.2</ele>
        <time>2023-01-20T13:45:22Z</time>
      </trkpt>
      <trkpt lat="49.91705" lon="2.26292">
        <ele>20.2</ele>
        <time>2023-01-20T13:45:23Z</time>
      </trkpt>
      <trkpt lat="49.91705" lon="2.2629">
        <ele>20.2</ele>
        <time>2023-01-20T13:45:24Z</time>
      </trkpt>
      <trkpt lat="49.91705" lon="2.26289">
        <ele>20.2</ele>
        <time>2023-01-20T13:45:25Z</time>
      </trkpt>
      <trkpt lat="49.91705" lon="2.26287">
        <ele>20.2</ele>
        <time>2023-01-20T13:45:26Z</time>
      </trkpt>
      <trkpt lat="49.91705" lon="2.26285">
        <ele>20.2</ele>
        <time>2023-01-20T13:45:28Z</time>
      </trkpt>
      <trkpt lat="49.91705" lon="2.26283">
        <ele>20.2</ele>
        <time>2023-01-20T13:45:29Z</time>
      </trkpt>
      <trkpt lat="49.91705" lon="2.2628">
        <ele>20.2</ele>
        <time>2023-01-20T13:45:30Z</time>
      </trkpt>
      <trkpt lat="49.91705" lon="2.26277">
        <ele>20.2</ele>
        <time>2023-01-20T13:45:31Z</time>
      </trkpt>
      <trkpt lat="49.91706" lon="2.26276">
        <ele>20.2</ele>
        <time>2023-01-20T13:45:32Z</time>
      </trkpt>
      <trkpt lat="49.91706" lon="2.26274">
        <ele>20.2</ele>
        <time>2023-01-20T13:45:33Z</time>
      </trkpt>
      <trkpt lat="49.91706" lon="2.26271">
        <ele>20.2</ele>
        <time>2023-01-20T13:45:34Z</time>
      </trkpt>
      <trkpt lat="49.91707" lon="2.2627">
        <ele>20.2</ele>
        <time>2023-01-20T13:45:35Z</time>
      </trkpt>
      <trkpt lat="49.91707" lon="2.26267">
        <ele>20.2</ele>
        <time>2023-01-20T13:45:37Z</time>
      </trkpt>
      <trkpt lat="49.91707" lon="2.26266">
        <ele>20.2</ele>
        <time>2023-01-20T13:45:38Z</time>
      </trkpt>
      <trkpt lat="49.91708" lon="2.26264">
        <ele>20.2</ele>
        <time>2023-01-20T13:45:39Z</time>
      </trkpt>
      <trkpt lat="49.91708" lon="2.26261">
        <ele>20.2</ele>
        <time>2023-01-20T13:45:40Z</time>
      </trkpt>
      <trkpt lat="49.91708" lon="2.26259">
        <ele>20.2</ele>
        <time>2023-01-20T13:45:41Z</time>
      </trkpt>
      <trkpt lat="49.91708" lon="2.26256">
        <ele>20.2</ele>
        <time>2023-01-20T13:45:42Z</time>
      </trkpt>
      <trkpt lat="49.91708" lon="2.26254">
        <ele>20.2</ele>
        <time>2023-01-20T13:45:43Z</time>
      </trkpt>
      <trkpt lat="49.91708" lon="2.26251">
        <ele>20.2</ele>
        <time>2023-01-20T13:45:45Z</time>
      </trkpt>
      <trkpt lat="49.91708" lon="2.26251">
        <ele>20.2</ele>
        <time>2023-01-20T13:45:46Z</time>
      </trkpt>
      <trkpt lat="49.91708" lon="2.26249">
        <ele>20.2</ele>
        <time>2023-01-20T13:45:47Z</time>
      </trkpt>
      <trkpt lat="49.91708" lon="2.26248">
        <ele>20.2</ele>
        <time>2023-01-20T13:45:48Z</time>
      </trkpt>
      <trkpt lat="49.91708" lon="2.26246">
        <ele>20.2</ele>
        <time>2023-01-20T13:45:49Z</time>
      </trkpt>
      <trkpt lat="49.91709" lon="2.26244">
        <ele>20.2</ele>
        <time>2023-01-20T13:45:50Z</time>
      </trkpt>
      <trkpt lat="49.91709" lon="2.26242">
        <ele>20.2</ele>
        <time>2023-01-20T13:45:51Z</time>
      </trkpt>
      <trkpt lat="49.9171" lon="2.26239">
        <ele>20.2</ele>
        <time>2023-01-20T13:45:52Z</time>
      </trkpt>
      <trkpt lat="49.9171" lon="2.26238">
        <ele>20.2</ele>
        <time>2023-01-20T13:45:54Z</time>
      </trkpt>
      <trkpt lat="49.9171" lon="2.26236">
        <ele>20.2</ele>
        <time>2023-01-20T13:45:55Z</time>
      </trkpt>
      <trkpt lat="49.91711" lon="2.26234">
        <ele>20.2</ele>
        <time>2023-01-20T13:45:56Z</time>
      </trkpt>
      <trkpt lat="49.91711" lon="2.26232">
        <ele>20.2</ele>
        <time>2023-01-20T13:45:57Z</time>
      </trkpt>
      <trkpt lat="49.91712" lon="2.26231">
        <ele>20.2</ele>
        <time>2023-01-20T13:45:58Z</time>
      </trkpt>
      <trkpt lat="49.91713" lon="2.26228">
        <ele>20.2</ele>
        <time>2023-01-20T13:45:59Z</time>
      </trkpt>
      <trkpt lat="49.91713" lon="2.26228">
        <ele>20.2</ele>
        <time>2023-01-20T13:46:00Z</time>
      </trkpt>
      <trkpt lat="49.91714" lon="2.26225">
        <ele>20.2</ele>
        <time>2023-01-20T13:46:02Z</time>
      </trkpt>
      <trkpt lat="49.91715" lon="2.26224">
        <ele>20.2</ele>
        <time>2023-01-20T13:46:03Z</time>
      </trkpt>
      <trkpt lat="49.91715" lon="2.26223">
        <ele>20.2</ele>
        <time>2023-01-20T13:46:04Z</time>
      </trkpt>
      <trkpt lat="49.91717" lon="2.2622">
        <ele>20.2</ele>
        <time>2023-01-20T13:46:05Z</time>
      </trkpt>
      <trkpt lat="49.91717" lon="2.26219">
        <ele>20.2</ele>
        <time>2023-01-20T13:46:06Z</time>
      </trkpt>
      <trkpt lat="49.91718" lon="2.26218">
        <ele>20.2</ele>
        <time>2023-01-20T13:46:07Z</time>
      </trkpt>
      <trkpt lat="49.91719" lon="2.26216">
        <ele>20.2</ele>
        <time>2023-01-20T13:46:08Z</time>
      </trkpt>
      <trkpt lat="49.9172" lon="2.26215">
        <ele>20.2</ele>
        <time>2023-01-20T13:46:09Z</time>
      </trkpt>
      <trkpt lat="49.91721" lon="2.26212">
        <ele>20.2</ele>
        <time>2023-01-20T13:46:10Z</time>
      </trkpt>
      <trkpt lat="49.91722" lon="2.26211">
        <ele>20.2</ele>
        <time>2023-01-20T13:46:11Z</time>
      </trkpt>
      <trkpt lat="49.91723" lon="2.26209">
        <ele>20.2</ele>
        <time>2023-01-20T13:46:12Z</time>
      </trkpt>
      <trkpt lat="49.91724" lon="2.26207">
        <ele>20.2</ele>
        <time>2023-01-20T13:46:14Z</time>
      </trkpt>
      <trkpt lat="49.91725" lon="2.26204">
        <ele>20.1</ele>
        <time>2023-01-20T13:46:15Z</time>
      </trkpt>
      <trkpt lat="49.91726" lon="2.26203">
        <ele>20.1</ele>
        <time>2023-01-20T13:46:16Z</time>
      </trkpt>
      <trkpt lat="49.91727" lon="2.262">
        <ele>20.1</ele>
        <time>2023-01-20T13:46:17Z</time>
      </trkpt>
      <trkpt lat="49.91728" lon="2.26199">
        <ele>20.1</ele>
        <time>2023-01-20T13:46:18Z</time>
      </trkpt>
      <trkpt lat="49.91728" lon="2.26198">
        <ele>20.1</ele>
        <time>2023-01-20T13:46:19Z</time>
      </trkpt>
      <trkpt lat="49.91729" lon="2.26196">
        <ele>20.1</ele>
        <time>2023-01-20T13:46:20Z</time>
      </trkpt>
      <trkpt lat="49.9173" lon="2.26194">
        <ele>20.1</ele>
        <time>2023-01-20T13:46:21Z</time>
      </trkpt>
      <trkpt lat="49.91731" lon="2.26192">
        <ele>20.1</ele>
        <time>2023-01-20T13:46:22Z</time>
      </trkpt>
      <trkpt lat="49.91732" lon="2.2619">
        <ele>20.1</ele>
        <time>2023-01-20T13:46:23Z</time>
      </trkpt>
      <trkpt lat="49.91733" lon="2.26187">
        <ele>20.1</ele>
        <time>2023-01-20T13:46:24Z</time>
      </trkpt>
      <trkpt lat="49.91734" lon="2.26186">
        <ele>20.1</ele>
        <time>2023-01-20T13:46:26Z</time>
      </trkpt>
      <trkpt lat="49.91734" lon="2.26184">
        <ele>20.1</ele>
        <time>2023-01-20T13:46:27Z</time>
      </trkpt>
      <trkpt lat="49.91735" lon="2.26182">
        <ele>20.1</ele>
        <time>2023-01-20T13:46:28Z</time>
      </trkpt>
      <trkpt lat="49.91736" lon="2.2618">
        <ele>20.1</ele>
        <time>2023-01-20T13:46:29Z</time>
      </trkpt>
      <trkpt lat="49.91736" lon="2.26178">
        <ele>20.1</ele>
        <time>2023-01-20T13:46:30Z</time>
      </trkpt>
      <trkpt lat="49.91737" lon="2.26175">
        <ele>20.1</ele>
        <time>2023-01-20T13:46:31Z</time>
      </trkpt>
      <trkpt lat="49.91738" lon="2.26174">
        <ele>20.1</ele>
        <time>2023-01-20T13:46:32Z</time>
      </trkpt>
      <trkpt lat="49.91738" lon="2.26172">
        <ele>20.1</ele>
        <time>2023-01-20T13:46:33Z</time>
      </trkpt>
      <trkpt lat="49.91739" lon="2.26169">
        <ele>20.1</ele>
        <time>2023-01-20T13:46:34Z</time>
      </trkpt>
      <trkpt lat="49.91739" lon="2.26168">
        <ele>20.1</ele>
        <time>2023-01-20T13:46:35Z</time>
      </trkpt>
      <trkpt lat="49.91739" lon="2.26166">
        <ele>20.1</ele>
        <time>2023-01-20T13:46:37Z</time>
      </trkpt>
      <trkpt lat="49.91739" lon="2.26164">
        <ele>20.1</ele>
        <time>2023-01-20T13:46:38Z</time>
      </trkpt>
      <trkpt lat="49.9174" lon="2.26163">
        <ele>20.1</ele>
        <time>2023-01-20T13:46:39Z</time>
      </trkpt>
      <trkpt lat="49.9174" lon="2.2616">
        <ele>20.1</ele>
        <time>2023-01-20T13:46:40Z</time>
      </trkpt>
      <trkpt lat="49.9174" lon="2.26158">
        <ele>20.1</ele>
        <time>2023-01-20T13:46:42Z</time>
      </trkpt>
      <trkpt lat="49.9174" lon="2.26157">
        <ele>20.1</ele>
        <time>2023-01-20T13:46:43Z</time>
      </trkpt>
      <trkpt lat="49.9174" lon="2.26155">
        <ele>20.1</ele>
        <time>2023-01-20T13:46:44Z</time>
      </trkpt>
      <trkpt lat="49.9174" lon="2.26152">
        <ele>20.1</ele>
        <time>2023-01-20T13:46:46Z</time>
      </trkpt>
      <trkpt lat="49.9174" lon="2.2615">
        <ele>20.1</ele>
        <time>2023-01-20T13:46:47Z</time>
      </trkpt>
      <trkpt lat="49.9174" lon="2.26149">
        <ele>20.1</ele>
        <time>2023-01-20T13:46:48Z</time>
      </trkpt>
      <trkpt lat="49.9174" lon="2.26148">
        <ele>20.1</ele>
        <time>2023-01-20T13:46:49Z</time>
      </trkpt>
      <trkpt lat="49.91741" lon="2.26145">
        <ele>20.1</ele>
        <time>2023-01-20T13:46:50Z</time>
      </trkpt>
      <trkpt lat="49.91741" lon="2.26144">
        <ele>20.1</ele>
        <time>2023-01-20T13:46:51Z</time>
      </trkpt>
      <trkpt lat="49.91741" lon="2.26142">
        <ele>20.1</ele>
        <time>2023-01-20T13:46:52Z</time>
      </trkpt>
      <trkpt lat="49.91741" lon="2.26141">
        <ele>20.1</ele>
        <time>2023-01-20T13:46:53Z</time>
      </trkpt>
      <trkpt lat="49.91741" lon="2.26139">
        <ele>20.1</ele>
        <time>2023-01-20T13:46:54Z</time>
      </trkpt>
      <trkpt lat="49.91741" lon="2.26137">
        <ele>20.1</ele>
        <time>2023-01-20T13:46:56Z</time>
      </trkpt>
      <trkpt lat="49.91741" lon="2.26136">
        <ele>20.1</ele>
        <time>2023-01-20T13:46:57Z</time>
      </trkpt>
      <trkpt lat="49.91741" lon="2.26134">
        <ele>20.1</ele>
        <time>2023-01-20T13:46:58Z</time>
      </trkpt>
      <trkpt lat="49.91741" lon="2.26133">
        <ele>20.1</ele>
        <time>2023-01-20T13:46:59Z</time>
      </trkpt>
      <trkpt lat="49.91741" lon="2.26133">
        <ele>20.1</ele>
        <time>2023-01-20T13:47:00Z</time>
      </trkpt>
      <trkpt lat="49.91741" lon="2.26131">
        <ele>20.1</ele>
        <time>2023-01-20T13:47:01Z</time>
      </trkpt>
      <trkpt lat="49.91741" lon="2.26129">
        <ele>20.1</ele>
        <time>2023-01-20T13:47:02Z</time>
      </trkpt>
      <trkpt lat="49.91742" lon="2.26127">
        <ele>20.1</ele>
        <time>2023-01-20T13:47:03Z</time>
      </trkpt>
      <trkpt lat="49.91742" lon="2.26124">
        <ele>20.1</ele>
        <time>2023-01-20T13:47:04Z</time>
      </trkpt>
      <trkpt lat="49.91743" lon="2.26123">
        <ele>20.1</ele>
        <time>2023-01-20T13:47:06Z</time>
      </trkpt>
      <trkpt lat="49.91743" lon="2.26121">
        <ele>20.1</ele>
        <time>2023-01-20T13:47:07Z</time>
      </trkpt>
      <trkpt lat="49.91744" lon="2.26118">
        <ele>20.1</ele>
        <time>2023-01-20T13:47:08Z</time>
      </trkpt>
      <trkpt lat="49.91744" lon="2.26117">
        <ele>20.1</ele>
        <time>2023-01-20T13:47:09Z</time>
      </trkpt>
      <trkpt lat="49.91744" lon="2.26116">
        <ele>20.1</ele>
        <time>2023-01-20T13:47:10Z</time>
      </trkpt>
      <trkpt lat="49.91745" lon="2.26113">
        <ele>20.1</ele>
        <time>2023-01-20T13:47:11Z</time>
      </trkpt>
      <trkpt lat="49.91745" lon="2.26111">
        <ele>20.1</ele>
        <time>2023-01-20T13:47:12Z</time>
      </trkpt>
      <trkpt lat="49.91746" lon="2.2611">
        <ele>20.1</ele>
        <time>2023-01-20T13:47:13Z</time>
      </trkpt>
      <trkpt lat="49.91746" lon="2.26109">
        <ele>20.1</ele>
        <time>2023-01-20T13:47:14Z</time>
      </trkpt>
      <trkpt lat="49.91747" lon="2.26107">
        <ele>20.1</ele>
        <time>2023-01-20T13:47:16Z</time>
      </trkpt>
      <trkpt lat="49.91747" lon="2.26106">
        <ele>20.1</ele>
        <time>2023-01-20T13:47:17Z</time>
      </trkpt>
      <trkpt lat="49.91748" lon="2.26103">
        <ele>20.1</ele>
        <time>2023-01-20T13:47:18Z</time>
      </trkpt>
      <trkpt lat="49.91748" lon="2.26102">
        <ele>20.1</ele>
        <time>2023-01-20T13:47:19Z</time>
      </trkpt>
      <trkpt lat="49.91749" lon="2.26101">
        <ele>20.1</ele>
        <time>2023-01-20T13:47:20Z</time>
      </trkpt>
      <trkpt lat="49.91749" lon="2.26099">
        <ele>20.2</ele>
        <time>2023-01-20T13:47:21Z</time>
      </trkpt>
      <trkpt lat="49.9175" lon="2.26097">
        <ele>20.2</ele>
        <time>2023-01-20T13:47:22Z</time>
      </trkpt>
      <trkpt lat="49.91751" lon="2.26094">
        <ele>20.2</ele>
        <time>2023-01-20T13:47:24Z</time>
      </trkpt>
      <trkpt lat="49.91752" lon="2.26092">
        <ele>20.2</ele>
        <time>2023-01-20T13:47:25Z</time>
      </trkpt>
      <trkpt lat="49.91752" lon="2.26091">
        <ele>20.2</ele>
        <time>2023-01-20T13:47:26Z</time>
      </trkpt>
      <trkpt lat="49.91753" lon="2.26089">
        <ele>20.2</ele>
        <time>2023-01-20T13:47:27Z</time>
      </trkpt>
      <trkpt lat="49.91753" lon="2.26089">
        <ele>20.2</ele>
        <time>2023-01-20T13:47:28Z</time>
      </trkpt>
      <trkpt lat="49.91754" lon="2.26088">
        <ele>20.2</ele>
        <time>2023-01-20T13:47:29Z</time>
      </trkpt>
      <trkpt lat="49.91754" lon="2.26086">
        <ele>20.2</ele>
        <time>2023-01-20T13:47:30Z</time>
      </trkpt>
      <trkpt lat="49.91755" lon="2.26084">
        <ele>20.2</ele>
        <time>2023-01-20T13:47:31Z</time>
      </trkpt>
      <trkpt lat="49.91755" lon="2.26084">
        <ele>20.2</ele>
        <time>2023-01-20T13:47:33Z</time>
      </trkpt>
      <trkpt lat="49.91756" lon="2.26082">
        <ele>20.2</ele>
        <time>2023-01-20T13:47:34Z</time>
      </trkpt>
      <trkpt lat="49.91756" lon="2.26081">
        <ele>20.2</ele>
        <time>2023-01-20T13:47:35Z</time>
      </trkpt>
      <trkpt lat="49.91757" lon="2.26079">
        <ele>20.2</ele>
        <time>2023-01-20T13:47:36Z</time>
      </trkpt>
      <trkpt lat="49.91758" lon="2.26078">
        <ele>20.2</ele>
        <time>2023-01-20T13:47:37Z</time>
      </trkpt>
      <trkpt lat="49.91758" lon="2.26076">
        <ele>20.2</ele>
        <time>2023-01-20T13:47:38Z</time>
      </trkpt>
      <trkpt lat="49.91759" lon="2.26074">
        <ele>20.2</ele>
        <time>2023-01-20T13:47:39Z</time>
      </trkpt>
      <trkpt lat="49.91759" lon="2.26072">
        <ele>20.2</ele>
        <time>2023-01-20T13:47:40Z</time>
      </trkpt>
      <trkpt lat="49.9176" lon="2.2607">
        <ele>20.2</ele>
        <time>2023-01-20T13:47:41Z</time>
      </trkpt>
      <trkpt lat="49.91761" lon="2.26068">
        <ele>20.2</ele>
        <time>2023-01-20T13:47:43Z</time>
      </trkpt>
      <trkpt lat="49.91762" lon="2.26066">
        <ele>20.2</ele>
        <time>2023-01-20T13:47:44Z</time>
      </trkpt>
      <trkpt lat="49.91762" lon="2.26065">
        <ele>20.2</ele>
        <time>2023-01-20T13:47:45Z</time>
      </trkpt>
      <trkpt lat="49.91763" lon="2.26064">
        <ele>20.2</ele>
        <time>2023-01-20T13:47:46Z</time>
      </trkpt>
      <trkpt lat="49.91763" lon="2.26062">
        <ele>20.2</ele>
        <time>2023-01-20T13:47:47Z</time>
      </trkpt>
      <trkpt lat="49.91764" lon="2.26061">
        <ele>20.2</ele>
        <time>2023-01-20T13:47:48Z</time>
      </trkpt>
      <trkpt lat="49.91765" lon="2.26059">
        <ele>20.2</ele>
        <time>2023-01-20T13:47:49Z</time>
      </trkpt>
      <trkpt lat="49.91765" lon="2.26057">
        <ele>20.2</ele>
        <time>2023-01-20T13:47:50Z</time>
      </trkpt>
      <trkpt lat="49.91766" lon="2.26055">
        <ele>20.2</ele>
        <time>2023-01-20T13:47:52Z</time>
      </trkpt>
      <trkpt lat="49.91766" lon="2.26053">
        <ele>20.2</ele>
        <time>2023-01-20T13:47:53Z</time>
      </trkpt>
      <trkpt lat="49.91767" lon="2.26051">
        <ele>20.2</ele>
        <time>2023-01-20T13:47:54Z</time>
      </trkpt>
      <trkpt lat="49.91767" lon="2.26048">
        <ele>20.2</ele>
        <time>2023-01-20T13:47:55Z</time>
      </trkpt>
      <trkpt lat="49.91768" lon="2.26046">
        <ele>20.2</ele>
        <time>2023-01-20T13:47:56Z</time>
      </trkpt>
      <trkpt lat="49.91768" lon="2.26044">
        <ele>20.2</ele>
        <time>2023-01-20T13:47:57Z</time>
      </trkpt>
      <trkpt lat="49.91768" lon="2.26042">
        <ele>20.2</ele>
        <time>2023-01-20T13:47:58Z</time>
      </trkpt>
      <trkpt lat="49.91768" lon="2.26039">
        <ele>20.2</ele>
        <time>2023-01-20T13:47:59Z</time>
      </trkpt>
      <trkpt lat="49.91769" lon="2.26037">
        <ele>20.2</ele>
        <time>2023-01-20T13:48:00Z</time>
      </trkpt>
      <trkpt lat="49.91769" lon="2.26035">
        <ele>20.2</ele>
        <time>2023-01-20T13:48:02Z</time>
      </trkpt>
      <trkpt lat="49.91769" lon="2.26033">
        <ele>20.2</ele>
        <time>2023-01-20T13:48:03Z</time>
      </trkpt>
      <trkpt lat="49.91769" lon="2.2603">
        <ele>20.2</ele>
        <time>2023-01-20T13:48:04Z</time>
      </trkpt>
      <trkpt lat="49.9177" lon="2.26028">
        <ele>20.2</ele>
        <time>2023-01-20T13:48:05Z</time>
      </trkpt>
      <trkpt lat="49.9177" lon="2.26026">
        <ele>20.2</ele>
        <time>2023-01-20T13:48:06Z</time>
      </trkpt>
      <trkpt lat="49.9177" lon="2.26024">
        <ele>20.2</ele>
        <time>2023-01-20T13:48:07Z</time>
      </trkpt>
      <trkpt lat="49.91771" lon="2.26022">
        <ele>20.2</ele>
        <time>2023-01-20T13:48:08Z</time>
      </trkpt>
      <trkpt lat="49.91771" lon="2.2602">
        <ele>20.2</ele>
        <time>2023-01-20T13:48:09Z</time>
      </trkpt>
      <trkpt lat="49.91771" lon="2.26017">
        <ele>20.2</ele>
        <time>2023-01-20T13:48:10Z</time>
      </trkpt>
      <trkpt lat="49.91771" lon="2.26015">
        <ele>20.2</ele>
        <time>2023-01-20T13:48:11Z</time>
      </trkpt>
      <trkpt lat="49.91772" lon="2.26013">
        <ele>20.2</ele>
        <time>2023-01-20T13:48:13Z</time>
      </trkpt>
      <trkpt lat="49.91772" lon="2.26011">
        <ele>20.2</ele>
        <time>2023-01-20T13:48:14Z</time>
      </trkpt>
      <trkpt lat="49.91773" lon="2.26009">
        <ele>20.2</ele>
        <time>2023-01-20T13:48:15Z</time>
      </trkpt>
      <trkpt lat="49.91773" lon="2.26007">
        <ele>20.2</ele>
        <time>2023-01-20T13:48:16Z</time>
      </trkpt>
      <trkpt lat="49.91774" lon="2.26005">
        <ele>20.2</ele>
        <time>2023-01-20T13:48:17Z</time>
      </trkpt>
      <trkpt lat="49.91774" lon="2.26001">
        <ele>20.2</ele>
        <time>2023-01-20T13:48:18Z</time>
      </trkpt>
      <trkpt lat="49.91775" lon="2.25999">
        <ele>20.2</ele>
        <time>2023-01-20T13:48:20Z</time>
      </trkpt>
      <trkpt lat="49.91775" lon="2.25998">
        <ele>20.2</ele>
        <time>2023-01-20T13:48:21Z</time>
      </trkpt>
      <trkpt lat="49.91776" lon="2.25997">
        <ele>20.2</ele>
        <time>2023-01-20T13:48:22Z</time>
      </trkpt>
      <trkpt lat="49.91776" lon="2.25995">
        <ele>20.2</ele>
        <time>2023-01-20T13:48:23Z</time>
      </trkpt>
      <trkpt lat="49.91777" lon="2.25992">
        <ele>20.2</ele>
        <time>2023-01-20T13:48:24Z</time>
      </trkpt>
      <trkpt lat="49.91777" lon="2.25991">
        <ele>20.2</ele>
        <time>2023-01-20T13:48:25Z</time>
      </trkpt>
      <trkpt lat="49.91778" lon="2.2599">
        <ele>20.2</ele>
        <time>2023-01-20T13:48:26Z</time>
      </trkpt>
      <trkpt lat="49.91778" lon="2.25988">
        <ele>20.2</ele>
        <time>2023-01-20T13:48:27Z</time>
      </trkpt>
      <trkpt lat="49.91779" lon="2.25988">
        <ele>20.2</ele>
        <time>2023-01-20T13:48:28Z</time>
      </trkpt>
      <trkpt lat="49.9178" lon="2.25987">
        <ele>20.2</ele>
        <time>2023-01-20T13:48:29Z</time>
      </trkpt>
      <trkpt lat="49.9178" lon="2.25986">
        <ele>20.2</ele>
        <time>2023-01-20T13:48:30Z</time>
      </trkpt>
      <trkpt lat="49.91781" lon="2.25984">
        <ele>20.2</ele>
        <time>2023-01-20T13:48:32Z</time>
      </trkpt>
      <trkpt lat="49.91782" lon="2.25982">
        <ele>20.2</ele>
        <time>2023-01-20T13:48:33Z</time>
      </trkpt>
      <trkpt lat="49.91782" lon="2.25981">
        <ele>20.2</ele>
        <time>2023-01-20T13:48:34Z</time>
      </trkpt>
      <trkpt lat="49.91783" lon="2.25979">
        <ele>20.2</ele>
        <time>2023-01-20T13:48:35Z</time>
      </trkpt>
      <trkpt lat="49.91783" lon="2.25978">
        <ele>20.2</ele>
        <time>2023-01-20T13:48:36Z</time>
      </trkpt>
      <trkpt lat="49.91784" lon="2.25976">
        <ele>20.2</ele>
        <time>2023-01-20T13:48:37Z</time>
      </trkpt>
      <trkpt lat="49.91785" lon="2.25973">
        <ele>20.2</ele>
        <time>2023-01-20T13:48:38Z</time>
      </trkpt>
      <trkpt lat="49.91785" lon="2.25972">
        <ele>20.2</ele>
        <time>2023-01-20T13:48:39Z</time>
      </trkpt>
      <trkpt lat="49.91785" lon="2.25971">
        <ele>20.2</ele>
        <time>2023-01-20T13:48:40Z</time>
      </trkpt>
      <trkpt lat="49.91786" lon="2.25969">
        <ele>20.2</ele>
        <time>2023-01-20T13:48:41Z</time>
      </trkpt>
      <trkpt lat="49.91787" lon="2.25966">
        <ele>20.2</ele>
        <time>2023-01-20T13:48:43Z</time>
      </trkpt>
      <trkpt lat="49.91788" lon="2.25965">
        <ele>20.2</ele>
        <time>2023-01-20T13:48:44Z</time>
      </trkpt>
      <trkpt lat="49.91788" lon="2.25963">
        <ele>20.2</ele>
        <time>2023-01-20T13:48:45Z</time>
      </trkpt>
      <trkpt lat="49.91789" lon="2.25961">
        <ele>20.2</ele>
        <time>2023-01-20T13:48:46Z</time>
      </trkpt>
      <trkpt lat="49.91789" lon="2.25959">
        <ele>20.2</ele>
        <time>2023-01-20T13:48:47Z</time>
      </trkpt>
      <trkpt lat="49.9179" lon="2.25958">
        <ele>20.2</ele>
        <time>2023-01-20T13:48:48Z</time>
      </trkpt>
      <trkpt lat="49.9179" lon="2.25956">
        <ele>20.2</ele>
        <time>2023-01-20T13:48:49Z</time>
      </trkpt>
      <trkpt lat="49.91791" lon="2.25955">
        <ele>20.2</ele>
        <time>2023-01-20T13:48:50Z</time>
      </trkpt>
      <trkpt lat="49.91792" lon="2.25953">
        <ele>20.2</ele>
        <time>2023-01-20T13:48:51Z</time>
      </trkpt>
      <trkpt lat="49.91792" lon="2.25952">
        <ele>20.2</ele>
        <time>2023-01-20T13:48:52Z</time>
      </trkpt>
      <trkpt lat="49.91794" lon="2.2595">
        <ele>20.2</ele>
        <time>2023-01-20T13:48:54Z</time>
      </trkpt>
      <trkpt lat="49.91794" lon="2.25949">
        <ele>20.2</ele>
        <time>2023-01-20T13:48:55Z</time>
      </trkpt>
      <trkpt lat="49.91795" lon="2.25948">
        <ele>20.2</ele>
        <time>2023-01-20T13:48:56Z</time>
      </trkpt>
      <trkpt lat="49.91796" lon="2.25947">
        <ele>20.2</ele>
        <time>2023-01-20T13:48:57Z</time>
      </trkpt>
      <trkpt lat="49.91797" lon="2.25945">
        <ele>20.2</ele>
        <time>2023-01-20T13:48:58Z</time>
      </trkpt>
      <trkpt lat="49.91798" lon="2.25944">
        <ele>20.2</ele>
        <time>2023-01-20T13:48:59Z</time>
      </trkpt>
      <trkpt lat="49.91798" lon="2.25943">
        <ele>20.2</ele>
        <time>2023-01-20T13:49:00Z</time>
      </trkpt>
      <trkpt lat="49.91799" lon="2.25941">
        <ele>20.2</ele>
        <time>2023-01-20T13:49:01Z</time>
      </trkpt>
      <trkpt lat="49.91799" lon="2.25939">
        <ele>20.2</ele>
        <time>2023-01-20T13:49:02Z</time>
      </trkpt>
      <trkpt lat="49.918" lon="2.25938">
        <ele>20.2</ele>
        <time>2023-01-20T13:49:03Z</time>
      </trkpt>
      <trkpt lat="49.91801" lon="2.25937">
        <ele>20.2</ele>
        <time>2023-01-20T13:49:05Z</time>
      </trkpt>
      <trkpt lat="49.91802" lon="2.25936">
        <ele>20.2</ele>
        <time>2023-01-20T13:49:06Z</time>
      </trkpt>
      <trkpt lat="49.91803" lon="2.25934">
        <ele>20.2</ele>
        <time>2023-01-20T13:49:07Z</time>
      </trkpt>
      <trkpt lat="49.91803" lon="2.25933">
        <ele>20.2</ele>
        <time>2023-01-20T13:49:08Z</time>
      </trkpt>
      <trkpt lat="49.91804" lon="2.25932">
        <ele>20.2</ele>
        <time>2023-01-20T13:49:09Z</time>
      </trkpt>
      <trkpt lat="49.91804" lon="2.2593">
        <ele>20.2</ele>
        <time>2023-01-20T13:49:10Z</time>
      </trkpt>
      <trkpt lat="49.91805" lon="2.25929">
        <ele>20.2</ele>
        <time>2023-01-20T13:49:11Z</time>
      </trkpt>
      <trkpt lat="49.91804" lon="2.25928">
        <ele>20.2</ele>
        <time>2023-01-20T13:49:12Z</time>
      </trkpt>
      <trkpt lat="49.91805" lon="2.25927">
        <ele>20.2</ele>
        <time>2023-01-20T13:49:13Z</time>
      </trkpt>
      <trkpt lat="49.91805" lon="2.25926">
        <ele>20.2</ele>
        <time>2023-01-20T13:49:14Z</time>
      </trkpt>
      <trkpt lat="49.91805" lon="2.25924">
        <ele>20.2</ele>
        <time>2023-01-20T13:49:16Z</time>
      </trkpt>
      <trkpt lat="49.91805" lon="2.25922">
        <ele>20.2</ele>
        <time>2023-01-20T13:49:17Z</time>
      </trkpt>
      <trkpt lat="49.91805" lon="2.25921">
        <ele>20.2</ele>
        <time>2023-01-20T13:49:18Z</time>
      </trkpt>
      <trkpt lat="49.91805" lon="2.25919">
        <ele>20.2</ele>
        <time>2023-01-20T13:49:19Z</time>
      </trkpt>
      <trkpt lat="49.91805" lon="2.25917">
        <ele>20.2</ele>
        <time>2023-01-20T13:49:20Z</time>
      </trkpt>
      <trkpt lat="49.91805" lon="2.25915">
        <ele>20.2</ele>
        <time>2023-01-20T13:49:21Z</time>
      </trkpt>
      <trkpt lat="49.91806" lon="2.25913">
        <ele>20.2</ele>
        <time>2023-01-20T13:49:22Z</time>
      </trkpt>
      <trkpt lat="49.91806" lon="2.25911">
        <ele>20.2</ele>
        <time>2023-01-20T13:49:23Z</time>
      </trkpt>
      <trkpt lat="49.91806" lon="2.25909">
        <ele>20.2</ele>
        <time>2023-01-20T13:49:24Z</time>
      </trkpt>
      <trkpt lat="49.91806" lon="2.25907">
        <ele>20.2</ele>
        <time>2023-01-20T13:49:25Z</time>
      </trkpt>
      <trkpt lat="49.91807" lon="2.25905">
        <ele>20.2</ele>
        <time>2023-01-20T13:49:27Z</time>
      </trkpt>
      <trkpt lat="49.91807" lon="2.25902">
        <ele>20.2</ele>
        <time>2023-01-20T13:49:28Z</time>
      </trkpt>
      <trkpt lat="49.91808" lon="2.259">
        <ele>20.2</ele>
        <time>2023-01-20T13:49:29Z</time>
      </trkpt>
      <trkpt lat="49.91808" lon="2.25899">
        <ele>20.2</ele>
        <time>2023-01-20T13:49:30Z</time>
      </trkpt>
      <trkpt lat="49.91808" lon="2.25897">
        <ele>20.2</ele>
        <time>2023-01-20T13:49:31Z</time>
      </trkpt>
      <trkpt lat="49.91809" lon="2.25895">
        <ele>20.2</ele>
        <time>2023-01-20T13:49:32Z</time>
      </trkpt>
      <trkpt lat="49.91811" lon="2.25892">
        <ele>20.2</ele>
        <time>2023-01-20T13:49:33Z</time>
      </trkpt>
      <trkpt lat="49.91811" lon="2.25891">
        <ele>20.2</ele>
        <time>2023-01-20T13:49:34Z</time>
      </trkpt>
      <trkpt lat="49.91812" lon="2.25889">
        <ele>20.2</ele>
        <time>2023-01-20T13:49:35Z</time>
      </trkpt>
      <trkpt lat="49.91812" lon="2.25888">
        <ele>20.2</ele>
        <time>2023-01-20T13:49:36Z</time>
      </trkpt>
      <trkpt lat="49.91813" lon="2.25887">
        <ele>20.2</ele>
        <time>2023-01-20T13:49:38Z</time>
      </trkpt>
      <trkpt lat="49.91814" lon="2.25885">
        <ele>20.2</ele>
        <time>2023-01-20T13:49:39Z</time>
      </trkpt>
      <trkpt lat="49.91815" lon="2.25883">
        <ele>20.2</ele>
        <time>2023-01-20T13:49:40Z</time>
      </trkpt>
      <trkpt lat="49.91815" lon="2.25881">
        <ele>20.2</ele>
        <time>2023-01-20T13:49:41Z</time>
      </trkpt>
      <trkpt lat="49.91816" lon="2.2588">
        <ele>20.2</ele>
        <time>2023-01-20T13:49:42Z</time>
      </trkpt>
      <trkpt lat="49.91817" lon="2.25879">
        <ele>20.2</ele>
        <time>2023-01-20T13:49:43Z</time>
      </trkpt>
      <trkpt lat="49.91818" lon="2.25878">
        <ele>20.2</ele>
        <time>2023-01-20T13:49:44Z</time>
      </trkpt>
      <trkpt lat="49.91819" lon="2.25876">
        <ele>20.2</ele>
        <time>2023-01-20T13:49:46Z</time>
      </trkpt>
      <trkpt lat="49.9182" lon="2.25876">
        <ele>20.2</ele>
        <time>2023-01-20T13:49:47Z</time>
      </trkpt>
      <trkpt lat="49.91823" lon="2.25876">
        <ele>20.2</ele>
        <time>2023-01-20T13:49:48Z</time>
      </trkpt>
      <trkpt lat="49.91823" lon="2.25876">
        <ele>20.2</ele>
        <time>2023-01-20T13:49:49Z</time>
      </trkpt>
      <trkpt lat="49.91824" lon="2.25876">
        <ele>20.2</ele>
        <time>2023-01-20T13:49:50Z</time>
      </trkpt>
      <trkpt lat="49.91826" lon="2.25875">
        <ele>20.2</ele>
        <time>2023-01-20T13:49:52Z</time>
      </trkpt>
      <trkpt lat="49.91826" lon="2.25874">
        <ele>20.2</ele>
        <time>2023-01-20T13:49:53Z</time>
      </trkpt>
      <trkpt lat="49.91826" lon="2.25873">
        <ele>20.2</ele>
        <time>2023-01-20T13:49:54Z</time>
      </trkpt>
      <trkpt lat="49.91826" lon="2.25871">
        <ele>20.2</ele>
        <time>2023-01-20T13:49:55Z</time>
      </trkpt>
      <trkpt lat="49.91825" lon="2.25869">
        <ele>20.2</ele>
        <time>2023-01-20T13:49:56Z</time>
      </trkpt>
      <trkpt lat="49.91826" lon="2.25868">
        <ele>20.2</ele>
        <time>2023-01-20T13:49:58Z</time>
      </trkpt>
      <trkpt lat="49.91826" lon="2.25866">
        <ele>20.2</ele>
        <time>2023-01-20T13:49:59Z</time>
      </trkpt>
      <trkpt lat="49.91826" lon="2.25865">
        <ele>20.1</ele>
        <time>2023-01-20T13:50:00Z</time>
      </trkpt>
      <trkpt lat="49.91826" lon="2.25863">
        <ele>20.1</ele>
        <time>2023-01-20T13:50:01Z</time>
      </trkpt>
      <trkpt lat="49.91827" lon="2.2586">
        <ele>20.1</ele>
        <time>2023-01-20T13:50:02Z</time>
      </trkpt>
      <trkpt lat="49.91827" lon="2.25859">
        <ele>20.1</ele>
        <time>2023-01-20T13:50:03Z</time>
      </trkpt>
      <trkpt lat="49.91828" lon="2.25858">
        <ele>20.1</ele>
        <time>2023-01-20T13:50:04Z</time>
      </trkpt>
      <trkpt lat="49.91828" lon="2.25856">
        <ele>20.1</ele>
        <time>2023-01-20T13:50:05Z</time>
      </trkpt>
      <trkpt lat="49.91828" lon="2.25855">
        <ele>20.1</ele>
        <time>2023-01-20T13:50:06Z</time>
      </trkpt>
      <trkpt lat="49.91829" lon="2.25854">
        <ele>20.1</ele>
        <time>2023-01-20T13:50:08Z</time>
      </trkpt>
      <trkpt lat="49.91829" lon="2.25853">
        <ele>20.1</ele>
        <time>2023-01-20T13:50:09Z</time>
      </trkpt>
      <trkpt lat="49.9183" lon="2.25852">
        <ele>20.1</ele>
        <time>2023-01-20T13:50:10Z</time>
      </trkpt>
      <trkpt lat="49.91831" lon="2.25851">
        <ele>20.2</ele>
        <time>2023-01-20T13:50:11Z</time>
      </trkpt>
      <trkpt lat="49.91831" lon="2.25849">
        <ele>20.2</ele>
        <time>2023-01-20T13:50:12Z</time>
      </trkpt>
      <trkpt lat="49.91832" lon="2.25848">
        <ele>20.2</ele>
        <time>2023-01-20T13:50:13Z</time>
      </trkpt>
      <trkpt lat="49.91832" lon="2.25847">
        <ele>20.2</ele>
        <time>2023-01-20T13:50:14Z</time>
      </trkpt>
      <trkpt lat="49.91832" lon="2.25847">
        <ele>20.2</ele>
        <time>2023-01-20T13:50:16Z</time>
      </trkpt>
      <trkpt lat="49.91833" lon="2.25846">
        <ele>20.2</ele>
        <time>2023-01-20T13:50:17Z</time>
      </trkpt>
      <trkpt lat="49.91833" lon="2.25845">
        <ele>20.2</ele>
        <time>2023-01-20T13:50:18Z</time>
      </trkpt>
      <trkpt lat="49.91834" lon="2.25844">
        <ele>20.2</ele>
        <time>2023-01-20T13:50:19Z</time>
      </trkpt>
      <trkpt lat="49.91834" lon="2.25842">
        <ele>20.2</ele>
        <time>2023-01-20T13:50:20Z</time>
      </trkpt>
      <trkpt lat="49.91833" lon="2.2584">
        <ele>20.2</ele>
        <time>2023-01-20T13:50:22Z</time>
      </trkpt>
      <trkpt lat="49.91833" lon="2.25839">
        <ele>20.2</ele>
        <time>2023-01-20T13:50:23Z</time>
      </trkpt>
      <trkpt lat="49.91832" lon="2.25839">
        <ele>20.2</ele>
        <time>2023-01-20T13:50:24Z</time>
      </trkpt>
      <trkpt lat="49.91832" lon="2.25838">
        <ele>20.2</ele>
        <time>2023-01-20T13:50:26Z</time>
      </trkpt>
      <trkpt lat="49.91831" lon="2.25838">
        <ele>20.2</ele>
        <time>2023-01-20T13:50:27Z</time>
      </trkpt>
      <trkpt lat="49.91831" lon="2.25838">
        <ele>20.2</ele>
        <time>2023-01-20T13:50:28Z</time>
      </trkpt>
      <trkpt lat="49.9183" lon="2.25838">
        <ele>20.2</ele>
        <time>2023-01-20T13:50:30Z</time>
      </trkpt>
      <trkpt lat="49.9183" lon="2.25838">
        <ele>20.2</ele>
        <time>2023-01-20T13:50:31Z</time>
      </trkpt>
      <trkpt lat="49.9183" lon="2.25838">
        <ele>20.2</ele>
        <time>2023-01-20T13:50:33Z</time>
      </trkpt>
      <trkpt lat="49.9183" lon="2.25838">
        <ele>20.2</ele>
        <time>2023-01-20T13:50:34Z</time>
      </trkpt>
      <trkpt lat="49.9183" lon="2.25838">
        <ele>20.2</ele>
        <time>2023-01-20T13:50:36Z</time>
      </trkpt>
      <trkpt lat="49.9183" lon="2.25838">
        <ele>20.2</ele>
        <time>2023-01-20T13:50:37Z</time>
      </trkpt>
      <trkpt lat="49.9183" lon="2.25838">
        <ele>20.2</ele>
        <time>2023-01-20T13:50:38Z</time>
      </trkpt>
      <trkpt lat="49.9183" lon="2.25838">
        <ele>20.2</ele>
        <time>2023-01-20T13:50:40Z</time>
      </trkpt>
      <trkpt lat="49.9183" lon="2.25839">
        <ele>20.2</ele>
        <time>2023-01-20T13:50:41Z</time>
      </trkpt>
      <trkpt lat="49.9183" lon="2.25839">
        <ele>20.2</ele>
        <time>2023-01-20T13:50:42Z</time>
      </trkpt>
      <trkpt lat="49.9183" lon="2.25839">
        <ele>20.2</ele>
        <time>2023-01-20T13:50:43Z</time>
      </trkpt>
      <trkpt lat="49.9183" lon="2.25839">
        <ele>20.2</ele>
        <time>2023-01-20T13:50:44Z</time>
      </trkpt>
      <trkpt lat="49.9183" lon="2.25839">
        <ele>20.2</ele>
        <time>2023-01-20T13:50:45Z</time>
      </trkpt>
      <trkpt lat="49.9183" lon="2.25839">
        <ele>20.2</ele>
        <time>2023-01-20T13:50:46Z</time>
      </trkpt>
      <trkpt lat="49.9183" lon="2.25839">
        <ele>20.2</ele>
        <time>2023-01-20T13:50:47Z</time>
      </trkpt>
      <trkpt lat="49.9183" lon="2.25839">
        <ele>20.2</ele>
        <time>2023-01-20T13:50:48Z</time>
      </trkpt>
      <trkpt lat="49.9183" lon="2.25839">
        <ele>20.2</ele>
        <time>2023-01-20T13:50:49Z</time>
      </trkpt>
      <trkpt lat="49.9183" lon="2.25839">
        <ele>20.2</ele>
        <time>2023-01-20T13:50:50Z</time>
      </trkpt>
      <trkpt lat="49.9183" lon="2.25839">
        <ele>20.2</ele>
        <time>2023-01-20T13:50:51Z</time>
      </trkpt>
      <trkpt lat="49.9183" lon="2.25839">
        <ele>20.2</ele>
        <time>2023-01-20T13:50:52Z</time>
      </trkpt>
      <trkpt lat="49.9183" lon="2.25839">
        <ele>20.2</ele>
        <time>2023-01-20T13:50:53Z</time>
      </trkpt>
      <trkpt lat="49.9183" lon="2.25839">
        <ele>20.2</ele>
        <time>2023-01-20T13:50:54Z</time>
      </trkpt>
      <trkpt lat="49.9183" lon="2.25839">
        <ele>20.2</ele>
        <time>2023-01-20T13:50:55Z</time>
      </trkpt>
      <trkpt lat="49.9183" lon="2.25839">
        <ele>20.2</ele>
        <time>2023-01-20T13:50:56Z</time>
      </trkpt>
      <trkpt lat="49.9183" lon="2.25839">
        <ele>20.2</ele>
        <time>2023-01-20T13:50:57Z</time>
      </trkpt>
      <trkpt lat="49.9183" lon="2.25839">
        <ele>20.2</ele>
        <time>2023-01-20T13:50:58Z</time>
      </trkpt>
      <trkpt lat="49.9183" lon="2.25839">
        <ele>20.2</ele>
        <time>2023-01-20T13:50:59Z</time>
      </trkpt>
      <trkpt lat="49.9183" lon="2.25839">
        <ele>20.2</ele>
        <time>2023-01-20T13:51:00Z</time>
      </trkpt>
      <trkpt lat="49.9183" lon="2.25839">
        <ele>20.2</ele>
        <time>2023-01-20T13:51:01Z</time>
      </trkpt>
      <trkpt lat="49.9183" lon="2.25839">
        <ele>20.2</ele>
        <time>2023-01-20T13:51:02Z</time>
      </trkpt>
      <trkpt lat="49.9183" lon="2.25839">
        <ele>20.2</ele>
        <time>2023-01-20T13:51:03Z</time>
      </trkpt>
      <trkpt lat="49.9183" lon="2.25839">
        <ele>20.2</ele>
        <time>2023-01-20T13:51:04Z</time>
      </trkpt>
      <trkpt lat="49.9183" lon="2.25839">
        <ele>20.2</ele>
        <time>2023-01-20T13:51:05Z</time>
      </trkpt>
      <trkpt lat="49.9183" lon="2.25839">
        <ele>20.2</ele>
        <time>2023-01-20T13:51:06Z</time>
      </trkpt>
      <trkpt lat="49.9183" lon="2.25839">
        <ele>20.2</ele>
        <time>2023-01-20T13:51:07Z</time>
      </trkpt>
      <trkpt lat="49.9183" lon="2.25839">
        <ele>20.2</ele>
        <time>2023-01-20T13:51:08Z</time>
      </trkpt>
      <trkpt lat="49.9183" lon="2.25839">
        <ele>20.2</ele>
        <time>2023-01-20T13:51:09Z</time>
      </trkpt>
      <trkpt lat="49.9183" lon="2.25839">
        <ele>20.2</ele>
        <time>2023-01-20T13:51:10Z</time>
      </trkpt>
      <trkpt lat="49.9183" lon="2.25839">
        <ele>20.2</ele>
        <time>2023-01-20T13:51:11Z</time>
      </trkpt>
      <trkpt lat="49.9183" lon="2.25839">
        <ele>20.2</ele>
        <time>2023-01-20T13:51:12Z</time>
      </trkpt>
      <trkpt lat="49.9183" lon="2.25839">
        <ele>20.2</ele>
        <time>2023-01-20T13:51:13Z</time>
      </trkpt>
      <trkpt lat="49.9183" lon="2.25839">
        <ele>20.2</ele>
        <time>2023-01-20T13:51:14Z</time>
      </trkpt>
      <trkpt lat="49.9183" lon="2.25839">
        <ele>20.2</ele>
        <time>2023-01-20T13:51:15Z</time>
      </trkpt>
      <trkpt lat="49.9183" lon="2.25839">
        <ele>20.2</ele>
        <time>2023-01-20T13:51:16Z</time>
      </trkpt>
      <trkpt lat="49.9183" lon="2.25839">
        <ele>20.2</ele>
        <time>2023-01-20T13:51:17Z</time>
      </trkpt>
      <trkpt lat="49.9183" lon="2.25839">
        <ele>20.2</ele>
        <time>2023-01-20T13:51:18Z</time>
      </trkpt>
      <trkpt lat="49.9183" lon="2.25839">
        <ele>20.2</ele>
        <time>2023-01-20T13:51:19Z</time>
      </trkpt>
      <trkpt lat="49.9183" lon="2.25839">
        <ele>20.2</ele>
        <time>2023-01-20T13:51:20Z</time>
      </trkpt>
      <trkpt lat="49.9183" lon="2.25839">
        <ele>20.2</ele>
        <time>2023-01-20T13:51:21Z</time>
      </trkpt>
      <trkpt lat="49.9183" lon="2.25839">
        <ele>20.2</ele>
        <time>2023-01-20T13:51:22Z</time>
      </trkpt>
      <trkpt lat="49.9183" lon="2.25839">
        <ele>20.2</ele>
        <time>2023-01-20T13:51:23Z</time>
      </trkpt>
      <trkpt lat="49.9183" lon="2.25839">
        <ele>20.2</ele>
        <time>2023-01-20T13:51:24Z</time>
      </trkpt>
      <trkpt lat="49.9183" lon="2.25839">
        <ele>20.2</ele>
        <time>2023-01-20T13:51:25Z</time>
      </trkpt>
      <trkpt lat="49.9183" lon="2.25839">
        <ele>20.2</ele>
        <time>2023-01-20T13:51:26Z</time>
      </trkpt>
      <trkpt lat="49.9183" lon="2.25839">
        <ele>20.2</ele>
        <time>2023-01-20T13:51:27Z</time>
      </trkpt>
      <trkpt lat="49.9183" lon="2.25839">
        <ele>20.2</ele>
        <time>2023-01-20T13:51:28Z</time>
      </trkpt>
      <trkpt lat="49.9183" lon="2.25839">
        <ele>20.2</ele>
        <time>2023-01-20T13:51:29Z</time>
      </trkpt>
      <trkpt lat="49.9183" lon="2.25839">
        <ele>20.2</ele>
        <time>2023-01-20T13:51:30Z</time>
      </trkpt>
      <trkpt lat="49.9183" lon="2.25839">
        <ele>20.2</ele>
        <time>2023-01-20T13:51:31Z</time>
      </trkpt>
      <trkpt lat="49.9183" lon="2.25839">
        <ele>20.2</ele>
        <time>2023-01-20T13:51:32Z</time>
      </trkpt>
      <trkpt lat="49.9183" lon="2.25839">
        <ele>20.2</ele>
        <time>2023-01-20T13:51:33Z</time>
      </trkpt>
      <trkpt lat="49.9183" lon="2.25839">
        <ele>20.2</ele>
        <time>2023-01-20T13:51:34Z</time>
      </trkpt>
      <trkpt lat="49.9183" lon="2.25839">
        <ele>20.2</ele>
        <time>2023-01-20T13:51:35Z</time>
      </trkpt>
      <trkpt lat="49.9183" lon="2.25839">
        <ele>20.2</ele>
        <time>2023-01-20T13:51:36Z</time>
      </trkpt>
      <trkpt lat="49.9183" lon="2.25839">
        <ele>20.2</ele>
        <time>2023-01-20T13:51:37Z</time>
      </trkpt>
      <trkpt lat="49.9183" lon="2.25839">
        <ele>20.2</ele>
        <time>2023-01-20T13:51:38Z</time>
      </trkpt>
      <trkpt lat="49.9183" lon="2.25839">
        <ele>20.2</ele>
        <time>2023-01-20T13:51:39Z</time>
      </trkpt>
      <trkpt lat="49.9183" lon="2.25839">
        <ele>20.2</ele>
        <time>2023-01-20T13:51:40Z</time>
      </trkpt>
      <trkpt lat="49.9183" lon="2.25839">
        <ele>20.2</ele>
        <time>2023-01-20T13:51:41Z</time>
      </trkpt>
      <trkpt lat="49.9183" lon="2.25839">
        <ele>20.2</ele>
        <time>2023-01-20T13:51:42Z</time>
      </trkpt>
      <trkpt lat="49.9183" lon="2.25839">
        <ele>20.2</ele>
        <time>2023-01-20T13:51:43Z</time>
      </trkpt>
      <trkpt lat="49.9183" lon="2.25839">
        <ele>20.2</ele>
        <time>2023-01-20T13:51:44Z</time>
      </trkpt>
      <trkpt lat="49.9183" lon="2.25839">
        <ele>20.2</ele>
        <time>2023-01-20T13:51:45Z</time>
      </trkpt>
      <trkpt lat="49.9183" lon="2.25839">
        <ele>20.2</ele>
        <time>2023-01-20T13:51:46Z</time>
      </trkpt>
      <trkpt lat="49.9183" lon="2.25839">
        <ele>20.2</ele>
        <time>2023-01-20T13:51:47Z</time>
      </trkpt>
      <trkpt lat="49.9183" lon="2.25839">
        <ele>20.2</ele>
        <time>2023-01-20T13:51:48Z</time>
      </trkpt>
      <trkpt lat="49.9183" lon="2.25839">
        <ele>20.2</ele>
        <time>2023-01-20T13:51:49Z</time>
      </trkpt>
      <trkpt lat="49.9183" lon="2.25839">
        <ele>20.2</ele>
        <time>2023-01-20T13:51:50Z</time>
      </trkpt>
      <trkpt lat="49.9183" lon="2.25839">
        <ele>20.2</ele>
        <time>2023-01-20T13:51:51Z</time>
      </trkpt>
      <trkpt lat="49.9183" lon="2.25839">
        <ele>20.2</ele>
        <time>2023-01-20T13:51:52Z</time>
      </trkpt>
      <trkpt lat="49.9183" lon="2.25839">
        <ele>20.2</ele>
        <time>2023-01-20T13:51:53Z</time>
      </trkpt>
      <trkpt lat="49.9183" lon="2.25839">
        <ele>20.2</ele>
        <time>2023-01-20T13:51:54Z</time>
      </trkpt>
      <trkpt lat="49.9183" lon="2.25839">
        <ele>20.2</ele>
        <time>2023-01-20T13:51:55Z</time>
      </trkpt>
      <trkpt lat="49.9183" lon="2.25839">
        <ele>20.2</ele>
        <time>2023-01-20T13:51:56Z</time>
      </trkpt>
      <trkpt lat="49.9183" lon="2.25839">
        <ele>20.2</ele>
        <time>2023-01-20T13:51:57Z</time>
      </trkpt>
      <trkpt lat="49.9183" lon="2.25839">
        <ele>20.2</ele>
        <time>2023-01-20T13:51:58Z</time>
      </trkpt>
      <trkpt lat="49.9183" lon="2.25839">
        <ele>20.2</ele>
        <time>2023-01-20T13:51:59Z</time>
      </trkpt>
      <trkpt lat="49.9183" lon="2.25839">
        <ele>20.2</ele>
        <time>2023-01-20T13:52:00Z</time>
      </trkpt>
      <trkpt lat="49.9183" lon="2.25839">
        <ele>20.2</ele>
        <time>2023-01-20T13:52:01Z</time>
      </trkpt>
      <trkpt lat="49.9183" lon="2.25839">
        <ele>20.2</ele>
        <time>2023-01-20T13:52:02Z</time>
      </trkpt>
      <trkpt lat="49.9183" lon="2.25839">
        <ele>20.2</ele>
        <time>2023-01-20T13:52:03Z</time>
      </trkpt>
      <trkpt lat="49.9183" lon="2.25839">
        <ele>20.2</ele>
        <time>2023-01-20T13:52:04Z</time>
      </trkpt>
      <trkpt lat="49.9183" lon="2.25839">
        <ele>20.2</ele>
        <time>2023-01-20T13:52:05Z</time>
      </trkpt>
      <trkpt lat="49.9183" lon="2.25839">
        <ele>20.2</ele>
        <time>2023-01-20T13:52:06Z</time>
      </trkpt>
      <trkpt lat="49.9183" lon="2.25839">
        <ele>20.2</ele>
        <time>2023-01-20T13:52:07Z</time>
      </trkpt>
      <trkpt lat="49.9183" lon="2.25839">
        <ele>20.2</ele>
        <time>2023-01-20T13:52:08Z</time>
      </trkpt>
      <trkpt lat="49.9183" lon="2.25839">
        <ele>20.2</ele>
        <time>2023-01-20T13:52:09Z</time>
      </trkpt>
      <trkpt lat="49.9183" lon="2.25839">
        <ele>20.2</ele>
        <time>2023-01-20T13:52:10Z</time>
      </trkpt>
      <trkpt lat="49.9183" lon="2.25839">
        <ele>20.2</ele>
        <time>2023-01-20T13:52:11Z</time>
      </trkpt>
      <trkpt lat="49.9183" lon="2.25839">
        <ele>20.2</ele>
        <time>2023-01-20T13:52:12Z</time>
      </trkpt>
      <trkpt lat="49.9183" lon="2.25839">
        <ele>20.2</ele>
        <time>2023-01-20T13:52:13Z</time>
      </trkpt>
      <trkpt lat="49.9183" lon="2.25839">
        <ele>20.2</ele>
        <time>2023-01-20T13:52:14Z</time>
      </trkpt>
      <trkpt lat="49.9183" lon="2.25839">
        <ele>20.2</ele>
        <time>2023-01-20T13:52:15Z</time>
      </trkpt>
      <trkpt lat="49.9183" lon="2.25839">
        <ele>20.2</ele>
        <time>2023-01-20T13:52:16Z</time>
      </trkpt>
      <trkpt lat="49.9183" lon="2.25839">
        <ele>20.2</ele>
        <time>2023-01-20T13:52:17Z</time>
      </trkpt>
      <trkpt lat="49.9183" lon="2.25839">
        <ele>20.2</ele>
        <time>2023-01-20T13:52:18Z</time>
      </trkpt>
      <trkpt lat="49.9183" lon="2.25839">
        <ele>20.2</ele>
        <time>2023-01-20T13:52:19Z</time>
      </trkpt>
      <trkpt lat="49.9183" lon="2.25839">
        <ele>20.2</ele>
        <time>2023-01-20T13:52:20Z</time>
      </trkpt>
      <trkpt lat="49.9183" lon="2.25839">
        <ele>20.2</ele>
        <time>2023-01-20T13:52:21Z</time>
      </trkpt>
      <trkpt lat="49.9183" lon="2.25839">
        <ele>20.2</ele>
        <time>2023-01-20T13:52:22Z</time>
      </trkpt>
      <trkpt lat="49.9183" lon="2.25839">
        <ele>20.2</ele>
        <time>2023-01-20T13:52:23Z</time>
      </trkpt>
      <trkpt lat="49.9183" lon="2.25839">
        <ele>20.2</ele>
        <time>2023-01-20T13:52:24Z</time>
      </trkpt>
      <trkpt lat="49.9183" lon="2.25839">
        <ele>20.2</ele>
        <time>2023-01-20T13:52:25Z</time>
      </trkpt>
      <trkpt lat="49.9183" lon="2.25839">
        <ele>20.2</ele>
        <time>2023-01-20T13:52:26Z</time>
      </trkpt>
      <trkpt lat="49.9183" lon="2.25839">
        <ele>20.2</ele>
        <time>2023-01-20T13:52:27Z</time>
      </trkpt>
      <trkpt lat="49.9183" lon="2.25839">
        <ele>20.2</ele>
        <time>2023-01-20T13:52:28Z</time>
      </trkpt>
      <trkpt lat="49.9183" lon="2.25839">
        <ele>20.2</ele>
        <time>2023-01-20T13:52:29Z</time>
      </trkpt>
      <trkpt lat="49.9183" lon="2.25839">
        <ele>20.2</ele>
        <time>2023-01-20T13:52:30Z</time>
      </trkpt>
      <trkpt lat="49.9183" lon="2.25839">
        <ele>20.2</ele>
        <time>2023-01-20T13:52:31Z</time>
      </trkpt>
      <trkpt lat="49.9183" lon="2.25839">
        <ele>20.2</ele>
        <time>2023-01-20T13:52:32Z</time>
      </trkpt>
      <trkpt lat="49.9183" lon="2.25839">
        <ele>20.2</ele>
        <time>2023-01-20T13:52:33Z</time>
      </trkpt>
      <trkpt lat="49.9183" lon="2.25839">
        <ele>20.2</ele>
        <time>2023-01-20T13:52:34Z</time>
      </trkpt>
      <trkpt lat="49.9183" lon="2.25839">
        <ele>20.2</ele>
        <time>2023-01-20T13:52:35Z</time>
      </trkpt>
      <trkpt lat="49.9183" lon="2.25839">
        <ele>20.2</ele>
        <time>2023-01-20T13:52:36Z</time>
      </trkpt>
      <trkpt lat="49.9183" lon="2.25839">
        <ele>20.2</ele>
        <time>2023-01-20T13:52:37Z</time>
      </trkpt>
      <trkpt lat="49.9183" lon="2.25839">
        <ele>20.2</ele>
        <time>2023-01-20T13:52:38Z</time>
      </trkpt>
      <trkpt lat="49.9183" lon="2.25839">
        <ele>20.2</ele>
        <time>2023-01-20T13:52:39Z</time>
      </trkpt>
      <trkpt lat="49.9183" lon="2.25839">
        <ele>20.2</ele>
        <time>2023-01-20T13:52:40Z</time>
      </trkpt>
      <trkpt lat="49.9183" lon="2.25839">
        <ele>20.2</ele>
        <time>2023-01-20T13:52:41Z</time>
      </trkpt>
      <trkpt lat="49.9183" lon="2.25839">
        <ele>20.2</ele>
        <time>2023-01-20T13:52:42Z</time>
      </trkpt>
      <trkpt lat="49.9183" lon="2.25839">
        <ele>20.2</ele>
        <time>2023-01-20T13:52:43Z</time>
      </trkpt>
      <trkpt lat="49.9183" lon="2.25839">
        <ele>20.2</ele>
        <time>2023-01-20T13:52:44Z</time>
      </trkpt>
      <trkpt lat="49.9183" lon="2.25839">
        <ele>20.2</ele>
        <time>2023-01-20T13:52:45Z</time>
      </trkpt>
      <trkpt lat="49.9183" lon="2.25839">
        <ele>20.2</ele>
        <time>2023-01-20T13:52:46Z</time>
      </trkpt>
      <trkpt lat="49.9183" lon="2.25839">
        <ele>20.2</ele>
        <time>2023-01-20T13:52:47Z</time>
      </trkpt>
      <trkpt lat="49.9183" lon="2.25839">
        <ele>20.2</ele>
        <time>2023-01-20T13:52:48Z</time>
      </trkpt>
      <trkpt lat="49.9183" lon="2.25839">
        <ele>20.2</ele>
        <time>2023-01-20T13:52:49Z</time>
      </trkpt>
      <trkpt lat="49.9183" lon="2.25839">
        <ele>20.2</ele>
        <time>2023-01-20T13:52:50Z</time>
      </trkpt>
      <trkpt lat="49.9183" lon="2.25839">
        <ele>20.2</ele>
        <time>2023-01-20T13:52:51Z</time>
      </trkpt>
      <trkpt lat="49.9183" lon="2.25839">
        <ele>20.2</ele>
        <time>2023-01-20T13:52:52Z</time>
      </trkpt>
      <trkpt lat="49.9183" lon="2.25839">
        <ele>20.2</ele>
        <time>2023-01-20T13:52:53Z</time>
      </trkpt>
      <trkpt lat="49.9183" lon="2.25839">
        <ele>20.2</ele>
        <time>2023-01-20T13:52:54Z</time>
      </trkpt>
      <trkpt lat="49.9183" lon="2.25839">
        <ele>20.2</ele>
        <time>2023-01-20T13:52:55Z</time>
      </trkpt>
      <trkpt lat="49.9183" lon="2.25839">
        <ele>20.2</ele>
        <time>2023-01-20T13:52:56Z</time>
      </trkpt>
      <trkpt lat="49.9183" lon="2.25839">
        <ele>20.2</ele>
        <time>2023-01-20T13:52:57Z</time>
      </trkpt>
      <trkpt lat="49.91831" lon="2.25841">
        <ele>20.2</ele>
        <time>2023-01-20T13:52:58Z</time>
      </trkpt>
      <trkpt lat="49.91831" lon="2.25843">
        <ele>20.2</ele>
        <time>2023-01-20T13:52:59Z</time>
      </trkpt>
      <trkpt lat="49.91832" lon="2.25843">
        <ele>20.2</ele>
        <time>2023-01-20T13:53:00Z</time>
      </trkpt>
      <trkpt lat="49.91832" lon="2.25842">
        <ele>20.2</ele>
        <time>2023-01-20T13:53:01Z</time>
      </trkpt>
      <trkpt lat="49.91832" lon="2.25842">
        <ele>20.2</ele>
        <time>2023-01-20T13:53:02Z</time>
      </trkpt>
      <trkpt lat="49.91832" lon="2.25842">
        <ele>20.2</ele>
        <time>2023-01-20T13:53:03Z</time>
      </trkpt>
      <trkpt lat="49.91833" lon="2.25842">
        <ele>20.2</ele>
        <time>2023-01-20T13:53:05Z</time>
      </trkpt>
      <trkpt lat="49.91833" lon="2.25842">
        <ele>20.2</ele>
        <time>2023-01-20T13:53:06Z</time>
      </trkpt>
      <trkpt lat="49.91834" lon="2.25842">
        <ele>20.2</ele>
        <time>2023-01-20T13:53:07Z</time>
      </trkpt>
      <trkpt lat="49.91834" lon="2.25842">
        <ele>20.2</ele>
        <time>2023-01-20T13:53:08Z</time>
      </trkpt>
      <trkpt lat="49.91834" lon="2.2584">
        <ele>20.2</ele>
        <time>2023-01-20T13:53:09Z</time>
      </trkpt>
      <trkpt lat="49.91835" lon="2.25839">
        <ele>20.2</ele>
        <time>2023-01-20T13:53:10Z</time>
      </trkpt>
      <trkpt lat="49.91835" lon="2.25837">
        <ele>20.2</ele>
        <time>2023-01-20T13:53:11Z</time>
      </trkpt>
      <trkpt lat="49.91835" lon="2.25835">
        <ele>20.3</ele>
        <time>2023-01-20T13:53:12Z</time>
      </trkpt>
      <trkpt lat="49.91836" lon="2.25833">
        <ele>20.3</ele>
        <time>2023-01-20T13:53:13Z</time>
      </trkpt>
      <trkpt lat="49.91836" lon="2.25832">
        <ele>20.3</ele>
        <time>2023-01-20T13:53:15Z</time>
      </trkpt>
      <trkpt lat="49.91837" lon="2.2583">
        <ele>20.3</ele>
        <time>2023-01-20T13:53:16Z</time>
      </trkpt>
      <trkpt lat="49.91837" lon="2.25829">
        <ele>20.3</ele>
        <time>2023-01-20T13:53:17Z</time>
      </trkpt>
      <trkpt lat="49.91837" lon="2.25827">
        <ele>20.3</ele>
        <time>2023-01-20T13:53:18Z</time>
      </trkpt>
      <trkpt lat="49.91838" lon="2.25825">
        <ele>20.3</ele>
        <time>2023-01-20T13:53:19Z</time>
      </trkpt>
      <trkpt lat="49.91837" lon="2.25821">
        <ele>20.3</ele>
        <time>2023-01-20T13:53:20Z</time>
      </trkpt>
      <trkpt lat="49.91837" lon="2.25819">
        <ele>20.3</ele>
        <time>2023-01-20T13:53:22Z</time>
      </trkpt>
      <trkpt lat="49.91837" lon="2.25817">
        <ele>20.4</ele>
        <time>2023-01-20T13:53:23Z</time>
      </trkpt>
      <trkpt lat="49.91836" lon="2.25814">
        <ele>20.4</ele>
        <time>2023-01-20T13:53:24Z</time>
      </trkpt>
      <trkpt lat="49.91836" lon="2.25812">
        <ele>20.4</ele>
        <time>2023-01-20T13:53:25Z</time>
      </trkpt>
      <trkpt lat="49.91835" lon="2.2581">
        <ele>20.4</ele>
        <time>2023-01-20T13:53:26Z</time>
      </trkpt>
      <trkpt lat="49.91834" lon="2.25806">
        <ele>20.4</ele>
        <time>2023-01-20T13:53:27Z</time>
      </trkpt>
      <trkpt lat="49.91834" lon="2.25804">
        <ele>20.4</ele>
        <time>2023-01-20T13:53:29Z</time>
      </trkpt>
      <trkpt lat="49.91834" lon="2.258">
        <ele>20.5</ele>
        <time>2023-01-20T13:53:30Z</time>
      </trkpt>
      <trkpt lat="49.91834" lon="2.25798">
        <ele>20.5</ele>
        <time>2023-01-20T13:53:32Z</time>
      </trkpt>
      <trkpt lat="49.91835" lon="2.25796">
        <ele>20.5</ele>
        <time>2023-01-20T13:53:33Z</time>
      </trkpt>
      <trkpt lat="49.91835" lon="2.25795">
        <ele>20.5</ele>
        <time>2023-01-20T13:53:34Z</time>
      </trkpt>
      <trkpt lat="49.91835" lon="2.25793">
        <ele>20.5</ele>
        <time>2023-01-20T13:53:35Z</time>
      </trkpt>
      <trkpt lat="49.91835" lon="2.25792">
        <ele>20.5</ele>
        <time>2023-01-20T13:53:36Z</time>
      </trkpt>
      <trkpt lat="49.91835" lon="2.25791">
        <ele>20.6</ele>
        <time>2023-01-20T13:53:38Z</time>
      </trkpt>
      <trkpt lat="49.91835" lon="2.25789">
        <ele>20.6</ele>
        <time>2023-01-20T13:53:39Z</time>
      </trkpt>
      <trkpt lat="49.91835" lon="2.25786">
        <ele>20.6</ele>
        <time>2023-01-20T13:53:40Z</time>
      </trkpt>
      <trkpt lat="49.91835" lon="2.25785">
        <ele>20.6</ele>
        <time>2023-01-20T13:53:41Z</time>
      </trkpt>
      <trkpt lat="49.91835" lon="2.25783">
        <ele>20.6</ele>
        <time>2023-01-20T13:53:42Z</time>
      </trkpt>
      <trkpt lat="49.91836" lon="2.25782">
        <ele>20.6</ele>
        <time>2023-01-20T13:53:43Z</time>
      </trkpt>
      <trkpt lat="49.91836" lon="2.2578">
        <ele>20.6</ele>
        <time>2023-01-20T13:53:45Z</time>
      </trkpt>
      <trkpt lat="49.91836" lon="2.25778">
        <ele>20.7</ele>
        <time>2023-01-20T13:53:46Z</time>
      </trkpt>
      <trkpt lat="49.91837" lon="2.25775">
        <ele>20.7</ele>
        <time>2023-01-20T13:53:47Z</time>
      </trkpt>
      <trkpt lat="49.91837" lon="2.25774">
        <ele>20.7</ele>
        <time>2023-01-20T13:53:48Z</time>
      </trkpt>
      <trkpt lat="49.91838" lon="2.25773">
        <ele>20.7</ele>
        <time>2023-01-20T13:53:49Z</time>
      </trkpt>
      <trkpt lat="49.91838" lon="2.2577">
        <ele>20.7</ele>
        <time>2023-01-20T13:53:50Z</time>
      </trkpt>
      <trkpt lat="49.91839" lon="2.25769">
        <ele>20.8</ele>
        <time>2023-01-20T13:53:52Z</time>
      </trkpt>
      <trkpt lat="49.91839" lon="2.25768">
        <ele>20.8</ele>
        <time>2023-01-20T13:53:53Z</time>
      </trkpt>
      <trkpt lat="49.9184" lon="2.25766">
        <ele>20.8</ele>
        <time>2023-01-20T13:53:54Z</time>
      </trkpt>
      <trkpt lat="49.91841" lon="2.25765">
        <ele>20.8</ele>
        <time>2023-01-20T13:53:55Z</time>
      </trkpt>
      <trkpt lat="49.91842" lon="2.25763">
        <ele>20.8</ele>
        <time>2023-01-20T13:53:57Z</time>
      </trkpt>
      <trkpt lat="49.91843" lon="2.25761">
        <ele>20.8</ele>
        <time>2023-01-20T13:53:58Z</time>
      </trkpt>
      <trkpt lat="49.91844" lon="2.2576">
        <ele>20.8</ele>
        <time>2023-01-20T13:53:59Z</time>
      </trkpt>
      <trkpt lat="49.91844" lon="2.25759">
        <ele>20.8</ele>
        <time>2023-01-20T13:54:00Z</time>
      </trkpt>
      <trkpt lat="49.91845" lon="2.25758">
        <ele>20.8</ele>
        <time>2023-01-20T13:54:01Z</time>
      </trkpt>
      <trkpt lat="49.91846" lon="2.25756">
        <ele>20.8</ele>
        <time>2023-01-20T13:54:02Z</time>
      </trkpt>
      <trkpt lat="49.91847" lon="2.25755">
        <ele>20.8</ele>
        <time>2023-01-20T13:54:04Z</time>
      </trkpt>
      <trkpt lat="49.91848" lon="2.25753">
        <ele>20.9</ele>
        <time>2023-01-20T13:54:05Z</time>
      </trkpt>
      <trkpt lat="49.91849" lon="2.25752">
        <ele>20.9</ele>
        <time>2023-01-20T13:54:06Z</time>
      </trkpt>
      <trkpt lat="49.91849" lon="2.25751">
        <ele>20.9</ele>
        <time>2023-01-20T13:54:07Z</time>
      </trkpt>
      <trkpt lat="49.9185" lon="2.2575">
        <ele>20.9</ele>
        <time>2023-01-20T13:54:08Z</time>
      </trkpt>
      <trkpt lat="49.91851" lon="2.25749">
        <ele>20.9</ele>
        <time>2023-01-20T13:54:09Z</time>
      </trkpt>
      <trkpt lat="49.91851" lon="2.25748">
        <ele>20.9</ele>
        <time>2023-01-20T13:54:10Z</time>
      </trkpt>
      <trkpt lat="49.91852" lon="2.25747">
        <ele>20.9</ele>
        <time>2023-01-20T13:54:11Z</time>
      </trkpt>
      <trkpt lat="49.91852" lon="2.25745">
        <ele>20.9</ele>
        <time>2023-01-20T13:54:12Z</time>
      </trkpt>
      <trkpt lat="49.91852" lon="2.25744">
        <ele>20.9</ele>
        <time>2023-01-20T13:54:14Z</time>
      </trkpt>
      <trkpt lat="49.91852" lon="2.25742">
        <ele>20.9</ele>
        <time>2023-01-20T13:54:15Z</time>
      </trkpt>
      <trkpt lat="49.91852" lon="2.25741">
        <ele>20.9</ele>
        <time>2023-01-20T13:54:16Z</time>
      </trkpt>
      <trkpt lat="49.91851" lon="2.2574">
        <ele>20.8</ele>
        <time>2023-01-20T13:54:17Z</time>
      </trkpt>
      <trkpt lat="49.9185" lon="2.25739">
        <ele>20.8</ele>
        <time>2023-01-20T13:54:18Z</time>
      </trkpt>
      <trkpt lat="49.91849" lon="2.25738">
        <ele>20.8</ele>
        <time>2023-01-20T13:54:20Z</time>
      </trkpt>
      <trkpt lat="49.91847" lon="2.25738">
        <ele>20.8</ele>
        <time>2023-01-20T13:54:21Z</time>
      </trkpt>
      <trkpt lat="49.91846" lon="2.25738">
        <ele>20.8</ele>
        <time>2023-01-20T13:54:23Z</time>
      </trkpt>
      <trkpt lat="49.91845" lon="2.25737">
        <ele>20.8</ele>
        <time>2023-01-20T13:54:24Z</time>
      </trkpt>
      <trkpt lat="49.91843" lon="2.25737">
        <ele>20.8</ele>
        <time>2023-01-20T13:54:25Z</time>
      </trkpt>
      <trkpt lat="49.91842" lon="2.25737">
        <ele>20.8</ele>
        <time>2023-01-20T13:54:26Z</time>
      </trkpt>
      <trkpt lat="49.91841" lon="2.25737">
        <ele>20.8</ele>
        <time>2023-01-20T13:54:27Z</time>
      </trkpt>
      <trkpt lat="49.91839" lon="2.25736">
        <ele>20.8</ele>
        <time>2023-01-20T13:54:29Z</time>
      </trkpt>
      <trkpt lat="49.91838" lon="2.25736">
        <ele>20.8</ele>
        <time>2023-01-20T13:54:30Z</time>
      </trkpt>
      <trkpt lat="49.91837" lon="2.25736">
        <ele>20.8</ele>
        <time>2023-01-20T13:54:31Z</time>
      </trkpt>
      <trkpt lat="49.91836" lon="2.25736">
        <ele>20.8</ele>
        <time>2023-01-20T13:54:32Z</time>
      </trkpt>
      <trkpt lat="49.91835" lon="2.25736">
        <ele>20.8</ele>
        <time>2023-01-20T13:54:33Z</time>
      </trkpt>
      <trkpt lat="49.91833" lon="2.25736">
        <ele>20.8</ele>
        <time>2023-01-20T13:54:35Z</time>
      </trkpt>
      <trkpt lat="49.91832" lon="2.25736">
        <ele>20.7</ele>
        <time>2023-01-20T13:54:36Z</time>
      </trkpt>
      <trkpt lat="49.91831" lon="2.25736">
        <ele>20.7</ele>
        <time>2023-01-20T13:54:37Z</time>
      </trkpt>
      <trkpt lat="49.91831" lon="2.25737">
        <ele>20.7</ele>
        <time>2023-01-20T13:54:38Z</time>
      </trkpt>
      <trkpt lat="49.9183" lon="2.25737">
        <ele>20.7</ele>
        <time>2023-01-20T13:54:39Z</time>
      </trkpt>
      <trkpt lat="49.91829" lon="2.25737">
        <ele>20.7</ele>
        <time>2023-01-20T13:54:41Z</time>
      </trkpt>
      <trkpt lat="49.91828" lon="2.25738">
        <ele>20.7</ele>
        <time>2023-01-20T13:54:42Z</time>
      </trkpt>
      <trkpt lat="49.91827" lon="2.25737">
        <ele>20.7</ele>
        <time>2023-01-20T13:54:43Z</time>
      </trkpt>
      <trkpt lat="49.91826" lon="2.25737">
        <ele>20.7</ele>
        <time>2023-01-20T13:54:44Z</time>
      </trkpt>
      <trkpt lat="49.91824" lon="2.25736">
        <ele>20.7</ele>
        <time>2023-01-20T13:54:45Z</time>
      </trkpt>
      <trkpt lat="49.91824" lon="2.25736">
        <ele>20.7</ele>
        <time>2023-01-20T13:54:46Z</time>
      </trkpt>
      <trkpt lat="49.91823" lon="2.25735">
        <ele>20.7</ele>
        <time>2023-01-20T13:54:47Z</time>
      </trkpt>
      <trkpt lat="49.91822" lon="2.25734">
        <ele>20.7</ele>
        <time>2023-01-20T13:54:49Z</time>
      </trkpt>
      <trkpt lat="49.91821" lon="2.25734">
        <ele>20.7</ele>
        <time>2023-01-20T13:54:50Z</time>
      </trkpt>
      <trkpt lat="49.91819" lon="2.25733">
        <ele>20.7</ele>
        <time>2023-01-20T13:54:51Z</time>
      </trkpt>
      <trkpt lat="49.91818" lon="2.25732">
        <ele>20.6</ele>
        <time>2023-01-20T13:54:52Z</time>
      </trkpt>
      <trkpt lat="49.91817" lon="2.25731">
        <ele>20.6</ele>
        <time>2023-01-20T13:54:53Z</time>
      </trkpt>
      <trkpt lat="49.91817" lon="2.2573">
        <ele>20.6</ele>
        <time>2023-01-20T13:54:54Z</time>
      </trkpt>
      <trkpt lat="49.91816" lon="2.25729">
        <ele>20.6</ele>
        <time>2023-01-20T13:54:55Z</time>
      </trkpt>
      <trkpt lat="49.91815" lon="2.25728">
        <ele>20.6</ele>
        <time>2023-01-20T13:54:56Z</time>
      </trkpt>
      <trkpt lat="49.91813" lon="2.25727">
        <ele>20.6</ele>
        <time>2023-01-20T13:54:58Z</time>
      </trkpt>
      <trkpt lat="49.91812" lon="2.25726">
        <ele>20.6</ele>
        <time>2023-01-20T13:54:59Z</time>
      </trkpt>
      <trkpt lat="49.91811" lon="2.25726">
        <ele>20.6</ele>
        <time>2023-01-20T13:55:00Z</time>
      </trkpt>
      <trkpt lat="49.9181" lon="2.25725">
        <ele>19.8</ele>
        <time>2023-01-20T13:55:01Z</time>
      </trkpt>
      <trkpt lat="49.91809" lon="2.25725">
        <ele>19.8</ele>
        <time>2023-01-20T13:55:02Z</time>
      </trkpt>
      <trkpt lat="49.91808" lon="2.25725">
        <ele>19.7</ele>
        <time>2023-01-20T13:55:03Z</time>
      </trkpt>
      <trkpt lat="49.91807" lon="2.25725">
        <ele>19.6</ele>
        <time>2023-01-20T13:55:05Z</time>
      </trkpt>
      <trkpt lat="49.91806" lon="2.25725">
        <ele>19.6</ele>
        <time>2023-01-20T13:55:06Z</time>
      </trkpt>
      <trkpt lat="49.91805" lon="2.25726">
        <ele>19.5</ele>
        <time>2023-01-20T13:55:07Z</time>
      </trkpt>
      <trkpt lat="49.91805" lon="2.25726">
        <ele>19.5</ele>
        <time>2023-01-20T13:55:08Z</time>
      </trkpt>
      <trkpt lat="49.91804" lon="2.25727">
        <ele>19.4</ele>
        <time>2023-01-20T13:55:09Z</time>
      </trkpt>
      <trkpt lat="49.91803" lon="2.25728">
        <ele>19.4</ele>
        <time>2023-01-20T13:55:10Z</time>
      </trkpt>
      <trkpt lat="49.91802" lon="2.25728">
        <ele>19.4</ele>
        <time>2023-01-20T13:55:11Z</time>
      </trkpt>
      <trkpt lat="49.91801" lon="2.25729">
        <ele>19.3</ele>
        <time>2023-01-20T13:55:13Z</time>
      </trkpt>
      <trkpt lat="49.918" lon="2.2573">
        <ele>19.3</ele>
        <time>2023-01-20T13:55:14Z</time>
      </trkpt>
      <trkpt lat="49.91799" lon="2.25732">
        <ele>19.2</ele>
        <time>2023-01-20T13:55:15Z</time>
      </trkpt>
      <trkpt lat="49.91798" lon="2.25733">
        <ele>19.1</ele>
        <time>2023-01-20T13:55:16Z</time>
      </trkpt>
      <trkpt lat="49.91797" lon="2.25734">
        <ele>19.1</ele>
        <time>2023-01-20T13:55:17Z</time>
      </trkpt>
      <trkpt lat="49.91797" lon="2.25736">
        <ele>19</ele>
        <time>2023-01-20T13:55:18Z</time>
      </trkpt>
      <trkpt lat="49.91796" lon="2.25737">
        <ele>19</ele>
        <time>2023-01-20T13:55:20Z</time>
      </trkpt>
      <trkpt lat="49.91795" lon="2.25739">
        <ele>19</ele>
        <time>2023-01-20T13:55:21Z</time>
      </trkpt>
      <trkpt lat="49.91794" lon="2.25741">
        <ele>18.9</ele>
        <time>2023-01-20T13:55:22Z</time>
      </trkpt>
      <trkpt lat="49.91794" lon="2.25744">
        <ele>18.9</ele>
        <time>2023-01-20T13:55:23Z</time>
      </trkpt>
      <trkpt lat="49.91793" lon="2.25745">
        <ele>18.8</ele>
        <time>2023-01-20T13:55:24Z</time>
      </trkpt>
      <trkpt lat="49.91793" lon="2.25747">
        <ele>18.8</ele>
        <time>2023-01-20T13:55:25Z</time>
      </trkpt>
      <trkpt lat="49.91793" lon="2.25748">
        <ele>18.8</ele>
        <time>2023-01-20T13:55:26Z</time>
      </trkpt>
      <trkpt lat="49.91793" lon="2.25751">
        <ele>18.7</ele>
        <time>2023-01-20T13:55:27Z</time>
      </trkpt>
      <trkpt lat="49.91792" lon="2.25753">
        <ele>18.7</ele>
        <time>2023-01-20T13:55:29Z</time>
      </trkpt>
      <trkpt lat="49.91792" lon="2.25754">
        <ele>18.7</ele>
        <time>2023-01-20T13:55:30Z</time>
      </trkpt>
      <trkpt lat="49.91792" lon="2.25756">
        <ele>18.7</ele>
        <time>2023-01-20T13:55:31Z</time>
      </trkpt>
      <trkpt lat="49.91791" lon="2.25758">
        <ele>18.6</ele>
        <time>2023-01-20T13:55:32Z</time>
      </trkpt>
      <trkpt lat="49.91791" lon="2.25759">
        <ele>18.6</ele>
        <time>2023-01-20T13:55:33Z</time>
      </trkpt>
      <trkpt lat="49.91791" lon="2.25761">
        <ele>18.6</ele>
        <time>2023-01-20T13:55:34Z</time>
      </trkpt>
      <trkpt lat="49.91791" lon="2.25763">
        <ele>18.6</ele>
        <time>2023-01-20T13:55:35Z</time>
      </trkpt>
      <trkpt lat="49.91791" lon="2.25765">
        <ele>18.6</ele>
        <time>2023-01-20T13:55:36Z</time>
      </trkpt>
      <trkpt lat="49.91791" lon="2.25766">
        <ele>18.6</ele>
        <time>2023-01-20T13:55:37Z</time>
      </trkpt>
      <trkpt lat="49.9179" lon="2.25767">
        <ele>18.5</ele>
        <time>2023-01-20T13:55:38Z</time>
      </trkpt>
      <trkpt lat="49.9179" lon="2.25769">
        <ele>18.5</ele>
        <time>2023-01-20T13:55:40Z</time>
      </trkpt>
      <trkpt lat="49.91789" lon="2.2577">
        <ele>18.5</ele>
        <time>2023-01-20T13:55:41Z</time>
      </trkpt>
      <trkpt lat="49.91788" lon="2.25773">
        <ele>18.5</ele>
        <time>2023-01-20T13:55:42Z</time>
      </trkpt>
      <trkpt lat="49.91788" lon="2.25774">
        <ele>18.4</ele>
        <time>2023-01-20T13:55:43Z</time>
      </trkpt>
      <trkpt lat="49.91787" lon="2.25775">
        <ele>18.4</ele>
        <time>2023-01-20T13:55:44Z</time>
      </trkpt>
      <trkpt lat="49.91786" lon="2.25778">
        <ele>18.4</ele>
        <time>2023-01-20T13:55:46Z</time>
      </trkpt>
      <trkpt lat="49.91786" lon="2.25779">
        <ele>18.4</ele>
        <time>2023-01-20T13:55:47Z</time>
      </trkpt>
      <trkpt lat="49.91785" lon="2.25781">
        <ele>18.4</ele>
        <time>2023-01-20T13:55:48Z</time>
      </trkpt>
      <trkpt lat="49.91784" lon="2.25782">
        <ele>18.4</ele>
        <time>2023-01-20T13:55:49Z</time>
      </trkpt>
      <trkpt lat="49.91784" lon="2.25784">
        <ele>18.4</ele>
        <time>2023-01-20T13:55:50Z</time>
      </trkpt>
      <trkpt lat="49.91783" lon="2.25786">
        <ele>18.4</ele>
        <time>2023-01-20T13:55:51Z</time>
      </trkpt>
      <trkpt lat="49.91783" lon="2.25788">
        <ele>18.3</ele>
        <time>2023-01-20T13:55:52Z</time>
      </trkpt>
      <trkpt lat="49.91782" lon="2.25789">
        <ele>18.3</ele>
        <time>2023-01-20T13:55:54Z</time>
      </trkpt>
      <trkpt lat="49.91781" lon="2.25792">
        <ele>18.3</ele>
        <time>2023-01-20T13:55:55Z</time>
      </trkpt>
      <trkpt lat="49.91781" lon="2.25793">
        <ele>18.3</ele>
        <time>2023-01-20T13:55:56Z</time>
      </trkpt>
      <trkpt lat="49.9178" lon="2.25794">
        <ele>18.3</ele>
        <time>2023-01-20T13:55:57Z</time>
      </trkpt>
      <trkpt lat="49.9178" lon="2.25795">
        <ele>18.3</ele>
        <time>2023-01-20T13:55:58Z</time>
      </trkpt>
      <trkpt lat="49.91779" lon="2.25797">
        <ele>18.3</ele>
        <time>2023-01-20T13:55:59Z</time>
      </trkpt>
      <trkpt lat="49.91779" lon="2.25798">
        <ele>18.3</ele>
        <time>2023-01-20T13:56:00Z</time>
      </trkpt>
      <trkpt lat="49.91778" lon="2.25801">
        <ele>18.3</ele>
        <time>2023-01-20T13:56:01Z</time>
      </trkpt>
      <trkpt lat="49.91777" lon="2.25802">
        <ele>18.3</ele>
        <time>2023-01-20T13:56:02Z</time>
      </trkpt>
      <trkpt lat="49.91777" lon="2.25804">
        <ele>18.3</ele>
        <time>2023-01-20T13:56:03Z</time>
      </trkpt>
      <trkpt lat="49.91776" lon="2.25806">
        <ele>18.3</ele>
        <time>2023-01-20T13:56:05Z</time>
      </trkpt>
      <trkpt lat="49.91775" lon="2.25807">
        <ele>18.3</ele>
        <time>2023-01-20T13:56:06Z</time>
      </trkpt>
      <trkpt lat="49.91775" lon="2.25808">
        <ele>18.3</ele>
        <time>2023-01-20T13:56:07Z</time>
      </trkpt>
      <trkpt lat="49.91773" lon="2.25811">
        <ele>18.3</ele>
        <time>2023-01-20T13:56:08Z</time>
      </trkpt>
      <trkpt lat="49.91773" lon="2.25812">
        <ele>18.3</ele>
        <time>2023-01-20T13:56:09Z</time>
      </trkpt>
      <trkpt lat="49.91772" lon="2.25812">
        <ele>18.3</ele>
        <time>2023-01-20T13:56:10Z</time>
      </trkpt>
      <trkpt lat="49.9177" lon="2.25814">
        <ele>18.3</ele>
        <time>2023-01-20T13:56:11Z</time>
      </trkpt>
      <trkpt lat="49.91769" lon="2.25816">
        <ele>18.3</ele>
        <time>2023-01-20T13:56:13Z</time>
      </trkpt>
      <trkpt lat="49.91768" lon="2.25817">
        <ele>18.3</ele>
        <time>2023-01-20T13:56:14Z</time>
      </trkpt>
      <trkpt lat="49.91767" lon="2.25818">
        <ele>18.3</ele>
        <time>2023-01-20T13:56:15Z</time>
      </trkpt>
      <trkpt lat="49.91766" lon="2.25819">
        <ele>18.3</ele>
        <time>2023-01-20T13:56:16Z</time>
      </trkpt>
      <trkpt lat="49.91765" lon="2.2582">
        <ele>18.3</ele>
        <time>2023-01-20T13:56:17Z</time>
      </trkpt>
      <trkpt lat="49.91764" lon="2.25822">
        <ele>18.3</ele>
        <time>2023-01-20T13:56:18Z</time>
      </trkpt>
      <trkpt lat="49.91763" lon="2.25824">
        <ele>18.3</ele>
        <time>2023-01-20T13:56:19Z</time>
      </trkpt>
      <trkpt lat="49.91762" lon="2.25826">
        <ele>18.3</ele>
        <time>2023-01-20T13:56:20Z</time>
      </trkpt>
      <trkpt lat="49.91761" lon="2.25827">
        <ele>18.3</ele>
        <time>2023-01-20T13:56:21Z</time>
      </trkpt>
      <trkpt lat="49.91761" lon="2.25829">
        <ele>18.3</ele>
        <time>2023-01-20T13:56:22Z</time>
      </trkpt>
      <trkpt lat="49.91759" lon="2.25832">
        <ele>18.3</ele>
        <time>2023-01-20T13:56:24Z</time>
      </trkpt>
      <trkpt lat="49.91759" lon="2.25833">
        <ele>18.3</ele>
        <time>2023-01-20T13:56:25Z</time>
      </trkpt>
      <trkpt lat="49.91758" lon="2.25834">
        <ele>18.3</ele>
        <time>2023-01-20T13:56:26Z</time>
      </trkpt>
      <trkpt lat="49.91757" lon="2.25836">
        <ele>18.3</ele>
        <time>2023-01-20T13:56:27Z</time>
      </trkpt>
      <trkpt lat="49.91756" lon="2.25838">
        <ele>18.3</ele>
        <time>2023-01-20T13:56:28Z</time>
      </trkpt>
      <trkpt lat="49.91754" lon="2.2584">
        <ele>18.3</ele>
        <time>2023-01-20T13:56:30Z</time>
      </trkpt>
      <trkpt lat="49.91754" lon="2.25842">
        <ele>18.3</ele>
        <time>2023-01-20T13:56:31Z</time>
      </trkpt>
      <trkpt lat="49.91753" lon="2.25843">
        <ele>18.3</ele>
        <time>2023-01-20T13:56:32Z</time>
      </trkpt>
      <trkpt lat="49.91753" lon="2.25845">
        <ele>18.3</ele>
        <time>2023-01-20T13:56:33Z</time>
      </trkpt>
      <trkpt lat="49.91752" lon="2.25847">
        <ele>18.3</ele>
        <time>2023-01-20T13:56:34Z</time>
      </trkpt>
      <trkpt lat="49.91751" lon="2.2585">
        <ele>18.3</ele>
        <time>2023-01-20T13:56:35Z</time>
      </trkpt>
      <trkpt lat="49.91751" lon="2.25851">
        <ele>18.3</ele>
        <time>2023-01-20T13:56:36Z</time>
      </trkpt>
      <trkpt lat="49.9175" lon="2.25852">
        <ele>18.3</ele>
        <time>2023-01-20T13:56:37Z</time>
      </trkpt>
      <trkpt lat="49.91749" lon="2.25855">
        <ele>18.3</ele>
        <time>2023-01-20T13:56:39Z</time>
      </trkpt>
      <trkpt lat="49.91749" lon="2.25857">
        <ele>18.3</ele>
        <time>2023-01-20T13:56:40Z</time>
      </trkpt>
      <trkpt lat="49.91748" lon="2.25858">
        <ele>18.3</ele>
        <time>2023-01-20T13:56:41Z</time>
      </trkpt>
      <trkpt lat="49.91747" lon="2.2586">
        <ele>18.3</ele>
        <time>2023-01-20T13:56:42Z</time>
      </trkpt>
      <trkpt lat="49.91747" lon="2.25861">
        <ele>18.3</ele>
        <time>2023-01-20T13:56:43Z</time>
      </trkpt>
      <trkpt lat="49.91746" lon="2.25862">
        <ele>18.3</ele>
        <time>2023-01-20T13:56:44Z</time>
      </trkpt>
      <trkpt lat="49.91745" lon="2.25865">
        <ele>18.3</ele>
        <time>2023-01-20T13:56:45Z</time>
      </trkpt>
      <trkpt lat="49.91744" lon="2.25866">
        <ele>18.3</ele>
        <time>2023-01-20T13:56:46Z</time>
      </trkpt>
      <trkpt lat="49.91744" lon="2.25867">
        <ele>18.3</ele>
        <time>2023-01-20T13:56:47Z</time>
      </trkpt>
      <trkpt lat="49.91743" lon="2.25868">
        <ele>18.3</ele>
        <time>2023-01-20T13:56:49Z</time>
      </trkpt>
      <trkpt lat="49.91742" lon="2.25869">
        <ele>18.3</ele>
        <time>2023-01-20T13:56:50Z</time>
      </trkpt>
      <trkpt lat="49.91741" lon="2.25869">
        <ele>18.3</ele>
        <time>2023-01-20T13:56:51Z</time>
      </trkpt>
      <trkpt lat="49.9174" lon="2.2587">
        <ele>18.3</ele>
        <time>2023-01-20T13:56:52Z</time>
      </trkpt>
      <trkpt lat="49.91739" lon="2.2587">
        <ele>18.3</ele>
        <time>2023-01-20T13:56:53Z</time>
      </trkpt>
      <trkpt lat="49.91738" lon="2.25871">
        <ele>18.3</ele>
        <time>2023-01-20T13:56:54Z</time>
      </trkpt>
      <trkpt lat="49.91737" lon="2.25872">
        <ele>18.3</ele>
        <time>2023-01-20T13:56:55Z</time>
      </trkpt>
      <trkpt lat="49.91737" lon="2.25873">
        <ele>18.3</ele>
        <time>2023-01-20T13:56:56Z</time>
      </trkpt>
      <trkpt lat="49.91736" lon="2.25874">
        <ele>18.3</ele>
        <time>2023-01-20T13:56:57Z</time>
      </trkpt>
      <trkpt lat="49.91735" lon="2.25875">
        <ele>18.3</ele>
        <time>2023-01-20T13:56:59Z</time>
      </trkpt>
      <trkpt lat="49.91735" lon="2.25877">
        <ele>18.3</ele>
        <time>2023-01-20T13:57:00Z</time>
      </trkpt>
      <trkpt lat="49.91734" lon="2.25878">
        <ele>18.3</ele>
        <time>2023-01-20T13:57:01Z</time>
      </trkpt>
      <trkpt lat="49.91732" lon="2.2588">
        <ele>18.3</ele>
        <time>2023-01-20T13:57:02Z</time>
      </trkpt>
      <trkpt lat="49.91732" lon="2.25882">
        <ele>18.3</ele>
        <time>2023-01-20T13:57:03Z</time>
      </trkpt>
      <trkpt lat="49.91731" lon="2.25883">
        <ele>18.3</ele>
        <time>2023-01-20T13:57:04Z</time>
      </trkpt>
      <trkpt lat="49.91731" lon="2.25885">
        <ele>18.3</ele>
        <time>2023-01-20T13:57:05Z</time>
      </trkpt>
      <trkpt lat="49.91731" lon="2.25887">
        <ele>18.3</ele>
        <time>2023-01-20T13:57:06Z</time>
      </trkpt>
      <trkpt lat="49.9173" lon="2.2589">
        <ele>18.4</ele>
        <time>2023-01-20T13:57:08Z</time>
      </trkpt>
      <trkpt lat="49.9173" lon="2.25891">
        <ele>18.4</ele>
        <time>2023-01-20T13:57:09Z</time>
      </trkpt>
      <trkpt lat="49.9173" lon="2.25893">
        <ele>18.4</ele>
        <time>2023-01-20T13:57:10Z</time>
      </trkpt>
      <trkpt lat="49.9173" lon="2.25894">
        <ele>18.4</ele>
        <time>2023-01-20T13:57:11Z</time>
      </trkpt>
      <trkpt lat="49.91729" lon="2.25896">
        <ele>18.4</ele>
        <time>2023-01-20T13:57:12Z</time>
      </trkpt>
      <trkpt lat="49.91729" lon="2.25897">
        <ele>18.4</ele>
        <time>2023-01-20T13:57:13Z</time>
      </trkpt>
      <trkpt lat="49.91729" lon="2.25899">
        <ele>18.4</ele>
        <time>2023-01-20T13:57:14Z</time>
      </trkpt>
      <trkpt lat="49.91728" lon="2.25901">
        <ele>18.4</ele>
        <time>2023-01-20T13:57:15Z</time>
      </trkpt>
      <trkpt lat="49.91728" lon="2.25902">
        <ele>18.4</ele>
        <time>2023-01-20T13:57:17Z</time>
      </trkpt>
      <trkpt lat="49.91727" lon="2.25904">
        <ele>18.4</ele>
        <time>2023-01-20T13:57:18Z</time>
      </trkpt>
      <trkpt lat="49.91727" lon="2.25905">
        <ele>18.4</ele>
        <time>2023-01-20T13:57:19Z</time>
      </trkpt>
      <trkpt lat="49.91727" lon="2.25906">
        <ele>18.4</ele>
        <time>2023-01-20T13:57:20Z</time>
      </trkpt>
      <trkpt lat="49.91727" lon="2.25907">
        <ele>18.4</ele>
        <time>2023-01-20T13:57:21Z</time>
      </trkpt>
      <trkpt lat="49.91727" lon="2.25908">
        <ele>18.4</ele>
        <time>2023-01-20T13:57:22Z</time>
      </trkpt>
      <trkpt lat="49.91727" lon="2.25909">
        <ele>18.4</ele>
        <time>2023-01-20T13:57:24Z</time>
      </trkpt>
      <trkpt lat="49.91726" lon="2.25911">
        <ele>18.4</ele>
        <time>2023-01-20T13:57:25Z</time>
      </trkpt>
      <trkpt lat="49.91726" lon="2.25911">
        <ele>18.5</ele>
        <time>2023-01-20T13:57:26Z</time>
      </trkpt>
      <trkpt lat="49.91725" lon="2.25912">
        <ele>18.5</ele>
        <time>2023-01-20T13:57:27Z</time>
      </trkpt>
      <trkpt lat="49.91725" lon="2.25913">
        <ele>18.5</ele>
        <time>2023-01-20T13:57:28Z</time>
      </trkpt>
      <trkpt lat="49.91725" lon="2.25914">
        <ele>18.5</ele>
        <time>2023-01-20T13:57:30Z</time>
      </trkpt>
      <trkpt lat="49.91724" lon="2.25915">
        <ele>18.5</ele>
        <time>2023-01-20T13:57:31Z</time>
      </trkpt>
      <trkpt lat="49.91723" lon="2.25917">
        <ele>18.5</ele>
        <time>2023-01-20T13:57:32Z</time>
      </trkpt>
      <trkpt lat="49.91722" lon="2.25918">
        <ele>18.5</ele>
        <time>2023-01-20T13:57:33Z</time>
      </trkpt>
      <trkpt lat="49.91722" lon="2.25919">
        <ele>18.5</ele>
        <time>2023-01-20T13:57:34Z</time>
      </trkpt>
      <trkpt lat="49.91721" lon="2.2592">
        <ele>18.5</ele>
        <time>2023-01-20T13:57:36Z</time>
      </trkpt>
      <trkpt lat="49.9172" lon="2.25921">
        <ele>18.5</ele>
        <time>2023-01-20T13:57:37Z</time>
      </trkpt>
      <trkpt lat="49.91719" lon="2.25922">
        <ele>18.5</ele>
        <time>2023-01-20T13:57:38Z</time>
      </trkpt>
      <trkpt lat="49.91717" lon="2.25924">
        <ele>18.6</ele>
        <time>2023-01-20T13:57:39Z</time>
      </trkpt>
      <trkpt lat="49.91716" lon="2.25925">
        <ele>18.6</ele>
        <time>2023-01-20T13:57:40Z</time>
      </trkpt>
      <trkpt lat="49.91715" lon="2.25925">
        <ele>18.6</ele>
        <time>2023-01-20T13:57:41Z</time>
      </trkpt>
      <trkpt lat="49.91713" lon="2.25928">
        <ele>18.6</ele>
        <time>2023-01-20T13:57:42Z</time>
      </trkpt>
      <trkpt lat="49.91712" lon="2.25928">
        <ele>18.6</ele>
        <time>2023-01-20T13:57:44Z</time>
      </trkpt>
      <trkpt lat="49.91711" lon="2.25929">
        <ele>18.6</ele>
        <time>2023-01-20T13:57:45Z</time>
      </trkpt>
      <trkpt lat="49.9171" lon="2.2593">
        <ele>18.6</ele>
        <time>2023-01-20T13:57:46Z</time>
      </trkpt>
      <trkpt lat="49.91709" lon="2.2593">
        <ele>18.6</ele>
        <time>2023-01-20T13:57:47Z</time>
      </trkpt>
      <trkpt lat="49.91707" lon="2.25932">
        <ele>18.6</ele>
        <time>2023-01-20T13:57:48Z</time>
      </trkpt>
      <trkpt lat="49.91706" lon="2.25933">
        <ele>18.7</ele>
        <time>2023-01-20T13:57:49Z</time>
      </trkpt>
      <trkpt lat="49.91705" lon="2.25933">
        <ele>18.7</ele>
        <time>2023-01-20T13:57:50Z</time>
      </trkpt>
      <trkpt lat="49.91704" lon="2.25934">
        <ele>18.7</ele>
        <time>2023-01-20T13:57:51Z</time>
      </trkpt>
      <trkpt lat="49.91703" lon="2.25935">
        <ele>18.7</ele>
        <time>2023-01-20T13:57:53Z</time>
      </trkpt>
      <trkpt lat="49.91702" lon="2.25935">
        <ele>18.7</ele>
        <time>2023-01-20T13:57:54Z</time>
      </trkpt>
      <trkpt lat="49.91701" lon="2.25935">
        <ele>18.7</ele>
        <time>2023-01-20T13:57:55Z</time>
      </trkpt>
      <trkpt lat="49.917" lon="2.25934">
        <ele>18.7</ele>
        <time>2023-01-20T13:57:56Z</time>
      </trkpt>
      <trkpt lat="49.91699" lon="2.25934">
        <ele>18.7</ele>
        <time>2023-01-20T13:57:57Z</time>
      </trkpt>
      <trkpt lat="49.91697" lon="2.25934">
        <ele>18.7</ele>
        <time>2023-01-20T13:57:58Z</time>
      </trkpt>
      <trkpt lat="49.91696" lon="2.25933">
        <ele>18.7</ele>
        <time>2023-01-20T13:57:59Z</time>
      </trkpt>
      <trkpt lat="49.91695" lon="2.25933">
        <ele>18.8</ele>
        <time>2023-01-20T13:58:01Z</time>
      </trkpt>
      <trkpt lat="49.91695" lon="2.25932">
        <ele>18.8</ele>
        <time>2023-01-20T13:58:02Z</time>
      </trkpt>
      <trkpt lat="49.91694" lon="2.25932">
        <ele>18.8</ele>
        <time>2023-01-20T13:58:03Z</time>
      </trkpt>
      <trkpt lat="49.91694" lon="2.25931">
        <ele>18.8</ele>
        <time>2023-01-20T13:58:04Z</time>
      </trkpt>
      <trkpt lat="49.91693" lon="2.2593">
        <ele>18.8</ele>
        <time>2023-01-20T13:58:05Z</time>
      </trkpt>
      <trkpt lat="49.91693" lon="2.2593">
        <ele>18.8</ele>
        <time>2023-01-20T13:58:06Z</time>
      </trkpt>
      <trkpt lat="49.91692" lon="2.25929">
        <ele>18.8</ele>
        <time>2023-01-20T13:58:07Z</time>
      </trkpt>
      <trkpt lat="49.91691" lon="2.25928">
        <ele>18.8</ele>
        <time>2023-01-20T13:58:09Z</time>
      </trkpt>
      <trkpt lat="49.91691" lon="2.25927">
        <ele>18.8</ele>
        <time>2023-01-20T13:58:10Z</time>
      </trkpt>
      <trkpt lat="49.91691" lon="2.25926">
        <ele>18.8</ele>
        <time>2023-01-20T13:58:11Z</time>
      </trkpt>
      <trkpt lat="49.91691" lon="2.25925">
        <ele>18.8</ele>
        <time>2023-01-20T13:58:12Z</time>
      </trkpt>
      <trkpt lat="49.91691" lon="2.25924">
        <ele>18.8</ele>
        <time>2023-01-20T13:58:13Z</time>
      </trkpt>
      <trkpt lat="49.9169" lon="2.25923">
        <ele>18.8</ele>
        <time>2023-01-20T13:58:14Z</time>
      </trkpt>
      <trkpt lat="49.9169" lon="2.25922">
        <ele>18.8</ele>
        <time>2023-01-20T13:58:15Z</time>
      </trkpt>
      <trkpt lat="49.9169" lon="2.25922">
        <ele>18.8</ele>
        <time>2023-01-20T13:58:16Z</time>
      </trkpt>
      <trkpt lat="49.91689" lon="2.25921">
        <ele>18.9</ele>
        <time>2023-01-20T13:58:18Z</time>
      </trkpt>
      <trkpt lat="49.91689" lon="2.2592">
        <ele>18.9</ele>
        <time>2023-01-20T13:58:19Z</time>
      </trkpt>
      <trkpt lat="49.91688" lon="2.2592">
        <ele>18.9</ele>
        <time>2023-01-20T13:58:20Z</time>
      </trkpt>
      <trkpt lat="49.91687" lon="2.25919">
        <ele>18.9</ele>
        <time>2023-01-20T13:58:21Z</time>
      </trkpt>
      <trkpt lat="49.91686" lon="2.25919">
        <ele>18.9</ele>
        <time>2023-01-20T13:58:22Z</time>
      </trkpt>
      <trkpt lat="49.91685" lon="2.2592">
        <ele>18.9</ele>
        <time>2023-01-20T13:58:23Z</time>
      </trkpt>
      <trkpt lat="49.91682" lon="2.25923">
        <ele>18.9</ele>
        <time>2023-01-20T13:58:24Z</time>
      </trkpt>
      <trkpt lat="49.91681" lon="2.25924">
        <ele>18.9</ele>
        <time>2023-01-20T13:58:26Z</time>
      </trkpt>
      <trkpt lat="49.9168" lon="2.25926">
        <ele>18.9</ele>
        <time>2023-01-20T13:58:27Z</time>
      </trkpt>
      <trkpt lat="49.91679" lon="2.25927">
        <ele>18.9</ele>
        <time>2023-01-20T13:58:28Z</time>
      </trkpt>
      <trkpt lat="49.91678" lon="2.25929">
        <ele>18.9</ele>
        <time>2023-01-20T13:58:29Z</time>
      </trkpt>
      <trkpt lat="49.91677" lon="2.25931">
        <ele>19</ele>
        <time>2023-01-20T13:58:30Z</time>
      </trkpt>
      <trkpt lat="49.91675" lon="2.25934">
        <ele>19</ele>
        <time>2023-01-20T13:58:31Z</time>
      </trkpt>
      <trkpt lat="49.91674" lon="2.25936">
        <ele>19</ele>
        <time>2023-01-20T13:58:32Z</time>
      </trkpt>
      <trkpt lat="49.91672" lon="2.2594">
        <ele>19.1</ele>
        <time>2023-01-20T13:58:34Z</time>
      </trkpt>
      <trkpt lat="49.91671" lon="2.25942">
        <ele>19.1</ele>
        <time>2023-01-20T13:58:35Z</time>
      </trkpt>
      <trkpt lat="49.9167" lon="2.25946">
        <ele>19.1</ele>
        <time>2023-01-20T13:58:36Z</time>
      </trkpt>
      <trkpt lat="49.91669" lon="2.25947">
        <ele>19.1</ele>
        <time>2023-01-20T13:58:37Z</time>
      </trkpt>
      <trkpt lat="49.91668" lon="2.25949">
        <ele>19.2</ele>
        <time>2023-01-20T13:58:38Z</time>
      </trkpt>
      <trkpt lat="49.91668" lon="2.25951">
        <ele>19.2</ele>
        <time>2023-01-20T13:58:39Z</time>
      </trkpt>
      <trkpt lat="49.91667" lon="2.25953">
        <ele>19.2</ele>
        <time>2023-01-20T13:58:40Z</time>
      </trkpt>
      <trkpt lat="49.91666" lon="2.25955">
        <ele>19.2</ele>
        <time>2023-01-20T13:58:42Z</time>
      </trkpt>
      <trkpt lat="49.91665" lon="2.25956">
        <ele>19.2</ele>
        <time>2023-01-20T13:58:43Z</time>
      </trkpt>
      <trkpt lat="49.91664" lon="2.25959">
        <ele>19.3</ele>
        <time>2023-01-20T13:58:44Z</time>
      </trkpt>
      <trkpt lat="49.91663" lon="2.2596">
        <ele>19.3</ele>
        <time>2023-01-20T13:58:45Z</time>
      </trkpt>
      <trkpt lat="49.91662" lon="2.25963">
        <ele>19.3</ele>
        <time>2023-01-20T13:58:47Z</time>
      </trkpt>
      <trkpt lat="49.91661" lon="2.25965">
        <ele>19.3</ele>
        <time>2023-01-20T13:58:48Z</time>
      </trkpt>
      <trkpt lat="49.91661" lon="2.25967">
        <ele>19.3</ele>
        <time>2023-01-20T13:58:49Z</time>
      </trkpt>
      <trkpt lat="49.9166" lon="2.2597">
        <ele>19.3</ele>
        <time>2023-01-20T13:58:50Z</time>
      </trkpt>
      <trkpt lat="49.91659" lon="2.25971">
        <ele>19.3</ele>
        <time>2023-01-20T13:58:51Z</time>
      </trkpt>
      <trkpt lat="49.91659" lon="2.25973">
        <ele>19.3</ele>
        <time>2023-01-20T13:58:52Z</time>
      </trkpt>
      <trkpt lat="49.91658" lon="2.25975">
        <ele>19.4</ele>
        <time>2023-01-20T13:58:53Z</time>
      </trkpt>
      <trkpt lat="49.91657" lon="2.25976">
        <ele>19.4</ele>
        <time>2023-01-20T13:58:55Z</time>
      </trkpt>
      <trkpt lat="49.91657" lon="2.25978">
        <ele>19.4</ele>
        <time>2023-01-20T13:58:56Z</time>
      </trkpt>
      <trkpt lat="49.91656" lon="2.25979">
        <ele>19.4</ele>
        <time>2023-01-20T13:58:57Z</time>
      </trkpt>
      <trkpt lat="49.91655" lon="2.2598">
        <ele>19.4</ele>
        <time>2023-01-20T13:58:58Z</time>
      </trkpt>
      <trkpt lat="49.91655" lon="2.25982">
        <ele>19.4</ele>
        <time>2023-01-20T13:58:59Z</time>
      </trkpt>
      <trkpt lat="49.91654" lon="2.25985">
        <ele>19.4</ele>
        <time>2023-01-20T13:59:00Z</time>
      </trkpt>
      <trkpt lat="49.91653" lon="2.25987">
        <ele>19.4</ele>
        <time>2023-01-20T13:59:01Z</time>
      </trkpt>
      <trkpt lat="49.91653" lon="2.25988">
        <ele>19.4</ele>
        <time>2023-01-20T13:59:02Z</time>
      </trkpt>
      <trkpt lat="49.91652" lon="2.2599">
        <ele>19.4</ele>
        <time>2023-01-20T13:59:04Z</time>
      </trkpt>
      <trkpt lat="49.91651" lon="2.25992">
        <ele>19.4</ele>
        <time>2023-01-20T13:59:05Z</time>
      </trkpt>
      <trkpt lat="49.9165" lon="2.25993">
        <ele>19.4</ele>
        <time>2023-01-20T13:59:06Z</time>
      </trkpt>
      <trkpt lat="49.91649" lon="2.25995">
        <ele>19.4</ele>
        <time>2023-01-20T13:59:07Z</time>
      </trkpt>
      <trkpt lat="49.91648" lon="2.25997">
        <ele>19.4</ele>
        <time>2023-01-20T13:59:08Z</time>
      </trkpt>
      <trkpt lat="49.91647" lon="2.25999">
        <ele>19.4</ele>
        <time>2023-01-20T13:59:09Z</time>
      </trkpt>
      <trkpt lat="49.91646" lon="2.26">
        <ele>19.4</ele>
        <time>2023-01-20T13:59:10Z</time>
      </trkpt>
      <trkpt lat="49.91645" lon="2.26002">
        <ele>19.4</ele>
        <time>2023-01-20T13:59:11Z</time>
      </trkpt>
      <trkpt lat="49.91644" lon="2.26003">
        <ele>19.4</ele>
        <time>2023-01-20T13:59:12Z</time>
      </trkpt>
      <trkpt lat="49.91643" lon="2.26005">
        <ele>19.4</ele>
        <time>2023-01-20T13:59:14Z</time>
      </trkpt>
      <trkpt lat="49.91642" lon="2.26006">
        <ele>19.4</ele>
        <time>2023-01-20T13:59:15Z</time>
      </trkpt>
      <trkpt lat="49.91641" lon="2.26007">
        <ele>19.3</ele>
        <time>2023-01-20T13:59:16Z</time>
      </trkpt>
      <trkpt lat="49.91639" lon="2.26009">
        <ele>19.3</ele>
        <time>2023-01-20T13:59:17Z</time>
      </trkpt>
      <trkpt lat="49.91638" lon="2.2601">
        <ele>19.3</ele>
        <time>2023-01-20T13:59:18Z</time>
      </trkpt>
      <trkpt lat="49.91637" lon="2.26011">
        <ele>19.3</ele>
        <time>2023-01-20T13:59:19Z</time>
      </trkpt>
      <trkpt lat="49.91636" lon="2.26013">
        <ele>19.3</ele>
        <time>2023-01-20T13:59:21Z</time>
      </trkpt>
      <trkpt lat="49.91634" lon="2.26014">
        <ele>19.2</ele>
        <time>2023-01-20T13:59:22Z</time>
      </trkpt>
      <trkpt lat="49.91633" lon="2.26015">
        <ele>19.2</ele>
        <time>2023-01-20T13:59:23Z</time>
      </trkpt>
      <trkpt lat="49.91631" lon="2.26017">
        <ele>19.2</ele>
        <time>2023-01-20T13:59:24Z</time>
      </trkpt>
      <trkpt lat="49.9163" lon="2.26018">
        <ele>19.2</ele>
        <time>2023-01-20T13:59:25Z</time>
      </trkpt>
      <trkpt lat="49.91628" lon="2.26019">
        <ele>19.2</ele>
        <time>2023-01-20T13:59:27Z</time>
      </trkpt>
      <trkpt lat="49.91627" lon="2.26019">
        <ele>19.2</ele>
        <time>2023-01-20T13:59:28Z</time>
      </trkpt>
      <trkpt lat="49.91625" lon="2.2602">
        <ele>19.1</ele>
        <time>2023-01-20T13:59:29Z</time>
      </trkpt>
      <trkpt lat="49.91624" lon="2.26021">
        <ele>19.1</ele>
        <time>2023-01-20T13:59:30Z</time>
      </trkpt>
      <trkpt lat="49.91623" lon="2.26022">
        <ele>19.1</ele>
        <time>2023-01-20T13:59:31Z</time>
      </trkpt>
      <trkpt lat="49.91622" lon="2.26023">
        <ele>19.1</ele>
        <time>2023-01-20T13:59:32Z</time>
      </trkpt>
      <trkpt lat="49.9162" lon="2.26024">
        <ele>19.1</ele>
        <time>2023-01-20T13:59:33Z</time>
      </trkpt>
      <trkpt lat="49.91618" lon="2.26025">
        <ele>19.1</ele>
        <time>2023-01-20T13:59:34Z</time>
      </trkpt>
      <trkpt lat="49.91617" lon="2.26026">
        <ele>19.1</ele>
        <time>2023-01-20T13:59:35Z</time>
      </trkpt>
      <trkpt lat="49.91615" lon="2.26027">
        <ele>19.1</ele>
        <time>2023-01-20T13:59:36Z</time>
      </trkpt>
      <trkpt lat="49.91614" lon="2.26028">
        <ele>19.1</ele>
        <time>2023-01-20T13:59:38Z</time>
      </trkpt>
      <trkpt lat="49.91614" lon="2.26028">
        <ele>19.1</ele>
        <time>2023-01-20T13:59:39Z</time>
      </trkpt>
      <trkpt lat="49.91613" lon="2.26029">
        <ele>19.1</ele>
        <time>2023-01-20T13:59:40Z</time>
      </trkpt>
      <trkpt lat="49.91612" lon="2.2603">
        <ele>19.1</ele>
        <time>2023-01-20T13:59:41Z</time>
      </trkpt>
      <trkpt lat="49.9161" lon="2.26031">
        <ele>19.1</ele>
        <time>2023-01-20T13:59:42Z</time>
      </trkpt>
      <trkpt lat="49.91608" lon="2.26032">
        <ele>19.1</ele>
        <time>2023-01-20T13:59:43Z</time>
      </trkpt>
      <trkpt lat="49.91607" lon="2.26032">
        <ele>19.1</ele>
        <time>2023-01-20T13:59:44Z</time>
      </trkpt>
      <trkpt lat="49.91607" lon="2.26033">
        <ele>19.1</ele>
        <time>2023-01-20T13:59:45Z</time>
      </trkpt>
      <trkpt lat="49.91605" lon="2.26033">
        <ele>19.1</ele>
        <time>2023-01-20T13:59:46Z</time>
      </trkpt>
      <trkpt lat="49.91604" lon="2.26034">
        <ele>19.1</ele>
        <time>2023-01-20T13:59:48Z</time>
      </trkpt>
      <trkpt lat="49.91603" lon="2.26034">
        <ele>19.1</ele>
        <time>2023-01-20T13:59:49Z</time>
      </trkpt>
      <trkpt lat="49.91601" lon="2.26036">
        <ele>19.1</ele>
        <time>2023-01-20T13:59:50Z</time>
      </trkpt>
      <trkpt lat="49.91601" lon="2.26036">
        <ele>19.1</ele>
        <time>2023-01-20T13:59:51Z</time>
      </trkpt>
      <trkpt lat="49.916" lon="2.26037">
        <ele>19.1</ele>
        <time>2023-01-20T13:59:52Z</time>
      </trkpt>
      <trkpt lat="49.91598" lon="2.26038">
        <ele>19.1</ele>
        <time>2023-01-20T13:59:53Z</time>
      </trkpt>
      <trkpt lat="49.91598" lon="2.26039">
        <ele>19.1</ele>
        <time>2023-01-20T13:59:55Z</time>
      </trkpt>
      <trkpt lat="49.91597" lon="2.2604">
        <ele>19.1</ele>
        <time>2023-01-20T13:59:56Z</time>
      </trkpt>
      <trkpt lat="49.91595" lon="2.26042">
        <ele>19.1</ele>
        <time>2023-01-20T13:59:57Z</time>
      </trkpt>
      <trkpt lat="49.91595" lon="2.26043">
        <ele>19.1</ele>
        <time>2023-01-20T13:59:58Z</time>
      </trkpt>
      <trkpt lat="49.91594" lon="2.26044">
        <ele>19.1</ele>
        <time>2023-01-20T13:59:59Z</time>
      </trkpt>
      <trkpt lat="49.91593" lon="2.26045">
        <ele>19.1</ele>
        <time>2023-01-20T14:00:00Z</time>
      </trkpt>
      <trkpt lat="49.91592" lon="2.26046">
        <ele>19.1</ele>
        <time>2023-01-20T14:00:01Z</time>
      </trkpt>
      <trkpt lat="49.91592" lon="2.26047">
        <ele>19.1</ele>
        <time>2023-01-20T14:00:02Z</time>
      </trkpt>
      <trkpt lat="49.9159" lon="2.26049">
        <ele>19.1</ele>
        <time>2023-01-20T14:00:04Z</time>
      </trkpt>
      <trkpt lat="49.9159" lon="2.26051">
        <ele>19.1</ele>
        <time>2023-01-20T14:00:05Z</time>
      </trkpt>
      <trkpt lat="49.91589" lon="2.26052">
        <ele>19.1</ele>
        <time>2023-01-20T14:00:06Z</time>
      </trkpt>
      <trkpt lat="49.91589" lon="2.26053">
        <ele>19.1</ele>
        <time>2023-01-20T14:00:07Z</time>
      </trkpt>
      <trkpt lat="49.91588" lon="2.26055">
        <ele>19.1</ele>
        <time>2023-01-20T14:00:09Z</time>
      </trkpt>
      <trkpt lat="49.91588" lon="2.26056">
        <ele>19.1</ele>
        <time>2023-01-20T14:00:10Z</time>
      </trkpt>
      <trkpt lat="49.91587" lon="2.26058">
        <ele>19.1</ele>
        <time>2023-01-20T14:00:11Z</time>
      </trkpt>
      <trkpt lat="49.91586" lon="2.26059">
        <ele>19.1</ele>
        <time>2023-01-20T14:00:12Z</time>
      </trkpt>
      <trkpt lat="49.91586" lon="2.2606">
        <ele>19.1</ele>
        <time>2023-01-20T14:00:13Z</time>
      </trkpt>
      <trkpt lat="49.91586" lon="2.26061">
        <ele>19.1</ele>
        <time>2023-01-20T14:00:14Z</time>
      </trkpt>
      <trkpt lat="49.91585" lon="2.26063">
        <ele>19.1</ele>
        <time>2023-01-20T14:00:15Z</time>
      </trkpt>
      <trkpt lat="49.91585" lon="2.26065">
        <ele>19.1</ele>
        <time>2023-01-20T14:00:16Z</time>
      </trkpt>
      <trkpt lat="49.91585" lon="2.26066">
        <ele>19.1</ele>
        <time>2023-01-20T14:00:17Z</time>
      </trkpt>
      <trkpt lat="49.91584" lon="2.26067">
        <ele>19.1</ele>
        <time>2023-01-20T14:00:19Z</time>
      </trkpt>
      <trkpt lat="49.91583" lon="2.26069">
        <ele>19.1</ele>
        <time>2023-01-20T14:00:20Z</time>
      </trkpt>
      <trkpt lat="49.91583" lon="2.26071">
        <ele>19.1</ele>
        <time>2023-01-20T14:00:21Z</time>
      </trkpt>
      <trkpt lat="49.91583" lon="2.26072">
        <ele>19.1</ele>
        <time>2023-01-20T14:00:22Z</time>
      </trkpt>
      <trkpt lat="49.91582" lon="2.26074">
        <ele>19.1</ele>
        <time>2023-01-20T14:00:23Z</time>
      </trkpt>
      <trkpt lat="49.91582" lon="2.26075">
        <ele>19.1</ele>
        <time>2023-01-20T14:00:24Z</time>
      </trkpt>
      <trkpt lat="49.91582" lon="2.26078">
        <ele>19.1</ele>
        <time>2023-01-20T14:00:25Z</time>
      </trkpt>
      <trkpt lat="49.91582" lon="2.2608">
        <ele>19.1</ele>
        <time>2023-01-20T14:00:26Z</time>
      </trkpt>
      <trkpt lat="49.91581" lon="2.26083">
        <ele>19.1</ele>
        <time>2023-01-20T14:00:28Z</time>
      </trkpt>
      <trkpt lat="49.91581" lon="2.26084">
        <ele>19.1</ele>
        <time>2023-01-20T14:00:29Z</time>
      </trkpt>
      <trkpt lat="49.91581" lon="2.26085">
        <ele>19.1</ele>
        <time>2023-01-20T14:00:30Z</time>
      </trkpt>
      <trkpt lat="49.91581" lon="2.26087">
        <ele>19.1</ele>
        <time>2023-01-20T14:00:31Z</time>
      </trkpt>
      <trkpt lat="49.91581" lon="2.26089">
        <ele>19.1</ele>
        <time>2023-01-20T14:00:32Z</time>
      </trkpt>
      <trkpt lat="49.91581" lon="2.26091">
        <ele>19.1</ele>
        <time>2023-01-20T14:00:33Z</time>
      </trkpt>
      <trkpt lat="49.91581" lon="2.26093">
        <ele>19.1</ele>
        <time>2023-01-20T14:00:34Z</time>
      </trkpt>
      <trkpt lat="49.91581" lon="2.26096">
        <ele>19.1</ele>
        <time>2023-01-20T14:00:35Z</time>
      </trkpt>
      <trkpt lat="49.91581" lon="2.26097">
        <ele>19.1</ele>
        <time>2023-01-20T14:00:37Z</time>
      </trkpt>
      <trkpt lat="49.91581" lon="2.26099">
        <ele>19.1</ele>
        <time>2023-01-20T14:00:38Z</time>
      </trkpt>
      <trkpt lat="49.9158" lon="2.261">
        <ele>19.1</ele>
        <time>2023-01-20T14:00:39Z</time>
      </trkpt>
      <trkpt lat="49.9158" lon="2.26101">
        <ele>19.1</ele>
        <time>2023-01-20T14:00:40Z</time>
      </trkpt>
      <trkpt lat="49.9158" lon="2.26103">
        <ele>19.1</ele>
        <time>2023-01-20T14:00:41Z</time>
      </trkpt>
      <trkpt lat="49.91579" lon="2.26105">
        <ele>19.1</ele>
        <time>2023-01-20T14:00:42Z</time>
      </trkpt>
      <trkpt lat="49.9158" lon="2.26107">
        <ele>19.1</ele>
        <time>2023-01-20T14:00:43Z</time>
      </trkpt>
      <trkpt lat="49.9158" lon="2.26109">
        <ele>19.1</ele>
        <time>2023-01-20T14:00:44Z</time>
      </trkpt>
      <trkpt lat="49.9158" lon="2.2611">
        <ele>19.1</ele>
        <time>2023-01-20T14:00:46Z</time>
      </trkpt>
      <trkpt lat="49.91581" lon="2.26111">
        <ele>19.1</ele>
        <time>2023-01-20T14:00:47Z</time>
      </trkpt>
      <trkpt lat="49.91581" lon="2.26112">
        <ele>19.1</ele>
        <time>2023-01-20T14:00:48Z</time>
      </trkpt>
      <trkpt lat="49.91581" lon="2.26114">
        <ele>19.1</ele>
        <time>2023-01-20T14:00:49Z</time>
      </trkpt>
      <trkpt lat="49.91582" lon="2.26115">
        <ele>19.1</ele>
        <time>2023-01-20T14:00:50Z</time>
      </trkpt>
      <trkpt lat="49.91583" lon="2.26118">
        <ele>19.1</ele>
        <time>2023-01-20T14:00:51Z</time>
      </trkpt>
      <trkpt lat="49.91583" lon="2.26119">
        <ele>19.1</ele>
        <time>2023-01-20T14:00:52Z</time>
      </trkpt>
      <trkpt lat="49.91583" lon="2.2612">
        <ele>19.1</ele>
        <time>2023-01-20T14:00:53Z</time>
      </trkpt>
      <trkpt lat="49.91584" lon="2.26122">
        <ele>19.1</ele>
        <time>2023-01-20T14:00:55Z</time>
      </trkpt>
      <trkpt lat="49.91584" lon="2.26124">
        <ele>19</ele>
        <time>2023-01-20T14:00:56Z</time>
      </trkpt>
      <trkpt lat="49.91584" lon="2.26125">
        <ele>19</ele>
        <time>2023-01-20T14:00:57Z</time>
      </trkpt>
      <trkpt lat="49.91585" lon="2.26126">
        <ele>19</ele>
        <time>2023-01-20T14:00:58Z</time>
      </trkpt>
      <trkpt lat="49.91585" lon="2.26127">
        <ele>19</ele>
        <time>2023-01-20T14:00:59Z</time>
      </trkpt>
      <trkpt lat="49.91585" lon="2.26129">
        <ele>19</ele>
        <time>2023-01-20T14:01:00Z</time>
      </trkpt>
      <trkpt lat="49.91586" lon="2.26132">
        <ele>19</ele>
        <time>2023-01-20T14:01:01Z</time>
      </trkpt>
      <trkpt lat="49.91586" lon="2.26133">
        <ele>19</ele>
        <time>2023-01-20T14:01:02Z</time>
      </trkpt>
      <trkpt lat="49.91586" lon="2.26135">
        <ele>19</ele>
        <time>2023-01-20T14:01:03Z</time>
      </trkpt>
      <trkpt lat="49.91586" lon="2.26137">
        <ele>19</ele>
        <time>2023-01-20T14:01:05Z</time>
      </trkpt>
      <trkpt lat="49.91587" lon="2.2614">
        <ele>19</ele>
        <time>2023-01-20T14:01:06Z</time>
      </trkpt>
      <trkpt lat="49.91587" lon="2.26141">
        <ele>18.9</ele>
        <time>2023-01-20T14:01:07Z</time>
      </trkpt>
      <trkpt lat="49.91587" lon="2.26143">
        <ele>18.9</ele>
        <time>2023-01-20T14:01:08Z</time>
      </trkpt>
      <trkpt lat="49.91587" lon="2.26146">
        <ele>18.9</ele>
        <time>2023-01-20T14:01:10Z</time>
      </trkpt>
      <trkpt lat="49.91587" lon="2.26149">
        <ele>18.9</ele>
        <time>2023-01-20T14:01:11Z</time>
      </trkpt>
      <trkpt lat="49.91587" lon="2.2615">
        <ele>18.9</ele>
        <time>2023-01-20T14:01:12Z</time>
      </trkpt>
      <trkpt lat="49.91587" lon="2.26153">
        <ele>18.9</ele>
        <time>2023-01-20T14:01:13Z</time>
      </trkpt>
      <trkpt lat="49.91587" lon="2.26155">
        <ele>18.9</ele>
        <time>2023-01-20T14:01:14Z</time>
      </trkpt>
      <trkpt lat="49.91587" lon="2.26156">
        <ele>18.9</ele>
        <time>2023-01-20T14:01:15Z</time>
      </trkpt>
      <trkpt lat="49.91587" lon="2.26159">
        <ele>18.8</ele>
        <time>2023-01-20T14:01:16Z</time>
      </trkpt>
      <trkpt lat="49.91586" lon="2.26161">
        <ele>18.8</ele>
        <time>2023-01-20T14:01:18Z</time>
      </trkpt>
      <trkpt lat="49.91586" lon="2.26162">
        <ele>18.8</ele>
        <time>2023-01-20T14:01:19Z</time>
      </trkpt>
      <trkpt lat="49.91586" lon="2.26164">
        <ele>18.8</ele>
        <time>2023-01-20T14:01:20Z</time>
      </trkpt>
      <trkpt lat="49.91586" lon="2.26167">
        <ele>18.8</ele>
        <time>2023-01-20T14:01:21Z</time>
      </trkpt>
      <trkpt lat="49.91586" lon="2.26168">
        <ele>18.8</ele>
        <time>2023-01-20T14:01:22Z</time>
      </trkpt>
      <trkpt lat="49.91586" lon="2.2617">
        <ele>18.8</ele>
        <time>2023-01-20T14:01:23Z</time>
      </trkpt>
      <trkpt lat="49.91586" lon="2.26172">
        <ele>18.8</ele>
        <time>2023-01-20T14:01:24Z</time>
      </trkpt>
      <trkpt lat="49.91586" lon="2.26174">
        <ele>18.7</ele>
        <time>2023-01-20T14:01:25Z</time>
      </trkpt>
      <trkpt lat="49.91586" lon="2.26177">
        <ele>18.7</ele>
        <time>2023-01-20T14:01:27Z</time>
      </trkpt>
      <trkpt lat="49.91586" lon="2.26179">
        <ele>18.7</ele>
        <time>2023-01-20T14:01:28Z</time>
      </trkpt>
      <trkpt lat="49.91586" lon="2.26182">
        <ele>18.7</ele>
        <time>2023-01-20T14:01:29Z</time>
      </trkpt>
      <trkpt lat="49.91587" lon="2.26186">
        <ele>18.7</ele>
        <time>2023-01-20T14:01:30Z</time>
      </trkpt>
      <trkpt lat="49.91587" lon="2.26188">
        <ele>18.7</ele>
        <time>2023-01-20T14:01:31Z</time>
      </trkpt>
      <trkpt lat="49.91587" lon="2.2619">
        <ele>18.7</ele>
        <time>2023-01-20T14:01:32Z</time>
      </trkpt>
      <trkpt lat="49.91587" lon="2.26193">
        <ele>18.7</ele>
        <time>2023-01-20T14:01:33Z</time>
      </trkpt>
      <trkpt lat="49.91587" lon="2.26195">
        <ele>18.6</ele>
        <time>2023-01-20T14:01:34Z</time>
      </trkpt>
      <trkpt lat="49.91587" lon="2.26198">
        <ele>18.6</ele>
        <time>2023-01-20T14:01:35Z</time>
      </trkpt>
      <trkpt lat="49.91588" lon="2.26203">
        <ele>18.6</ele>
        <time>2023-01-20T14:01:37Z</time>
      </trkpt>
      <trkpt lat="49.91589" lon="2.26204">
        <ele>18.6</ele>
        <time>2023-01-20T14:01:38Z</time>
      </trkpt>
      <trkpt lat="49.9159" lon="2.26206">
        <ele>18.6</ele>
        <time>2023-01-20T14:01:39Z</time>
      </trkpt>
      <trkpt lat="49.9159" lon="2.26209">
        <ele>18.6</ele>
        <time>2023-01-20T14:01:40Z</time>
      </trkpt>
      <trkpt lat="49.91592" lon="2.26211">
        <ele>18.6</ele>
        <time>2023-01-20T14:01:41Z</time>
      </trkpt>
      <trkpt lat="49.91592" lon="2.26213">
        <ele>18.6</ele>
        <time>2023-01-20T14:01:42Z</time>
      </trkpt>
      <trkpt lat="49.91593" lon="2.26215">
        <ele>18.5</ele>
        <time>2023-01-20T14:01:43Z</time>
      </trkpt>
      <trkpt lat="49.91594" lon="2.26216">
        <ele>18.5</ele>
        <time>2023-01-20T14:01:44Z</time>
      </trkpt>
      <trkpt lat="49.91595" lon="2.26219">
        <ele>18.5</ele>
        <time>2023-01-20T14:01:45Z</time>
      </trkpt>
      <trkpt lat="49.91595" lon="2.26221">
        <ele>18.5</ele>
        <time>2023-01-20T14:01:46Z</time>
      </trkpt>
      <trkpt lat="49.91596" lon="2.26222">
        <ele>18.5</ele>
        <time>2023-01-20T14:01:48Z</time>
      </trkpt>
      <trkpt lat="49.91596" lon="2.26224">
        <ele>18.5</ele>
        <time>2023-01-20T14:01:49Z</time>
      </trkpt>
      <trkpt lat="49.91597" lon="2.26225">
        <ele>18.5</ele>
        <time>2023-01-20T14:01:50Z</time>
      </trkpt>
      <trkpt lat="49.91597" lon="2.26227">
        <ele>18.5</ele>
        <time>2023-01-20T14:01:51Z</time>
      </trkpt>
      <trkpt lat="49.91598" lon="2.26228">
        <ele>18.5</ele>
        <time>2023-01-20T14:01:52Z</time>
      </trkpt>
      <trkpt lat="49.91599" lon="2.26229">
        <ele>18.5</ele>
        <time>2023-01-20T14:01:53Z</time>
      </trkpt>
      <trkpt lat="49.91599" lon="2.2623">
        <ele>18.5</ele>
        <time>2023-01-20T14:01:54Z</time>
      </trkpt>
      <trkpt lat="49.916" lon="2.26232">
        <ele>18.5</ele>
        <time>2023-01-20T14:01:56Z</time>
      </trkpt>
      <trkpt lat="49.91601" lon="2.26234">
        <ele>18.5</ele>
        <time>2023-01-20T14:01:57Z</time>
      </trkpt>
      <trkpt lat="49.91602" lon="2.26235">
        <ele>18.5</ele>
        <time>2023-01-20T14:01:58Z</time>
      </trkpt>
      <trkpt lat="49.91602" lon="2.26237">
        <ele>18.5</ele>
        <time>2023-01-20T14:01:59Z</time>
      </trkpt>
      <trkpt lat="49.91604" lon="2.26239">
        <ele>18.5</ele>
        <time>2023-01-20T14:02:01Z</time>
      </trkpt>
      <trkpt lat="49.91606" lon="2.26241">
        <ele>18.5</ele>
        <time>2023-01-20T14:02:02Z</time>
      </trkpt>
      <trkpt lat="49.91607" lon="2.26242">
        <ele>18.5</ele>
        <time>2023-01-20T14:02:03Z</time>
      </trkpt>
      <trkpt lat="49.91608" lon="2.26244">
        <ele>18.5</ele>
        <time>2023-01-20T14:02:05Z</time>
      </trkpt>
      <trkpt lat="49.91609" lon="2.26245">
        <ele>18.5</ele>
        <time>2023-01-20T14:02:06Z</time>
      </trkpt>
      <trkpt lat="49.91609" lon="2.26246">
        <ele>18.5</ele>
        <time>2023-01-20T14:02:07Z</time>
      </trkpt>
      <trkpt lat="49.9161" lon="2.26248">
        <ele>18.5</ele>
        <time>2023-01-20T14:02:08Z</time>
      </trkpt>
      <trkpt lat="49.91611" lon="2.26249">
        <ele>18.5</ele>
        <time>2023-01-20T14:02:09Z</time>
      </trkpt>
      <trkpt lat="49.91611" lon="2.26251">
        <ele>18.5</ele>
        <time>2023-01-20T14:02:10Z</time>
      </trkpt>
      <trkpt lat="49.91612" lon="2.26252">
        <ele>18.5</ele>
        <time>2023-01-20T14:02:11Z</time>
      </trkpt>
      <trkpt lat="49.91612" lon="2.26254">
        <ele>18.5</ele>
        <time>2023-01-20T14:02:13Z</time>
      </trkpt>
      <trkpt lat="49.91612" lon="2.26254">
        <ele>18.5</ele>
        <time>2023-01-20T14:02:14Z</time>
      </trkpt>
      <trkpt lat="49.91611" lon="2.26255">
        <ele>18.5</ele>
        <time>2023-01-20T14:02:16Z</time>
      </trkpt>
      <trkpt lat="49.9161" lon="2.26254">
        <ele>18.5</ele>
        <time>2023-01-20T14:02:17Z</time>
      </trkpt>
      <trkpt lat="49.9161" lon="2.26254">
        <ele>18.5</ele>
        <time>2023-01-20T14:02:19Z</time>
      </trkpt>
      <trkpt lat="49.9161" lon="2.26254">
        <ele>18.5</ele>
        <time>2023-01-20T14:02:20Z</time>
      </trkpt>
      <trkpt lat="49.9161" lon="2.26253">
        <ele>18.5</ele>
        <time>2023-01-20T14:02:21Z</time>
      </trkpt>
      <trkpt lat="49.9161" lon="2.26253">
        <ele>18.5</ele>
        <time>2023-01-20T14:02:23Z</time>
      </trkpt>
      <trkpt lat="49.9161" lon="2.26253">
        <ele>18.5</ele>
        <time>2023-01-20T14:02:24Z</time>
      </trkpt>
      <trkpt lat="49.9161" lon="2.26253">
        <ele>18.5</ele>
        <time>2023-01-20T14:02:26Z</time>
      </trkpt>
      <trkpt lat="49.9161" lon="2.26254">
        <ele>18.5</ele>
        <time>2023-01-20T14:02:27Z</time>
      </trkpt>
      <trkpt lat="49.9161" lon="2.26253">
        <ele>18.5</ele>
        <time>2023-01-20T14:02:28Z</time>
      </trkpt>
      <trkpt lat="49.9161" lon="2.26253">
        <ele>18.5</ele>
        <time>2023-01-20T14:02:30Z</time>
      </trkpt>
      <trkpt lat="49.91609" lon="2.26254">
        <ele>18.5</ele>
        <time>2023-01-20T14:02:31Z</time>
      </trkpt>
      <trkpt lat="49.9161" lon="2.26253">
        <ele>18.5</ele>
        <time>2023-01-20T14:02:32Z</time>
      </trkpt>
      <trkpt lat="49.9161" lon="2.26253">
        <ele>18.5</ele>
        <time>2023-01-20T14:02:33Z</time>
      </trkpt>
      <trkpt lat="49.9161" lon="2.26253">
        <ele>18.5</ele>
        <time>2023-01-20T14:02:34Z</time>
      </trkpt>
      <trkpt lat="49.9161" lon="2.26252">
        <ele>18.5</ele>
        <time>2023-01-20T14:02:35Z</time>
      </trkpt>
      <trkpt lat="49.9161" lon="2.26252">
        <ele>18.5</ele>
        <time>2023-01-20T14:02:36Z</time>
      </trkpt>
      <trkpt lat="49.9161" lon="2.26252">
        <ele>18.5</ele>
        <time>2023-01-20T14:02:37Z</time>
      </trkpt>
      <trkpt lat="49.9161" lon="2.26252">
        <ele>18.5</ele>
        <time>2023-01-20T14:02:38Z</time>
      </trkpt>
      <trkpt lat="49.9161" lon="2.26252">
        <ele>18.5</ele>
        <time>2023-01-20T14:02:39Z</time>
      </trkpt>
      <trkpt lat="49.9161" lon="2.26252">
        <ele>18.5</ele>
        <time>2023-01-20T14:02:40Z</time>
      </trkpt>
      <trkpt lat="49.9161" lon="2.26252">
        <ele>18.5</ele>
        <time>2023-01-20T14:02:41Z</time>
      </trkpt>
      <trkpt lat="49.9161" lon="2.26252">
        <ele>18.5</ele>
        <time>2023-01-20T14:02:42Z</time>
      </trkpt>
      <trkpt lat="49.9161" lon="2.26252">
        <ele>18.5</ele>
        <time>2023-01-20T14:02:43Z</time>
      </trkpt>
      <trkpt lat="49.9161" lon="2.26252">
        <ele>18.5</ele>
        <time>2023-01-20T14:02:44Z</time>
      </trkpt>
      <trkpt lat="49.9161" lon="2.26252">
        <ele>18.5</ele>
        <time>2023-01-20T14:02:45Z</time>
      </trkpt>
      <trkpt lat="49.9161" lon="2.26252">
        <ele>18.5</ele>
        <time>2023-01-20T14:02:46Z</time>
      </trkpt>
      <trkpt lat="49.9161" lon="2.26252">
        <ele>18.5</ele>
        <time>2023-01-20T14:02:47Z</time>
      </trkpt>
      <trkpt lat="49.9161" lon="2.26252">
        <ele>18.5</ele>
        <time>2023-01-20T14:02:48Z</time>
      </trkpt>
      <trkpt lat="49.9161" lon="2.26252">
        <ele>18.5</ele>
        <time>2023-01-20T14:02:49Z</time>
      </trkpt>
      <trkpt lat="49.9161" lon="2.26252">
        <ele>18.5</ele>
        <time>2023-01-20T14:02:50Z</time>
      </trkpt>
      <trkpt lat="49.9161" lon="2.26252">
        <ele>18.5</ele>
        <time>2023-01-20T14:02:51Z</time>
      </trkpt>
      <trkpt lat="49.9161" lon="2.26252">
        <ele>18.5</ele>
        <time>2023-01-20T14:02:52Z</time>
      </trkpt>
      <trkpt lat="49.9161" lon="2.26252">
        <ele>18.5</ele>
        <time>2023-01-20T14:02:53Z</time>
      </trkpt>
      <trkpt lat="49.9161" lon="2.26252">
        <ele>18.5</ele>
        <time>2023-01-20T14:02:54Z</time>
      </trkpt>
      <trkpt lat="49.9161" lon="2.26252">
        <ele>18.5</ele>
        <time>2023-01-20T14:02:55Z</time>
      </trkpt>
      <trkpt lat="49.9161" lon="2.26252">
        <ele>18.5</ele>
        <time>2023-01-20T14:02:56Z</time>
      </trkpt>
      <trkpt lat="49.9161" lon="2.26252">
        <ele>18.5</ele>
        <time>2023-01-20T14:02:57Z</time>
      </trkpt>
      <trkpt lat="49.9161" lon="2.26252">
        <ele>18.5</ele>
        <time>2023-01-20T14:02:58Z</time>
      </trkpt>
      <trkpt lat="49.9161" lon="2.26252">
        <ele>18.5</ele>
        <time>2023-01-20T14:02:59Z</time>
      </trkpt>
      <trkpt lat="49.9161" lon="2.26252">
        <ele>18.5</ele>
        <time>2023-01-20T14:03:00Z</time>
      </trkpt>
      <trkpt lat="49.9161" lon="2.26252">
        <ele>18.5</ele>
        <time>2023-01-20T14:03:01Z</time>
      </trkpt>
      <trkpt lat="49.9161" lon="2.26252">
        <ele>18.5</ele>
        <time>2023-01-20T14:03:02Z</time>
      </trkpt>
      <trkpt lat="49.9161" lon="2.26252">
        <ele>18.5</ele>
        <time>2023-01-20T14:03:03Z</time>
      </trkpt>
      <trkpt lat="49.9161" lon="2.26252">
        <ele>18.5</ele>
        <time>2023-01-20T14:03:04Z</time>
      </trkpt>
      <trkpt lat="49.9161" lon="2.26252">
        <ele>18.5</ele>
        <time>2023-01-20T14:03:05Z</time>
      </trkpt>
      <trkpt lat="49.9161" lon="2.26252">
        <ele>18.5</ele>
        <time>2023-01-20T14:03:06Z</time>
      </trkpt>
      <trkpt lat="49.9161" lon="2.26252">
        <ele>18.5</ele>
        <time>2023-01-20T14:03:07Z</time>
      </trkpt>
      <trkpt lat="49.9161" lon="2.26252">
        <ele>18.5</ele>
        <time>2023-01-20T14:03:08Z</time>
      </trkpt>
      <trkpt lat="49.9161" lon="2.26252">
        <ele>18.5</ele>
        <time>2023-01-20T14:03:09Z</time>
      </trkpt>
      <trkpt lat="49.9161" lon="2.26252">
        <ele>18.5</ele>
        <time>2023-01-20T14:03:10Z</time>
      </trkpt>
      <trkpt lat="49.9161" lon="2.26252">
        <ele>18.5</ele>
        <time>2023-01-20T14:03:11Z</time>
      </trkpt>
      <trkpt lat="49.9161" lon="2.26252">
        <ele>18.5</ele>
        <time>2023-01-20T14:03:12Z</time>
      </trkpt>
      <trkpt lat="49.9161" lon="2.26252">
        <ele>18.5</ele>
        <time>2023-01-20T14:03:13Z</time>
      </trkpt>
      <trkpt lat="49.9161" lon="2.26252">
        <ele>18.5</ele>
        <time>2023-01-20T14:03:14Z</time>
      </trkpt>
      <trkpt lat="49.9161" lon="2.26252">
        <ele>18.5</ele>
        <time>2023-01-20T14:03:15Z</time>
      </trkpt>
      <trkpt lat="49.9161" lon="2.26252">
        <ele>18.5</ele>
        <time>2023-01-20T14:03:16Z</time>
      </trkpt>
      <trkpt lat="49.9161" lon="2.26252">
        <ele>18.5</ele>
        <time>2023-01-20T14:03:17Z</time>
      </trkpt>
      <trkpt lat="49.9161" lon="2.26252">
        <ele>18.5</ele>
        <time>2023-01-20T14:03:18Z</time>
      </trkpt>
      <trkpt lat="49.9161" lon="2.26252">
        <ele>18.5</ele>
        <time>2023-01-20T14:03:19Z</time>
      </trkpt>
      <trkpt lat="49.9161" lon="2.26252">
        <ele>18.5</ele>
        <time>2023-01-20T14:03:20Z</time>
      </trkpt>
      <trkpt lat="49.9161" lon="2.26252">
        <ele>18.5</ele>
        <time>2023-01-20T14:03:21Z</time>
      </trkpt>
      <trkpt lat="49.9161" lon="2.26252">
        <ele>18.5</ele>
        <time>2023-01-20T14:03:22Z</time>
      </trkpt>
      <trkpt lat="49.9161" lon="2.26252">
        <ele>18.5</ele>
        <time>2023-01-20T14:03:23Z</time>
      </trkpt>
      <trkpt lat="49.9161" lon="2.26252">
        <ele>18.5</ele>
        <time>2023-01-20T14:03:24Z</time>
      </trkpt>
      <trkpt lat="49.9161" lon="2.26252">
        <ele>18.5</ele>
        <time>2023-01-20T14:03:25Z</time>
      </trkpt>
      <trkpt lat="49.9161" lon="2.26252">
        <ele>18.5</ele>
        <time>2023-01-20T14:03:26Z</time>
      </trkpt>
      <trkpt lat="49.9161" lon="2.26252">
        <ele>18.5</ele>
        <time>2023-01-20T14:03:27Z</time>
      </trkpt>
      <trkpt lat="49.9161" lon="2.26252">
        <ele>18.5</ele>
        <time>2023-01-20T14:03:28Z</time>
      </trkpt>
      <trkpt lat="49.9161" lon="2.26252">
        <ele>18.5</ele>
        <time>2023-01-20T14:03:29Z</time>
      </trkpt>
      <trkpt lat="49.9161" lon="2.26252">
        <ele>18.5</ele>
        <time>2023-01-20T14:03:30Z</time>
      </trkpt>
      <trkpt lat="49.9161" lon="2.26252">
        <ele>18.5</ele>
        <time>2023-01-20T14:03:31Z</time>
      </trkpt>
      <trkpt lat="49.9161" lon="2.26252">
        <ele>18.5</ele>
        <time>2023-01-20T14:03:32Z</time>
      </trkpt>
      <trkpt lat="49.9161" lon="2.26252">
        <ele>18.5</ele>
        <time>2023-01-20T14:03:33Z</time>
      </trkpt>
      <trkpt lat="49.9161" lon="2.26252">
        <ele>18.5</ele>
        <time>2023-01-20T14:03:34Z</time>
      </trkpt>
      <trkpt lat="49.9161" lon="2.26252">
        <ele>18.5</ele>
        <time>2023-01-20T14:03:35Z</time>
      </trkpt>
      <trkpt lat="49.9161" lon="2.26252">
        <ele>18.5</ele>
        <time>2023-01-20T14:03:36Z</time>
      </trkpt>
      <trkpt lat="49.9161" lon="2.26252">
        <ele>18.5</ele>
        <time>2023-01-20T14:03:37Z</time>
      </trkpt>
      <trkpt lat="49.9161" lon="2.26252">
        <ele>18.5</ele>
        <time>2023-01-20T14:03:38Z</time>
      </trkpt>
      <trkpt lat="49.9161" lon="2.26252">
        <ele>18.5</ele>
        <time>2023-01-20T14:03:39Z</time>
      </trkpt>
      <trkpt lat="49.9161" lon="2.26252">
        <ele>18.5</ele>
        <time>2023-01-20T14:03:40Z</time>
      </trkpt>
      <trkpt lat="49.9161" lon="2.26252">
        <ele>18.5</ele>
        <time>2023-01-20T14:03:41Z</time>
      </trkpt>
      <trkpt lat="49.9161" lon="2.26252">
        <ele>18.5</ele>
        <time>2023-01-20T14:03:42Z</time>
      </trkpt>
      <trkpt lat="49.9161" lon="2.26252">
        <ele>18.5</ele>
        <time>2023-01-20T14:03:43Z</time>
      </trkpt>
      <trkpt lat="49.9161" lon="2.26252">
        <ele>18.5</ele>
        <time>2023-01-20T14:03:44Z</time>
      </trkpt>
      <trkpt lat="49.9161" lon="2.26252">
        <ele>18.5</ele>
        <time>2023-01-20T14:03:45Z</time>
      </trkpt>
      <trkpt lat="49.9161" lon="2.26252">
        <ele>18.5</ele>
        <time>2023-01-20T14:03:46Z</time>
      </trkpt>
      <trkpt lat="49.9161" lon="2.26252">
        <ele>18.5</ele>
        <time>2023-01-20T14:03:47Z</time>
      </trkpt>
      <trkpt lat="49.9161" lon="2.26252">
        <ele>18.5</ele>
        <time>2023-01-20T14:03:48Z</time>
      </trkpt>
      <trkpt lat="49.9161" lon="2.26252">
        <ele>18.5</ele>
        <time>2023-01-20T14:03:49Z</time>
      </trkpt>
      <trkpt lat="49.9161" lon="2.26252">
        <ele>18.5</ele>
        <time>2023-01-20T14:03:50Z</time>
      </trkpt>
      <trkpt lat="49.9161" lon="2.26252">
        <ele>18.5</ele>
        <time>2023-01-20T14:03:51Z</time>
      </trkpt>
      <trkpt lat="49.9161" lon="2.26252">
        <ele>18.5</ele>
        <time>2023-01-20T14:03:52Z</time>
      </trkpt>
      <trkpt lat="49.9161" lon="2.26252">
        <ele>18.5</ele>
        <time>2023-01-20T14:03:53Z</time>
      </trkpt>
      <trkpt lat="49.9161" lon="2.26252">
        <ele>18.5</ele>
        <time>2023-01-20T14:03:54Z</time>
      </trkpt>
      <trkpt lat="49.9161" lon="2.26252">
        <ele>18.5</ele>
        <time>2023-01-20T14:03:55Z</time>
      </trkpt>
      <trkpt lat="49.9161" lon="2.26252">
        <ele>18.5</ele>
        <time>2023-01-20T14:03:56Z</time>
      </trkpt>
      <trkpt lat="49.9161" lon="2.26252">
        <ele>18.5</ele>
        <time>2023-01-20T14:03:57Z</time>
      </trkpt>
      <trkpt lat="49.9161" lon="2.26252">
        <ele>18.5</ele>
        <time>2023-01-20T14:03:58Z</time>
      </trkpt>
      <trkpt lat="49.9161" lon="2.26252">
        <ele>18.5</ele>
        <time>2023-01-20T14:03:59Z</time>
      </trkpt>
      <trkpt lat="49.9161" lon="2.26252">
        <ele>18.5</ele>
        <time>2023-01-20T14:04:00Z</time>
      </trkpt>
      <trkpt lat="49.9161" lon="2.26252">
        <ele>18.5</ele>
        <time>2023-01-20T14:04:01Z</time>
      </trkpt>
      <trkpt lat="49.9161" lon="2.26252">
        <ele>18.5</ele>
        <time>2023-01-20T14:04:02Z</time>
      </trkpt>
      <trkpt lat="49.9161" lon="2.26252">
        <ele>18.5</ele>
        <time>2023-01-20T14:04:03Z</time>
      </trkpt>
      <trkpt lat="49.9161" lon="2.26252">
        <ele>18.5</ele>
        <time>2023-01-20T14:04:04Z</time>
      </trkpt>
      <trkpt lat="49.9161" lon="2.26252">
        <ele>18.5</ele>
        <time>2023-01-20T14:04:05Z</time>
      </trkpt>
      <trkpt lat="49.9161" lon="2.26252">
        <ele>18.5</ele>
        <time>2023-01-20T14:04:06Z</time>
      </trkpt>
      <trkpt lat="49.9161" lon="2.26252">
        <ele>18.5</ele>
        <time>2023-01-20T14:04:07Z</time>
      </trkpt>
      <trkpt lat="49.9161" lon="2.26252">
        <ele>18.5</ele>
        <time>2023-01-20T14:04:08Z</time>
      </trkpt>
      <trkpt lat="49.9161" lon="2.26252">
        <ele>18.5</ele>
        <time>2023-01-20T14:04:09Z</time>
      </trkpt>
      <trkpt lat="49.9161" lon="2.26252">
        <ele>18.5</ele>
        <time>2023-01-20T14:04:10Z</time>
      </trkpt>
      <trkpt lat="49.9161" lon="2.26252">
        <ele>18.5</ele>
        <time>2023-01-20T14:04:11Z</time>
      </trkpt>
      <trkpt lat="49.9161" lon="2.26252">
        <ele>18.5</ele>
        <time>2023-01-20T14:04:12Z</time>
      </trkpt>
      <trkpt lat="49.9161" lon="2.26252">
        <ele>18.5</ele>
        <time>2023-01-20T14:04:13Z</time>
      </trkpt>
      <trkpt lat="49.9161" lon="2.26252">
        <ele>18.5</ele>
        <time>2023-01-20T14:04:14Z</time>
      </trkpt>
      <trkpt lat="49.9161" lon="2.26252">
        <ele>18.5</ele>
        <time>2023-01-20T14:04:15Z</time>
      </trkpt>
      <trkpt lat="49.9161" lon="2.26252">
        <ele>18.5</ele>
        <time>2023-01-20T14:04:16Z</time>
      </trkpt>
      <trkpt lat="49.9161" lon="2.26252">
        <ele>18.5</ele>
        <time>2023-01-20T14:04:17Z</time>
      </trkpt>
      <trkpt lat="49.9161" lon="2.26252">
        <ele>18.5</ele>
        <time>2023-01-20T14:04:18Z</time>
      </trkpt>
      <trkpt lat="49.9161" lon="2.26252">
        <ele>18.5</ele>
        <time>2023-01-20T14:04:19Z</time>
      </trkpt>
      <trkpt lat="49.9161" lon="2.26252">
        <ele>18.5</ele>
        <time>2023-01-20T14:04:20Z</time>
      </trkpt>
      <trkpt lat="49.9161" lon="2.26252">
        <ele>18.5</ele>
        <time>2023-01-20T14:04:21Z</time>
      </trkpt>
      <trkpt lat="49.9161" lon="2.26252">
        <ele>18.5</ele>
        <time>2023-01-20T14:04:22Z</time>
      </trkpt>
      <trkpt lat="49.9161" lon="2.26252">
        <ele>18.5</ele>
        <time>2023-01-20T14:04:23Z</time>
      </trkpt>
      <trkpt lat="49.9161" lon="2.26252">
        <ele>18.5</ele>
        <time>2023-01-20T14:04:24Z</time>
      </trkpt>
      <trkpt lat="49.9161" lon="2.26252">
        <ele>18.5</ele>
        <time>2023-01-20T14:04:25Z</time>
      </trkpt>
      <trkpt lat="49.9161" lon="2.26252">
        <ele>18.5</ele>
        <time>2023-01-20T14:04:26Z</time>
      </trkpt>
      <trkpt lat="49.9161" lon="2.26252">
        <ele>18.5</ele>
        <time>2023-01-20T14:04:27Z</time>
      </trkpt>
      <trkpt lat="49.9161" lon="2.26252">
        <ele>18.5</ele>
        <time>2023-01-20T14:04:28Z</time>
      </trkpt>
      <trkpt lat="49.9161" lon="2.26252">
        <ele>18.5</ele>
        <time>2023-01-20T14:04:29Z</time>
      </trkpt>
      <trkpt lat="49.9161" lon="2.26252">
        <ele>18.5</ele>
        <time>2023-01-20T14:04:30Z</time>
      </trkpt>
      <trkpt lat="49.9161" lon="2.26252">
        <ele>18.5</ele>
        <time>2023-01-20T14:04:31Z</time>
      </trkpt>
      <trkpt lat="49.9161" lon="2.26252">
        <ele>18.5</ele>
        <time>2023-01-20T14:04:32Z</time>
      </trkpt>
      <trkpt lat="49.9161" lon="2.26252">
        <ele>18.5</ele>
        <time>2023-01-20T14:04:33Z</time>
      </trkpt>
      <trkpt lat="49.9161" lon="2.26252">
        <ele>18.5</ele>
        <time>2023-01-20T14:04:34Z</time>
      </trkpt>
      <trkpt lat="49.9161" lon="2.26252">
        <ele>18.5</ele>
        <time>2023-01-20T14:04:36Z</time>
      </trkpt>
      <trkpt lat="49.9161" lon="2.26252">
        <ele>18.5</ele>
        <time>2023-01-20T14:04:37Z</time>
      </trkpt>
      <trkpt lat="49.9161" lon="2.26252">
        <ele>18.5</ele>
        <time>2023-01-20T14:04:38Z</time>
      </trkpt>
      <trkpt lat="49.9161" lon="2.26252">
        <ele>18.5</ele>
        <time>2023-01-20T14:04:39Z</time>
      </trkpt>
      <trkpt lat="49.9161" lon="2.26252">
        <ele>18.5</ele>
        <time>2023-01-20T14:04:41Z</time>
      </trkpt>
      <trkpt lat="49.9161" lon="2.26252">
        <ele>18.5</ele>
        <time>2023-01-20T14:04:42Z</time>
      </trkpt>
      <trkpt lat="49.9161" lon="2.26252">
        <ele>18.5</ele>
        <time>2023-01-20T14:04:43Z</time>
      </trkpt>
      <trkpt lat="49.9161" lon="2.26252">
        <ele>18.5</ele>
        <time>2023-01-20T14:04:45Z</time>
      </trkpt>
      <trkpt lat="49.9161" lon="2.26252">
        <ele>18.5</ele>
        <time>2023-01-20T14:04:46Z</time>
      </trkpt>
      <trkpt lat="49.9161" lon="2.26252">
        <ele>18.5</ele>
        <time>2023-01-20T14:04:47Z</time>
      </trkpt>
      <trkpt lat="49.9161" lon="2.26252">
        <ele>18.5</ele>
        <time>2023-01-20T14:04:48Z</time>
      </trkpt>
      <trkpt lat="49.9161" lon="2.26252">
        <ele>18.5</ele>
        <time>2023-01-20T14:04:49Z</time>
      </trkpt>
      <trkpt lat="49.9161" lon="2.26252">
        <ele>18.5</ele>
        <time>2023-01-20T14:04:50Z</time>
      </trkpt>
      <trkpt lat="49.9161" lon="2.26252">
        <ele>18.5</ele>
        <time>2023-01-20T14:04:51Z</time>
      </trkpt>
      <trkpt lat="49.9161" lon="2.26252">
        <ele>18.5</ele>
        <time>2023-01-20T14:04:52Z</time>
      </trkpt>
      <trkpt lat="49.9161" lon="2.26252">
        <ele>18.5</ele>
        <time>2023-01-20T14:04:53Z</time>
      </trkpt>
      <trkpt lat="49.9161" lon="2.26252">
        <ele>18.5</ele>
        <time>2023-01-20T14:04:54Z</time>
      </trkpt>
      <trkpt lat="49.9161" lon="2.26252">
        <ele>18.5</ele>
        <time>2023-01-20T14:04:55Z</time>
      </trkpt>
      <trkpt lat="49.9161" lon="2.26252">
        <ele>18.5</ele>
        <time>2023-01-20T14:04:56Z</time>
      </trkpt>
      <trkpt lat="49.9161" lon="2.26252">
        <ele>18.5</ele>
        <time>2023-01-20T14:04:57Z</time>
      </trkpt>
      <trkpt lat="49.9161" lon="2.26252">
        <ele>18.5</ele>
        <time>2023-01-20T14:04:58Z</time>
      </trkpt>
      <trkpt lat="49.9161" lon="2.26252">
        <ele>18.5</ele>
        <time>2023-01-20T14:04:59Z</time>
      </trkpt>
      <trkpt lat="49.9161" lon="2.26252">
        <ele>18.5</ele>
        <time>2023-01-20T14:05:00Z</time>
      </trkpt>
      <trkpt lat="49.9161" lon="2.26252">
        <ele>18.5</ele>
        <time>2023-01-20T14:05:01Z</time>
      </trkpt>
      <trkpt lat="49.9161" lon="2.26252">
        <ele>18.5</ele>
        <time>2023-01-20T14:05:02Z</time>
      </trkpt>
      <trkpt lat="49.9161" lon="2.26252">
        <ele>18.5</ele>
        <time>2023-01-20T14:05:03Z</time>
      </trkpt>
      <trkpt lat="49.9161" lon="2.26252">
        <ele>18.5</ele>
        <time>2023-01-20T14:05:04Z</time>
      </trkpt>
      <trkpt lat="49.9161" lon="2.26252">
        <ele>18.5</ele>
        <time>2023-01-20T14:05:05Z</time>
      </trkpt>
      <trkpt lat="49.9161" lon="2.26252">
        <ele>18.5</ele>
        <time>2023-01-20T14:05:06Z</time>
      </trkpt>
      <trkpt lat="49.9161" lon="2.26252">
        <ele>18.5</ele>
        <time>2023-01-20T14:05:07Z</time>
      </trkpt>
      <trkpt lat="49.9161" lon="2.26252">
        <ele>18.5</ele>
        <time>2023-01-20T14:05:08Z</time>
      </trkpt>
      <trkpt lat="49.9161" lon="2.26252">
        <ele>18.5</ele>
        <time>2023-01-20T14:05:09Z</time>
      </trkpt>
      <trkpt lat="49.9161" lon="2.26252">
        <ele>18.5</ele>
        <time>2023-01-20T14:05:10Z</time>
      </trkpt>
      <trkpt lat="49.9161" lon="2.26252">
        <ele>18.5</ele>
        <time>2023-01-20T14:05:11Z</time>
      </trkpt>
      <trkpt lat="49.9161" lon="2.26252">
        <ele>18.5</ele>
        <time>2023-01-20T14:05:12Z</time>
      </trkpt>
      <trkpt lat="49.9161" lon="2.26252">
        <ele>18.5</ele>
        <time>2023-01-20T14:05:13Z</time>
      </trkpt>
      <trkpt lat="49.91612" lon="2.26251">
        <ele>18.5</ele>
        <time>2023-01-20T14:05:14Z</time>
      </trkpt>
      <trkpt lat="49.91613" lon="2.2625">
        <ele>18.5</ele>
        <time>2023-01-20T14:05:15Z</time>
      </trkpt>
      <trkpt lat="49.91613" lon="2.2625">
        <ele>18.5</ele>
        <time>2023-01-20T14:05:16Z</time>
      </trkpt>
      <trkpt lat="49.91613" lon="2.2625">
        <ele>18.5</ele>
        <time>2023-01-20T14:05:17Z</time>
      </trkpt>
      <trkpt lat="49.91613" lon="2.2625">
        <ele>18.5</ele>
        <time>2023-01-20T14:05:18Z</time>
      </trkpt>
      <trkpt lat="49.91613" lon="2.2625">
        <ele>18.5</ele>
        <time>2023-01-20T14:05:19Z</time>
      </trkpt>
      <trkpt lat="49.91613" lon="2.2625">
        <ele>18.5</ele>
        <time>2023-01-20T14:05:20Z</time>
      </trkpt>
      <trkpt lat="49.91613" lon="2.2625">
        <ele>18.5</ele>
        <time>2023-01-20T14:05:21Z</time>
      </trkpt>
      <trkpt lat="49.91613" lon="2.2625">
        <ele>18.5</ele>
        <time>2023-01-20T14:05:22Z</time>
      </trkpt>
      <trkpt lat="49.91613" lon="2.26251">
        <ele>18.5</ele>
        <time>2023-01-20T14:05:23Z</time>
      </trkpt>
      <trkpt lat="49.91613" lon="2.2625">
        <ele>18.5</ele>
        <time>2023-01-20T14:05:24Z</time>
      </trkpt>
      <trkpt lat="49.91613" lon="2.2625">
        <ele>18.5</ele>
        <time>2023-01-20T14:05:26Z</time>
      </trkpt>
      <trkpt lat="49.91613" lon="2.2625">
        <ele>18.5</ele>
        <time>2023-01-20T14:05:27Z</time>
      </trkpt>
      <trkpt lat="49.91614" lon="2.2625">
        <ele>18.5</ele>
        <time>2023-01-20T14:05:28Z</time>
      </trkpt>
      <trkpt lat="49.91614" lon="2.26249">
        <ele>18.5</ele>
        <time>2023-01-20T14:05:29Z</time>
      </trkpt>
      <trkpt lat="49.91614" lon="2.26249">
        <ele>18.5</ele>
        <time>2023-01-20T14:05:30Z</time>
      </trkpt>
      <trkpt lat="49.91614" lon="2.26248">
        <ele>18.5</ele>
        <time>2023-01-20T14:05:32Z</time>
      </trkpt>
      <trkpt lat="49.91614" lon="2.26247">
        <ele>18.5</ele>
        <time>2023-01-20T14:05:33Z</time>
      </trkpt>
      <trkpt lat="49.91615" lon="2.26248">
        <ele>18.5</ele>
        <time>2023-01-20T14:05:34Z</time>
      </trkpt>
      <trkpt lat="49.91616" lon="2.26248">
        <ele>18.5</ele>
        <time>2023-01-20T14:05:35Z</time>
      </trkpt>
      <trkpt lat="49.91617" lon="2.26249">
        <ele>18.5</ele>
        <time>2023-01-20T14:05:36Z</time>
      </trkpt>
      <trkpt lat="49.91619" lon="2.2625">
        <ele>18.5</ele>
        <time>2023-01-20T14:05:37Z</time>
      </trkpt>
      <trkpt lat="49.91619" lon="2.26251">
        <ele>18.5</ele>
        <time>2023-01-20T14:05:39Z</time>
      </trkpt>
      <trkpt lat="49.9162" lon="2.26251">
        <ele>18.5</ele>
        <time>2023-01-20T14:05:40Z</time>
      </trkpt>
      <trkpt lat="49.91621" lon="2.26254">
        <ele>18.5</ele>
        <time>2023-01-20T14:05:41Z</time>
      </trkpt>
      <trkpt lat="49.91621" lon="2.26256">
        <ele>18.5</ele>
        <time>2023-01-20T14:05:42Z</time>
      </trkpt>
      <trkpt lat="49.91621" lon="2.26257">
        <ele>18.5</ele>
        <time>2023-01-20T14:05:43Z</time>
      </trkpt>
      <trkpt lat="49.91622" lon="2.26259">
        <ele>18.5</ele>
        <time>2023-01-20T14:05:44Z</time>
      </trkpt>
      <trkpt lat="49.91622" lon="2.26261">
        <ele>18.5</ele>
        <time>2023-01-20T14:05:45Z</time>
      </trkpt>
      <trkpt lat="49.91622" lon="2.26262">
        <ele>18.5</ele>
        <time>2023-01-20T14:05:47Z</time>
      </trkpt>
      <trkpt lat="49.91623" lon="2.26265">
        <ele>18.5</ele>
        <time>2023-01-20T14:05:48Z</time>
      </trkpt>
      <trkpt lat="49.91623" lon="2.26265">
        <ele>18.5</ele>
        <time>2023-01-20T14:05:49Z</time>
      </trkpt>
      <trkpt lat="49.91623" lon="2.26266">
        <ele>18.5</ele>
        <time>2023-01-20T14:05:50Z</time>
      </trkpt>
      <trkpt lat="49.91622" lon="2.2627">
        <ele>18.5</ele>
        <time>2023-01-20T14:05:51Z</time>
      </trkpt>
      <trkpt lat="49.91622" lon="2.26272">
        <ele>18.5</ele>
        <time>2023-01-20T14:05:52Z</time>
      </trkpt>
      <trkpt lat="49.91621" lon="2.26274">
        <ele>18.5</ele>
        <time>2023-01-20T14:05:53Z</time>
      </trkpt>
      <trkpt lat="49.9162" lon="2.26278">
        <ele>18.5</ele>
        <time>2023-01-20T14:05:55Z</time>
      </trkpt>
      <trkpt lat="49.9162" lon="2.2628">
        <ele>18.5</ele>
        <time>2023-01-20T14:05:56Z</time>
      </trkpt>
      <trkpt lat="49.91619" lon="2.26282">
        <ele>18.5</ele>
        <time>2023-01-20T14:05:57Z</time>
      </trkpt>
      <trkpt lat="49.91619" lon="2.26284">
        <ele>18.5</ele>
        <time>2023-01-20T14:05:58Z</time>
      </trkpt>
      <trkpt lat="49.91619" lon="2.26286">
        <ele>18.5</ele>
        <time>2023-01-20T14:05:59Z</time>
      </trkpt>
      <trkpt lat="49.91619" lon="2.26288">
        <ele>18.5</ele>
        <time>2023-01-20T14:06:00Z</time>
      </trkpt>
      <trkpt lat="49.91619" lon="2.2629">
        <ele>18.5</ele>
        <time>2023-01-20T14:06:01Z</time>
      </trkpt>
      <trkpt lat="49.91619" lon="2.26292">
        <ele>18.5</ele>
        <time>2023-01-20T14:06:03Z</time>
      </trkpt>
      <trkpt lat="49.91618" lon="2.26293">
        <ele>18.5</ele>
        <time>2023-01-20T14:06:04Z</time>
      </trkpt>
      <trkpt lat="49.91618" lon="2.26295">
        <ele>18.5</ele>
        <time>2023-01-20T14:06:05Z</time>
      </trkpt>
      <trkpt lat="49.91617" lon="2.26296">
        <ele>18.5</ele>
        <time>2023-01-20T14:06:06Z</time>
      </trkpt>
      <trkpt lat="49.91617" lon="2.26298">
        <ele>18.5</ele>
        <time>2023-01-20T14:06:07Z</time>
      </trkpt>
      <trkpt lat="49.91616" lon="2.26299">
        <ele>18.5</ele>
        <time>2023-01-20T14:06:08Z</time>
      </trkpt>
      <trkpt lat="49.91616" lon="2.26301">
        <ele>18.5</ele>
        <time>2023-01-20T14:06:09Z</time>
      </trkpt>
      <trkpt lat="49.91616" lon="2.26302">
        <ele>18.5</ele>
        <time>2023-01-20T14:06:11Z</time>
      </trkpt>
      <trkpt lat="49.91616" lon="2.26302">
        <ele>18.5</ele>
        <time>2023-01-20T14:06:12Z</time>
      </trkpt>
      <trkpt lat="49.91616" lon="2.26303">
        <ele>18.5</ele>
        <time>2023-01-20T14:06:13Z</time>
      </trkpt>
      <trkpt lat="49.91616" lon="2.26305">
        <ele>18.5</ele>
        <time>2023-01-20T14:06:14Z</time>
      </trkpt>
      <trkpt lat="49.91616" lon="2.26305">
        <ele>18.5</ele>
        <time>2023-01-20T14:06:15Z</time>
      </trkpt>
      <trkpt lat="49.91615" lon="2.26306">
        <ele>18.5</ele>
        <time>2023-01-20T14:06:16Z</time>
      </trkpt>
      <trkpt lat="49.91614" lon="2.26307">
        <ele>18.5</ele>
        <time>2023-01-20T14:06:18Z</time>
      </trkpt>
      <trkpt lat="49.91613" lon="2.2631">
        <ele>18.6</ele>
        <time>2023-01-20T14:06:19Z</time>
      </trkpt>
      <trkpt lat="49.91612" lon="2.26311">
        <ele>18.6</ele>
        <time>2023-01-20T14:06:20Z</time>
      </trkpt>
      <trkpt lat="49.91611" lon="2.26313">
        <ele>18.6</ele>
        <time>2023-01-20T14:06:21Z</time>
      </trkpt>
      <trkpt lat="49.91609" lon="2.26315">
        <ele>18.6</ele>
        <time>2023-01-20T14:06:22Z</time>
      </trkpt>
      <trkpt lat="49.91607" lon="2.26316">
        <ele>18.6</ele>
        <time>2023-01-20T14:06:23Z</time>
      </trkpt>
      <trkpt lat="49.91605" lon="2.26319">
        <ele>18.6</ele>
        <time>2023-01-20T14:06:24Z</time>
      </trkpt>
      <trkpt lat="49.91603" lon="2.26321">
        <ele>18.6</ele>
        <time>2023-01-20T14:06:25Z</time>
      </trkpt>
      <trkpt lat="49.91602" lon="2.26322">
        <ele>18.6</ele>
        <time>2023-01-20T14:06:27Z</time>
      </trkpt>
      <trkpt lat="49.91601" lon="2.26324">
        <ele>18.6</ele>
        <time>2023-01-20T14:06:28Z</time>
      </trkpt>
      <trkpt lat="49.91601" lon="2.26324">
        <ele>18.6</ele>
        <time>2023-01-20T14:06:29Z</time>
      </trkpt>
      <trkpt lat="49.916" lon="2.26325">
        <ele>18.6</ele>
        <time>2023-01-20T14:06:30Z</time>
      </trkpt>
      <trkpt lat="49.91598" lon="2.26327">
        <ele>18.6</ele>
        <time>2023-01-20T14:06:31Z</time>
      </trkpt>
      <trkpt lat="49.91597" lon="2.26328">
        <ele>18.6</ele>
        <time>2023-01-20T14:06:32Z</time>
      </trkpt>
      <trkpt lat="49.91596" lon="2.26329">
        <ele>18.6</ele>
        <time>2023-01-20T14:06:33Z</time>
      </trkpt>
      <trkpt lat="49.91595" lon="2.2633">
        <ele>18.6</ele>
        <time>2023-01-20T14:06:35Z</time>
      </trkpt>
      <trkpt lat="49.91595" lon="2.26331">
        <ele>18.6</ele>
        <time>2023-01-20T14:06:36Z</time>
      </trkpt>
      <trkpt lat="49.91594" lon="2.26333">
        <ele>18.6</ele>
        <time>2023-01-20T14:06:37Z</time>
      </trkpt>
      <trkpt lat="49.91593" lon="2.26334">
        <ele>18.6</ele>
        <time>2023-01-20T14:06:38Z</time>
      </trkpt>
      <trkpt lat="49.91592" lon="2.26337">
        <ele>18.6</ele>
        <time>2023-01-20T14:06:39Z</time>
      </trkpt>
      <trkpt lat="49.91592" lon="2.2634">
        <ele>18.6</ele>
        <time>2023-01-20T14:06:40Z</time>
      </trkpt>
      <trkpt lat="49.91591" lon="2.26341">
        <ele>18.6</ele>
        <time>2023-01-20T14:06:41Z</time>
      </trkpt>
      <trkpt lat="49.91591" lon="2.26342">
        <ele>18.6</ele>
        <time>2023-01-20T14:06:42Z</time>
      </trkpt>
      <trkpt lat="49.9159" lon="2.26344">
        <ele>18.6</ele>
        <time>2023-01-20T14:06:44Z</time>
      </trkpt>
      <trkpt lat="49.91589" lon="2.26345">
        <ele>18.7</ele>
        <time>2023-01-20T14:06:45Z</time>
      </trkpt>
      <trkpt lat="49.91589" lon="2.26346">
        <ele>18.7</ele>
        <time>2023-01-20T14:06:46Z</time>
      </trkpt>
      <trkpt lat="49.91588" lon="2.26347">
        <ele>18.7</ele>
        <time>2023-01-20T14:06:47Z</time>
      </trkpt>
      <trkpt lat="49.91587" lon="2.26348">
        <ele>18.7</ele>
        <time>2023-01-20T14:06:48Z</time>
      </trkpt>
      <trkpt lat="49.91586" lon="2.26348">
        <ele>18.7</ele>
        <time>2023-01-20T14:06:49Z</time>
      </trkpt>
      <trkpt lat="49.91585" lon="2.26349">
        <ele>18.7</ele>
        <time>2023-01-20T14:06:50Z</time>
      </trkpt>
      <trkpt lat="49.91584" lon="2.2635">
        <ele>18.7</ele>
        <time>2023-01-20T14:06:51Z</time>
      </trkpt>
      <trkpt lat="49.91582" lon="2.26351">
        <ele>18.7</ele>
        <time>2023-01-20T14:06:52Z</time>
      </trkpt>
      <trkpt lat="49.91578" lon="2.26353">
        <ele>18.7</ele>
        <time>2023-01-20T14:06:54Z</time>
      </trkpt>
      <trkpt lat="49.91576" lon="2.26354">
        <ele>18.7</ele>
        <time>2023-01-20T14:06:55Z</time>
      </trkpt>
      <trkpt lat="49.91575" lon="2.26355">
        <ele>18.7</ele>
        <time>2023-01-20T14:06:56Z</time>
      </trkpt>
      <trkpt lat="49.91572" lon="2.26357">
        <ele>18.7</ele>
        <time>2023-01-20T14:06:57Z</time>
      </trkpt>
      <trkpt lat="49.9157" lon="2.26358">
        <ele>18.7</ele>
        <time>2023-01-20T14:06:58Z</time>
      </trkpt>
      <trkpt lat="49.91568" lon="2.2636">
        <ele>18.7</ele>
        <time>2023-01-20T14:07:00Z</time>
      </trkpt>
      <trkpt lat="49.91567" lon="2.26361">
        <ele>18.7</ele>
        <time>2023-01-20T14:07:01Z</time>
      </trkpt>
      <trkpt lat="49.91567" lon="2.26361">
        <ele>18.7</ele>
        <time>2023-01-20T14:07:02Z</time>
      </trkpt>
      <trkpt lat="49.91567" lon="2.26361">
        <ele>18.7</ele>
        <time>2023-01-20T14:07:03Z</time>
      </trkpt>
      <trkpt lat="49.91566" lon="2.26363">
        <ele>18.7</ele>
        <time>2023-01-20T14:07:05Z</time>
      </trkpt>
      <trkpt lat="49.91565" lon="2.26363">
        <ele>18.7</ele>
        <time>2023-01-20T14:07:06Z</time>
      </trkpt>
      <trkpt lat="49.91565" lon="2.26363">
        <ele>18.7</ele>
        <time>2023-01-20T14:07:07Z</time>
      </trkpt>
      <trkpt lat="49.91564" lon="2.26363">
        <ele>18.7</ele>
        <time>2023-01-20T14:07:08Z</time>
      </trkpt>
      <trkpt lat="49.91563" lon="2.26364">
        <ele>18.7</ele>
        <time>2023-01-20T14:07:09Z</time>
      </trkpt>
      <trkpt lat="49.91561" lon="2.26365">
        <ele>18.7</ele>
        <time>2023-01-20T14:07:10Z</time>
      </trkpt>
      <trkpt lat="49.9156" lon="2.26366">
        <ele>18.7</ele>
        <time>2023-01-20T14:07:11Z</time>
      </trkpt>
      <trkpt lat="49.9156" lon="2.26366">
        <ele>18.7</ele>
        <time>2023-01-20T14:07:12Z</time>
      </trkpt>
      <trkpt lat="49.9156" lon="2.26366">
        <ele>18.7</ele>
        <time>2023-01-20T14:07:14Z</time>
      </trkpt>
      <trkpt lat="49.9156" lon="2.26366">
        <ele>18.7</ele>
        <time>2023-01-20T14:07:15Z</time>
      </trkpt>
      <trkpt lat="49.9156" lon="2.26367">
        <ele>18.7</ele>
        <time>2023-01-20T14:07:16Z</time>
      </trkpt>
      <trkpt lat="49.9156" lon="2.26367">
        <ele>18.7</ele>
        <time>2023-01-20T14:07:17Z</time>
      </trkpt>
      <trkpt lat="49.91559" lon="2.26367">
        <ele>18.7</ele>
        <time>2023-01-20T14:07:18Z</time>
      </trkpt>
      <trkpt lat="49.91558" lon="2.26368">
        <ele>18.7</ele>
        <time>2023-01-20T14:07:19Z</time>
      </trkpt>
      <trkpt lat="49.91557" lon="2.26369">
        <ele>18.7</ele>
        <time>2023-01-20T14:07:20Z</time>
      </trkpt>
      <trkpt lat="49.91556" lon="2.2637">
        <ele>18.7</ele>
        <time>2023-01-20T14:07:21Z</time>
      </trkpt>
      <trkpt lat="49.91556" lon="2.2637">
        <ele>18.7</ele>
        <time>2023-01-20T14:07:23Z</time>
      </trkpt>
      <trkpt lat="49.91555" lon="2.26371">
        <ele>18.7</ele>
        <time>2023-01-20T14:07:24Z</time>
      </trkpt>
      <trkpt lat="49.91554" lon="2.26371">
        <ele>18.7</ele>
        <time>2023-01-20T14:07:25Z</time>
      </trkpt>
      <trkpt lat="49.91553" lon="2.26371">
        <ele>18.7</ele>
        <time>2023-01-20T14:07:26Z</time>
      </trkpt>
      <trkpt lat="49.91553" lon="2.26372">
        <ele>18.7</ele>
        <time>2023-01-20T14:07:27Z</time>
      </trkpt>
      <trkpt lat="49.91552" lon="2.26372">
        <ele>18.7</ele>
        <time>2023-01-20T14:07:29Z</time>
      </trkpt>
      <trkpt lat="49.91552" lon="2.26372">
        <ele>18.7</ele>
        <time>2023-01-20T14:07:30Z</time>
      </trkpt>
      <trkpt lat="49.91551" lon="2.26372">
        <ele>18.7</ele>
        <time>2023-01-20T14:07:31Z</time>
      </trkpt>
      <trkpt lat="49.9155" lon="2.26373">
        <ele>18.7</ele>
        <time>2023-01-20T14:07:32Z</time>
      </trkpt>
      <trkpt lat="49.9155" lon="2.26373">
        <ele>18.7</ele>
        <time>2023-01-20T14:07:33Z</time>
      </trkpt>
      <trkpt lat="49.91549" lon="2.26374">
        <ele>18.7</ele>
        <time>2023-01-20T14:07:34Z</time>
      </trkpt>
      <trkpt lat="49.91549" lon="2.26374">
        <ele>18.7</ele>
        <time>2023-01-20T14:07:35Z</time>
      </trkpt>
      <trkpt lat="49.91549" lon="2.26374">
        <ele>18.7</ele>
        <time>2023-01-20T14:07:36Z</time>
      </trkpt>
      <trkpt lat="49.91548" lon="2.26375">
        <ele>18.7</ele>
        <time>2023-01-20T14:07:37Z</time>
      </trkpt>
      <trkpt lat="49.91548" lon="2.26375">
        <ele>18.7</ele>
        <time>2023-01-20T14:07:39Z</time>
      </trkpt>
      <trkpt lat="49.91547" lon="2.26375">
        <ele>18.7</ele>
        <time>2023-01-20T14:07:40Z</time>
      </trkpt>
      <trkpt lat="49.91546" lon="2.26375">
        <ele>18.7</ele>
        <time>2023-01-20T14:07:41Z</time>
      </trkpt>
      <trkpt lat="49.91545" lon="2.26375">
        <ele>18.7</ele>
        <time>2023-01-20T14:07:42Z</time>
      </trkpt>
      <trkpt lat="49.91543" lon="2.26376">
        <ele>18.7</ele>
        <time>2023-01-20T14:07:44Z</time>
      </trkpt>
      <trkpt lat="49.91542" lon="2.26376">
        <ele>18.7</ele>
        <time>2023-01-20T14:07:45Z</time>
      </trkpt>
      <trkpt lat="49.91541" lon="2.26376">
        <ele>18.7</ele>
        <time>2023-01-20T14:07:46Z</time>
      </trkpt>
      <trkpt lat="49.9154" lon="2.26376">
        <ele>18.7</ele>
        <time>2023-01-20T14:07:47Z</time>
      </trkpt>
      <trkpt lat="49.91539" lon="2.26375">
        <ele>18.7</ele>
        <time>2023-01-20T14:07:48Z</time>
      </trkpt>
      <trkpt lat="49.91538" lon="2.26375">
        <ele>18.7</ele>
        <time>2023-01-20T14:07:49Z</time>
      </trkpt>
      <trkpt lat="49.91537" lon="2.26376">
        <ele>18.6</ele>
        <time>2023-01-20T14:07:50Z</time>
      </trkpt>
      <trkpt lat="49.91537" lon="2.26376">
        <ele>18.6</ele>
        <time>2023-01-20T14:07:51Z</time>
      </trkpt>
      <trkpt lat="49.91536" lon="2.26377">
        <ele>18.6</ele>
        <time>2023-01-20T14:07:52Z</time>
      </trkpt>
      <trkpt lat="49.91535" lon="2.26377">
        <ele>18.6</ele>
        <time>2023-01-20T14:07:53Z</time>
      </trkpt>
      <trkpt lat="49.91533" lon="2.26378">
        <ele>18.6</ele>
        <time>2023-01-20T14:07:55Z</time>
      </trkpt>
      <trkpt lat="49.91532" lon="2.2638">
        <ele>18.6</ele>
        <time>2023-01-20T14:07:56Z</time>
      </trkpt>
      <trkpt lat="49.9153" lon="2.26381">
        <ele>18.6</ele>
        <time>2023-01-20T14:07:57Z</time>
      </trkpt>
      <trkpt lat="49.91528" lon="2.26382">
        <ele>18.6</ele>
        <time>2023-01-20T14:07:58Z</time>
      </trkpt>
      <trkpt lat="49.91527" lon="2.26383">
        <ele>18.6</ele>
        <time>2023-01-20T14:07:59Z</time>
      </trkpt>
      <trkpt lat="49.91525" lon="2.26384">
        <ele>18.6</ele>
        <time>2023-01-20T14:08:00Z</time>
      </trkpt>
      <trkpt lat="49.91524" lon="2.26385">
        <ele>18.6</ele>
        <time>2023-01-20T14:08:01Z</time>
      </trkpt>
      <trkpt lat="49.91521" lon="2.26387">
        <ele>18.6</ele>
        <time>2023-01-20T14:08:02Z</time>
      </trkpt>
      <trkpt lat="49.9152" lon="2.26388">
        <ele>18.6</ele>
        <time>2023-01-20T14:08:03Z</time>
      </trkpt>
      <trkpt lat="49.91518" lon="2.26389">
        <ele>18.5</ele>
        <time>2023-01-20T14:08:04Z</time>
      </trkpt>
      <trkpt lat="49.91516" lon="2.2639">
        <ele>18.5</ele>
        <time>2023-01-20T14:08:06Z</time>
      </trkpt>
      <trkpt lat="49.91515" lon="2.26391">
        <ele>18.5</ele>
        <time>2023-01-20T14:08:07Z</time>
      </trkpt>
      <trkpt lat="49.91513" lon="2.26392">
        <ele>18.5</ele>
        <time>2023-01-20T14:08:08Z</time>
      </trkpt>
      <trkpt lat="49.91512" lon="2.26393">
        <ele>18.5</ele>
        <time>2023-01-20T14:08:09Z</time>
      </trkpt>
      <trkpt lat="49.91512" lon="2.26394">
        <ele>18.5</ele>
        <time>2023-01-20T14:08:10Z</time>
      </trkpt>
      <trkpt lat="49.91511" lon="2.26394">
        <ele>18.5</ele>
        <time>2023-01-20T14:08:11Z</time>
      </trkpt>
      <trkpt lat="49.91509" lon="2.26395">
        <ele>18.5</ele>
        <time>2023-01-20T14:08:12Z</time>
      </trkpt>
      <trkpt lat="49.91508" lon="2.26396">
        <ele>18.5</ele>
        <time>2023-01-20T14:08:13Z</time>
      </trkpt>
      <trkpt lat="49.91507" lon="2.26396">
        <ele>18.5</ele>
        <time>2023-01-20T14:08:14Z</time>
      </trkpt>
      <trkpt lat="49.91506" lon="2.26397">
        <ele>18.5</ele>
        <time>2023-01-20T14:08:15Z</time>
      </trkpt>
      <trkpt lat="49.91506" lon="2.26396">
        <ele>18.5</ele>
        <time>2023-01-20T14:08:17Z</time>
      </trkpt>
      <trkpt lat="49.91505" lon="2.26397">
        <ele>18.5</ele>
        <time>2023-01-20T14:08:18Z</time>
      </trkpt>
      <trkpt lat="49.91504" lon="2.26397">
        <ele>18.5</ele>
        <time>2023-01-20T14:08:19Z</time>
      </trkpt>
      <trkpt lat="49.91504" lon="2.26397">
        <ele>18.5</ele>
        <time>2023-01-20T14:08:20Z</time>
      </trkpt>
      <trkpt lat="49.91502" lon="2.26398">
        <ele>18.5</ele>
        <time>2023-01-20T14:08:21Z</time>
      </trkpt>
      <trkpt lat="49.91502" lon="2.26398">
        <ele>18.5</ele>
        <time>2023-01-20T14:08:22Z</time>
      </trkpt>
      <trkpt lat="49.91501" lon="2.26399">
        <ele>18.5</ele>
        <time>2023-01-20T14:08:23Z</time>
      </trkpt>
      <trkpt lat="49.91501" lon="2.26399">
        <ele>18.5</ele>
        <time>2023-01-20T14:08:24Z</time>
      </trkpt>
      <trkpt lat="49.91501" lon="2.26399">
        <ele>18.5</ele>
        <time>2023-01-20T14:08:25Z</time>
      </trkpt>
      <trkpt lat="49.91501" lon="2.264">
        <ele>18.5</ele>
        <time>2023-01-20T14:08:27Z</time>
      </trkpt>
      <trkpt lat="49.915" lon="2.26401">
        <ele>18.5</ele>
        <time>2023-01-20T14:08:28Z</time>
      </trkpt>
      <trkpt lat="49.91498" lon="2.26402">
        <ele>18.5</ele>
        <time>2023-01-20T14:08:29Z</time>
      </trkpt>
      <trkpt lat="49.91496" lon="2.26405">
        <ele>18.5</ele>
        <time>2023-01-20T14:08:30Z</time>
      </trkpt>
      <trkpt lat="49.91494" lon="2.26406">
        <ele>18.4</ele>
        <time>2023-01-20T14:08:31Z</time>
      </trkpt>
      <trkpt lat="49.91492" lon="2.26408">
        <ele>18.4</ele>
        <time>2023-01-20T14:08:32Z</time>
      </trkpt>
      <trkpt lat="49.91491" lon="2.26408">
        <ele>18.4</ele>
        <time>2023-01-20T14:08:33Z</time>
      </trkpt>
      <trkpt lat="49.91488" lon="2.26411">
        <ele>18.4</ele>
        <time>2023-01-20T14:08:34Z</time>
      </trkpt>
      <trkpt lat="49.91487" lon="2.26412">
        <ele>18.4</ele>
        <time>2023-01-20T14:08:35Z</time>
      </trkpt>
      <trkpt lat="49.91484" lon="2.26414">
        <ele>18.4</ele>
        <time>2023-01-20T14:08:36Z</time>
      </trkpt>
      <trkpt lat="49.91479" lon="2.26416">
        <ele>18.4</ele>
        <time>2023-01-20T14:08:38Z</time>
      </trkpt>
      <trkpt lat="49.91478" lon="2.26417">
        <ele>18.4</ele>
        <time>2023-01-20T14:08:39Z</time>
      </trkpt>
      <trkpt lat="49.91477" lon="2.26418">
        <ele>18.4</ele>
        <time>2023-01-20T14:08:40Z</time>
      </trkpt>
      <trkpt lat="49.91475" lon="2.26419">
        <ele>18.4</ele>
        <time>2023-01-20T14:08:41Z</time>
      </trkpt>
      <trkpt lat="49.91475" lon="2.2642">
        <ele>18.4</ele>
        <time>2023-01-20T14:08:42Z</time>
      </trkpt>
      <trkpt lat="49.91474" lon="2.2642">
        <ele>18.4</ele>
        <time>2023-01-20T14:08:43Z</time>
      </trkpt>
      <trkpt lat="49.91474" lon="2.2642">
        <ele>18.4</ele>
        <time>2023-01-20T14:08:44Z</time>
      </trkpt>
      <trkpt lat="49.91472" lon="2.26422">
        <ele>18.5</ele>
        <time>2023-01-20T14:08:45Z</time>
      </trkpt>
      <trkpt lat="49.91471" lon="2.26423">
        <ele>18.5</ele>
        <time>2023-01-20T14:08:46Z</time>
      </trkpt>
      <trkpt lat="49.9147" lon="2.26423">
        <ele>18.5</ele>
        <time>2023-01-20T14:08:47Z</time>
      </trkpt>
      <trkpt lat="49.91469" lon="2.26425">
        <ele>18.5</ele>
        <time>2023-01-20T14:08:49Z</time>
      </trkpt>
      <trkpt lat="49.9147" lon="2.26425">
        <ele>18.5</ele>
        <time>2023-01-20T14:08:50Z</time>
      </trkpt>
      <trkpt lat="49.9147" lon="2.26425">
        <ele>18.5</ele>
        <time>2023-01-20T14:08:51Z</time>
      </trkpt>
      <trkpt lat="49.9147" lon="2.26425">
        <ele>18.5</ele>
        <time>2023-01-20T14:08:52Z</time>
      </trkpt>
      <trkpt lat="49.91469" lon="2.26427">
        <ele>18.5</ele>
        <time>2023-01-20T14:08:53Z</time>
      </trkpt>
      <trkpt lat="49.91468" lon="2.26428">
        <ele>18.5</ele>
        <time>2023-01-20T14:08:54Z</time>
      </trkpt>
      <trkpt lat="49.91467" lon="2.26429">
        <ele>18.5</ele>
        <time>2023-01-20T14:08:56Z</time>
      </trkpt>
      <trkpt lat="49.91466" lon="2.26431">
        <ele>18.5</ele>
        <time>2023-01-20T14:08:57Z</time>
      </trkpt>
      <trkpt lat="49.91465" lon="2.26432">
        <ele>18.5</ele>
        <time>2023-01-20T14:08:58Z</time>
      </trkpt>
      <trkpt lat="49.91464" lon="2.26433">
        <ele>18.5</ele>
        <time>2023-01-20T14:08:59Z</time>
      </trkpt>
      <trkpt lat="49.91461" lon="2.26436">
        <ele>18.5</ele>
        <time>2023-01-20T14:09:00Z</time>
      </trkpt>
      <trkpt lat="49.9146" lon="2.26437">
        <ele>18.5</ele>
        <time>2023-01-20T14:09:01Z</time>
      </trkpt>
      <trkpt lat="49.91458" lon="2.2644">
        <ele>18.5</ele>
        <time>2023-01-20T14:09:03Z</time>
      </trkpt>
      <trkpt lat="49.91456" lon="2.26441">
        <ele>18.5</ele>
        <time>2023-01-20T14:09:04Z</time>
      </trkpt>
      <trkpt lat="49.91455" lon="2.26443">
        <ele>18.5</ele>
        <time>2023-01-20T14:09:05Z</time>
      </trkpt>
      <trkpt lat="49.91453" lon="2.26445">
        <ele>18.5</ele>
        <time>2023-01-20T14:09:06Z</time>
      </trkpt>
      <trkpt lat="49.91453" lon="2.26446">
        <ele>18.5</ele>
        <time>2023-01-20T14:09:07Z</time>
      </trkpt>
      <trkpt lat="49.91452" lon="2.26446">
        <ele>18.5</ele>
        <time>2023-01-20T14:09:08Z</time>
      </trkpt>
      <trkpt lat="49.9145" lon="2.26448">
        <ele>18.5</ele>
        <time>2023-01-20T14:09:10Z</time>
      </trkpt>
      <trkpt lat="49.9145" lon="2.26449">
        <ele>18.5</ele>
        <time>2023-01-20T14:09:11Z</time>
      </trkpt>
      <trkpt lat="49.91449" lon="2.26449">
        <ele>18.5</ele>
        <time>2023-01-20T14:09:12Z</time>
      </trkpt>
      <trkpt lat="49.91448" lon="2.2645">
        <ele>18.5</ele>
        <time>2023-01-20T14:09:13Z</time>
      </trkpt>
      <trkpt lat="49.91447" lon="2.26451">
        <ele>18.5</ele>
        <time>2023-01-20T14:09:14Z</time>
      </trkpt>
      <trkpt lat="49.91446" lon="2.26452">
        <ele>18.5</ele>
        <time>2023-01-20T14:09:15Z</time>
      </trkpt>
      <trkpt lat="49.91445" lon="2.26454">
        <ele>18.5</ele>
        <time>2023-01-20T14:09:16Z</time>
      </trkpt>
      <trkpt lat="49.91444" lon="2.26456">
        <ele>18.5</ele>
        <time>2023-01-20T14:09:18Z</time>
      </trkpt>
      <trkpt lat="49.91443" lon="2.26457">
        <ele>18.5</ele>
        <time>2023-01-20T14:09:19Z</time>
      </trkpt>
      <trkpt lat="49.91441" lon="2.26459">
        <ele>18.5</ele>
        <time>2023-01-20T14:09:20Z</time>
      </trkpt>
      <trkpt lat="49.9144" lon="2.26461">
        <ele>18.5</ele>
        <time>2023-01-20T14:09:21Z</time>
      </trkpt>
      <trkpt lat="49.91439" lon="2.26462">
        <ele>18.5</ele>
        <time>2023-01-20T14:09:22Z</time>
      </trkpt>
      <trkpt lat="49.91438" lon="2.26464">
        <ele>18.5</ele>
        <time>2023-01-20T14:09:24Z</time>
      </trkpt>
      <trkpt lat="49.91437" lon="2.26466">
        <ele>18.5</ele>
        <time>2023-01-20T14:09:25Z</time>
      </trkpt>
      <trkpt lat="49.91434" lon="2.26469">
        <ele>18.5</ele>
        <time>2023-01-20T14:09:26Z</time>
      </trkpt>
      <trkpt lat="49.91433" lon="2.26471">
        <ele>18.6</ele>
        <time>2023-01-20T14:09:27Z</time>
      </trkpt>
      <trkpt lat="49.91431" lon="2.26474">
        <ele>18.6</ele>
        <time>2023-01-20T14:09:29Z</time>
      </trkpt>
      <trkpt lat="49.9143" lon="2.26476">
        <ele>18.6</ele>
        <time>2023-01-20T14:09:30Z</time>
      </trkpt>
      <trkpt lat="49.91429" lon="2.26477">
        <ele>18.6</ele>
        <time>2023-01-20T14:09:31Z</time>
      </trkpt>
      <trkpt lat="49.91429" lon="2.26478">
        <ele>18.6</ele>
        <time>2023-01-20T14:09:32Z</time>
      </trkpt>
      <trkpt lat="49.91429" lon="2.26479">
        <ele>18.6</ele>
        <time>2023-01-20T14:09:33Z</time>
      </trkpt>
      <trkpt lat="49.91428" lon="2.26481">
        <ele>18.6</ele>
        <time>2023-01-20T14:09:34Z</time>
      </trkpt>
      <trkpt lat="49.91427" lon="2.26482">
        <ele>18.6</ele>
        <time>2023-01-20T14:09:35Z</time>
      </trkpt>
      <trkpt lat="49.91426" lon="2.26483">
        <ele>18.6</ele>
        <time>2023-01-20T14:09:36Z</time>
      </trkpt>
      <trkpt lat="49.91425" lon="2.26485">
        <ele>18.6</ele>
        <time>2023-01-20T14:09:38Z</time>
      </trkpt>
      <trkpt lat="49.91426" lon="2.26486">
        <ele>18.6</ele>
        <time>2023-01-20T14:09:39Z</time>
      </trkpt>
      <trkpt lat="49.91425" lon="2.26487">
        <ele>18.6</ele>
        <time>2023-01-20T14:09:40Z</time>
      </trkpt>
      <trkpt lat="49.91425" lon="2.26489">
        <ele>18.6</ele>
        <time>2023-01-20T14:09:41Z</time>
      </trkpt>
      <trkpt lat="49.91425" lon="2.26491">
        <ele>18.6</ele>
        <time>2023-01-20T14:09:42Z</time>
      </trkpt>
      <trkpt lat="49.91424" lon="2.26493">
        <ele>18.6</ele>
        <time>2023-01-20T14:09:43Z</time>
      </trkpt>
      <trkpt lat="49.91424" lon="2.26494">
        <ele>18.6</ele>
        <time>2023-01-20T14:09:45Z</time>
      </trkpt>
      <trkpt lat="49.91423" lon="2.26496">
        <ele>18.6</ele>
        <time>2023-01-20T14:09:46Z</time>
      </trkpt>
      <trkpt lat="49.91421" lon="2.26498">
        <ele>18.6</ele>
        <time>2023-01-20T14:09:47Z</time>
      </trkpt>
      <trkpt lat="49.91421" lon="2.26499">
        <ele>18.6</ele>
        <time>2023-01-20T14:09:48Z</time>
      </trkpt>
      <trkpt lat="49.9142" lon="2.265">
        <ele>18.6</ele>
        <time>2023-01-20T14:09:49Z</time>
      </trkpt>
      <trkpt lat="49.91419" lon="2.26501">
        <ele>18.7</ele>
        <time>2023-01-20T14:09:50Z</time>
      </trkpt>
      <trkpt lat="49.91418" lon="2.26504">
        <ele>18.7</ele>
        <time>2023-01-20T14:09:51Z</time>
      </trkpt>
      <trkpt lat="49.91416" lon="2.26505">
        <ele>18.7</ele>
        <time>2023-01-20T14:09:52Z</time>
      </trkpt>
      <trkpt lat="49.91415" lon="2.26506">
        <ele>18.7</ele>
        <time>2023-01-20T14:09:54Z</time>
      </trkpt>
      <trkpt lat="49.91415" lon="2.26507">
        <ele>18.7</ele>
        <time>2023-01-20T14:09:55Z</time>
      </trkpt>
      <trkpt lat="49.91413" lon="2.26508">
        <ele>18.7</ele>
        <time>2023-01-20T14:09:56Z</time>
      </trkpt>
      <trkpt lat="49.91412" lon="2.2651">
        <ele>18.7</ele>
        <time>2023-01-20T14:09:57Z</time>
      </trkpt>
      <trkpt lat="49.91411" lon="2.2651">
        <ele>18.7</ele>
        <time>2023-01-20T14:09:58Z</time>
      </trkpt>
      <trkpt lat="49.9141" lon="2.26511">
        <ele>18.7</ele>
        <time>2023-01-20T14:09:59Z</time>
      </trkpt>
      <trkpt lat="49.91409" lon="2.26512">
        <ele>18.7</ele>
        <time>2023-01-20T14:10:00Z</time>
      </trkpt>
      <trkpt lat="49.91408" lon="2.26512">
        <ele>18.7</ele>
        <time>2023-01-20T14:10:01Z</time>
      </trkpt>
      <trkpt lat="49.91408" lon="2.26512">
        <ele>18.7</ele>
        <time>2023-01-20T14:10:02Z</time>
      </trkpt>
      <trkpt lat="49.91407" lon="2.26512">
        <ele>18.7</ele>
        <time>2023-01-20T14:10:04Z</time>
      </trkpt>
      <trkpt lat="49.91407" lon="2.26512">
        <ele>18.7</ele>
        <time>2023-01-20T14:10:05Z</time>
      </trkpt>
      <trkpt lat="49.91407" lon="2.26513">
        <ele>18.7</ele>
        <time>2023-01-20T14:10:06Z</time>
      </trkpt>
      <trkpt lat="49.91406" lon="2.26513">
        <ele>18.7</ele>
        <time>2023-01-20T14:10:07Z</time>
      </trkpt>
      <trkpt lat="49.91405" lon="2.26514">
        <ele>18.7</ele>
        <time>2023-01-20T14:10:08Z</time>
      </trkpt>
      <trkpt lat="49.91405" lon="2.26515">
        <ele>18.7</ele>
        <time>2023-01-20T14:10:09Z</time>
      </trkpt>
      <trkpt lat="49.91404" lon="2.26516">
        <ele>18.7</ele>
        <time>2023-01-20T14:10:10Z</time>
      </trkpt>
      <trkpt lat="49.91404" lon="2.26517">
        <ele>18.7</ele>
        <time>2023-01-20T14:10:12Z</time>
      </trkpt>
      <trkpt lat="49.91403" lon="2.26518">
        <ele>18.7</ele>
        <time>2023-01-20T14:10:13Z</time>
      </trkpt>
      <trkpt lat="49.91403" lon="2.26519">
        <ele>18.7</ele>
        <time>2023-01-20T14:10:14Z</time>
      </trkpt>
      <trkpt lat="49.91402" lon="2.2652">
        <ele>18.7</ele>
        <time>2023-01-20T14:10:15Z</time>
      </trkpt>
      <trkpt lat="49.91402" lon="2.2652">
        <ele>18.7</ele>
        <time>2023-01-20T14:10:16Z</time>
      </trkpt>
      <trkpt lat="49.91401" lon="2.26521">
        <ele>18.7</ele>
        <time>2023-01-20T14:10:17Z</time>
      </trkpt>
      <trkpt lat="49.91401" lon="2.26523">
        <ele>18.7</ele>
        <time>2023-01-20T14:10:18Z</time>
      </trkpt>
      <trkpt lat="49.91401" lon="2.26524">
        <ele>18.7</ele>
        <time>2023-01-20T14:10:20Z</time>
      </trkpt>
      <trkpt lat="49.914" lon="2.26526">
        <ele>18.7</ele>
        <time>2023-01-20T14:10:21Z</time>
      </trkpt>
      <trkpt lat="49.914" lon="2.26527">
        <ele>18.7</ele>
        <time>2023-01-20T14:10:22Z</time>
      </trkpt>
      <trkpt lat="49.914" lon="2.26528">
        <ele>18.7</ele>
        <time>2023-01-20T14:10:23Z</time>
      </trkpt>
      <trkpt lat="49.914" lon="2.2653">
        <ele>18.7</ele>
        <time>2023-01-20T14:10:24Z</time>
      </trkpt>
      <trkpt lat="49.91399" lon="2.26531">
        <ele>18.7</ele>
        <time>2023-01-20T14:10:25Z</time>
      </trkpt>
      <trkpt lat="49.91399" lon="2.26533">
        <ele>18.7</ele>
        <time>2023-01-20T14:10:26Z</time>
      </trkpt>
      <trkpt lat="49.91398" lon="2.26534">
        <ele>18.7</ele>
        <time>2023-01-20T14:10:28Z</time>
      </trkpt>
      <trkpt lat="49.91398" lon="2.26535">
        <ele>18.7</ele>
        <time>2023-01-20T14:10:29Z</time>
      </trkpt>
      <trkpt lat="49.91398" lon="2.26537">
        <ele>18.7</ele>
        <time>2023-01-20T14:10:30Z</time>
      </trkpt>
      <trkpt lat="49.91398" lon="2.26538">
        <ele>18.7</ele>
        <time>2023-01-20T14:10:31Z</time>
      </trkpt>
      <trkpt lat="49.91397" lon="2.26541">
        <ele>18.7</ele>
        <time>2023-01-20T14:10:32Z</time>
      </trkpt>
      <trkpt lat="49.91397" lon="2.26545">
        <ele>18.7</ele>
        <time>2023-01-20T14:10:33Z</time>
      </trkpt>
      <trkpt lat="49.91396" lon="2.2655">
        <ele>18.7</ele>
        <time>2023-01-20T14:10:34Z</time>
      </trkpt>
      <trkpt lat="49.91395" lon="2.26553">
        <ele>18.7</ele>
        <time>2023-01-20T14:10:35Z</time>
      </trkpt>
      <trkpt lat="49.91395" lon="2.26556">
        <ele>18.7</ele>
        <time>2023-01-20T14:10:37Z</time>
      </trkpt>
      <trkpt lat="49.91394" lon="2.26558">
        <ele>18.7</ele>
        <time>2023-01-20T14:10:38Z</time>
      </trkpt>
      <trkpt lat="49.91394" lon="2.2656">
        <ele>18.7</ele>
        <time>2023-01-20T14:10:39Z</time>
      </trkpt>
      <trkpt lat="49.91393" lon="2.26562">
        <ele>18.7</ele>
        <time>2023-01-20T14:10:40Z</time>
      </trkpt>
      <trkpt lat="49.91392" lon="2.26565">
        <ele>18.7</ele>
        <time>2023-01-20T14:10:41Z</time>
      </trkpt>
      <trkpt lat="49.91392" lon="2.26567">
        <ele>18.7</ele>
        <time>2023-01-20T14:10:42Z</time>
      </trkpt>
      <trkpt lat="49.91391" lon="2.2657">
        <ele>18.7</ele>
        <time>2023-01-20T14:10:43Z</time>
      </trkpt>
      <trkpt lat="49.91391" lon="2.26572">
        <ele>18.7</ele>
        <time>2023-01-20T14:10:45Z</time>
      </trkpt>
      <trkpt lat="49.9139" lon="2.26573">
        <ele>18.7</ele>
        <time>2023-01-20T14:10:46Z</time>
      </trkpt>
      <trkpt lat="49.9139" lon="2.26574">
        <ele>18.7</ele>
        <time>2023-01-20T14:10:47Z</time>
      </trkpt>
      <trkpt lat="49.9139" lon="2.26576">
        <ele>18.7</ele>
        <time>2023-01-20T14:10:48Z</time>
      </trkpt>
      <trkpt lat="49.9139" lon="2.26578">
        <ele>18.7</ele>
        <time>2023-01-20T14:10:50Z</time>
      </trkpt>
      <trkpt lat="49.9139" lon="2.2658">
        <ele>18.7</ele>
        <time>2023-01-20T14:10:51Z</time>
      </trkpt>
      <trkpt lat="49.9139" lon="2.26582">
        <ele>18.7</ele>
        <time>2023-01-20T14:10:52Z</time>
      </trkpt>
      <trkpt lat="49.91389" lon="2.26583">
        <ele>18.7</ele>
        <time>2023-01-20T14:10:53Z</time>
      </trkpt>
      <trkpt lat="49.91389" lon="2.26584">
        <ele>18.7</ele>
        <time>2023-01-20T14:10:54Z</time>
      </trkpt>
      <trkpt lat="49.91388" lon="2.26586">
        <ele>18.7</ele>
        <time>2023-01-20T14:10:55Z</time>
      </trkpt>
      <trkpt lat="49.91388" lon="2.26587">
        <ele>18.7</ele>
        <time>2023-01-20T14:10:57Z</time>
      </trkpt>
      <trkpt lat="49.91387" lon="2.26589">
        <ele>18.7</ele>
        <time>2023-01-20T14:10:58Z</time>
      </trkpt>
      <trkpt lat="49.91387" lon="2.2659">
        <ele>18.7</ele>
        <time>2023-01-20T14:10:59Z</time>
      </trkpt>
      <trkpt lat="49.91387" lon="2.2659">
        <ele>18.7</ele>
        <time>2023-01-20T14:11:00Z</time>
      </trkpt>
      <trkpt lat="49.91387" lon="2.26591">
        <ele>18.7</ele>
        <time>2023-01-20T14:11:01Z</time>
      </trkpt>
      <trkpt lat="49.91387" lon="2.26592">
        <ele>18.7</ele>
        <time>2023-01-20T14:11:02Z</time>
      </trkpt>
      <trkpt lat="49.91386" lon="2.26593">
        <ele>18.7</ele>
        <time>2023-01-20T14:11:04Z</time>
      </trkpt>
      <trkpt lat="49.91386" lon="2.26592">
        <ele>18.7</ele>
        <time>2023-01-20T14:11:05Z</time>
      </trkpt>
      <trkpt lat="49.91386" lon="2.26593">
        <ele>18.7</ele>
        <time>2023-01-20T14:11:06Z</time>
      </trkpt>
      <trkpt lat="49.91385" lon="2.26593">
        <ele>18.7</ele>
        <time>2023-01-20T14:11:07Z</time>
      </trkpt>
      <trkpt lat="49.91385" lon="2.26594">
        <ele>18.7</ele>
        <time>2023-01-20T14:11:08Z</time>
      </trkpt>
      <trkpt lat="49.91385" lon="2.26596">
        <ele>18.7</ele>
        <time>2023-01-20T14:11:09Z</time>
      </trkpt>
      <trkpt lat="49.91385" lon="2.26597">
        <ele>18.7</ele>
        <time>2023-01-20T14:11:10Z</time>
      </trkpt>
      <trkpt lat="49.91385" lon="2.26598">
        <ele>18.7</ele>
        <time>2023-01-20T14:11:12Z</time>
      </trkpt>
      <trkpt lat="49.91385" lon="2.266">
        <ele>18.7</ele>
        <time>2023-01-20T14:11:13Z</time>
      </trkpt>
      <trkpt lat="49.91384" lon="2.26602">
        <ele>18.7</ele>
        <time>2023-01-20T14:11:14Z</time>
      </trkpt>
      <trkpt lat="49.91384" lon="2.26604">
        <ele>18.7</ele>
        <time>2023-01-20T14:11:15Z</time>
      </trkpt>
      <trkpt lat="49.91383" lon="2.26605">
        <ele>18.7</ele>
        <time>2023-01-20T14:11:16Z</time>
      </trkpt>
      <trkpt lat="49.91382" lon="2.26607">
        <ele>18.7</ele>
        <time>2023-01-20T14:11:17Z</time>
      </trkpt>
      <trkpt lat="49.91381" lon="2.2661">
        <ele>18.7</ele>
        <time>2023-01-20T14:11:18Z</time>
      </trkpt>
      <trkpt lat="49.91381" lon="2.26611">
        <ele>18.7</ele>
        <time>2023-01-20T14:11:20Z</time>
      </trkpt>
      <trkpt lat="49.9138" lon="2.26612">
        <ele>18.7</ele>
        <time>2023-01-20T14:11:21Z</time>
      </trkpt>
      <trkpt lat="49.9138" lon="2.26612">
        <ele>18.7</ele>
        <time>2023-01-20T14:11:22Z</time>
      </trkpt>
      <trkpt lat="49.91379" lon="2.26613">
        <ele>18.7</ele>
        <time>2023-01-20T14:11:23Z</time>
      </trkpt>
      <trkpt lat="49.91378" lon="2.26615">
        <ele>18.7</ele>
        <time>2023-01-20T14:11:24Z</time>
      </trkpt>
      <trkpt lat="49.91377" lon="2.26618">
        <ele>18.7</ele>
        <time>2023-01-20T14:11:25Z</time>
      </trkpt>
      <trkpt lat="49.91376" lon="2.26619">
        <ele>18.7</ele>
        <time>2023-01-20T14:11:26Z</time>
      </trkpt>
      <trkpt lat="49.91376" lon="2.2662">
        <ele>18.7</ele>
        <time>2023-01-20T14:11:28Z</time>
      </trkpt>
      <trkpt lat="49.91375" lon="2.26621">
        <ele>18.7</ele>
        <time>2023-01-20T14:11:29Z</time>
      </trkpt>
      <trkpt lat="49.91375" lon="2.26622">
        <ele>18.7</ele>
        <time>2023-01-20T14:11:30Z</time>
      </trkpt>
      <trkpt lat="49.91375" lon="2.26623">
        <ele>18.7</ele>
        <time>2023-01-20T14:11:31Z</time>
      </trkpt>
      <trkpt lat="49.91374" lon="2.26624">
        <ele>18.7</ele>
        <time>2023-01-20T14:11:32Z</time>
      </trkpt>
      <trkpt lat="49.91373" lon="2.26625">
        <ele>18.7</ele>
        <time>2023-01-20T14:11:33Z</time>
      </trkpt>
      <trkpt lat="49.91372" lon="2.26627">
        <ele>18.7</ele>
        <time>2023-01-20T14:11:34Z</time>
      </trkpt>
      <trkpt lat="49.9137" lon="2.26631">
        <ele>18.7</ele>
        <time>2023-01-20T14:11:35Z</time>
      </trkpt>
      <trkpt lat="49.9137" lon="2.26632">
        <ele>18.7</ele>
        <time>2023-01-20T14:11:36Z</time>
      </trkpt>
      <trkpt lat="49.91369" lon="2.26634">
        <ele>18.7</ele>
        <time>2023-01-20T14:11:38Z</time>
      </trkpt>
      <trkpt lat="49.91367" lon="2.26635">
        <ele>18.7</ele>
        <time>2023-01-20T14:11:39Z</time>
      </trkpt>
      <trkpt lat="49.91367" lon="2.26636">
        <ele>18.7</ele>
        <time>2023-01-20T14:11:40Z</time>
      </trkpt>
      <trkpt lat="49.91366" lon="2.26637">
        <ele>18.7</ele>
        <time>2023-01-20T14:11:41Z</time>
      </trkpt>
      <trkpt lat="49.91366" lon="2.26639">
        <ele>18.7</ele>
        <time>2023-01-20T14:11:42Z</time>
      </trkpt>
      <trkpt lat="49.91364" lon="2.26641">
        <ele>18.7</ele>
        <time>2023-01-20T14:11:43Z</time>
      </trkpt>
      <trkpt lat="49.91364" lon="2.26642">
        <ele>18.7</ele>
        <time>2023-01-20T14:11:45Z</time>
      </trkpt>
      <trkpt lat="49.91363" lon="2.26643">
        <ele>18.7</ele>
        <time>2023-01-20T14:11:46Z</time>
      </trkpt>
      <trkpt lat="49.91362" lon="2.26644">
        <ele>18.7</ele>
        <time>2023-01-20T14:11:47Z</time>
      </trkpt>
      <trkpt lat="49.91361" lon="2.26645">
        <ele>18.7</ele>
        <time>2023-01-20T14:11:48Z</time>
      </trkpt>
      <trkpt lat="49.9136" lon="2.26646">
        <ele>18.7</ele>
        <time>2023-01-20T14:11:49Z</time>
      </trkpt>
      <trkpt lat="49.91359" lon="2.26647">
        <ele>18.7</ele>
        <time>2023-01-20T14:11:50Z</time>
      </trkpt>
      <trkpt lat="49.91358" lon="2.26648">
        <ele>18.7</ele>
        <time>2023-01-20T14:11:51Z</time>
      </trkpt>
      <trkpt lat="49.91358" lon="2.26649">
        <ele>18.7</ele>
        <time>2023-01-20T14:11:53Z</time>
      </trkpt>
      <trkpt lat="49.91357" lon="2.2665">
        <ele>18.7</ele>
        <time>2023-01-20T14:11:54Z</time>
      </trkpt>
      <trkpt lat="49.91356" lon="2.2665">
        <ele>18.7</ele>
        <time>2023-01-20T14:11:55Z</time>
      </trkpt>
      <trkpt lat="49.91355" lon="2.26652">
        <ele>18.7</ele>
        <time>2023-01-20T14:11:56Z</time>
      </trkpt>
      <trkpt lat="49.91355" lon="2.26652">
        <ele>18.7</ele>
        <time>2023-01-20T14:11:57Z</time>
      </trkpt>
      <trkpt lat="49.91354" lon="2.26653">
        <ele>18.7</ele>
        <time>2023-01-20T14:11:58Z</time>
      </trkpt>
      <trkpt lat="49.91353" lon="2.26654">
        <ele>18.7</ele>
        <time>2023-01-20T14:11:59Z</time>
      </trkpt>
      <trkpt lat="49.91353" lon="2.26655">
        <ele>18.7</ele>
        <time>2023-01-20T14:12:01Z</time>
      </trkpt>
      <trkpt lat="49.91352" lon="2.26655">
        <ele>18.7</ele>
        <time>2023-01-20T14:12:02Z</time>
      </trkpt>
      <trkpt lat="49.91352" lon="2.26656">
        <ele>18.7</ele>
        <time>2023-01-20T14:12:03Z</time>
      </trkpt>
      <trkpt lat="49.91352" lon="2.26656">
        <ele>18.7</ele>
        <time>2023-01-20T14:12:04Z</time>
      </trkpt>
      <trkpt lat="49.91351" lon="2.26656">
        <ele>18.7</ele>
        <time>2023-01-20T14:12:05Z</time>
      </trkpt>
      <trkpt lat="49.9135" lon="2.26657">
        <ele>18.7</ele>
        <time>2023-01-20T14:12:06Z</time>
      </trkpt>
      <trkpt lat="49.91348" lon="2.26659">
        <ele>18.7</ele>
        <time>2023-01-20T14:12:07Z</time>
      </trkpt>
      <trkpt lat="49.91348" lon="2.2666">
        <ele>18.7</ele>
        <time>2023-01-20T14:12:09Z</time>
      </trkpt>
      <trkpt lat="49.91347" lon="2.26661">
        <ele>18.7</ele>
        <time>2023-01-20T14:12:10Z</time>
      </trkpt>
      <trkpt lat="49.91346" lon="2.26663">
        <ele>18.7</ele>
        <time>2023-01-20T14:12:11Z</time>
      </trkpt>
      <trkpt lat="49.91345" lon="2.26664">
        <ele>18.7</ele>
        <time>2023-01-20T14:12:12Z</time>
      </trkpt>
      <trkpt lat="49.91344" lon="2.26664">
        <ele>18.7</ele>
        <time>2023-01-20T14:12:13Z</time>
      </trkpt>
      <trkpt lat="49.91343" lon="2.26665">
        <ele>18.7</ele>
        <time>2023-01-20T14:12:14Z</time>
      </trkpt>
      <trkpt lat="49.91342" lon="2.26667">
        <ele>18.7</ele>
        <time>2023-01-20T14:12:15Z</time>
      </trkpt>
      <trkpt lat="49.91341" lon="2.26667">
        <ele>18.7</ele>
        <time>2023-01-20T14:12:16Z</time>
      </trkpt>
      <trkpt lat="49.9134" lon="2.26668">
        <ele>18.7</ele>
        <time>2023-01-20T14:12:18Z</time>
      </trkpt>
      <trkpt lat="49.91339" lon="2.26669">
        <ele>18.7</ele>
        <time>2023-01-20T14:12:19Z</time>
      </trkpt>
      <trkpt lat="49.91339" lon="2.2667">
        <ele>18.7</ele>
        <time>2023-01-20T14:12:20Z</time>
      </trkpt>
      <trkpt lat="49.91338" lon="2.26671">
        <ele>18.7</ele>
        <time>2023-01-20T14:12:21Z</time>
      </trkpt>
      <trkpt lat="49.91338" lon="2.26671">
        <ele>18.7</ele>
        <time>2023-01-20T14:12:22Z</time>
      </trkpt>
      <trkpt lat="49.91338" lon="2.26672">
        <ele>18.7</ele>
        <time>2023-01-20T14:12:23Z</time>
      </trkpt>
      <trkpt lat="49.91338" lon="2.26672">
        <ele>18.7</ele>
        <time>2023-01-20T14:12:24Z</time>
      </trkpt>
      <trkpt lat="49.91337" lon="2.26674">
        <ele>18.7</ele>
        <time>2023-01-20T14:12:25Z</time>
      </trkpt>
      <trkpt lat="49.91336" lon="2.26674">
        <ele>18.7</ele>
        <time>2023-01-20T14:12:26Z</time>
      </trkpt>
      <trkpt lat="49.91336" lon="2.26675">
        <ele>18.7</ele>
        <time>2023-01-20T14:12:28Z</time>
      </trkpt>
      <trkpt lat="49.91336" lon="2.26674">
        <ele>18.7</ele>
        <time>2023-01-20T14:12:29Z</time>
      </trkpt>
      <trkpt lat="49.91336" lon="2.26674">
        <ele>18.7</ele>
        <time>2023-01-20T14:12:30Z</time>
      </trkpt>
      <trkpt lat="49.91336" lon="2.26674">
        <ele>18.7</ele>
        <time>2023-01-20T14:12:31Z</time>
      </trkpt>
      <trkpt lat="49.91335" lon="2.26676">
        <ele>18.7</ele>
        <time>2023-01-20T14:12:32Z</time>
      </trkpt>
      <trkpt lat="49.91334" lon="2.26677">
        <ele>18.7</ele>
        <time>2023-01-20T14:12:33Z</time>
      </trkpt>
      <trkpt lat="49.91332" lon="2.26679">
        <ele>18.7</ele>
        <time>2023-01-20T14:12:34Z</time>
      </trkpt>
      <trkpt lat="49.91331" lon="2.26681">
        <ele>18.7</ele>
        <time>2023-01-20T14:12:35Z</time>
      </trkpt>
      <trkpt lat="49.91329" lon="2.26683">
        <ele>18.7</ele>
        <time>2023-01-20T14:12:37Z</time>
      </trkpt>
      <trkpt lat="49.91326" lon="2.26686">
        <ele>18.7</ele>
        <time>2023-01-20T14:12:38Z</time>
      </trkpt>
      <trkpt lat="49.91324" lon="2.26688">
        <ele>18.7</ele>
        <time>2023-01-20T14:12:39Z</time>
      </trkpt>
      <trkpt lat="49.91322" lon="2.26691">
        <ele>18.7</ele>
        <time>2023-01-20T14:12:40Z</time>
      </trkpt>
      <trkpt lat="49.91321" lon="2.26692">
        <ele>18.7</ele>
        <time>2023-01-20T14:12:41Z</time>
      </trkpt>
      <trkpt lat="49.91319" lon="2.26694">
        <ele>18.7</ele>
        <time>2023-01-20T14:12:42Z</time>
      </trkpt>
      <trkpt lat="49.91318" lon="2.26696">
        <ele>18.7</ele>
        <time>2023-01-20T14:12:44Z</time>
      </trkpt>
      <trkpt lat="49.91317" lon="2.26697">
        <ele>18.7</ele>
        <time>2023-01-20T14:12:45Z</time>
      </trkpt>
      <trkpt lat="49.91317" lon="2.26697">
        <ele>18.7</ele>
        <time>2023-01-20T14:12:46Z</time>
      </trkpt>
      <trkpt lat="49.91316" lon="2.26698">
        <ele>18.7</ele>
        <time>2023-01-20T14:12:47Z</time>
      </trkpt>
      <trkpt lat="49.91316" lon="2.26699">
        <ele>18.7</ele>
        <time>2023-01-20T14:12:48Z</time>
      </trkpt>
      <trkpt lat="49.91315" lon="2.26701">
        <ele>18.7</ele>
        <time>2023-01-20T14:12:49Z</time>
      </trkpt>
      <trkpt lat="49.91314" lon="2.26702">
        <ele>18.8</ele>
        <time>2023-01-20T14:12:50Z</time>
      </trkpt>
      <trkpt lat="49.91313" lon="2.26702">
        <ele>18.8</ele>
        <time>2023-01-20T14:12:51Z</time>
      </trkpt>
      <trkpt lat="49.91312" lon="2.26705">
        <ele>18.8</ele>
        <time>2023-01-20T14:12:53Z</time>
      </trkpt>
      <trkpt lat="49.91312" lon="2.26706">
        <ele>18.8</ele>
        <time>2023-01-20T14:12:54Z</time>
      </trkpt>
      <trkpt lat="49.91311" lon="2.26707">
        <ele>18.8</ele>
        <time>2023-01-20T14:12:55Z</time>
      </trkpt>
      <trkpt lat="49.91311" lon="2.26709">
        <ele>18.8</ele>
        <time>2023-01-20T14:12:56Z</time>
      </trkpt>
      <trkpt lat="49.9131" lon="2.26711">
        <ele>18.8</ele>
        <time>2023-01-20T14:12:57Z</time>
      </trkpt>
      <trkpt lat="49.91308" lon="2.26714">
        <ele>18.8</ele>
        <time>2023-01-20T14:12:58Z</time>
      </trkpt>
      <trkpt lat="49.91307" lon="2.26715">
        <ele>18.8</ele>
        <time>2023-01-20T14:12:59Z</time>
      </trkpt>
      <trkpt lat="49.91306" lon="2.26719">
        <ele>18.7</ele>
        <time>2023-01-20T14:13:00Z</time>
      </trkpt>
      <trkpt lat="49.91305" lon="2.26721">
        <ele>18.7</ele>
        <time>2023-01-20T14:13:01Z</time>
      </trkpt>
      <trkpt lat="49.91304" lon="2.26723">
        <ele>18.7</ele>
        <time>2023-01-20T14:13:03Z</time>
      </trkpt>
      <trkpt lat="49.91303" lon="2.26725">
        <ele>18.7</ele>
        <time>2023-01-20T14:13:04Z</time>
      </trkpt>
      <trkpt lat="49.91302" lon="2.26726">
        <ele>18.7</ele>
        <time>2023-01-20T14:13:05Z</time>
      </trkpt>
      <trkpt lat="49.91302" lon="2.26728">
        <ele>18.7</ele>
        <time>2023-01-20T14:13:06Z</time>
      </trkpt>
      <trkpt lat="49.91301" lon="2.26729">
        <ele>18.7</ele>
        <time>2023-01-20T14:13:07Z</time>
      </trkpt>
      <trkpt lat="49.91301" lon="2.2673">
        <ele>18.7</ele>
        <time>2023-01-20T14:13:08Z</time>
      </trkpt>
      <trkpt lat="49.913" lon="2.26732">
        <ele>18.7</ele>
        <time>2023-01-20T14:13:09Z</time>
      </trkpt>
      <trkpt lat="49.913" lon="2.26733">
        <ele>18.7</ele>
        <time>2023-01-20T14:13:10Z</time>
      </trkpt>
      <trkpt lat="49.91299" lon="2.26735">
        <ele>18.7</ele>
        <time>2023-01-20T14:13:12Z</time>
      </trkpt>
      <trkpt lat="49.91298" lon="2.26736">
        <ele>18.7</ele>
        <time>2023-01-20T14:13:13Z</time>
      </trkpt>
      <trkpt lat="49.91297" lon="2.26737">
        <ele>18.7</ele>
        <time>2023-01-20T14:13:14Z</time>
      </trkpt>
      <trkpt lat="49.91297" lon="2.26739">
        <ele>18.7</ele>
        <time>2023-01-20T14:13:15Z</time>
      </trkpt>
      <trkpt lat="49.91296" lon="2.26741">
        <ele>18.7</ele>
        <time>2023-01-20T14:13:16Z</time>
      </trkpt>
      <trkpt lat="49.91296" lon="2.26743">
        <ele>18.7</ele>
        <time>2023-01-20T14:13:17Z</time>
      </trkpt>
      <trkpt lat="49.91295" lon="2.26744">
        <ele>18.7</ele>
        <time>2023-01-20T14:13:18Z</time>
      </trkpt>
      <trkpt lat="49.91294" lon="2.26745">
        <ele>18.6</ele>
        <time>2023-01-20T14:13:20Z</time>
      </trkpt>
      <trkpt lat="49.91293" lon="2.26747">
        <ele>18.6</ele>
        <time>2023-01-20T14:13:21Z</time>
      </trkpt>
      <trkpt lat="49.91292" lon="2.26749">
        <ele>18.6</ele>
        <time>2023-01-20T14:13:22Z</time>
      </trkpt>
      <trkpt lat="49.91291" lon="2.2675">
        <ele>18.6</ele>
        <time>2023-01-20T14:13:23Z</time>
      </trkpt>
      <trkpt lat="49.9129" lon="2.26751">
        <ele>18.6</ele>
        <time>2023-01-20T14:13:24Z</time>
      </trkpt>
      <trkpt lat="49.91289" lon="2.26752">
        <ele>18.6</ele>
        <time>2023-01-20T14:13:25Z</time>
      </trkpt>
      <trkpt lat="49.91288" lon="2.26753">
        <ele>18.6</ele>
        <time>2023-01-20T14:13:26Z</time>
      </trkpt>
      <trkpt lat="49.91287" lon="2.26755">
        <ele>18.6</ele>
        <time>2023-01-20T14:13:27Z</time>
      </trkpt>
      <trkpt lat="49.91286" lon="2.26757">
        <ele>18.6</ele>
        <time>2023-01-20T14:13:29Z</time>
      </trkpt>
      <trkpt lat="49.91285" lon="2.26758">
        <ele>18.6</ele>
        <time>2023-01-20T14:13:30Z</time>
      </trkpt>
      <trkpt lat="49.91284" lon="2.26758">
        <ele>18.6</ele>
        <time>2023-01-20T14:13:31Z</time>
      </trkpt>
      <trkpt lat="49.91283" lon="2.2676">
        <ele>18.6</ele>
        <time>2023-01-20T14:13:32Z</time>
      </trkpt>
      <trkpt lat="49.91282" lon="2.26761">
        <ele>18.6</ele>
        <time>2023-01-20T14:13:33Z</time>
      </trkpt>
      <trkpt lat="49.91281" lon="2.26762">
        <ele>18.6</ele>
        <time>2023-01-20T14:13:34Z</time>
      </trkpt>
      <trkpt lat="49.9128" lon="2.26764">
        <ele>18.6</ele>
        <time>2023-01-20T14:13:35Z</time>
      </trkpt>
      <trkpt lat="49.91279" lon="2.26765">
        <ele>18.6</ele>
        <time>2023-01-20T14:13:37Z</time>
      </trkpt>
      <trkpt lat="49.91278" lon="2.26766">
        <ele>18.6</ele>
        <time>2023-01-20T14:13:38Z</time>
      </trkpt>
      <trkpt lat="49.91277" lon="2.26767">
        <ele>18.6</ele>
        <time>2023-01-20T14:13:39Z</time>
      </trkpt>
      <trkpt lat="49.91276" lon="2.26768">
        <ele>18.6</ele>
        <time>2023-01-20T14:13:40Z</time>
      </trkpt>
      <trkpt lat="49.91274" lon="2.2677">
        <ele>18.6</ele>
        <time>2023-01-20T14:13:41Z</time>
      </trkpt>
      <trkpt lat="49.91272" lon="2.26772">
        <ele>18.6</ele>
        <time>2023-01-20T14:13:43Z</time>
      </trkpt>
      <trkpt lat="49.91272" lon="2.26773">
        <ele>18.6</ele>
        <time>2023-01-20T14:13:45Z</time>
      </trkpt>
      <trkpt lat="49.91271" lon="2.26774">
        <ele>18.6</ele>
        <time>2023-01-20T14:13:46Z</time>
      </trkpt>
      <trkpt lat="49.9127" lon="2.26776">
        <ele>18.6</ele>
        <time>2023-01-20T14:13:47Z</time>
      </trkpt>
      <trkpt lat="49.91269" lon="2.26777">
        <ele>18.6</ele>
        <time>2023-01-20T14:13:48Z</time>
      </trkpt>
      <trkpt lat="49.91268" lon="2.26778">
        <ele>18.6</ele>
        <time>2023-01-20T14:13:49Z</time>
      </trkpt>
      <trkpt lat="49.91267" lon="2.26779">
        <ele>18.6</ele>
        <time>2023-01-20T14:13:50Z</time>
      </trkpt>
      <trkpt lat="49.91264" lon="2.26781">
        <ele>18.6</ele>
        <time>2023-01-20T14:13:51Z</time>
      </trkpt>
      <trkpt lat="49.91262" lon="2.26783">
        <ele>18.6</ele>
        <time>2023-01-20T14:13:53Z</time>
      </trkpt>
      <trkpt lat="49.91261" lon="2.26783">
        <ele>18.6</ele>
        <time>2023-01-20T14:13:54Z</time>
      </trkpt>
      <trkpt lat="49.9126" lon="2.26784">
        <ele>18.6</ele>
        <time>2023-01-20T14:13:55Z</time>
      </trkpt>
      <trkpt lat="49.91259" lon="2.26784">
        <ele>18.6</ele>
        <time>2023-01-20T14:13:56Z</time>
      </trkpt>
      <trkpt lat="49.91259" lon="2.26785">
        <ele>18.6</ele>
        <time>2023-01-20T14:13:57Z</time>
      </trkpt>
      <trkpt lat="49.91258" lon="2.26785">
        <ele>18.6</ele>
        <time>2023-01-20T14:13:58Z</time>
      </trkpt>
      <trkpt lat="49.91257" lon="2.26786">
        <ele>18.7</ele>
        <time>2023-01-20T14:13:59Z</time>
      </trkpt>
      <trkpt lat="49.91257" lon="2.26787">
        <ele>18.7</ele>
        <time>2023-01-20T14:14:01Z</time>
      </trkpt>
      <trkpt lat="49.91256" lon="2.26789">
        <ele>18.7</ele>
        <time>2023-01-20T14:14:02Z</time>
      </trkpt>
      <trkpt lat="49.91255" lon="2.26791">
        <ele>18.7</ele>
        <time>2023-01-20T14:14:03Z</time>
      </trkpt>
      <trkpt lat="49.91254" lon="2.26793">
        <ele>18.7</ele>
        <time>2023-01-20T14:14:04Z</time>
      </trkpt>
      <trkpt lat="49.91254" lon="2.26795">
        <ele>18.7</ele>
        <time>2023-01-20T14:14:05Z</time>
      </trkpt>
      <trkpt lat="49.91253" lon="2.26796">
        <ele>18.7</ele>
        <time>2023-01-20T14:14:06Z</time>
      </trkpt>
      <trkpt lat="49.91252" lon="2.268">
        <ele>18.7</ele>
        <time>2023-01-20T14:14:07Z</time>
      </trkpt>
      <trkpt lat="49.91251" lon="2.26801">
        <ele>18.7</ele>
        <time>2023-01-20T14:14:08Z</time>
      </trkpt>
      <trkpt lat="49.9125" lon="2.26804">
        <ele>18.7</ele>
        <time>2023-01-20T14:14:10Z</time>
      </trkpt>
      <trkpt lat="49.91249" lon="2.26806">
        <ele>18.7</ele>
        <time>2023-01-20T14:14:11Z</time>
      </trkpt>
      <trkpt lat="49.91248" lon="2.2681">
        <ele>18.7</ele>
        <time>2023-01-20T14:14:12Z</time>
      </trkpt>
      <trkpt lat="49.91247" lon="2.26811">
        <ele>18.7</ele>
        <time>2023-01-20T14:14:13Z</time>
      </trkpt>
      <trkpt lat="49.91246" lon="2.26814">
        <ele>18.7</ele>
        <time>2023-01-20T14:14:14Z</time>
      </trkpt>
      <trkpt lat="49.91246" lon="2.26816">
        <ele>18.7</ele>
        <time>2023-01-20T14:14:15Z</time>
      </trkpt>
      <trkpt lat="49.91245" lon="2.26819">
        <ele>18.7</ele>
        <time>2023-01-20T14:14:17Z</time>
      </trkpt>
      <trkpt lat="49.91245" lon="2.2682">
        <ele>18.7</ele>
        <time>2023-01-20T14:14:18Z</time>
      </trkpt>
      <trkpt lat="49.91245" lon="2.26821">
        <ele>18.7</ele>
        <time>2023-01-20T14:14:19Z</time>
      </trkpt>
      <trkpt lat="49.91245" lon="2.26823">
        <ele>18.7</ele>
        <time>2023-01-20T14:14:20Z</time>
      </trkpt>
      <trkpt lat="49.91245" lon="2.26823">
        <ele>18.7</ele>
        <time>2023-01-20T14:14:21Z</time>
      </trkpt>
      <trkpt lat="49.91245" lon="2.26825">
        <ele>18.7</ele>
        <time>2023-01-20T14:14:22Z</time>
      </trkpt>
      <trkpt lat="49.91245" lon="2.26826">
        <ele>18.7</ele>
        <time>2023-01-20T14:14:23Z</time>
      </trkpt>
      <trkpt lat="49.91244" lon="2.26828">
        <ele>18.7</ele>
        <time>2023-01-20T14:14:25Z</time>
      </trkpt>
      <trkpt lat="49.91244" lon="2.26828">
        <ele>18.7</ele>
        <time>2023-01-20T14:14:26Z</time>
      </trkpt>
      <trkpt lat="49.91244" lon="2.26829">
        <ele>18.7</ele>
        <time>2023-01-20T14:14:27Z</time>
      </trkpt>
      <trkpt lat="49.91245" lon="2.26828">
        <ele>18.7</ele>
        <time>2023-01-20T14:14:28Z</time>
      </trkpt>
      <trkpt lat="49.91246" lon="2.26827">
        <ele>18.7</ele>
        <time>2023-01-20T14:14:29Z</time>
      </trkpt>
      <trkpt lat="49.91246" lon="2.26828">
        <ele>18.7</ele>
        <time>2023-01-20T14:14:30Z</time>
      </trkpt>
      <trkpt lat="49.91246" lon="2.26829">
        <ele>18.7</ele>
        <time>2023-01-20T14:14:31Z</time>
      </trkpt>
      <trkpt lat="49.91246" lon="2.26829">
        <ele>18.7</ele>
        <time>2023-01-20T14:14:33Z</time>
      </trkpt>
      <trkpt lat="49.91246" lon="2.2683">
        <ele>18.7</ele>
        <time>2023-01-20T14:14:34Z</time>
      </trkpt>
      <trkpt lat="49.91246" lon="2.2683">
        <ele>18.7</ele>
        <time>2023-01-20T14:14:35Z</time>
      </trkpt>
      <trkpt lat="49.91245" lon="2.2683">
        <ele>18.7</ele>
        <time>2023-01-20T14:14:36Z</time>
      </trkpt>
      <trkpt lat="49.91245" lon="2.26831">
        <ele>18.7</ele>
        <time>2023-01-20T14:14:37Z</time>
      </trkpt>
      <trkpt lat="49.91245" lon="2.26831">
        <ele>18.7</ele>
        <time>2023-01-20T14:14:38Z</time>
      </trkpt>
      <trkpt lat="49.91244" lon="2.26832">
        <ele>18.7</ele>
        <time>2023-01-20T14:14:40Z</time>
      </trkpt>
      <trkpt lat="49.91244" lon="2.26832">
        <ele>18.7</ele>
        <time>2023-01-20T14:14:41Z</time>
      </trkpt>
      <trkpt lat="49.91245" lon="2.26833">
        <ele>18.7</ele>
        <time>2023-01-20T14:14:42Z</time>
      </trkpt>
      <trkpt lat="49.91245" lon="2.26833">
        <ele>18.7</ele>
        <time>2023-01-20T14:14:43Z</time>
      </trkpt>
      <trkpt lat="49.91245" lon="2.26833">
        <ele>18.7</ele>
        <time>2023-01-20T14:14:44Z</time>
      </trkpt>
      <trkpt lat="49.91245" lon="2.26834">
        <ele>18.7</ele>
        <time>2023-01-20T14:14:46Z</time>
      </trkpt>
      <trkpt lat="49.91245" lon="2.26833">
        <ele>18.7</ele>
        <time>2023-01-20T14:14:47Z</time>
      </trkpt>
      <trkpt lat="49.91245" lon="2.26831">
        <ele>18.6</ele>
        <time>2023-01-20T14:14:48Z</time>
      </trkpt>
      <trkpt lat="49.91245" lon="2.2683">
        <ele>18.6</ele>
        <time>2023-01-20T14:14:50Z</time>
      </trkpt>
      <trkpt lat="49.91245" lon="2.26829">
        <ele>18.6</ele>
        <time>2023-01-20T14:14:51Z</time>
      </trkpt>
      <trkpt lat="49.91245" lon="2.26827">
        <ele>18.6</ele>
        <time>2023-01-20T14:14:52Z</time>
      </trkpt>
      <trkpt lat="49.91244" lon="2.26827">
        <ele>18.6</ele>
        <time>2023-01-20T14:14:54Z</time>
      </trkpt>
      <trkpt lat="49.91244" lon="2.26826">
        <ele>18.6</ele>
        <time>2023-01-20T14:14:55Z</time>
      </trkpt>
      <trkpt lat="49.91244" lon="2.26825">
        <ele>18.6</ele>
        <time>2023-01-20T14:14:56Z</time>
      </trkpt>
      <trkpt lat="49.91244" lon="2.26825">
        <ele>18.6</ele>
        <time>2023-01-20T14:14:58Z</time>
      </trkpt>
      <trkpt lat="49.91244" lon="2.26825">
        <ele>18.6</ele>
        <time>2023-01-20T14:15:00Z</time>
      </trkpt>
      <trkpt lat="49.91244" lon="2.26825">
        <ele>18.6</ele>
        <time>2023-01-20T14:15:01Z</time>
      </trkpt>
      <trkpt lat="49.91244" lon="2.26826">
        <ele>18.6</ele>
        <time>2023-01-20T14:15:02Z</time>
      </trkpt>
      <trkpt lat="49.91244" lon="2.26826">
        <ele>18.6</ele>
        <time>2023-01-20T14:15:04Z</time>
      </trkpt>
      <trkpt lat="49.91244" lon="2.26826">
        <ele>18.6</ele>
        <time>2023-01-20T14:15:05Z</time>
      </trkpt>
      <trkpt lat="49.91244" lon="2.26827">
        <ele>18.6</ele>
        <time>2023-01-20T14:15:06Z</time>
      </trkpt>
      <trkpt lat="49.91244" lon="2.26827">
        <ele>18.6</ele>
        <time>2023-01-20T14:15:07Z</time>
      </trkpt>
      <trkpt lat="49.91244" lon="2.26827">
        <ele>18.6</ele>
        <time>2023-01-20T14:15:08Z</time>
      </trkpt>
      <trkpt lat="49.91244" lon="2.26828">
        <ele>18.6</ele>
        <time>2023-01-20T14:15:09Z</time>
      </trkpt>
      <trkpt lat="49.91244" lon="2.26828">
        <ele>18.6</ele>
        <time>2023-01-20T14:15:10Z</time>
      </trkpt>
      <trkpt lat="49.91244" lon="2.26828">
        <ele>18.6</ele>
        <time>2023-01-20T14:15:11Z</time>
      </trkpt>
      <trkpt lat="49.91244" lon="2.26829">
        <ele>18.6</ele>
        <time>2023-01-20T14:15:12Z</time>
      </trkpt>
      <trkpt lat="49.91244" lon="2.26829">
        <ele>18.6</ele>
        <time>2023-01-20T14:15:13Z</time>
      </trkpt>
      <trkpt lat="49.91244" lon="2.26829">
        <ele>18.6</ele>
        <time>2023-01-20T14:15:14Z</time>
      </trkpt>
      <trkpt lat="49.91244" lon="2.26829">
        <ele>18.6</ele>
        <time>2023-01-20T14:15:15Z</time>
      </trkpt>
      <trkpt lat="49.91244" lon="2.2683">
        <ele>18.6</ele>
        <time>2023-01-20T14:15:16Z</time>
      </trkpt>
      <trkpt lat="49.91244" lon="2.2683">
        <ele>18.6</ele>
        <time>2023-01-20T14:15:17Z</time>
      </trkpt>
      <trkpt lat="49.91244" lon="2.2683">
        <ele>18.6</ele>
        <time>2023-01-20T14:15:18Z</time>
      </trkpt>
      <trkpt lat="49.91244" lon="2.26831">
        <ele>18.6</ele>
        <time>2023-01-20T14:15:19Z</time>
      </trkpt>
      <trkpt lat="49.91244" lon="2.26831">
        <ele>18.6</ele>
        <time>2023-01-20T14:15:20Z</time>
      </trkpt>
      <trkpt lat="49.91244" lon="2.26831">
        <ele>18.6</ele>
        <time>2023-01-20T14:15:21Z</time>
      </trkpt>
      <trkpt lat="49.91244" lon="2.26832">
        <ele>18.6</ele>
        <time>2023-01-20T14:15:22Z</time>
      </trkpt>
      <trkpt lat="49.91244" lon="2.26832">
        <ele>18.6</ele>
        <time>2023-01-20T14:15:23Z</time>
      </trkpt>
      <trkpt lat="49.91244" lon="2.26832">
        <ele>18.7</ele>
        <time>2023-01-20T14:15:24Z</time>
      </trkpt>
      <trkpt lat="49.91244" lon="2.26832">
        <ele>18.7</ele>
        <time>2023-01-20T14:15:25Z</time>
      </trkpt>
      <trkpt lat="49.91244" lon="2.26833">
        <ele>18.7</ele>
        <time>2023-01-20T14:15:26Z</time>
      </trkpt>
      <trkpt lat="49.91244" lon="2.26833">
        <ele>18.7</ele>
        <time>2023-01-20T14:15:27Z</time>
      </trkpt>
      <trkpt lat="49.91244" lon="2.26833">
        <ele>18.7</ele>
        <time>2023-01-20T14:15:28Z</time>
      </trkpt>
      <trkpt lat="49.91244" lon="2.26834">
        <ele>18.7</ele>
        <time>2023-01-20T14:15:29Z</time>
      </trkpt>
      <trkpt lat="49.91244" lon="2.26834">
        <ele>18.7</ele>
        <time>2023-01-20T14:15:30Z</time>
      </trkpt>
      <trkpt lat="49.91244" lon="2.26834">
        <ele>18.7</ele>
        <time>2023-01-20T14:15:31Z</time>
      </trkpt>
      <trkpt lat="49.91244" lon="2.26835">
        <ele>18.7</ele>
        <time>2023-01-20T14:15:32Z</time>
      </trkpt>
      <trkpt lat="49.91244" lon="2.26835">
        <ele>18.7</ele>
        <time>2023-01-20T14:15:33Z</time>
      </trkpt>
      <trkpt lat="49.91244" lon="2.26835">
        <ele>18.7</ele>
        <time>2023-01-20T14:15:34Z</time>
      </trkpt>
      <trkpt lat="49.91243" lon="2.26835">
        <ele>18.7</ele>
        <time>2023-01-20T14:15:35Z</time>
      </trkpt>
      <trkpt lat="49.91243" lon="2.26836">
        <ele>18.7</ele>
        <time>2023-01-20T14:15:36Z</time>
      </trkpt>
      <trkpt lat="49.91243" lon="2.26836">
        <ele>18.7</ele>
        <time>2023-01-20T14:15:37Z</time>
      </trkpt>
      <trkpt lat="49.91243" lon="2.26836">
        <ele>18.7</ele>
        <time>2023-01-20T14:15:38Z</time>
      </trkpt>
      <trkpt lat="49.91243" lon="2.26837">
        <ele>18.7</ele>
        <time>2023-01-20T14:15:39Z</time>
      </trkpt>
      <trkpt lat="49.91243" lon="2.26837">
        <ele>18.7</ele>
        <time>2023-01-20T14:15:40Z</time>
      </trkpt>
      <trkpt lat="49.91243" lon="2.26837">
        <ele>18.7</ele>
        <time>2023-01-20T14:15:41Z</time>
      </trkpt>
      <trkpt lat="49.91243" lon="2.26838">
        <ele>18.7</ele>
        <time>2023-01-20T14:15:42Z</time>
      </trkpt>
      <trkpt lat="49.91243" lon="2.26838">
        <ele>18.7</ele>
        <time>2023-01-20T14:15:43Z</time>
      </trkpt>
      <trkpt lat="49.91243" lon="2.26838">
        <ele>18.7</ele>
        <time>2023-01-20T14:15:44Z</time>
      </trkpt>
      <trkpt lat="49.91243" lon="2.26838">
        <ele>18.7</ele>
        <time>2023-01-20T14:15:45Z</time>
      </trkpt>
      <trkpt lat="49.91243" lon="2.26839">
        <ele>18.7</ele>
        <time>2023-01-20T14:15:46Z</time>
      </trkpt>
      <trkpt lat="49.91243" lon="2.26839">
        <ele>18.7</ele>
        <time>2023-01-20T14:15:47Z</time>
      </trkpt>
      <trkpt lat="49.91243" lon="2.26839">
        <ele>18.7</ele>
        <time>2023-01-20T14:15:48Z</time>
      </trkpt>
      <trkpt lat="49.91243" lon="2.2684">
        <ele>18.7</ele>
        <time>2023-01-20T14:15:49Z</time>
      </trkpt>
      <trkpt lat="49.91243" lon="2.2684">
        <ele>18.7</ele>
        <time>2023-01-20T14:15:50Z</time>
      </trkpt>
      <trkpt lat="49.91243" lon="2.2684">
        <ele>18.7</ele>
        <time>2023-01-20T14:15:51Z</time>
      </trkpt>
      <trkpt lat="49.91243" lon="2.26841">
        <ele>18.7</ele>
        <time>2023-01-20T14:15:52Z</time>
      </trkpt>
      <trkpt lat="49.91243" lon="2.26841">
        <ele>18.7</ele>
        <time>2023-01-20T14:15:53Z</time>
      </trkpt>
      <trkpt lat="49.91243" lon="2.26841">
        <ele>18.7</ele>
        <time>2023-01-20T14:15:54Z</time>
      </trkpt>
      <trkpt lat="49.91243" lon="2.26841">
        <ele>18.7</ele>
        <time>2023-01-20T14:15:55Z</time>
      </trkpt>
      <trkpt lat="49.91243" lon="2.26842">
        <ele>18.7</ele>
        <time>2023-01-20T14:15:56Z</time>
      </trkpt>
      <trkpt lat="49.91243" lon="2.26842">
        <ele>18.7</ele>
        <time>2023-01-20T14:15:57Z</time>
      </trkpt>
      <trkpt lat="49.91243" lon="2.26842">
        <ele>18.7</ele>
        <time>2023-01-20T14:15:58Z</time>
      </trkpt>
      <trkpt lat="49.91243" lon="2.26843">
        <ele>18.7</ele>
        <time>2023-01-20T14:15:59Z</time>
      </trkpt>
      <trkpt lat="49.91243" lon="2.26843">
        <ele>18.7</ele>
        <time>2023-01-20T14:16:00Z</time>
      </trkpt>
      <trkpt lat="49.91243" lon="2.26843">
        <ele>18.7</ele>
        <time>2023-01-20T14:16:01Z</time>
      </trkpt>
      <trkpt lat="49.91243" lon="2.26844">
        <ele>18.7</ele>
        <time>2023-01-20T14:16:02Z</time>
      </trkpt>
      <trkpt lat="49.91243" lon="2.26844">
        <ele>18.7</ele>
        <time>2023-01-20T14:16:03Z</time>
      </trkpt>
      <trkpt lat="49.91243" lon="2.26844">
        <ele>18.7</ele>
        <time>2023-01-20T14:16:04Z</time>
      </trkpt>
      <trkpt lat="49.91243" lon="2.26844">
        <ele>18.7</ele>
        <time>2023-01-20T14:16:05Z</time>
      </trkpt>
      <trkpt lat="49.91243" lon="2.26845">
        <ele>18.7</ele>
        <time>2023-01-20T14:16:06Z</time>
      </trkpt>
      <trkpt lat="49.91243" lon="2.26845">
        <ele>18.7</ele>
        <time>2023-01-20T14:16:07Z</time>
      </trkpt>
      <trkpt lat="49.91243" lon="2.26845">
        <ele>18.7</ele>
        <time>2023-01-20T14:16:08Z</time>
      </trkpt>
      <trkpt lat="49.91243" lon="2.26846">
        <ele>18.7</ele>
        <time>2023-01-20T14:16:09Z</time>
      </trkpt>
      <trkpt lat="49.91243" lon="2.26846">
        <ele>18.7</ele>
        <time>2023-01-20T14:16:10Z</time>
      </trkpt>
      <trkpt lat="49.91243" lon="2.26846">
        <ele>18.7</ele>
        <time>2023-01-20T14:16:11Z</time>
      </trkpt>
      <trkpt lat="49.91243" lon="2.26847">
        <ele>18.7</ele>
        <time>2023-01-20T14:16:12Z</time>
      </trkpt>
      <trkpt lat="49.91243" lon="2.26847">
        <ele>18.7</ele>
        <time>2023-01-20T14:16:13Z</time>
      </trkpt>
      <trkpt lat="49.91243" lon="2.26849">
        <ele>18.7</ele>
        <time>2023-01-20T14:16:14Z</time>
      </trkpt>
      <trkpt lat="49.91243" lon="2.26849">
        <ele>18.7</ele>
        <time>2023-01-20T14:16:15Z</time>
      </trkpt>
      <trkpt lat="49.91243" lon="2.26849">
        <ele>18.7</ele>
        <time>2023-01-20T14:16:16Z</time>
      </trkpt>
      <trkpt lat="49.91243" lon="2.26849">
        <ele>18.7</ele>
        <time>2023-01-20T14:16:17Z</time>
      </trkpt>
      <trkpt lat="49.91243" lon="2.26849">
        <ele>18.7</ele>
        <time>2023-01-20T14:16:18Z</time>
      </trkpt>
      <trkpt lat="49.91243" lon="2.26849">
        <ele>18.7</ele>
        <time>2023-01-20T14:16:19Z</time>
      </trkpt>
      <trkpt lat="49.91243" lon="2.26849">
        <ele>18.7</ele>
        <time>2023-01-20T14:16:20Z</time>
      </trkpt>
      <trkpt lat="49.91243" lon="2.26849">
        <ele>18.7</ele>
        <time>2023-01-20T14:16:21Z</time>
      </trkpt>
      <trkpt lat="49.91243" lon="2.26849">
        <ele>18.7</ele>
        <time>2023-01-20T14:16:22Z</time>
      </trkpt>
      <trkpt lat="49.91243" lon="2.26849">
        <ele>18.7</ele>
        <time>2023-01-20T14:16:23Z</time>
      </trkpt>
      <trkpt lat="49.91242" lon="2.26849">
        <ele>18.7</ele>
        <time>2023-01-20T14:16:24Z</time>
      </trkpt>
      <trkpt lat="49.91242" lon="2.26849">
        <ele>18.7</ele>
        <time>2023-01-20T14:16:25Z</time>
      </trkpt>
      <trkpt lat="49.91242" lon="2.26849">
        <ele>18.7</ele>
        <time>2023-01-20T14:16:26Z</time>
      </trkpt>
      <trkpt lat="49.91242" lon="2.26849">
        <ele>18.7</ele>
        <time>2023-01-20T14:16:27Z</time>
      </trkpt>
      <trkpt lat="49.91242" lon="2.26849">
        <ele>18.7</ele>
        <time>2023-01-20T14:16:28Z</time>
      </trkpt>
      <trkpt lat="49.91242" lon="2.26849">
        <ele>18.7</ele>
        <time>2023-01-20T14:16:29Z</time>
      </trkpt>
      <trkpt lat="49.91242" lon="2.26849">
        <ele>18.7</ele>
        <time>2023-01-20T14:16:30Z</time>
      </trkpt>
      <trkpt lat="49.91242" lon="2.26849">
        <ele>18.7</ele>
        <time>2023-01-20T14:16:31Z</time>
      </trkpt>
      <trkpt lat="49.91242" lon="2.26849">
        <ele>18.7</ele>
        <time>2023-01-20T14:16:32Z</time>
      </trkpt>
      <trkpt lat="49.91242" lon="2.26849">
        <ele>18.7</ele>
        <time>2023-01-20T14:16:33Z</time>
      </trkpt>
      <trkpt lat="49.91242" lon="2.26849">
        <ele>18.7</ele>
        <time>2023-01-20T14:16:34Z</time>
      </trkpt>
      <trkpt lat="49.91242" lon="2.26849">
        <ele>18.7</ele>
        <time>2023-01-20T14:16:35Z</time>
      </trkpt>
      <trkpt lat="49.91242" lon="2.26849">
        <ele>18.7</ele>
        <time>2023-01-20T14:16:36Z</time>
      </trkpt>
      <trkpt lat="49.91242" lon="2.26849">
        <ele>18.7</ele>
        <time>2023-01-20T14:16:37Z</time>
      </trkpt>
      <trkpt lat="49.91242" lon="2.26849">
        <ele>18.7</ele>
        <time>2023-01-20T14:16:38Z</time>
      </trkpt>
      <trkpt lat="49.91242" lon="2.26849">
        <ele>18.7</ele>
        <time>2023-01-20T14:16:39Z</time>
      </trkpt>
      <trkpt lat="49.91242" lon="2.26849">
        <ele>18.7</ele>
        <time>2023-01-20T14:16:40Z</time>
      </trkpt>
      <trkpt lat="49.91242" lon="2.26849">
        <ele>18.7</ele>
        <time>2023-01-20T14:16:41Z</time>
      </trkpt>
      <trkpt lat="49.91242" lon="2.26849">
        <ele>18.7</ele>
        <time>2023-01-20T14:16:42Z</time>
      </trkpt>
      <trkpt lat="49.91242" lon="2.26849">
        <ele>18.7</ele>
        <time>2023-01-20T14:16:43Z</time>
      </trkpt>
      <trkpt lat="49.91242" lon="2.26849">
        <ele>18.7</ele>
        <time>2023-01-20T14:16:44Z</time>
      </trkpt>
      <trkpt lat="49.91242" lon="2.26849">
        <ele>18.7</ele>
        <time>2023-01-20T14:16:45Z</time>
      </trkpt>
      <trkpt lat="49.91242" lon="2.2685">
        <ele>18.7</ele>
        <time>2023-01-20T14:16:46Z</time>
      </trkpt>
      <trkpt lat="49.91242" lon="2.2685">
        <ele>18.7</ele>
        <time>2023-01-20T14:16:47Z</time>
      </trkpt>
      <trkpt lat="49.91242" lon="2.2685">
        <ele>18.7</ele>
        <time>2023-01-20T14:16:48Z</time>
      </trkpt>
      <trkpt lat="49.91242" lon="2.2685">
        <ele>18.7</ele>
        <time>2023-01-20T14:16:49Z</time>
      </trkpt>
      <trkpt lat="49.91242" lon="2.2685">
        <ele>18.7</ele>
        <time>2023-01-20T14:16:50Z</time>
      </trkpt>
      <trkpt lat="49.91242" lon="2.2685">
        <ele>18.7</ele>
        <time>2023-01-20T14:16:51Z</time>
      </trkpt>
      <trkpt lat="49.91242" lon="2.2685">
        <ele>18.7</ele>
        <time>2023-01-20T14:16:52Z</time>
      </trkpt>
      <trkpt lat="49.91242" lon="2.2685">
        <ele>18.7</ele>
        <time>2023-01-20T14:16:53Z</time>
      </trkpt>
      <trkpt lat="49.91242" lon="2.2685">
        <ele>18.7</ele>
        <time>2023-01-20T14:16:54Z</time>
      </trkpt>
      <trkpt lat="49.91242" lon="2.2685">
        <ele>18.7</ele>
        <time>2023-01-20T14:16:55Z</time>
      </trkpt>
      <trkpt lat="49.91242" lon="2.2685">
        <ele>18.7</ele>
        <time>2023-01-20T14:16:56Z</time>
      </trkpt>
      <trkpt lat="49.91242" lon="2.2685">
        <ele>18.7</ele>
        <time>2023-01-20T14:16:57Z</time>
      </trkpt>
      <trkpt lat="49.91242" lon="2.2685">
        <ele>18.7</ele>
        <time>2023-01-20T14:16:58Z</time>
      </trkpt>
      <trkpt lat="49.91242" lon="2.2685">
        <ele>18.7</ele>
        <time>2023-01-20T14:16:59Z</time>
      </trkpt>
      <trkpt lat="49.91242" lon="2.2685">
        <ele>18.7</ele>
        <time>2023-01-20T14:17:00Z</time>
      </trkpt>
      <trkpt lat="49.91242" lon="2.2685">
        <ele>18.7</ele>
        <time>2023-01-20T14:17:01Z</time>
      </trkpt>
      <trkpt lat="49.91242" lon="2.2685">
        <ele>18.7</ele>
        <time>2023-01-20T14:17:02Z</time>
      </trkpt>
      <trkpt lat="49.91242" lon="2.2685">
        <ele>18.7</ele>
        <time>2023-01-20T14:17:03Z</time>
      </trkpt>
      <trkpt lat="49.91242" lon="2.2685">
        <ele>18.7</ele>
        <time>2023-01-20T14:17:04Z</time>
      </trkpt>
      <trkpt lat="49.91242" lon="2.2685">
        <ele>18.7</ele>
        <time>2023-01-20T14:17:05Z</time>
      </trkpt>
      <trkpt lat="49.91242" lon="2.2685">
        <ele>18.7</ele>
        <time>2023-01-20T14:17:06Z</time>
      </trkpt>
      <trkpt lat="49.91242" lon="2.2685">
        <ele>18.7</ele>
        <time>2023-01-20T14:17:07Z</time>
      </trkpt>
      <trkpt lat="49.91242" lon="2.2685">
        <ele>18.7</ele>
        <time>2023-01-20T14:17:08Z</time>
      </trkpt>
      <trkpt lat="49.91242" lon="2.2685">
        <ele>18.7</ele>
        <time>2023-01-20T14:17:09Z</time>
      </trkpt>
      <trkpt lat="49.91242" lon="2.2685">
        <ele>18.7</ele>
        <time>2023-01-20T14:17:10Z</time>
      </trkpt>
      <trkpt lat="49.91242" lon="2.2685">
        <ele>18.7</ele>
        <time>2023-01-20T14:17:11Z</time>
      </trkpt>
      <trkpt lat="49.91242" lon="2.2685">
        <ele>18.7</ele>
        <time>2023-01-20T14:17:12Z</time>
      </trkpt>
      <trkpt lat="49.91242" lon="2.2685">
        <ele>18.7</ele>
        <time>2023-01-20T14:17:13Z</time>
      </trkpt>
      <trkpt lat="49.91242" lon="2.2685">
        <ele>18.7</ele>
        <time>2023-01-20T14:17:14Z</time>
      </trkpt>
      <trkpt lat="49.91242" lon="2.2685">
        <ele>18.7</ele>
        <time>2023-01-20T14:17:15Z</time>
      </trkpt>
      <trkpt lat="49.91242" lon="2.2685">
        <ele>18.7</ele>
        <time>2023-01-20T14:17:16Z</time>
      </trkpt>
      <trkpt lat="49.91242" lon="2.2685">
        <ele>18.7</ele>
        <time>2023-01-20T14:17:17Z</time>
      </trkpt>
      <trkpt lat="49.91242" lon="2.2685">
        <ele>18.7</ele>
        <time>2023-01-20T14:17:18Z</time>
      </trkpt>
      <trkpt lat="49.91242" lon="2.2685">
        <ele>18.7</ele>
        <time>2023-01-20T14:17:19Z</time>
      </trkpt>
      <trkpt lat="49.91242" lon="2.2685">
        <ele>18.7</ele>
        <time>2023-01-20T14:17:20Z</time>
      </trkpt>
      <trkpt lat="49.91242" lon="2.2685">
        <ele>18.7</ele>
        <time>2023-01-20T14:17:21Z</time>
      </trkpt>
      <trkpt lat="49.91242" lon="2.2685">
        <ele>18.7</ele>
        <time>2023-01-20T14:17:22Z</time>
      </trkpt>
      <trkpt lat="49.91242" lon="2.2685">
        <ele>18.7</ele>
        <time>2023-01-20T14:17:23Z</time>
      </trkpt>
      <trkpt lat="49.91242" lon="2.2685">
        <ele>18.7</ele>
        <time>2023-01-20T14:17:24Z</time>
      </trkpt>
      <trkpt lat="49.91242" lon="2.2685">
        <ele>18.7</ele>
        <time>2023-01-20T14:17:25Z</time>
      </trkpt>
      <trkpt lat="49.91242" lon="2.2685">
        <ele>18.7</ele>
        <time>2023-01-20T14:17:26Z</time>
      </trkpt>
      <trkpt lat="49.91242" lon="2.2685">
        <ele>18.7</ele>
        <time>2023-01-20T14:17:27Z</time>
      </trkpt>
      <trkpt lat="49.91242" lon="2.2685">
        <ele>18.7</ele>
        <time>2023-01-20T14:17:28Z</time>
      </trkpt>
      <trkpt lat="49.91242" lon="2.2685">
        <ele>18.7</ele>
        <time>2023-01-20T14:17:29Z</time>
      </trkpt>
      <trkpt lat="49.91242" lon="2.2685">
        <ele>18.7</ele>
        <time>2023-01-20T14:17:30Z</time>
      </trkpt>
      <trkpt lat="49.91242" lon="2.2685">
        <ele>18.7</ele>
        <time>2023-01-20T14:17:31Z</time>
      </trkpt>
      <trkpt lat="49.91242" lon="2.2685">
        <ele>18.7</ele>
        <time>2023-01-20T14:17:32Z</time>
      </trkpt>
      <trkpt lat="49.91242" lon="2.2685">
        <ele>18.7</ele>
        <time>2023-01-20T14:17:33Z</time>
      </trkpt>
      <trkpt lat="49.91242" lon="2.26851">
        <ele>18.7</ele>
        <time>2023-01-20T14:17:34Z</time>
      </trkpt>
      <trkpt lat="49.91242" lon="2.26851">
        <ele>18.7</ele>
        <time>2023-01-20T14:17:35Z</time>
      </trkpt>
      <trkpt lat="49.91242" lon="2.26851">
        <ele>18.7</ele>
        <time>2023-01-20T14:17:36Z</time>
      </trkpt>
      <trkpt lat="49.91242" lon="2.26851">
        <ele>18.7</ele>
        <time>2023-01-20T14:17:37Z</time>
      </trkpt>
      <trkpt lat="49.91242" lon="2.26851">
        <ele>18.7</ele>
        <time>2023-01-20T14:17:38Z</time>
      </trkpt>
      <trkpt lat="49.91242" lon="2.26851">
        <ele>18.7</ele>
        <time>2023-01-20T14:17:39Z</time>
      </trkpt>
      <trkpt lat="49.91242" lon="2.26851">
        <ele>18.7</ele>
        <time>2023-01-20T14:17:40Z</time>
      </trkpt>
      <trkpt lat="49.91242" lon="2.26851">
        <ele>18.7</ele>
        <time>2023-01-20T14:17:41Z</time>
      </trkpt>
      <trkpt lat="49.91242" lon="2.26851">
        <ele>18.7</ele>
        <time>2023-01-20T14:17:42Z</time>
      </trkpt>
      <trkpt lat="49.91242" lon="2.26851">
        <ele>18.7</ele>
        <time>2023-01-20T14:17:43Z</time>
      </trkpt>
      <trkpt lat="49.91242" lon="2.26851">
        <ele>18.7</ele>
        <time>2023-01-20T14:17:44Z</time>
      </trkpt>
      <trkpt lat="49.91242" lon="2.26851">
        <ele>18.7</ele>
        <time>2023-01-20T14:17:45Z</time>
      </trkpt>
      <trkpt lat="49.91242" lon="2.26851">
        <ele>18.7</ele>
        <time>2023-01-20T14:17:46Z</time>
      </trkpt>
      <trkpt lat="49.91242" lon="2.26851">
        <ele>18.7</ele>
        <time>2023-01-20T14:17:47Z</time>
      </trkpt>
      <trkpt lat="49.91242" lon="2.26851">
        <ele>18.7</ele>
        <time>2023-01-20T14:17:48Z</time>
      </trkpt>
      <trkpt lat="49.91242" lon="2.26851">
        <ele>18.7</ele>
        <time>2023-01-20T14:17:49Z</time>
      </trkpt>
      <trkpt lat="49.91242" lon="2.26851">
        <ele>18.7</ele>
        <time>2023-01-20T14:17:50Z</time>
      </trkpt>
      <trkpt lat="49.91242" lon="2.26851">
        <ele>18.7</ele>
        <time>2023-01-20T14:17:51Z</time>
      </trkpt>
      <trkpt lat="49.91242" lon="2.26851">
        <ele>18.7</ele>
        <time>2023-01-20T14:17:52Z</time>
      </trkpt>
      <trkpt lat="49.91242" lon="2.26851">
        <ele>18.7</ele>
        <time>2023-01-20T14:17:53Z</time>
      </trkpt>
      <trkpt lat="49.91242" lon="2.26851">
        <ele>18.7</ele>
        <time>2023-01-20T14:17:54Z</time>
      </trkpt>
      <trkpt lat="49.91242" lon="2.26851">
        <ele>18.7</ele>
        <time>2023-01-20T14:17:55Z</time>
      </trkpt>
      <trkpt lat="49.91242" lon="2.26851">
        <ele>18.7</ele>
        <time>2023-01-20T14:17:56Z</time>
      </trkpt>
      <trkpt lat="49.91242" lon="2.26851">
        <ele>18.7</ele>
        <time>2023-01-20T14:17:57Z</time>
      </trkpt>
      <trkpt lat="49.91242" lon="2.26851">
        <ele>18.7</ele>
        <time>2023-01-20T14:17:58Z</time>
      </trkpt>
      <trkpt lat="49.91242" lon="2.26851">
        <ele>18.7</ele>
        <time>2023-01-20T14:17:59Z</time>
      </trkpt>
      <trkpt lat="49.91242" lon="2.26851">
        <ele>18.7</ele>
        <time>2023-01-20T14:18:00Z</time>
      </trkpt>
      <trkpt lat="49.91242" lon="2.26851">
        <ele>18.7</ele>
        <time>2023-01-20T14:18:01Z</time>
      </trkpt>
      <trkpt lat="49.91242" lon="2.26851">
        <ele>18.7</ele>
        <time>2023-01-20T14:18:02Z</time>
      </trkpt>
      <trkpt lat="49.91242" lon="2.26851">
        <ele>18.7</ele>
        <time>2023-01-20T14:18:03Z</time>
      </trkpt>
      <trkpt lat="49.91242" lon="2.26851">
        <ele>18.7</ele>
        <time>2023-01-20T14:18:04Z</time>
      </trkpt>
      <trkpt lat="49.91242" lon="2.26851">
        <ele>18.7</ele>
        <time>2023-01-20T14:18:05Z</time>
      </trkpt>
      <trkpt lat="49.91242" lon="2.26851">
        <ele>18.7</ele>
        <time>2023-01-20T14:18:06Z</time>
      </trkpt>
      <trkpt lat="49.91242" lon="2.26851">
        <ele>18.7</ele>
        <time>2023-01-20T14:18:07Z</time>
      </trkpt>
      <trkpt lat="49.91242" lon="2.26851">
        <ele>18.7</ele>
        <time>2023-01-20T14:18:08Z</time>
      </trkpt>
      <trkpt lat="49.91242" lon="2.26851">
        <ele>18.7</ele>
        <time>2023-01-20T14:18:09Z</time>
      </trkpt>
      <trkpt lat="49.91242" lon="2.26851">
        <ele>18.7</ele>
        <time>2023-01-20T14:18:10Z</time>
      </trkpt>
      <trkpt lat="49.91242" lon="2.26851">
        <ele>18.7</ele>
        <time>2023-01-20T14:18:11Z</time>
      </trkpt>
      <trkpt lat="49.91242" lon="2.26851">
        <ele>18.7</ele>
        <time>2023-01-20T14:18:12Z</time>
      </trkpt>
      <trkpt lat="49.91242" lon="2.26851">
        <ele>18.7</ele>
        <time>2023-01-20T14:18:13Z</time>
      </trkpt>
      <trkpt lat="49.91242" lon="2.26851">
        <ele>18.7</ele>
        <time>2023-01-20T14:18:14Z</time>
      </trkpt>
      <trkpt lat="49.91242" lon="2.26851">
        <ele>18.7</ele>
        <time>2023-01-20T14:18:15Z</time>
      </trkpt>
      <trkpt lat="49.91242" lon="2.26851">
        <ele>18.7</ele>
        <time>2023-01-20T14:18:16Z</time>
      </trkpt>
      <trkpt lat="49.91242" lon="2.26851">
        <ele>18.7</ele>
        <time>2023-01-20T14:18:17Z</time>
      </trkpt>
      <trkpt lat="49.91242" lon="2.26851">
        <ele>18.7</ele>
        <time>2023-01-20T14:18:18Z</time>
      </trkpt>
      <trkpt lat="49.91242" lon="2.26851">
        <ele>18.7</ele>
        <time>2023-01-20T14:18:19Z</time>
      </trkpt>
      <trkpt lat="49.91242" lon="2.26851">
        <ele>18.7</ele>
        <time>2023-01-20T14:18:20Z</time>
      </trkpt>
      <trkpt lat="49.91242" lon="2.26852">
        <ele>18.7</ele>
        <time>2023-01-20T14:18:21Z</time>
      </trkpt>
      <trkpt lat="49.91242" lon="2.26852">
        <ele>18.7</ele>
        <time>2023-01-20T14:18:22Z</time>
      </trkpt>
      <trkpt lat="49.91242" lon="2.26852">
        <ele>18.7</ele>
        <time>2023-01-20T14:18:23Z</time>
      </trkpt>
      <trkpt lat="49.91242" lon="2.26852">
        <ele>18.7</ele>
        <time>2023-01-20T14:18:24Z</time>
      </trkpt>
      <trkpt lat="49.91242" lon="2.26852">
        <ele>18.7</ele>
        <time>2023-01-20T14:18:25Z</time>
      </trkpt>
      <trkpt lat="49.91242" lon="2.26852">
        <ele>18.7</ele>
        <time>2023-01-20T14:18:26Z</time>
      </trkpt>
      <trkpt lat="49.91242" lon="2.26852">
        <ele>18.7</ele>
        <time>2023-01-20T14:18:27Z</time>
      </trkpt>
      <trkpt lat="49.91242" lon="2.26852">
        <ele>18.7</ele>
        <time>2023-01-20T14:18:28Z</time>
      </trkpt>
      <trkpt lat="49.91242" lon="2.26852">
        <ele>18.7</ele>
        <time>2023-01-20T14:18:29Z</time>
      </trkpt>
      <trkpt lat="49.91242" lon="2.26852">
        <ele>18.7</ele>
        <time>2023-01-20T14:18:30Z</time>
      </trkpt>
      <trkpt lat="49.91242" lon="2.26852">
        <ele>18.7</ele>
        <time>2023-01-20T14:18:31Z</time>
      </trkpt>
      <trkpt lat="49.91242" lon="2.26852">
        <ele>18.7</ele>
        <time>2023-01-20T14:18:32Z</time>
      </trkpt>
      <trkpt lat="49.91242" lon="2.26852">
        <ele>18.7</ele>
        <time>2023-01-20T14:18:33Z</time>
      </trkpt>
      <trkpt lat="49.91242" lon="2.26852">
        <ele>18.7</ele>
        <time>2023-01-20T14:18:34Z</time>
      </trkpt>
      <trkpt lat="49.91242" lon="2.26852">
        <ele>18.7</ele>
        <time>2023-01-20T14:18:35Z</time>
      </trkpt>
      <trkpt lat="49.91242" lon="2.26852">
        <ele>18.7</ele>
        <time>2023-01-20T14:18:36Z</time>
      </trkpt>
      <trkpt lat="49.91242" lon="2.26852">
        <ele>18.7</ele>
        <time>2023-01-20T14:18:37Z</time>
      </trkpt>
      <trkpt lat="49.91242" lon="2.26852">
        <ele>18.7</ele>
        <time>2023-01-20T14:18:38Z</time>
      </trkpt>
      <trkpt lat="49.91242" lon="2.26852">
        <ele>18.7</ele>
        <time>2023-01-20T14:18:39Z</time>
      </trkpt>
      <trkpt lat="49.91242" lon="2.26852">
        <ele>18.7</ele>
        <time>2023-01-20T14:18:40Z</time>
      </trkpt>
      <trkpt lat="49.91242" lon="2.26852">
        <ele>18.7</ele>
        <time>2023-01-20T14:18:41Z</time>
      </trkpt>
      <trkpt lat="49.91242" lon="2.26852">
        <ele>18.7</ele>
        <time>2023-01-20T14:18:42Z</time>
      </trkpt>
      <trkpt lat="49.91242" lon="2.26852">
        <ele>18.7</ele>
        <time>2023-01-20T14:18:43Z</time>
      </trkpt>
      <trkpt lat="49.91242" lon="2.26852">
        <ele>18.7</ele>
        <time>2023-01-20T14:18:44Z</time>
      </trkpt>
      <trkpt lat="49.91242" lon="2.26852">
        <ele>18.7</ele>
        <time>2023-01-20T14:18:45Z</time>
      </trkpt>
      <trkpt lat="49.91242" lon="2.26852">
        <ele>18.7</ele>
        <time>2023-01-20T14:18:46Z</time>
      </trkpt>
      <trkpt lat="49.91242" lon="2.26852">
        <ele>18.7</ele>
        <time>2023-01-20T14:18:47Z</time>
      </trkpt>
      <trkpt lat="49.91242" lon="2.26852">
        <ele>18.7</ele>
        <time>2023-01-20T14:18:48Z</time>
      </trkpt>
      <trkpt lat="49.91242" lon="2.26852">
        <ele>18.7</ele>
        <time>2023-01-20T14:18:49Z</time>
      </trkpt>
      <trkpt lat="49.91242" lon="2.26852">
        <ele>18.7</ele>
        <time>2023-01-20T14:18:50Z</time>
      </trkpt>
      <trkpt lat="49.91242" lon="2.26852">
        <ele>18.7</ele>
        <time>2023-01-20T14:18:51Z</time>
      </trkpt>
      <trkpt lat="49.91242" lon="2.26852">
        <ele>18.7</ele>
        <time>2023-01-20T14:18:52Z</time>
      </trkpt>
      <trkpt lat="49.91242" lon="2.26852">
        <ele>18.7</ele>
        <time>2023-01-20T14:18:53Z</time>
      </trkpt>
      <trkpt lat="49.91242" lon="2.26852">
        <ele>18.7</ele>
        <time>2023-01-20T14:18:54Z</time>
      </trkpt>
      <trkpt lat="49.91242" lon="2.26852">
        <ele>18.7</ele>
        <time>2023-01-20T14:18:55Z</time>
      </trkpt>
      <trkpt lat="49.91242" lon="2.26852">
        <ele>18.7</ele>
        <time>2023-01-20T14:18:56Z</time>
      </trkpt>
      <trkpt lat="49.91242" lon="2.26852">
        <ele>18.7</ele>
        <time>2023-01-20T14:18:57Z</time>
      </trkpt>
      <trkpt lat="49.91242" lon="2.26852">
        <ele>18.7</ele>
        <time>2023-01-20T14:18:58Z</time>
      </trkpt>
      <trkpt lat="49.91242" lon="2.26852">
        <ele>18.7</ele>
        <time>2023-01-20T14:18:59Z</time>
      </trkpt>
      <trkpt lat="49.91242" lon="2.26852">
        <ele>18.7</ele>
        <time>2023-01-20T14:19:00Z</time>
      </trkpt>
      <trkpt lat="49.91242" lon="2.26852">
        <ele>18.7</ele>
        <time>2023-01-20T14:19:01Z</time>
      </trkpt>
      <trkpt lat="49.91242" lon="2.26852">
        <ele>18.7</ele>
        <time>2023-01-20T14:19:02Z</time>
      </trkpt>
      <trkpt lat="49.91242" lon="2.26852">
        <ele>18.7</ele>
        <time>2023-01-20T14:19:03Z</time>
      </trkpt>
      <trkpt lat="49.91242" lon="2.26852">
        <ele>18.7</ele>
        <time>2023-01-20T14:19:04Z</time>
      </trkpt>
      <trkpt lat="49.91242" lon="2.26852">
        <ele>18.7</ele>
        <time>2023-01-20T14:19:05Z</time>
      </trkpt>
      <trkpt lat="49.91242" lon="2.26854">
        <ele>18.7</ele>
        <time>2023-01-20T14:19:06Z</time>
      </trkpt>
      <trkpt lat="49.91242" lon="2.26855">
        <ele>18.7</ele>
        <time>2023-01-20T14:19:07Z</time>
      </trkpt>
      <trkpt lat="49.91242" lon="2.26856">
        <ele>18.7</ele>
        <time>2023-01-20T14:19:08Z</time>
      </trkpt>
      <trkpt lat="49.91242" lon="2.26857">
        <ele>18.7</ele>
        <time>2023-01-20T14:19:09Z</time>
      </trkpt>
      <trkpt lat="49.91242" lon="2.26857">
        <ele>18.7</ele>
        <time>2023-01-20T14:19:10Z</time>
      </trkpt>
      <trkpt lat="49.91242" lon="2.26857">
        <ele>18.7</ele>
        <time>2023-01-20T14:19:11Z</time>
      </trkpt>
      <trkpt lat="49.91242" lon="2.26857">
        <ele>18.7</ele>
        <time>2023-01-20T14:19:12Z</time>
      </trkpt>
      <trkpt lat="49.91242" lon="2.26856">
        <ele>18.7</ele>
        <time>2023-01-20T14:19:13Z</time>
      </trkpt>
      <trkpt lat="49.91241" lon="2.26856">
        <ele>18.7</ele>
        <time>2023-01-20T14:19:14Z</time>
      </trkpt>
      <trkpt lat="49.91241" lon="2.26856">
        <ele>18.7</ele>
        <time>2023-01-20T14:19:15Z</time>
      </trkpt>
      <trkpt lat="49.91241" lon="2.26856">
        <ele>18.7</ele>
        <time>2023-01-20T14:19:16Z</time>
      </trkpt>
      <trkpt lat="49.91241" lon="2.26856">
        <ele>18.7</ele>
        <time>2023-01-20T14:19:17Z</time>
      </trkpt>
      <trkpt lat="49.91241" lon="2.26856">
        <ele>18.7</ele>
        <time>2023-01-20T14:19:18Z</time>
      </trkpt>
      <trkpt lat="49.91241" lon="2.26856">
        <ele>18.7</ele>
        <time>2023-01-20T14:19:19Z</time>
      </trkpt>
      <trkpt lat="49.91241" lon="2.26856">
        <ele>18.7</ele>
        <time>2023-01-20T14:19:20Z</time>
      </trkpt>
      <trkpt lat="49.91241" lon="2.26856">
        <ele>18.7</ele>
        <time>2023-01-20T14:19:21Z</time>
      </trkpt>
      <trkpt lat="49.91241" lon="2.26856">
        <ele>18.7</ele>
        <time>2023-01-20T14:19:22Z</time>
      </trkpt>
      <trkpt lat="49.91241" lon="2.26856">
        <ele>18.7</ele>
        <time>2023-01-20T14:19:23Z</time>
      </trkpt>
      <trkpt lat="49.91241" lon="2.26856">
        <ele>18.7</ele>
        <time>2023-01-20T14:19:24Z</time>
      </trkpt>
      <trkpt lat="49.91241" lon="2.26856">
        <ele>18.7</ele>
        <time>2023-01-20T14:19:25Z</time>
      </trkpt>
      <trkpt lat="49.91241" lon="2.26856">
        <ele>18.7</ele>
        <time>2023-01-20T14:19:26Z</time>
      </trkpt>
      <trkpt lat="49.91241" lon="2.26856">
        <ele>18.7</ele>
        <time>2023-01-20T14:19:27Z</time>
      </trkpt>
      <trkpt lat="49.91241" lon="2.26856">
        <ele>18.7</ele>
        <time>2023-01-20T14:19:28Z</time>
      </trkpt>
      <trkpt lat="49.91241" lon="2.26856">
        <ele>18.7</ele>
        <time>2023-01-20T14:19:29Z</time>
      </trkpt>
      <trkpt lat="49.91241" lon="2.26857">
        <ele>18.7</ele>
        <time>2023-01-20T14:19:30Z</time>
      </trkpt>
      <trkpt lat="49.91241" lon="2.26857">
        <ele>18.7</ele>
        <time>2023-01-20T14:19:31Z</time>
      </trkpt>
      <trkpt lat="49.91241" lon="2.26857">
        <ele>18.7</ele>
        <time>2023-01-20T14:19:32Z</time>
      </trkpt>
      <trkpt lat="49.91241" lon="2.26858">
        <ele>18.7</ele>
        <time>2023-01-20T14:19:33Z</time>
      </trkpt>
      <trkpt lat="49.91241" lon="2.26858">
        <ele>18.7</ele>
        <time>2023-01-20T14:19:35Z</time>
      </trkpt>
      <trkpt lat="49.91241" lon="2.26859">
        <ele>18.7</ele>
        <time>2023-01-20T14:19:36Z</time>
      </trkpt>
      <trkpt lat="49.9124" lon="2.2686">
        <ele>18.7</ele>
        <time>2023-01-20T14:19:37Z</time>
      </trkpt>
      <trkpt lat="49.9124" lon="2.26861">
        <ele>18.7</ele>
        <time>2023-01-20T14:19:38Z</time>
      </trkpt>
      <trkpt lat="49.91239" lon="2.26862">
        <ele>18.7</ele>
        <time>2023-01-20T14:19:39Z</time>
      </trkpt>
      <trkpt lat="49.91239" lon="2.26863">
        <ele>18.7</ele>
        <time>2023-01-20T14:19:40Z</time>
      </trkpt>
      <trkpt lat="49.91239" lon="2.26864">
        <ele>18.7</ele>
        <time>2023-01-20T14:19:41Z</time>
      </trkpt>
      <trkpt lat="49.91238" lon="2.26865">
        <ele>18.7</ele>
        <time>2023-01-20T14:19:42Z</time>
      </trkpt>
      <trkpt lat="49.91238" lon="2.26866">
        <ele>18.7</ele>
        <time>2023-01-20T14:19:44Z</time>
      </trkpt>
      <trkpt lat="49.91238" lon="2.26866">
        <ele>18.7</ele>
        <time>2023-01-20T14:19:45Z</time>
      </trkpt>
      <trkpt lat="49.91238" lon="2.26866">
        <ele>18.7</ele>
        <time>2023-01-20T14:19:46Z</time>
      </trkpt>
      <trkpt lat="49.91238" lon="2.26867">
        <ele>18.7</ele>
        <time>2023-01-20T14:19:47Z</time>
      </trkpt>
      <trkpt lat="49.91238" lon="2.26867">
        <ele>18.7</ele>
        <time>2023-01-20T14:19:48Z</time>
      </trkpt>
      <trkpt lat="49.91238" lon="2.26868">
        <ele>18.7</ele>
        <time>2023-01-20T14:19:49Z</time>
      </trkpt>
      <trkpt lat="49.91237" lon="2.2687">
        <ele>18.7</ele>
        <time>2023-01-20T14:19:50Z</time>
      </trkpt>
      <trkpt lat="49.91237" lon="2.26871">
        <ele>18.7</ele>
        <time>2023-01-20T14:19:51Z</time>
      </trkpt>
      <trkpt lat="49.91237" lon="2.26872">
        <ele>18.7</ele>
        <time>2023-01-20T14:19:53Z</time>
      </trkpt>
      <trkpt lat="49.91236" lon="2.26873">
        <ele>18.7</ele>
        <time>2023-01-20T14:19:54Z</time>
      </trkpt>
      <trkpt lat="49.91236" lon="2.26873">
        <ele>18.7</ele>
        <time>2023-01-20T14:19:55Z</time>
      </trkpt>
      <trkpt lat="49.91236" lon="2.26874">
        <ele>18.7</ele>
        <time>2023-01-20T14:19:57Z</time>
      </trkpt>
      <trkpt lat="49.91236" lon="2.26875">
        <ele>18.7</ele>
        <time>2023-01-20T14:19:58Z</time>
      </trkpt>
      <trkpt lat="49.91235" lon="2.26876">
        <ele>18.7</ele>
        <time>2023-01-20T14:19:59Z</time>
      </trkpt>
      <trkpt lat="49.91235" lon="2.26877">
        <ele>18.7</ele>
        <time>2023-01-20T14:20:00Z</time>
      </trkpt>
      <trkpt lat="49.91235" lon="2.26878">
        <ele>18.7</ele>
        <time>2023-01-20T14:20:01Z</time>
      </trkpt>
      <trkpt lat="49.91234" lon="2.2688">
        <ele>18.7</ele>
        <time>2023-01-20T14:20:02Z</time>
      </trkpt>
      <trkpt lat="49.91234" lon="2.26883">
        <ele>18.8</ele>
        <time>2023-01-20T14:20:03Z</time>
      </trkpt>
      <trkpt lat="49.91233" lon="2.26885">
        <ele>18.8</ele>
        <time>2023-01-20T14:20:05Z</time>
      </trkpt>
      <trkpt lat="49.91233" lon="2.26887">
        <ele>18.8</ele>
        <time>2023-01-20T14:20:06Z</time>
      </trkpt>
      <trkpt lat="49.91231" lon="2.26892">
        <ele>18.8</ele>
        <time>2023-01-20T14:20:07Z</time>
      </trkpt>
      <trkpt lat="49.9123" lon="2.26896">
        <ele>18.8</ele>
        <time>2023-01-20T14:20:08Z</time>
      </trkpt>
      <trkpt lat="49.91229" lon="2.269">
        <ele>18.8</ele>
        <time>2023-01-20T14:20:09Z</time>
      </trkpt>
      <trkpt lat="49.91229" lon="2.26901">
        <ele>18.8</ele>
        <time>2023-01-20T14:20:10Z</time>
      </trkpt>
      <trkpt lat="49.91228" lon="2.26904">
        <ele>18.8</ele>
        <time>2023-01-20T14:20:12Z</time>
      </trkpt>
      <trkpt lat="49.91228" lon="2.26906">
        <ele>18.8</ele>
        <time>2023-01-20T14:20:13Z</time>
      </trkpt>
      <trkpt lat="49.91228" lon="2.26907">
        <ele>18.8</ele>
        <time>2023-01-20T14:20:14Z</time>
      </trkpt>
      <trkpt lat="49.91228" lon="2.26908">
        <ele>18.8</ele>
        <time>2023-01-20T14:20:15Z</time>
      </trkpt>
      <trkpt lat="49.91227" lon="2.26909">
        <ele>18.8</ele>
        <time>2023-01-20T14:20:16Z</time>
      </trkpt>
      <trkpt lat="49.91227" lon="2.2691">
        <ele>18.8</ele>
        <time>2023-01-20T14:20:17Z</time>
      </trkpt>
      <trkpt lat="49.91226" lon="2.26911">
        <ele>18.8</ele>
        <time>2023-01-20T14:20:18Z</time>
      </trkpt>
      <trkpt lat="49.91225" lon="2.26913">
        <ele>18.8</ele>
        <time>2023-01-20T14:20:20Z</time>
      </trkpt>
      <trkpt lat="49.91225" lon="2.26915">
        <ele>18.8</ele>
        <time>2023-01-20T14:20:21Z</time>
      </trkpt>
      <trkpt lat="49.91225" lon="2.26916">
        <ele>18.8</ele>
        <time>2023-01-20T14:20:22Z</time>
      </trkpt>
      <trkpt lat="49.91224" lon="2.26917">
        <ele>18.8</ele>
        <time>2023-01-20T14:20:23Z</time>
      </trkpt>
      <trkpt lat="49.91223" lon="2.26919">
        <ele>18.8</ele>
        <time>2023-01-20T14:20:24Z</time>
      </trkpt>
      <trkpt lat="49.91222" lon="2.26922">
        <ele>18.8</ele>
        <time>2023-01-20T14:20:25Z</time>
      </trkpt>
      <trkpt lat="49.91222" lon="2.26923">
        <ele>18.8</ele>
        <time>2023-01-20T14:20:27Z</time>
      </trkpt>
      <trkpt lat="49.91221" lon="2.26924">
        <ele>18.8</ele>
        <time>2023-01-20T14:20:28Z</time>
      </trkpt>
      <trkpt lat="49.9122" lon="2.26928">
        <ele>18.8</ele>
        <time>2023-01-20T14:20:29Z</time>
      </trkpt>
      <trkpt lat="49.9122" lon="2.26929">
        <ele>18.8</ele>
        <time>2023-01-20T14:20:30Z</time>
      </trkpt>
      <trkpt lat="49.91219" lon="2.2693">
        <ele>18.8</ele>
        <time>2023-01-20T14:20:31Z</time>
      </trkpt>
      <trkpt lat="49.91218" lon="2.26931">
        <ele>18.8</ele>
        <time>2023-01-20T14:20:32Z</time>
      </trkpt>
      <trkpt lat="49.91217" lon="2.26934">
        <ele>18.8</ele>
        <time>2023-01-20T14:20:34Z</time>
      </trkpt>
      <trkpt lat="49.91216" lon="2.26935">
        <ele>18.8</ele>
        <time>2023-01-20T14:20:35Z</time>
      </trkpt>
      <trkpt lat="49.91216" lon="2.26936">
        <ele>18.8</ele>
        <time>2023-01-20T14:20:36Z</time>
      </trkpt>
      <trkpt lat="49.91215" lon="2.26937">
        <ele>18.8</ele>
        <time>2023-01-20T14:20:37Z</time>
      </trkpt>
      <trkpt lat="49.91213" lon="2.26939">
        <ele>18.8</ele>
        <time>2023-01-20T14:20:38Z</time>
      </trkpt>
      <trkpt lat="49.91212" lon="2.2694">
        <ele>18.8</ele>
        <time>2023-01-20T14:20:40Z</time>
      </trkpt>
      <trkpt lat="49.91211" lon="2.26941">
        <ele>18.8</ele>
        <time>2023-01-20T14:20:41Z</time>
      </trkpt>
      <trkpt lat="49.91211" lon="2.26942">
        <ele>18.8</ele>
        <time>2023-01-20T14:20:42Z</time>
      </trkpt>
      <trkpt lat="49.9121" lon="2.26943">
        <ele>18.8</ele>
        <time>2023-01-20T14:20:43Z</time>
      </trkpt>
      <trkpt lat="49.91209" lon="2.26944">
        <ele>18.8</ele>
        <time>2023-01-20T14:20:44Z</time>
      </trkpt>
      <trkpt lat="49.91209" lon="2.26945">
        <ele>18.8</ele>
        <time>2023-01-20T14:20:45Z</time>
      </trkpt>
      <trkpt lat="49.91208" lon="2.26946">
        <ele>18.8</ele>
        <time>2023-01-20T14:20:46Z</time>
      </trkpt>
      <trkpt lat="49.91207" lon="2.26947">
        <ele>18.8</ele>
        <time>2023-01-20T14:20:47Z</time>
      </trkpt>
      <trkpt lat="49.91206" lon="2.26948">
        <ele>18.8</ele>
        <time>2023-01-20T14:20:48Z</time>
      </trkpt>
      <trkpt lat="49.91206" lon="2.26949">
        <ele>18.8</ele>
        <time>2023-01-20T14:20:50Z</time>
      </trkpt>
      <trkpt lat="49.91205" lon="2.2695">
        <ele>18.8</ele>
        <time>2023-01-20T14:20:51Z</time>
      </trkpt>
      <trkpt lat="49.91204" lon="2.26951">
        <ele>18.8</ele>
        <time>2023-01-20T14:20:52Z</time>
      </trkpt>
      <trkpt lat="49.91204" lon="2.26951">
        <ele>18.8</ele>
        <time>2023-01-20T14:20:53Z</time>
      </trkpt>
      <trkpt lat="49.91203" lon="2.26951">
        <ele>18.8</ele>
        <time>2023-01-20T14:20:54Z</time>
      </trkpt>
      <trkpt lat="49.91203" lon="2.26952">
        <ele>18.8</ele>
        <time>2023-01-20T14:20:55Z</time>
      </trkpt>
      <trkpt lat="49.91202" lon="2.26952">
        <ele>18.8</ele>
        <time>2023-01-20T14:20:56Z</time>
      </trkpt>
      <trkpt lat="49.91201" lon="2.26953">
        <ele>18.8</ele>
        <time>2023-01-20T14:20:58Z</time>
      </trkpt>
      <trkpt lat="49.912" lon="2.26953">
        <ele>18.8</ele>
        <time>2023-01-20T14:20:59Z</time>
      </trkpt>
      <trkpt lat="49.912" lon="2.26953">
        <ele>18.8</ele>
        <time>2023-01-20T14:21:00Z</time>
      </trkpt>
      <trkpt lat="49.91199" lon="2.26954">
        <ele>18.8</ele>
        <time>2023-01-20T14:21:01Z</time>
      </trkpt>
      <trkpt lat="49.91198" lon="2.26955">
        <ele>18.8</ele>
        <time>2023-01-20T14:21:02Z</time>
      </trkpt>
      <trkpt lat="49.91198" lon="2.26956">
        <ele>18.8</ele>
        <time>2023-01-20T14:21:03Z</time>
      </trkpt>
      <trkpt lat="49.91197" lon="2.26957">
        <ele>18.8</ele>
        <time>2023-01-20T14:21:05Z</time>
      </trkpt>
      <trkpt lat="49.91198" lon="2.26956">
        <ele>18.8</ele>
        <time>2023-01-20T14:21:06Z</time>
      </trkpt>
      <trkpt lat="49.91197" lon="2.26957">
        <ele>18.8</ele>
        <time>2023-01-20T14:21:07Z</time>
      </trkpt>
      <trkpt lat="49.91197" lon="2.26957">
        <ele>18.8</ele>
        <time>2023-01-20T14:21:08Z</time>
      </trkpt>
      <trkpt lat="49.91197" lon="2.26958">
        <ele>18.8</ele>
        <time>2023-01-20T14:21:09Z</time>
      </trkpt>
      <trkpt lat="49.91196" lon="2.26959">
        <ele>18.8</ele>
        <time>2023-01-20T14:21:10Z</time>
      </trkpt>
      <trkpt lat="49.91195" lon="2.26961">
        <ele>18.8</ele>
        <time>2023-01-20T14:21:12Z</time>
      </trkpt>
      <trkpt lat="49.91194" lon="2.26962">
        <ele>18.8</ele>
        <time>2023-01-20T14:21:13Z</time>
      </trkpt>
      <trkpt lat="49.91193" lon="2.26964">
        <ele>18.8</ele>
        <time>2023-01-20T14:21:14Z</time>
      </trkpt>
      <trkpt lat="49.91193" lon="2.26965">
        <ele>18.8</ele>
        <time>2023-01-20T14:21:15Z</time>
      </trkpt>
      <trkpt lat="49.91192" lon="2.26966">
        <ele>18.8</ele>
        <time>2023-01-20T14:21:16Z</time>
      </trkpt>
      <trkpt lat="49.91191" lon="2.26968">
        <ele>18.8</ele>
        <time>2023-01-20T14:21:17Z</time>
      </trkpt>
      <trkpt lat="49.9119" lon="2.26969">
        <ele>18.8</ele>
        <time>2023-01-20T14:21:19Z</time>
      </trkpt>
      <trkpt lat="49.91189" lon="2.2697">
        <ele>18.8</ele>
        <time>2023-01-20T14:21:20Z</time>
      </trkpt>
      <trkpt lat="49.91188" lon="2.26971">
        <ele>18.8</ele>
        <time>2023-01-20T14:21:21Z</time>
      </trkpt>
      <trkpt lat="49.91187" lon="2.26974">
        <ele>18.8</ele>
        <time>2023-01-20T14:21:22Z</time>
      </trkpt>
      <trkpt lat="49.91187" lon="2.26975">
        <ele>18.8</ele>
        <time>2023-01-20T14:21:23Z</time>
      </trkpt>
      <trkpt lat="49.91186" lon="2.26976">
        <ele>18.8</ele>
        <time>2023-01-20T14:21:24Z</time>
      </trkpt>
      <trkpt lat="49.91184" lon="2.26979">
        <ele>18.8</ele>
        <time>2023-01-20T14:21:25Z</time>
      </trkpt>
      <trkpt lat="49.91183" lon="2.2698">
        <ele>18.8</ele>
        <time>2023-01-20T14:21:26Z</time>
      </trkpt>
      <trkpt lat="49.91182" lon="2.26982">
        <ele>18.8</ele>
        <time>2023-01-20T14:21:27Z</time>
      </trkpt>
      <trkpt lat="49.9118" lon="2.26984">
        <ele>18.8</ele>
        <time>2023-01-20T14:21:29Z</time>
      </trkpt>
      <trkpt lat="49.91178" lon="2.26987">
        <ele>18.8</ele>
        <time>2023-01-20T14:21:30Z</time>
      </trkpt>
      <trkpt lat="49.91178" lon="2.26988">
        <ele>18.8</ele>
        <time>2023-01-20T14:21:31Z</time>
      </trkpt>
      <trkpt lat="49.91177" lon="2.26989">
        <ele>18.8</ele>
        <time>2023-01-20T14:21:32Z</time>
      </trkpt>
      <trkpt lat="49.91176" lon="2.2699">
        <ele>18.8</ele>
        <time>2023-01-20T14:21:33Z</time>
      </trkpt>
      <trkpt lat="49.91176" lon="2.26992">
        <ele>18.8</ele>
        <time>2023-01-20T14:21:34Z</time>
      </trkpt>
      <trkpt lat="49.91175" lon="2.26993">
        <ele>18.8</ele>
        <time>2023-01-20T14:21:35Z</time>
      </trkpt>
      <trkpt lat="49.91174" lon="2.26994">
        <ele>18.8</ele>
        <time>2023-01-20T14:21:36Z</time>
      </trkpt>
      <trkpt lat="49.91173" lon="2.26994">
        <ele>18.8</ele>
        <time>2023-01-20T14:21:38Z</time>
      </trkpt>
      <trkpt lat="49.91172" lon="2.26996">
        <ele>18.8</ele>
        <time>2023-01-20T14:21:39Z</time>
      </trkpt>
      <trkpt lat="49.91172" lon="2.26997">
        <ele>18.8</ele>
        <time>2023-01-20T14:21:40Z</time>
      </trkpt>
      <trkpt lat="49.91171" lon="2.26998">
        <ele>18.8</ele>
        <time>2023-01-20T14:21:41Z</time>
      </trkpt>
      <trkpt lat="49.91171" lon="2.26998">
        <ele>18.8</ele>
        <time>2023-01-20T14:21:42Z</time>
      </trkpt>
      <trkpt lat="49.91171" lon="2.26999">
        <ele>18.8</ele>
        <time>2023-01-20T14:21:43Z</time>
      </trkpt>
      <trkpt lat="49.9117" lon="2.27">
        <ele>18.8</ele>
        <time>2023-01-20T14:21:44Z</time>
      </trkpt>
      <trkpt lat="49.91169" lon="2.27001">
        <ele>18.8</ele>
        <time>2023-01-20T14:21:45Z</time>
      </trkpt>
      <trkpt lat="49.91169" lon="2.27001">
        <ele>18.8</ele>
        <time>2023-01-20T14:21:46Z</time>
      </trkpt>
      <trkpt lat="49.91168" lon="2.27003">
        <ele>18.8</ele>
        <time>2023-01-20T14:21:48Z</time>
      </trkpt>
      <trkpt lat="49.91167" lon="2.27004">
        <ele>18.8</ele>
        <time>2023-01-20T14:21:49Z</time>
      </trkpt>
      <trkpt lat="49.91167" lon="2.27005">
        <ele>18.8</ele>
        <time>2023-01-20T14:21:50Z</time>
      </trkpt>
      <trkpt lat="49.91165" lon="2.27007">
        <ele>18.8</ele>
        <time>2023-01-20T14:21:51Z</time>
      </trkpt>
      <trkpt lat="49.91164" lon="2.27008">
        <ele>18.8</ele>
        <time>2023-01-20T14:21:53Z</time>
      </trkpt>
      <trkpt lat="49.91163" lon="2.27009">
        <ele>18.8</ele>
        <time>2023-01-20T14:21:54Z</time>
      </trkpt>
      <trkpt lat="49.91161" lon="2.2701">
        <ele>18.8</ele>
        <time>2023-01-20T14:21:55Z</time>
      </trkpt>
      <trkpt lat="49.9116" lon="2.2701">
        <ele>18.8</ele>
        <time>2023-01-20T14:21:56Z</time>
      </trkpt>
      <trkpt lat="49.91159" lon="2.2701">
        <ele>18.8</ele>
        <time>2023-01-20T14:21:57Z</time>
      </trkpt>
      <trkpt lat="49.91158" lon="2.27012">
        <ele>18.9</ele>
        <time>2023-01-20T14:21:58Z</time>
      </trkpt>
      <trkpt lat="49.91156" lon="2.27013">
        <ele>18.9</ele>
        <time>2023-01-20T14:21:59Z</time>
      </trkpt>
      <trkpt lat="49.91154" lon="2.27016">
        <ele>18.9</ele>
        <time>2023-01-20T14:22:00Z</time>
      </trkpt>
      <trkpt lat="49.91153" lon="2.27017">
        <ele>18.9</ele>
        <time>2023-01-20T14:22:01Z</time>
      </trkpt>
      <trkpt lat="49.91151" lon="2.27019">
        <ele>18.9</ele>
        <time>2023-01-20T14:22:02Z</time>
      </trkpt>
      <trkpt lat="49.91149" lon="2.27022">
        <ele>18.9</ele>
        <time>2023-01-20T14:22:04Z</time>
      </trkpt>
      <trkpt lat="49.91147" lon="2.27026">
        <ele>18.9</ele>
        <time>2023-01-20T14:22:05Z</time>
      </trkpt>
      <trkpt lat="49.91146" lon="2.27027">
        <ele>18.9</ele>
        <time>2023-01-20T14:22:06Z</time>
      </trkpt>
      <trkpt lat="49.91145" lon="2.27028">
        <ele>18.9</ele>
        <time>2023-01-20T14:22:07Z</time>
      </trkpt>
      <trkpt lat="49.91144" lon="2.2703">
        <ele>18.9</ele>
        <time>2023-01-20T14:22:08Z</time>
      </trkpt>
      <trkpt lat="49.91143" lon="2.27031">
        <ele>18.9</ele>
        <time>2023-01-20T14:22:09Z</time>
      </trkpt>
      <trkpt lat="49.91142" lon="2.27033">
        <ele>18.9</ele>
        <time>2023-01-20T14:22:10Z</time>
      </trkpt>
      <trkpt lat="49.91141" lon="2.27033">
        <ele>18.9</ele>
        <time>2023-01-20T14:22:11Z</time>
      </trkpt>
      <trkpt lat="49.9114" lon="2.27034">
        <ele>18.9</ele>
        <time>2023-01-20T14:22:13Z</time>
      </trkpt>
      <trkpt lat="49.91139" lon="2.27036">
        <ele>18.9</ele>
        <time>2023-01-20T14:22:14Z</time>
      </trkpt>
      <trkpt lat="49.91138" lon="2.27037">
        <ele>18.9</ele>
        <time>2023-01-20T14:22:15Z</time>
      </trkpt>
      <trkpt lat="49.91138" lon="2.27038">
        <ele>18.9</ele>
        <time>2023-01-20T14:22:16Z</time>
      </trkpt>
      <trkpt lat="49.91137" lon="2.2704">
        <ele>18.9</ele>
        <time>2023-01-20T14:22:17Z</time>
      </trkpt>
      <trkpt lat="49.91136" lon="2.2704">
        <ele>18.9</ele>
        <time>2023-01-20T14:22:19Z</time>
      </trkpt>
      <trkpt lat="49.91136" lon="2.27041">
        <ele>18.9</ele>
        <time>2023-01-20T14:22:20Z</time>
      </trkpt>
      <trkpt lat="49.91136" lon="2.27042">
        <ele>18.9</ele>
        <time>2023-01-20T14:22:21Z</time>
      </trkpt>
      <trkpt lat="49.91135" lon="2.27044">
        <ele>18.9</ele>
        <time>2023-01-20T14:22:22Z</time>
      </trkpt>
      <trkpt lat="49.91135" lon="2.27045">
        <ele>18.9</ele>
        <time>2023-01-20T14:22:23Z</time>
      </trkpt>
      <trkpt lat="49.91134" lon="2.27046">
        <ele>18.9</ele>
        <time>2023-01-20T14:22:24Z</time>
      </trkpt>
      <trkpt lat="49.91133" lon="2.27046">
        <ele>18.9</ele>
        <time>2023-01-20T14:22:25Z</time>
      </trkpt>
      <trkpt lat="49.91132" lon="2.27047">
        <ele>18.9</ele>
        <time>2023-01-20T14:22:26Z</time>
      </trkpt>
      <trkpt lat="49.91131" lon="2.27048">
        <ele>18.9</ele>
        <time>2023-01-20T14:22:27Z</time>
      </trkpt>
      <trkpt lat="49.9113" lon="2.27048">
        <ele>18.9</ele>
        <time>2023-01-20T14:22:29Z</time>
      </trkpt>
      <trkpt lat="49.9113" lon="2.27049">
        <ele>18.9</ele>
        <time>2023-01-20T14:22:30Z</time>
      </trkpt>
      <trkpt lat="49.91129" lon="2.27049">
        <ele>18.9</ele>
        <time>2023-01-20T14:22:31Z</time>
      </trkpt>
      <trkpt lat="49.91128" lon="2.2705">
        <ele>18.9</ele>
        <time>2023-01-20T14:22:32Z</time>
      </trkpt>
      <trkpt lat="49.91125" lon="2.27051">
        <ele>18.9</ele>
        <time>2023-01-20T14:22:33Z</time>
      </trkpt>
      <trkpt lat="49.91123" lon="2.27054">
        <ele>18.9</ele>
        <time>2023-01-20T14:22:34Z</time>
      </trkpt>
      <trkpt lat="49.91122" lon="2.27054">
        <ele>18.9</ele>
        <time>2023-01-20T14:22:35Z</time>
      </trkpt>
      <trkpt lat="49.9112" lon="2.27057">
        <ele>18.9</ele>
        <time>2023-01-20T14:22:36Z</time>
      </trkpt>
      <trkpt lat="49.91119" lon="2.27058">
        <ele>18.9</ele>
        <time>2023-01-20T14:22:37Z</time>
      </trkpt>
      <trkpt lat="49.91117" lon="2.27059">
        <ele>18.9</ele>
        <time>2023-01-20T14:22:39Z</time>
      </trkpt>
      <trkpt lat="49.91116" lon="2.2706">
        <ele>18.9</ele>
        <time>2023-01-20T14:22:40Z</time>
      </trkpt>
      <trkpt lat="49.91115" lon="2.27062">
        <ele>18.9</ele>
        <time>2023-01-20T14:22:41Z</time>
      </trkpt>
      <trkpt lat="49.91115" lon="2.27063">
        <ele>18.9</ele>
        <time>2023-01-20T14:22:42Z</time>
      </trkpt>
      <trkpt lat="49.91114" lon="2.27064">
        <ele>18.9</ele>
        <time>2023-01-20T14:22:43Z</time>
      </trkpt>
      <trkpt lat="49.91112" lon="2.27067">
        <ele>18.9</ele>
        <time>2023-01-20T14:22:44Z</time>
      </trkpt>
      <trkpt lat="49.91111" lon="2.27068">
        <ele>18.9</ele>
        <time>2023-01-20T14:22:45Z</time>
      </trkpt>
      <trkpt lat="49.91108" lon="2.27071">
        <ele>18.9</ele>
        <time>2023-01-20T14:22:46Z</time>
      </trkpt>
      <trkpt lat="49.91108" lon="2.27072">
        <ele>18.9</ele>
        <time>2023-01-20T14:22:47Z</time>
      </trkpt>
      <trkpt lat="49.91107" lon="2.27073">
        <ele>18.9</ele>
        <time>2023-01-20T14:22:48Z</time>
      </trkpt>
      <trkpt lat="49.91105" lon="2.27075">
        <ele>18.9</ele>
        <time>2023-01-20T14:22:50Z</time>
      </trkpt>
      <trkpt lat="49.91104" lon="2.27076">
        <ele>18.9</ele>
        <time>2023-01-20T14:22:51Z</time>
      </trkpt>
      <trkpt lat="49.91103" lon="2.27078">
        <ele>18.9</ele>
        <time>2023-01-20T14:22:52Z</time>
      </trkpt>
      <trkpt lat="49.91102" lon="2.27079">
        <ele>18.9</ele>
        <time>2023-01-20T14:22:53Z</time>
      </trkpt>
      <trkpt lat="49.91101" lon="2.2708">
        <ele>18.9</ele>
        <time>2023-01-20T14:22:54Z</time>
      </trkpt>
      <trkpt lat="49.911" lon="2.27082">
        <ele>18.9</ele>
        <time>2023-01-20T14:22:56Z</time>
      </trkpt>
      <trkpt lat="49.91099" lon="2.27083">
        <ele>18.9</ele>
        <time>2023-01-20T14:22:57Z</time>
      </trkpt>
      <trkpt lat="49.91099" lon="2.27083">
        <ele>18.9</ele>
        <time>2023-01-20T14:22:58Z</time>
      </trkpt>
      <trkpt lat="49.91098" lon="2.27084">
        <ele>18.9</ele>
        <time>2023-01-20T14:22:59Z</time>
      </trkpt>
      <trkpt lat="49.91098" lon="2.27084">
        <ele>18.9</ele>
        <time>2023-01-20T14:23:01Z</time>
      </trkpt>
      <trkpt lat="49.91098" lon="2.27085">
        <ele>18.9</ele>
        <time>2023-01-20T14:23:02Z</time>
      </trkpt>
      <trkpt lat="49.91097" lon="2.27085">
        <ele>18.9</ele>
        <time>2023-01-20T14:23:03Z</time>
      </trkpt>
      <trkpt lat="49.91097" lon="2.27085">
        <ele>18.9</ele>
        <time>2023-01-20T14:23:04Z</time>
      </trkpt>
      <trkpt lat="49.91096" lon="2.27086">
        <ele>18.9</ele>
        <time>2023-01-20T14:23:05Z</time>
      </trkpt>
      <trkpt lat="49.91095" lon="2.27087">
        <ele>18.9</ele>
        <time>2023-01-20T14:23:06Z</time>
      </trkpt>
      <trkpt lat="49.91094" lon="2.27088">
        <ele>18.9</ele>
        <time>2023-01-20T14:23:08Z</time>
      </trkpt>
      <trkpt lat="49.91093" lon="2.27089">
        <ele>18.9</ele>
        <time>2023-01-20T14:23:09Z</time>
      </trkpt>
      <trkpt lat="49.91092" lon="2.2709">
        <ele>18.9</ele>
        <time>2023-01-20T14:23:10Z</time>
      </trkpt>
      <trkpt lat="49.91091" lon="2.27092">
        <ele>18.9</ele>
        <time>2023-01-20T14:23:12Z</time>
      </trkpt>
      <trkpt lat="49.91091" lon="2.27094">
        <ele>18.9</ele>
        <time>2023-01-20T14:23:13Z</time>
      </trkpt>
      <trkpt lat="49.9109" lon="2.27096">
        <ele>18.9</ele>
        <time>2023-01-20T14:23:14Z</time>
      </trkpt>
      <trkpt lat="49.91089" lon="2.27098">
        <ele>18.9</ele>
        <time>2023-01-20T14:23:15Z</time>
      </trkpt>
      <trkpt lat="49.91087" lon="2.27102">
        <ele>18.9</ele>
        <time>2023-01-20T14:23:16Z</time>
      </trkpt>
      <trkpt lat="49.91086" lon="2.27103">
        <ele>18.9</ele>
        <time>2023-01-20T14:23:17Z</time>
      </trkpt>
      <trkpt lat="49.91085" lon="2.27107">
        <ele>19</ele>
        <time>2023-01-20T14:23:19Z</time>
      </trkpt>
      <trkpt lat="49.91084" lon="2.27108">
        <ele>19</ele>
        <time>2023-01-20T14:23:20Z</time>
      </trkpt>
      <trkpt lat="49.91084" lon="2.27111">
        <ele>19</ele>
        <time>2023-01-20T14:23:21Z</time>
      </trkpt>
      <trkpt lat="49.91083" lon="2.27113">
        <ele>19</ele>
        <time>2023-01-20T14:23:22Z</time>
      </trkpt>
      <trkpt lat="49.91083" lon="2.27117">
        <ele>19</ele>
        <time>2023-01-20T14:23:23Z</time>
      </trkpt>
      <trkpt lat="49.91082" lon="2.27119">
        <ele>19</ele>
        <time>2023-01-20T14:23:25Z</time>
      </trkpt>
      <trkpt lat="49.91082" lon="2.27124">
        <ele>19</ele>
        <time>2023-01-20T14:23:26Z</time>
      </trkpt>
      <trkpt lat="49.91082" lon="2.27125">
        <ele>19</ele>
        <time>2023-01-20T14:23:27Z</time>
      </trkpt>
      <trkpt lat="49.91082" lon="2.27127">
        <ele>19</ele>
        <time>2023-01-20T14:23:28Z</time>
      </trkpt>
      <trkpt lat="49.91082" lon="2.27129">
        <ele>19</ele>
        <time>2023-01-20T14:23:29Z</time>
      </trkpt>
      <trkpt lat="49.91081" lon="2.2713">
        <ele>19</ele>
        <time>2023-01-20T14:23:30Z</time>
      </trkpt>
      <trkpt lat="49.91081" lon="2.27131">
        <ele>19</ele>
        <time>2023-01-20T14:23:31Z</time>
      </trkpt>
      <trkpt lat="49.91082" lon="2.27132">
        <ele>19</ele>
        <time>2023-01-20T14:23:32Z</time>
      </trkpt>
      <trkpt lat="49.91082" lon="2.27133">
        <ele>19</ele>
        <time>2023-01-20T14:23:33Z</time>
      </trkpt>
      <trkpt lat="49.91083" lon="2.27134">
        <ele>19</ele>
        <time>2023-01-20T14:23:35Z</time>
      </trkpt>
      <trkpt lat="49.91084" lon="2.27135">
        <ele>19.1</ele>
        <time>2023-01-20T14:23:36Z</time>
      </trkpt>
      <trkpt lat="49.91085" lon="2.27135">
        <ele>19.1</ele>
        <time>2023-01-20T14:23:37Z</time>
      </trkpt>
      <trkpt lat="49.91086" lon="2.27136">
        <ele>19.1</ele>
        <time>2023-01-20T14:23:38Z</time>
      </trkpt>
      <trkpt lat="49.91087" lon="2.27136">
        <ele>19.1</ele>
        <time>2023-01-20T14:23:39Z</time>
      </trkpt>
      <trkpt lat="49.91088" lon="2.27136">
        <ele>19.1</ele>
        <time>2023-01-20T14:23:40Z</time>
      </trkpt>
      <trkpt lat="49.91088" lon="2.27136">
        <ele>19.1</ele>
        <time>2023-01-20T14:23:42Z</time>
      </trkpt>
      <trkpt lat="49.91089" lon="2.27136">
        <ele>19.1</ele>
        <time>2023-01-20T14:23:43Z</time>
      </trkpt>
      <trkpt lat="49.91089" lon="2.27136">
        <ele>19.1</ele>
        <time>2023-01-20T14:23:44Z</time>
      </trkpt>
      <trkpt lat="49.9109" lon="2.27136">
        <ele>19.1</ele>
        <time>2023-01-20T14:23:45Z</time>
      </trkpt>
      <trkpt lat="49.9109" lon="2.27137">
        <ele>19.1</ele>
        <time>2023-01-20T14:23:46Z</time>
      </trkpt>
      <trkpt lat="49.91091" lon="2.27137">
        <ele>19.1</ele>
        <time>2023-01-20T14:23:47Z</time>
      </trkpt>
      <trkpt lat="49.91093" lon="2.27138">
        <ele>19.1</ele>
        <time>2023-01-20T14:23:48Z</time>
      </trkpt>
      <trkpt lat="49.91093" lon="2.27138">
        <ele>19.1</ele>
        <time>2023-01-20T14:23:49Z</time>
      </trkpt>
      <trkpt lat="49.91094" lon="2.27138">
        <ele>19.1</ele>
        <time>2023-01-20T14:23:51Z</time>
      </trkpt>
      <trkpt lat="49.91095" lon="2.27137">
        <ele>19.1</ele>
        <time>2023-01-20T14:23:52Z</time>
      </trkpt>
      <trkpt lat="49.91097" lon="2.27137">
        <ele>19.1</ele>
        <time>2023-01-20T14:23:53Z</time>
      </trkpt>
      <trkpt lat="49.91096" lon="2.27137">
        <ele>19.1</ele>
        <time>2023-01-20T14:23:54Z</time>
      </trkpt>
      <trkpt lat="49.91096" lon="2.27137">
        <ele>19.1</ele>
        <time>2023-01-20T14:23:55Z</time>
      </trkpt>
      <trkpt lat="49.91097" lon="2.27137">
        <ele>19.1</ele>
        <time>2023-01-20T14:23:56Z</time>
      </trkpt>
      <trkpt lat="49.91098" lon="2.27137">
        <ele>19.1</ele>
        <time>2023-01-20T14:23:57Z</time>
      </trkpt>
      <trkpt lat="49.911" lon="2.27137">
        <ele>19.1</ele>
        <time>2023-01-20T14:23:59Z</time>
      </trkpt>
      <trkpt lat="49.91101" lon="2.27138">
        <ele>19.1</ele>
        <time>2023-01-20T14:24:00Z</time>
      </trkpt>
      <trkpt lat="49.91102" lon="2.27138">
        <ele>19.1</ele>
        <time>2023-01-20T14:24:01Z</time>
      </trkpt>
      <trkpt lat="49.91103" lon="2.27138">
        <ele>19.1</ele>
        <time>2023-01-20T14:24:02Z</time>
      </trkpt>
      <trkpt lat="49.91104" lon="2.27138">
        <ele>19.1</ele>
        <time>2023-01-20T14:24:03Z</time>
      </trkpt>
      <trkpt lat="49.91106" lon="2.27138">
        <ele>19.1</ele>
        <time>2023-01-20T14:24:04Z</time>
      </trkpt>
      <trkpt lat="49.91107" lon="2.27138">
        <ele>19.1</ele>
        <time>2023-01-20T14:24:06Z</time>
      </trkpt>
      <trkpt lat="49.91107" lon="2.27138">
        <ele>19.1</ele>
        <time>2023-01-20T14:24:07Z</time>
      </trkpt>
      <trkpt lat="49.91108" lon="2.27139">
        <ele>19.1</ele>
        <time>2023-01-20T14:24:08Z</time>
      </trkpt>
      <trkpt lat="49.91108" lon="2.27139">
        <ele>19.1</ele>
        <time>2023-01-20T14:24:09Z</time>
      </trkpt>
      <trkpt lat="49.91109" lon="2.27139">
        <ele>19.1</ele>
        <time>2023-01-20T14:24:10Z</time>
      </trkpt>
      <trkpt lat="49.91109" lon="2.27138">
        <ele>19.1</ele>
        <time>2023-01-20T14:24:11Z</time>
      </trkpt>
      <trkpt lat="49.91109" lon="2.27138">
        <ele>19.1</ele>
        <time>2023-01-20T14:24:12Z</time>
      </trkpt>
      <trkpt lat="49.9111" lon="2.27137">
        <ele>19.1</ele>
        <time>2023-01-20T14:24:14Z</time>
      </trkpt>
      <trkpt lat="49.9111" lon="2.27138">
        <ele>19.1</ele>
        <time>2023-01-20T14:24:15Z</time>
      </trkpt>
      <trkpt lat="49.91111" lon="2.27139">
        <ele>19.1</ele>
        <time>2023-01-20T14:24:16Z</time>
      </trkpt>
      <trkpt lat="49.91111" lon="2.27139">
        <ele>19.1</ele>
        <time>2023-01-20T14:24:17Z</time>
      </trkpt>
      <trkpt lat="49.91111" lon="2.2714">
        <ele>19.1</ele>
        <time>2023-01-20T14:24:18Z</time>
      </trkpt>
      <trkpt lat="49.91112" lon="2.2714">
        <ele>19.1</ele>
        <time>2023-01-20T14:24:19Z</time>
      </trkpt>
      <trkpt lat="49.91114" lon="2.2714">
        <ele>19.1</ele>
        <time>2023-01-20T14:24:20Z</time>
      </trkpt>
      <trkpt lat="49.91114" lon="2.2714">
        <ele>19.1</ele>
        <time>2023-01-20T14:24:21Z</time>
      </trkpt>
      <trkpt lat="49.91115" lon="2.2714">
        <ele>19.1</ele>
        <time>2023-01-20T14:24:22Z</time>
      </trkpt>
      <trkpt lat="49.91115" lon="2.2714">
        <ele>19.1</ele>
        <time>2023-01-20T14:24:23Z</time>
      </trkpt>
      <trkpt lat="49.91116" lon="2.2714">
        <ele>19.1</ele>
        <time>2023-01-20T14:24:25Z</time>
      </trkpt>
      <trkpt lat="49.91116" lon="2.2714">
        <ele>19.1</ele>
        <time>2023-01-20T14:24:26Z</time>
      </trkpt>
      <trkpt lat="49.91117" lon="2.2714">
        <ele>19.1</ele>
        <time>2023-01-20T14:24:27Z</time>
      </trkpt>
      <trkpt lat="49.91118" lon="2.2714">
        <ele>19.2</ele>
        <time>2023-01-20T14:24:28Z</time>
      </trkpt>
      <trkpt lat="49.91118" lon="2.2714">
        <ele>19.1</ele>
        <time>2023-01-20T14:24:30Z</time>
      </trkpt>
      <trkpt lat="49.91119" lon="2.2714">
        <ele>19.1</ele>
        <time>2023-01-20T14:24:31Z</time>
      </trkpt>
      <trkpt lat="49.91119" lon="2.2714">
        <ele>19.1</ele>
        <time>2023-01-20T14:24:32Z</time>
      </trkpt>
      <trkpt lat="49.91122" lon="2.27141">
        <ele>19.2</ele>
        <time>2023-01-20T14:24:33Z</time>
      </trkpt>
      <trkpt lat="49.91124" lon="2.27141">
        <ele>19.2</ele>
        <time>2023-01-20T14:24:34Z</time>
      </trkpt>
      <trkpt lat="49.91128" lon="2.27142">
        <ele>19.2</ele>
        <time>2023-01-20T14:24:35Z</time>
      </trkpt>
      <trkpt lat="49.91129" lon="2.27142">
        <ele>19.2</ele>
        <time>2023-01-20T14:24:36Z</time>
      </trkpt>
      <trkpt lat="49.91133" lon="2.27143">
        <ele>19.2</ele>
        <time>2023-01-20T14:24:37Z</time>
      </trkpt>
      <trkpt lat="49.91134" lon="2.27144">
        <ele>19.2</ele>
        <time>2023-01-20T14:24:38Z</time>
      </trkpt>
      <trkpt lat="49.91136" lon="2.27144">
        <ele>19.2</ele>
        <time>2023-01-20T14:24:39Z</time>
      </trkpt>
      <trkpt lat="49.91138" lon="2.27145">
        <ele>19.2</ele>
        <time>2023-01-20T14:24:41Z</time>
      </trkpt>
      <trkpt lat="49.9114" lon="2.27145">
        <ele>19.2</ele>
        <time>2023-01-20T14:24:42Z</time>
      </trkpt>
      <trkpt lat="49.91141" lon="2.27145">
        <ele>19.2</ele>
        <time>2023-01-20T14:24:43Z</time>
      </trkpt>
      <trkpt lat="49.91142" lon="2.27146">
        <ele>19.2</ele>
        <time>2023-01-20T14:24:44Z</time>
      </trkpt>
      <trkpt lat="49.91143" lon="2.27146">
        <ele>19.2</ele>
        <time>2023-01-20T14:24:45Z</time>
      </trkpt>
      <trkpt lat="49.91144" lon="2.27146">
        <ele>19.2</ele>
        <time>2023-01-20T14:24:46Z</time>
      </trkpt>
      <trkpt lat="49.91145" lon="2.27146">
        <ele>19.2</ele>
        <time>2023-01-20T14:24:48Z</time>
      </trkpt>
      <trkpt lat="49.91146" lon="2.27147">
        <ele>19.2</ele>
        <time>2023-01-20T14:24:49Z</time>
      </trkpt>
      <trkpt lat="49.91147" lon="2.27147">
        <ele>19.2</ele>
        <time>2023-01-20T14:24:50Z</time>
      </trkpt>
      <trkpt lat="49.91148" lon="2.27148">
        <ele>19.2</ele>
        <time>2023-01-20T14:24:51Z</time>
      </trkpt>
      <trkpt lat="49.9115" lon="2.27148">
        <ele>19.2</ele>
        <time>2023-01-20T14:24:52Z</time>
      </trkpt>
      <trkpt lat="49.91151" lon="2.27149">
        <ele>19.2</ele>
        <time>2023-01-20T14:24:53Z</time>
      </trkpt>
      <trkpt lat="49.91155" lon="2.2715">
        <ele>19.2</ele>
        <time>2023-01-20T14:24:55Z</time>
      </trkpt>
      <trkpt lat="49.91156" lon="2.2715">
        <ele>19.2</ele>
        <time>2023-01-20T14:24:56Z</time>
      </trkpt>
      <trkpt lat="49.91159" lon="2.27151">
        <ele>19.2</ele>
        <time>2023-01-20T14:24:57Z</time>
      </trkpt>
      <trkpt lat="49.91162" lon="2.27152">
        <ele>19.2</ele>
        <time>2023-01-20T14:24:58Z</time>
      </trkpt>
      <trkpt lat="49.91163" lon="2.27153">
        <ele>19.1</ele>
        <time>2023-01-20T14:24:59Z</time>
      </trkpt>
      <trkpt lat="49.91165" lon="2.27153">
        <ele>19.1</ele>
        <time>2023-01-20T14:25:01Z</time>
      </trkpt>
      <trkpt lat="49.91167" lon="2.27154">
        <ele>19.1</ele>
        <time>2023-01-20T14:25:02Z</time>
      </trkpt>
      <trkpt lat="49.91169" lon="2.27155">
        <ele>19.1</ele>
        <time>2023-01-20T14:25:03Z</time>
      </trkpt>
      <trkpt lat="49.9117" lon="2.27156">
        <ele>19.1</ele>
        <time>2023-01-20T14:25:04Z</time>
      </trkpt>
      <trkpt lat="49.91172" lon="2.27156">
        <ele>19.1</ele>
        <time>2023-01-20T14:25:06Z</time>
      </trkpt>
      <trkpt lat="49.91173" lon="2.27157">
        <ele>19.1</ele>
        <time>2023-01-20T14:25:07Z</time>
      </trkpt>
      <trkpt lat="49.91176" lon="2.2716">
        <ele>19.1</ele>
        <time>2023-01-20T14:25:08Z</time>
      </trkpt>
      <trkpt lat="49.91177" lon="2.27161">
        <ele>19.1</ele>
        <time>2023-01-20T14:25:09Z</time>
      </trkpt>
      <trkpt lat="49.9118" lon="2.27163">
        <ele>19.1</ele>
        <time>2023-01-20T14:25:10Z</time>
      </trkpt>
      <trkpt lat="49.91183" lon="2.27165">
        <ele>19</ele>
        <time>2023-01-20T14:25:11Z</time>
      </trkpt>
      <trkpt lat="49.91187" lon="2.2717">
        <ele>19</ele>
        <time>2023-01-20T14:25:13Z</time>
      </trkpt>
      <trkpt lat="49.91188" lon="2.27171">
        <ele>19</ele>
        <time>2023-01-20T14:25:14Z</time>
      </trkpt>
      <trkpt lat="49.91189" lon="2.27172">
        <ele>19</ele>
        <time>2023-01-20T14:25:15Z</time>
      </trkpt>
      <trkpt lat="49.91191" lon="2.27175">
        <ele>19</ele>
        <time>2023-01-20T14:25:16Z</time>
      </trkpt>
      <trkpt lat="49.91192" lon="2.27176">
        <ele>19</ele>
        <time>2023-01-20T14:25:17Z</time>
      </trkpt>
      <trkpt lat="49.91193" lon="2.27178">
        <ele>19</ele>
        <time>2023-01-20T14:25:18Z</time>
      </trkpt>
      <trkpt lat="49.91194" lon="2.27179">
        <ele>19</ele>
        <time>2023-01-20T14:25:19Z</time>
      </trkpt>
      <trkpt lat="49.91195" lon="2.27181">
        <ele>19</ele>
        <time>2023-01-20T14:25:21Z</time>
      </trkpt>
      <trkpt lat="49.91196" lon="2.27183">
        <ele>19</ele>
        <time>2023-01-20T14:25:22Z</time>
      </trkpt>
      <trkpt lat="49.91198" lon="2.27187">
        <ele>19</ele>
        <time>2023-01-20T14:25:23Z</time>
      </trkpt>
      <trkpt lat="49.91198" lon="2.27188">
        <ele>19</ele>
        <time>2023-01-20T14:25:24Z</time>
      </trkpt>
      <trkpt lat="49.91199" lon="2.2719">
        <ele>19</ele>
        <time>2023-01-20T14:25:25Z</time>
      </trkpt>
      <trkpt lat="49.912" lon="2.27192">
        <ele>19</ele>
        <time>2023-01-20T14:25:26Z</time>
      </trkpt>
      <trkpt lat="49.91201" lon="2.27194">
        <ele>19</ele>
        <time>2023-01-20T14:25:27Z</time>
      </trkpt>
      <trkpt lat="49.91202" lon="2.27196">
        <ele>19</ele>
        <time>2023-01-20T14:25:28Z</time>
      </trkpt>
      <trkpt lat="49.91202" lon="2.272">
        <ele>19</ele>
        <time>2023-01-20T14:25:30Z</time>
      </trkpt>
      <trkpt lat="49.91203" lon="2.27201">
        <ele>19</ele>
        <time>2023-01-20T14:25:31Z</time>
      </trkpt>
      <trkpt lat="49.91203" lon="2.27202">
        <ele>19</ele>
        <time>2023-01-20T14:25:32Z</time>
      </trkpt>
      <trkpt lat="49.91204" lon="2.27205">
        <ele>19.1</ele>
        <time>2023-01-20T14:25:33Z</time>
      </trkpt>
      <trkpt lat="49.91204" lon="2.27207">
        <ele>19.1</ele>
        <time>2023-01-20T14:25:34Z</time>
      </trkpt>
      <trkpt lat="49.91204" lon="2.27208">
        <ele>19.1</ele>
        <time>2023-01-20T14:25:35Z</time>
      </trkpt>
      <trkpt lat="49.91205" lon="2.27211">
        <ele>19.1</ele>
        <time>2023-01-20T14:25:37Z</time>
      </trkpt>
      <trkpt lat="49.91205" lon="2.27213">
        <ele>19.1</ele>
        <time>2023-01-20T14:25:38Z</time>
      </trkpt>
      <trkpt lat="49.91204" lon="2.27216">
        <ele>19.1</ele>
        <time>2023-01-20T14:25:39Z</time>
      </trkpt>
      <trkpt lat="49.91204" lon="2.27217">
        <ele>19.1</ele>
        <time>2023-01-20T14:25:40Z</time>
      </trkpt>
      <trkpt lat="49.91203" lon="2.27219">
        <ele>19.1</ele>
        <time>2023-01-20T14:25:41Z</time>
      </trkpt>
      <trkpt lat="49.91203" lon="2.27221">
        <ele>19.1</ele>
        <time>2023-01-20T14:25:42Z</time>
      </trkpt>
      <trkpt lat="49.91202" lon="2.27225">
        <ele>19.1</ele>
        <time>2023-01-20T14:25:44Z</time>
      </trkpt>
      <trkpt lat="49.91202" lon="2.27226">
        <ele>19.1</ele>
        <time>2023-01-20T14:25:45Z</time>
      </trkpt>
      <trkpt lat="49.91201" lon="2.27228">
        <ele>19.1</ele>
        <time>2023-01-20T14:25:46Z</time>
      </trkpt>
      <trkpt lat="49.91201" lon="2.2723">
        <ele>19.1</ele>
        <time>2023-01-20T14:25:47Z</time>
      </trkpt>
      <trkpt lat="49.91201" lon="2.27232">
        <ele>19.1</ele>
        <time>2023-01-20T14:25:48Z</time>
      </trkpt>
      <trkpt lat="49.912" lon="2.27234">
        <ele>19.1</ele>
        <time>2023-01-20T14:25:49Z</time>
      </trkpt>
      <trkpt lat="49.91199" lon="2.27238">
        <ele>19.1</ele>
        <time>2023-01-20T14:25:50Z</time>
      </trkpt>
      <trkpt lat="49.91199" lon="2.27239">
        <ele>19.1</ele>
        <time>2023-01-20T14:25:51Z</time>
      </trkpt>
      <trkpt lat="49.91199" lon="2.2724">
        <ele>19.1</ele>
        <time>2023-01-20T14:25:52Z</time>
      </trkpt>
      <trkpt lat="49.91198" lon="2.27244">
        <ele>19.1</ele>
        <time>2023-01-20T14:25:53Z</time>
      </trkpt>
      <trkpt lat="49.91198" lon="2.27245">
        <ele>19.1</ele>
        <time>2023-01-20T14:25:55Z</time>
      </trkpt>
      <trkpt lat="49.91197" lon="2.27246">
        <ele>19.1</ele>
        <time>2023-01-20T14:25:56Z</time>
      </trkpt>
      <trkpt lat="49.91197" lon="2.27249">
        <ele>19.1</ele>
        <time>2023-01-20T14:25:57Z</time>
      </trkpt>
      <trkpt lat="49.91197" lon="2.27251">
        <ele>19.1</ele>
        <time>2023-01-20T14:25:58Z</time>
      </trkpt>
      <trkpt lat="49.91196" lon="2.27253">
        <ele>19.1</ele>
        <time>2023-01-20T14:25:59Z</time>
      </trkpt>
      <trkpt lat="49.91196" lon="2.27255">
        <ele>19.1</ele>
        <time>2023-01-20T14:26:00Z</time>
      </trkpt>
      <trkpt lat="49.91196" lon="2.27257">
        <ele>19.1</ele>
        <time>2023-01-20T14:26:01Z</time>
      </trkpt>
      <trkpt lat="49.91195" lon="2.27259">
        <ele>19.1</ele>
        <time>2023-01-20T14:26:02Z</time>
      </trkpt>
      <trkpt lat="49.91195" lon="2.27262">
        <ele>19.1</ele>
        <time>2023-01-20T14:26:03Z</time>
      </trkpt>
      <trkpt lat="49.91195" lon="2.27264">
        <ele>19.1</ele>
        <time>2023-01-20T14:26:04Z</time>
      </trkpt>
      <trkpt lat="49.91194" lon="2.27266">
        <ele>19.1</ele>
        <time>2023-01-20T14:26:05Z</time>
      </trkpt>
      <trkpt lat="49.91194" lon="2.27268">
        <ele>19.1</ele>
        <time>2023-01-20T14:26:07Z</time>
      </trkpt>
      <trkpt lat="49.91193" lon="2.2727">
        <ele>19.1</ele>
        <time>2023-01-20T14:26:08Z</time>
      </trkpt>
      <trkpt lat="49.91192" lon="2.27273">
        <ele>19.1</ele>
        <time>2023-01-20T14:26:09Z</time>
      </trkpt>
      <trkpt lat="49.91192" lon="2.27274">
        <ele>19.1</ele>
        <time>2023-01-20T14:26:10Z</time>
      </trkpt>
      <trkpt lat="49.91192" lon="2.27276">
        <ele>19.1</ele>
        <time>2023-01-20T14:26:11Z</time>
      </trkpt>
      <trkpt lat="49.9119" lon="2.27278">
        <ele>19.1</ele>
        <time>2023-01-20T14:26:12Z</time>
      </trkpt>
      <trkpt lat="49.9119" lon="2.2728">
        <ele>19.1</ele>
        <time>2023-01-20T14:26:13Z</time>
      </trkpt>
      <trkpt lat="49.91189" lon="2.27281">
        <ele>19.1</ele>
        <time>2023-01-20T14:26:14Z</time>
      </trkpt>
      <trkpt lat="49.91188" lon="2.27284">
        <ele>19.1</ele>
        <time>2023-01-20T14:26:15Z</time>
      </trkpt>
      <trkpt lat="49.91188" lon="2.27285">
        <ele>19.1</ele>
        <time>2023-01-20T14:26:17Z</time>
      </trkpt>
      <trkpt lat="49.91188" lon="2.27286">
        <ele>19.1</ele>
        <time>2023-01-20T14:26:18Z</time>
      </trkpt>
      <trkpt lat="49.91187" lon="2.27288">
        <ele>19.1</ele>
        <time>2023-01-20T14:26:19Z</time>
      </trkpt>
      <trkpt lat="49.91186" lon="2.2729">
        <ele>19.1</ele>
        <time>2023-01-20T14:26:20Z</time>
      </trkpt>
      <trkpt lat="49.91185" lon="2.27291">
        <ele>19.1</ele>
        <time>2023-01-20T14:26:21Z</time>
      </trkpt>
      <trkpt lat="49.91184" lon="2.27293">
        <ele>19.1</ele>
        <time>2023-01-20T14:26:22Z</time>
      </trkpt>
      <trkpt lat="49.91182" lon="2.27294">
        <ele>19.1</ele>
        <time>2023-01-20T14:26:24Z</time>
      </trkpt>
      <trkpt lat="49.91182" lon="2.27295">
        <ele>19.1</ele>
        <time>2023-01-20T14:26:25Z</time>
      </trkpt>
      <trkpt lat="49.91181" lon="2.27296">
        <ele>19.1</ele>
        <time>2023-01-20T14:26:26Z</time>
      </trkpt>
      <trkpt lat="49.91179" lon="2.27296">
        <ele>19.1</ele>
        <time>2023-01-20T14:26:27Z</time>
      </trkpt>
      <trkpt lat="49.91177" lon="2.27298">
        <ele>19.1</ele>
        <time>2023-01-20T14:26:28Z</time>
      </trkpt>
      <trkpt lat="49.91177" lon="2.27299">
        <ele>19.1</ele>
        <time>2023-01-20T14:26:29Z</time>
      </trkpt>
      <trkpt lat="49.91176" lon="2.273">
        <ele>19.1</ele>
        <time>2023-01-20T14:26:30Z</time>
      </trkpt>
      <trkpt lat="49.91175" lon="2.27301">
        <ele>19.1</ele>
        <time>2023-01-20T14:26:31Z</time>
      </trkpt>
      <trkpt lat="49.91174" lon="2.27302">
        <ele>19.1</ele>
        <time>2023-01-20T14:26:32Z</time>
      </trkpt>
      <trkpt lat="49.91173" lon="2.27303">
        <ele>19.2</ele>
        <time>2023-01-20T14:26:33Z</time>
      </trkpt>
      <trkpt lat="49.91171" lon="2.27305">
        <ele>19.2</ele>
        <time>2023-01-20T14:26:35Z</time>
      </trkpt>
      <trkpt lat="49.91171" lon="2.27306">
        <ele>19.2</ele>
        <time>2023-01-20T14:26:36Z</time>
      </trkpt>
      <trkpt lat="49.9117" lon="2.27307">
        <ele>19.2</ele>
        <time>2023-01-20T14:26:37Z</time>
      </trkpt>
      <trkpt lat="49.91169" lon="2.27309">
        <ele>19.2</ele>
        <time>2023-01-20T14:26:38Z</time>
      </trkpt>
      <trkpt lat="49.91168" lon="2.27309">
        <ele>19.2</ele>
        <time>2023-01-20T14:26:39Z</time>
      </trkpt>
      <trkpt lat="49.91167" lon="2.2731">
        <ele>19.2</ele>
        <time>2023-01-20T14:26:40Z</time>
      </trkpt>
      <trkpt lat="49.91166" lon="2.27312">
        <ele>19.2</ele>
        <time>2023-01-20T14:26:41Z</time>
      </trkpt>
      <trkpt lat="49.91165" lon="2.27313">
        <ele>19.2</ele>
        <time>2023-01-20T14:26:42Z</time>
      </trkpt>
      <trkpt lat="49.91163" lon="2.27316">
        <ele>19.2</ele>
        <time>2023-01-20T14:26:43Z</time>
      </trkpt>
      <trkpt lat="49.91162" lon="2.27317">
        <ele>19.2</ele>
        <time>2023-01-20T14:26:45Z</time>
      </trkpt>
      <trkpt lat="49.91162" lon="2.27318">
        <ele>19.2</ele>
        <time>2023-01-20T14:26:46Z</time>
      </trkpt>
      <trkpt lat="49.91161" lon="2.27319">
        <ele>19.2</ele>
        <time>2023-01-20T14:26:47Z</time>
      </trkpt>
      <trkpt lat="49.9116" lon="2.2732">
        <ele>19.2</ele>
        <time>2023-01-20T14:26:48Z</time>
      </trkpt>
      <trkpt lat="49.91158" lon="2.27323">
        <ele>19.2</ele>
        <time>2023-01-20T14:26:49Z</time>
      </trkpt>
      <trkpt lat="49.91157" lon="2.27324">
        <ele>19.2</ele>
        <time>2023-01-20T14:26:51Z</time>
      </trkpt>
      <trkpt lat="49.91156" lon="2.27325">
        <ele>19.3</ele>
        <time>2023-01-20T14:26:52Z</time>
      </trkpt>
      <trkpt lat="49.91155" lon="2.27326">
        <ele>19.3</ele>
        <time>2023-01-20T14:26:53Z</time>
      </trkpt>
      <trkpt lat="49.91154" lon="2.27327">
        <ele>19.3</ele>
        <time>2023-01-20T14:26:54Z</time>
      </trkpt>
      <trkpt lat="49.91154" lon="2.27328">
        <ele>19.3</ele>
        <time>2023-01-20T14:26:55Z</time>
      </trkpt>
      <trkpt lat="49.91153" lon="2.27329">
        <ele>19.3</ele>
        <time>2023-01-20T14:26:56Z</time>
      </trkpt>
      <trkpt lat="49.91152" lon="2.2733">
        <ele>19.3</ele>
        <time>2023-01-20T14:26:57Z</time>
      </trkpt>
      <trkpt lat="49.91151" lon="2.27331">
        <ele>19.3</ele>
        <time>2023-01-20T14:26:58Z</time>
      </trkpt>
      <trkpt lat="49.9115" lon="2.27333">
        <ele>19.3</ele>
        <time>2023-01-20T14:26:59Z</time>
      </trkpt>
      <trkpt lat="49.91149" lon="2.27334">
        <ele>19.3</ele>
        <time>2023-01-20T14:27:00Z</time>
      </trkpt>
      <trkpt lat="49.91148" lon="2.27335">
        <ele>19.3</ele>
        <time>2023-01-20T14:27:01Z</time>
      </trkpt>
      <trkpt lat="49.91147" lon="2.27336">
        <ele>19.3</ele>
        <time>2023-01-20T14:27:02Z</time>
      </trkpt>
      <trkpt lat="49.91146" lon="2.27337">
        <ele>19.3</ele>
        <time>2023-01-20T14:27:04Z</time>
      </trkpt>
      <trkpt lat="49.91144" lon="2.27339">
        <ele>19.3</ele>
        <time>2023-01-20T14:27:05Z</time>
      </trkpt>
      <trkpt lat="49.91143" lon="2.27339">
        <ele>19.3</ele>
        <time>2023-01-20T14:27:06Z</time>
      </trkpt>
      <trkpt lat="49.91142" lon="2.2734">
        <ele>19.3</ele>
        <time>2023-01-20T14:27:07Z</time>
      </trkpt>
      <trkpt lat="49.91141" lon="2.27341">
        <ele>19.3</ele>
        <time>2023-01-20T14:27:08Z</time>
      </trkpt>
      <trkpt lat="49.9114" lon="2.27342">
        <ele>19.3</ele>
        <time>2023-01-20T14:27:09Z</time>
      </trkpt>
      <trkpt lat="49.91139" lon="2.27343">
        <ele>19.3</ele>
        <time>2023-01-20T14:27:10Z</time>
      </trkpt>
      <trkpt lat="49.91138" lon="2.27345">
        <ele>19.3</ele>
        <time>2023-01-20T14:27:12Z</time>
      </trkpt>
      <trkpt lat="49.91136" lon="2.27347">
        <ele>19.3</ele>
        <time>2023-01-20T14:27:13Z</time>
      </trkpt>
      <trkpt lat="49.91135" lon="2.27348">
        <ele>19.3</ele>
        <time>2023-01-20T14:27:14Z</time>
      </trkpt>
      <trkpt lat="49.91134" lon="2.27349">
        <ele>19.3</ele>
        <time>2023-01-20T14:27:15Z</time>
      </trkpt>
      <trkpt lat="49.91132" lon="2.27351">
        <ele>19.3</ele>
        <time>2023-01-20T14:27:16Z</time>
      </trkpt>
      <trkpt lat="49.91132" lon="2.27351">
        <ele>19.3</ele>
        <time>2023-01-20T14:27:17Z</time>
      </trkpt>
      <trkpt lat="49.91131" lon="2.27352">
        <ele>19.3</ele>
        <time>2023-01-20T14:27:18Z</time>
      </trkpt>
      <trkpt lat="49.9113" lon="2.27353">
        <ele>19.3</ele>
        <time>2023-01-20T14:27:19Z</time>
      </trkpt>
      <trkpt lat="49.91129" lon="2.27354">
        <ele>19.3</ele>
        <time>2023-01-20T14:27:20Z</time>
      </trkpt>
      <trkpt lat="49.91127" lon="2.27355">
        <ele>19.3</ele>
        <time>2023-01-20T14:27:21Z</time>
      </trkpt>
      <trkpt lat="49.91126" lon="2.27356">
        <ele>19.3</ele>
        <time>2023-01-20T14:27:22Z</time>
      </trkpt>
      <trkpt lat="49.91125" lon="2.27357">
        <ele>19.3</ele>
        <time>2023-01-20T14:27:24Z</time>
      </trkpt>
      <trkpt lat="49.91124" lon="2.27358">
        <ele>19.3</ele>
        <time>2023-01-20T14:27:25Z</time>
      </trkpt>
      <trkpt lat="49.91123" lon="2.27359">
        <ele>19.3</ele>
        <time>2023-01-20T14:27:26Z</time>
      </trkpt>
      <trkpt lat="49.91121" lon="2.27361">
        <ele>19.3</ele>
        <time>2023-01-20T14:27:27Z</time>
      </trkpt>
      <trkpt lat="49.9112" lon="2.27362">
        <ele>19.3</ele>
        <time>2023-01-20T14:27:29Z</time>
      </trkpt>
      <trkpt lat="49.91118" lon="2.27364">
        <ele>19.2</ele>
        <time>2023-01-20T14:27:30Z</time>
      </trkpt>
      <trkpt lat="49.91117" lon="2.27365">
        <ele>19.2</ele>
        <time>2023-01-20T14:27:31Z</time>
      </trkpt>
      <trkpt lat="49.91116" lon="2.27367">
        <ele>19.2</ele>
        <time>2023-01-20T14:27:32Z</time>
      </trkpt>
      <trkpt lat="49.91115" lon="2.27367">
        <ele>19.2</ele>
        <time>2023-01-20T14:27:33Z</time>
      </trkpt>
      <trkpt lat="49.91114" lon="2.27368">
        <ele>19.2</ele>
        <time>2023-01-20T14:27:34Z</time>
      </trkpt>
      <trkpt lat="49.91113" lon="2.27369">
        <ele>19.2</ele>
        <time>2023-01-20T14:27:35Z</time>
      </trkpt>
      <trkpt lat="49.91112" lon="2.2737">
        <ele>19.2</ele>
        <time>2023-01-20T14:27:36Z</time>
      </trkpt>
      <trkpt lat="49.91111" lon="2.27371">
        <ele>19.2</ele>
        <time>2023-01-20T14:27:38Z</time>
      </trkpt>
      <trkpt lat="49.91109" lon="2.27372">
        <ele>19.2</ele>
        <time>2023-01-20T14:27:39Z</time>
      </trkpt>
      <trkpt lat="49.91108" lon="2.27374">
        <ele>19.2</ele>
        <time>2023-01-20T14:27:40Z</time>
      </trkpt>
      <trkpt lat="49.91107" lon="2.27375">
        <ele>19.2</ele>
        <time>2023-01-20T14:27:41Z</time>
      </trkpt>
      <trkpt lat="49.91105" lon="2.27375">
        <ele>19.2</ele>
        <time>2023-01-20T14:27:42Z</time>
      </trkpt>
      <trkpt lat="49.91104" lon="2.27375">
        <ele>19.2</ele>
        <time>2023-01-20T14:27:43Z</time>
      </trkpt>
      <trkpt lat="49.91103" lon="2.27375">
        <ele>19.2</ele>
        <time>2023-01-20T14:27:44Z</time>
      </trkpt>
      <trkpt lat="49.91102" lon="2.27375">
        <ele>19.2</ele>
        <time>2023-01-20T14:27:45Z</time>
      </trkpt>
      <trkpt lat="49.91101" lon="2.27376">
        <ele>19.2</ele>
        <time>2023-01-20T14:27:46Z</time>
      </trkpt>
      <trkpt lat="49.91101" lon="2.27376">
        <ele>19.2</ele>
        <time>2023-01-20T14:27:48Z</time>
      </trkpt>
      <trkpt lat="49.911" lon="2.27377">
        <ele>19.2</ele>
        <time>2023-01-20T14:27:49Z</time>
      </trkpt>
      <trkpt lat="49.91098" lon="2.27378">
        <ele>19.2</ele>
        <time>2023-01-20T14:27:50Z</time>
      </trkpt>
      <trkpt lat="49.91098" lon="2.27378">
        <ele>19.2</ele>
        <time>2023-01-20T14:27:51Z</time>
      </trkpt>
      <trkpt lat="49.91097" lon="2.27379">
        <ele>19.2</ele>
        <time>2023-01-20T14:27:52Z</time>
      </trkpt>
      <trkpt lat="49.91096" lon="2.27381">
        <ele>19.2</ele>
        <time>2023-01-20T14:27:53Z</time>
      </trkpt>
      <trkpt lat="49.91095" lon="2.27382">
        <ele>19.2</ele>
        <time>2023-01-20T14:27:54Z</time>
      </trkpt>
      <trkpt lat="49.91094" lon="2.27383">
        <ele>19.2</ele>
        <time>2023-01-20T14:27:55Z</time>
      </trkpt>
      <trkpt lat="49.91092" lon="2.27384">
        <ele>19.2</ele>
        <time>2023-01-20T14:27:57Z</time>
      </trkpt>
      <trkpt lat="49.91092" lon="2.27385">
        <ele>19.2</ele>
        <time>2023-01-20T14:27:58Z</time>
      </trkpt>
      <trkpt lat="49.91091" lon="2.27386">
        <ele>19.2</ele>
        <time>2023-01-20T14:27:59Z</time>
      </trkpt>
      <trkpt lat="49.91089" lon="2.27388">
        <ele>19.2</ele>
        <time>2023-01-20T14:28:00Z</time>
      </trkpt>
      <trkpt lat="49.91088" lon="2.27388">
        <ele>19.2</ele>
        <time>2023-01-20T14:28:01Z</time>
      </trkpt>
      <trkpt lat="49.91087" lon="2.27389">
        <ele>19.2</ele>
        <time>2023-01-20T14:28:02Z</time>
      </trkpt>
      <trkpt lat="49.91086" lon="2.2739">
        <ele>19.2</ele>
        <time>2023-01-20T14:28:03Z</time>
      </trkpt>
      <trkpt lat="49.91085" lon="2.27391">
        <ele>19.2</ele>
        <time>2023-01-20T14:28:04Z</time>
      </trkpt>
      <trkpt lat="49.91084" lon="2.27393">
        <ele>19.2</ele>
        <time>2023-01-20T14:28:06Z</time>
      </trkpt>
      <trkpt lat="49.91083" lon="2.27393">
        <ele>19.2</ele>
        <time>2023-01-20T14:28:07Z</time>
      </trkpt>
      <trkpt lat="49.91082" lon="2.27394">
        <ele>19.2</ele>
        <time>2023-01-20T14:28:08Z</time>
      </trkpt>
      <trkpt lat="49.91081" lon="2.27395">
        <ele>19.2</ele>
        <time>2023-01-20T14:28:09Z</time>
      </trkpt>
      <trkpt lat="49.91079" lon="2.27397">
        <ele>19.3</ele>
        <time>2023-01-20T14:28:10Z</time>
      </trkpt>
      <trkpt lat="49.91078" lon="2.27397">
        <ele>19.3</ele>
        <time>2023-01-20T14:28:11Z</time>
      </trkpt>
      <trkpt lat="49.91078" lon="2.27398">
        <ele>19.3</ele>
        <time>2023-01-20T14:28:12Z</time>
      </trkpt>
      <trkpt lat="49.91076" lon="2.27399">
        <ele>19.3</ele>
        <time>2023-01-20T14:28:13Z</time>
      </trkpt>
      <trkpt lat="49.91075" lon="2.274">
        <ele>19.3</ele>
        <time>2023-01-20T14:28:14Z</time>
      </trkpt>
      <trkpt lat="49.91074" lon="2.27401">
        <ele>19.3</ele>
        <time>2023-01-20T14:28:16Z</time>
      </trkpt>
      <trkpt lat="49.91073" lon="2.27402">
        <ele>19.3</ele>
        <time>2023-01-20T14:28:17Z</time>
      </trkpt>
      <trkpt lat="49.91072" lon="2.27403">
        <ele>19.3</ele>
        <time>2023-01-20T14:28:18Z</time>
      </trkpt>
      <trkpt lat="49.91071" lon="2.27404">
        <ele>19.3</ele>
        <time>2023-01-20T14:28:19Z</time>
      </trkpt>
      <trkpt lat="49.91069" lon="2.27406">
        <ele>19.3</ele>
        <time>2023-01-20T14:28:20Z</time>
      </trkpt>
      <trkpt lat="49.91069" lon="2.27406">
        <ele>19.3</ele>
        <time>2023-01-20T14:28:21Z</time>
      </trkpt>
      <trkpt lat="49.91068" lon="2.27407">
        <ele>19.3</ele>
        <time>2023-01-20T14:28:22Z</time>
      </trkpt>
      <trkpt lat="49.91067" lon="2.27408">
        <ele>19.3</ele>
        <time>2023-01-20T14:28:23Z</time>
      </trkpt>
      <trkpt lat="49.91066" lon="2.27409">
        <ele>19.3</ele>
        <time>2023-01-20T14:28:24Z</time>
      </trkpt>
      <trkpt lat="49.91064" lon="2.27411">
        <ele>19.3</ele>
        <time>2023-01-20T14:28:26Z</time>
      </trkpt>
      <trkpt lat="49.91063" lon="2.27412">
        <ele>19.3</ele>
        <time>2023-01-20T14:28:27Z</time>
      </trkpt>
      <trkpt lat="49.91062" lon="2.27412">
        <ele>19.3</ele>
        <time>2023-01-20T14:28:28Z</time>
      </trkpt>
      <trkpt lat="49.91061" lon="2.27413">
        <ele>19.3</ele>
        <time>2023-01-20T14:28:29Z</time>
      </trkpt>
      <trkpt lat="49.9106" lon="2.27415">
        <ele>19.3</ele>
        <time>2023-01-20T14:28:30Z</time>
      </trkpt>
      <trkpt lat="49.9106" lon="2.27415">
        <ele>19.3</ele>
        <time>2023-01-20T14:28:31Z</time>
      </trkpt>
      <trkpt lat="49.91059" lon="2.27416">
        <ele>19.3</ele>
        <time>2023-01-20T14:28:32Z</time>
      </trkpt>
      <trkpt lat="49.91058" lon="2.27417">
        <ele>19.3</ele>
        <time>2023-01-20T14:28:33Z</time>
      </trkpt>
      <trkpt lat="49.91057" lon="2.27418">
        <ele>19.3</ele>
        <time>2023-01-20T14:28:34Z</time>
      </trkpt>
      <trkpt lat="49.91056" lon="2.27418">
        <ele>19.3</ele>
        <time>2023-01-20T14:28:35Z</time>
      </trkpt>
      <trkpt lat="49.91055" lon="2.27419">
        <ele>19.3</ele>
        <time>2023-01-20T14:28:37Z</time>
      </trkpt>
      <trkpt lat="49.91054" lon="2.2742">
        <ele>19.3</ele>
        <time>2023-01-20T14:28:38Z</time>
      </trkpt>
      <trkpt lat="49.91053" lon="2.27421">
        <ele>19.3</ele>
        <time>2023-01-20T14:28:39Z</time>
      </trkpt>
      <trkpt lat="49.91052" lon="2.27422">
        <ele>19.3</ele>
        <time>2023-01-20T14:28:40Z</time>
      </trkpt>
      <trkpt lat="49.91051" lon="2.27422">
        <ele>19.3</ele>
        <time>2023-01-20T14:28:41Z</time>
      </trkpt>
      <trkpt lat="49.9105" lon="2.27423">
        <ele>19.3</ele>
        <time>2023-01-20T14:28:42Z</time>
      </trkpt>
      <trkpt lat="49.91049" lon="2.27424">
        <ele>19.3</ele>
        <time>2023-01-20T14:28:43Z</time>
      </trkpt>
      <trkpt lat="49.91048" lon="2.27425">
        <ele>19.3</ele>
        <time>2023-01-20T14:28:44Z</time>
      </trkpt>
      <trkpt lat="49.91046" lon="2.27426">
        <ele>19.3</ele>
        <time>2023-01-20T14:28:46Z</time>
      </trkpt>
      <trkpt lat="49.91045" lon="2.27426">
        <ele>19.3</ele>
        <time>2023-01-20T14:28:47Z</time>
      </trkpt>
      <trkpt lat="49.91043" lon="2.27427">
        <ele>19.3</ele>
        <time>2023-01-20T14:28:48Z</time>
      </trkpt>
      <trkpt lat="49.91042" lon="2.27428">
        <ele>19.3</ele>
        <time>2023-01-20T14:28:49Z</time>
      </trkpt>
      <trkpt lat="49.91041" lon="2.27428">
        <ele>19.3</ele>
        <time>2023-01-20T14:28:50Z</time>
      </trkpt>
      <trkpt lat="49.9104" lon="2.27429">
        <ele>19.2</ele>
        <time>2023-01-20T14:28:51Z</time>
      </trkpt>
      <trkpt lat="49.91038" lon="2.2743">
        <ele>19.2</ele>
        <time>2023-01-20T14:28:52Z</time>
      </trkpt>
      <trkpt lat="49.91037" lon="2.27431">
        <ele>19.2</ele>
        <time>2023-01-20T14:28:53Z</time>
      </trkpt>
      <trkpt lat="49.91036" lon="2.27432">
        <ele>19.2</ele>
        <time>2023-01-20T14:28:55Z</time>
      </trkpt>
      <trkpt lat="49.91034" lon="2.27433">
        <ele>19.2</ele>
        <time>2023-01-20T14:28:56Z</time>
      </trkpt>
      <trkpt lat="49.91033" lon="2.27434">
        <ele>19.2</ele>
        <time>2023-01-20T14:28:57Z</time>
      </trkpt>
      <trkpt lat="49.91031" lon="2.27436">
        <ele>19.2</ele>
        <time>2023-01-20T14:28:58Z</time>
      </trkpt>
      <trkpt lat="49.91031" lon="2.27436">
        <ele>19.2</ele>
        <time>2023-01-20T14:28:59Z</time>
      </trkpt>
      <trkpt lat="49.9103" lon="2.27437">
        <ele>19.2</ele>
        <time>2023-01-20T14:29:00Z</time>
      </trkpt>
      <trkpt lat="49.91028" lon="2.27438">
        <ele>19.2</ele>
        <time>2023-01-20T14:29:01Z</time>
      </trkpt>
      <trkpt lat="49.91027" lon="2.27439">
        <ele>19.2</ele>
        <time>2023-01-20T14:29:03Z</time>
      </trkpt>
      <trkpt lat="49.91026" lon="2.27439">
        <ele>19.2</ele>
        <time>2023-01-20T14:29:04Z</time>
      </trkpt>
      <trkpt lat="49.91025" lon="2.2744">
        <ele>19.2</ele>
        <time>2023-01-20T14:29:05Z</time>
      </trkpt>
      <trkpt lat="49.91024" lon="2.2744">
        <ele>19.2</ele>
        <time>2023-01-20T14:29:06Z</time>
      </trkpt>
      <trkpt lat="49.91022" lon="2.27441">
        <ele>19.2</ele>
        <time>2023-01-20T14:29:08Z</time>
      </trkpt>
      <trkpt lat="49.91021" lon="2.27442">
        <ele>19.2</ele>
        <time>2023-01-20T14:29:09Z</time>
      </trkpt>
      <trkpt lat="49.91019" lon="2.27443">
        <ele>19.2</ele>
        <time>2023-01-20T14:29:10Z</time>
      </trkpt>
      <trkpt lat="49.91018" lon="2.27444">
        <ele>19.2</ele>
        <time>2023-01-20T14:29:11Z</time>
      </trkpt>
      <trkpt lat="49.91018" lon="2.27444">
        <ele>19.2</ele>
        <time>2023-01-20T14:29:12Z</time>
      </trkpt>
      <trkpt lat="49.91016" lon="2.27445">
        <ele>19.2</ele>
        <time>2023-01-20T14:29:13Z</time>
      </trkpt>
      <trkpt lat="49.91015" lon="2.27446">
        <ele>19.2</ele>
        <time>2023-01-20T14:29:14Z</time>
      </trkpt>
      <trkpt lat="49.91014" lon="2.27446">
        <ele>19.2</ele>
        <time>2023-01-20T14:29:15Z</time>
      </trkpt>
      <trkpt lat="49.91013" lon="2.27447">
        <ele>19.2</ele>
        <time>2023-01-20T14:29:17Z</time>
      </trkpt>
      <trkpt lat="49.91012" lon="2.27447">
        <ele>19.2</ele>
        <time>2023-01-20T14:29:18Z</time>
      </trkpt>
      <trkpt lat="49.91011" lon="2.27448">
        <ele>19.2</ele>
        <time>2023-01-20T14:29:19Z</time>
      </trkpt>
      <trkpt lat="49.9101" lon="2.27449">
        <ele>19.2</ele>
        <time>2023-01-20T14:29:20Z</time>
      </trkpt>
      <trkpt lat="49.91009" lon="2.2745">
        <ele>19.2</ele>
        <time>2023-01-20T14:29:21Z</time>
      </trkpt>
      <trkpt lat="49.91009" lon="2.27452">
        <ele>19.2</ele>
        <time>2023-01-20T14:29:23Z</time>
      </trkpt>
      <trkpt lat="49.91008" lon="2.27454">
        <ele>19.2</ele>
        <time>2023-01-20T14:29:25Z</time>
      </trkpt>
      <trkpt lat="49.91009" lon="2.27456">
        <ele>19.2</ele>
        <time>2023-01-20T14:29:26Z</time>
      </trkpt>
      <trkpt lat="49.91009" lon="2.27456">
        <ele>19.2</ele>
        <time>2023-01-20T14:29:27Z</time>
      </trkpt>
      <trkpt lat="49.91009" lon="2.27456">
        <ele>19.2</ele>
        <time>2023-01-20T14:29:29Z</time>
      </trkpt>
      <trkpt lat="49.91009" lon="2.27456">
        <ele>19.2</ele>
        <time>2023-01-20T14:29:30Z</time>
      </trkpt>
      <trkpt lat="49.9101" lon="2.27456">
        <ele>19.2</ele>
        <time>2023-01-20T14:29:31Z</time>
      </trkpt>
      <trkpt lat="49.9101" lon="2.27455">
        <ele>19.2</ele>
        <time>2023-01-20T14:29:33Z</time>
      </trkpt>
      <trkpt lat="49.9101" lon="2.27455">
        <ele>19.2</ele>
        <time>2023-01-20T14:29:34Z</time>
      </trkpt>
      <trkpt lat="49.9101" lon="2.27455">
        <ele>19.2</ele>
        <time>2023-01-20T14:29:35Z</time>
      </trkpt>
      <trkpt lat="49.9101" lon="2.27455">
        <ele>19.2</ele>
        <time>2023-01-20T14:29:37Z</time>
      </trkpt>
      <trkpt lat="49.9101" lon="2.27455">
        <ele>19.2</ele>
        <time>2023-01-20T14:29:39Z</time>
      </trkpt>
      <trkpt lat="49.9101" lon="2.27456">
        <ele>19.2</ele>
        <time>2023-01-20T14:29:40Z</time>
      </trkpt>
      <trkpt lat="49.9101" lon="2.27455">
        <ele>19.2</ele>
        <time>2023-01-20T14:29:41Z</time>
      </trkpt>
      <trkpt lat="49.9101" lon="2.27455">
        <ele>19.2</ele>
        <time>2023-01-20T14:29:42Z</time>
      </trkpt>
      <trkpt lat="49.9101" lon="2.27455">
        <ele>19.2</ele>
        <time>2023-01-20T14:29:43Z</time>
      </trkpt>
      <trkpt lat="49.9101" lon="2.27454">
        <ele>19.2</ele>
        <time>2023-01-20T14:29:44Z</time>
      </trkpt>
      <trkpt lat="49.9101" lon="2.27454">
        <ele>19.2</ele>
        <time>2023-01-20T14:29:45Z</time>
      </trkpt>
      <trkpt lat="49.9101" lon="2.27454">
        <ele>19.2</ele>
        <time>2023-01-20T14:29:46Z</time>
      </trkpt>
      <trkpt lat="49.9101" lon="2.27454">
        <ele>19.2</ele>
        <time>2023-01-20T14:29:47Z</time>
      </trkpt>
      <trkpt lat="49.9101" lon="2.27454">
        <ele>19.2</ele>
        <time>2023-01-20T14:29:48Z</time>
      </trkpt>
      <trkpt lat="49.9101" lon="2.27454">
        <ele>19.2</ele>
        <time>2023-01-20T14:29:49Z</time>
      </trkpt>
      <trkpt lat="49.9101" lon="2.27454">
        <ele>19.2</ele>
        <time>2023-01-20T14:29:50Z</time>
      </trkpt>
      <trkpt lat="49.9101" lon="2.27454">
        <ele>19.2</ele>
        <time>2023-01-20T14:29:51Z</time>
      </trkpt>
      <trkpt lat="49.9101" lon="2.27454">
        <ele>19.2</ele>
        <time>2023-01-20T14:29:52Z</time>
      </trkpt>
      <trkpt lat="49.9101" lon="2.27454">
        <ele>19.2</ele>
        <time>2023-01-20T14:29:53Z</time>
      </trkpt>
      <trkpt lat="49.9101" lon="2.27454">
        <ele>19.2</ele>
        <time>2023-01-20T14:29:54Z</time>
      </trkpt>
      <trkpt lat="49.9101" lon="2.27454">
        <ele>19.2</ele>
        <time>2023-01-20T14:29:55Z</time>
      </trkpt>
      <trkpt lat="49.9101" lon="2.27454">
        <ele>19.2</ele>
        <time>2023-01-20T14:29:56Z</time>
      </trkpt>
      <trkpt lat="49.9101" lon="2.27454">
        <ele>19.2</ele>
        <time>2023-01-20T14:29:57Z</time>
      </trkpt>
      <trkpt lat="49.9101" lon="2.27454">
        <ele>19.2</ele>
        <time>2023-01-20T14:29:58Z</time>
      </trkpt>
      <trkpt lat="49.9101" lon="2.27454">
        <ele>19.2</ele>
        <time>2023-01-20T14:29:59Z</time>
      </trkpt>
      <trkpt lat="49.9101" lon="2.27454">
        <ele>19.2</ele>
        <time>2023-01-20T14:30:00Z</time>
      </trkpt>
      <trkpt lat="49.9101" lon="2.27454">
        <ele>19.2</ele>
        <time>2023-01-20T14:30:01Z</time>
      </trkpt>
      <trkpt lat="49.9101" lon="2.27454">
        <ele>19.2</ele>
        <time>2023-01-20T14:30:02Z</time>
      </trkpt>
      <trkpt lat="49.9101" lon="2.27454">
        <ele>19.2</ele>
        <time>2023-01-20T14:30:03Z</time>
      </trkpt>
      <trkpt lat="49.9101" lon="2.27454">
        <ele>19.2</ele>
        <time>2023-01-20T14:30:04Z</time>
      </trkpt>
      <trkpt lat="49.9101" lon="2.27454">
        <ele>19.2</ele>
        <time>2023-01-20T14:30:05Z</time>
      </trkpt>
      <trkpt lat="49.9101" lon="2.27454">
        <ele>19.2</ele>
        <time>2023-01-20T14:30:06Z</time>
      </trkpt>
      <trkpt lat="49.9101" lon="2.27454">
        <ele>19.2</ele>
        <time>2023-01-20T14:30:07Z</time>
      </trkpt>
      <trkpt lat="49.91011" lon="2.27452">
        <ele>19.2</ele>
        <time>2023-01-20T14:30:08Z</time>
      </trkpt>
      <trkpt lat="49.91012" lon="2.2745">
        <ele>19.2</ele>
        <time>2023-01-20T14:30:09Z</time>
      </trkpt>
      <trkpt lat="49.91011" lon="2.2745">
        <ele>19.2</ele>
        <time>2023-01-20T14:30:10Z</time>
      </trkpt>
      <trkpt lat="49.91011" lon="2.2745">
        <ele>19.2</ele>
        <time>2023-01-20T14:30:11Z</time>
      </trkpt>
      <trkpt lat="49.9101" lon="2.2745">
        <ele>19.2</ele>
        <time>2023-01-20T14:30:12Z</time>
      </trkpt>
      <trkpt lat="49.91009" lon="2.27451">
        <ele>19.2</ele>
        <time>2023-01-20T14:30:13Z</time>
      </trkpt>
      <trkpt lat="49.91009" lon="2.27451">
        <ele>19.2</ele>
        <time>2023-01-20T14:30:14Z</time>
      </trkpt>
      <trkpt lat="49.91008" lon="2.27452">
        <ele>19.2</ele>
        <time>2023-01-20T14:30:15Z</time>
      </trkpt>
      <trkpt lat="49.91008" lon="2.27453">
        <ele>19.2</ele>
        <time>2023-01-20T14:30:16Z</time>
      </trkpt>
      <trkpt lat="49.91007" lon="2.27454">
        <ele>19.2</ele>
        <time>2023-01-20T14:30:18Z</time>
      </trkpt>
      <trkpt lat="49.91006" lon="2.27455">
        <ele>19.2</ele>
        <time>2023-01-20T14:30:19Z</time>
      </trkpt>
      <trkpt lat="49.91005" lon="2.27456">
        <ele>19.2</ele>
        <time>2023-01-20T14:30:20Z</time>
      </trkpt>
      <trkpt lat="49.91003" lon="2.27458">
        <ele>19.2</ele>
        <time>2023-01-20T14:30:22Z</time>
      </trkpt>
      <trkpt lat="49.91002" lon="2.2746">
        <ele>19.2</ele>
        <time>2023-01-20T14:30:23Z</time>
      </trkpt>
      <trkpt lat="49.91" lon="2.27461">
        <ele>19.2</ele>
        <time>2023-01-20T14:30:24Z</time>
      </trkpt>
      <trkpt lat="49.90998" lon="2.27464">
        <ele>19.3</ele>
        <time>2023-01-20T14:30:25Z</time>
      </trkpt>
      <trkpt lat="49.90997" lon="2.27466">
        <ele>19.3</ele>
        <time>2023-01-20T14:30:26Z</time>
      </trkpt>
      <trkpt lat="49.90997" lon="2.27467">
        <ele>19.3</ele>
        <time>2023-01-20T14:30:27Z</time>
      </trkpt>
      <trkpt lat="49.90996" lon="2.27469">
        <ele>19.3</ele>
        <time>2023-01-20T14:30:28Z</time>
      </trkpt>
      <trkpt lat="49.90995" lon="2.2747">
        <ele>19.3</ele>
        <time>2023-01-20T14:30:30Z</time>
      </trkpt>
      <trkpt lat="49.90994" lon="2.27473">
        <ele>19.3</ele>
        <time>2023-01-20T14:30:31Z</time>
      </trkpt>
      <trkpt lat="49.90994" lon="2.27475">
        <ele>19.3</ele>
        <time>2023-01-20T14:30:32Z</time>
      </trkpt>
      <trkpt lat="49.90993" lon="2.27476">
        <ele>19.3</ele>
        <time>2023-01-20T14:30:33Z</time>
      </trkpt>
      <trkpt lat="49.90993" lon="2.27478">
        <ele>19.3</ele>
        <time>2023-01-20T14:30:34Z</time>
      </trkpt>
      <trkpt lat="49.90992" lon="2.2748">
        <ele>19.3</ele>
        <time>2023-01-20T14:30:35Z</time>
      </trkpt>
      <trkpt lat="49.90991" lon="2.27483">
        <ele>19.3</ele>
        <time>2023-01-20T14:30:36Z</time>
      </trkpt>
      <trkpt lat="49.90991" lon="2.27484">
        <ele>19.3</ele>
        <time>2023-01-20T14:30:38Z</time>
      </trkpt>
      <trkpt lat="49.9099" lon="2.27485">
        <ele>19.3</ele>
        <time>2023-01-20T14:30:39Z</time>
      </trkpt>
      <trkpt lat="49.9099" lon="2.27486">
        <ele>19.3</ele>
        <time>2023-01-20T14:30:40Z</time>
      </trkpt>
      <trkpt lat="49.9099" lon="2.27488">
        <ele>19.3</ele>
        <time>2023-01-20T14:30:41Z</time>
      </trkpt>
      <trkpt lat="49.90989" lon="2.27489">
        <ele>19.3</ele>
        <time>2023-01-20T14:30:42Z</time>
      </trkpt>
      <trkpt lat="49.90988" lon="2.27492">
        <ele>19.3</ele>
        <time>2023-01-20T14:30:43Z</time>
      </trkpt>
      <trkpt lat="49.90988" lon="2.27494">
        <ele>19.3</ele>
        <time>2023-01-20T14:30:44Z</time>
      </trkpt>
      <trkpt lat="49.90987" lon="2.27495">
        <ele>19.3</ele>
        <time>2023-01-20T14:30:45Z</time>
      </trkpt>
      <trkpt lat="49.90987" lon="2.27498">
        <ele>19.3</ele>
        <time>2023-01-20T14:30:47Z</time>
      </trkpt>
      <trkpt lat="49.90987" lon="2.27499">
        <ele>19.4</ele>
        <time>2023-01-20T14:30:48Z</time>
      </trkpt>
      <trkpt lat="49.90986" lon="2.275">
        <ele>19.4</ele>
        <time>2023-01-20T14:30:49Z</time>
      </trkpt>
      <trkpt lat="49.90986" lon="2.27502">
        <ele>19.4</ele>
        <time>2023-01-20T14:30:50Z</time>
      </trkpt>
      <trkpt lat="49.90986" lon="2.27504">
        <ele>19.4</ele>
        <time>2023-01-20T14:30:51Z</time>
      </trkpt>
      <trkpt lat="49.90985" lon="2.27506">
        <ele>19.4</ele>
        <time>2023-01-20T14:30:52Z</time>
      </trkpt>
      <trkpt lat="49.90985" lon="2.27508">
        <ele>19.4</ele>
        <time>2023-01-20T14:30:53Z</time>
      </trkpt>
      <trkpt lat="49.90984" lon="2.27509">
        <ele>19.4</ele>
        <time>2023-01-20T14:30:54Z</time>
      </trkpt>
      <trkpt lat="49.90984" lon="2.27511">
        <ele>19.4</ele>
        <time>2023-01-20T14:30:56Z</time>
      </trkpt>
      <trkpt lat="49.90984" lon="2.27513">
        <ele>19.4</ele>
        <time>2023-01-20T14:30:57Z</time>
      </trkpt>
      <trkpt lat="49.90983" lon="2.27514">
        <ele>19.4</ele>
        <time>2023-01-20T14:30:58Z</time>
      </trkpt>
      <trkpt lat="49.90982" lon="2.27517">
        <ele>19.4</ele>
        <time>2023-01-20T14:30:59Z</time>
      </trkpt>
      <trkpt lat="49.90982" lon="2.27518">
        <ele>19.4</ele>
        <time>2023-01-20T14:31:00Z</time>
      </trkpt>
      <trkpt lat="49.90982" lon="2.27519">
        <ele>19.4</ele>
        <time>2023-01-20T14:31:01Z</time>
      </trkpt>
      <trkpt lat="49.90981" lon="2.27521">
        <ele>19.4</ele>
        <time>2023-01-20T14:31:03Z</time>
      </trkpt>
      <trkpt lat="49.90981" lon="2.27522">
        <ele>19.4</ele>
        <time>2023-01-20T14:31:04Z</time>
      </trkpt>
      <trkpt lat="49.90981" lon="2.27524">
        <ele>19.4</ele>
        <time>2023-01-20T14:31:05Z</time>
      </trkpt>
      <trkpt lat="49.90981" lon="2.27526">
        <ele>19.4</ele>
        <time>2023-01-20T14:31:06Z</time>
      </trkpt>
      <trkpt lat="49.90981" lon="2.27527">
        <ele>19.4</ele>
        <time>2023-01-20T14:31:07Z</time>
      </trkpt>
      <trkpt lat="49.90981" lon="2.27529">
        <ele>19.4</ele>
        <time>2023-01-20T14:31:08Z</time>
      </trkpt>
      <trkpt lat="49.90981" lon="2.2753">
        <ele>19.5</ele>
        <time>2023-01-20T14:31:09Z</time>
      </trkpt>
      <trkpt lat="49.90981" lon="2.27532">
        <ele>19.5</ele>
        <time>2023-01-20T14:31:11Z</time>
      </trkpt>
      <trkpt lat="49.90981" lon="2.27533">
        <ele>19.5</ele>
        <time>2023-01-20T14:31:12Z</time>
      </trkpt>
      <trkpt lat="49.90981" lon="2.27534">
        <ele>19.5</ele>
        <time>2023-01-20T14:31:13Z</time>
      </trkpt>
      <trkpt lat="49.90982" lon="2.27535">
        <ele>19.5</ele>
        <time>2023-01-20T14:31:14Z</time>
      </trkpt>
      <trkpt lat="49.90982" lon="2.27537">
        <ele>19.5</ele>
        <time>2023-01-20T14:31:15Z</time>
      </trkpt>
      <trkpt lat="49.90982" lon="2.27538">
        <ele>19.5</ele>
        <time>2023-01-20T14:31:16Z</time>
      </trkpt>
      <trkpt lat="49.90982" lon="2.2754">
        <ele>19.5</ele>
        <time>2023-01-20T14:31:18Z</time>
      </trkpt>
      <trkpt lat="49.90981" lon="2.27541">
        <ele>19.5</ele>
        <time>2023-01-20T14:31:19Z</time>
      </trkpt>
      <trkpt lat="49.90981" lon="2.27543">
        <ele>19.5</ele>
        <time>2023-01-20T14:31:20Z</time>
      </trkpt>
      <trkpt lat="49.90981" lon="2.27546">
        <ele>19.5</ele>
        <time>2023-01-20T14:31:21Z</time>
      </trkpt>
      <trkpt lat="49.9098" lon="2.27547">
        <ele>19.5</ele>
        <time>2023-01-20T14:31:22Z</time>
      </trkpt>
      <trkpt lat="49.9098" lon="2.27549">
        <ele>19.5</ele>
        <time>2023-01-20T14:31:23Z</time>
      </trkpt>
      <trkpt lat="49.9098" lon="2.2755">
        <ele>19.5</ele>
        <time>2023-01-20T14:31:24Z</time>
      </trkpt>
      <trkpt lat="49.90979" lon="2.27551">
        <ele>19.5</ele>
        <time>2023-01-20T14:31:26Z</time>
      </trkpt>
      <trkpt lat="49.90978" lon="2.27553">
        <ele>19.5</ele>
        <time>2023-01-20T14:31:27Z</time>
      </trkpt>
      <trkpt lat="49.90978" lon="2.27554">
        <ele>19.5</ele>
        <time>2023-01-20T14:31:28Z</time>
      </trkpt>
      <trkpt lat="49.90977" lon="2.27556">
        <ele>19.5</ele>
        <time>2023-01-20T14:31:29Z</time>
      </trkpt>
      <trkpt lat="49.90977" lon="2.27558">
        <ele>19.5</ele>
        <time>2023-01-20T14:31:30Z</time>
      </trkpt>
      <trkpt lat="49.90977" lon="2.27561">
        <ele>19.5</ele>
        <time>2023-01-20T14:31:31Z</time>
      </trkpt>
      <trkpt lat="49.90976" lon="2.27562">
        <ele>19.5</ele>
        <time>2023-01-20T14:31:32Z</time>
      </trkpt>
      <trkpt lat="49.90976" lon="2.27564">
        <ele>19.5</ele>
        <time>2023-01-20T14:31:33Z</time>
      </trkpt>
      <trkpt lat="49.90975" lon="2.27566">
        <ele>19.5</ele>
        <time>2023-01-20T14:31:34Z</time>
      </trkpt>
      <trkpt lat="49.90975" lon="2.27567">
        <ele>19.5</ele>
        <time>2023-01-20T14:31:36Z</time>
      </trkpt>
      <trkpt lat="49.90974" lon="2.27569">
        <ele>19.5</ele>
        <time>2023-01-20T14:31:37Z</time>
      </trkpt>
      <trkpt lat="49.90974" lon="2.27571">
        <ele>19.5</ele>
        <time>2023-01-20T14:31:38Z</time>
      </trkpt>
      <trkpt lat="49.90974" lon="2.27572">
        <ele>19.5</ele>
        <time>2023-01-20T14:31:39Z</time>
      </trkpt>
      <trkpt lat="49.90973" lon="2.27574">
        <ele>19.5</ele>
        <time>2023-01-20T14:31:40Z</time>
      </trkpt>
      <trkpt lat="49.90972" lon="2.27576">
        <ele>19.5</ele>
        <time>2023-01-20T14:31:41Z</time>
      </trkpt>
      <trkpt lat="49.9097" lon="2.27579">
        <ele>19.5</ele>
        <time>2023-01-20T14:31:42Z</time>
      </trkpt>
      <trkpt lat="49.9097" lon="2.27581">
        <ele>19.5</ele>
        <time>2023-01-20T14:31:44Z</time>
      </trkpt>
      <trkpt lat="49.90969" lon="2.27583">
        <ele>19.5</ele>
        <time>2023-01-20T14:31:46Z</time>
      </trkpt>
      <trkpt lat="49.90968" lon="2.27585">
        <ele>19.5</ele>
        <time>2023-01-20T14:31:47Z</time>
      </trkpt>
      <trkpt lat="49.90968" lon="2.27586">
        <ele>19.5</ele>
        <time>2023-01-20T14:31:48Z</time>
      </trkpt>
      <trkpt lat="49.90968" lon="2.27588">
        <ele>19.5</ele>
        <time>2023-01-20T14:31:49Z</time>
      </trkpt>
      <trkpt lat="49.90968" lon="2.2759">
        <ele>19.5</ele>
        <time>2023-01-20T14:31:50Z</time>
      </trkpt>
      <trkpt lat="49.90968" lon="2.27591">
        <ele>19.5</ele>
        <time>2023-01-20T14:31:51Z</time>
      </trkpt>
      <trkpt lat="49.90967" lon="2.27594">
        <ele>19.5</ele>
        <time>2023-01-20T14:31:52Z</time>
      </trkpt>
      <trkpt lat="49.90967" lon="2.27597">
        <ele>19.5</ele>
        <time>2023-01-20T14:31:53Z</time>
      </trkpt>
      <trkpt lat="49.90967" lon="2.27599">
        <ele>19.5</ele>
        <time>2023-01-20T14:31:54Z</time>
      </trkpt>
      <trkpt lat="49.90967" lon="2.276">
        <ele>19.5</ele>
        <time>2023-01-20T14:31:56Z</time>
      </trkpt>
      <trkpt lat="49.90967" lon="2.27602">
        <ele>19.5</ele>
        <time>2023-01-20T14:31:57Z</time>
      </trkpt>
      <trkpt lat="49.90966" lon="2.27603">
        <ele>19.5</ele>
        <time>2023-01-20T14:31:58Z</time>
      </trkpt>
      <trkpt lat="49.90966" lon="2.27605">
        <ele>19.5</ele>
        <time>2023-01-20T14:31:59Z</time>
      </trkpt>
      <trkpt lat="49.90966" lon="2.27606">
        <ele>19.5</ele>
        <time>2023-01-20T14:32:00Z</time>
      </trkpt>
      <trkpt lat="49.90966" lon="2.27609">
        <ele>19.5</ele>
        <time>2023-01-20T14:32:01Z</time>
      </trkpt>
      <trkpt lat="49.90966" lon="2.2761">
        <ele>19.5</ele>
        <time>2023-01-20T14:32:02Z</time>
      </trkpt>
      <trkpt lat="49.90965" lon="2.27611">
        <ele>19.5</ele>
        <time>2023-01-20T14:32:03Z</time>
      </trkpt>
      <trkpt lat="49.90965" lon="2.27613">
        <ele>19.5</ele>
        <time>2023-01-20T14:32:05Z</time>
      </trkpt>
      <trkpt lat="49.90965" lon="2.27614">
        <ele>19.5</ele>
        <time>2023-01-20T14:32:06Z</time>
      </trkpt>
      <trkpt lat="49.90964" lon="2.27617">
        <ele>19.5</ele>
        <time>2023-01-20T14:32:07Z</time>
      </trkpt>
      <trkpt lat="49.90964" lon="2.27618">
        <ele>19.5</ele>
        <time>2023-01-20T14:32:08Z</time>
      </trkpt>
      <trkpt lat="49.90963" lon="2.27619">
        <ele>19.5</ele>
        <time>2023-01-20T14:32:09Z</time>
      </trkpt>
      <trkpt lat="49.90963" lon="2.27621">
        <ele>19.5</ele>
        <time>2023-01-20T14:32:10Z</time>
      </trkpt>
      <trkpt lat="49.90962" lon="2.27624">
        <ele>19.5</ele>
        <time>2023-01-20T14:32:11Z</time>
      </trkpt>
      <trkpt lat="49.90961" lon="2.27625">
        <ele>19.5</ele>
        <time>2023-01-20T14:32:12Z</time>
      </trkpt>
      <trkpt lat="49.90961" lon="2.27626">
        <ele>19.5</ele>
        <time>2023-01-20T14:32:13Z</time>
      </trkpt>
      <trkpt lat="49.9096" lon="2.27627">
        <ele>19.5</ele>
        <time>2023-01-20T14:32:15Z</time>
      </trkpt>
      <trkpt lat="49.90959" lon="2.27629">
        <ele>19.5</ele>
        <time>2023-01-20T14:32:16Z</time>
      </trkpt>
      <trkpt lat="49.90958" lon="2.27631">
        <ele>19.5</ele>
        <time>2023-01-20T14:32:17Z</time>
      </trkpt>
      <trkpt lat="49.90958" lon="2.27632">
        <ele>19.5</ele>
        <time>2023-01-20T14:32:18Z</time>
      </trkpt>
      <trkpt lat="49.90957" lon="2.27633">
        <ele>19.5</ele>
        <time>2023-01-20T14:32:19Z</time>
      </trkpt>
      <trkpt lat="49.90956" lon="2.27636">
        <ele>19.5</ele>
        <time>2023-01-20T14:32:21Z</time>
      </trkpt>
      <trkpt lat="49.90955" lon="2.27639">
        <ele>19.5</ele>
        <time>2023-01-20T14:32:22Z</time>
      </trkpt>
      <trkpt lat="49.90955" lon="2.2764">
        <ele>19.5</ele>
        <time>2023-01-20T14:32:23Z</time>
      </trkpt>
      <trkpt lat="49.90955" lon="2.27641">
        <ele>19.5</ele>
        <time>2023-01-20T14:32:24Z</time>
      </trkpt>
      <trkpt lat="49.90954" lon="2.27644">
        <ele>19.5</ele>
        <time>2023-01-20T14:32:25Z</time>
      </trkpt>
      <trkpt lat="49.90954" lon="2.27645">
        <ele>19.5</ele>
        <time>2023-01-20T14:32:26Z</time>
      </trkpt>
      <trkpt lat="49.90953" lon="2.27646">
        <ele>19.5</ele>
        <time>2023-01-20T14:32:27Z</time>
      </trkpt>
      <trkpt lat="49.90952" lon="2.27649">
        <ele>19.5</ele>
        <time>2023-01-20T14:32:29Z</time>
      </trkpt>
      <trkpt lat="49.90952" lon="2.2765">
        <ele>19.5</ele>
        <time>2023-01-20T14:32:30Z</time>
      </trkpt>
      <trkpt lat="49.90951" lon="2.27651">
        <ele>19.5</ele>
        <time>2023-01-20T14:32:31Z</time>
      </trkpt>
      <trkpt lat="49.9095" lon="2.27652">
        <ele>19.5</ele>
        <time>2023-01-20T14:32:32Z</time>
      </trkpt>
      <trkpt lat="49.9095" lon="2.27654">
        <ele>19.5</ele>
        <time>2023-01-20T14:32:33Z</time>
      </trkpt>
      <trkpt lat="49.90949" lon="2.27655">
        <ele>19.5</ele>
        <time>2023-01-20T14:32:34Z</time>
      </trkpt>
      <trkpt lat="49.90949" lon="2.27657">
        <ele>19.5</ele>
        <time>2023-01-20T14:32:35Z</time>
      </trkpt>
      <trkpt lat="49.90948" lon="2.2766">
        <ele>19.5</ele>
        <time>2023-01-20T14:32:36Z</time>
      </trkpt>
      <trkpt lat="49.90948" lon="2.27661">
        <ele>19.5</ele>
        <time>2023-01-20T14:32:37Z</time>
      </trkpt>
      <trkpt lat="49.90948" lon="2.27663">
        <ele>19.6</ele>
        <time>2023-01-20T14:32:39Z</time>
      </trkpt>
      <trkpt lat="49.90948" lon="2.27665">
        <ele>19.6</ele>
        <time>2023-01-20T14:32:40Z</time>
      </trkpt>
      <trkpt lat="49.90947" lon="2.27666">
        <ele>19.6</ele>
        <time>2023-01-20T14:32:41Z</time>
      </trkpt>
      <trkpt lat="49.90947" lon="2.27669">
        <ele>19.6</ele>
        <time>2023-01-20T14:32:42Z</time>
      </trkpt>
      <trkpt lat="49.90946" lon="2.27672">
        <ele>19.6</ele>
        <time>2023-01-20T14:32:44Z</time>
      </trkpt>
      <trkpt lat="49.90946" lon="2.27673">
        <ele>19.6</ele>
        <time>2023-01-20T14:32:45Z</time>
      </trkpt>
      <trkpt lat="49.90945" lon="2.27674">
        <ele>19.6</ele>
        <time>2023-01-20T14:32:46Z</time>
      </trkpt>
      <trkpt lat="49.90945" lon="2.27677">
        <ele>19.6</ele>
        <time>2023-01-20T14:32:48Z</time>
      </trkpt>
      <trkpt lat="49.90944" lon="2.27678">
        <ele>19.6</ele>
        <time>2023-01-20T14:32:49Z</time>
      </trkpt>
      <trkpt lat="49.90943" lon="2.27681">
        <ele>19.6</ele>
        <time>2023-01-20T14:32:50Z</time>
      </trkpt>
      <trkpt lat="49.90943" lon="2.27682">
        <ele>19.6</ele>
        <time>2023-01-20T14:32:51Z</time>
      </trkpt>
      <trkpt lat="49.90942" lon="2.27684">
        <ele>19.6</ele>
        <time>2023-01-20T14:32:52Z</time>
      </trkpt>
      <trkpt lat="49.90942" lon="2.27685">
        <ele>19.6</ele>
        <time>2023-01-20T14:32:53Z</time>
      </trkpt>
      <trkpt lat="49.90941" lon="2.27687">
        <ele>19.6</ele>
        <time>2023-01-20T14:32:55Z</time>
      </trkpt>
      <trkpt lat="49.9094" lon="2.27688">
        <ele>19.6</ele>
        <time>2023-01-20T14:32:56Z</time>
      </trkpt>
      <trkpt lat="49.90939" lon="2.27692">
        <ele>19.6</ele>
        <time>2023-01-20T14:32:57Z</time>
      </trkpt>
      <trkpt lat="49.90939" lon="2.27693">
        <ele>19.6</ele>
        <time>2023-01-20T14:32:58Z</time>
      </trkpt>
      <trkpt lat="49.90939" lon="2.27694">
        <ele>19.6</ele>
        <time>2023-01-20T14:32:59Z</time>
      </trkpt>
      <trkpt lat="49.90938" lon="2.27697">
        <ele>19.6</ele>
        <time>2023-01-20T14:33:00Z</time>
      </trkpt>
      <trkpt lat="49.90937" lon="2.27698">
        <ele>19.6</ele>
        <time>2023-01-20T14:33:01Z</time>
      </trkpt>
      <trkpt lat="49.90937" lon="2.27699">
        <ele>19.6</ele>
        <time>2023-01-20T14:33:02Z</time>
      </trkpt>
      <trkpt lat="49.90937" lon="2.277">
        <ele>19.6</ele>
        <time>2023-01-20T14:33:04Z</time>
      </trkpt>
      <trkpt lat="49.90936" lon="2.27702">
        <ele>19.6</ele>
        <time>2023-01-20T14:33:05Z</time>
      </trkpt>
      <trkpt lat="49.90936" lon="2.27704">
        <ele>19.6</ele>
        <time>2023-01-20T14:33:06Z</time>
      </trkpt>
      <trkpt lat="49.90935" lon="2.27706">
        <ele>19.6</ele>
        <time>2023-01-20T14:33:07Z</time>
      </trkpt>
      <trkpt lat="49.90935" lon="2.27707">
        <ele>19.6</ele>
        <time>2023-01-20T14:33:08Z</time>
      </trkpt>
      <trkpt lat="49.90934" lon="2.27709">
        <ele>19.6</ele>
        <time>2023-01-20T14:33:09Z</time>
      </trkpt>
      <trkpt lat="49.90933" lon="2.27711">
        <ele>19.6</ele>
        <time>2023-01-20T14:33:10Z</time>
      </trkpt>
      <trkpt lat="49.90933" lon="2.27712">
        <ele>19.6</ele>
        <time>2023-01-20T14:33:12Z</time>
      </trkpt>
      <trkpt lat="49.90932" lon="2.27715">
        <ele>19.6</ele>
        <time>2023-01-20T14:33:13Z</time>
      </trkpt>
      <trkpt lat="49.90932" lon="2.27716">
        <ele>19.6</ele>
        <time>2023-01-20T14:33:14Z</time>
      </trkpt>
      <trkpt lat="49.90931" lon="2.27719">
        <ele>19.6</ele>
        <time>2023-01-20T14:33:15Z</time>
      </trkpt>
      <trkpt lat="49.9093" lon="2.27721">
        <ele>19.6</ele>
        <time>2023-01-20T14:33:16Z</time>
      </trkpt>
      <trkpt lat="49.9093" lon="2.27722">
        <ele>19.6</ele>
        <time>2023-01-20T14:33:17Z</time>
      </trkpt>
      <trkpt lat="49.90929" lon="2.27724">
        <ele>19.6</ele>
        <time>2023-01-20T14:33:18Z</time>
      </trkpt>
      <trkpt lat="49.90929" lon="2.27726">
        <ele>19.6</ele>
        <time>2023-01-20T14:33:20Z</time>
      </trkpt>
      <trkpt lat="49.90928" lon="2.27728">
        <ele>19.6</ele>
        <time>2023-01-20T14:33:21Z</time>
      </trkpt>
      <trkpt lat="49.90928" lon="2.27731">
        <ele>19.6</ele>
        <time>2023-01-20T14:33:22Z</time>
      </trkpt>
      <trkpt lat="49.90927" lon="2.27732">
        <ele>19.6</ele>
        <time>2023-01-20T14:33:23Z</time>
      </trkpt>
      <trkpt lat="49.90927" lon="2.27733">
        <ele>19.6</ele>
        <time>2023-01-20T14:33:24Z</time>
      </trkpt>
      <trkpt lat="49.90927" lon="2.27735">
        <ele>19.6</ele>
        <time>2023-01-20T14:33:25Z</time>
      </trkpt>
      <trkpt lat="49.90927" lon="2.27737">
        <ele>19.6</ele>
        <time>2023-01-20T14:33:26Z</time>
      </trkpt>
      <trkpt lat="49.90926" lon="2.27739">
        <ele>19.6</ele>
        <time>2023-01-20T14:33:28Z</time>
      </trkpt>
      <trkpt lat="49.90926" lon="2.2774">
        <ele>19.6</ele>
        <time>2023-01-20T14:33:29Z</time>
      </trkpt>
      <trkpt lat="49.90925" lon="2.27744">
        <ele>19.6</ele>
        <time>2023-01-20T14:33:30Z</time>
      </trkpt>
      <trkpt lat="49.90925" lon="2.27745">
        <ele>19.6</ele>
        <time>2023-01-20T14:33:31Z</time>
      </trkpt>
      <trkpt lat="49.90925" lon="2.27747">
        <ele>19.6</ele>
        <time>2023-01-20T14:33:32Z</time>
      </trkpt>
      <trkpt lat="49.90924" lon="2.27748">
        <ele>19.6</ele>
        <time>2023-01-20T14:33:34Z</time>
      </trkpt>
      <trkpt lat="49.90924" lon="2.2775">
        <ele>19.6</ele>
        <time>2023-01-20T14:33:35Z</time>
      </trkpt>
      <trkpt lat="49.90923" lon="2.27751">
        <ele>19.6</ele>
        <time>2023-01-20T14:33:36Z</time>
      </trkpt>
      <trkpt lat="49.90922" lon="2.27754">
        <ele>19.6</ele>
        <time>2023-01-20T14:33:37Z</time>
      </trkpt>
      <trkpt lat="49.90922" lon="2.27755">
        <ele>19.6</ele>
        <time>2023-01-20T14:33:38Z</time>
      </trkpt>
      <trkpt lat="49.90921" lon="2.27756">
        <ele>19.6</ele>
        <time>2023-01-20T14:33:39Z</time>
      </trkpt>
      <trkpt lat="49.90921" lon="2.27759">
        <ele>19.6</ele>
        <time>2023-01-20T14:33:40Z</time>
      </trkpt>
      <trkpt lat="49.9092" lon="2.2776">
        <ele>19.6</ele>
        <time>2023-01-20T14:33:41Z</time>
      </trkpt>
      <trkpt lat="49.9092" lon="2.27761">
        <ele>19.6</ele>
        <time>2023-01-20T14:33:42Z</time>
      </trkpt>
      <trkpt lat="49.90919" lon="2.27763">
        <ele>19.6</ele>
        <time>2023-01-20T14:33:43Z</time>
      </trkpt>
      <trkpt lat="49.90919" lon="2.27764">
        <ele>19.6</ele>
        <time>2023-01-20T14:33:45Z</time>
      </trkpt>
      <trkpt lat="49.90918" lon="2.27766">
        <ele>19.6</ele>
        <time>2023-01-20T14:33:46Z</time>
      </trkpt>
      <trkpt lat="49.90918" lon="2.27768">
        <ele>19.6</ele>
        <time>2023-01-20T14:33:47Z</time>
      </trkpt>
      <trkpt lat="49.90917" lon="2.27769">
        <ele>19.6</ele>
        <time>2023-01-20T14:33:48Z</time>
      </trkpt>
      <trkpt lat="49.90917" lon="2.27771">
        <ele>19.6</ele>
        <time>2023-01-20T14:33:49Z</time>
      </trkpt>
      <trkpt lat="49.90916" lon="2.27774">
        <ele>19.6</ele>
        <time>2023-01-20T14:33:50Z</time>
      </trkpt>
      <trkpt lat="49.90915" lon="2.27775">
        <ele>19.5</ele>
        <time>2023-01-20T14:33:51Z</time>
      </trkpt>
      <trkpt lat="49.90915" lon="2.27777">
        <ele>19.5</ele>
        <time>2023-01-20T14:33:52Z</time>
      </trkpt>
      <trkpt lat="49.90914" lon="2.27778">
        <ele>19.5</ele>
        <time>2023-01-20T14:33:53Z</time>
      </trkpt>
      <trkpt lat="49.90914" lon="2.2778">
        <ele>19.5</ele>
        <time>2023-01-20T14:33:54Z</time>
      </trkpt>
      <trkpt lat="49.90913" lon="2.27781">
        <ele>19.5</ele>
        <time>2023-01-20T14:33:55Z</time>
      </trkpt>
      <trkpt lat="49.90913" lon="2.27783">
        <ele>19.5</ele>
        <time>2023-01-20T14:33:57Z</time>
      </trkpt>
      <trkpt lat="49.90912" lon="2.27786">
        <ele>19.5</ele>
        <time>2023-01-20T14:33:58Z</time>
      </trkpt>
      <trkpt lat="49.90912" lon="2.27788">
        <ele>19.5</ele>
        <time>2023-01-20T14:33:59Z</time>
      </trkpt>
      <trkpt lat="49.90911" lon="2.2779">
        <ele>19.5</ele>
        <time>2023-01-20T14:34:00Z</time>
      </trkpt>
      <trkpt lat="49.90911" lon="2.27792">
        <ele>19.5</ele>
        <time>2023-01-20T14:34:02Z</time>
      </trkpt>
      <trkpt lat="49.9091" lon="2.27796">
        <ele>19.5</ele>
        <time>2023-01-20T14:34:03Z</time>
      </trkpt>
      <trkpt lat="49.9091" lon="2.27797">
        <ele>19.5</ele>
        <time>2023-01-20T14:34:04Z</time>
      </trkpt>
      <trkpt lat="49.90909" lon="2.27798">
        <ele>19.5</ele>
        <time>2023-01-20T14:34:05Z</time>
      </trkpt>
      <trkpt lat="49.90909" lon="2.27799">
        <ele>19.5</ele>
        <time>2023-01-20T14:34:07Z</time>
      </trkpt>
      <trkpt lat="49.90907" lon="2.278">
        <ele>19.5</ele>
        <time>2023-01-20T14:34:08Z</time>
      </trkpt>
      <trkpt lat="49.90907" lon="2.278">
        <ele>19.5</ele>
        <time>2023-01-20T14:34:09Z</time>
      </trkpt>
      <trkpt lat="49.90906" lon="2.27801">
        <ele>19.5</ele>
        <time>2023-01-20T14:34:10Z</time>
      </trkpt>
      <trkpt lat="49.90906" lon="2.27802">
        <ele>19.5</ele>
        <time>2023-01-20T14:34:11Z</time>
      </trkpt>
      <trkpt lat="49.90906" lon="2.27804">
        <ele>19.5</ele>
        <time>2023-01-20T14:34:13Z</time>
      </trkpt>
      <trkpt lat="49.90905" lon="2.27806">
        <ele>19.5</ele>
        <time>2023-01-20T14:34:14Z</time>
      </trkpt>
      <trkpt lat="49.90905" lon="2.27808">
        <ele>19.5</ele>
        <time>2023-01-20T14:34:15Z</time>
      </trkpt>
      <trkpt lat="49.90905" lon="2.2781">
        <ele>19.5</ele>
        <time>2023-01-20T14:34:16Z</time>
      </trkpt>
      <trkpt lat="49.90905" lon="2.27811">
        <ele>19.5</ele>
        <time>2023-01-20T14:34:17Z</time>
      </trkpt>
      <trkpt lat="49.90905" lon="2.27814">
        <ele>19.5</ele>
        <time>2023-01-20T14:34:19Z</time>
      </trkpt>
      <trkpt lat="49.90905" lon="2.27815">
        <ele>19.5</ele>
        <time>2023-01-20T14:34:21Z</time>
      </trkpt>
      <trkpt lat="49.90905" lon="2.27817">
        <ele>19.5</ele>
        <time>2023-01-20T14:34:22Z</time>
      </trkpt>
      <trkpt lat="49.90905" lon="2.27817">
        <ele>19.5</ele>
        <time>2023-01-20T14:34:23Z</time>
      </trkpt>
      <trkpt lat="49.90905" lon="2.27819">
        <ele>19.5</ele>
        <time>2023-01-20T14:34:24Z</time>
      </trkpt>
      <trkpt lat="49.90904" lon="2.2782">
        <ele>19.5</ele>
        <time>2023-01-20T14:34:25Z</time>
      </trkpt>
      <trkpt lat="49.90904" lon="2.27822">
        <ele>19.5</ele>
        <time>2023-01-20T14:34:27Z</time>
      </trkpt>
      <trkpt lat="49.90904" lon="2.27823">
        <ele>19.5</ele>
        <time>2023-01-20T14:34:28Z</time>
      </trkpt>
      <trkpt lat="49.90903" lon="2.27824">
        <ele>19.5</ele>
        <time>2023-01-20T14:34:29Z</time>
      </trkpt>
      <trkpt lat="49.90903" lon="2.27826">
        <ele>19.5</ele>
        <time>2023-01-20T14:34:30Z</time>
      </trkpt>
      <trkpt lat="49.90903" lon="2.27827">
        <ele>19.5</ele>
        <time>2023-01-20T14:34:31Z</time>
      </trkpt>
      <trkpt lat="49.90902" lon="2.27829">
        <ele>19.5</ele>
        <time>2023-01-20T14:34:32Z</time>
      </trkpt>
      <trkpt lat="49.90902" lon="2.27831">
        <ele>19.5</ele>
        <time>2023-01-20T14:34:34Z</time>
      </trkpt>
      <trkpt lat="49.90902" lon="2.27832">
        <ele>19.5</ele>
        <time>2023-01-20T14:34:35Z</time>
      </trkpt>
      <trkpt lat="49.90902" lon="2.27834">
        <ele>19.5</ele>
        <time>2023-01-20T14:34:36Z</time>
      </trkpt>
      <trkpt lat="49.90901" lon="2.27835">
        <ele>19.6</ele>
        <time>2023-01-20T14:34:37Z</time>
      </trkpt>
      <trkpt lat="49.90901" lon="2.27838">
        <ele>19.6</ele>
        <time>2023-01-20T14:34:38Z</time>
      </trkpt>
      <trkpt lat="49.90901" lon="2.27841">
        <ele>19.6</ele>
        <time>2023-01-20T14:34:39Z</time>
      </trkpt>
      <trkpt lat="49.90901" lon="2.27843">
        <ele>19.6</ele>
        <time>2023-01-20T14:34:40Z</time>
      </trkpt>
      <trkpt lat="49.909" lon="2.27844">
        <ele>19.6</ele>
        <time>2023-01-20T14:34:42Z</time>
      </trkpt>
      <trkpt lat="49.909" lon="2.27846">
        <ele>19.6</ele>
        <time>2023-01-20T14:34:43Z</time>
      </trkpt>
      <trkpt lat="49.909" lon="2.27847">
        <ele>19.6</ele>
        <time>2023-01-20T14:34:44Z</time>
      </trkpt>
      <trkpt lat="49.909" lon="2.27849">
        <ele>19.6</ele>
        <time>2023-01-20T14:34:45Z</time>
      </trkpt>
      <trkpt lat="49.90899" lon="2.27852">
        <ele>19.6</ele>
        <time>2023-01-20T14:34:46Z</time>
      </trkpt>
      <trkpt lat="49.90899" lon="2.27854">
        <ele>19.6</ele>
        <time>2023-01-20T14:34:47Z</time>
      </trkpt>
      <trkpt lat="49.90898" lon="2.27855">
        <ele>19.6</ele>
        <time>2023-01-20T14:34:48Z</time>
      </trkpt>
      <trkpt lat="49.90898" lon="2.27857">
        <ele>19.6</ele>
        <time>2023-01-20T14:34:49Z</time>
      </trkpt>
      <trkpt lat="49.90898" lon="2.27859">
        <ele>19.6</ele>
        <time>2023-01-20T14:34:50Z</time>
      </trkpt>
      <trkpt lat="49.90897" lon="2.2786">
        <ele>19.6</ele>
        <time>2023-01-20T14:34:51Z</time>
      </trkpt>
      <trkpt lat="49.90896" lon="2.27864">
        <ele>19.6</ele>
        <time>2023-01-20T14:34:53Z</time>
      </trkpt>
      <trkpt lat="49.90896" lon="2.27864">
        <ele>19.6</ele>
        <time>2023-01-20T14:34:54Z</time>
      </trkpt>
      <trkpt lat="49.90896" lon="2.27866">
        <ele>19.6</ele>
        <time>2023-01-20T14:34:55Z</time>
      </trkpt>
      <trkpt lat="49.90895" lon="2.27868">
        <ele>19.6</ele>
        <time>2023-01-20T14:34:56Z</time>
      </trkpt>
      <trkpt lat="49.90895" lon="2.27869">
        <ele>19.6</ele>
        <time>2023-01-20T14:34:57Z</time>
      </trkpt>
      <trkpt lat="49.90894" lon="2.27871">
        <ele>19.6</ele>
        <time>2023-01-20T14:34:58Z</time>
      </trkpt>
      <trkpt lat="49.90894" lon="2.27872">
        <ele>19.6</ele>
        <time>2023-01-20T14:34:59Z</time>
      </trkpt>
      <trkpt lat="49.90893" lon="2.27874">
        <ele>19.6</ele>
        <time>2023-01-20T14:35:00Z</time>
      </trkpt>
      <trkpt lat="49.90892" lon="2.27875">
        <ele>19.6</ele>
        <time>2023-01-20T14:35:02Z</time>
      </trkpt>
      <trkpt lat="49.90892" lon="2.27877">
        <ele>19.6</ele>
        <time>2023-01-20T14:35:03Z</time>
      </trkpt>
      <trkpt lat="49.90891" lon="2.27879">
        <ele>19.6</ele>
        <time>2023-01-20T14:35:04Z</time>
      </trkpt>
      <trkpt lat="49.9089" lon="2.27881">
        <ele>19.6</ele>
        <time>2023-01-20T14:35:05Z</time>
      </trkpt>
      <trkpt lat="49.9089" lon="2.27883">
        <ele>19.6</ele>
        <time>2023-01-20T14:35:06Z</time>
      </trkpt>
      <trkpt lat="49.9089" lon="2.27884">
        <ele>19.6</ele>
        <time>2023-01-20T14:35:07Z</time>
      </trkpt>
      <trkpt lat="49.90889" lon="2.27887">
        <ele>19.6</ele>
        <time>2023-01-20T14:35:08Z</time>
      </trkpt>
      <trkpt lat="49.90888" lon="2.27888">
        <ele>19.6</ele>
        <time>2023-01-20T14:35:09Z</time>
      </trkpt>
      <trkpt lat="49.90888" lon="2.2789">
        <ele>19.6</ele>
        <time>2023-01-20T14:35:11Z</time>
      </trkpt>
      <trkpt lat="49.90887" lon="2.27891">
        <ele>19.6</ele>
        <time>2023-01-20T14:35:12Z</time>
      </trkpt>
      <trkpt lat="49.90887" lon="2.27892">
        <ele>19.6</ele>
        <time>2023-01-20T14:35:13Z</time>
      </trkpt>
      <trkpt lat="49.90886" lon="2.27894">
        <ele>19.6</ele>
        <time>2023-01-20T14:35:14Z</time>
      </trkpt>
      <trkpt lat="49.90886" lon="2.27895">
        <ele>19.6</ele>
        <time>2023-01-20T14:35:15Z</time>
      </trkpt>
      <trkpt lat="49.90885" lon="2.27897">
        <ele>19.6</ele>
        <time>2023-01-20T14:35:16Z</time>
      </trkpt>
      <trkpt lat="49.90884" lon="2.27898">
        <ele>19.6</ele>
        <time>2023-01-20T14:35:17Z</time>
      </trkpt>
      <trkpt lat="49.90883" lon="2.27901">
        <ele>19.6</ele>
        <time>2023-01-20T14:35:18Z</time>
      </trkpt>
      <trkpt lat="49.90882" lon="2.27902">
        <ele>19.6</ele>
        <time>2023-01-20T14:35:20Z</time>
      </trkpt>
      <trkpt lat="49.90881" lon="2.27903">
        <ele>19.6</ele>
        <time>2023-01-20T14:35:21Z</time>
      </trkpt>
      <trkpt lat="49.9088" lon="2.27904">
        <ele>19.6</ele>
        <time>2023-01-20T14:35:22Z</time>
      </trkpt>
      <trkpt lat="49.90879" lon="2.27906">
        <ele>19.6</ele>
        <time>2023-01-20T14:35:23Z</time>
      </trkpt>
      <trkpt lat="49.90878" lon="2.27907">
        <ele>19.6</ele>
        <time>2023-01-20T14:35:24Z</time>
      </trkpt>
      <trkpt lat="49.90877" lon="2.27908">
        <ele>19.6</ele>
        <time>2023-01-20T14:35:25Z</time>
      </trkpt>
      <trkpt lat="49.90877" lon="2.27909">
        <ele>19.6</ele>
        <time>2023-01-20T14:35:26Z</time>
      </trkpt>
      <trkpt lat="49.90876" lon="2.2791">
        <ele>19.6</ele>
        <time>2023-01-20T14:35:27Z</time>
      </trkpt>
      <trkpt lat="49.90875" lon="2.27911">
        <ele>19.6</ele>
        <time>2023-01-20T14:35:29Z</time>
      </trkpt>
      <trkpt lat="49.90874" lon="2.27913">
        <ele>19.6</ele>
        <time>2023-01-20T14:35:30Z</time>
      </trkpt>
      <trkpt lat="49.90873" lon="2.27914">
        <ele>19.7</ele>
        <time>2023-01-20T14:35:31Z</time>
      </trkpt>
      <trkpt lat="49.90872" lon="2.27915">
        <ele>19.7</ele>
        <time>2023-01-20T14:35:32Z</time>
      </trkpt>
      <trkpt lat="49.90871" lon="2.27917">
        <ele>19.7</ele>
        <time>2023-01-20T14:35:33Z</time>
      </trkpt>
      <trkpt lat="49.9087" lon="2.27919">
        <ele>19.7</ele>
        <time>2023-01-20T14:35:34Z</time>
      </trkpt>
      <trkpt lat="49.90869" lon="2.2792">
        <ele>19.7</ele>
        <time>2023-01-20T14:35:35Z</time>
      </trkpt>
      <trkpt lat="49.90868" lon="2.27921">
        <ele>19.7</ele>
        <time>2023-01-20T14:35:36Z</time>
      </trkpt>
      <trkpt lat="49.90867" lon="2.27923">
        <ele>19.7</ele>
        <time>2023-01-20T14:35:38Z</time>
      </trkpt>
      <trkpt lat="49.90866" lon="2.27924">
        <ele>19.7</ele>
        <time>2023-01-20T14:35:39Z</time>
      </trkpt>
      <trkpt lat="49.90865" lon="2.27926">
        <ele>19.7</ele>
        <time>2023-01-20T14:35:40Z</time>
      </trkpt>
      <trkpt lat="49.90864" lon="2.27927">
        <ele>19.7</ele>
        <time>2023-01-20T14:35:41Z</time>
      </trkpt>
      <trkpt lat="49.90863" lon="2.27927">
        <ele>19.7</ele>
        <time>2023-01-20T14:35:42Z</time>
      </trkpt>
      <trkpt lat="49.90862" lon="2.27929">
        <ele>19.7</ele>
        <time>2023-01-20T14:35:43Z</time>
      </trkpt>
      <trkpt lat="49.90861" lon="2.2793">
        <ele>19.7</ele>
        <time>2023-01-20T14:35:44Z</time>
      </trkpt>
      <trkpt lat="49.9086" lon="2.27931">
        <ele>19.7</ele>
        <time>2023-01-20T14:35:45Z</time>
      </trkpt>
      <trkpt lat="49.90859" lon="2.27932">
        <ele>19.7</ele>
        <time>2023-01-20T14:35:46Z</time>
      </trkpt>
      <trkpt lat="49.90858" lon="2.27932">
        <ele>19.7</ele>
        <time>2023-01-20T14:35:48Z</time>
      </trkpt>
      <trkpt lat="49.90856" lon="2.27935">
        <ele>19.7</ele>
        <time>2023-01-20T14:35:49Z</time>
      </trkpt>
      <trkpt lat="49.90856" lon="2.27936">
        <ele>19.7</ele>
        <time>2023-01-20T14:35:50Z</time>
      </trkpt>
      <trkpt lat="49.90854" lon="2.27938">
        <ele>19.7</ele>
        <time>2023-01-20T14:35:51Z</time>
      </trkpt>
      <trkpt lat="49.90853" lon="2.27939">
        <ele>19.7</ele>
        <time>2023-01-20T14:35:52Z</time>
      </trkpt>
      <trkpt lat="49.90852" lon="2.27941">
        <ele>19.7</ele>
        <time>2023-01-20T14:35:53Z</time>
      </trkpt>
      <trkpt lat="49.90851" lon="2.27943">
        <ele>19.7</ele>
        <time>2023-01-20T14:35:54Z</time>
      </trkpt>
      <trkpt lat="49.9085" lon="2.27944">
        <ele>19.7</ele>
        <time>2023-01-20T14:35:55Z</time>
      </trkpt>
      <trkpt lat="49.9085" lon="2.27945">
        <ele>19.7</ele>
        <time>2023-01-20T14:35:56Z</time>
      </trkpt>
      <trkpt lat="49.90849" lon="2.27947">
        <ele>19.7</ele>
        <time>2023-01-20T14:35:58Z</time>
      </trkpt>
      <trkpt lat="49.90848" lon="2.27949">
        <ele>19.7</ele>
        <time>2023-01-20T14:35:59Z</time>
      </trkpt>
      <trkpt lat="49.90847" lon="2.27951">
        <ele>19.7</ele>
        <time>2023-01-20T14:36:00Z</time>
      </trkpt>
      <trkpt lat="49.90847" lon="2.27952">
        <ele>19.7</ele>
        <time>2023-01-20T14:36:01Z</time>
      </trkpt>
      <trkpt lat="49.90846" lon="2.27953">
        <ele>19.7</ele>
        <time>2023-01-20T14:36:02Z</time>
      </trkpt>
      <trkpt lat="49.90845" lon="2.27956">
        <ele>19.7</ele>
        <time>2023-01-20T14:36:03Z</time>
      </trkpt>
      <trkpt lat="49.90845" lon="2.27957">
        <ele>19.7</ele>
        <time>2023-01-20T14:36:04Z</time>
      </trkpt>
      <trkpt lat="49.90844" lon="2.27959">
        <ele>19.8</ele>
        <time>2023-01-20T14:36:05Z</time>
      </trkpt>
      <trkpt lat="49.90843" lon="2.27961">
        <ele>19.8</ele>
        <time>2023-01-20T14:36:06Z</time>
      </trkpt>
      <trkpt lat="49.90842" lon="2.27964">
        <ele>19.8</ele>
        <time>2023-01-20T14:36:08Z</time>
      </trkpt>
      <trkpt lat="49.90842" lon="2.27965">
        <ele>19.8</ele>
        <time>2023-01-20T14:36:09Z</time>
      </trkpt>
      <trkpt lat="49.90841" lon="2.27966">
        <ele>19.8</ele>
        <time>2023-01-20T14:36:10Z</time>
      </trkpt>
      <trkpt lat="49.9084" lon="2.27968">
        <ele>19.8</ele>
        <time>2023-01-20T14:36:11Z</time>
      </trkpt>
      <trkpt lat="49.90839" lon="2.2797">
        <ele>19.8</ele>
        <time>2023-01-20T14:36:12Z</time>
      </trkpt>
      <trkpt lat="49.90838" lon="2.27972">
        <ele>19.8</ele>
        <time>2023-01-20T14:36:13Z</time>
      </trkpt>
      <trkpt lat="49.90838" lon="2.27973">
        <ele>19.8</ele>
        <time>2023-01-20T14:36:14Z</time>
      </trkpt>
      <trkpt lat="49.90836" lon="2.27976">
        <ele>19.8</ele>
        <time>2023-01-20T14:36:15Z</time>
      </trkpt>
      <trkpt lat="49.90836" lon="2.27977">
        <ele>19.8</ele>
        <time>2023-01-20T14:36:16Z</time>
      </trkpt>
      <trkpt lat="49.90835" lon="2.27978">
        <ele>19.8</ele>
        <time>2023-01-20T14:36:17Z</time>
      </trkpt>
      <trkpt lat="49.90834" lon="2.2798">
        <ele>19.8</ele>
        <time>2023-01-20T14:36:19Z</time>
      </trkpt>
      <trkpt lat="49.90833" lon="2.27981">
        <ele>19.8</ele>
        <time>2023-01-20T14:36:20Z</time>
      </trkpt>
      <trkpt lat="49.90833" lon="2.27982">
        <ele>19.8</ele>
        <time>2023-01-20T14:36:21Z</time>
      </trkpt>
      <trkpt lat="49.90831" lon="2.27984">
        <ele>19.8</ele>
        <time>2023-01-20T14:36:22Z</time>
      </trkpt>
      <trkpt lat="49.9083" lon="2.27985">
        <ele>19.8</ele>
        <time>2023-01-20T14:36:23Z</time>
      </trkpt>
      <trkpt lat="49.9083" lon="2.27986">
        <ele>19.8</ele>
        <time>2023-01-20T14:36:24Z</time>
      </trkpt>
      <trkpt lat="49.90829" lon="2.27987">
        <ele>19.8</ele>
        <time>2023-01-20T14:36:25Z</time>
      </trkpt>
      <trkpt lat="49.90828" lon="2.27988">
        <ele>19.8</ele>
        <time>2023-01-20T14:36:26Z</time>
      </trkpt>
      <trkpt lat="49.90827" lon="2.27989">
        <ele>19.8</ele>
        <time>2023-01-20T14:36:28Z</time>
      </trkpt>
      <trkpt lat="49.90826" lon="2.2799">
        <ele>19.8</ele>
        <time>2023-01-20T14:36:29Z</time>
      </trkpt>
      <trkpt lat="49.90825" lon="2.27992">
        <ele>19.8</ele>
        <time>2023-01-20T14:36:30Z</time>
      </trkpt>
      <trkpt lat="49.90824" lon="2.27993">
        <ele>19.8</ele>
        <time>2023-01-20T14:36:31Z</time>
      </trkpt>
      <trkpt lat="49.90824" lon="2.27994">
        <ele>19.9</ele>
        <time>2023-01-20T14:36:32Z</time>
      </trkpt>
      <trkpt lat="49.90823" lon="2.27995">
        <ele>19.9</ele>
        <time>2023-01-20T14:36:33Z</time>
      </trkpt>
      <trkpt lat="49.90822" lon="2.27996">
        <ele>19.9</ele>
        <time>2023-01-20T14:36:34Z</time>
      </trkpt>
      <trkpt lat="49.90822" lon="2.27997">
        <ele>19.9</ele>
        <time>2023-01-20T14:36:35Z</time>
      </trkpt>
      <trkpt lat="49.90821" lon="2.27999">
        <ele>19.9</ele>
        <time>2023-01-20T14:36:36Z</time>
      </trkpt>
      <trkpt lat="49.9082" lon="2.27999">
        <ele>19.9</ele>
        <time>2023-01-20T14:36:38Z</time>
      </trkpt>
      <trkpt lat="49.90819" lon="2.28001">
        <ele>19.9</ele>
        <time>2023-01-20T14:36:39Z</time>
      </trkpt>
      <trkpt lat="49.90818" lon="2.28001">
        <ele>19.9</ele>
        <time>2023-01-20T14:36:40Z</time>
      </trkpt>
      <trkpt lat="49.90817" lon="2.28003">
        <ele>19.9</ele>
        <time>2023-01-20T14:36:41Z</time>
      </trkpt>
      <trkpt lat="49.90817" lon="2.28003">
        <ele>19.9</ele>
        <time>2023-01-20T14:36:42Z</time>
      </trkpt>
      <trkpt lat="49.90816" lon="2.28006">
        <ele>19.9</ele>
        <time>2023-01-20T14:36:43Z</time>
      </trkpt>
      <trkpt lat="49.90815" lon="2.28007">
        <ele>19.9</ele>
        <time>2023-01-20T14:36:44Z</time>
      </trkpt>
      <trkpt lat="49.90815" lon="2.28008">
        <ele>19.9</ele>
        <time>2023-01-20T14:36:45Z</time>
      </trkpt>
      <trkpt lat="49.90815" lon="2.2801">
        <ele>19.9</ele>
        <time>2023-01-20T14:36:47Z</time>
      </trkpt>
      <trkpt lat="49.90814" lon="2.28012">
        <ele>19.9</ele>
        <time>2023-01-20T14:36:48Z</time>
      </trkpt>
      <trkpt lat="49.90814" lon="2.28014">
        <ele>19.9</ele>
        <time>2023-01-20T14:36:49Z</time>
      </trkpt>
      <trkpt lat="49.90814" lon="2.28016">
        <ele>19.9</ele>
        <time>2023-01-20T14:36:50Z</time>
      </trkpt>
      <trkpt lat="49.90814" lon="2.28017">
        <ele>19.9</ele>
        <time>2023-01-20T14:36:51Z</time>
      </trkpt>
      <trkpt lat="49.90815" lon="2.28019">
        <ele>19.9</ele>
        <time>2023-01-20T14:36:53Z</time>
      </trkpt>
      <trkpt lat="49.90815" lon="2.28021">
        <ele>19.9</ele>
        <time>2023-01-20T14:36:54Z</time>
      </trkpt>
      <trkpt lat="49.90816" lon="2.28023">
        <ele>19.9</ele>
        <time>2023-01-20T14:36:55Z</time>
      </trkpt>
      <trkpt lat="49.90816" lon="2.28024">
        <ele>19.9</ele>
        <time>2023-01-20T14:36:56Z</time>
      </trkpt>
      <trkpt lat="49.90817" lon="2.28025">
        <ele>19.9</ele>
        <time>2023-01-20T14:36:57Z</time>
      </trkpt>
      <trkpt lat="49.90818" lon="2.28027">
        <ele>19.9</ele>
        <time>2023-01-20T14:36:58Z</time>
      </trkpt>
      <trkpt lat="49.90819" lon="2.28028">
        <ele>19.9</ele>
        <time>2023-01-20T14:36:59Z</time>
      </trkpt>
      <trkpt lat="49.90822" lon="2.28029">
        <ele>19.9</ele>
        <time>2023-01-20T14:37:00Z</time>
      </trkpt>
      <trkpt lat="49.90823" lon="2.2803">
        <ele>19.9</ele>
        <time>2023-01-20T14:37:02Z</time>
      </trkpt>
      <trkpt lat="49.90824" lon="2.2803">
        <ele>19.9</ele>
        <time>2023-01-20T14:37:03Z</time>
      </trkpt>
      <trkpt lat="49.90826" lon="2.28031">
        <ele>19.9</ele>
        <time>2023-01-20T14:37:04Z</time>
      </trkpt>
      <trkpt lat="49.90827" lon="2.28031">
        <ele>19.9</ele>
        <time>2023-01-20T14:37:05Z</time>
      </trkpt>
      <trkpt lat="49.90828" lon="2.28031">
        <ele>19.9</ele>
        <time>2023-01-20T14:37:06Z</time>
      </trkpt>
      <trkpt lat="49.90829" lon="2.28032">
        <ele>19.9</ele>
        <time>2023-01-20T14:37:07Z</time>
      </trkpt>
      <trkpt lat="49.90832" lon="2.28033">
        <ele>19.8</ele>
        <time>2023-01-20T14:37:08Z</time>
      </trkpt>
      <trkpt lat="49.90832" lon="2.28033">
        <ele>19.8</ele>
        <time>2023-01-20T14:37:09Z</time>
      </trkpt>
      <trkpt lat="49.90834" lon="2.28033">
        <ele>19.8</ele>
        <time>2023-01-20T14:37:11Z</time>
      </trkpt>
      <trkpt lat="49.90835" lon="2.28033">
        <ele>19.8</ele>
        <time>2023-01-20T14:37:12Z</time>
      </trkpt>
      <trkpt lat="49.90836" lon="2.28033">
        <ele>19.8</ele>
        <time>2023-01-20T14:37:13Z</time>
      </trkpt>
      <trkpt lat="49.90837" lon="2.28034">
        <ele>19.8</ele>
        <time>2023-01-20T14:37:14Z</time>
      </trkpt>
      <trkpt lat="49.90838" lon="2.28034">
        <ele>19.8</ele>
        <time>2023-01-20T14:37:15Z</time>
      </trkpt>
      <trkpt lat="49.90841" lon="2.28035">
        <ele>19.8</ele>
        <time>2023-01-20T14:37:16Z</time>
      </trkpt>
      <trkpt lat="49.90842" lon="2.28035">
        <ele>19.8</ele>
        <time>2023-01-20T14:37:18Z</time>
      </trkpt>
      <trkpt lat="49.90843" lon="2.28035">
        <ele>19.8</ele>
        <time>2023-01-20T14:37:19Z</time>
      </trkpt>
      <trkpt lat="49.90844" lon="2.28035">
        <ele>19.8</ele>
        <time>2023-01-20T14:37:20Z</time>
      </trkpt>
      <trkpt lat="49.90845" lon="2.28035">
        <ele>19.8</ele>
        <time>2023-01-20T14:37:21Z</time>
      </trkpt>
      <trkpt lat="49.90846" lon="2.28035">
        <ele>19.8</ele>
        <time>2023-01-20T14:37:22Z</time>
      </trkpt>
      <trkpt lat="49.90847" lon="2.28035">
        <ele>19.8</ele>
        <time>2023-01-20T14:37:23Z</time>
      </trkpt>
      <trkpt lat="49.90848" lon="2.28036">
        <ele>19.8</ele>
        <time>2023-01-20T14:37:24Z</time>
      </trkpt>
      <trkpt lat="49.90849" lon="2.28036">
        <ele>19.8</ele>
        <time>2023-01-20T14:37:26Z</time>
      </trkpt>
      <trkpt lat="49.9085" lon="2.28036">
        <ele>19.8</ele>
        <time>2023-01-20T14:37:27Z</time>
      </trkpt>
      <trkpt lat="49.90851" lon="2.28037">
        <ele>19.8</ele>
        <time>2023-01-20T14:37:28Z</time>
      </trkpt>
      <trkpt lat="49.90851" lon="2.28037">
        <ele>19.8</ele>
        <time>2023-01-20T14:37:29Z</time>
      </trkpt>
      <trkpt lat="49.90852" lon="2.28038">
        <ele>19.8</ele>
        <time>2023-01-20T14:37:30Z</time>
      </trkpt>
      <trkpt lat="49.90853" lon="2.28038">
        <ele>19.8</ele>
        <time>2023-01-20T14:37:31Z</time>
      </trkpt>
      <trkpt lat="49.90854" lon="2.28039">
        <ele>19.8</ele>
        <time>2023-01-20T14:37:32Z</time>
      </trkpt>
      <trkpt lat="49.90855" lon="2.28039">
        <ele>19.9</ele>
        <time>2023-01-20T14:37:33Z</time>
      </trkpt>
      <trkpt lat="49.90857" lon="2.2804">
        <ele>19.9</ele>
        <time>2023-01-20T14:37:35Z</time>
      </trkpt>
      <trkpt lat="49.90858" lon="2.28041">
        <ele>19.9</ele>
        <time>2023-01-20T14:37:36Z</time>
      </trkpt>
      <trkpt lat="49.90859" lon="2.28041">
        <ele>19.9</ele>
        <time>2023-01-20T14:37:37Z</time>
      </trkpt>
      <trkpt lat="49.90859" lon="2.28043">
        <ele>19.9</ele>
        <time>2023-01-20T14:37:38Z</time>
      </trkpt>
      <trkpt lat="49.9086" lon="2.28045">
        <ele>19.9</ele>
        <time>2023-01-20T14:37:39Z</time>
      </trkpt>
      <trkpt lat="49.90862" lon="2.28046">
        <ele>19.9</ele>
        <time>2023-01-20T14:37:41Z</time>
      </trkpt>
      <trkpt lat="49.90862" lon="2.28048">
        <ele>19.9</ele>
        <time>2023-01-20T14:37:42Z</time>
      </trkpt>
      <trkpt lat="49.90863" lon="2.2805">
        <ele>19.9</ele>
        <time>2023-01-20T14:37:43Z</time>
      </trkpt>
      <trkpt lat="49.90864" lon="2.28052">
        <ele>19.9</ele>
        <time>2023-01-20T14:37:44Z</time>
      </trkpt>
      <trkpt lat="49.90864" lon="2.28054">
        <ele>19.9</ele>
        <time>2023-01-20T14:37:45Z</time>
      </trkpt>
      <trkpt lat="49.90866" lon="2.28057">
        <ele>20</ele>
        <time>2023-01-20T14:37:46Z</time>
      </trkpt>
      <trkpt lat="49.90866" lon="2.28058">
        <ele>20</ele>
        <time>2023-01-20T14:37:48Z</time>
      </trkpt>
      <trkpt lat="49.90867" lon="2.2806">
        <ele>20</ele>
        <time>2023-01-20T14:37:49Z</time>
      </trkpt>
      <trkpt lat="49.90867" lon="2.28061">
        <ele>20</ele>
        <time>2023-01-20T14:37:50Z</time>
      </trkpt>
      <trkpt lat="49.90868" lon="2.28062">
        <ele>20</ele>
        <time>2023-01-20T14:37:51Z</time>
      </trkpt>
      <trkpt lat="49.90869" lon="2.28064">
        <ele>20</ele>
        <time>2023-01-20T14:37:52Z</time>
      </trkpt>
      <trkpt lat="49.9087" lon="2.28065">
        <ele>20</ele>
        <time>2023-01-20T14:37:53Z</time>
      </trkpt>
      <trkpt lat="49.90871" lon="2.28067">
        <ele>20.1</ele>
        <time>2023-01-20T14:37:54Z</time>
      </trkpt>
      <trkpt lat="49.90871" lon="2.28068">
        <ele>20.1</ele>
        <time>2023-01-20T14:37:56Z</time>
      </trkpt>
      <trkpt lat="49.90873" lon="2.28071">
        <ele>20.1</ele>
        <time>2023-01-20T14:37:57Z</time>
      </trkpt>
      <trkpt lat="49.90873" lon="2.28073">
        <ele>20.1</ele>
        <time>2023-01-20T14:37:58Z</time>
      </trkpt>
      <trkpt lat="49.90874" lon="2.28075">
        <ele>20.2</ele>
        <time>2023-01-20T14:37:59Z</time>
      </trkpt>
      <trkpt lat="49.90874" lon="2.28076">
        <ele>20.2</ele>
        <time>2023-01-20T14:38:00Z</time>
      </trkpt>
      <trkpt lat="49.90875" lon="2.28077">
        <ele>20.2</ele>
        <time>2023-01-20T14:38:01Z</time>
      </trkpt>
      <trkpt lat="49.90875" lon="2.28079">
        <ele>20.2</ele>
        <time>2023-01-20T14:38:02Z</time>
      </trkpt>
      <trkpt lat="49.90875" lon="2.28082">
        <ele>20.3</ele>
        <time>2023-01-20T14:38:03Z</time>
      </trkpt>
      <trkpt lat="49.90875" lon="2.28083">
        <ele>20.3</ele>
        <time>2023-01-20T14:38:05Z</time>
      </trkpt>
      <trkpt lat="49.90876" lon="2.28085">
        <ele>20.3</ele>
        <time>2023-01-20T14:38:06Z</time>
      </trkpt>
      <trkpt lat="49.90876" lon="2.28088">
        <ele>20.3</ele>
        <time>2023-01-20T14:38:07Z</time>
      </trkpt>
      <trkpt lat="49.90876" lon="2.2809">
        <ele>20.4</ele>
        <time>2023-01-20T14:38:08Z</time>
      </trkpt>
      <trkpt lat="49.90875" lon="2.28092">
        <ele>20.4</ele>
        <time>2023-01-20T14:38:09Z</time>
      </trkpt>
      <trkpt lat="49.90876" lon="2.28093">
        <ele>20.4</ele>
        <time>2023-01-20T14:38:10Z</time>
      </trkpt>
      <trkpt lat="49.90876" lon="2.28095">
        <ele>20.4</ele>
        <time>2023-01-20T14:38:11Z</time>
      </trkpt>
      <trkpt lat="49.90876" lon="2.28097">
        <ele>20.4</ele>
        <time>2023-01-20T14:38:13Z</time>
      </trkpt>
      <trkpt lat="49.90876" lon="2.28099">
        <ele>20.5</ele>
        <time>2023-01-20T14:38:14Z</time>
      </trkpt>
      <trkpt lat="49.90876" lon="2.281">
        <ele>20.5</ele>
        <time>2023-01-20T14:38:15Z</time>
      </trkpt>
      <trkpt lat="49.90876" lon="2.28102">
        <ele>20.5</ele>
        <time>2023-01-20T14:38:16Z</time>
      </trkpt>
      <trkpt lat="49.90876" lon="2.28104">
        <ele>20.5</ele>
        <time>2023-01-20T14:38:17Z</time>
      </trkpt>
      <trkpt lat="49.90876" lon="2.28106">
        <ele>20.6</ele>
        <time>2023-01-20T14:38:18Z</time>
      </trkpt>
      <trkpt lat="49.90876" lon="2.28108">
        <ele>20.7</ele>
        <time>2023-01-20T14:38:20Z</time>
      </trkpt>
      <trkpt lat="49.90875" lon="2.28111">
        <ele>20.7</ele>
        <time>2023-01-20T14:38:21Z</time>
      </trkpt>
      <trkpt lat="49.90875" lon="2.28113">
        <ele>20.7</ele>
        <time>2023-01-20T14:38:22Z</time>
      </trkpt>
      <trkpt lat="49.90875" lon="2.28114">
        <ele>20.6</ele>
        <time>2023-01-20T14:38:23Z</time>
      </trkpt>
      <trkpt lat="49.90874" lon="2.28117">
        <ele>20.6</ele>
        <time>2023-01-20T14:38:24Z</time>
      </trkpt>
      <trkpt lat="49.90873" lon="2.28119">
        <ele>20.5</ele>
        <time>2023-01-20T14:38:25Z</time>
      </trkpt>
      <trkpt lat="49.90871" lon="2.28121">
        <ele>20.5</ele>
        <time>2023-01-20T14:38:27Z</time>
      </trkpt>
      <trkpt lat="49.90871" lon="2.28122">
        <ele>20.5</ele>
        <time>2023-01-20T14:38:28Z</time>
      </trkpt>
      <trkpt lat="49.9087" lon="2.28124">
        <ele>20.5</ele>
        <time>2023-01-20T14:38:29Z</time>
      </trkpt>
      <trkpt lat="49.90869" lon="2.28124">
        <ele>20.5</ele>
        <time>2023-01-20T14:38:30Z</time>
      </trkpt>
      <trkpt lat="49.90868" lon="2.28126">
        <ele>20.5</ele>
        <time>2023-01-20T14:38:31Z</time>
      </trkpt>
      <trkpt lat="49.90867" lon="2.28127">
        <ele>20.5</ele>
        <time>2023-01-20T14:38:33Z</time>
      </trkpt>
      <trkpt lat="49.90866" lon="2.28128">
        <ele>20.4</ele>
        <time>2023-01-20T14:38:34Z</time>
      </trkpt>
      <trkpt lat="49.90865" lon="2.2813">
        <ele>20.4</ele>
        <time>2023-01-20T14:38:35Z</time>
      </trkpt>
      <trkpt lat="49.90863" lon="2.28131">
        <ele>20.4</ele>
        <time>2023-01-20T14:38:36Z</time>
      </trkpt>
      <trkpt lat="49.90862" lon="2.28131">
        <ele>20.4</ele>
        <time>2023-01-20T14:38:37Z</time>
      </trkpt>
      <trkpt lat="49.90862" lon="2.28132">
        <ele>20.4</ele>
        <time>2023-01-20T14:38:38Z</time>
      </trkpt>
      <trkpt lat="49.90859" lon="2.28133">
        <ele>20.4</ele>
        <time>2023-01-20T14:38:39Z</time>
      </trkpt>
      <trkpt lat="49.90859" lon="2.28133">
        <ele>20.4</ele>
        <time>2023-01-20T14:38:40Z</time>
      </trkpt>
      <trkpt lat="49.90858" lon="2.28134">
        <ele>20.4</ele>
        <time>2023-01-20T14:38:41Z</time>
      </trkpt>
      <trkpt lat="49.90857" lon="2.28134">
        <ele>20.4</ele>
        <time>2023-01-20T14:38:42Z</time>
      </trkpt>
      <trkpt lat="49.90855" lon="2.28135">
        <ele>20.4</ele>
        <time>2023-01-20T14:38:43Z</time>
      </trkpt>
      <trkpt lat="49.90853" lon="2.28136">
        <ele>20.4</ele>
        <time>2023-01-20T14:38:45Z</time>
      </trkpt>
      <trkpt lat="49.90852" lon="2.28136">
        <ele>20.4</ele>
        <time>2023-01-20T14:38:46Z</time>
      </trkpt>
      <trkpt lat="49.90852" lon="2.28136">
        <ele>20.4</ele>
        <time>2023-01-20T14:38:47Z</time>
      </trkpt>
      <trkpt lat="49.9085" lon="2.28136">
        <ele>20.4</ele>
        <time>2023-01-20T14:38:48Z</time>
      </trkpt>
      <trkpt lat="49.90848" lon="2.28138">
        <ele>20.4</ele>
        <time>2023-01-20T14:38:49Z</time>
      </trkpt>
      <trkpt lat="49.90848" lon="2.28138">
        <ele>20.4</ele>
        <time>2023-01-20T14:38:50Z</time>
      </trkpt>
      <trkpt lat="49.90847" lon="2.28138">
        <ele>20.4</ele>
        <time>2023-01-20T14:38:51Z</time>
      </trkpt>
      <trkpt lat="49.90846" lon="2.28138">
        <ele>20.4</ele>
        <time>2023-01-20T14:38:52Z</time>
      </trkpt>
      <trkpt lat="49.90844" lon="2.28138">
        <ele>20.4</ele>
        <time>2023-01-20T14:38:54Z</time>
      </trkpt>
      <trkpt lat="49.90843" lon="2.28137">
        <ele>20.4</ele>
        <time>2023-01-20T14:38:55Z</time>
      </trkpt>
      <trkpt lat="49.90842" lon="2.28137">
        <ele>20.4</ele>
        <time>2023-01-20T14:38:56Z</time>
      </trkpt>
      <trkpt lat="49.9084" lon="2.28136">
        <ele>20.4</ele>
        <time>2023-01-20T14:38:58Z</time>
      </trkpt>
      <trkpt lat="49.90839" lon="2.28136">
        <ele>20.4</ele>
        <time>2023-01-20T14:38:59Z</time>
      </trkpt>
      <trkpt lat="49.90837" lon="2.28135">
        <ele>20.4</ele>
        <time>2023-01-20T14:39:00Z</time>
      </trkpt>
      <trkpt lat="49.90835" lon="2.28135">
        <ele>20.4</ele>
        <time>2023-01-20T14:39:01Z</time>
      </trkpt>
      <trkpt lat="49.90834" lon="2.28134">
        <ele>20.4</ele>
        <time>2023-01-20T14:39:02Z</time>
      </trkpt>
      <trkpt lat="49.90833" lon="2.28134">
        <ele>20.4</ele>
        <time>2023-01-20T14:39:03Z</time>
      </trkpt>
      <trkpt lat="49.9083" lon="2.28133">
        <ele>20.4</ele>
        <time>2023-01-20T14:39:04Z</time>
      </trkpt>
      <trkpt lat="49.9083" lon="2.28133">
        <ele>20.4</ele>
        <time>2023-01-20T14:39:05Z</time>
      </trkpt>
      <trkpt lat="49.90829" lon="2.28132">
        <ele>20.4</ele>
        <time>2023-01-20T14:39:07Z</time>
      </trkpt>
      <trkpt lat="49.90828" lon="2.28132">
        <ele>20.4</ele>
        <time>2023-01-20T14:39:08Z</time>
      </trkpt>
      <trkpt lat="49.90827" lon="2.28132">
        <ele>20.4</ele>
        <time>2023-01-20T14:39:09Z</time>
      </trkpt>
      <trkpt lat="49.90826" lon="2.2813">
        <ele>20.4</ele>
        <time>2023-01-20T14:39:10Z</time>
      </trkpt>
      <trkpt lat="49.90825" lon="2.2813">
        <ele>20.4</ele>
        <time>2023-01-20T14:39:12Z</time>
      </trkpt>
      <trkpt lat="49.90824" lon="2.28129">
        <ele>20.4</ele>
        <time>2023-01-20T14:39:13Z</time>
      </trkpt>
      <trkpt lat="49.90823" lon="2.28131">
        <ele>20.4</ele>
        <time>2023-01-20T14:39:14Z</time>
      </trkpt>
      <trkpt lat="49.90823" lon="2.28132">
        <ele>20.4</ele>
        <time>2023-01-20T14:39:15Z</time>
      </trkpt>
      <trkpt lat="49.90822" lon="2.28132">
        <ele>20.4</ele>
        <time>2023-01-20T14:39:17Z</time>
      </trkpt>
      <trkpt lat="49.90822" lon="2.28132">
        <ele>20.4</ele>
        <time>2023-01-20T14:39:18Z</time>
      </trkpt>
      <trkpt lat="49.90821" lon="2.28132">
        <ele>20.4</ele>
        <time>2023-01-20T14:39:19Z</time>
      </trkpt>
      <trkpt lat="49.90821" lon="2.28132">
        <ele>20.4</ele>
        <time>2023-01-20T14:39:20Z</time>
      </trkpt>
      <trkpt lat="49.9082" lon="2.28132">
        <ele>20.4</ele>
        <time>2023-01-20T14:39:22Z</time>
      </trkpt>
      <trkpt lat="49.9082" lon="2.28132">
        <ele>20.4</ele>
        <time>2023-01-20T14:39:23Z</time>
      </trkpt>
      <trkpt lat="49.90819" lon="2.28132">
        <ele>20.4</ele>
        <time>2023-01-20T14:39:24Z</time>
      </trkpt>
      <trkpt lat="49.90819" lon="2.28132">
        <ele>20.4</ele>
        <time>2023-01-20T14:39:26Z</time>
      </trkpt>
      <trkpt lat="49.90819" lon="2.28132">
        <ele>20.4</ele>
        <time>2023-01-20T14:39:27Z</time>
      </trkpt>
      <trkpt lat="49.90818" lon="2.28132">
        <ele>20.4</ele>
        <time>2023-01-20T14:39:28Z</time>
      </trkpt>
      <trkpt lat="49.90818" lon="2.28132">
        <ele>20.4</ele>
        <time>2023-01-20T14:39:29Z</time>
      </trkpt>
      <trkpt lat="49.90817" lon="2.28132">
        <ele>20.4</ele>
        <time>2023-01-20T14:39:30Z</time>
      </trkpt>
      <trkpt lat="49.90817" lon="2.28132">
        <ele>20.4</ele>
        <time>2023-01-20T14:39:32Z</time>
      </trkpt>
      <trkpt lat="49.90816" lon="2.28132">
        <ele>20.4</ele>
        <time>2023-01-20T14:39:33Z</time>
      </trkpt>
      <trkpt lat="49.90815" lon="2.28132">
        <ele>20.4</ele>
        <time>2023-01-20T14:39:34Z</time>
      </trkpt>
      <trkpt lat="49.90815" lon="2.28132">
        <ele>20.4</ele>
        <time>2023-01-20T14:39:35Z</time>
      </trkpt>
      <trkpt lat="49.90814" lon="2.28132">
        <ele>20.4</ele>
        <time>2023-01-20T14:39:37Z</time>
      </trkpt>
      <trkpt lat="49.90813" lon="2.28132">
        <ele>20.4</ele>
        <time>2023-01-20T14:39:38Z</time>
      </trkpt>
      <trkpt lat="49.90812" lon="2.28131">
        <ele>20.4</ele>
        <time>2023-01-20T14:39:39Z</time>
      </trkpt>
      <trkpt lat="49.90812" lon="2.2813">
        <ele>20.3</ele>
        <time>2023-01-20T14:39:40Z</time>
      </trkpt>
      <trkpt lat="49.90812" lon="2.28129">
        <ele>20.3</ele>
        <time>2023-01-20T14:39:41Z</time>
      </trkpt>
      <trkpt lat="49.90812" lon="2.28128">
        <ele>20.3</ele>
        <time>2023-01-20T14:39:42Z</time>
      </trkpt>
      <trkpt lat="49.90812" lon="2.28127">
        <ele>20.3</ele>
        <time>2023-01-20T14:39:44Z</time>
      </trkpt>
      <trkpt lat="49.90811" lon="2.28126">
        <ele>20.3</ele>
        <time>2023-01-20T14:39:45Z</time>
      </trkpt>
      <trkpt lat="49.90811" lon="2.28125">
        <ele>20.3</ele>
        <time>2023-01-20T14:39:46Z</time>
      </trkpt>
      <trkpt lat="49.90811" lon="2.28124">
        <ele>20.3</ele>
        <time>2023-01-20T14:39:47Z</time>
      </trkpt>
      <trkpt lat="49.90809" lon="2.28123">
        <ele>20.3</ele>
        <time>2023-01-20T14:39:48Z</time>
      </trkpt>
      <trkpt lat="49.90808" lon="2.28123">
        <ele>20.3</ele>
        <time>2023-01-20T14:39:49Z</time>
      </trkpt>
      <trkpt lat="49.90807" lon="2.28123">
        <ele>20.3</ele>
        <time>2023-01-20T14:39:50Z</time>
      </trkpt>
      <trkpt lat="49.90806" lon="2.28122">
        <ele>20.3</ele>
        <time>2023-01-20T14:39:52Z</time>
      </trkpt>
      <trkpt lat="49.90805" lon="2.28121">
        <ele>20.3</ele>
        <time>2023-01-20T14:39:53Z</time>
      </trkpt>
      <trkpt lat="49.90805" lon="2.2812">
        <ele>20.3</ele>
        <time>2023-01-20T14:39:54Z</time>
      </trkpt>
      <trkpt lat="49.90804" lon="2.28118">
        <ele>20.3</ele>
        <time>2023-01-20T14:39:55Z</time>
      </trkpt>
      <trkpt lat="49.90803" lon="2.28116">
        <ele>20.3</ele>
        <time>2023-01-20T14:39:56Z</time>
      </trkpt>
      <trkpt lat="49.90802" lon="2.28113">
        <ele>20.3</ele>
        <time>2023-01-20T14:39:58Z</time>
      </trkpt>
      <trkpt lat="49.90802" lon="2.28109">
        <ele>20.3</ele>
        <time>2023-01-20T14:40:00Z</time>
      </trkpt>
      <trkpt lat="49.90802" lon="2.28106">
        <ele>20.3</ele>
        <time>2023-01-20T14:40:01Z</time>
      </trkpt>
      <trkpt lat="49.90801" lon="2.28104">
        <ele>20.3</ele>
        <time>2023-01-20T14:40:02Z</time>
      </trkpt>
      <trkpt lat="49.908" lon="2.28103">
        <ele>20.3</ele>
        <time>2023-01-20T14:40:03Z</time>
      </trkpt>
      <trkpt lat="49.908" lon="2.28101">
        <ele>20.3</ele>
        <time>2023-01-20T14:40:04Z</time>
      </trkpt>
      <trkpt lat="49.90798" lon="2.281">
        <ele>20.3</ele>
        <time>2023-01-20T14:40:06Z</time>
      </trkpt>
      <trkpt lat="49.90797" lon="2.281">
        <ele>20.3</ele>
        <time>2023-01-20T14:40:07Z</time>
      </trkpt>
      <trkpt lat="49.90796" lon="2.281">
        <ele>20.3</ele>
        <time>2023-01-20T14:40:08Z</time>
      </trkpt>
      <trkpt lat="49.90796" lon="2.28099">
        <ele>20.3</ele>
        <time>2023-01-20T14:40:09Z</time>
      </trkpt>
      <trkpt lat="49.90794" lon="2.28099">
        <ele>20.3</ele>
        <time>2023-01-20T14:40:11Z</time>
      </trkpt>
      <trkpt lat="49.90793" lon="2.28099">
        <ele>20.3</ele>
        <time>2023-01-20T14:40:12Z</time>
      </trkpt>
      <trkpt lat="49.90792" lon="2.28099">
        <ele>20.3</ele>
        <time>2023-01-20T14:40:13Z</time>
      </trkpt>
      <trkpt lat="49.90791" lon="2.28098">
        <ele>20.3</ele>
        <time>2023-01-20T14:40:14Z</time>
      </trkpt>
      <trkpt lat="49.90789" lon="2.28098">
        <ele>20.3</ele>
        <time>2023-01-20T14:40:15Z</time>
      </trkpt>
      <trkpt lat="49.90789" lon="2.28098">
        <ele>20.3</ele>
        <time>2023-01-20T14:40:16Z</time>
      </trkpt>
      <trkpt lat="49.90788" lon="2.28097">
        <ele>20.3</ele>
        <time>2023-01-20T14:40:17Z</time>
      </trkpt>
      <trkpt lat="49.90787" lon="2.28097">
        <ele>20.3</ele>
        <time>2023-01-20T14:40:19Z</time>
      </trkpt>
      <trkpt lat="49.90785" lon="2.28096">
        <ele>20.3</ele>
        <time>2023-01-20T14:40:20Z</time>
      </trkpt>
      <trkpt lat="49.90784" lon="2.28095">
        <ele>20.3</ele>
        <time>2023-01-20T14:40:21Z</time>
      </trkpt>
      <trkpt lat="49.90783" lon="2.28095">
        <ele>20.3</ele>
        <time>2023-01-20T14:40:22Z</time>
      </trkpt>
      <trkpt lat="49.90783" lon="2.28094">
        <ele>20.3</ele>
        <time>2023-01-20T14:40:23Z</time>
      </trkpt>
      <trkpt lat="49.9078" lon="2.28093">
        <ele>20.3</ele>
        <time>2023-01-20T14:40:24Z</time>
      </trkpt>
      <trkpt lat="49.9078" lon="2.28092">
        <ele>20.3</ele>
        <time>2023-01-20T14:40:26Z</time>
      </trkpt>
      <trkpt lat="49.90779" lon="2.28092">
        <ele>20.3</ele>
        <time>2023-01-20T14:40:27Z</time>
      </trkpt>
      <trkpt lat="49.90778" lon="2.28091">
        <ele>20.3</ele>
        <time>2023-01-20T14:40:28Z</time>
      </trkpt>
      <trkpt lat="49.90777" lon="2.2809">
        <ele>20.3</ele>
        <time>2023-01-20T14:40:29Z</time>
      </trkpt>
      <trkpt lat="49.90776" lon="2.2809">
        <ele>20.3</ele>
        <time>2023-01-20T14:40:30Z</time>
      </trkpt>
      <trkpt lat="49.90775" lon="2.28089">
        <ele>20.3</ele>
        <time>2023-01-20T14:40:31Z</time>
      </trkpt>
      <trkpt lat="49.90774" lon="2.28089">
        <ele>20.3</ele>
        <time>2023-01-20T14:40:32Z</time>
      </trkpt>
      <trkpt lat="49.90773" lon="2.28087">
        <ele>20.3</ele>
        <time>2023-01-20T14:40:34Z</time>
      </trkpt>
      <trkpt lat="49.90772" lon="2.28086">
        <ele>20.3</ele>
        <time>2023-01-20T14:40:36Z</time>
      </trkpt>
      <trkpt lat="49.90771" lon="2.28086">
        <ele>20.3</ele>
        <time>2023-01-20T14:40:37Z</time>
      </trkpt>
      <trkpt lat="49.9077" lon="2.28086">
        <ele>20.3</ele>
        <time>2023-01-20T14:40:38Z</time>
      </trkpt>
      <trkpt lat="49.90769" lon="2.28086">
        <ele>20.3</ele>
        <time>2023-01-20T14:40:39Z</time>
      </trkpt>
      <trkpt lat="49.90769" lon="2.28086">
        <ele>20.3</ele>
        <time>2023-01-20T14:40:41Z</time>
      </trkpt>
      <trkpt lat="49.9077" lon="2.28087">
        <ele>20.3</ele>
        <time>2023-01-20T14:40:43Z</time>
      </trkpt>
      <trkpt lat="49.9077" lon="2.28087">
        <ele>20.3</ele>
        <time>2023-01-20T14:40:44Z</time>
      </trkpt>
      <trkpt lat="49.90771" lon="2.28087">
        <ele>20.3</ele>
        <time>2023-01-20T14:40:45Z</time>
      </trkpt>
      <trkpt lat="49.90771" lon="2.28087">
        <ele>20.3</ele>
        <time>2023-01-20T14:40:47Z</time>
      </trkpt>
      <trkpt lat="49.90771" lon="2.28087">
        <ele>20.3</ele>
        <time>2023-01-20T14:40:48Z</time>
      </trkpt>
      <trkpt lat="49.90772" lon="2.28087">
        <ele>20.3</ele>
        <time>2023-01-20T14:40:49Z</time>
      </trkpt>
      <trkpt lat="49.90772" lon="2.28088">
        <ele>20.3</ele>
        <time>2023-01-20T14:40:50Z</time>
      </trkpt>
      <trkpt lat="49.90772" lon="2.28088">
        <ele>20.3</ele>
        <time>2023-01-20T14:40:52Z</time>
      </trkpt>
      <trkpt lat="49.90772" lon="2.28088">
        <ele>20.3</ele>
        <time>2023-01-20T14:40:53Z</time>
      </trkpt>
      <trkpt lat="49.90772" lon="2.28088">
        <ele>20.3</ele>
        <time>2023-01-20T14:40:54Z</time>
      </trkpt>
      <trkpt lat="49.90772" lon="2.28088">
        <ele>20.3</ele>
        <time>2023-01-20T14:40:56Z</time>
      </trkpt>
      <trkpt lat="49.90772" lon="2.28087">
        <ele>20.3</ele>
        <time>2023-01-20T14:40:57Z</time>
      </trkpt>
      <trkpt lat="49.90772" lon="2.28087">
        <ele>20.3</ele>
        <time>2023-01-20T14:40:59Z</time>
      </trkpt>
      <trkpt lat="49.90773" lon="2.28087">
        <ele>20.3</ele>
        <time>2023-01-20T14:41:00Z</time>
      </trkpt>
      <trkpt lat="49.90773" lon="2.28087">
        <ele>20.3</ele>
        <time>2023-01-20T14:41:01Z</time>
      </trkpt>
      <trkpt lat="49.90773" lon="2.28087">
        <ele>20.3</ele>
        <time>2023-01-20T14:41:02Z</time>
      </trkpt>
      <trkpt lat="49.90773" lon="2.28087">
        <ele>20.3</ele>
        <time>2023-01-20T14:41:03Z</time>
      </trkpt>
      <trkpt lat="49.90773" lon="2.28087">
        <ele>20.3</ele>
        <time>2023-01-20T14:41:04Z</time>
      </trkpt>
      <trkpt lat="49.90773" lon="2.28087">
        <ele>20.3</ele>
        <time>2023-01-20T14:41:05Z</time>
      </trkpt>
      <trkpt lat="49.90773" lon="2.28087">
        <ele>20.3</ele>
        <time>2023-01-20T14:41:06Z</time>
      </trkpt>
      <trkpt lat="49.90773" lon="2.28087">
        <ele>20.3</ele>
        <time>2023-01-20T14:41:07Z</time>
      </trkpt>
      <trkpt lat="49.90773" lon="2.28087">
        <ele>20.3</ele>
        <time>2023-01-20T14:41:08Z</time>
      </trkpt>
      <trkpt lat="49.90773" lon="2.28087">
        <ele>20.3</ele>
        <time>2023-01-20T14:41:09Z</time>
      </trkpt>
      <trkpt lat="49.90773" lon="2.28087">
        <ele>20.3</ele>
        <time>2023-01-20T14:41:10Z</time>
      </trkpt>
      <trkpt lat="49.90773" lon="2.28087">
        <ele>20.3</ele>
        <time>2023-01-20T14:41:11Z</time>
      </trkpt>
      <trkpt lat="49.90773" lon="2.28087">
        <ele>20.3</ele>
        <time>2023-01-20T14:41:12Z</time>
      </trkpt>
      <trkpt lat="49.90773" lon="2.28087">
        <ele>20.3</ele>
        <time>2023-01-20T14:41:13Z</time>
      </trkpt>
      <trkpt lat="49.90773" lon="2.28087">
        <ele>20.3</ele>
        <time>2023-01-20T14:41:14Z</time>
      </trkpt>
      <trkpt lat="49.90773" lon="2.28087">
        <ele>20.3</ele>
        <time>2023-01-20T14:41:15Z</time>
      </trkpt>
      <trkpt lat="49.90773" lon="2.28087">
        <ele>20.3</ele>
        <time>2023-01-20T14:41:16Z</time>
      </trkpt>
      <trkpt lat="49.90773" lon="2.28087">
        <ele>20.3</ele>
        <time>2023-01-20T14:41:17Z</time>
      </trkpt>
      <trkpt lat="49.90773" lon="2.28087">
        <ele>20.3</ele>
        <time>2023-01-20T14:41:18Z</time>
      </trkpt>
      <trkpt lat="49.90773" lon="2.28087">
        <ele>20.3</ele>
        <time>2023-01-20T14:41:19Z</time>
      </trkpt>
      <trkpt lat="49.90773" lon="2.28087">
        <ele>20.3</ele>
        <time>2023-01-20T14:41:20Z</time>
      </trkpt>
      <trkpt lat="49.90773" lon="2.28087">
        <ele>20.3</ele>
        <time>2023-01-20T14:41:21Z</time>
      </trkpt>
      <trkpt lat="49.90773" lon="2.28087">
        <ele>20.3</ele>
        <time>2023-01-20T14:41:22Z</time>
      </trkpt>
      <trkpt lat="49.90773" lon="2.28087">
        <ele>20.3</ele>
        <time>2023-01-20T14:41:23Z</time>
      </trkpt>
      <trkpt lat="49.90773" lon="2.28087">
        <ele>20.3</ele>
        <time>2023-01-20T14:41:24Z</time>
      </trkpt>
      <trkpt lat="49.90775" lon="2.28087">
        <ele>20.3</ele>
        <time>2023-01-20T14:41:25Z</time>
      </trkpt>
      <trkpt lat="49.90775" lon="2.28087">
        <ele>20.3</ele>
        <time>2023-01-20T14:41:26Z</time>
      </trkpt>
      <trkpt lat="49.90775" lon="2.28087">
        <ele>20.3</ele>
        <time>2023-01-20T14:41:27Z</time>
      </trkpt>
      <trkpt lat="49.90775" lon="2.28087">
        <ele>20.3</ele>
        <time>2023-01-20T14:41:28Z</time>
      </trkpt>
      <trkpt lat="49.90774" lon="2.28087">
        <ele>20.3</ele>
        <time>2023-01-20T14:41:29Z</time>
      </trkpt>
      <trkpt lat="49.90773" lon="2.28088">
        <ele>20.3</ele>
        <time>2023-01-20T14:41:30Z</time>
      </trkpt>
      <trkpt lat="49.90772" lon="2.28088">
        <ele>20.3</ele>
        <time>2023-01-20T14:41:31Z</time>
      </trkpt>
      <trkpt lat="49.90772" lon="2.28087">
        <ele>20.3</ele>
        <time>2023-01-20T14:41:32Z</time>
      </trkpt>
      <trkpt lat="49.90771" lon="2.28087">
        <ele>20.3</ele>
        <time>2023-01-20T14:41:34Z</time>
      </trkpt>
      <trkpt lat="49.90771" lon="2.28088">
        <ele>20.3</ele>
        <time>2023-01-20T14:41:36Z</time>
      </trkpt>
      <trkpt lat="49.9077" lon="2.28089">
        <ele>20.3</ele>
        <time>2023-01-20T14:41:37Z</time>
      </trkpt>
      <trkpt lat="49.9077" lon="2.2809">
        <ele>20.3</ele>
        <time>2023-01-20T14:41:38Z</time>
      </trkpt>
      <trkpt lat="49.9077" lon="2.28092">
        <ele>20.3</ele>
        <time>2023-01-20T14:41:39Z</time>
      </trkpt>
      <trkpt lat="49.9077" lon="2.28098">
        <ele>20.3</ele>
        <time>2023-01-20T14:41:41Z</time>
      </trkpt>
      <trkpt lat="49.9077" lon="2.281">
        <ele>20.3</ele>
        <time>2023-01-20T14:41:43Z</time>
      </trkpt>
      <trkpt lat="49.9077" lon="2.28101">
        <ele>20.3</ele>
        <time>2023-01-20T14:41:44Z</time>
      </trkpt>
      <trkpt lat="49.9077" lon="2.28102">
        <ele>20.3</ele>
        <time>2023-01-20T14:41:45Z</time>
      </trkpt>
      <trkpt lat="49.9077" lon="2.28104">
        <ele>20.3</ele>
        <time>2023-01-20T14:41:46Z</time>
      </trkpt>
      <trkpt lat="49.9077" lon="2.28105">
        <ele>20.3</ele>
        <time>2023-01-20T14:41:47Z</time>
      </trkpt>
      <trkpt lat="49.90769" lon="2.28107">
        <ele>20.3</ele>
        <time>2023-01-20T14:41:48Z</time>
      </trkpt>
      <trkpt lat="49.90769" lon="2.28108">
        <ele>20.3</ele>
        <time>2023-01-20T14:41:50Z</time>
      </trkpt>
      <trkpt lat="49.90768" lon="2.28111">
        <ele>20.3</ele>
        <time>2023-01-20T14:41:51Z</time>
      </trkpt>
      <trkpt lat="49.90768" lon="2.28112">
        <ele>20.3</ele>
        <time>2023-01-20T14:41:52Z</time>
      </trkpt>
      <trkpt lat="49.90768" lon="2.28113">
        <ele>20.3</ele>
        <time>2023-01-20T14:41:53Z</time>
      </trkpt>
      <trkpt lat="49.90767" lon="2.28115">
        <ele>20.3</ele>
        <time>2023-01-20T14:41:54Z</time>
      </trkpt>
      <trkpt lat="49.90766" lon="2.28117">
        <ele>20.3</ele>
        <time>2023-01-20T14:41:56Z</time>
      </trkpt>
      <trkpt lat="49.90766" lon="2.28118">
        <ele>20.3</ele>
        <time>2023-01-20T14:41:57Z</time>
      </trkpt>
      <trkpt lat="49.90765" lon="2.2812">
        <ele>20.3</ele>
        <time>2023-01-20T14:41:58Z</time>
      </trkpt>
      <trkpt lat="49.90765" lon="2.28122">
        <ele>20.3</ele>
        <time>2023-01-20T14:41:59Z</time>
      </trkpt>
      <trkpt lat="49.90765" lon="2.28124">
        <ele>20.3</ele>
        <time>2023-01-20T14:42:00Z</time>
      </trkpt>
      <trkpt lat="49.90764" lon="2.28126">
        <ele>20.3</ele>
        <time>2023-01-20T14:42:01Z</time>
      </trkpt>
      <trkpt lat="49.90763" lon="2.28128">
        <ele>20.3</ele>
        <time>2023-01-20T14:42:02Z</time>
      </trkpt>
      <trkpt lat="49.90763" lon="2.28129">
        <ele>20.3</ele>
        <time>2023-01-20T14:42:04Z</time>
      </trkpt>
      <trkpt lat="49.90762" lon="2.28131">
        <ele>20.3</ele>
        <time>2023-01-20T14:42:05Z</time>
      </trkpt>
      <trkpt lat="49.90761" lon="2.28133">
        <ele>20.3</ele>
        <time>2023-01-20T14:42:06Z</time>
      </trkpt>
      <trkpt lat="49.9076" lon="2.28134">
        <ele>20.3</ele>
        <time>2023-01-20T14:42:07Z</time>
      </trkpt>
      <trkpt lat="49.9076" lon="2.28135">
        <ele>20.3</ele>
        <time>2023-01-20T14:42:08Z</time>
      </trkpt>
      <trkpt lat="49.90758" lon="2.28138">
        <ele>20.3</ele>
        <time>2023-01-20T14:42:09Z</time>
      </trkpt>
      <trkpt lat="49.90758" lon="2.28139">
        <ele>20.3</ele>
        <time>2023-01-20T14:42:10Z</time>
      </trkpt>
      <trkpt lat="49.90757" lon="2.2814">
        <ele>20.3</ele>
        <time>2023-01-20T14:42:11Z</time>
      </trkpt>
      <trkpt lat="49.90756" lon="2.28142">
        <ele>20.3</ele>
        <time>2023-01-20T14:42:13Z</time>
      </trkpt>
      <trkpt lat="49.90755" lon="2.28143">
        <ele>20.3</ele>
        <time>2023-01-20T14:42:14Z</time>
      </trkpt>
      <trkpt lat="49.90755" lon="2.28144">
        <ele>20.3</ele>
        <time>2023-01-20T14:42:15Z</time>
      </trkpt>
      <trkpt lat="49.90753" lon="2.28146">
        <ele>20.3</ele>
        <time>2023-01-20T14:42:16Z</time>
      </trkpt>
      <trkpt lat="49.90752" lon="2.28147">
        <ele>20.3</ele>
        <time>2023-01-20T14:42:17Z</time>
      </trkpt>
      <trkpt lat="49.90752" lon="2.28148">
        <ele>20.3</ele>
        <time>2023-01-20T14:42:18Z</time>
      </trkpt>
      <trkpt lat="49.9075" lon="2.28149">
        <ele>20.3</ele>
        <time>2023-01-20T14:42:19Z</time>
      </trkpt>
      <trkpt lat="49.90748" lon="2.28151">
        <ele>20.3</ele>
        <time>2023-01-20T14:42:21Z</time>
      </trkpt>
      <trkpt lat="49.90748" lon="2.28151">
        <ele>20.3</ele>
        <time>2023-01-20T14:42:22Z</time>
      </trkpt>
      <trkpt lat="49.90747" lon="2.28152">
        <ele>20.3</ele>
        <time>2023-01-20T14:42:23Z</time>
      </trkpt>
      <trkpt lat="49.90746" lon="2.28154">
        <ele>20.3</ele>
        <time>2023-01-20T14:42:24Z</time>
      </trkpt>
      <trkpt lat="49.90745" lon="2.28155">
        <ele>20.3</ele>
        <time>2023-01-20T14:42:25Z</time>
      </trkpt>
      <trkpt lat="49.90743" lon="2.28155">
        <ele>20.4</ele>
        <time>2023-01-20T14:42:26Z</time>
      </trkpt>
      <trkpt lat="49.90742" lon="2.28155">
        <ele>20.4</ele>
        <time>2023-01-20T14:42:27Z</time>
      </trkpt>
      <trkpt lat="49.90741" lon="2.28156">
        <ele>20.4</ele>
        <time>2023-01-20T14:42:28Z</time>
      </trkpt>
      <trkpt lat="49.9074" lon="2.28157">
        <ele>20.4</ele>
        <time>2023-01-20T14:42:30Z</time>
      </trkpt>
      <trkpt lat="49.90739" lon="2.28162">
        <ele>20.4</ele>
        <time>2023-01-20T14:42:31Z</time>
      </trkpt>
      <trkpt lat="49.90739" lon="2.28163">
        <ele>20.4</ele>
        <time>2023-01-20T14:42:32Z</time>
      </trkpt>
      <trkpt lat="49.90738" lon="2.28164">
        <ele>20.4</ele>
        <time>2023-01-20T14:42:33Z</time>
      </trkpt>
      <trkpt lat="49.90737" lon="2.28164">
        <ele>20.4</ele>
        <time>2023-01-20T14:42:34Z</time>
      </trkpt>
      <trkpt lat="49.90735" lon="2.28165">
        <ele>20.4</ele>
        <time>2023-01-20T14:42:35Z</time>
      </trkpt>
      <trkpt lat="49.90735" lon="2.28169">
        <ele>20.4</ele>
        <time>2023-01-20T14:42:37Z</time>
      </trkpt>
      <trkpt lat="49.90733" lon="2.28171">
        <ele>20.4</ele>
        <time>2023-01-20T14:42:38Z</time>
      </trkpt>
      <trkpt lat="49.90732" lon="2.28171">
        <ele>20.4</ele>
        <time>2023-01-20T14:42:39Z</time>
      </trkpt>
      <trkpt lat="49.90731" lon="2.28171">
        <ele>20.4</ele>
        <time>2023-01-20T14:42:40Z</time>
      </trkpt>
      <trkpt lat="49.9073" lon="2.28174">
        <ele>20.4</ele>
        <time>2023-01-20T14:42:41Z</time>
      </trkpt>
      <trkpt lat="49.90729" lon="2.28175">
        <ele>20.4</ele>
        <time>2023-01-20T14:42:42Z</time>
      </trkpt>
      <trkpt lat="49.90728" lon="2.28175">
        <ele>20.4</ele>
        <time>2023-01-20T14:42:43Z</time>
      </trkpt>
      <trkpt lat="49.90726" lon="2.28176">
        <ele>20.4</ele>
        <time>2023-01-20T14:42:44Z</time>
      </trkpt>
      <trkpt lat="49.90724" lon="2.28178">
        <ele>20.4</ele>
        <time>2023-01-20T14:42:45Z</time>
      </trkpt>
      <trkpt lat="49.90723" lon="2.28178">
        <ele>20.4</ele>
        <time>2023-01-20T14:42:47Z</time>
      </trkpt>
      <trkpt lat="49.90723" lon="2.28178">
        <ele>20.4</ele>
        <time>2023-01-20T14:42:48Z</time>
      </trkpt>
      <trkpt lat="49.90721" lon="2.28177">
        <ele>20.4</ele>
        <time>2023-01-20T14:42:49Z</time>
      </trkpt>
      <trkpt lat="49.9072" lon="2.28177">
        <ele>20.4</ele>
        <time>2023-01-20T14:42:50Z</time>
      </trkpt>
      <trkpt lat="49.90719" lon="2.28179">
        <ele>20.4</ele>
        <time>2023-01-20T14:42:51Z</time>
      </trkpt>
      <trkpt lat="49.90718" lon="2.28179">
        <ele>20.4</ele>
        <time>2023-01-20T14:42:52Z</time>
      </trkpt>
      <trkpt lat="49.90717" lon="2.28179">
        <ele>20.4</ele>
        <time>2023-01-20T14:42:53Z</time>
      </trkpt>
      <trkpt lat="49.90715" lon="2.28178">
        <ele>20.4</ele>
        <time>2023-01-20T14:42:54Z</time>
      </trkpt>
      <trkpt lat="49.90712" lon="2.28177">
        <ele>20.4</ele>
        <time>2023-01-20T14:42:56Z</time>
      </trkpt>
      <trkpt lat="49.90711" lon="2.28173">
        <ele>20.4</ele>
        <time>2023-01-20T14:42:57Z</time>
      </trkpt>
      <trkpt lat="49.90711" lon="2.28172">
        <ele>20.4</ele>
        <time>2023-01-20T14:42:58Z</time>
      </trkpt>
      <trkpt lat="49.9071" lon="2.28171">
        <ele>20.4</ele>
        <time>2023-01-20T14:42:59Z</time>
      </trkpt>
      <trkpt lat="49.90708" lon="2.2817">
        <ele>20.3</ele>
        <time>2023-01-20T14:43:00Z</time>
      </trkpt>
      <trkpt lat="49.90706" lon="2.2817">
        <ele>20.3</ele>
        <time>2023-01-20T14:43:02Z</time>
      </trkpt>
      <trkpt lat="49.90704" lon="2.28169">
        <ele>20.3</ele>
        <time>2023-01-20T14:43:03Z</time>
      </trkpt>
      <trkpt lat="49.90703" lon="2.28169">
        <ele>20.3</ele>
        <time>2023-01-20T14:43:04Z</time>
      </trkpt>
      <trkpt lat="49.90703" lon="2.28169">
        <ele>20.3</ele>
        <time>2023-01-20T14:43:05Z</time>
      </trkpt>
      <trkpt lat="49.907" lon="2.2817">
        <ele>20.2</ele>
        <time>2023-01-20T14:43:06Z</time>
      </trkpt>
      <trkpt lat="49.90699" lon="2.2817">
        <ele>20.2</ele>
        <time>2023-01-20T14:43:07Z</time>
      </trkpt>
      <trkpt lat="49.90699" lon="2.2817">
        <ele>20.2</ele>
        <time>2023-01-20T14:43:08Z</time>
      </trkpt>
      <trkpt lat="49.90698" lon="2.2817">
        <ele>20.2</ele>
        <time>2023-01-20T14:43:09Z</time>
      </trkpt>
      <trkpt lat="49.90696" lon="2.28171">
        <ele>20.2</ele>
        <time>2023-01-20T14:43:10Z</time>
      </trkpt>
      <trkpt lat="49.90694" lon="2.28172">
        <ele>20.2</ele>
        <time>2023-01-20T14:43:12Z</time>
      </trkpt>
      <trkpt lat="49.90693" lon="2.28172">
        <ele>20.2</ele>
        <time>2023-01-20T14:43:13Z</time>
      </trkpt>
      <trkpt lat="49.90692" lon="2.28172">
        <ele>20.2</ele>
        <time>2023-01-20T14:43:14Z</time>
      </trkpt>
      <trkpt lat="49.9069" lon="2.28173">
        <ele>20.1</ele>
        <time>2023-01-20T14:43:15Z</time>
      </trkpt>
      <trkpt lat="49.90689" lon="2.28173">
        <ele>20.1</ele>
        <time>2023-01-20T14:43:16Z</time>
      </trkpt>
      <trkpt lat="49.90688" lon="2.28174">
        <ele>20.1</ele>
        <time>2023-01-20T14:43:17Z</time>
      </trkpt>
      <trkpt lat="49.90687" lon="2.28174">
        <ele>20.1</ele>
        <time>2023-01-20T14:43:19Z</time>
      </trkpt>
      <trkpt lat="49.90686" lon="2.28175">
        <ele>20.1</ele>
        <time>2023-01-20T14:43:20Z</time>
      </trkpt>
      <trkpt lat="49.90684" lon="2.28176">
        <ele>20</ele>
        <time>2023-01-20T14:43:21Z</time>
      </trkpt>
      <trkpt lat="49.90683" lon="2.28176">
        <ele>20</ele>
        <time>2023-01-20T14:43:22Z</time>
      </trkpt>
      <trkpt lat="49.90682" lon="2.28177">
        <ele>20</ele>
        <time>2023-01-20T14:43:23Z</time>
      </trkpt>
      <trkpt lat="49.9068" lon="2.28177">
        <ele>20</ele>
        <time>2023-01-20T14:43:24Z</time>
      </trkpt>
      <trkpt lat="49.90679" lon="2.28177">
        <ele>20</ele>
        <time>2023-01-20T14:43:25Z</time>
      </trkpt>
      <trkpt lat="49.90678" lon="2.28178">
        <ele>20</ele>
        <time>2023-01-20T14:43:26Z</time>
      </trkpt>
      <trkpt lat="49.90677" lon="2.28178">
        <ele>20</ele>
        <time>2023-01-20T14:43:27Z</time>
      </trkpt>
      <trkpt lat="49.90675" lon="2.28179">
        <ele>20</ele>
        <time>2023-01-20T14:43:29Z</time>
      </trkpt>
      <trkpt lat="49.90674" lon="2.2818">
        <ele>20</ele>
        <time>2023-01-20T14:43:30Z</time>
      </trkpt>
      <trkpt lat="49.90672" lon="2.28181">
        <ele>19.9</ele>
        <time>2023-01-20T14:43:31Z</time>
      </trkpt>
      <trkpt lat="49.90672" lon="2.28181">
        <ele>19.9</ele>
        <time>2023-01-20T14:43:32Z</time>
      </trkpt>
      <trkpt lat="49.90671" lon="2.28182">
        <ele>19.9</ele>
        <time>2023-01-20T14:43:34Z</time>
      </trkpt>
      <trkpt lat="49.90669" lon="2.28182">
        <ele>19.9</ele>
        <time>2023-01-20T14:43:35Z</time>
      </trkpt>
      <trkpt lat="49.90668" lon="2.28183">
        <ele>19.9</ele>
        <time>2023-01-20T14:43:36Z</time>
      </trkpt>
      <trkpt lat="49.90667" lon="2.28185">
        <ele>19.9</ele>
        <time>2023-01-20T14:43:37Z</time>
      </trkpt>
      <trkpt lat="49.90665" lon="2.28186">
        <ele>19.9</ele>
        <time>2023-01-20T14:43:38Z</time>
      </trkpt>
      <trkpt lat="49.90665" lon="2.28187">
        <ele>19.9</ele>
        <time>2023-01-20T14:43:39Z</time>
      </trkpt>
      <trkpt lat="49.90664" lon="2.28188">
        <ele>19.9</ele>
        <time>2023-01-20T14:43:40Z</time>
      </trkpt>
      <trkpt lat="49.90662" lon="2.2819">
        <ele>19.9</ele>
        <time>2023-01-20T14:43:41Z</time>
      </trkpt>
      <trkpt lat="49.90662" lon="2.28191">
        <ele>19.9</ele>
        <time>2023-01-20T14:43:42Z</time>
      </trkpt>
      <trkpt lat="49.9066" lon="2.28192">
        <ele>19.9</ele>
        <time>2023-01-20T14:43:43Z</time>
      </trkpt>
      <trkpt lat="49.90659" lon="2.28193">
        <ele>19.9</ele>
        <time>2023-01-20T14:43:45Z</time>
      </trkpt>
      <trkpt lat="49.90659" lon="2.28194">
        <ele>19.9</ele>
        <time>2023-01-20T14:43:46Z</time>
      </trkpt>
      <trkpt lat="49.90657" lon="2.28196">
        <ele>19.9</ele>
        <time>2023-01-20T14:43:47Z</time>
      </trkpt>
      <trkpt lat="49.90656" lon="2.28198">
        <ele>19.9</ele>
        <time>2023-01-20T14:43:48Z</time>
      </trkpt>
      <trkpt lat="49.90655" lon="2.28199">
        <ele>19.9</ele>
        <time>2023-01-20T14:43:49Z</time>
      </trkpt>
      <trkpt lat="49.90654" lon="2.28201">
        <ele>19.9</ele>
        <time>2023-01-20T14:43:50Z</time>
      </trkpt>
      <trkpt lat="49.90652" lon="2.28202">
        <ele>19.9</ele>
        <time>2023-01-20T14:43:51Z</time>
      </trkpt>
      <trkpt lat="49.90651" lon="2.28203">
        <ele>19.9</ele>
        <time>2023-01-20T14:43:52Z</time>
      </trkpt>
      <trkpt lat="49.90651" lon="2.28204">
        <ele>19.9</ele>
        <time>2023-01-20T14:43:54Z</time>
      </trkpt>
      <trkpt lat="49.90649" lon="2.28205">
        <ele>19.9</ele>
        <time>2023-01-20T14:43:55Z</time>
      </trkpt>
      <trkpt lat="49.90648" lon="2.28206">
        <ele>19.9</ele>
        <time>2023-01-20T14:43:56Z</time>
      </trkpt>
      <trkpt lat="49.90647" lon="2.28207">
        <ele>19.9</ele>
        <time>2023-01-20T14:43:57Z</time>
      </trkpt>
      <trkpt lat="49.90646" lon="2.28208">
        <ele>19.9</ele>
        <time>2023-01-20T14:43:58Z</time>
      </trkpt>
      <trkpt lat="49.90645" lon="2.28209">
        <ele>19.9</ele>
        <time>2023-01-20T14:43:59Z</time>
      </trkpt>
      <trkpt lat="49.90644" lon="2.2821">
        <ele>19.9</ele>
        <time>2023-01-20T14:44:01Z</time>
      </trkpt>
      <trkpt lat="49.90643" lon="2.28211">
        <ele>19.9</ele>
        <time>2023-01-20T14:44:02Z</time>
      </trkpt>
      <trkpt lat="49.90642" lon="2.28212">
        <ele>19.9</ele>
        <time>2023-01-20T14:44:04Z</time>
      </trkpt>
      <trkpt lat="49.90641" lon="2.28213">
        <ele>19.9</ele>
        <time>2023-01-20T14:44:05Z</time>
      </trkpt>
      <trkpt lat="49.90641" lon="2.28214">
        <ele>19.9</ele>
        <time>2023-01-20T14:44:06Z</time>
      </trkpt>
      <trkpt lat="49.9064" lon="2.28218">
        <ele>19.9</ele>
        <time>2023-01-20T14:44:07Z</time>
      </trkpt>
      <trkpt lat="49.90639" lon="2.2822">
        <ele>19.9</ele>
        <time>2023-01-20T14:44:08Z</time>
      </trkpt>
      <trkpt lat="49.90638" lon="2.28221">
        <ele>19.9</ele>
        <time>2023-01-20T14:44:09Z</time>
      </trkpt>
      <trkpt lat="49.90637" lon="2.28222">
        <ele>19.9</ele>
        <time>2023-01-20T14:44:10Z</time>
      </trkpt>
      <trkpt lat="49.90635" lon="2.28224">
        <ele>19.9</ele>
        <time>2023-01-20T14:44:11Z</time>
      </trkpt>
      <trkpt lat="49.90635" lon="2.28224">
        <ele>19.9</ele>
        <time>2023-01-20T14:44:12Z</time>
      </trkpt>
      <trkpt lat="49.90634" lon="2.28225">
        <ele>19.9</ele>
        <time>2023-01-20T14:44:13Z</time>
      </trkpt>
      <trkpt lat="49.90632" lon="2.28227">
        <ele>19.9</ele>
        <time>2023-01-20T14:44:15Z</time>
      </trkpt>
      <trkpt lat="49.90631" lon="2.28228">
        <ele>19.9</ele>
        <time>2023-01-20T14:44:16Z</time>
      </trkpt>
      <trkpt lat="49.9063" lon="2.2823">
        <ele>19.9</ele>
        <time>2023-01-20T14:44:17Z</time>
      </trkpt>
      <trkpt lat="49.90629" lon="2.2823">
        <ele>19.9</ele>
        <time>2023-01-20T14:44:18Z</time>
      </trkpt>
      <trkpt lat="49.90628" lon="2.28231">
        <ele>19.9</ele>
        <time>2023-01-20T14:44:19Z</time>
      </trkpt>
      <trkpt lat="49.90627" lon="2.28233">
        <ele>19.9</ele>
        <time>2023-01-20T14:44:20Z</time>
      </trkpt>
      <trkpt lat="49.90627" lon="2.28239">
        <ele>19.9</ele>
        <time>2023-01-20T14:44:21Z</time>
      </trkpt>
      <trkpt lat="49.90627" lon="2.2824">
        <ele>19.9</ele>
        <time>2023-01-20T14:44:22Z</time>
      </trkpt>
      <trkpt lat="49.90626" lon="2.28241">
        <ele>19.9</ele>
        <time>2023-01-20T14:44:23Z</time>
      </trkpt>
      <trkpt lat="49.90625" lon="2.28242">
        <ele>19.9</ele>
        <time>2023-01-20T14:44:25Z</time>
      </trkpt>
      <trkpt lat="49.90625" lon="2.28243">
        <ele>19.9</ele>
        <time>2023-01-20T14:44:26Z</time>
      </trkpt>
      <trkpt lat="49.90622" lon="2.28242">
        <ele>19.9</ele>
        <time>2023-01-20T14:44:27Z</time>
      </trkpt>
      <trkpt lat="49.90622" lon="2.28243">
        <ele>19.9</ele>
        <time>2023-01-20T14:44:28Z</time>
      </trkpt>
      <trkpt lat="49.9062" lon="2.28245">
        <ele>19.9</ele>
        <time>2023-01-20T14:44:29Z</time>
      </trkpt>
      <trkpt lat="49.90619" lon="2.28246">
        <ele>19.9</ele>
        <time>2023-01-20T14:44:30Z</time>
      </trkpt>
      <trkpt lat="49.90618" lon="2.28246">
        <ele>19.9</ele>
        <time>2023-01-20T14:44:31Z</time>
      </trkpt>
      <trkpt lat="49.90617" lon="2.28248">
        <ele>19.9</ele>
        <time>2023-01-20T14:44:32Z</time>
      </trkpt>
      <trkpt lat="49.90616" lon="2.28249">
        <ele>19.9</ele>
        <time>2023-01-20T14:44:33Z</time>
      </trkpt>
      <trkpt lat="49.90615" lon="2.2825">
        <ele>19.9</ele>
        <time>2023-01-20T14:44:35Z</time>
      </trkpt>
      <trkpt lat="49.90614" lon="2.28251">
        <ele>19.9</ele>
        <time>2023-01-20T14:44:36Z</time>
      </trkpt>
      <trkpt lat="49.90613" lon="2.28252">
        <ele>19.9</ele>
        <time>2023-01-20T14:44:37Z</time>
      </trkpt>
      <trkpt lat="49.90612" lon="2.28253">
        <ele>19.9</ele>
        <time>2023-01-20T14:44:38Z</time>
      </trkpt>
      <trkpt lat="49.90611" lon="2.28254">
        <ele>19.9</ele>
        <time>2023-01-20T14:44:39Z</time>
      </trkpt>
      <trkpt lat="49.9061" lon="2.28255">
        <ele>19.9</ele>
        <time>2023-01-20T14:44:40Z</time>
      </trkpt>
      <trkpt lat="49.90609" lon="2.28258">
        <ele>19.9</ele>
        <time>2023-01-20T14:44:41Z</time>
      </trkpt>
      <trkpt lat="49.90608" lon="2.28259">
        <ele>19.9</ele>
        <time>2023-01-20T14:44:42Z</time>
      </trkpt>
      <trkpt lat="49.90607" lon="2.28261">
        <ele>19.9</ele>
        <time>2023-01-20T14:44:43Z</time>
      </trkpt>
      <trkpt lat="49.90606" lon="2.28262">
        <ele>20</ele>
        <time>2023-01-20T14:44:45Z</time>
      </trkpt>
      <trkpt lat="49.90606" lon="2.28263">
        <ele>20</ele>
        <time>2023-01-20T14:44:46Z</time>
      </trkpt>
      <trkpt lat="49.90604" lon="2.28265">
        <ele>20</ele>
        <time>2023-01-20T14:44:47Z</time>
      </trkpt>
      <trkpt lat="49.90603" lon="2.28265">
        <ele>20</ele>
        <time>2023-01-20T14:44:48Z</time>
      </trkpt>
      <trkpt lat="49.90603" lon="2.28265">
        <ele>20</ele>
        <time>2023-01-20T14:44:49Z</time>
      </trkpt>
      <trkpt lat="49.90602" lon="2.28266">
        <ele>20</ele>
        <time>2023-01-20T14:44:50Z</time>
      </trkpt>
      <trkpt lat="49.906" lon="2.28268">
        <ele>20</ele>
        <time>2023-01-20T14:44:51Z</time>
      </trkpt>
      <trkpt lat="49.90599" lon="2.28269">
        <ele>20</ele>
        <time>2023-01-20T14:44:52Z</time>
      </trkpt>
      <trkpt lat="49.90597" lon="2.2827">
        <ele>20</ele>
        <time>2023-01-20T14:44:53Z</time>
      </trkpt>
      <trkpt lat="49.90596" lon="2.28272">
        <ele>20</ele>
        <time>2023-01-20T14:44:55Z</time>
      </trkpt>
      <trkpt lat="49.90595" lon="2.28273">
        <ele>20</ele>
        <time>2023-01-20T14:44:56Z</time>
      </trkpt>
      <trkpt lat="49.90594" lon="2.28274">
        <ele>20</ele>
        <time>2023-01-20T14:44:57Z</time>
      </trkpt>
      <trkpt lat="49.90594" lon="2.28274">
        <ele>20</ele>
        <time>2023-01-20T14:44:58Z</time>
      </trkpt>
      <trkpt lat="49.90593" lon="2.28275">
        <ele>20</ele>
        <time>2023-01-20T14:44:59Z</time>
      </trkpt>
      <trkpt lat="49.90592" lon="2.28277">
        <ele>20</ele>
        <time>2023-01-20T14:45:00Z</time>
      </trkpt>
      <trkpt lat="49.9059" lon="2.28279">
        <ele>20</ele>
        <time>2023-01-20T14:45:02Z</time>
      </trkpt>
      <trkpt lat="49.90589" lon="2.28279">
        <ele>20</ele>
        <time>2023-01-20T14:45:03Z</time>
      </trkpt>
      <trkpt lat="49.90588" lon="2.28283">
        <ele>20</ele>
        <time>2023-01-20T14:45:04Z</time>
      </trkpt>
      <trkpt lat="49.90588" lon="2.28286">
        <ele>20</ele>
        <time>2023-01-20T14:45:05Z</time>
      </trkpt>
      <trkpt lat="49.90588" lon="2.28288">
        <ele>20</ele>
        <time>2023-01-20T14:45:06Z</time>
      </trkpt>
      <trkpt lat="49.90588" lon="2.28289">
        <ele>20</ele>
        <time>2023-01-20T14:45:07Z</time>
      </trkpt>
      <trkpt lat="49.90587" lon="2.28291">
        <ele>20</ele>
        <time>2023-01-20T14:45:09Z</time>
      </trkpt>
      <trkpt lat="49.90586" lon="2.28292">
        <ele>20</ele>
        <time>2023-01-20T14:45:10Z</time>
      </trkpt>
      <trkpt lat="49.90585" lon="2.28294">
        <ele>20</ele>
        <time>2023-01-20T14:45:11Z</time>
      </trkpt>
      <trkpt lat="49.90584" lon="2.28295">
        <ele>20</ele>
        <time>2023-01-20T14:45:12Z</time>
      </trkpt>
      <trkpt lat="49.90583" lon="2.28296">
        <ele>20</ele>
        <time>2023-01-20T14:45:13Z</time>
      </trkpt>
      <trkpt lat="49.90582" lon="2.28297">
        <ele>20</ele>
        <time>2023-01-20T14:45:14Z</time>
      </trkpt>
      <trkpt lat="49.90581" lon="2.28298">
        <ele>20</ele>
        <time>2023-01-20T14:45:15Z</time>
      </trkpt>
      <trkpt lat="49.9058" lon="2.28299">
        <ele>20</ele>
        <time>2023-01-20T14:45:16Z</time>
      </trkpt>
      <trkpt lat="49.90579" lon="2.283">
        <ele>20</ele>
        <time>2023-01-20T14:45:17Z</time>
      </trkpt>
      <trkpt lat="49.90578" lon="2.28301">
        <ele>20</ele>
        <time>2023-01-20T14:45:19Z</time>
      </trkpt>
      <trkpt lat="49.90578" lon="2.28303">
        <ele>20</ele>
        <time>2023-01-20T14:45:20Z</time>
      </trkpt>
      <trkpt lat="49.90577" lon="2.28304">
        <ele>20</ele>
        <time>2023-01-20T14:45:21Z</time>
      </trkpt>
      <trkpt lat="49.90576" lon="2.28306">
        <ele>20</ele>
        <time>2023-01-20T14:45:22Z</time>
      </trkpt>
      <trkpt lat="49.90576" lon="2.28307">
        <ele>20</ele>
        <time>2023-01-20T14:45:23Z</time>
      </trkpt>
      <trkpt lat="49.90575" lon="2.28309">
        <ele>20</ele>
        <time>2023-01-20T14:45:24Z</time>
      </trkpt>
      <trkpt lat="49.90574" lon="2.2831">
        <ele>20</ele>
        <time>2023-01-20T14:45:25Z</time>
      </trkpt>
      <trkpt lat="49.90573" lon="2.28313">
        <ele>20</ele>
        <time>2023-01-20T14:45:27Z</time>
      </trkpt>
      <trkpt lat="49.90573" lon="2.28313">
        <ele>20</ele>
        <time>2023-01-20T14:45:28Z</time>
      </trkpt>
      <trkpt lat="49.90572" lon="2.28314">
        <ele>20</ele>
        <time>2023-01-20T14:45:29Z</time>
      </trkpt>
      <trkpt lat="49.90572" lon="2.28316">
        <ele>20</ele>
        <time>2023-01-20T14:45:30Z</time>
      </trkpt>
      <trkpt lat="49.90571" lon="2.28317">
        <ele>20</ele>
        <time>2023-01-20T14:45:31Z</time>
      </trkpt>
      <trkpt lat="49.9057" lon="2.28319">
        <ele>20</ele>
        <time>2023-01-20T14:45:32Z</time>
      </trkpt>
      <trkpt lat="49.90569" lon="2.2832">
        <ele>20</ele>
        <time>2023-01-20T14:45:33Z</time>
      </trkpt>
      <trkpt lat="49.90568" lon="2.28323">
        <ele>20</ele>
        <time>2023-01-20T14:45:35Z</time>
      </trkpt>
      <trkpt lat="49.90568" lon="2.28325">
        <ele>20</ele>
        <time>2023-01-20T14:45:36Z</time>
      </trkpt>
      <trkpt lat="49.90568" lon="2.28327">
        <ele>20</ele>
        <time>2023-01-20T14:45:37Z</time>
      </trkpt>
      <trkpt lat="49.90568" lon="2.28327">
        <ele>20</ele>
        <time>2023-01-20T14:45:38Z</time>
      </trkpt>
      <trkpt lat="49.90567" lon="2.28328">
        <ele>20</ele>
        <time>2023-01-20T14:45:39Z</time>
      </trkpt>
      <trkpt lat="49.90566" lon="2.28329">
        <ele>20</ele>
        <time>2023-01-20T14:45:40Z</time>
      </trkpt>
      <trkpt lat="49.90565" lon="2.2833">
        <ele>20</ele>
        <time>2023-01-20T14:45:41Z</time>
      </trkpt>
      <trkpt lat="49.90564" lon="2.28332">
        <ele>20</ele>
        <time>2023-01-20T14:45:42Z</time>
      </trkpt>
      <trkpt lat="49.90563" lon="2.28333">
        <ele>20</ele>
        <time>2023-01-20T14:45:43Z</time>
      </trkpt>
      <trkpt lat="49.90561" lon="2.28335">
        <ele>20</ele>
        <time>2023-01-20T14:45:45Z</time>
      </trkpt>
      <trkpt lat="49.9056" lon="2.28336">
        <ele>20</ele>
        <time>2023-01-20T14:45:46Z</time>
      </trkpt>
      <trkpt lat="49.90559" lon="2.28338">
        <ele>20</ele>
        <time>2023-01-20T14:45:47Z</time>
      </trkpt>
      <trkpt lat="49.90559" lon="2.28337">
        <ele>20</ele>
        <time>2023-01-20T14:45:48Z</time>
      </trkpt>
      <trkpt lat="49.90558" lon="2.28338">
        <ele>20</ele>
        <time>2023-01-20T14:45:49Z</time>
      </trkpt>
      <trkpt lat="49.90557" lon="2.28339">
        <ele>20</ele>
        <time>2023-01-20T14:45:50Z</time>
      </trkpt>
      <trkpt lat="49.90556" lon="2.28341">
        <ele>20</ele>
        <time>2023-01-20T14:45:51Z</time>
      </trkpt>
      <trkpt lat="49.90555" lon="2.28343">
        <ele>20</ele>
        <time>2023-01-20T14:45:52Z</time>
      </trkpt>
      <trkpt lat="49.90554" lon="2.28345">
        <ele>20.1</ele>
        <time>2023-01-20T14:45:53Z</time>
      </trkpt>
      <trkpt lat="49.90553" lon="2.28348">
        <ele>20.1</ele>
        <time>2023-01-20T14:45:55Z</time>
      </trkpt>
      <trkpt lat="49.90553" lon="2.2835">
        <ele>20.1</ele>
        <time>2023-01-20T14:45:56Z</time>
      </trkpt>
      <trkpt lat="49.90552" lon="2.28352">
        <ele>20.1</ele>
        <time>2023-01-20T14:45:57Z</time>
      </trkpt>
      <trkpt lat="49.90555" lon="2.28351">
        <ele>20.1</ele>
        <time>2023-01-20T14:45:58Z</time>
      </trkpt>
      <trkpt lat="49.90556" lon="2.28352">
        <ele>20.1</ele>
        <time>2023-01-20T14:45:59Z</time>
      </trkpt>
      <trkpt lat="49.90556" lon="2.28352">
        <ele>20.1</ele>
        <time>2023-01-20T14:46:00Z</time>
      </trkpt>
      <trkpt lat="49.90556" lon="2.28354">
        <ele>20.1</ele>
        <time>2023-01-20T14:46:01Z</time>
      </trkpt>
      <trkpt lat="49.90555" lon="2.28356">
        <ele>20.1</ele>
        <time>2023-01-20T14:46:02Z</time>
      </trkpt>
      <trkpt lat="49.90555" lon="2.28357">
        <ele>20.1</ele>
        <time>2023-01-20T14:46:03Z</time>
      </trkpt>
      <trkpt lat="49.90554" lon="2.28359">
        <ele>20.1</ele>
        <time>2023-01-20T14:46:05Z</time>
      </trkpt>
      <trkpt lat="49.90554" lon="2.28361">
        <ele>20.1</ele>
        <time>2023-01-20T14:46:06Z</time>
      </trkpt>
      <trkpt lat="49.90554" lon="2.28364">
        <ele>20.1</ele>
        <time>2023-01-20T14:46:07Z</time>
      </trkpt>
      <trkpt lat="49.90554" lon="2.28365">
        <ele>20.1</ele>
        <time>2023-01-20T14:46:08Z</time>
      </trkpt>
      <trkpt lat="49.90553" lon="2.28368">
        <ele>20.1</ele>
        <time>2023-01-20T14:46:09Z</time>
      </trkpt>
      <trkpt lat="49.90552" lon="2.28369">
        <ele>20.1</ele>
        <time>2023-01-20T14:46:10Z</time>
      </trkpt>
      <trkpt lat="49.90552" lon="2.2837">
        <ele>20.1</ele>
        <time>2023-01-20T14:46:11Z</time>
      </trkpt>
      <trkpt lat="49.9055" lon="2.28372">
        <ele>20.2</ele>
        <time>2023-01-20T14:46:13Z</time>
      </trkpt>
      <trkpt lat="49.90549" lon="2.28373">
        <ele>20.2</ele>
        <time>2023-01-20T14:46:14Z</time>
      </trkpt>
      <trkpt lat="49.90547" lon="2.28375">
        <ele>20.2</ele>
        <time>2023-01-20T14:46:15Z</time>
      </trkpt>
      <trkpt lat="49.90546" lon="2.28375">
        <ele>20.2</ele>
        <time>2023-01-20T14:46:16Z</time>
      </trkpt>
      <trkpt lat="49.90545" lon="2.28376">
        <ele>20.2</ele>
        <time>2023-01-20T14:46:17Z</time>
      </trkpt>
      <trkpt lat="49.90544" lon="2.28377">
        <ele>20.2</ele>
        <time>2023-01-20T14:46:18Z</time>
      </trkpt>
      <trkpt lat="49.90543" lon="2.28378">
        <ele>20.2</ele>
        <time>2023-01-20T14:46:20Z</time>
      </trkpt>
      <trkpt lat="49.90542" lon="2.2838">
        <ele>20.2</ele>
        <time>2023-01-20T14:46:21Z</time>
      </trkpt>
      <trkpt lat="49.90541" lon="2.2838">
        <ele>20.2</ele>
        <time>2023-01-20T14:46:22Z</time>
      </trkpt>
      <trkpt lat="49.90541" lon="2.28382">
        <ele>20.2</ele>
        <time>2023-01-20T14:46:23Z</time>
      </trkpt>
      <trkpt lat="49.9054" lon="2.28382">
        <ele>20.2</ele>
        <time>2023-01-20T14:46:24Z</time>
      </trkpt>
      <trkpt lat="49.90539" lon="2.28384">
        <ele>20.2</ele>
        <time>2023-01-20T14:46:25Z</time>
      </trkpt>
      <trkpt lat="49.90538" lon="2.28385">
        <ele>20.2</ele>
        <time>2023-01-20T14:46:26Z</time>
      </trkpt>
      <trkpt lat="49.90536" lon="2.28387">
        <ele>20.2</ele>
        <time>2023-01-20T14:46:28Z</time>
      </trkpt>
      <trkpt lat="49.90535" lon="2.28387">
        <ele>20.2</ele>
        <time>2023-01-20T14:46:29Z</time>
      </trkpt>
      <trkpt lat="49.90534" lon="2.28388">
        <ele>20.2</ele>
        <time>2023-01-20T14:46:30Z</time>
      </trkpt>
      <trkpt lat="49.90533" lon="2.28388">
        <ele>20.2</ele>
        <time>2023-01-20T14:46:31Z</time>
      </trkpt>
      <trkpt lat="49.90533" lon="2.28389">
        <ele>20.2</ele>
        <time>2023-01-20T14:46:32Z</time>
      </trkpt>
      <trkpt lat="49.90532" lon="2.28389">
        <ele>20.2</ele>
        <time>2023-01-20T14:46:33Z</time>
      </trkpt>
      <trkpt lat="49.90531" lon="2.2839">
        <ele>20.2</ele>
        <time>2023-01-20T14:46:34Z</time>
      </trkpt>
      <trkpt lat="49.9053" lon="2.28392">
        <ele>20.2</ele>
        <time>2023-01-20T14:46:36Z</time>
      </trkpt>
      <trkpt lat="49.90529" lon="2.28393">
        <ele>20.2</ele>
        <time>2023-01-20T14:46:37Z</time>
      </trkpt>
      <trkpt lat="49.90528" lon="2.28394">
        <ele>20.2</ele>
        <time>2023-01-20T14:46:38Z</time>
      </trkpt>
      <trkpt lat="49.90527" lon="2.28394">
        <ele>20.2</ele>
        <time>2023-01-20T14:46:39Z</time>
      </trkpt>
      <trkpt lat="49.90526" lon="2.28396">
        <ele>20.2</ele>
        <time>2023-01-20T14:46:40Z</time>
      </trkpt>
      <trkpt lat="49.90525" lon="2.28397">
        <ele>20.2</ele>
        <time>2023-01-20T14:46:41Z</time>
      </trkpt>
      <trkpt lat="49.90526" lon="2.28402">
        <ele>20.2</ele>
        <time>2023-01-20T14:46:42Z</time>
      </trkpt>
      <trkpt lat="49.90525" lon="2.28403">
        <ele>20.2</ele>
        <time>2023-01-20T14:46:43Z</time>
      </trkpt>
      <trkpt lat="49.90524" lon="2.28404">
        <ele>20.2</ele>
        <time>2023-01-20T14:46:45Z</time>
      </trkpt>
      <trkpt lat="49.90523" lon="2.28406">
        <ele>20.2</ele>
        <time>2023-01-20T14:46:46Z</time>
      </trkpt>
      <trkpt lat="49.90523" lon="2.28407">
        <ele>20.2</ele>
        <time>2023-01-20T14:46:47Z</time>
      </trkpt>
      <trkpt lat="49.90523" lon="2.28409">
        <ele>20.2</ele>
        <time>2023-01-20T14:46:48Z</time>
      </trkpt>
      <trkpt lat="49.90522" lon="2.28411">
        <ele>20.2</ele>
        <time>2023-01-20T14:46:49Z</time>
      </trkpt>
      <trkpt lat="49.90521" lon="2.28413">
        <ele>20.2</ele>
        <time>2023-01-20T14:46:50Z</time>
      </trkpt>
      <trkpt lat="49.9052" lon="2.28415">
        <ele>20.2</ele>
        <time>2023-01-20T14:46:52Z</time>
      </trkpt>
      <trkpt lat="49.9052" lon="2.28417">
        <ele>20.2</ele>
        <time>2023-01-20T14:46:53Z</time>
      </trkpt>
      <trkpt lat="49.9052" lon="2.28418">
        <ele>20.2</ele>
        <time>2023-01-20T14:46:54Z</time>
      </trkpt>
      <trkpt lat="49.90519" lon="2.28419">
        <ele>20.2</ele>
        <time>2023-01-20T14:46:55Z</time>
      </trkpt>
      <trkpt lat="49.90517" lon="2.28422">
        <ele>20.2</ele>
        <time>2023-01-20T14:46:57Z</time>
      </trkpt>
      <trkpt lat="49.90517" lon="2.28422">
        <ele>20.2</ele>
        <time>2023-01-20T14:46:59Z</time>
      </trkpt>
      <trkpt lat="49.90516" lon="2.28422">
        <ele>20.2</ele>
        <time>2023-01-20T14:47:00Z</time>
      </trkpt>
      <trkpt lat="49.90515" lon="2.28423">
        <ele>20.2</ele>
        <time>2023-01-20T14:47:01Z</time>
      </trkpt>
      <trkpt lat="49.90515" lon="2.28422">
        <ele>20.2</ele>
        <time>2023-01-20T14:47:02Z</time>
      </trkpt>
      <trkpt lat="49.90514" lon="2.28421">
        <ele>20.2</ele>
        <time>2023-01-20T14:47:04Z</time>
      </trkpt>
      <trkpt lat="49.90514" lon="2.28421">
        <ele>20.2</ele>
        <time>2023-01-20T14:47:05Z</time>
      </trkpt>
      <trkpt lat="49.90514" lon="2.28421">
        <ele>20.2</ele>
        <time>2023-01-20T14:47:07Z</time>
      </trkpt>
      <trkpt lat="49.90515" lon="2.28422">
        <ele>20.2</ele>
        <time>2023-01-20T14:47:08Z</time>
      </trkpt>
      <trkpt lat="49.90515" lon="2.28422">
        <ele>20.2</ele>
        <time>2023-01-20T14:47:09Z</time>
      </trkpt>
      <trkpt lat="49.90515" lon="2.28422">
        <ele>20.2</ele>
        <time>2023-01-20T14:47:11Z</time>
      </trkpt>
      <trkpt lat="49.90515" lon="2.28422">
        <ele>20.2</ele>
        <time>2023-01-20T14:47:12Z</time>
      </trkpt>
      <trkpt lat="49.90515" lon="2.28422">
        <ele>20.2</ele>
        <time>2023-01-20T14:47:13Z</time>
      </trkpt>
      <trkpt lat="49.90515" lon="2.28421">
        <ele>20.2</ele>
        <time>2023-01-20T14:47:14Z</time>
      </trkpt>
      <trkpt lat="49.90515" lon="2.28421">
        <ele>20.2</ele>
        <time>2023-01-20T14:47:16Z</time>
      </trkpt>
      <trkpt lat="49.90515" lon="2.2842">
        <ele>20.2</ele>
        <time>2023-01-20T14:47:17Z</time>
      </trkpt>
      <trkpt lat="49.90517" lon="2.28417">
        <ele>20.2</ele>
        <time>2023-01-20T14:47:18Z</time>
      </trkpt>
      <trkpt lat="49.90517" lon="2.28417">
        <ele>20.2</ele>
        <time>2023-01-20T14:47:19Z</time>
      </trkpt>
      <trkpt lat="49.90517" lon="2.28417">
        <ele>20.2</ele>
        <time>2023-01-20T14:47:20Z</time>
      </trkpt>
      <trkpt lat="49.90517" lon="2.28417">
        <ele>20.2</ele>
        <time>2023-01-20T14:47:21Z</time>
      </trkpt>
      <trkpt lat="49.90517" lon="2.28417">
        <ele>20.2</ele>
        <time>2023-01-20T14:47:22Z</time>
      </trkpt>
      <trkpt lat="49.90517" lon="2.28417">
        <ele>20.2</ele>
        <time>2023-01-20T14:47:23Z</time>
      </trkpt>
      <trkpt lat="49.90517" lon="2.28417">
        <ele>20.2</ele>
        <time>2023-01-20T14:47:24Z</time>
      </trkpt>
      <trkpt lat="49.90517" lon="2.28417">
        <ele>20.2</ele>
        <time>2023-01-20T14:47:25Z</time>
      </trkpt>
      <trkpt lat="49.90517" lon="2.28417">
        <ele>20.2</ele>
        <time>2023-01-20T14:47:26Z</time>
      </trkpt>
      <trkpt lat="49.90517" lon="2.28417">
        <ele>20.2</ele>
        <time>2023-01-20T14:47:27Z</time>
      </trkpt>
      <trkpt lat="49.90517" lon="2.28417">
        <ele>20.2</ele>
        <time>2023-01-20T14:47:28Z</time>
      </trkpt>
      <trkpt lat="49.90517" lon="2.28417">
        <ele>20.2</ele>
        <time>2023-01-20T14:47:29Z</time>
      </trkpt>
      <trkpt lat="49.90517" lon="2.28417">
        <ele>20.2</ele>
        <time>2023-01-20T14:47:30Z</time>
      </trkpt>
      <trkpt lat="49.90517" lon="2.28417">
        <ele>20.2</ele>
        <time>2023-01-20T14:47:31Z</time>
      </trkpt>
      <trkpt lat="49.90517" lon="2.28417">
        <ele>20.2</ele>
        <time>2023-01-20T14:47:32Z</time>
      </trkpt>
      <trkpt lat="49.90517" lon="2.28417">
        <ele>20.2</ele>
        <time>2023-01-20T14:47:33Z</time>
      </trkpt>
      <trkpt lat="49.90517" lon="2.28418">
        <ele>20.2</ele>
        <time>2023-01-20T14:47:34Z</time>
      </trkpt>
      <trkpt lat="49.90517" lon="2.28418">
        <ele>20.2</ele>
        <time>2023-01-20T14:47:35Z</time>
      </trkpt>
      <trkpt lat="49.90517" lon="2.28418">
        <ele>20.2</ele>
        <time>2023-01-20T14:47:36Z</time>
      </trkpt>
      <trkpt lat="49.90517" lon="2.28418">
        <ele>20.2</ele>
        <time>2023-01-20T14:47:37Z</time>
      </trkpt>
      <trkpt lat="49.90517" lon="2.28418">
        <ele>20.2</ele>
        <time>2023-01-20T14:47:38Z</time>
      </trkpt>
      <trkpt lat="49.90517" lon="2.28418">
        <ele>20.2</ele>
        <time>2023-01-20T14:47:39Z</time>
      </trkpt>
      <trkpt lat="49.90517" lon="2.28418">
        <ele>20.2</ele>
        <time>2023-01-20T14:47:40Z</time>
      </trkpt>
      <trkpt lat="49.90517" lon="2.28418">
        <ele>20.2</ele>
        <time>2023-01-20T14:47:41Z</time>
      </trkpt>
      <trkpt lat="49.90517" lon="2.28418">
        <ele>20.2</ele>
        <time>2023-01-20T14:47:42Z</time>
      </trkpt>
      <trkpt lat="49.90517" lon="2.28418">
        <ele>20.2</ele>
        <time>2023-01-20T14:47:43Z</time>
      </trkpt>
      <trkpt lat="49.90517" lon="2.28418">
        <ele>20.2</ele>
        <time>2023-01-20T14:47:44Z</time>
      </trkpt>
      <trkpt lat="49.90517" lon="2.28418">
        <ele>20.2</ele>
        <time>2023-01-20T14:47:45Z</time>
      </trkpt>
      <trkpt lat="49.90517" lon="2.28418">
        <ele>20.2</ele>
        <time>2023-01-20T14:47:46Z</time>
      </trkpt>
      <trkpt lat="49.90518" lon="2.28418">
        <ele>20.2</ele>
        <time>2023-01-20T14:47:47Z</time>
      </trkpt>
      <trkpt lat="49.90518" lon="2.28418">
        <ele>20.2</ele>
        <time>2023-01-20T14:47:48Z</time>
      </trkpt>
      <trkpt lat="49.90518" lon="2.28418">
        <ele>20.2</ele>
        <time>2023-01-20T14:47:49Z</time>
      </trkpt>
      <trkpt lat="49.90518" lon="2.28418">
        <ele>20.2</ele>
        <time>2023-01-20T14:47:50Z</time>
      </trkpt>
      <trkpt lat="49.90518" lon="2.28418">
        <ele>20.2</ele>
        <time>2023-01-20T14:47:51Z</time>
      </trkpt>
      <trkpt lat="49.90518" lon="2.28418">
        <ele>20.2</ele>
        <time>2023-01-20T14:47:52Z</time>
      </trkpt>
      <trkpt lat="49.90518" lon="2.28418">
        <ele>20.2</ele>
        <time>2023-01-20T14:47:53Z</time>
      </trkpt>
      <trkpt lat="49.90518" lon="2.28419">
        <ele>20.2</ele>
        <time>2023-01-20T14:47:54Z</time>
      </trkpt>
      <trkpt lat="49.90518" lon="2.28419">
        <ele>20.2</ele>
        <time>2023-01-20T14:47:55Z</time>
      </trkpt>
      <trkpt lat="49.90518" lon="2.28419">
        <ele>20.2</ele>
        <time>2023-01-20T14:47:56Z</time>
      </trkpt>
      <trkpt lat="49.90518" lon="2.28419">
        <ele>20.2</ele>
        <time>2023-01-20T14:47:57Z</time>
      </trkpt>
      <trkpt lat="49.90518" lon="2.28419">
        <ele>20.2</ele>
        <time>2023-01-20T14:47:58Z</time>
      </trkpt>
      <trkpt lat="49.90518" lon="2.28419">
        <ele>20.2</ele>
        <time>2023-01-20T14:47:59Z</time>
      </trkpt>
      <trkpt lat="49.90518" lon="2.28419">
        <ele>20.2</ele>
        <time>2023-01-20T14:48:00Z</time>
      </trkpt>
      <trkpt lat="49.90518" lon="2.28419">
        <ele>20.2</ele>
        <time>2023-01-20T14:48:01Z</time>
      </trkpt>
      <trkpt lat="49.90518" lon="2.28419">
        <ele>20.2</ele>
        <time>2023-01-20T14:48:02Z</time>
      </trkpt>
      <trkpt lat="49.90518" lon="2.28419">
        <ele>20.2</ele>
        <time>2023-01-20T14:48:03Z</time>
      </trkpt>
      <trkpt lat="49.90518" lon="2.28419">
        <ele>20.2</ele>
        <time>2023-01-20T14:48:04Z</time>
      </trkpt>
      <trkpt lat="49.90518" lon="2.28419">
        <ele>20.2</ele>
        <time>2023-01-20T14:48:05Z</time>
      </trkpt>
      <trkpt lat="49.90518" lon="2.28419">
        <ele>20.2</ele>
        <time>2023-01-20T14:48:06Z</time>
      </trkpt>
      <trkpt lat="49.90518" lon="2.28419">
        <ele>20.2</ele>
        <time>2023-01-20T14:48:07Z</time>
      </trkpt>
      <trkpt lat="49.90518" lon="2.28419">
        <ele>20.2</ele>
        <time>2023-01-20T14:48:08Z</time>
      </trkpt>
      <trkpt lat="49.90518" lon="2.28419">
        <ele>20.2</ele>
        <time>2023-01-20T14:48:09Z</time>
      </trkpt>
      <trkpt lat="49.90518" lon="2.28419">
        <ele>20.2</ele>
        <time>2023-01-20T14:48:10Z</time>
      </trkpt>
      <trkpt lat="49.90518" lon="2.28419">
        <ele>20.2</ele>
        <time>2023-01-20T14:48:11Z</time>
      </trkpt>
      <trkpt lat="49.90518" lon="2.28419">
        <ele>20.2</ele>
        <time>2023-01-20T14:48:12Z</time>
      </trkpt>
      <trkpt lat="49.90518" lon="2.28419">
        <ele>20.2</ele>
        <time>2023-01-20T14:48:13Z</time>
      </trkpt>
      <trkpt lat="49.90518" lon="2.28419">
        <ele>20.2</ele>
        <time>2023-01-20T14:48:14Z</time>
      </trkpt>
      <trkpt lat="49.90518" lon="2.2842">
        <ele>20.2</ele>
        <time>2023-01-20T14:48:15Z</time>
      </trkpt>
      <trkpt lat="49.90518" lon="2.2842">
        <ele>20.2</ele>
        <time>2023-01-20T14:48:16Z</time>
      </trkpt>
      <trkpt lat="49.90518" lon="2.2842">
        <ele>20.2</ele>
        <time>2023-01-20T14:48:17Z</time>
      </trkpt>
      <trkpt lat="49.90518" lon="2.2842">
        <ele>20.2</ele>
        <time>2023-01-20T14:48:18Z</time>
      </trkpt>
      <trkpt lat="49.90518" lon="2.2842">
        <ele>20.2</ele>
        <time>2023-01-20T14:48:19Z</time>
      </trkpt>
      <trkpt lat="49.90518" lon="2.2842">
        <ele>20.2</ele>
        <time>2023-01-20T14:48:20Z</time>
      </trkpt>
      <trkpt lat="49.90518" lon="2.2842">
        <ele>20.2</ele>
        <time>2023-01-20T14:48:21Z</time>
      </trkpt>
      <trkpt lat="49.90518" lon="2.2842">
        <ele>20.2</ele>
        <time>2023-01-20T14:48:22Z</time>
      </trkpt>
      <trkpt lat="49.90518" lon="2.2842">
        <ele>20.2</ele>
        <time>2023-01-20T14:48:23Z</time>
      </trkpt>
      <trkpt lat="49.90518" lon="2.2842">
        <ele>20.2</ele>
        <time>2023-01-20T14:48:24Z</time>
      </trkpt>
      <trkpt lat="49.90518" lon="2.2842">
        <ele>20.2</ele>
        <time>2023-01-20T14:48:25Z</time>
      </trkpt>
      <trkpt lat="49.90518" lon="2.2842">
        <ele>20.2</ele>
        <time>2023-01-20T14:48:26Z</time>
      </trkpt>
      <trkpt lat="49.90519" lon="2.2842">
        <ele>20.2</ele>
        <time>2023-01-20T14:48:27Z</time>
      </trkpt>
      <trkpt lat="49.90519" lon="2.2842">
        <ele>20.2</ele>
        <time>2023-01-20T14:48:28Z</time>
      </trkpt>
      <trkpt lat="49.90519" lon="2.2842">
        <ele>20.2</ele>
        <time>2023-01-20T14:48:29Z</time>
      </trkpt>
      <trkpt lat="49.90519" lon="2.2842">
        <ele>20.2</ele>
        <time>2023-01-20T14:48:30Z</time>
      </trkpt>
      <trkpt lat="49.90519" lon="2.2842">
        <ele>20.2</ele>
        <time>2023-01-20T14:48:31Z</time>
      </trkpt>
      <trkpt lat="49.90519" lon="2.2842">
        <ele>20.2</ele>
        <time>2023-01-20T14:48:32Z</time>
      </trkpt>
      <trkpt lat="49.90519" lon="2.2842">
        <ele>20.2</ele>
        <time>2023-01-20T14:48:33Z</time>
      </trkpt>
      <trkpt lat="49.90519" lon="2.2842">
        <ele>20.2</ele>
        <time>2023-01-20T14:48:34Z</time>
      </trkpt>
      <trkpt lat="49.90519" lon="2.28421">
        <ele>20.2</ele>
        <time>2023-01-20T14:48:35Z</time>
      </trkpt>
      <trkpt lat="49.90519" lon="2.28421">
        <ele>20.2</ele>
        <time>2023-01-20T14:48:36Z</time>
      </trkpt>
      <trkpt lat="49.90519" lon="2.28421">
        <ele>20.2</ele>
        <time>2023-01-20T14:48:37Z</time>
      </trkpt>
      <trkpt lat="49.90519" lon="2.28421">
        <ele>20.2</ele>
        <time>2023-01-20T14:48:38Z</time>
      </trkpt>
      <trkpt lat="49.90519" lon="2.28421">
        <ele>20.2</ele>
        <time>2023-01-20T14:48:39Z</time>
      </trkpt>
      <trkpt lat="49.90519" lon="2.28421">
        <ele>20.2</ele>
        <time>2023-01-20T14:48:40Z</time>
      </trkpt>
      <trkpt lat="49.90519" lon="2.28421">
        <ele>20.2</ele>
        <time>2023-01-20T14:48:41Z</time>
      </trkpt>
      <trkpt lat="49.90519" lon="2.28421">
        <ele>20.2</ele>
        <time>2023-01-20T14:48:42Z</time>
      </trkpt>
      <trkpt lat="49.90519" lon="2.28421">
        <ele>20.2</ele>
        <time>2023-01-20T14:48:43Z</time>
      </trkpt>
      <trkpt lat="49.90519" lon="2.28421">
        <ele>20.2</ele>
        <time>2023-01-20T14:48:44Z</time>
      </trkpt>
      <trkpt lat="49.90519" lon="2.28421">
        <ele>20.2</ele>
        <time>2023-01-20T14:48:45Z</time>
      </trkpt>
      <trkpt lat="49.90519" lon="2.28421">
        <ele>20.2</ele>
        <time>2023-01-20T14:48:46Z</time>
      </trkpt>
      <trkpt lat="49.90519" lon="2.28421">
        <ele>20.2</ele>
        <time>2023-01-20T14:48:47Z</time>
      </trkpt>
      <trkpt lat="49.90519" lon="2.28421">
        <ele>20.2</ele>
        <time>2023-01-20T14:48:48Z</time>
      </trkpt>
      <trkpt lat="49.90519" lon="2.28421">
        <ele>20.2</ele>
        <time>2023-01-20T14:48:49Z</time>
      </trkpt>
      <trkpt lat="49.90519" lon="2.28421">
        <ele>20.2</ele>
        <time>2023-01-20T14:48:50Z</time>
      </trkpt>
      <trkpt lat="49.90519" lon="2.28421">
        <ele>20.2</ele>
        <time>2023-01-20T14:48:51Z</time>
      </trkpt>
      <trkpt lat="49.90519" lon="2.28421">
        <ele>20.2</ele>
        <time>2023-01-20T14:48:52Z</time>
      </trkpt>
      <trkpt lat="49.90519" lon="2.28421">
        <ele>20.2</ele>
        <time>2023-01-20T14:48:53Z</time>
      </trkpt>
      <trkpt lat="49.90519" lon="2.28421">
        <ele>20.2</ele>
        <time>2023-01-20T14:48:54Z</time>
      </trkpt>
      <trkpt lat="49.90519" lon="2.28421">
        <ele>20.2</ele>
        <time>2023-01-20T14:48:55Z</time>
      </trkpt>
      <trkpt lat="49.90519" lon="2.28422">
        <ele>20.2</ele>
        <time>2023-01-20T14:48:56Z</time>
      </trkpt>
      <trkpt lat="49.90519" lon="2.28422">
        <ele>20.2</ele>
        <time>2023-01-20T14:48:57Z</time>
      </trkpt>
      <trkpt lat="49.90519" lon="2.28422">
        <ele>20.2</ele>
        <time>2023-01-20T14:48:58Z</time>
      </trkpt>
      <trkpt lat="49.90519" lon="2.28422">
        <ele>20.2</ele>
        <time>2023-01-20T14:48:59Z</time>
      </trkpt>
      <trkpt lat="49.90519" lon="2.28422">
        <ele>20.2</ele>
        <time>2023-01-20T14:49:00Z</time>
      </trkpt>
      <trkpt lat="49.90519" lon="2.28422">
        <ele>20.2</ele>
        <time>2023-01-20T14:49:01Z</time>
      </trkpt>
      <trkpt lat="49.90519" lon="2.28422">
        <ele>20.2</ele>
        <time>2023-01-20T14:49:02Z</time>
      </trkpt>
      <trkpt lat="49.90519" lon="2.28422">
        <ele>20.2</ele>
        <time>2023-01-20T14:49:03Z</time>
      </trkpt>
      <trkpt lat="49.90519" lon="2.28422">
        <ele>20.2</ele>
        <time>2023-01-20T14:49:04Z</time>
      </trkpt>
      <trkpt lat="49.90519" lon="2.28422">
        <ele>20.2</ele>
        <time>2023-01-20T14:49:05Z</time>
      </trkpt>
      <trkpt lat="49.90519" lon="2.28422">
        <ele>20.2</ele>
        <time>2023-01-20T14:49:06Z</time>
      </trkpt>
      <trkpt lat="49.90519" lon="2.28422">
        <ele>20.2</ele>
        <time>2023-01-20T14:49:07Z</time>
      </trkpt>
      <trkpt lat="49.9052" lon="2.28422">
        <ele>20.2</ele>
        <time>2023-01-20T14:49:08Z</time>
      </trkpt>
      <trkpt lat="49.9052" lon="2.28422">
        <ele>20.2</ele>
        <time>2023-01-20T14:49:09Z</time>
      </trkpt>
      <trkpt lat="49.9052" lon="2.28422">
        <ele>20.2</ele>
        <time>2023-01-20T14:49:10Z</time>
      </trkpt>
      <trkpt lat="49.9052" lon="2.28422">
        <ele>20.2</ele>
        <time>2023-01-20T14:49:11Z</time>
      </trkpt>
      <trkpt lat="49.9052" lon="2.28422">
        <ele>20.2</ele>
        <time>2023-01-20T14:49:12Z</time>
      </trkpt>
      <trkpt lat="49.9052" lon="2.28422">
        <ele>20.2</ele>
        <time>2023-01-20T14:49:13Z</time>
      </trkpt>
      <trkpt lat="49.9052" lon="2.28422">
        <ele>20.2</ele>
        <time>2023-01-20T14:49:14Z</time>
      </trkpt>
      <trkpt lat="49.90519" lon="2.28422">
        <ele>20.2</ele>
        <time>2023-01-20T14:49:15Z</time>
      </trkpt>
      <trkpt lat="49.90519" lon="2.28421">
        <ele>20.2</ele>
        <time>2023-01-20T14:49:17Z</time>
      </trkpt>
      <trkpt lat="49.90518" lon="2.2842">
        <ele>20.2</ele>
        <time>2023-01-20T14:49:18Z</time>
      </trkpt>
      <trkpt lat="49.9052" lon="2.28427">
        <ele>20.2</ele>
        <time>2023-01-20T14:49:19Z</time>
      </trkpt>
      <trkpt lat="49.9052" lon="2.28429">
        <ele>20.2</ele>
        <time>2023-01-20T14:49:20Z</time>
      </trkpt>
      <trkpt lat="49.90519" lon="2.28431">
        <ele>20.2</ele>
        <time>2023-01-20T14:49:21Z</time>
      </trkpt>
      <trkpt lat="49.90519" lon="2.28433">
        <ele>20.2</ele>
        <time>2023-01-20T14:49:22Z</time>
      </trkpt>
      <trkpt lat="49.90519" lon="2.28438">
        <ele>20.2</ele>
        <time>2023-01-20T14:49:24Z</time>
      </trkpt>
      <trkpt lat="49.90518" lon="2.2844">
        <ele>20.2</ele>
        <time>2023-01-20T14:49:25Z</time>
      </trkpt>
      <trkpt lat="49.90518" lon="2.28442">
        <ele>20.3</ele>
        <time>2023-01-20T14:49:26Z</time>
      </trkpt>
      <trkpt lat="49.90516" lon="2.28444">
        <ele>20.3</ele>
        <time>2023-01-20T14:49:27Z</time>
      </trkpt>
      <trkpt lat="49.90515" lon="2.28446">
        <ele>20.3</ele>
        <time>2023-01-20T14:49:28Z</time>
      </trkpt>
      <trkpt lat="49.90514" lon="2.28447">
        <ele>20.3</ele>
        <time>2023-01-20T14:49:29Z</time>
      </trkpt>
      <trkpt lat="49.90513" lon="2.2845">
        <ele>20.3</ele>
        <time>2023-01-20T14:49:30Z</time>
      </trkpt>
      <trkpt lat="49.90512" lon="2.28451">
        <ele>20.3</ele>
        <time>2023-01-20T14:49:32Z</time>
      </trkpt>
      <trkpt lat="49.90512" lon="2.28452">
        <ele>20.3</ele>
        <time>2023-01-20T14:49:33Z</time>
      </trkpt>
      <trkpt lat="49.9051" lon="2.28455">
        <ele>20.3</ele>
        <time>2023-01-20T14:49:34Z</time>
      </trkpt>
      <trkpt lat="49.9051" lon="2.28456">
        <ele>20.3</ele>
        <time>2023-01-20T14:49:35Z</time>
      </trkpt>
      <trkpt lat="49.90508" lon="2.28457">
        <ele>20.3</ele>
        <time>2023-01-20T14:49:36Z</time>
      </trkpt>
      <trkpt lat="49.90507" lon="2.28458">
        <ele>20.3</ele>
        <time>2023-01-20T14:49:37Z</time>
      </trkpt>
      <trkpt lat="49.90506" lon="2.28461">
        <ele>20.3</ele>
        <time>2023-01-20T14:49:38Z</time>
      </trkpt>
      <trkpt lat="49.90505" lon="2.28461">
        <ele>20.3</ele>
        <time>2023-01-20T14:49:40Z</time>
      </trkpt>
      <trkpt lat="49.90505" lon="2.28462">
        <ele>20.3</ele>
        <time>2023-01-20T14:49:41Z</time>
      </trkpt>
      <trkpt lat="49.90504" lon="2.28463">
        <ele>20.3</ele>
        <time>2023-01-20T14:49:42Z</time>
      </trkpt>
      <trkpt lat="49.90503" lon="2.28464">
        <ele>20.3</ele>
        <time>2023-01-20T14:49:43Z</time>
      </trkpt>
      <trkpt lat="49.905" lon="2.28461">
        <ele>20.3</ele>
        <time>2023-01-20T14:49:44Z</time>
      </trkpt>
      <trkpt lat="49.90499" lon="2.28462">
        <ele>20.3</ele>
        <time>2023-01-20T14:49:45Z</time>
      </trkpt>
      <trkpt lat="49.90498" lon="2.28462">
        <ele>20.3</ele>
        <time>2023-01-20T14:49:46Z</time>
      </trkpt>
      <trkpt lat="49.90496" lon="2.28463">
        <ele>20.3</ele>
        <time>2023-01-20T14:49:48Z</time>
      </trkpt>
      <trkpt lat="49.90495" lon="2.28467">
        <ele>20.3</ele>
        <time>2023-01-20T14:49:49Z</time>
      </trkpt>
      <trkpt lat="49.90496" lon="2.28471">
        <ele>20.3</ele>
        <time>2023-01-20T14:49:50Z</time>
      </trkpt>
      <trkpt lat="49.90495" lon="2.28472">
        <ele>20.3</ele>
        <time>2023-01-20T14:49:51Z</time>
      </trkpt>
      <trkpt lat="49.90493" lon="2.28477">
        <ele>20.3</ele>
        <time>2023-01-20T14:49:52Z</time>
      </trkpt>
      <trkpt lat="49.90493" lon="2.28481">
        <ele>20.3</ele>
        <time>2023-01-20T14:49:53Z</time>
      </trkpt>
      <trkpt lat="49.90493" lon="2.28482">
        <ele>20.3</ele>
        <time>2023-01-20T14:49:55Z</time>
      </trkpt>
      <trkpt lat="49.90491" lon="2.28482">
        <ele>20.3</ele>
        <time>2023-01-20T14:49:56Z</time>
      </trkpt>
      <trkpt lat="49.9049" lon="2.28482">
        <ele>20.3</ele>
        <time>2023-01-20T14:49:57Z</time>
      </trkpt>
      <trkpt lat="49.90489" lon="2.28482">
        <ele>20.3</ele>
        <time>2023-01-20T14:49:58Z</time>
      </trkpt>
      <trkpt lat="49.9049" lon="2.28488">
        <ele>20.4</ele>
        <time>2023-01-20T14:49:59Z</time>
      </trkpt>
      <trkpt lat="49.90489" lon="2.2849">
        <ele>20.4</ele>
        <time>2023-01-20T14:50:00Z</time>
      </trkpt>
      <trkpt lat="49.90488" lon="2.28491">
        <ele>20.4</ele>
        <time>2023-01-20T14:50:01Z</time>
      </trkpt>
      <trkpt lat="49.90487" lon="2.28491">
        <ele>20.4</ele>
        <time>2023-01-20T14:50:02Z</time>
      </trkpt>
      <trkpt lat="49.90484" lon="2.28496">
        <ele>20.4</ele>
        <time>2023-01-20T14:50:04Z</time>
      </trkpt>
      <trkpt lat="49.90484" lon="2.28497">
        <ele>20.4</ele>
        <time>2023-01-20T14:50:05Z</time>
      </trkpt>
      <trkpt lat="49.90483" lon="2.28497">
        <ele>20.4</ele>
        <time>2023-01-20T14:50:06Z</time>
      </trkpt>
      <trkpt lat="49.90482" lon="2.28497">
        <ele>20.4</ele>
        <time>2023-01-20T14:50:07Z</time>
      </trkpt>
      <trkpt lat="49.90481" lon="2.28497">
        <ele>20.4</ele>
        <time>2023-01-20T14:50:08Z</time>
      </trkpt>
      <trkpt lat="49.90479" lon="2.28498">
        <ele>20.4</ele>
        <time>2023-01-20T14:50:09Z</time>
      </trkpt>
      <trkpt lat="49.90478" lon="2.28497">
        <ele>20.4</ele>
        <time>2023-01-20T14:50:10Z</time>
      </trkpt>
      <trkpt lat="49.90477" lon="2.28497">
        <ele>20.4</ele>
        <time>2023-01-20T14:50:11Z</time>
      </trkpt>
      <trkpt lat="49.90475" lon="2.28496">
        <ele>20.4</ele>
        <time>2023-01-20T14:50:12Z</time>
      </trkpt>
      <trkpt lat="49.90474" lon="2.28496">
        <ele>20.4</ele>
        <time>2023-01-20T14:50:14Z</time>
      </trkpt>
      <trkpt lat="49.90472" lon="2.28495">
        <ele>20.4</ele>
        <time>2023-01-20T14:50:15Z</time>
      </trkpt>
      <trkpt lat="49.90471" lon="2.28494">
        <ele>20.4</ele>
        <time>2023-01-20T14:50:16Z</time>
      </trkpt>
      <trkpt lat="49.9047" lon="2.28495">
        <ele>20.4</ele>
        <time>2023-01-20T14:50:17Z</time>
      </trkpt>
      <trkpt lat="49.9047" lon="2.28496">
        <ele>20.4</ele>
        <time>2023-01-20T14:50:18Z</time>
      </trkpt>
      <trkpt lat="49.90469" lon="2.28498">
        <ele>20.4</ele>
        <time>2023-01-20T14:50:19Z</time>
      </trkpt>
      <trkpt lat="49.90468" lon="2.285">
        <ele>20.4</ele>
        <time>2023-01-20T14:50:20Z</time>
      </trkpt>
      <trkpt lat="49.90468" lon="2.28501">
        <ele>20.4</ele>
        <time>2023-01-20T14:50:21Z</time>
      </trkpt>
      <trkpt lat="49.90467" lon="2.28503">
        <ele>20.4</ele>
        <time>2023-01-20T14:50:22Z</time>
      </trkpt>
      <trkpt lat="49.90466" lon="2.28505">
        <ele>20.4</ele>
        <time>2023-01-20T14:50:23Z</time>
      </trkpt>
      <trkpt lat="49.90465" lon="2.28506">
        <ele>20.4</ele>
        <time>2023-01-20T14:50:24Z</time>
      </trkpt>
      <trkpt lat="49.90464" lon="2.28508">
        <ele>20.4</ele>
        <time>2023-01-20T14:50:26Z</time>
      </trkpt>
      <trkpt lat="49.90463" lon="2.2851">
        <ele>20.4</ele>
        <time>2023-01-20T14:50:27Z</time>
      </trkpt>
      <trkpt lat="49.90462" lon="2.28512">
        <ele>20.4</ele>
        <time>2023-01-20T14:50:28Z</time>
      </trkpt>
      <trkpt lat="49.90461" lon="2.28514">
        <ele>20.5</ele>
        <time>2023-01-20T14:50:29Z</time>
      </trkpt>
      <trkpt lat="49.9046" lon="2.28515">
        <ele>20.5</ele>
        <time>2023-01-20T14:50:30Z</time>
      </trkpt>
      <trkpt lat="49.90459" lon="2.28516">
        <ele>20.5</ele>
        <time>2023-01-20T14:50:31Z</time>
      </trkpt>
      <trkpt lat="49.90458" lon="2.28517">
        <ele>20.5</ele>
        <time>2023-01-20T14:50:32Z</time>
      </trkpt>
      <trkpt lat="49.90457" lon="2.28519">
        <ele>20.5</ele>
        <time>2023-01-20T14:50:33Z</time>
      </trkpt>
      <trkpt lat="49.90456" lon="2.2852">
        <ele>20.5</ele>
        <time>2023-01-20T14:50:34Z</time>
      </trkpt>
      <trkpt lat="49.90455" lon="2.28522">
        <ele>20.5</ele>
        <time>2023-01-20T14:50:35Z</time>
      </trkpt>
      <trkpt lat="49.90454" lon="2.28523">
        <ele>20.5</ele>
        <time>2023-01-20T14:50:37Z</time>
      </trkpt>
      <trkpt lat="49.90453" lon="2.28525">
        <ele>20.5</ele>
        <time>2023-01-20T14:50:38Z</time>
      </trkpt>
      <trkpt lat="49.90452" lon="2.28526">
        <ele>20.5</ele>
        <time>2023-01-20T14:50:39Z</time>
      </trkpt>
      <trkpt lat="49.90451" lon="2.28527">
        <ele>20.5</ele>
        <time>2023-01-20T14:50:40Z</time>
      </trkpt>
      <trkpt lat="49.9045" lon="2.28528">
        <ele>20.5</ele>
        <time>2023-01-20T14:50:41Z</time>
      </trkpt>
      <trkpt lat="49.90449" lon="2.2853">
        <ele>20.5</ele>
        <time>2023-01-20T14:50:42Z</time>
      </trkpt>
      <trkpt lat="49.90448" lon="2.28531">
        <ele>20.6</ele>
        <time>2023-01-20T14:50:43Z</time>
      </trkpt>
      <trkpt lat="49.90447" lon="2.28533">
        <ele>20.6</ele>
        <time>2023-01-20T14:50:45Z</time>
      </trkpt>
      <trkpt lat="49.90446" lon="2.28535">
        <ele>20.6</ele>
        <time>2023-01-20T14:50:46Z</time>
      </trkpt>
      <trkpt lat="49.90445" lon="2.28536">
        <ele>20.6</ele>
        <time>2023-01-20T14:50:47Z</time>
      </trkpt>
      <trkpt lat="49.90444" lon="2.28537">
        <ele>20.6</ele>
        <time>2023-01-20T14:50:48Z</time>
      </trkpt>
      <trkpt lat="49.90443" lon="2.28539">
        <ele>20.6</ele>
        <time>2023-01-20T14:50:49Z</time>
      </trkpt>
      <trkpt lat="49.90442" lon="2.2854">
        <ele>20.6</ele>
        <time>2023-01-20T14:50:50Z</time>
      </trkpt>
      <trkpt lat="49.9044" lon="2.28543">
        <ele>20.6</ele>
        <time>2023-01-20T14:50:51Z</time>
      </trkpt>
      <trkpt lat="49.9044" lon="2.28543">
        <ele>20.6</ele>
        <time>2023-01-20T14:50:53Z</time>
      </trkpt>
      <trkpt lat="49.90439" lon="2.28544">
        <ele>20.6</ele>
        <time>2023-01-20T14:50:54Z</time>
      </trkpt>
      <trkpt lat="49.90438" lon="2.28546">
        <ele>20.6</ele>
        <time>2023-01-20T14:50:55Z</time>
      </trkpt>
      <trkpt lat="49.90437" lon="2.28548">
        <ele>20.7</ele>
        <time>2023-01-20T14:50:56Z</time>
      </trkpt>
      <trkpt lat="49.90437" lon="2.28551">
        <ele>20.7</ele>
        <time>2023-01-20T14:50:57Z</time>
      </trkpt>
      <trkpt lat="49.90436" lon="2.28553">
        <ele>20.7</ele>
        <time>2023-01-20T14:50:58Z</time>
      </trkpt>
      <trkpt lat="49.90435" lon="2.28555">
        <ele>20.7</ele>
        <time>2023-01-20T14:51:00Z</time>
      </trkpt>
      <trkpt lat="49.90434" lon="2.28557">
        <ele>20.7</ele>
        <time>2023-01-20T14:51:01Z</time>
      </trkpt>
      <trkpt lat="49.90434" lon="2.28558">
        <ele>20.7</ele>
        <time>2023-01-20T14:51:02Z</time>
      </trkpt>
      <trkpt lat="49.90432" lon="2.2856">
        <ele>20.7</ele>
        <time>2023-01-20T14:51:03Z</time>
      </trkpt>
      <trkpt lat="49.90432" lon="2.28563">
        <ele>20.7</ele>
        <time>2023-01-20T14:51:04Z</time>
      </trkpt>
      <trkpt lat="49.90432" lon="2.28565">
        <ele>20.7</ele>
        <time>2023-01-20T14:51:06Z</time>
      </trkpt>
      <trkpt lat="49.90431" lon="2.28566">
        <ele>20.7</ele>
        <time>2023-01-20T14:51:07Z</time>
      </trkpt>
      <trkpt lat="49.90431" lon="2.28568">
        <ele>20.7</ele>
        <time>2023-01-20T14:51:08Z</time>
      </trkpt>
      <trkpt lat="49.90431" lon="2.28569">
        <ele>20.7</ele>
        <time>2023-01-20T14:51:09Z</time>
      </trkpt>
      <trkpt lat="49.90429" lon="2.28571">
        <ele>20.8</ele>
        <time>2023-01-20T14:51:10Z</time>
      </trkpt>
      <trkpt lat="49.90428" lon="2.28572">
        <ele>20.8</ele>
        <time>2023-01-20T14:51:11Z</time>
      </trkpt>
      <trkpt lat="49.90427" lon="2.28572">
        <ele>20.8</ele>
        <time>2023-01-20T14:51:12Z</time>
      </trkpt>
      <trkpt lat="49.90426" lon="2.28573">
        <ele>20.8</ele>
        <time>2023-01-20T14:51:13Z</time>
      </trkpt>
      <trkpt lat="49.90425" lon="2.28574">
        <ele>20.8</ele>
        <time>2023-01-20T14:51:14Z</time>
      </trkpt>
      <trkpt lat="49.90423" lon="2.28574">
        <ele>20.8</ele>
        <time>2023-01-20T14:51:15Z</time>
      </trkpt>
      <trkpt lat="49.90422" lon="2.28573">
        <ele>20.8</ele>
        <time>2023-01-20T14:51:16Z</time>
      </trkpt>
      <trkpt lat="49.90421" lon="2.28573">
        <ele>20.8</ele>
        <time>2023-01-20T14:51:18Z</time>
      </trkpt>
      <trkpt lat="49.9042" lon="2.28572">
        <ele>20.8</ele>
        <time>2023-01-20T14:51:19Z</time>
      </trkpt>
      <trkpt lat="49.9042" lon="2.28573">
        <ele>20.8</ele>
        <time>2023-01-20T14:51:20Z</time>
      </trkpt>
      <trkpt lat="49.90419" lon="2.28573">
        <ele>20.9</ele>
        <time>2023-01-20T14:51:21Z</time>
      </trkpt>
      <trkpt lat="49.90418" lon="2.28574">
        <ele>20.9</ele>
        <time>2023-01-20T14:51:22Z</time>
      </trkpt>
      <trkpt lat="49.90417" lon="2.28574">
        <ele>20.9</ele>
        <time>2023-01-20T14:51:23Z</time>
      </trkpt>
      <trkpt lat="49.90416" lon="2.28576">
        <ele>20.9</ele>
        <time>2023-01-20T14:51:25Z</time>
      </trkpt>
      <trkpt lat="49.90414" lon="2.28576">
        <ele>20.9</ele>
        <time>2023-01-20T14:51:26Z</time>
      </trkpt>
      <trkpt lat="49.90413" lon="2.28577">
        <ele>20.9</ele>
        <time>2023-01-20T14:51:27Z</time>
      </trkpt>
      <trkpt lat="49.90412" lon="2.28578">
        <ele>21</ele>
        <time>2023-01-20T14:51:28Z</time>
      </trkpt>
      <trkpt lat="49.90411" lon="2.28579">
        <ele>21</ele>
        <time>2023-01-20T14:51:29Z</time>
      </trkpt>
      <trkpt lat="49.9041" lon="2.2858">
        <ele>21</ele>
        <time>2023-01-20T14:51:30Z</time>
      </trkpt>
      <trkpt lat="49.90408" lon="2.28582">
        <ele>21</ele>
        <time>2023-01-20T14:51:31Z</time>
      </trkpt>
      <trkpt lat="49.90407" lon="2.28582">
        <ele>21</ele>
        <time>2023-01-20T14:51:32Z</time>
      </trkpt>
      <trkpt lat="49.90406" lon="2.28583">
        <ele>21.1</ele>
        <time>2023-01-20T14:51:33Z</time>
      </trkpt>
      <trkpt lat="49.90405" lon="2.28585">
        <ele>21.1</ele>
        <time>2023-01-20T14:51:35Z</time>
      </trkpt>
      <trkpt lat="49.90404" lon="2.28585">
        <ele>21.1</ele>
        <time>2023-01-20T14:51:36Z</time>
      </trkpt>
      <trkpt lat="49.90403" lon="2.28586">
        <ele>21.1</ele>
        <time>2023-01-20T14:51:37Z</time>
      </trkpt>
      <trkpt lat="49.90401" lon="2.28588">
        <ele>21.2</ele>
        <time>2023-01-20T14:51:38Z</time>
      </trkpt>
      <trkpt lat="49.90401" lon="2.28588">
        <ele>21.2</ele>
        <time>2023-01-20T14:51:39Z</time>
      </trkpt>
      <trkpt lat="49.904" lon="2.28589">
        <ele>21.2</ele>
        <time>2023-01-20T14:51:40Z</time>
      </trkpt>
      <trkpt lat="49.90398" lon="2.2859">
        <ele>21.2</ele>
        <time>2023-01-20T14:51:41Z</time>
      </trkpt>
      <trkpt lat="49.90397" lon="2.28591">
        <ele>21.2</ele>
        <time>2023-01-20T14:51:42Z</time>
      </trkpt>
      <trkpt lat="49.90396" lon="2.28592">
        <ele>21.3</ele>
        <time>2023-01-20T14:51:43Z</time>
      </trkpt>
      <trkpt lat="49.90395" lon="2.28592">
        <ele>21.3</ele>
        <time>2023-01-20T14:51:45Z</time>
      </trkpt>
      <trkpt lat="49.90394" lon="2.28593">
        <ele>21.3</ele>
        <time>2023-01-20T14:51:46Z</time>
      </trkpt>
      <trkpt lat="49.90393" lon="2.28594">
        <ele>21.3</ele>
        <time>2023-01-20T14:51:47Z</time>
      </trkpt>
      <trkpt lat="49.90392" lon="2.28595">
        <ele>21.4</ele>
        <time>2023-01-20T14:51:48Z</time>
      </trkpt>
      <trkpt lat="49.90391" lon="2.28595">
        <ele>21.4</ele>
        <time>2023-01-20T14:51:49Z</time>
      </trkpt>
      <trkpt lat="49.9039" lon="2.28596">
        <ele>21.4</ele>
        <time>2023-01-20T14:51:50Z</time>
      </trkpt>
      <trkpt lat="49.90389" lon="2.28597">
        <ele>21.4</ele>
        <time>2023-01-20T14:51:51Z</time>
      </trkpt>
      <trkpt lat="49.90388" lon="2.28598">
        <ele>21.5</ele>
        <time>2023-01-20T14:51:52Z</time>
      </trkpt>
      <trkpt lat="49.90387" lon="2.28598">
        <ele>21.5</ele>
        <time>2023-01-20T14:51:54Z</time>
      </trkpt>
      <trkpt lat="49.90386" lon="2.28599">
        <ele>21.5</ele>
        <time>2023-01-20T14:51:55Z</time>
      </trkpt>
      <trkpt lat="49.90385" lon="2.286">
        <ele>21.5</ele>
        <time>2023-01-20T14:51:56Z</time>
      </trkpt>
      <trkpt lat="49.90384" lon="2.28601">
        <ele>21.6</ele>
        <time>2023-01-20T14:51:57Z</time>
      </trkpt>
      <trkpt lat="49.90383" lon="2.28602">
        <ele>21.6</ele>
        <time>2023-01-20T14:51:58Z</time>
      </trkpt>
      <trkpt lat="49.90382" lon="2.28603">
        <ele>21.6</ele>
        <time>2023-01-20T14:51:59Z</time>
      </trkpt>
      <trkpt lat="49.90381" lon="2.28604">
        <ele>21.6</ele>
        <time>2023-01-20T14:52:00Z</time>
      </trkpt>
      <trkpt lat="49.90379" lon="2.28605">
        <ele>21.7</ele>
        <time>2023-01-20T14:52:01Z</time>
      </trkpt>
      <trkpt lat="49.90379" lon="2.28606">
        <ele>21.7</ele>
        <time>2023-01-20T14:52:03Z</time>
      </trkpt>
      <trkpt lat="49.90377" lon="2.28606">
        <ele>21.7</ele>
        <time>2023-01-20T14:52:04Z</time>
      </trkpt>
      <trkpt lat="49.90376" lon="2.28607">
        <ele>21.8</ele>
        <time>2023-01-20T14:52:05Z</time>
      </trkpt>
      <trkpt lat="49.90376" lon="2.28608">
        <ele>21.8</ele>
        <time>2023-01-20T14:52:06Z</time>
      </trkpt>
      <trkpt lat="49.90375" lon="2.28608">
        <ele>21.8</ele>
        <time>2023-01-20T14:52:07Z</time>
      </trkpt>
      <trkpt lat="49.90374" lon="2.28609">
        <ele>21.9</ele>
        <time>2023-01-20T14:52:08Z</time>
      </trkpt>
      <trkpt lat="49.90372" lon="2.2861">
        <ele>21.9</ele>
        <time>2023-01-20T14:52:09Z</time>
      </trkpt>
      <trkpt lat="49.90371" lon="2.28611">
        <ele>21.9</ele>
        <time>2023-01-20T14:52:11Z</time>
      </trkpt>
      <trkpt lat="49.90369" lon="2.28612">
        <ele>22</ele>
        <time>2023-01-20T14:52:12Z</time>
      </trkpt>
      <trkpt lat="49.90369" lon="2.28612">
        <ele>22</ele>
        <time>2023-01-20T14:52:13Z</time>
      </trkpt>
      <trkpt lat="49.90368" lon="2.28613">
        <ele>22.1</ele>
        <time>2023-01-20T14:52:14Z</time>
      </trkpt>
      <trkpt lat="49.90367" lon="2.28614">
        <ele>22.1</ele>
        <time>2023-01-20T14:52:15Z</time>
      </trkpt>
      <trkpt lat="49.90365" lon="2.28615">
        <ele>22.1</ele>
        <time>2023-01-20T14:52:16Z</time>
      </trkpt>
      <trkpt lat="49.90363" lon="2.28616">
        <ele>22.2</ele>
        <time>2023-01-20T14:52:17Z</time>
      </trkpt>
      <trkpt lat="49.90363" lon="2.28617">
        <ele>22.2</ele>
        <time>2023-01-20T14:52:19Z</time>
      </trkpt>
      <trkpt lat="49.90362" lon="2.28617">
        <ele>22.3</ele>
        <time>2023-01-20T14:52:20Z</time>
      </trkpt>
      <trkpt lat="49.9036" lon="2.28618">
        <ele>22.3</ele>
        <time>2023-01-20T14:52:21Z</time>
      </trkpt>
      <trkpt lat="49.90359" lon="2.28618">
        <ele>22.4</ele>
        <time>2023-01-20T14:52:22Z</time>
      </trkpt>
      <trkpt lat="49.90358" lon="2.28619">
        <ele>22.4</ele>
        <time>2023-01-20T14:52:23Z</time>
      </trkpt>
      <trkpt lat="49.90356" lon="2.2862">
        <ele>22.4</ele>
        <time>2023-01-20T14:52:24Z</time>
      </trkpt>
      <trkpt lat="49.90355" lon="2.28621">
        <ele>22.5</ele>
        <time>2023-01-20T14:52:26Z</time>
      </trkpt>
      <trkpt lat="49.90353" lon="2.28622">
        <ele>22.5</ele>
        <time>2023-01-20T14:52:27Z</time>
      </trkpt>
      <trkpt lat="49.90353" lon="2.28623">
        <ele>22.6</ele>
        <time>2023-01-20T14:52:28Z</time>
      </trkpt>
      <trkpt lat="49.90352" lon="2.28623">
        <ele>22.6</ele>
        <time>2023-01-20T14:52:29Z</time>
      </trkpt>
      <trkpt lat="49.90351" lon="2.28625">
        <ele>22.7</ele>
        <time>2023-01-20T14:52:30Z</time>
      </trkpt>
      <trkpt lat="49.9035" lon="2.28626">
        <ele>22.7</ele>
        <time>2023-01-20T14:52:31Z</time>
      </trkpt>
      <trkpt lat="49.90348" lon="2.28629">
        <ele>22.8</ele>
        <time>2023-01-20T14:52:32Z</time>
      </trkpt>
      <trkpt lat="49.90347" lon="2.2863">
        <ele>22.8</ele>
        <time>2023-01-20T14:52:34Z</time>
      </trkpt>
      <trkpt lat="49.90346" lon="2.28631">
        <ele>22.9</ele>
        <time>2023-01-20T14:52:35Z</time>
      </trkpt>
      <trkpt lat="49.90346" lon="2.28632">
        <ele>22.9</ele>
        <time>2023-01-20T14:52:36Z</time>
      </trkpt>
      <trkpt lat="49.90345" lon="2.28633">
        <ele>23</ele>
        <time>2023-01-20T14:52:37Z</time>
      </trkpt>
      <trkpt lat="49.90344" lon="2.28635">
        <ele>23</ele>
        <time>2023-01-20T14:52:38Z</time>
      </trkpt>
      <trkpt lat="49.90343" lon="2.28636">
        <ele>23.1</ele>
        <time>2023-01-20T14:52:39Z</time>
      </trkpt>
      <trkpt lat="49.90342" lon="2.28636">
        <ele>23.1</ele>
        <time>2023-01-20T14:52:41Z</time>
      </trkpt>
      <trkpt lat="49.90341" lon="2.28637">
        <ele>23.2</ele>
        <time>2023-01-20T14:52:42Z</time>
      </trkpt>
      <trkpt lat="49.9034" lon="2.28637">
        <ele>23.2</ele>
        <time>2023-01-20T14:52:43Z</time>
      </trkpt>
      <trkpt lat="49.9034" lon="2.28638">
        <ele>23.2</ele>
        <time>2023-01-20T14:52:44Z</time>
      </trkpt>
      <trkpt lat="49.90339" lon="2.28638">
        <ele>23.3</ele>
        <time>2023-01-20T14:52:45Z</time>
      </trkpt>
      <trkpt lat="49.90337" lon="2.28638">
        <ele>23.3</ele>
        <time>2023-01-20T14:52:46Z</time>
      </trkpt>
      <trkpt lat="49.90337" lon="2.28639">
        <ele>23.4</ele>
        <time>2023-01-20T14:52:47Z</time>
      </trkpt>
      <trkpt lat="49.90336" lon="2.2864">
        <ele>23.4</ele>
        <time>2023-01-20T14:52:49Z</time>
      </trkpt>
      <trkpt lat="49.90335" lon="2.2864">
        <ele>23.5</ele>
        <time>2023-01-20T14:52:50Z</time>
      </trkpt>
      <trkpt lat="49.90334" lon="2.28641">
        <ele>23.5</ele>
        <time>2023-01-20T14:52:51Z</time>
      </trkpt>
      <trkpt lat="49.90333" lon="2.28642">
        <ele>23.6</ele>
        <time>2023-01-20T14:52:52Z</time>
      </trkpt>
      <trkpt lat="49.90332" lon="2.28642">
        <ele>23.6</ele>
        <time>2023-01-20T14:52:53Z</time>
      </trkpt>
      <trkpt lat="49.90331" lon="2.28643">
        <ele>23.7</ele>
        <time>2023-01-20T14:52:54Z</time>
      </trkpt>
      <trkpt lat="49.9033" lon="2.28644">
        <ele>23.7</ele>
        <time>2023-01-20T14:52:56Z</time>
      </trkpt>
      <trkpt lat="49.90329" lon="2.28644">
        <ele>23.8</ele>
        <time>2023-01-20T14:52:57Z</time>
      </trkpt>
      <trkpt lat="49.90328" lon="2.28644">
        <ele>23.8</ele>
        <time>2023-01-20T14:52:58Z</time>
      </trkpt>
      <trkpt lat="49.90327" lon="2.28643">
        <ele>23.8</ele>
        <time>2023-01-20T14:52:59Z</time>
      </trkpt>
      <trkpt lat="49.90327" lon="2.28642">
        <ele>23.9</ele>
        <time>2023-01-20T14:53:00Z</time>
      </trkpt>
      <trkpt lat="49.90326" lon="2.28641">
        <ele>23.9</ele>
        <time>2023-01-20T14:53:01Z</time>
      </trkpt>
      <trkpt lat="49.90325" lon="2.28641">
        <ele>23.9</ele>
        <time>2023-01-20T14:53:02Z</time>
      </trkpt>
      <trkpt lat="49.90324" lon="2.28639">
        <ele>23.9</ele>
        <time>2023-01-20T14:53:04Z</time>
      </trkpt>
      <trkpt lat="49.90323" lon="2.28637">
        <ele>23.9</ele>
        <time>2023-01-20T14:53:05Z</time>
      </trkpt>
      <trkpt lat="49.90322" lon="2.28635">
        <ele>23.9</ele>
        <time>2023-01-20T14:53:07Z</time>
      </trkpt>
      <trkpt lat="49.90321" lon="2.28634">
        <ele>23.8</ele>
        <time>2023-01-20T14:53:08Z</time>
      </trkpt>
      <trkpt lat="49.9032" lon="2.28631">
        <ele>23.8</ele>
        <time>2023-01-20T14:53:09Z</time>
      </trkpt>
      <trkpt lat="49.9032" lon="2.2863">
        <ele>23.8</ele>
        <time>2023-01-20T14:53:10Z</time>
      </trkpt>
      <trkpt lat="49.9032" lon="2.28628">
        <ele>23.8</ele>
        <time>2023-01-20T14:53:11Z</time>
      </trkpt>
      <trkpt lat="49.90319" lon="2.28627">
        <ele>23.8</ele>
        <time>2023-01-20T14:53:12Z</time>
      </trkpt>
      <trkpt lat="49.90319" lon="2.28625">
        <ele>23.7</ele>
        <time>2023-01-20T14:53:13Z</time>
      </trkpt>
      <trkpt lat="49.90318" lon="2.28623">
        <ele>23.7</ele>
        <time>2023-01-20T14:53:15Z</time>
      </trkpt>
      <trkpt lat="49.90317" lon="2.28621">
        <ele>23.7</ele>
        <time>2023-01-20T14:53:16Z</time>
      </trkpt>
      <trkpt lat="49.90317" lon="2.28619">
        <ele>23.7</ele>
        <time>2023-01-20T14:53:17Z</time>
      </trkpt>
      <trkpt lat="49.90316" lon="2.28616">
        <ele>23.7</ele>
        <time>2023-01-20T14:53:18Z</time>
      </trkpt>
      <trkpt lat="49.90315" lon="2.28614">
        <ele>23.6</ele>
        <time>2023-01-20T14:53:19Z</time>
      </trkpt>
      <trkpt lat="49.90315" lon="2.28612">
        <ele>23.6</ele>
        <time>2023-01-20T14:53:20Z</time>
      </trkpt>
      <trkpt lat="49.90314" lon="2.28609">
        <ele>23.6</ele>
        <time>2023-01-20T14:53:21Z</time>
      </trkpt>
      <trkpt lat="49.90313" lon="2.28607">
        <ele>23.6</ele>
        <time>2023-01-20T14:53:23Z</time>
      </trkpt>
      <trkpt lat="49.90312" lon="2.28605">
        <ele>23.6</ele>
        <time>2023-01-20T14:53:24Z</time>
      </trkpt>
      <trkpt lat="49.90312" lon="2.28603">
        <ele>23.5</ele>
        <time>2023-01-20T14:53:25Z</time>
      </trkpt>
      <trkpt lat="49.90311" lon="2.286">
        <ele>23.5</ele>
        <time>2023-01-20T14:53:26Z</time>
      </trkpt>
      <trkpt lat="49.9031" lon="2.28598">
        <ele>23.5</ele>
        <time>2023-01-20T14:53:27Z</time>
      </trkpt>
      <trkpt lat="49.90309" lon="2.28596">
        <ele>23.5</ele>
        <time>2023-01-20T14:53:28Z</time>
      </trkpt>
      <trkpt lat="49.90308" lon="2.28593">
        <ele>23.5</ele>
        <time>2023-01-20T14:53:29Z</time>
      </trkpt>
      <trkpt lat="49.90307" lon="2.28591">
        <ele>23.5</ele>
        <time>2023-01-20T14:53:30Z</time>
      </trkpt>
      <trkpt lat="49.90306" lon="2.28589">
        <ele>23.4</ele>
        <time>2023-01-20T14:53:32Z</time>
      </trkpt>
      <trkpt lat="49.90305" lon="2.28587">
        <ele>23.4</ele>
        <time>2023-01-20T14:53:33Z</time>
      </trkpt>
      <trkpt lat="49.90304" lon="2.28585">
        <ele>23.4</ele>
        <time>2023-01-20T14:53:34Z</time>
      </trkpt>
      <trkpt lat="49.90303" lon="2.28582">
        <ele>23.4</ele>
        <time>2023-01-20T14:53:35Z</time>
      </trkpt>
      <trkpt lat="49.90303" lon="2.2858">
        <ele>23.4</ele>
        <time>2023-01-20T14:53:36Z</time>
      </trkpt>
      <trkpt lat="49.90302" lon="2.28577">
        <ele>23.3</ele>
        <time>2023-01-20T14:53:37Z</time>
      </trkpt>
      <trkpt lat="49.90301" lon="2.28575">
        <ele>23.3</ele>
        <time>2023-01-20T14:53:39Z</time>
      </trkpt>
      <trkpt lat="49.903" lon="2.28573">
        <ele>23.3</ele>
        <time>2023-01-20T14:53:40Z</time>
      </trkpt>
      <trkpt lat="49.903" lon="2.28571">
        <ele>23.3</ele>
        <time>2023-01-20T14:53:41Z</time>
      </trkpt>
      <trkpt lat="49.90299" lon="2.28569">
        <ele>23.3</ele>
        <time>2023-01-20T14:53:42Z</time>
      </trkpt>
      <trkpt lat="49.90298" lon="2.28567">
        <ele>23.3</ele>
        <time>2023-01-20T14:53:43Z</time>
      </trkpt>
      <trkpt lat="49.90298" lon="2.28565">
        <ele>23.3</ele>
        <time>2023-01-20T14:53:44Z</time>
      </trkpt>
      <trkpt lat="49.90297" lon="2.28561">
        <ele>23.3</ele>
        <time>2023-01-20T14:53:45Z</time>
      </trkpt>
      <trkpt lat="49.90296" lon="2.2856">
        <ele>23.3</ele>
        <time>2023-01-20T14:53:47Z</time>
      </trkpt>
      <trkpt lat="49.90295" lon="2.28558">
        <ele>23.3</ele>
        <time>2023-01-20T14:53:48Z</time>
      </trkpt>
      <trkpt lat="49.90295" lon="2.28557">
        <ele>23.2</ele>
        <time>2023-01-20T14:53:49Z</time>
      </trkpt>
      <trkpt lat="49.90294" lon="2.28555">
        <ele>23.2</ele>
        <time>2023-01-20T14:53:50Z</time>
      </trkpt>
      <trkpt lat="49.90293" lon="2.28552">
        <ele>23.2</ele>
        <time>2023-01-20T14:53:51Z</time>
      </trkpt>
      <trkpt lat="49.90292" lon="2.28551">
        <ele>23.2</ele>
        <time>2023-01-20T14:53:52Z</time>
      </trkpt>
      <trkpt lat="49.90292" lon="2.2855">
        <ele>23.2</ele>
        <time>2023-01-20T14:53:53Z</time>
      </trkpt>
      <trkpt lat="49.90291" lon="2.28549">
        <ele>23.2</ele>
        <time>2023-01-20T14:53:54Z</time>
      </trkpt>
      <trkpt lat="49.9029" lon="2.28548">
        <ele>23.2</ele>
        <time>2023-01-20T14:53:55Z</time>
      </trkpt>
      <trkpt lat="49.90289" lon="2.28547">
        <ele>23.2</ele>
        <time>2023-01-20T14:53:57Z</time>
      </trkpt>
      <trkpt lat="49.90289" lon="2.28545">
        <ele>23.2</ele>
        <time>2023-01-20T14:53:58Z</time>
      </trkpt>
      <trkpt lat="49.90288" lon="2.28544">
        <ele>23.2</ele>
        <time>2023-01-20T14:53:59Z</time>
      </trkpt>
      <trkpt lat="49.90288" lon="2.28542">
        <ele>23.2</ele>
        <time>2023-01-20T14:54:00Z</time>
      </trkpt>
      <trkpt lat="49.90287" lon="2.28538">
        <ele>23.2</ele>
        <time>2023-01-20T14:54:01Z</time>
      </trkpt>
      <trkpt lat="49.90286" lon="2.28537">
        <ele>23.2</ele>
        <time>2023-01-20T14:54:03Z</time>
      </trkpt>
      <trkpt lat="49.90286" lon="2.28536">
        <ele>23.2</ele>
        <time>2023-01-20T14:54:04Z</time>
      </trkpt>
      <trkpt lat="49.90285" lon="2.28534">
        <ele>23.2</ele>
        <time>2023-01-20T14:54:05Z</time>
      </trkpt>
      <trkpt lat="49.90285" lon="2.28533">
        <ele>23.2</ele>
        <time>2023-01-20T14:54:06Z</time>
      </trkpt>
      <trkpt lat="49.90284" lon="2.2853">
        <ele>23.2</ele>
        <time>2023-01-20T14:54:07Z</time>
      </trkpt>
      <trkpt lat="49.90283" lon="2.28529">
        <ele>23.1</ele>
        <time>2023-01-20T14:54:08Z</time>
      </trkpt>
      <trkpt lat="49.90283" lon="2.28528">
        <ele>23.1</ele>
        <time>2023-01-20T14:54:09Z</time>
      </trkpt>
      <trkpt lat="49.90281" lon="2.28525">
        <ele>23.1</ele>
        <time>2023-01-20T14:54:11Z</time>
      </trkpt>
      <trkpt lat="49.90281" lon="2.28524">
        <ele>23.1</ele>
        <time>2023-01-20T14:54:12Z</time>
      </trkpt>
      <trkpt lat="49.90281" lon="2.28523">
        <ele>23.1</ele>
        <time>2023-01-20T14:54:13Z</time>
      </trkpt>
      <trkpt lat="49.9028" lon="2.28522">
        <ele>23.1</ele>
        <time>2023-01-20T14:54:14Z</time>
      </trkpt>
      <trkpt lat="49.9028" lon="2.2852">
        <ele>23.1</ele>
        <time>2023-01-20T14:54:15Z</time>
      </trkpt>
      <trkpt lat="49.90279" lon="2.28519">
        <ele>23.1</ele>
        <time>2023-01-20T14:54:16Z</time>
      </trkpt>
      <trkpt lat="49.90278" lon="2.28518">
        <ele>23.1</ele>
        <time>2023-01-20T14:54:17Z</time>
      </trkpt>
      <trkpt lat="49.90277" lon="2.28515">
        <ele>23.1</ele>
        <time>2023-01-20T14:54:19Z</time>
      </trkpt>
      <trkpt lat="49.90277" lon="2.28514">
        <ele>23.1</ele>
        <time>2023-01-20T14:54:20Z</time>
      </trkpt>
      <trkpt lat="49.90276" lon="2.28513">
        <ele>23.1</ele>
        <time>2023-01-20T14:54:21Z</time>
      </trkpt>
      <trkpt lat="49.90275" lon="2.28512">
        <ele>23.1</ele>
        <time>2023-01-20T14:54:22Z</time>
      </trkpt>
      <trkpt lat="49.90274" lon="2.28511">
        <ele>23.1</ele>
        <time>2023-01-20T14:54:23Z</time>
      </trkpt>
      <trkpt lat="49.90273" lon="2.2851">
        <ele>23.1</ele>
        <time>2023-01-20T14:54:24Z</time>
      </trkpt>
      <trkpt lat="49.90273" lon="2.2851">
        <ele>23</ele>
        <time>2023-01-20T14:54:25Z</time>
      </trkpt>
      <trkpt lat="49.90272" lon="2.28509">
        <ele>23</ele>
        <time>2023-01-20T14:54:26Z</time>
      </trkpt>
      <trkpt lat="49.90271" lon="2.28508">
        <ele>23</ele>
        <time>2023-01-20T14:54:27Z</time>
      </trkpt>
      <trkpt lat="49.90269" lon="2.28507">
        <ele>23</ele>
        <time>2023-01-20T14:54:29Z</time>
      </trkpt>
      <trkpt lat="49.90268" lon="2.28506">
        <ele>23</ele>
        <time>2023-01-20T14:54:30Z</time>
      </trkpt>
      <trkpt lat="49.90268" lon="2.28505">
        <ele>23</ele>
        <time>2023-01-20T14:54:31Z</time>
      </trkpt>
      <trkpt lat="49.90267" lon="2.28504">
        <ele>23</ele>
        <time>2023-01-20T14:54:32Z</time>
      </trkpt>
      <trkpt lat="49.90266" lon="2.28503">
        <ele>23</ele>
        <time>2023-01-20T14:54:33Z</time>
      </trkpt>
      <trkpt lat="49.90265" lon="2.28502">
        <ele>23</ele>
        <time>2023-01-20T14:54:34Z</time>
      </trkpt>
      <trkpt lat="49.90264" lon="2.28501">
        <ele>23</ele>
        <time>2023-01-20T14:54:35Z</time>
      </trkpt>
      <trkpt lat="49.90262" lon="2.285">
        <ele>23</ele>
        <time>2023-01-20T14:54:36Z</time>
      </trkpt>
      <trkpt lat="49.90261" lon="2.28499">
        <ele>23</ele>
        <time>2023-01-20T14:54:38Z</time>
      </trkpt>
      <trkpt lat="49.90261" lon="2.28498">
        <ele>23</ele>
        <time>2023-01-20T14:54:39Z</time>
      </trkpt>
      <trkpt lat="49.9026" lon="2.28497">
        <ele>23</ele>
        <time>2023-01-20T14:54:40Z</time>
      </trkpt>
      <trkpt lat="49.90258" lon="2.28496">
        <ele>22.9</ele>
        <time>2023-01-20T14:54:41Z</time>
      </trkpt>
      <trkpt lat="49.90257" lon="2.28495">
        <ele>22.9</ele>
        <time>2023-01-20T14:54:42Z</time>
      </trkpt>
      <trkpt lat="49.90256" lon="2.28494">
        <ele>22.9</ele>
        <time>2023-01-20T14:54:43Z</time>
      </trkpt>
      <trkpt lat="49.90255" lon="2.28493">
        <ele>22.9</ele>
        <time>2023-01-20T14:54:45Z</time>
      </trkpt>
      <trkpt lat="49.90253" lon="2.28493">
        <ele>22.9</ele>
        <time>2023-01-20T14:54:46Z</time>
      </trkpt>
      <trkpt lat="49.90252" lon="2.28492">
        <ele>22.9</ele>
        <time>2023-01-20T14:54:47Z</time>
      </trkpt>
      <trkpt lat="49.9025" lon="2.2849">
        <ele>22.9</ele>
        <time>2023-01-20T14:54:48Z</time>
      </trkpt>
      <trkpt lat="49.9025" lon="2.28489">
        <ele>22.9</ele>
        <time>2023-01-20T14:54:49Z</time>
      </trkpt>
      <trkpt lat="49.90249" lon="2.28488">
        <ele>22.9</ele>
        <time>2023-01-20T14:54:50Z</time>
      </trkpt>
      <trkpt lat="49.90248" lon="2.28485">
        <ele>22.8</ele>
        <time>2023-01-20T14:54:51Z</time>
      </trkpt>
      <trkpt lat="49.90248" lon="2.28484">
        <ele>22.8</ele>
        <time>2023-01-20T14:54:52Z</time>
      </trkpt>
      <trkpt lat="49.90247" lon="2.28483">
        <ele>22.8</ele>
        <time>2023-01-20T14:54:53Z</time>
      </trkpt>
      <trkpt lat="49.90246" lon="2.2848">
        <ele>22.8</ele>
        <time>2023-01-20T14:54:55Z</time>
      </trkpt>
      <trkpt lat="49.90245" lon="2.28479">
        <ele>22.8</ele>
        <time>2023-01-20T14:54:56Z</time>
      </trkpt>
      <trkpt lat="49.90244" lon="2.28477">
        <ele>22.8</ele>
        <time>2023-01-20T14:54:57Z</time>
      </trkpt>
      <trkpt lat="49.90243" lon="2.28475">
        <ele>22.8</ele>
        <time>2023-01-20T14:54:58Z</time>
      </trkpt>
      <trkpt lat="49.90242" lon="2.28474">
        <ele>22.8</ele>
        <time>2023-01-20T14:54:59Z</time>
      </trkpt>
      <trkpt lat="49.90241" lon="2.28472">
        <ele>22.8</ele>
        <time>2023-01-20T14:55:00Z</time>
      </trkpt>
      <trkpt lat="49.9024" lon="2.2847">
        <ele>22.7</ele>
        <time>2023-01-20T14:55:02Z</time>
      </trkpt>
      <trkpt lat="49.90239" lon="2.28468">
        <ele>22.7</ele>
        <time>2023-01-20T14:55:03Z</time>
      </trkpt>
      <trkpt lat="49.90239" lon="2.28467">
        <ele>22.7</ele>
        <time>2023-01-20T14:55:04Z</time>
      </trkpt>
      <trkpt lat="49.90238" lon="2.28466">
        <ele>22.7</ele>
        <time>2023-01-20T14:55:05Z</time>
      </trkpt>
      <trkpt lat="49.90238" lon="2.28464">
        <ele>22.7</ele>
        <time>2023-01-20T14:55:06Z</time>
      </trkpt>
      <trkpt lat="49.90237" lon="2.28463">
        <ele>22.7</ele>
        <time>2023-01-20T14:55:07Z</time>
      </trkpt>
      <trkpt lat="49.90236" lon="2.28462">
        <ele>22.7</ele>
        <time>2023-01-20T14:55:09Z</time>
      </trkpt>
      <trkpt lat="49.90236" lon="2.28463">
        <ele>22.7</ele>
        <time>2023-01-20T14:55:10Z</time>
      </trkpt>
      <trkpt lat="49.90236" lon="2.28465">
        <ele>22.7</ele>
        <time>2023-01-20T14:55:12Z</time>
      </trkpt>
      <trkpt lat="49.90237" lon="2.28465">
        <ele>22.7</ele>
        <time>2023-01-20T14:55:13Z</time>
      </trkpt>
      <trkpt lat="49.90237" lon="2.28466">
        <ele>22.7</ele>
        <time>2023-01-20T14:55:14Z</time>
      </trkpt>
      <trkpt lat="49.90237" lon="2.28467">
        <ele>22.7</ele>
        <time>2023-01-20T14:55:16Z</time>
      </trkpt>
      <trkpt lat="49.90237" lon="2.28467">
        <ele>22.7</ele>
        <time>2023-01-20T14:55:17Z</time>
      </trkpt>
      <trkpt lat="49.90237" lon="2.28467">
        <ele>22.7</ele>
        <time>2023-01-20T14:55:18Z</time>
      </trkpt>
      <trkpt lat="49.90237" lon="2.28467">
        <ele>22.7</ele>
        <time>2023-01-20T14:55:19Z</time>
      </trkpt>
      <trkpt lat="49.90236" lon="2.28468">
        <ele>22.7</ele>
        <time>2023-01-20T14:55:21Z</time>
      </trkpt>
      <trkpt lat="49.90236" lon="2.28468">
        <ele>22.7</ele>
        <time>2023-01-20T14:55:22Z</time>
      </trkpt>
      <trkpt lat="49.90236" lon="2.28468">
        <ele>22.7</ele>
        <time>2023-01-20T14:55:23Z</time>
      </trkpt>
      <trkpt lat="49.90237" lon="2.28468">
        <ele>22.7</ele>
        <time>2023-01-20T14:55:25Z</time>
      </trkpt>
      <trkpt lat="49.90237" lon="2.28468">
        <ele>22.7</ele>
        <time>2023-01-20T14:55:26Z</time>
      </trkpt>
      <trkpt lat="49.90237" lon="2.28468">
        <ele>22.7</ele>
        <time>2023-01-20T14:55:27Z</time>
      </trkpt>
      <trkpt lat="49.90237" lon="2.28468">
        <ele>22.7</ele>
        <time>2023-01-20T14:55:28Z</time>
      </trkpt>
      <trkpt lat="49.90237" lon="2.28468">
        <ele>22.7</ele>
        <time>2023-01-20T14:55:29Z</time>
      </trkpt>
      <trkpt lat="49.90237" lon="2.28468">
        <ele>22.7</ele>
        <time>2023-01-20T14:55:30Z</time>
      </trkpt>
      <trkpt lat="49.90237" lon="2.28468">
        <ele>22.7</ele>
        <time>2023-01-20T14:55:31Z</time>
      </trkpt>
      <trkpt lat="49.90237" lon="2.28468">
        <ele>22.7</ele>
        <time>2023-01-20T14:55:32Z</time>
      </trkpt>
      <trkpt lat="49.90237" lon="2.28468">
        <ele>22.7</ele>
        <time>2023-01-20T14:55:33Z</time>
      </trkpt>
      <trkpt lat="49.90237" lon="2.28468">
        <ele>22.7</ele>
        <time>2023-01-20T14:55:34Z</time>
      </trkpt>
      <trkpt lat="49.90237" lon="2.28468">
        <ele>22.7</ele>
        <time>2023-01-20T14:55:35Z</time>
      </trkpt>
      <trkpt lat="49.90237" lon="2.28468">
        <ele>22.7</ele>
        <time>2023-01-20T14:55:36Z</time>
      </trkpt>
      <trkpt lat="49.90237" lon="2.28468">
        <ele>22.7</ele>
        <time>2023-01-20T14:55:37Z</time>
      </trkpt>
      <trkpt lat="49.90237" lon="2.28468">
        <ele>22.7</ele>
        <time>2023-01-20T14:55:38Z</time>
      </trkpt>
      <trkpt lat="49.90237" lon="2.28468">
        <ele>22.7</ele>
        <time>2023-01-20T14:55:39Z</time>
      </trkpt>
      <trkpt lat="49.90237" lon="2.28468">
        <ele>22.7</ele>
        <time>2023-01-20T14:55:40Z</time>
      </trkpt>
      <trkpt lat="49.90237" lon="2.28468">
        <ele>22.7</ele>
        <time>2023-01-20T14:55:41Z</time>
      </trkpt>
      <trkpt lat="49.90237" lon="2.28468">
        <ele>22.7</ele>
        <time>2023-01-20T14:55:42Z</time>
      </trkpt>
      <trkpt lat="49.90237" lon="2.28468">
        <ele>22.7</ele>
        <time>2023-01-20T14:55:43Z</time>
      </trkpt>
      <trkpt lat="49.90237" lon="2.28468">
        <ele>22.7</ele>
        <time>2023-01-20T14:55:44Z</time>
      </trkpt>
      <trkpt lat="49.90237" lon="2.28468">
        <ele>22.7</ele>
        <time>2023-01-20T14:55:45Z</time>
      </trkpt>
      <trkpt lat="49.90237" lon="2.28468">
        <ele>22.7</ele>
        <time>2023-01-20T14:55:46Z</time>
      </trkpt>
      <trkpt lat="49.90237" lon="2.28468">
        <ele>22.7</ele>
        <time>2023-01-20T14:55:47Z</time>
      </trkpt>
      <trkpt lat="49.90237" lon="2.28468">
        <ele>22.7</ele>
        <time>2023-01-20T14:55:48Z</time>
      </trkpt>
      <trkpt lat="49.90237" lon="2.28468">
        <ele>22.7</ele>
        <time>2023-01-20T14:55:49Z</time>
      </trkpt>
      <trkpt lat="49.90237" lon="2.28468">
        <ele>22.7</ele>
        <time>2023-01-20T14:55:50Z</time>
      </trkpt>
      <trkpt lat="49.90237" lon="2.28468">
        <ele>22.7</ele>
        <time>2023-01-20T14:55:51Z</time>
      </trkpt>
      <trkpt lat="49.90237" lon="2.28468">
        <ele>22.7</ele>
        <time>2023-01-20T14:55:52Z</time>
      </trkpt>
      <trkpt lat="49.90237" lon="2.28468">
        <ele>22.7</ele>
        <time>2023-01-20T14:55:53Z</time>
      </trkpt>
      <trkpt lat="49.90237" lon="2.28468">
        <ele>22.7</ele>
        <time>2023-01-20T14:55:54Z</time>
      </trkpt>
      <trkpt lat="49.90237" lon="2.28468">
        <ele>22.7</ele>
        <time>2023-01-20T14:55:55Z</time>
      </trkpt>
      <trkpt lat="49.90237" lon="2.28468">
        <ele>22.7</ele>
        <time>2023-01-20T14:55:56Z</time>
      </trkpt>
      <trkpt lat="49.90237" lon="2.28468">
        <ele>22.7</ele>
        <time>2023-01-20T14:55:57Z</time>
      </trkpt>
      <trkpt lat="49.90237" lon="2.28468">
        <ele>22.7</ele>
        <time>2023-01-20T14:55:58Z</time>
      </trkpt>
      <trkpt lat="49.90237" lon="2.28468">
        <ele>22.7</ele>
        <time>2023-01-20T14:55:59Z</time>
      </trkpt>
      <trkpt lat="49.90237" lon="2.28468">
        <ele>22.7</ele>
        <time>2023-01-20T14:56:00Z</time>
      </trkpt>
      <trkpt lat="49.90237" lon="2.28468">
        <ele>22.7</ele>
        <time>2023-01-20T14:56:01Z</time>
      </trkpt>
      <trkpt lat="49.90237" lon="2.28468">
        <ele>22.7</ele>
        <time>2023-01-20T14:56:02Z</time>
      </trkpt>
      <trkpt lat="49.90237" lon="2.28468">
        <ele>22.7</ele>
        <time>2023-01-20T14:56:03Z</time>
      </trkpt>
      <trkpt lat="49.90237" lon="2.28468">
        <ele>22.7</ele>
        <time>2023-01-20T14:56:04Z</time>
      </trkpt>
      <trkpt lat="49.90237" lon="2.28468">
        <ele>22.7</ele>
        <time>2023-01-20T14:56:05Z</time>
      </trkpt>
      <trkpt lat="49.90237" lon="2.28468">
        <ele>22.7</ele>
        <time>2023-01-20T14:56:06Z</time>
      </trkpt>
      <trkpt lat="49.90237" lon="2.28468">
        <ele>22.7</ele>
        <time>2023-01-20T14:56:07Z</time>
      </trkpt>
      <trkpt lat="49.90237" lon="2.28468">
        <ele>22.7</ele>
        <time>2023-01-20T14:56:08Z</time>
      </trkpt>
      <trkpt lat="49.90237" lon="2.28468">
        <ele>22.7</ele>
        <time>2023-01-20T14:56:09Z</time>
      </trkpt>
      <trkpt lat="49.90237" lon="2.28468">
        <ele>22.7</ele>
        <time>2023-01-20T14:56:10Z</time>
      </trkpt>
      <trkpt lat="49.90237" lon="2.28468">
        <ele>22.7</ele>
        <time>2023-01-20T14:56:11Z</time>
      </trkpt>
      <trkpt lat="49.90237" lon="2.28468">
        <ele>22.7</ele>
        <time>2023-01-20T14:56:12Z</time>
      </trkpt>
      <trkpt lat="49.90237" lon="2.28468">
        <ele>22.7</ele>
        <time>2023-01-20T14:56:13Z</time>
      </trkpt>
      <trkpt lat="49.90237" lon="2.28468">
        <ele>22.7</ele>
        <time>2023-01-20T14:56:14Z</time>
      </trkpt>
      <trkpt lat="49.90237" lon="2.28468">
        <ele>22.7</ele>
        <time>2023-01-20T14:56:15Z</time>
      </trkpt>
      <trkpt lat="49.90237" lon="2.28468">
        <ele>22.7</ele>
        <time>2023-01-20T14:56:16Z</time>
      </trkpt>
      <trkpt lat="49.90237" lon="2.28468">
        <ele>22.7</ele>
        <time>2023-01-20T14:56:17Z</time>
      </trkpt>
      <trkpt lat="49.90237" lon="2.28468">
        <ele>22.7</ele>
        <time>2023-01-20T14:56:18Z</time>
      </trkpt>
      <trkpt lat="49.90237" lon="2.28468">
        <ele>22.7</ele>
        <time>2023-01-20T14:56:19Z</time>
      </trkpt>
      <trkpt lat="49.90237" lon="2.28468">
        <ele>22.7</ele>
        <time>2023-01-20T14:56:20Z</time>
      </trkpt>
      <trkpt lat="49.90237" lon="2.28468">
        <ele>22.7</ele>
        <time>2023-01-20T14:56:21Z</time>
      </trkpt>
      <trkpt lat="49.90237" lon="2.28468">
        <ele>22.7</ele>
        <time>2023-01-20T14:56:22Z</time>
      </trkpt>
      <trkpt lat="49.90237" lon="2.28468">
        <ele>22.7</ele>
        <time>2023-01-20T14:56:23Z</time>
      </trkpt>
      <trkpt lat="49.90237" lon="2.28468">
        <ele>22.7</ele>
        <time>2023-01-20T14:56:24Z</time>
      </trkpt>
      <trkpt lat="49.90237" lon="2.28468">
        <ele>22.7</ele>
        <time>2023-01-20T14:56:25Z</time>
      </trkpt>
      <trkpt lat="49.90237" lon="2.28468">
        <ele>22.7</ele>
        <time>2023-01-20T14:56:26Z</time>
      </trkpt>
      <trkpt lat="49.90237" lon="2.28468">
        <ele>22.7</ele>
        <time>2023-01-20T14:56:27Z</time>
      </trkpt>
      <trkpt lat="49.90237" lon="2.28468">
        <ele>22.7</ele>
        <time>2023-01-20T14:56:28Z</time>
      </trkpt>
      <trkpt lat="49.90237" lon="2.28468">
        <ele>22.7</ele>
        <time>2023-01-20T14:56:29Z</time>
      </trkpt>
      <trkpt lat="49.90237" lon="2.28468">
        <ele>22.7</ele>
        <time>2023-01-20T14:56:30Z</time>
      </trkpt>
      <trkpt lat="49.90237" lon="2.28468">
        <ele>22.7</ele>
        <time>2023-01-20T14:56:31Z</time>
      </trkpt>
      <trkpt lat="49.90237" lon="2.28468">
        <ele>22.7</ele>
        <time>2023-01-20T14:56:32Z</time>
      </trkpt>
      <trkpt lat="49.90237" lon="2.28468">
        <ele>22.7</ele>
        <time>2023-01-20T14:56:33Z</time>
      </trkpt>
      <trkpt lat="49.90237" lon="2.28468">
        <ele>22.7</ele>
        <time>2023-01-20T14:56:34Z</time>
      </trkpt>
      <trkpt lat="49.90237" lon="2.28468">
        <ele>22.7</ele>
        <time>2023-01-20T14:56:35Z</time>
      </trkpt>
      <trkpt lat="49.90237" lon="2.28468">
        <ele>22.7</ele>
        <time>2023-01-20T14:56:36Z</time>
      </trkpt>
      <trkpt lat="49.90237" lon="2.28468">
        <ele>22.7</ele>
        <time>2023-01-20T14:56:37Z</time>
      </trkpt>
      <trkpt lat="49.90237" lon="2.28468">
        <ele>22.7</ele>
        <time>2023-01-20T14:56:38Z</time>
      </trkpt>
      <trkpt lat="49.90237" lon="2.28468">
        <ele>22.7</ele>
        <time>2023-01-20T14:56:39Z</time>
      </trkpt>
      <trkpt lat="49.90237" lon="2.28468">
        <ele>22.7</ele>
        <time>2023-01-20T14:56:40Z</time>
      </trkpt>
      <trkpt lat="49.90237" lon="2.28468">
        <ele>22.7</ele>
        <time>2023-01-20T14:56:41Z</time>
      </trkpt>
      <trkpt lat="49.90237" lon="2.28468">
        <ele>22.7</ele>
        <time>2023-01-20T14:56:42Z</time>
      </trkpt>
      <trkpt lat="49.90237" lon="2.28468">
        <ele>22.7</ele>
        <time>2023-01-20T14:56:43Z</time>
      </trkpt>
      <trkpt lat="49.90237" lon="2.28468">
        <ele>22.7</ele>
        <time>2023-01-20T14:56:44Z</time>
      </trkpt>
      <trkpt lat="49.90237" lon="2.28468">
        <ele>22.7</ele>
        <time>2023-01-20T14:56:45Z</time>
      </trkpt>
      <trkpt lat="49.90237" lon="2.28468">
        <ele>22.7</ele>
        <time>2023-01-20T14:56:46Z</time>
      </trkpt>
      <trkpt lat="49.90237" lon="2.28468">
        <ele>22.7</ele>
        <time>2023-01-20T14:56:47Z</time>
      </trkpt>
      <trkpt lat="49.90237" lon="2.28468">
        <ele>22.7</ele>
        <time>2023-01-20T14:56:48Z</time>
      </trkpt>
      <trkpt lat="49.90237" lon="2.28468">
        <ele>22.7</ele>
        <time>2023-01-20T14:56:49Z</time>
      </trkpt>
      <trkpt lat="49.90237" lon="2.28468">
        <ele>22.7</ele>
        <time>2023-01-20T14:56:50Z</time>
      </trkpt>
      <trkpt lat="49.90237" lon="2.28468">
        <ele>22.7</ele>
        <time>2023-01-20T14:56:51Z</time>
      </trkpt>
      <trkpt lat="49.90237" lon="2.28468">
        <ele>22.7</ele>
        <time>2023-01-20T14:56:52Z</time>
      </trkpt>
      <trkpt lat="49.90237" lon="2.28468">
        <ele>22.7</ele>
        <time>2023-01-20T14:56:53Z</time>
      </trkpt>
      <trkpt lat="49.90237" lon="2.28468">
        <ele>22.7</ele>
        <time>2023-01-20T14:56:54Z</time>
      </trkpt>
      <trkpt lat="49.90237" lon="2.28468">
        <ele>22.7</ele>
        <time>2023-01-20T14:56:55Z</time>
      </trkpt>
      <trkpt lat="49.90237" lon="2.28468">
        <ele>22.7</ele>
        <time>2023-01-20T14:56:56Z</time>
      </trkpt>
      <trkpt lat="49.90237" lon="2.28468">
        <ele>22.7</ele>
        <time>2023-01-20T14:56:57Z</time>
      </trkpt>
      <trkpt lat="49.90237" lon="2.28468">
        <ele>22.7</ele>
        <time>2023-01-20T14:56:58Z</time>
      </trkpt>
      <trkpt lat="49.90237" lon="2.28468">
        <ele>22.7</ele>
        <time>2023-01-20T14:56:59Z</time>
      </trkpt>
      <trkpt lat="49.90237" lon="2.28468">
        <ele>22.7</ele>
        <time>2023-01-20T14:57:00Z</time>
      </trkpt>
      <trkpt lat="49.90237" lon="2.28468">
        <ele>22.7</ele>
        <time>2023-01-20T14:57:01Z</time>
      </trkpt>
      <trkpt lat="49.90237" lon="2.28468">
        <ele>22.7</ele>
        <time>2023-01-20T14:57:02Z</time>
      </trkpt>
      <trkpt lat="49.90237" lon="2.28468">
        <ele>22.7</ele>
        <time>2023-01-20T14:57:03Z</time>
      </trkpt>
      <trkpt lat="49.90237" lon="2.28468">
        <ele>22.7</ele>
        <time>2023-01-20T14:57:04Z</time>
      </trkpt>
      <trkpt lat="49.90237" lon="2.28468">
        <ele>22.7</ele>
        <time>2023-01-20T14:57:05Z</time>
      </trkpt>
      <trkpt lat="49.90237" lon="2.28468">
        <ele>22.7</ele>
        <time>2023-01-20T14:57:06Z</time>
      </trkpt>
      <trkpt lat="49.90237" lon="2.28468">
        <ele>22.7</ele>
        <time>2023-01-20T14:57:07Z</time>
      </trkpt>
      <trkpt lat="49.90237" lon="2.28468">
        <ele>22.7</ele>
        <time>2023-01-20T14:57:08Z</time>
      </trkpt>
      <trkpt lat="49.90238" lon="2.28469">
        <ele>22.7</ele>
        <time>2023-01-20T14:57:09Z</time>
      </trkpt>
      <trkpt lat="49.90238" lon="2.2847">
        <ele>22.7</ele>
        <time>2023-01-20T14:57:10Z</time>
      </trkpt>
      <trkpt lat="49.90238" lon="2.2847">
        <ele>22.7</ele>
        <time>2023-01-20T14:57:11Z</time>
      </trkpt>
      <trkpt lat="49.90237" lon="2.2847">
        <ele>22.7</ele>
        <time>2023-01-20T14:57:12Z</time>
      </trkpt>
      <trkpt lat="49.90236" lon="2.28469">
        <ele>22.7</ele>
        <time>2023-01-20T14:57:13Z</time>
      </trkpt>
      <trkpt lat="49.90236" lon="2.28468">
        <ele>22.7</ele>
        <time>2023-01-20T14:57:14Z</time>
      </trkpt>
      <trkpt lat="49.90236" lon="2.28467">
        <ele>22.7</ele>
        <time>2023-01-20T14:57:15Z</time>
      </trkpt>
      <trkpt lat="49.90236" lon="2.28467">
        <ele>22.7</ele>
        <time>2023-01-20T14:57:17Z</time>
      </trkpt>
      <trkpt lat="49.90235" lon="2.28466">
        <ele>22.7</ele>
        <time>2023-01-20T14:57:18Z</time>
      </trkpt>
      <trkpt lat="49.90235" lon="2.28465">
        <ele>22.6</ele>
        <time>2023-01-20T14:57:19Z</time>
      </trkpt>
      <trkpt lat="49.90234" lon="2.28463">
        <ele>22.6</ele>
        <time>2023-01-20T14:57:21Z</time>
      </trkpt>
      <trkpt lat="49.90233" lon="2.28462">
        <ele>22.6</ele>
        <time>2023-01-20T14:57:22Z</time>
      </trkpt>
      <trkpt lat="49.90232" lon="2.28461">
        <ele>22.6</ele>
        <time>2023-01-20T14:57:23Z</time>
      </trkpt>
      <trkpt lat="49.90231" lon="2.28461">
        <ele>22.6</ele>
        <time>2023-01-20T14:57:24Z</time>
      </trkpt>
      <trkpt lat="49.9023" lon="2.2846">
        <ele>22.6</ele>
        <time>2023-01-20T14:57:26Z</time>
      </trkpt>
      <trkpt lat="49.90229" lon="2.28459">
        <ele>22.6</ele>
        <time>2023-01-20T14:57:27Z</time>
      </trkpt>
      <trkpt lat="49.90229" lon="2.28458">
        <ele>22.6</ele>
        <time>2023-01-20T14:57:28Z</time>
      </trkpt>
      <trkpt lat="49.90228" lon="2.28457">
        <ele>22.6</ele>
        <time>2023-01-20T14:57:29Z</time>
      </trkpt>
      <trkpt lat="49.90228" lon="2.28456">
        <ele>22.6</ele>
        <time>2023-01-20T14:57:30Z</time>
      </trkpt>
      <trkpt lat="49.90227" lon="2.28454">
        <ele>22.6</ele>
        <time>2023-01-20T14:57:31Z</time>
      </trkpt>
      <trkpt lat="49.90227" lon="2.28453">
        <ele>22.6</ele>
        <time>2023-01-20T14:57:32Z</time>
      </trkpt>
      <trkpt lat="49.90226" lon="2.28451">
        <ele>22.6</ele>
        <time>2023-01-20T14:57:34Z</time>
      </trkpt>
      <trkpt lat="49.90227" lon="2.2845">
        <ele>22.6</ele>
        <time>2023-01-20T14:57:35Z</time>
      </trkpt>
      <trkpt lat="49.90227" lon="2.28449">
        <ele>22.6</ele>
        <time>2023-01-20T14:57:36Z</time>
      </trkpt>
      <trkpt lat="49.90227" lon="2.28448">
        <ele>22.6</ele>
        <time>2023-01-20T14:57:37Z</time>
      </trkpt>
      <trkpt lat="49.90226" lon="2.28446">
        <ele>22.6</ele>
        <time>2023-01-20T14:57:38Z</time>
      </trkpt>
      <trkpt lat="49.90226" lon="2.28445">
        <ele>22.6</ele>
        <time>2023-01-20T14:57:40Z</time>
      </trkpt>
      <trkpt lat="49.90225" lon="2.28444">
        <ele>22.6</ele>
        <time>2023-01-20T14:57:41Z</time>
      </trkpt>
      <trkpt lat="49.90224" lon="2.28443">
        <ele>22.5</ele>
        <time>2023-01-20T14:57:42Z</time>
      </trkpt>
      <trkpt lat="49.90224" lon="2.28441">
        <ele>22.5</ele>
        <time>2023-01-20T14:57:43Z</time>
      </trkpt>
      <trkpt lat="49.90223" lon="2.28441">
        <ele>22.5</ele>
        <time>2023-01-20T14:57:44Z</time>
      </trkpt>
      <trkpt lat="49.90222" lon="2.28441">
        <ele>22.5</ele>
        <time>2023-01-20T14:57:45Z</time>
      </trkpt>
      <trkpt lat="49.90221" lon="2.28441">
        <ele>22.5</ele>
        <time>2023-01-20T14:57:46Z</time>
      </trkpt>
      <trkpt lat="49.9022" lon="2.2844">
        <ele>22.5</ele>
        <time>2023-01-20T14:57:47Z</time>
      </trkpt>
      <trkpt lat="49.90219" lon="2.28438">
        <ele>22.5</ele>
        <time>2023-01-20T14:57:48Z</time>
      </trkpt>
      <trkpt lat="49.90218" lon="2.28438">
        <ele>22.5</ele>
        <time>2023-01-20T14:57:49Z</time>
      </trkpt>
      <trkpt lat="49.90217" lon="2.28437">
        <ele>22.5</ele>
        <time>2023-01-20T14:57:51Z</time>
      </trkpt>
      <trkpt lat="49.90216" lon="2.28436">
        <ele>22.5</ele>
        <time>2023-01-20T14:57:52Z</time>
      </trkpt>
      <trkpt lat="49.90215" lon="2.28435">
        <ele>22.5</ele>
        <time>2023-01-20T14:57:53Z</time>
      </trkpt>
      <trkpt lat="49.90214" lon="2.28434">
        <ele>22.5</ele>
        <time>2023-01-20T14:57:54Z</time>
      </trkpt>
      <trkpt lat="49.90214" lon="2.28433">
        <ele>22.5</ele>
        <time>2023-01-20T14:57:55Z</time>
      </trkpt>
      <trkpt lat="49.90213" lon="2.28431">
        <ele>22.5</ele>
        <time>2023-01-20T14:57:56Z</time>
      </trkpt>
      <trkpt lat="49.90212" lon="2.28428">
        <ele>22.5</ele>
        <time>2023-01-20T14:57:57Z</time>
      </trkpt>
      <trkpt lat="49.90212" lon="2.28427">
        <ele>22.5</ele>
        <time>2023-01-20T14:57:58Z</time>
      </trkpt>
      <trkpt lat="49.90211" lon="2.28426">
        <ele>22.5</ele>
        <time>2023-01-20T14:57:59Z</time>
      </trkpt>
      <trkpt lat="49.9021" lon="2.28423">
        <ele>22.4</ele>
        <time>2023-01-20T14:58:00Z</time>
      </trkpt>
      <trkpt lat="49.9021" lon="2.28421">
        <ele>22.4</ele>
        <time>2023-01-20T14:58:02Z</time>
      </trkpt>
      <trkpt lat="49.90209" lon="2.2842">
        <ele>22.4</ele>
        <time>2023-01-20T14:58:03Z</time>
      </trkpt>
      <trkpt lat="49.90208" lon="2.28419">
        <ele>22.4</ele>
        <time>2023-01-20T14:58:04Z</time>
      </trkpt>
      <trkpt lat="49.90208" lon="2.28418">
        <ele>22.4</ele>
        <time>2023-01-20T14:58:05Z</time>
      </trkpt>
      <trkpt lat="49.90207" lon="2.28416">
        <ele>22.4</ele>
        <time>2023-01-20T14:58:06Z</time>
      </trkpt>
      <trkpt lat="49.90207" lon="2.28414">
        <ele>22.4</ele>
        <time>2023-01-20T14:58:07Z</time>
      </trkpt>
      <trkpt lat="49.90206" lon="2.28413">
        <ele>22.4</ele>
        <time>2023-01-20T14:58:09Z</time>
      </trkpt>
      <trkpt lat="49.90205" lon="2.28411">
        <ele>22.4</ele>
        <time>2023-01-20T14:58:10Z</time>
      </trkpt>
      <trkpt lat="49.90204" lon="2.2841">
        <ele>22.4</ele>
        <time>2023-01-20T14:58:11Z</time>
      </trkpt>
      <trkpt lat="49.90204" lon="2.28408">
        <ele>22.4</ele>
        <time>2023-01-20T14:58:12Z</time>
      </trkpt>
      <trkpt lat="49.90203" lon="2.28407">
        <ele>22.4</ele>
        <time>2023-01-20T14:58:13Z</time>
      </trkpt>
      <trkpt lat="49.90202" lon="2.28406">
        <ele>22.4</ele>
        <time>2023-01-20T14:58:14Z</time>
      </trkpt>
      <trkpt lat="49.902" lon="2.28405">
        <ele>22.4</ele>
        <time>2023-01-20T14:58:16Z</time>
      </trkpt>
      <trkpt lat="49.902" lon="2.28404">
        <ele>22.4</ele>
        <time>2023-01-20T14:58:17Z</time>
      </trkpt>
      <trkpt lat="49.90199" lon="2.28404">
        <ele>22.4</ele>
        <time>2023-01-20T14:58:18Z</time>
      </trkpt>
      <trkpt lat="49.90197" lon="2.28403">
        <ele>22.4</ele>
        <time>2023-01-20T14:58:19Z</time>
      </trkpt>
      <trkpt lat="49.90195" lon="2.28402">
        <ele>22.4</ele>
        <time>2023-01-20T14:58:20Z</time>
      </trkpt>
      <trkpt lat="49.90194" lon="2.28402">
        <ele>22.4</ele>
        <time>2023-01-20T14:58:21Z</time>
      </trkpt>
      <trkpt lat="49.90194" lon="2.28401">
        <ele>22.4</ele>
        <time>2023-01-20T14:58:22Z</time>
      </trkpt>
      <trkpt lat="49.90192" lon="2.28401">
        <ele>22.4</ele>
        <time>2023-01-20T14:58:23Z</time>
      </trkpt>
      <trkpt lat="49.90191" lon="2.28401">
        <ele>22.4</ele>
        <time>2023-01-20T14:58:24Z</time>
      </trkpt>
      <trkpt lat="49.9019" lon="2.284">
        <ele>22.4</ele>
        <time>2023-01-20T14:58:25Z</time>
      </trkpt>
      <trkpt lat="49.90188" lon="2.284">
        <ele>22.4</ele>
        <time>2023-01-20T14:58:26Z</time>
      </trkpt>
      <trkpt lat="49.90187" lon="2.284">
        <ele>22.4</ele>
        <time>2023-01-20T14:58:28Z</time>
      </trkpt>
      <trkpt lat="49.90185" lon="2.28399">
        <ele>22.3</ele>
        <time>2023-01-20T14:58:29Z</time>
      </trkpt>
      <trkpt lat="49.90184" lon="2.28399">
        <ele>22.3</ele>
        <time>2023-01-20T14:58:30Z</time>
      </trkpt>
      <trkpt lat="49.90183" lon="2.28398">
        <ele>22.3</ele>
        <time>2023-01-20T14:58:31Z</time>
      </trkpt>
      <trkpt lat="49.90181" lon="2.28397">
        <ele>22.3</ele>
        <time>2023-01-20T14:58:32Z</time>
      </trkpt>
      <trkpt lat="49.90181" lon="2.28397">
        <ele>22.3</ele>
        <time>2023-01-20T14:58:33Z</time>
      </trkpt>
      <trkpt lat="49.9018" lon="2.28396">
        <ele>22.3</ele>
        <time>2023-01-20T14:58:34Z</time>
      </trkpt>
      <trkpt lat="49.90179" lon="2.28396">
        <ele>22.3</ele>
        <time>2023-01-20T14:58:36Z</time>
      </trkpt>
      <trkpt lat="49.90177" lon="2.28396">
        <ele>22.3</ele>
        <time>2023-01-20T14:58:37Z</time>
      </trkpt>
      <trkpt lat="49.90176" lon="2.28397">
        <ele>22.3</ele>
        <time>2023-01-20T14:58:38Z</time>
      </trkpt>
      <trkpt lat="49.90175" lon="2.28397">
        <ele>22.3</ele>
        <time>2023-01-20T14:58:39Z</time>
      </trkpt>
      <trkpt lat="49.90174" lon="2.28397">
        <ele>22.3</ele>
        <time>2023-01-20T14:58:40Z</time>
      </trkpt>
      <trkpt lat="49.90173" lon="2.28396">
        <ele>22.3</ele>
        <time>2023-01-20T14:58:42Z</time>
      </trkpt>
      <trkpt lat="49.90172" lon="2.28396">
        <ele>22.3</ele>
        <time>2023-01-20T14:58:43Z</time>
      </trkpt>
      <trkpt lat="49.9017" lon="2.28396">
        <ele>22.3</ele>
        <time>2023-01-20T14:58:45Z</time>
      </trkpt>
      <trkpt lat="49.9017" lon="2.28397">
        <ele>22.3</ele>
        <time>2023-01-20T14:58:46Z</time>
      </trkpt>
      <trkpt lat="49.9017" lon="2.28397">
        <ele>22.3</ele>
        <time>2023-01-20T14:58:47Z</time>
      </trkpt>
      <trkpt lat="49.9017" lon="2.28397">
        <ele>22.3</ele>
        <time>2023-01-20T14:58:49Z</time>
      </trkpt>
      <trkpt lat="49.9017" lon="2.28397">
        <ele>22.3</ele>
        <time>2023-01-20T14:58:50Z</time>
      </trkpt>
      <trkpt lat="49.9017" lon="2.28397">
        <ele>22.3</ele>
        <time>2023-01-20T14:58:51Z</time>
      </trkpt>
      <trkpt lat="49.9017" lon="2.28397">
        <ele>22.3</ele>
        <time>2023-01-20T14:58:53Z</time>
      </trkpt>
      <trkpt lat="49.9017" lon="2.28397">
        <ele>22.3</ele>
        <time>2023-01-20T14:58:54Z</time>
      </trkpt>
      <trkpt lat="49.90171" lon="2.28397">
        <ele>22.3</ele>
        <time>2023-01-20T14:58:55Z</time>
      </trkpt>
      <trkpt lat="49.90171" lon="2.28397">
        <ele>22.3</ele>
        <time>2023-01-20T14:58:57Z</time>
      </trkpt>
      <trkpt lat="49.90171" lon="2.28397">
        <ele>22.3</ele>
        <time>2023-01-20T14:58:58Z</time>
      </trkpt>
      <trkpt lat="49.90171" lon="2.28397">
        <ele>22.3</ele>
        <time>2023-01-20T14:59:00Z</time>
      </trkpt>
      <trkpt lat="49.90171" lon="2.28397">
        <ele>22.3</ele>
        <time>2023-01-20T14:59:01Z</time>
      </trkpt>
      <trkpt lat="49.90171" lon="2.28398">
        <ele>22.3</ele>
        <time>2023-01-20T14:59:02Z</time>
      </trkpt>
      <trkpt lat="49.90172" lon="2.28398">
        <ele>22.3</ele>
        <time>2023-01-20T14:59:03Z</time>
      </trkpt>
      <trkpt lat="49.90172" lon="2.28398">
        <ele>22.3</ele>
        <time>2023-01-20T14:59:04Z</time>
      </trkpt>
      <trkpt lat="49.90172" lon="2.28398">
        <ele>22.3</ele>
        <time>2023-01-20T14:59:05Z</time>
      </trkpt>
      <trkpt lat="49.90172" lon="2.28398">
        <ele>22.3</ele>
        <time>2023-01-20T14:59:06Z</time>
      </trkpt>
      <trkpt lat="49.90172" lon="2.28398">
        <ele>22.3</ele>
        <time>2023-01-20T14:59:07Z</time>
      </trkpt>
      <trkpt lat="49.90172" lon="2.28398">
        <ele>22.3</ele>
        <time>2023-01-20T14:59:08Z</time>
      </trkpt>
      <trkpt lat="49.90173" lon="2.28398">
        <ele>22.3</ele>
        <time>2023-01-20T14:59:09Z</time>
      </trkpt>
      <trkpt lat="49.90173" lon="2.28398">
        <ele>22.3</ele>
        <time>2023-01-20T14:59:10Z</time>
      </trkpt>
      <trkpt lat="49.90173" lon="2.28398">
        <ele>22.3</ele>
        <time>2023-01-20T14:59:11Z</time>
      </trkpt>
      <trkpt lat="49.90173" lon="2.28398">
        <ele>22.3</ele>
        <time>2023-01-20T14:59:12Z</time>
      </trkpt>
      <trkpt lat="49.90173" lon="2.28398">
        <ele>22.3</ele>
        <time>2023-01-20T14:59:13Z</time>
      </trkpt>
      <trkpt lat="49.90173" lon="2.28398">
        <ele>22.3</ele>
        <time>2023-01-20T14:59:14Z</time>
      </trkpt>
      <trkpt lat="49.90173" lon="2.28398">
        <ele>22.3</ele>
        <time>2023-01-20T14:59:15Z</time>
      </trkpt>
      <trkpt lat="49.90174" lon="2.28398">
        <ele>22.3</ele>
        <time>2023-01-20T14:59:16Z</time>
      </trkpt>
      <trkpt lat="49.90174" lon="2.28398">
        <ele>22.3</ele>
        <time>2023-01-20T14:59:17Z</time>
      </trkpt>
      <trkpt lat="49.90174" lon="2.28398">
        <ele>22.3</ele>
        <time>2023-01-20T14:59:18Z</time>
      </trkpt>
      <trkpt lat="49.90174" lon="2.28398">
        <ele>22.3</ele>
        <time>2023-01-20T14:59:19Z</time>
      </trkpt>
      <trkpt lat="49.90174" lon="2.28398">
        <ele>22.3</ele>
        <time>2023-01-20T14:59:20Z</time>
      </trkpt>
      <trkpt lat="49.90174" lon="2.28397">
        <ele>22.3</ele>
        <time>2023-01-20T14:59:21Z</time>
      </trkpt>
      <trkpt lat="49.90174" lon="2.28396">
        <ele>22.3</ele>
        <time>2023-01-20T14:59:22Z</time>
      </trkpt>
      <trkpt lat="49.90173" lon="2.28394">
        <ele>22.3</ele>
        <time>2023-01-20T14:59:23Z</time>
      </trkpt>
      <trkpt lat="49.90171" lon="2.28393">
        <ele>22.3</ele>
        <time>2023-01-20T14:59:24Z</time>
      </trkpt>
      <trkpt lat="49.90169" lon="2.28393">
        <ele>22.3</ele>
        <time>2023-01-20T14:59:26Z</time>
      </trkpt>
      <trkpt lat="49.90168" lon="2.28392">
        <ele>22.3</ele>
        <time>2023-01-20T14:59:27Z</time>
      </trkpt>
      <trkpt lat="49.90167" lon="2.28391">
        <ele>22.3</ele>
        <time>2023-01-20T14:59:28Z</time>
      </trkpt>
      <trkpt lat="49.90166" lon="2.28391">
        <ele>22.3</ele>
        <time>2023-01-20T14:59:29Z</time>
      </trkpt>
      <trkpt lat="49.90165" lon="2.2839">
        <ele>22.3</ele>
        <time>2023-01-20T14:59:30Z</time>
      </trkpt>
      <trkpt lat="49.90164" lon="2.28389">
        <ele>22.3</ele>
        <time>2023-01-20T14:59:31Z</time>
      </trkpt>
      <trkpt lat="49.90163" lon="2.28388">
        <ele>22.3</ele>
        <time>2023-01-20T14:59:32Z</time>
      </trkpt>
      <trkpt lat="49.90161" lon="2.28387">
        <ele>22.3</ele>
        <time>2023-01-20T14:59:33Z</time>
      </trkpt>
      <trkpt lat="49.9016" lon="2.28386">
        <ele>22.4</ele>
        <time>2023-01-20T14:59:35Z</time>
      </trkpt>
      <trkpt lat="49.90159" lon="2.28384">
        <ele>22.4</ele>
        <time>2023-01-20T14:59:36Z</time>
      </trkpt>
      <trkpt lat="49.90158" lon="2.28383">
        <ele>22.4</ele>
        <time>2023-01-20T14:59:37Z</time>
      </trkpt>
      <trkpt lat="49.90158" lon="2.28383">
        <ele>22.4</ele>
        <time>2023-01-20T14:59:38Z</time>
      </trkpt>
      <trkpt lat="49.90157" lon="2.28383">
        <ele>22.4</ele>
        <time>2023-01-20T14:59:40Z</time>
      </trkpt>
      <trkpt lat="49.90157" lon="2.28382">
        <ele>22.4</ele>
        <time>2023-01-20T14:59:41Z</time>
      </trkpt>
      <trkpt lat="49.90156" lon="2.28382">
        <ele>22.4</ele>
        <time>2023-01-20T14:59:42Z</time>
      </trkpt>
      <trkpt lat="49.90154" lon="2.28382">
        <ele>22.4</ele>
        <time>2023-01-20T14:59:43Z</time>
      </trkpt>
      <trkpt lat="49.90153" lon="2.28384">
        <ele>22.4</ele>
        <time>2023-01-20T14:59:44Z</time>
      </trkpt>
      <trkpt lat="49.90152" lon="2.28386">
        <ele>22.4</ele>
        <time>2023-01-20T14:59:45Z</time>
      </trkpt>
      <trkpt lat="49.9015" lon="2.28388">
        <ele>22.4</ele>
        <time>2023-01-20T14:59:47Z</time>
      </trkpt>
      <trkpt lat="49.9015" lon="2.2839">
        <ele>22.4</ele>
        <time>2023-01-20T14:59:48Z</time>
      </trkpt>
      <trkpt lat="49.90149" lon="2.28392">
        <ele>22.4</ele>
        <time>2023-01-20T14:59:49Z</time>
      </trkpt>
      <trkpt lat="49.90148" lon="2.28394">
        <ele>22.4</ele>
        <time>2023-01-20T14:59:50Z</time>
      </trkpt>
      <trkpt lat="49.90148" lon="2.28398">
        <ele>22.4</ele>
        <time>2023-01-20T14:59:52Z</time>
      </trkpt>
      <trkpt lat="49.90147" lon="2.28399">
        <ele>22.4</ele>
        <time>2023-01-20T14:59:53Z</time>
      </trkpt>
      <trkpt lat="49.90146" lon="2.284">
        <ele>22.4</ele>
        <time>2023-01-20T14:59:54Z</time>
      </trkpt>
      <trkpt lat="49.90146" lon="2.28401">
        <ele>22.4</ele>
        <time>2023-01-20T14:59:55Z</time>
      </trkpt>
      <trkpt lat="49.90144" lon="2.28403">
        <ele>22.4</ele>
        <time>2023-01-20T14:59:56Z</time>
      </trkpt>
      <trkpt lat="49.90143" lon="2.28404">
        <ele>22.4</ele>
        <time>2023-01-20T14:59:57Z</time>
      </trkpt>
      <trkpt lat="49.90142" lon="2.28404">
        <ele>22.4</ele>
        <time>2023-01-20T14:59:58Z</time>
      </trkpt>
      <trkpt lat="49.90141" lon="2.28405">
        <ele>22.4</ele>
        <time>2023-01-20T14:59:59Z</time>
      </trkpt>
      <trkpt lat="49.9014" lon="2.28405">
        <ele>22.4</ele>
        <time>2023-01-20T15:00:01Z</time>
      </trkpt>
      <trkpt lat="49.90139" lon="2.28405">
        <ele>22.4</ele>
        <time>2023-01-20T15:00:02Z</time>
      </trkpt>
      <trkpt lat="49.90137" lon="2.28404">
        <ele>22.4</ele>
        <time>2023-01-20T15:00:03Z</time>
      </trkpt>
      <trkpt lat="49.90136" lon="2.28404">
        <ele>22.4</ele>
        <time>2023-01-20T15:00:04Z</time>
      </trkpt>
      <trkpt lat="49.90136" lon="2.28404">
        <ele>22.4</ele>
        <time>2023-01-20T15:00:05Z</time>
      </trkpt>
      <trkpt lat="49.90134" lon="2.28401">
        <ele>22.4</ele>
        <time>2023-01-20T15:00:06Z</time>
      </trkpt>
      <trkpt lat="49.90133" lon="2.284">
        <ele>22.4</ele>
        <time>2023-01-20T15:00:07Z</time>
      </trkpt>
      <trkpt lat="49.90132" lon="2.28399">
        <ele>22.4</ele>
        <time>2023-01-20T15:00:08Z</time>
      </trkpt>
      <trkpt lat="49.90131" lon="2.28397">
        <ele>22.4</ele>
        <time>2023-01-20T15:00:09Z</time>
      </trkpt>
      <trkpt lat="49.90128" lon="2.28394">
        <ele>22.4</ele>
        <time>2023-01-20T15:00:11Z</time>
      </trkpt>
      <trkpt lat="49.90127" lon="2.28394">
        <ele>22.4</ele>
        <time>2023-01-20T15:00:12Z</time>
      </trkpt>
      <trkpt lat="49.90127" lon="2.28393">
        <ele>22.4</ele>
        <time>2023-01-20T15:00:13Z</time>
      </trkpt>
      <trkpt lat="49.90126" lon="2.28393">
        <ele>22.4</ele>
        <time>2023-01-20T15:00:14Z</time>
      </trkpt>
      <trkpt lat="49.90125" lon="2.28392">
        <ele>22.5</ele>
        <time>2023-01-20T15:00:15Z</time>
      </trkpt>
      <trkpt lat="49.90122" lon="2.28395">
        <ele>22.5</ele>
        <time>2023-01-20T15:00:16Z</time>
      </trkpt>
      <trkpt lat="49.9012" lon="2.28394">
        <ele>22.5</ele>
        <time>2023-01-20T15:00:18Z</time>
      </trkpt>
      <trkpt lat="49.90119" lon="2.28394">
        <ele>22.5</ele>
        <time>2023-01-20T15:00:19Z</time>
      </trkpt>
      <trkpt lat="49.90118" lon="2.28394">
        <ele>22.5</ele>
        <time>2023-01-20T15:00:20Z</time>
      </trkpt>
      <trkpt lat="49.90116" lon="2.28394">
        <ele>22.5</ele>
        <time>2023-01-20T15:00:21Z</time>
      </trkpt>
      <trkpt lat="49.90115" lon="2.28394">
        <ele>22.5</ele>
        <time>2023-01-20T15:00:22Z</time>
      </trkpt>
      <trkpt lat="49.90114" lon="2.28393">
        <ele>22.5</ele>
        <time>2023-01-20T15:00:23Z</time>
      </trkpt>
      <trkpt lat="49.90112" lon="2.28393">
        <ele>22.5</ele>
        <time>2023-01-20T15:00:24Z</time>
      </trkpt>
      <trkpt lat="49.9011" lon="2.28393">
        <ele>22.5</ele>
        <time>2023-01-20T15:00:26Z</time>
      </trkpt>
      <trkpt lat="49.90111" lon="2.28396">
        <ele>22.6</ele>
        <time>2023-01-20T15:00:27Z</time>
      </trkpt>
      <trkpt lat="49.9011" lon="2.28397">
        <ele>22.6</ele>
        <time>2023-01-20T15:00:28Z</time>
      </trkpt>
      <trkpt lat="49.90109" lon="2.28396">
        <ele>22.6</ele>
        <time>2023-01-20T15:00:29Z</time>
      </trkpt>
      <trkpt lat="49.90108" lon="2.28397">
        <ele>22.6</ele>
        <time>2023-01-20T15:00:30Z</time>
      </trkpt>
      <trkpt lat="49.90106" lon="2.28396">
        <ele>22.6</ele>
        <time>2023-01-20T15:00:31Z</time>
      </trkpt>
      <trkpt lat="49.90105" lon="2.28396">
        <ele>22.6</ele>
        <time>2023-01-20T15:00:32Z</time>
      </trkpt>
      <trkpt lat="49.90103" lon="2.28395">
        <ele>22.6</ele>
        <time>2023-01-20T15:00:33Z</time>
      </trkpt>
      <trkpt lat="49.90102" lon="2.28395">
        <ele>22.6</ele>
        <time>2023-01-20T15:00:34Z</time>
      </trkpt>
      <trkpt lat="49.90101" lon="2.28394">
        <ele>22.6</ele>
        <time>2023-01-20T15:00:35Z</time>
      </trkpt>
      <trkpt lat="49.901" lon="2.28393">
        <ele>22.6</ele>
        <time>2023-01-20T15:00:36Z</time>
      </trkpt>
      <trkpt lat="49.90099" lon="2.28392">
        <ele>22.6</ele>
        <time>2023-01-20T15:00:38Z</time>
      </trkpt>
      <trkpt lat="49.90097" lon="2.28391">
        <ele>22.7</ele>
        <time>2023-01-20T15:00:39Z</time>
      </trkpt>
      <trkpt lat="49.90096" lon="2.2839">
        <ele>22.7</ele>
        <time>2023-01-20T15:00:40Z</time>
      </trkpt>
      <trkpt lat="49.90095" lon="2.28389">
        <ele>22.7</ele>
        <time>2023-01-20T15:00:41Z</time>
      </trkpt>
      <trkpt lat="49.90093" lon="2.28388">
        <ele>22.7</ele>
        <time>2023-01-20T15:00:42Z</time>
      </trkpt>
      <trkpt lat="49.90091" lon="2.28387">
        <ele>22.7</ele>
        <time>2023-01-20T15:00:43Z</time>
      </trkpt>
      <trkpt lat="49.9009" lon="2.28386">
        <ele>22.7</ele>
        <time>2023-01-20T15:00:45Z</time>
      </trkpt>
      <trkpt lat="49.90089" lon="2.28385">
        <ele>22.7</ele>
        <time>2023-01-20T15:00:46Z</time>
      </trkpt>
      <trkpt lat="49.90087" lon="2.28384">
        <ele>22.7</ele>
        <time>2023-01-20T15:00:47Z</time>
      </trkpt>
      <trkpt lat="49.90086" lon="2.28382">
        <ele>22.7</ele>
        <time>2023-01-20T15:00:48Z</time>
      </trkpt>
      <trkpt lat="49.90085" lon="2.28382">
        <ele>22.7</ele>
        <time>2023-01-20T15:00:49Z</time>
      </trkpt>
      <trkpt lat="49.90083" lon="2.2838">
        <ele>22.7</ele>
        <time>2023-01-20T15:00:50Z</time>
      </trkpt>
      <trkpt lat="49.90081" lon="2.28379">
        <ele>22.7</ele>
        <time>2023-01-20T15:00:51Z</time>
      </trkpt>
      <trkpt lat="49.9008" lon="2.28379">
        <ele>22.7</ele>
        <time>2023-01-20T15:00:52Z</time>
      </trkpt>
      <trkpt lat="49.90079" lon="2.28379">
        <ele>22.7</ele>
        <time>2023-01-20T15:00:54Z</time>
      </trkpt>
      <trkpt lat="49.90078" lon="2.28378">
        <ele>22.7</ele>
        <time>2023-01-20T15:00:55Z</time>
      </trkpt>
      <trkpt lat="49.90077" lon="2.28378">
        <ele>22.7</ele>
        <time>2023-01-20T15:00:56Z</time>
      </trkpt>
      <trkpt lat="49.90074" lon="2.28378">
        <ele>22.8</ele>
        <time>2023-01-20T15:00:57Z</time>
      </trkpt>
      <trkpt lat="49.90073" lon="2.28378">
        <ele>22.8</ele>
        <time>2023-01-20T15:00:58Z</time>
      </trkpt>
      <trkpt lat="49.90071" lon="2.28378">
        <ele>22.8</ele>
        <time>2023-01-20T15:00:59Z</time>
      </trkpt>
      <trkpt lat="49.9007" lon="2.28378">
        <ele>22.8</ele>
        <time>2023-01-20T15:01:00Z</time>
      </trkpt>
      <trkpt lat="49.90069" lon="2.28378">
        <ele>22.8</ele>
        <time>2023-01-20T15:01:01Z</time>
      </trkpt>
      <trkpt lat="49.90066" lon="2.28382">
        <ele>22.7</ele>
        <time>2023-01-20T15:01:02Z</time>
      </trkpt>
      <trkpt lat="49.90064" lon="2.28382">
        <ele>22.7</ele>
        <time>2023-01-20T15:01:03Z</time>
      </trkpt>
      <trkpt lat="49.90063" lon="2.28382">
        <ele>22.7</ele>
        <time>2023-01-20T15:01:04Z</time>
      </trkpt>
      <trkpt lat="49.90062" lon="2.28382">
        <ele>22.7</ele>
        <time>2023-01-20T15:01:06Z</time>
      </trkpt>
      <trkpt lat="49.90061" lon="2.28383">
        <ele>22.7</ele>
        <time>2023-01-20T15:01:07Z</time>
      </trkpt>
      <trkpt lat="49.90059" lon="2.28383">
        <ele>22.7</ele>
        <time>2023-01-20T15:01:08Z</time>
      </trkpt>
      <trkpt lat="49.90058" lon="2.28382">
        <ele>22.7</ele>
        <time>2023-01-20T15:01:09Z</time>
      </trkpt>
      <trkpt lat="49.90058" lon="2.28381">
        <ele>22.7</ele>
        <time>2023-01-20T15:01:10Z</time>
      </trkpt>
      <trkpt lat="49.90057" lon="2.2838">
        <ele>22.7</ele>
        <time>2023-01-20T15:01:11Z</time>
      </trkpt>
      <trkpt lat="49.90056" lon="2.28379">
        <ele>22.7</ele>
        <time>2023-01-20T15:01:12Z</time>
      </trkpt>
      <trkpt lat="49.90054" lon="2.28384">
        <ele>22.7</ele>
        <time>2023-01-20T15:01:13Z</time>
      </trkpt>
      <trkpt lat="49.90052" lon="2.28383">
        <ele>22.7</ele>
        <time>2023-01-20T15:01:14Z</time>
      </trkpt>
      <trkpt lat="49.90051" lon="2.28383">
        <ele>22.7</ele>
        <time>2023-01-20T15:01:16Z</time>
      </trkpt>
      <trkpt lat="49.9005" lon="2.28382">
        <ele>22.7</ele>
        <time>2023-01-20T15:01:17Z</time>
      </trkpt>
      <trkpt lat="49.90048" lon="2.28378">
        <ele>22.7</ele>
        <time>2023-01-20T15:01:18Z</time>
      </trkpt>
      <trkpt lat="49.90049" lon="2.28377">
        <ele>22.7</ele>
        <time>2023-01-20T15:01:19Z</time>
      </trkpt>
      <trkpt lat="49.90049" lon="2.28375">
        <ele>22.7</ele>
        <time>2023-01-20T15:01:20Z</time>
      </trkpt>
      <trkpt lat="49.90048" lon="2.28374">
        <ele>22.7</ele>
        <time>2023-01-20T15:01:21Z</time>
      </trkpt>
      <trkpt lat="49.90048" lon="2.28374">
        <ele>22.7</ele>
        <time>2023-01-20T15:01:22Z</time>
      </trkpt>
      <trkpt lat="49.90047" lon="2.28372">
        <ele>22.7</ele>
        <time>2023-01-20T15:01:23Z</time>
      </trkpt>
      <trkpt lat="49.90046" lon="2.28372">
        <ele>22.7</ele>
        <time>2023-01-20T15:01:24Z</time>
      </trkpt>
      <trkpt lat="49.90045" lon="2.28371">
        <ele>22.7</ele>
        <time>2023-01-20T15:01:25Z</time>
      </trkpt>
      <trkpt lat="49.90045" lon="2.28371">
        <ele>22.7</ele>
        <time>2023-01-20T15:01:26Z</time>
      </trkpt>
      <trkpt lat="49.90042" lon="2.28371">
        <ele>22.7</ele>
        <time>2023-01-20T15:01:28Z</time>
      </trkpt>
      <trkpt lat="49.90041" lon="2.28371">
        <ele>22.7</ele>
        <time>2023-01-20T15:01:29Z</time>
      </trkpt>
      <trkpt lat="49.9004" lon="2.28371">
        <ele>22.7</ele>
        <time>2023-01-20T15:01:30Z</time>
      </trkpt>
      <trkpt lat="49.90039" lon="2.2837">
        <ele>22.7</ele>
        <time>2023-01-20T15:01:31Z</time>
      </trkpt>
      <trkpt lat="49.90036" lon="2.2837">
        <ele>22.7</ele>
        <time>2023-01-20T15:01:32Z</time>
      </trkpt>
      <trkpt lat="49.90034" lon="2.28371">
        <ele>22.7</ele>
        <time>2023-01-20T15:01:33Z</time>
      </trkpt>
      <trkpt lat="49.90033" lon="2.28371">
        <ele>22.7</ele>
        <time>2023-01-20T15:01:34Z</time>
      </trkpt>
      <trkpt lat="49.90031" lon="2.2837">
        <ele>22.7</ele>
        <time>2023-01-20T15:01:36Z</time>
      </trkpt>
      <trkpt lat="49.9003" lon="2.28369">
        <ele>22.7</ele>
        <time>2023-01-20T15:01:37Z</time>
      </trkpt>
      <trkpt lat="49.90029" lon="2.28367">
        <ele>22.7</ele>
        <time>2023-01-20T15:01:38Z</time>
      </trkpt>
      <trkpt lat="49.90028" lon="2.28366">
        <ele>22.7</ele>
        <time>2023-01-20T15:01:39Z</time>
      </trkpt>
      <trkpt lat="49.90027" lon="2.28366">
        <ele>22.7</ele>
        <time>2023-01-20T15:01:40Z</time>
      </trkpt>
      <trkpt lat="49.90027" lon="2.28365">
        <ele>22.7</ele>
        <time>2023-01-20T15:01:41Z</time>
      </trkpt>
      <trkpt lat="49.90025" lon="2.28364">
        <ele>22.7</ele>
        <time>2023-01-20T15:01:43Z</time>
      </trkpt>
      <trkpt lat="49.90024" lon="2.28363">
        <ele>22.7</ele>
        <time>2023-01-20T15:01:44Z</time>
      </trkpt>
      <trkpt lat="49.90023" lon="2.28362">
        <ele>22.7</ele>
        <time>2023-01-20T15:01:45Z</time>
      </trkpt>
      <trkpt lat="49.90022" lon="2.28361">
        <ele>22.7</ele>
        <time>2023-01-20T15:01:46Z</time>
      </trkpt>
      <trkpt lat="49.90021" lon="2.2836">
        <ele>22.7</ele>
        <time>2023-01-20T15:01:47Z</time>
      </trkpt>
      <trkpt lat="49.90019" lon="2.2836">
        <ele>22.7</ele>
        <time>2023-01-20T15:01:48Z</time>
      </trkpt>
      <trkpt lat="49.90017" lon="2.28358">
        <ele>22.7</ele>
        <time>2023-01-20T15:01:49Z</time>
      </trkpt>
      <trkpt lat="49.90016" lon="2.28358">
        <ele>22.7</ele>
        <time>2023-01-20T15:01:50Z</time>
      </trkpt>
      <trkpt lat="49.90015" lon="2.28357">
        <ele>22.7</ele>
        <time>2023-01-20T15:01:51Z</time>
      </trkpt>
      <trkpt lat="49.90013" lon="2.2836">
        <ele>22.6</ele>
        <time>2023-01-20T15:01:53Z</time>
      </trkpt>
      <trkpt lat="49.90012" lon="2.2836">
        <ele>22.6</ele>
        <time>2023-01-20T15:01:54Z</time>
      </trkpt>
      <trkpt lat="49.90011" lon="2.2836">
        <ele>22.6</ele>
        <time>2023-01-20T15:01:55Z</time>
      </trkpt>
      <trkpt lat="49.9001" lon="2.28359">
        <ele>22.6</ele>
        <time>2023-01-20T15:01:56Z</time>
      </trkpt>
      <trkpt lat="49.90009" lon="2.28358">
        <ele>22.6</ele>
        <time>2023-01-20T15:01:57Z</time>
      </trkpt>
      <trkpt lat="49.90007" lon="2.28357">
        <ele>22.6</ele>
        <time>2023-01-20T15:01:58Z</time>
      </trkpt>
      <trkpt lat="49.90007" lon="2.28357">
        <ele>22.6</ele>
        <time>2023-01-20T15:01:59Z</time>
      </trkpt>
      <trkpt lat="49.90006" lon="2.28357">
        <ele>22.6</ele>
        <time>2023-01-20T15:02:00Z</time>
      </trkpt>
      <trkpt lat="49.90005" lon="2.28357">
        <ele>22.6</ele>
        <time>2023-01-20T15:02:02Z</time>
      </trkpt>
      <trkpt lat="49.90004" lon="2.28357">
        <ele>22.6</ele>
        <time>2023-01-20T15:02:03Z</time>
      </trkpt>
      <trkpt lat="49.90002" lon="2.28356">
        <ele>22.6</ele>
        <time>2023-01-20T15:02:04Z</time>
      </trkpt>
      <trkpt lat="49.90001" lon="2.28355">
        <ele>22.6</ele>
        <time>2023-01-20T15:02:05Z</time>
      </trkpt>
      <trkpt lat="49.9" lon="2.28355">
        <ele>22.7</ele>
        <time>2023-01-20T15:02:06Z</time>
      </trkpt>
      <trkpt lat="49.89999" lon="2.28354">
        <ele>22.7</ele>
        <time>2023-01-20T15:02:07Z</time>
      </trkpt>
      <trkpt lat="49.89997" lon="2.28354">
        <ele>22.7</ele>
        <time>2023-01-20T15:02:08Z</time>
      </trkpt>
      <trkpt lat="49.89997" lon="2.28354">
        <ele>22.7</ele>
        <time>2023-01-20T15:02:09Z</time>
      </trkpt>
      <trkpt lat="49.89996" lon="2.28355">
        <ele>22.7</ele>
        <time>2023-01-20T15:02:11Z</time>
      </trkpt>
      <trkpt lat="49.89995" lon="2.28355">
        <ele>22.7</ele>
        <time>2023-01-20T15:02:12Z</time>
      </trkpt>
      <trkpt lat="49.89993" lon="2.28354">
        <ele>22.7</ele>
        <time>2023-01-20T15:02:13Z</time>
      </trkpt>
      <trkpt lat="49.89992" lon="2.28354">
        <ele>22.7</ele>
        <time>2023-01-20T15:02:14Z</time>
      </trkpt>
      <trkpt lat="49.89992" lon="2.28354">
        <ele>22.7</ele>
        <time>2023-01-20T15:02:15Z</time>
      </trkpt>
      <trkpt lat="49.8999" lon="2.28353">
        <ele>22.7</ele>
        <time>2023-01-20T15:02:16Z</time>
      </trkpt>
      <trkpt lat="49.89989" lon="2.28352">
        <ele>22.7</ele>
        <time>2023-01-20T15:02:17Z</time>
      </trkpt>
      <trkpt lat="49.89988" lon="2.28351">
        <ele>22.7</ele>
        <time>2023-01-20T15:02:18Z</time>
      </trkpt>
      <trkpt lat="49.89988" lon="2.2835">
        <ele>22.7</ele>
        <time>2023-01-20T15:02:20Z</time>
      </trkpt>
      <trkpt lat="49.89987" lon="2.28349">
        <ele>22.7</ele>
        <time>2023-01-20T15:02:21Z</time>
      </trkpt>
      <trkpt lat="49.89987" lon="2.28347">
        <ele>22.7</ele>
        <time>2023-01-20T15:02:22Z</time>
      </trkpt>
      <trkpt lat="49.89986" lon="2.28344">
        <ele>22.7</ele>
        <time>2023-01-20T15:02:23Z</time>
      </trkpt>
      <trkpt lat="49.89986" lon="2.28343">
        <ele>22.7</ele>
        <time>2023-01-20T15:02:24Z</time>
      </trkpt>
      <trkpt lat="49.89985" lon="2.28341">
        <ele>22.7</ele>
        <time>2023-01-20T15:02:26Z</time>
      </trkpt>
      <trkpt lat="49.89985" lon="2.28339">
        <ele>22.7</ele>
        <time>2023-01-20T15:02:27Z</time>
      </trkpt>
      <trkpt lat="49.89984" lon="2.28339">
        <ele>22.7</ele>
        <time>2023-01-20T15:02:28Z</time>
      </trkpt>
      <trkpt lat="49.89983" lon="2.28337">
        <ele>22.7</ele>
        <time>2023-01-20T15:02:29Z</time>
      </trkpt>
      <trkpt lat="49.89982" lon="2.28336">
        <ele>22.7</ele>
        <time>2023-01-20T15:02:30Z</time>
      </trkpt>
      <trkpt lat="49.89982" lon="2.28335">
        <ele>22.7</ele>
        <time>2023-01-20T15:02:31Z</time>
      </trkpt>
      <trkpt lat="49.89979" lon="2.28333">
        <ele>22.7</ele>
        <time>2023-01-20T15:02:32Z</time>
      </trkpt>
      <trkpt lat="49.89978" lon="2.28332">
        <ele>22.7</ele>
        <time>2023-01-20T15:02:34Z</time>
      </trkpt>
      <trkpt lat="49.89977" lon="2.28331">
        <ele>22.7</ele>
        <time>2023-01-20T15:02:35Z</time>
      </trkpt>
      <trkpt lat="49.89976" lon="2.28331">
        <ele>22.7</ele>
        <time>2023-01-20T15:02:36Z</time>
      </trkpt>
      <trkpt lat="49.89975" lon="2.2833">
        <ele>22.7</ele>
        <time>2023-01-20T15:02:37Z</time>
      </trkpt>
      <trkpt lat="49.89972" lon="2.28328">
        <ele>22.7</ele>
        <time>2023-01-20T15:02:38Z</time>
      </trkpt>
      <trkpt lat="49.89972" lon="2.28329">
        <ele>22.8</ele>
        <time>2023-01-20T15:02:39Z</time>
      </trkpt>
      <trkpt lat="49.8997" lon="2.28328">
        <ele>22.8</ele>
        <time>2023-01-20T15:02:40Z</time>
      </trkpt>
      <trkpt lat="49.89969" lon="2.28328">
        <ele>22.8</ele>
        <time>2023-01-20T15:02:41Z</time>
      </trkpt>
      <trkpt lat="49.89968" lon="2.28328">
        <ele>22.8</ele>
        <time>2023-01-20T15:02:43Z</time>
      </trkpt>
      <trkpt lat="49.89966" lon="2.28327">
        <ele>22.8</ele>
        <time>2023-01-20T15:02:44Z</time>
      </trkpt>
      <trkpt lat="49.89964" lon="2.28327">
        <ele>22.8</ele>
        <time>2023-01-20T15:02:45Z</time>
      </trkpt>
      <trkpt lat="49.89963" lon="2.28328">
        <ele>22.8</ele>
        <time>2023-01-20T15:02:46Z</time>
      </trkpt>
      <trkpt lat="49.89962" lon="2.28328">
        <ele>22.8</ele>
        <time>2023-01-20T15:02:47Z</time>
      </trkpt>
      <trkpt lat="49.89961" lon="2.28331">
        <ele>22.8</ele>
        <time>2023-01-20T15:02:48Z</time>
      </trkpt>
      <trkpt lat="49.8996" lon="2.28331">
        <ele>22.8</ele>
        <time>2023-01-20T15:02:49Z</time>
      </trkpt>
      <trkpt lat="49.89959" lon="2.28332">
        <ele>22.8</ele>
        <time>2023-01-20T15:02:50Z</time>
      </trkpt>
      <trkpt lat="49.89958" lon="2.28333">
        <ele>22.8</ele>
        <time>2023-01-20T15:02:51Z</time>
      </trkpt>
      <trkpt lat="49.89957" lon="2.28334">
        <ele>22.8</ele>
        <time>2023-01-20T15:02:53Z</time>
      </trkpt>
      <trkpt lat="49.89956" lon="2.28336">
        <ele>22.8</ele>
        <time>2023-01-20T15:02:54Z</time>
      </trkpt>
      <trkpt lat="49.89954" lon="2.28336">
        <ele>22.8</ele>
        <time>2023-01-20T15:02:55Z</time>
      </trkpt>
      <trkpt lat="49.89952" lon="2.28337">
        <ele>22.8</ele>
        <time>2023-01-20T15:02:56Z</time>
      </trkpt>
      <trkpt lat="49.89951" lon="2.28337">
        <ele>22.8</ele>
        <time>2023-01-20T15:02:57Z</time>
      </trkpt>
      <trkpt lat="49.8995" lon="2.28337">
        <ele>22.8</ele>
        <time>2023-01-20T15:02:58Z</time>
      </trkpt>
      <trkpt lat="49.8995" lon="2.28338">
        <ele>22.8</ele>
        <time>2023-01-20T15:02:59Z</time>
      </trkpt>
      <trkpt lat="49.89949" lon="2.28338">
        <ele>22.8</ele>
        <time>2023-01-20T15:03:01Z</time>
      </trkpt>
      <trkpt lat="49.89949" lon="2.28338">
        <ele>22.8</ele>
        <time>2023-01-20T15:03:02Z</time>
      </trkpt>
      <trkpt lat="49.89948" lon="2.28338">
        <ele>22.8</ele>
        <time>2023-01-20T15:03:03Z</time>
      </trkpt>
      <trkpt lat="49.89945" lon="2.28339">
        <ele>22.9</ele>
        <time>2023-01-20T15:03:04Z</time>
      </trkpt>
      <trkpt lat="49.89945" lon="2.28339">
        <ele>22.9</ele>
        <time>2023-01-20T15:03:05Z</time>
      </trkpt>
      <trkpt lat="49.89944" lon="2.28338">
        <ele>22.9</ele>
        <time>2023-01-20T15:03:06Z</time>
      </trkpt>
      <trkpt lat="49.89942" lon="2.28338">
        <ele>22.9</ele>
        <time>2023-01-20T15:03:07Z</time>
      </trkpt>
      <trkpt lat="49.89941" lon="2.28337">
        <ele>22.9</ele>
        <time>2023-01-20T15:03:08Z</time>
      </trkpt>
      <trkpt lat="49.8994" lon="2.28337">
        <ele>22.9</ele>
        <time>2023-01-20T15:03:09Z</time>
      </trkpt>
      <trkpt lat="49.89939" lon="2.28337">
        <ele>22.9</ele>
        <time>2023-01-20T15:03:11Z</time>
      </trkpt>
      <trkpt lat="49.89938" lon="2.28336">
        <ele>22.9</ele>
        <time>2023-01-20T15:03:12Z</time>
      </trkpt>
      <trkpt lat="49.89937" lon="2.28336">
        <ele>22.9</ele>
        <time>2023-01-20T15:03:13Z</time>
      </trkpt>
      <trkpt lat="49.89936" lon="2.28334">
        <ele>22.9</ele>
        <time>2023-01-20T15:03:14Z</time>
      </trkpt>
      <trkpt lat="49.89935" lon="2.28334">
        <ele>22.9</ele>
        <time>2023-01-20T15:03:15Z</time>
      </trkpt>
      <trkpt lat="49.89934" lon="2.28333">
        <ele>22.9</ele>
        <time>2023-01-20T15:03:16Z</time>
      </trkpt>
      <trkpt lat="49.89933" lon="2.28333">
        <ele>22.9</ele>
        <time>2023-01-20T15:03:17Z</time>
      </trkpt>
      <trkpt lat="49.89931" lon="2.28332">
        <ele>22.9</ele>
        <time>2023-01-20T15:03:18Z</time>
      </trkpt>
      <trkpt lat="49.89931" lon="2.28331">
        <ele>22.9</ele>
        <time>2023-01-20T15:03:20Z</time>
      </trkpt>
      <trkpt lat="49.8993" lon="2.28331">
        <ele>22.9</ele>
        <time>2023-01-20T15:03:21Z</time>
      </trkpt>
      <trkpt lat="49.89929" lon="2.2833">
        <ele>22.9</ele>
        <time>2023-01-20T15:03:22Z</time>
      </trkpt>
      <trkpt lat="49.89927" lon="2.28328">
        <ele>22.9</ele>
        <time>2023-01-20T15:03:23Z</time>
      </trkpt>
      <trkpt lat="49.89926" lon="2.28327">
        <ele>22.9</ele>
        <time>2023-01-20T15:03:24Z</time>
      </trkpt>
      <trkpt lat="49.89926" lon="2.28326">
        <ele>22.9</ele>
        <time>2023-01-20T15:03:25Z</time>
      </trkpt>
      <trkpt lat="49.89925" lon="2.28324">
        <ele>22.9</ele>
        <time>2023-01-20T15:03:27Z</time>
      </trkpt>
      <trkpt lat="49.89925" lon="2.28322">
        <ele>22.9</ele>
        <time>2023-01-20T15:03:28Z</time>
      </trkpt>
      <trkpt lat="49.89925" lon="2.28319">
        <ele>22.9</ele>
        <time>2023-01-20T15:03:29Z</time>
      </trkpt>
      <trkpt lat="49.89925" lon="2.28319">
        <ele>22.9</ele>
        <time>2023-01-20T15:03:30Z</time>
      </trkpt>
      <trkpt lat="49.89925" lon="2.28317">
        <ele>22.9</ele>
        <time>2023-01-20T15:03:31Z</time>
      </trkpt>
      <trkpt lat="49.89924" lon="2.28314">
        <ele>22.9</ele>
        <time>2023-01-20T15:03:32Z</time>
      </trkpt>
      <trkpt lat="49.89924" lon="2.28312">
        <ele>22.9</ele>
        <time>2023-01-20T15:03:33Z</time>
      </trkpt>
      <trkpt lat="49.89923" lon="2.2831">
        <ele>22.9</ele>
        <time>2023-01-20T15:03:34Z</time>
      </trkpt>
      <trkpt lat="49.89923" lon="2.28309">
        <ele>22.9</ele>
        <time>2023-01-20T15:03:35Z</time>
      </trkpt>
      <trkpt lat="49.89923" lon="2.28307">
        <ele>22.9</ele>
        <time>2023-01-20T15:03:36Z</time>
      </trkpt>
      <trkpt lat="49.89923" lon="2.28305">
        <ele>22.9</ele>
        <time>2023-01-20T15:03:38Z</time>
      </trkpt>
      <trkpt lat="49.89924" lon="2.28303">
        <ele>22.9</ele>
        <time>2023-01-20T15:03:39Z</time>
      </trkpt>
      <trkpt lat="49.89925" lon="2.28304">
        <ele>22.9</ele>
        <time>2023-01-20T15:03:40Z</time>
      </trkpt>
      <trkpt lat="49.89925" lon="2.28303">
        <ele>22.9</ele>
        <time>2023-01-20T15:03:41Z</time>
      </trkpt>
      <trkpt lat="49.89924" lon="2.28301">
        <ele>22.9</ele>
        <time>2023-01-20T15:03:42Z</time>
      </trkpt>
      <trkpt lat="49.89923" lon="2.28297">
        <ele>22.9</ele>
        <time>2023-01-20T15:03:43Z</time>
      </trkpt>
      <trkpt lat="49.89923" lon="2.28297">
        <ele>22.9</ele>
        <time>2023-01-20T15:03:45Z</time>
      </trkpt>
      <trkpt lat="49.89922" lon="2.28296">
        <ele>22.9</ele>
        <time>2023-01-20T15:03:46Z</time>
      </trkpt>
      <trkpt lat="49.89921" lon="2.28295">
        <ele>22.9</ele>
        <time>2023-01-20T15:03:47Z</time>
      </trkpt>
      <trkpt lat="49.8992" lon="2.28293">
        <ele>22.9</ele>
        <time>2023-01-20T15:03:48Z</time>
      </trkpt>
      <trkpt lat="49.89919" lon="2.28291">
        <ele>22.9</ele>
        <time>2023-01-20T15:03:49Z</time>
      </trkpt>
      <trkpt lat="49.89919" lon="2.2829">
        <ele>22.9</ele>
        <time>2023-01-20T15:03:50Z</time>
      </trkpt>
      <trkpt lat="49.89918" lon="2.28288">
        <ele>22.9</ele>
        <time>2023-01-20T15:03:52Z</time>
      </trkpt>
      <trkpt lat="49.89918" lon="2.28286">
        <ele>22.9</ele>
        <time>2023-01-20T15:03:53Z</time>
      </trkpt>
      <trkpt lat="49.89919" lon="2.28283">
        <ele>22.9</ele>
        <time>2023-01-20T15:03:54Z</time>
      </trkpt>
      <trkpt lat="49.89919" lon="2.28283">
        <ele>22.9</ele>
        <time>2023-01-20T15:03:55Z</time>
      </trkpt>
      <trkpt lat="49.89918" lon="2.28282">
        <ele>22.9</ele>
        <time>2023-01-20T15:03:56Z</time>
      </trkpt>
      <trkpt lat="49.89917" lon="2.2828">
        <ele>22.9</ele>
        <time>2023-01-20T15:03:57Z</time>
      </trkpt>
      <trkpt lat="49.89916" lon="2.28279">
        <ele>22.9</ele>
        <time>2023-01-20T15:03:59Z</time>
      </trkpt>
      <trkpt lat="49.89916" lon="2.28277">
        <ele>22.9</ele>
        <time>2023-01-20T15:04:00Z</time>
      </trkpt>
      <trkpt lat="49.89916" lon="2.28276">
        <ele>22.9</ele>
        <time>2023-01-20T15:04:01Z</time>
      </trkpt>
      <trkpt lat="49.89916" lon="2.28275">
        <ele>22.9</ele>
        <time>2023-01-20T15:04:02Z</time>
      </trkpt>
      <trkpt lat="49.89915" lon="2.28274">
        <ele>22.9</ele>
        <time>2023-01-20T15:04:03Z</time>
      </trkpt>
      <trkpt lat="49.89914" lon="2.28271">
        <ele>22.9</ele>
        <time>2023-01-20T15:04:04Z</time>
      </trkpt>
      <trkpt lat="49.89914" lon="2.2827">
        <ele>22.9</ele>
        <time>2023-01-20T15:04:06Z</time>
      </trkpt>
      <trkpt lat="49.89914" lon="2.28268">
        <ele>22.9</ele>
        <time>2023-01-20T15:04:07Z</time>
      </trkpt>
      <trkpt lat="49.89913" lon="2.28267">
        <ele>22.9</ele>
        <time>2023-01-20T15:04:09Z</time>
      </trkpt>
      <trkpt lat="49.89913" lon="2.28266">
        <ele>22.9</ele>
        <time>2023-01-20T15:04:10Z</time>
      </trkpt>
      <trkpt lat="49.89913" lon="2.28265">
        <ele>22.9</ele>
        <time>2023-01-20T15:04:11Z</time>
      </trkpt>
      <trkpt lat="49.89913" lon="2.28264">
        <ele>22.9</ele>
        <time>2023-01-20T15:04:12Z</time>
      </trkpt>
      <trkpt lat="49.89913" lon="2.28263">
        <ele>22.9</ele>
        <time>2023-01-20T15:04:13Z</time>
      </trkpt>
      <trkpt lat="49.89913" lon="2.28261">
        <ele>23</ele>
        <time>2023-01-20T15:04:14Z</time>
      </trkpt>
      <trkpt lat="49.89912" lon="2.2826">
        <ele>23</ele>
        <time>2023-01-20T15:04:15Z</time>
      </trkpt>
      <trkpt lat="49.89912" lon="2.28258">
        <ele>23</ele>
        <time>2023-01-20T15:04:17Z</time>
      </trkpt>
      <trkpt lat="49.89911" lon="2.28257">
        <ele>23</ele>
        <time>2023-01-20T15:04:18Z</time>
      </trkpt>
      <trkpt lat="49.89911" lon="2.28255">
        <ele>23</ele>
        <time>2023-01-20T15:04:19Z</time>
      </trkpt>
      <trkpt lat="49.8991" lon="2.28255">
        <ele>23</ele>
        <time>2023-01-20T15:04:20Z</time>
      </trkpt>
      <trkpt lat="49.8991" lon="2.28254">
        <ele>23</ele>
        <time>2023-01-20T15:04:21Z</time>
      </trkpt>
      <trkpt lat="49.8991" lon="2.28252">
        <ele>23</ele>
        <time>2023-01-20T15:04:22Z</time>
      </trkpt>
      <trkpt lat="49.89909" lon="2.28251">
        <ele>23</ele>
        <time>2023-01-20T15:04:23Z</time>
      </trkpt>
      <trkpt lat="49.89909" lon="2.28249">
        <ele>23</ele>
        <time>2023-01-20T15:04:24Z</time>
      </trkpt>
      <trkpt lat="49.89909" lon="2.28248">
        <ele>23</ele>
        <time>2023-01-20T15:04:26Z</time>
      </trkpt>
      <trkpt lat="49.89909" lon="2.28247">
        <ele>23</ele>
        <time>2023-01-20T15:04:27Z</time>
      </trkpt>
      <trkpt lat="49.89908" lon="2.28246">
        <ele>23</ele>
        <time>2023-01-20T15:04:28Z</time>
      </trkpt>
      <trkpt lat="49.89908" lon="2.28245">
        <ele>23</ele>
        <time>2023-01-20T15:04:29Z</time>
      </trkpt>
      <trkpt lat="49.89908" lon="2.28244">
        <ele>23</ele>
        <time>2023-01-20T15:04:30Z</time>
      </trkpt>
      <trkpt lat="49.89908" lon="2.28242">
        <ele>23</ele>
        <time>2023-01-20T15:04:31Z</time>
      </trkpt>
      <trkpt lat="49.89908" lon="2.2824">
        <ele>23</ele>
        <time>2023-01-20T15:04:33Z</time>
      </trkpt>
      <trkpt lat="49.89907" lon="2.28239">
        <ele>23</ele>
        <time>2023-01-20T15:04:34Z</time>
      </trkpt>
      <trkpt lat="49.89907" lon="2.28238">
        <ele>23</ele>
        <time>2023-01-20T15:04:35Z</time>
      </trkpt>
      <trkpt lat="49.89907" lon="2.28237">
        <ele>23</ele>
        <time>2023-01-20T15:04:36Z</time>
      </trkpt>
      <trkpt lat="49.89907" lon="2.28237">
        <ele>23</ele>
        <time>2023-01-20T15:04:37Z</time>
      </trkpt>
      <trkpt lat="49.89907" lon="2.28236">
        <ele>23</ele>
        <time>2023-01-20T15:04:39Z</time>
      </trkpt>
      <trkpt lat="49.89907" lon="2.28234">
        <ele>23</ele>
        <time>2023-01-20T15:04:40Z</time>
      </trkpt>
      <trkpt lat="49.89908" lon="2.28234">
        <ele>23</ele>
        <time>2023-01-20T15:04:42Z</time>
      </trkpt>
      <trkpt lat="49.89908" lon="2.28233">
        <ele>23</ele>
        <time>2023-01-20T15:04:43Z</time>
      </trkpt>
      <trkpt lat="49.89909" lon="2.28234">
        <ele>23</ele>
        <time>2023-01-20T15:04:44Z</time>
      </trkpt>
      <trkpt lat="49.89908" lon="2.28235">
        <ele>23</ele>
        <time>2023-01-20T15:04:46Z</time>
      </trkpt>
      <trkpt lat="49.89908" lon="2.28235">
        <ele>23</ele>
        <time>2023-01-20T15:04:47Z</time>
      </trkpt>
      <trkpt lat="49.89908" lon="2.28235">
        <ele>23</ele>
        <time>2023-01-20T15:04:48Z</time>
      </trkpt>
      <trkpt lat="49.89908" lon="2.28234">
        <ele>23</ele>
        <time>2023-01-20T15:04:50Z</time>
      </trkpt>
      <trkpt lat="49.89908" lon="2.28234">
        <ele>23</ele>
        <time>2023-01-20T15:04:51Z</time>
      </trkpt>
      <trkpt lat="49.89909" lon="2.28234">
        <ele>23</ele>
        <time>2023-01-20T15:04:52Z</time>
      </trkpt>
      <trkpt lat="49.89909" lon="2.28234">
        <ele>23</ele>
        <time>2023-01-20T15:04:54Z</time>
      </trkpt>
      <trkpt lat="49.89909" lon="2.28234">
        <ele>23</ele>
        <time>2023-01-20T15:04:55Z</time>
      </trkpt>
      <trkpt lat="49.89909" lon="2.28235">
        <ele>23</ele>
        <time>2023-01-20T15:04:56Z</time>
      </trkpt>
      <trkpt lat="49.89909" lon="2.28235">
        <ele>23</ele>
        <time>2023-01-20T15:04:58Z</time>
      </trkpt>
      <trkpt lat="49.89909" lon="2.28238">
        <ele>23</ele>
        <time>2023-01-20T15:04:59Z</time>
      </trkpt>
      <trkpt lat="49.89909" lon="2.28238">
        <ele>23</ele>
        <time>2023-01-20T15:05:00Z</time>
      </trkpt>
      <trkpt lat="49.89909" lon="2.28238">
        <ele>23</ele>
        <time>2023-01-20T15:05:01Z</time>
      </trkpt>
      <trkpt lat="49.89909" lon="2.28238">
        <ele>23</ele>
        <time>2023-01-20T15:05:02Z</time>
      </trkpt>
      <trkpt lat="49.89909" lon="2.28238">
        <ele>23</ele>
        <time>2023-01-20T15:05:03Z</time>
      </trkpt>
      <trkpt lat="49.89909" lon="2.28238">
        <ele>23</ele>
        <time>2023-01-20T15:05:04Z</time>
      </trkpt>
      <trkpt lat="49.89909" lon="2.28238">
        <ele>23</ele>
        <time>2023-01-20T15:05:05Z</time>
      </trkpt>
      <trkpt lat="49.89909" lon="2.28238">
        <ele>23</ele>
        <time>2023-01-20T15:05:06Z</time>
      </trkpt>
      <trkpt lat="49.89909" lon="2.28238">
        <ele>23</ele>
        <time>2023-01-20T15:05:07Z</time>
      </trkpt>
      <trkpt lat="49.89909" lon="2.28238">
        <ele>23</ele>
        <time>2023-01-20T15:05:08Z</time>
      </trkpt>
      <trkpt lat="49.89909" lon="2.28243">
        <ele>23</ele>
        <time>2023-01-20T15:05:09Z</time>
      </trkpt>
      <trkpt lat="49.8991" lon="2.28243">
        <ele>23</ele>
        <time>2023-01-20T15:05:10Z</time>
      </trkpt>
      <trkpt lat="49.8991" lon="2.28243">
        <ele>23</ele>
        <time>2023-01-20T15:05:11Z</time>
      </trkpt>
      <trkpt lat="49.89911" lon="2.28243">
        <ele>23</ele>
        <time>2023-01-20T15:05:12Z</time>
      </trkpt>
      <trkpt lat="49.89911" lon="2.28243">
        <ele>23</ele>
        <time>2023-01-20T15:05:13Z</time>
      </trkpt>
      <trkpt lat="49.89911" lon="2.28241">
        <ele>23</ele>
        <time>2023-01-20T15:05:14Z</time>
      </trkpt>
      <trkpt lat="49.89912" lon="2.28241">
        <ele>23</ele>
        <time>2023-01-20T15:05:16Z</time>
      </trkpt>
      <trkpt lat="49.89912" lon="2.28242">
        <ele>23</ele>
        <time>2023-01-20T15:05:17Z</time>
      </trkpt>
      <trkpt lat="49.89913" lon="2.28242">
        <ele>23</ele>
        <time>2023-01-20T15:05:19Z</time>
      </trkpt>
      <trkpt lat="49.89913" lon="2.28242">
        <ele>23</ele>
        <time>2023-01-20T15:05:20Z</time>
      </trkpt>
      <trkpt lat="49.89913" lon="2.28242">
        <ele>23</ele>
        <time>2023-01-20T15:05:22Z</time>
      </trkpt>
      <trkpt lat="49.89913" lon="2.28243">
        <ele>23</ele>
        <time>2023-01-20T15:05:23Z</time>
      </trkpt>
      <trkpt lat="49.89913" lon="2.28243">
        <ele>23</ele>
        <time>2023-01-20T15:05:25Z</time>
      </trkpt>
      <trkpt lat="49.89913" lon="2.28243">
        <ele>23</ele>
        <time>2023-01-20T15:05:26Z</time>
      </trkpt>
      <trkpt lat="49.89913" lon="2.28243">
        <ele>23</ele>
        <time>2023-01-20T15:05:27Z</time>
      </trkpt>
      <trkpt lat="49.89913" lon="2.28243">
        <ele>23</ele>
        <time>2023-01-20T15:05:29Z</time>
      </trkpt>
      <trkpt lat="49.89913" lon="2.28243">
        <ele>23</ele>
        <time>2023-01-20T15:05:30Z</time>
      </trkpt>
      <trkpt lat="49.89913" lon="2.28244">
        <ele>23</ele>
        <time>2023-01-20T15:05:31Z</time>
      </trkpt>
      <trkpt lat="49.89913" lon="2.28244">
        <ele>23</ele>
        <time>2023-01-20T15:05:32Z</time>
      </trkpt>
      <trkpt lat="49.89913" lon="2.28245">
        <ele>23</ele>
        <time>2023-01-20T15:05:34Z</time>
      </trkpt>
      <trkpt lat="49.89912" lon="2.28245">
        <ele>23</ele>
        <time>2023-01-20T15:05:35Z</time>
      </trkpt>
      <trkpt lat="49.89912" lon="2.28245">
        <ele>23</ele>
        <time>2023-01-20T15:05:36Z</time>
      </trkpt>
      <trkpt lat="49.89912" lon="2.28245">
        <ele>23</ele>
        <time>2023-01-20T15:05:37Z</time>
      </trkpt>
      <trkpt lat="49.89912" lon="2.28245">
        <ele>23</ele>
        <time>2023-01-20T15:05:39Z</time>
      </trkpt>
      <trkpt lat="49.89912" lon="2.28245">
        <ele>23</ele>
        <time>2023-01-20T15:05:40Z</time>
      </trkpt>
    </trkseg>
  </trk>
</gpx>